
Distance (Route):
Temperature : 21.7°C
Humidity : 64.3%
Pressure : 996.5hPa| Receiver | Frames | First received | Last received |
|---|---|---|---|
| KRY50SP-1 | 811 | 2026-08-31 04:59:38 | 2026-08-31 08:01:43 |
| AA1-15 | 459 | 2026-08-31 05:02:48 | 2026-08-31 06:54:34 |
| DB0DAN | 298 | 2026-08-31 04:50:40 | 2026-08-31 06:54:25 |
| SP3BTT-10 | 268 | 2026-08-31 04:51:24 | 2026-08-31 08:09:45 |
| SP3WXH | 211 | 2026-08-31 11:33:29 | 2026-08-31 12:46:44 |
| DM0DOS-11 | 177 | 2026-08-31 05:19:14 | 2026-08-31 06:02:53 |
| SP3WXH-11 | 163 | 2026-08-31 05:12:28 | 2026-08-31 07:53:54 |
| SONDE2-12 | 156 | 2026-08-31 04:48:01 | 2026-08-31 06:32:30 |
| SONDE2-11 | 150 | 2026-08-31 04:46:17 | 2026-08-31 07:19:59 |
| EDDB2-11 | 147 | 2026-08-31 04:46:15 | 2026-08-31 07:20:52 |
| EDDB2-12 | 145 | 2026-08-31 04:46:25 | 2026-08-31 07:19:01 |
| DL1XH-west | 133 | 2026-08-31 05:25:32 | 2026-08-31 05:52:14 |
| 3Z3Z-3 | 113 | 2026-08-31 05:24:08 | 2026-08-31 07:14:32 |
| DL1XH1-15 | 94 | 2026-08-31 05:25:49 | 2026-08-31 05:48:17 |
| DF8AY | 93 | 2026-08-31 05:17:28 | 2026-08-31 05:50:49 |
| AM1SDL-15 | 77 | 2026-08-31 05:57:45 | 2026-08-31 06:57:42 |
| S3001 | 63 | 2026-08-31 04:56:58 | 2026-08-31 06:33:49 |
| 13BRC | 57 | 2026-08-31 04:51:33 | 2026-08-31 06:18:13 |
| SP6BVK | 46 | 2026-08-31 05:02:42 | 2026-08-31 06:41:18 |
| DL2RXE-15 | 38 | 2026-08-31 04:52:27 | 2026-08-31 06:09:30 |
| DB0NH | 33 | 2026-08-31 05:12:19 | 2026-08-31 06:07:28 |
| SONCRA | 31 | 2026-08-31 05:18:30 | 2026-08-31 06:03:00 |
| MECKS9 | 29 | 2026-08-31 05:06:29 | 2026-08-31 06:04:45 |
| DJ2DS-15 | 12 | 2026-08-31 05:37:23 | 2026-08-31 05:46:53 |
| OE3JTB-15 | 7 | 2026-08-31 05:43:59 | 2026-08-31 06:09:29 |
| DF2AP-13 | 5 | 2026-08-31 05:30:18 | 2026-08-31 05:52:39 |
| DC4HF-4 | 5 | 2026-08-31 05:40:11 | 2026-08-31 05:51:00 |
| Receiver | Date | Latitude | Longitude | Direction | Speed | Altitude | Climb | Temperature | Humidity | Pressure | Voltage | Killtimer | Uptime | BKT | XDATA |
|---|---|---|---|---|---|---|---|---|---|---|---|---|---|---|---|
| SP3WXH | 2026-08-31 12:46:44 | 53.27121 | 17.05269 | 0° | 0km/h | 149m | -0.0m/s | 21.7°C | 64.3% | 996.5hPa | 2.9V | 00:00:00 | 00:00:00 | 00:00:00 | |
| SP3WXH | 2026-08-31 12:46:22 | 53.27120 | 17.05267 | 0° | 0km/h | 150m | 0.0m/s | 21.5°C | 65.4% | 996.6hPa | 2.9V | 00:00:00 | 00:00:00 | 00:00:00 | |
| SP3WXH | 2026-08-31 12:46:04 | 53.27121 | 17.05267 | 0° | 0km/h | 148m | -0.0m/s | 21.2°C | 69.0% | 996.5hPa | 2.9V | 00:00:00 | 00:00:00 | 00:00:00 | |
| SP3WXH | 2026-08-31 12:45:42 | 53.27120 | 17.05266 | 0° | 0km/h | 148m | -0.0m/s | 21.2°C | 68.7% | 996.5hPa | 2.9V | 00:00:00 | 00:00:00 | 00:00:00 | |
| SP3WXH | 2026-08-31 12:45:22 | 53.27121 | 17.05267 | 0° | 0km/h | 147m | 0.1m/s | 21.3°C | 68.3% | 996.4hPa | 2.9V | 00:00:00 | 00:00:00 | 00:00:00 | |
| SP3WXH | 2026-08-31 12:45:01 | 53.27121 | 17.05267 | 0° | 0km/h | 148m | -0.0m/s | 21.4°C | 66.6% | 996.5hPa | 2.9V | 00:00:00 | 00:00:00 | 00:00:00 | |
| SP3WXH | 2026-08-31 12:44:42 | 53.27121 | 17.05268 | 0° | 0km/h | 148m | -0.0m/s | 21.5°C | 66.3% | 996.4hPa | 2.9V | 00:00:00 | 00:00:00 | 00:00:00 | |
| SP3WXH | 2026-08-31 12:44:21 | 53.27122 | 17.05268 | 0° | 0km/h | 149m | -0.0m/s | 21.3°C | 67.9% | 996.4hPa | 2.9V | 00:00:00 | 00:00:00 | 00:00:00 | |
| SP3WXH | 2026-08-31 12:44:00 | 53.27121 | 17.05268 | 0° | 0km/h | 150m | -0.0m/s | 21.2°C | 69.2% | 996.4hPa | 2.9V | 00:00:00 | 00:00:00 | 00:00:00 | |
| SP3WXH | 2026-08-31 12:43:40 | 53.27121 | 17.05268 | 0° | 0km/h | 150m | -0.0m/s | 21.6°C | 64.1% | 996.5hPa | 2.9V | 00:00:00 | 00:00:00 | 00:00:00 | |
| SP3WXH | 2026-08-31 12:43:18 | 53.27121 | 17.05268 | 0° | 0km/h | 150m | -0.1m/s | 21.5°C | 65.1% | 996.4hPa | 2.9V | 00:00:00 | 00:00:00 | 00:00:00 | |
| SP3WXH | 2026-08-31 12:42:58 | 53.27121 | 17.05269 | 0° | 0km/h | 149m | -0.0m/s | 21.4°C | 66.3% | 996.5hPa | 2.9V | 00:00:00 | 00:00:00 | 00:00:00 | |
| SP3WXH | 2026-08-31 12:42:37 | 53.27121 | 17.05269 | 0° | 0km/h | 149m | 0.0m/s | 21.5°C | 65.4% | 996.5hPa | 2.9V | 00:00:00 | 00:00:00 | 00:00:00 | |
| SP3WXH | 2026-08-31 12:42:17 | 53.27121 | 17.05269 | 0° | 0km/h | 149m | 0.0m/s | 21.6°C | 64.3% | 996.3hPa | 2.9V | 00:00:00 | 00:00:00 | 00:00:00 | |
| SP3WXH | 2026-08-31 12:41:55 | 53.27121 | 17.05269 | 0° | 0km/h | 148m | -0.1m/s | 21.6°C | 63.5% | 996.4hPa | 2.9V | 00:00:00 | 00:00:00 | 00:00:00 | |
| SP3WXH | 2026-08-31 12:41:34 | 53.27121 | 17.05269 | 0° | 0km/h | 149m | -0.0m/s | 21.7°C | 63.9% | 996.4hPa | 2.9V | 00:00:00 | 00:00:00 | 00:00:00 | |
| SP3WXH | 2026-08-31 12:41:14 | 53.27122 | 17.05269 | 0° | 0km/h | 150m | 0.0m/s | 21.1°C | 70.7% | 996.6hPa | 2.9V | 00:00:00 | 00:00:00 | 00:00:00 | |
| SP3WXH | 2026-08-31 12:40:53 | 53.27122 | 17.05269 | 0° | 0km/h | 151m | 0.0m/s | 21.6°C | 66.1% | 996.3hPa | 2.9V | 00:00:00 | 00:00:00 | 00:00:00 | |
| SP3WXH | 2026-08-31 12:40:34 | 53.27121 | 17.05268 | 0° | 0km/h | 151m | -0.0m/s | 21.4°C | 67.6% | 996.4hPa | 2.9V | 00:00:00 | 00:00:00 | 00:00:00 | |
| SP3WXH | 2026-08-31 12:40:13 | 53.27121 | 17.05268 | 0° | 0km/h | 151m | 0.0m/s | 21.4°C | 67.5% | 996.4hPa | 2.9V | 00:00:00 | 00:00:00 | 00:00:00 | |
| SP3WXH | 2026-08-31 12:39:52 | 53.27121 | 17.05269 | 0° | 0km/h | 150m | 0.1m/s | 21.4°C | 67.1% | 996.6hPa | 2.9V | 00:00:00 | 00:00:00 | 00:00:00 | |
| SP3WXH | 2026-08-31 12:39:32 | 53.27121 | 17.05269 | 0° | 0km/h | 149m | -0.1m/s | 21.3°C | 68.0% | 996.6hPa | 2.9V | 00:00:00 | 00:00:00 | 00:00:00 | |
| SP3WXH | 2026-08-31 12:39:12 | 53.27121 | 17.05269 | 0° | 0km/h | 148m | 0.0m/s | 21.5°C | 66.1% | 996.6hPa | 2.9V | 00:00:00 | 00:00:00 | 00:00:00 | |
| SP3WXH | 2026-08-31 12:38:55 | 53.27121 | 17.05269 | 0° | 0km/h | 148m | 0.0m/s | 21.2°C | 68.6% | 996.3hPa | 2.9V | 00:00:00 | 00:00:00 | 00:00:00 | |
| SP3WXH | 2026-08-31 12:38:36 | 53.27121 | 17.05269 | 0° | 0km/h | 149m | -0.0m/s | 21.1°C | 70.6% | 996.4hPa | 2.9V | 00:00:00 | 00:00:00 | 00:00:00 | |
| SP3WXH | 2026-08-31 12:38:09 | 53.27121 | 17.05268 | 0° | 0km/h | 150m | -0.0m/s | 21.5°C | 66.4% | 996.7hPa | 2.9V | 00:00:00 | 00:00:00 | 00:00:00 | |
| SP3WXH | 2026-08-31 12:37:49 | 53.27120 | 17.05269 | 0° | 0km/h | 150m | 0.1m/s | 21.5°C | 65.0% | 996.4hPa | 2.9V | 00:00:00 | 00:00:00 | 00:00:00 | |
| SP3WXH | 2026-08-31 12:37:45 | 53.27120 | 17.05268 | 0° | 0km/h | 151m | 0.0m/s | 21.3°C | 68.2% | 996.5hPa | 2.9V | 00:00:00 | 00:00:00 | 00:00:00 | |
| SP3WXH | 2026-08-31 12:37:42 | 53.27121 | 17.05268 | 0° | 0km/h | 151m | 0.1m/s | 21.4°C | 67.5% | 996.4hPa | 2.9V | 00:00:00 | 00:00:00 | 00:00:00 | |
| SP3WXH | 2026-08-31 12:37:25 | 53.27121 | 17.05269 | 0° | 0km/h | 151m | -0.1m/s | 21.5°C | 66.8% | 996.4hPa | 2.9V | 00:00:00 | 00:00:00 | 00:00:00 | |
| SP3WXH | 2026-08-31 12:36:31 | 53.27121 | 17.05269 | 0° | 0km/h | 151m | -0.0m/s | 21.4°C | 67.5% | 996.5hPa | 2.9V | 00:00:00 | 00:00:00 | 00:00:00 | |
| SP3WXH | 2026-08-31 12:36:22 | 53.27121 | 17.05269 | 0° | 0km/h | 150m | 0.0m/s | 21.4°C | 67.6% | 996.6hPa | 2.9V | 00:00:00 | 00:00:00 | 00:00:00 | |
| SP3WXH | 2026-08-31 12:36:03 | 53.27121 | 17.05269 | 0° | 0km/h | 150m | -0.2m/s | 21.4°C | 67.6% | 996.4hPa | 2.9V | 00:00:00 | 00:00:00 | 00:00:00 | |
| SP3WXH | 2026-08-31 12:35:23 | 53.27121 | 17.05269 | 0° | 0km/h | 150m | 0.1m/s | 21.5°C | 66.6% | 996.6hPa | 2.9V | 00:00:00 | 00:00:00 | 00:00:00 | |
| SP3WXH | 2026-08-31 12:35:03 | 53.27121 | 17.05269 | 0° | 0km/h | 150m | -0.1m/s | 21.4°C | 68.9% | 996.5hPa | 2.9V | 00:00:00 | 00:00:00 | 00:00:00 | |
| SP3WXH | 2026-08-31 12:34:44 | 53.27121 | 17.05269 | 0° | 0km/h | 150m | 0.0m/s | 21.5°C | 66.3% | 996.5hPa | 2.9V | 00:00:00 | 00:00:00 | 00:00:00 | |
| SP3WXH | 2026-08-31 12:34:23 | 53.27121 | 17.05269 | 0° | 0km/h | 150m | 0.1m/s | 21.5°C | 67.4% | 996.3hPa | 2.9V | 00:00:00 | 00:00:00 | 00:00:00 | |
| SP3WXH | 2026-08-31 12:34:03 | 53.27121 | 17.05269 | 0° | 0km/h | 151m | 0.0m/s | 21.4°C | 68.1% | 996.4hPa | 2.9V | 00:00:00 | 00:00:00 | 00:00:00 | |
| SP3WXH | 2026-08-31 12:33:42 | 53.27120 | 17.05268 | 0° | 0km/h | 150m | -0.0m/s | 21.6°C | 64.8% | 996.5hPa | 2.9V | 00:00:00 | 00:00:00 | 00:00:00 | |
| SP3WXH | 2026-08-31 12:33:21 | 53.27120 | 17.05268 | 0° | 0km/h | 151m | -0.1m/s | 21.4°C | 67.2% | 996.6hPa | 2.9V | 00:00:00 | 00:00:00 | 00:00:00 | |
| SP3WXH | 2026-08-31 12:33:01 | 53.27120 | 17.05269 | 0° | 0km/h | 151m | -0.1m/s | 21.7°C | 64.0% | 996.4hPa | 2.9V | 00:00:00 | 00:00:00 | 00:00:00 | |
| SP3WXH | 2026-08-31 12:32:39 | 53.27120 | 17.05269 | 0° | 0km/h | 150m | 0.0m/s | 21.5°C | 65.8% | 996.5hPa | 2.9V | 00:00:00 | 00:00:00 | 00:00:00 | |
| SP3WXH | 2026-08-31 12:32:19 | 53.27120 | 17.05269 | 0° | 0km/h | 150m | 0.0m/s | 21.7°C | 63.5% | 996.3hPa | 2.9V | 00:00:00 | 00:00:00 | 00:00:00 | |
| SP3WXH | 2026-08-31 12:31:59 | 53.27120 | 17.05268 | 0° | 0km/h | 151m | -0.0m/s | 21.6°C | 64.6% | 996.4hPa | 2.9V | 00:00:00 | 00:00:00 | 00:00:00 | |
| SP3WXH | 2026-08-31 12:31:38 | 53.27120 | 17.05268 | 0° | 0km/h | 150m | -0.0m/s | 21.6°C | 65.3% | 996.3hPa | 2.9V | 00:00:00 | 00:00:00 | 00:00:00 | |
| SP3WXH | 2026-08-31 12:31:17 | 53.27120 | 17.05268 | 0° | 0km/h | 151m | 0.1m/s | 21.7°C | 65.1% | 996.3hPa | 2.9V | 00:00:00 | 00:00:00 | 00:00:00 | |
| SP3WXH | 2026-08-31 12:30:58 | 53.27121 | 17.05268 | 0° | 0km/h | 151m | -0.1m/s | 21.7°C | 63.6% | 996.5hPa | 2.9V | 00:00:00 | 00:00:00 | 00:00:00 | |
| SP3WXH | 2026-08-31 12:30:37 | 53.27120 | 17.05268 | 0° | 0km/h | 150m | 0.2m/s | 21.7°C | 63.7% | 996.3hPa | 2.9V | 00:00:00 | 00:00:00 | 00:00:00 | |
| SP3WXH | 2026-08-31 12:30:17 | 53.27120 | 17.05268 | 0° | 0km/h | 149m | 0.0m/s | 21.7°C | 63.7% | 996.3hPa | 2.9V | 00:00:00 | 00:00:00 | 00:00:00 | |
| SP3WXH | 2026-08-31 12:29:55 | 53.27121 | 17.05268 | 0° | 0km/h | 149m | 0.1m/s | 21.7°C | 64.4% | 996.4hPa | 2.9V | 00:00:00 | 00:00:00 | 00:00:00 | |
| SP3WXH | 2026-08-31 12:29:35 | 53.27121 | 17.05268 | 0° | 0km/h | 149m | 0.0m/s | 21.8°C | 63.0% | 996.4hPa | 2.9V | 00:00:00 | 00:00:00 | 00:00:00 | |
| SP3WXH | 2026-08-31 12:29:14 | 53.27122 | 17.05268 | 0° | 0km/h | 149m | -0.0m/s | 21.9°C | 63.7% | 996.4hPa | 2.9V | 00:00:00 | 00:00:00 | 00:00:00 | |
| SP3WXH | 2026-08-31 12:28:54 | 53.27122 | 17.05268 | 0° | 0km/h | 148m | -0.1m/s | 21.9°C | 61.7% | 996.3hPa | 2.9V | 00:00:00 | 00:00:00 | 00:00:00 | |
| SP3WXH | 2026-08-31 12:28:33 | 53.27121 | 17.05267 | 0° | 0km/h | 150m | -0.1m/s | 21.7°C | 67.9% | 996.6hPa | 2.9V | 00:00:00 | 00:00:00 | 00:00:00 | |
| SP3WXH | 2026-08-31 12:28:13 | 53.27121 | 17.05268 | 0° | 0km/h | 149m | 0.0m/s | 21.5°C | 71.2% | 996.6hPa | 2.9V | 00:00:00 | 00:00:00 | 00:00:00 | |
| SP3WXH | 2026-08-31 12:27:51 | 53.27121 | 17.05268 | 0° | 0km/h | 148m | -0.1m/s | 21.8°C | 66.2% | 996.6hPa | 2.9V | 00:00:00 | 00:00:00 | 00:00:00 | |
| SP3WXH | 2026-08-31 12:27:31 | 53.27121 | 17.05266 | 0° | 0km/h | 150m | -0.2m/s | 21.9°C | 65.3% | 996.4hPa | 2.9V | 00:00:00 | 00:00:00 | 00:00:00 | |
| SP3WXH | 2026-08-31 12:27:10 | 53.27121 | 17.05267 | 0° | 0km/h | 150m | 0.2m/s | 21.9°C | 65.6% | 996.5hPa | 2.9V | 00:00:00 | 00:00:00 | 00:00:00 | |
| SP3WXH | 2026-08-31 12:26:53 | 53.27121 | 17.05267 | 0° | 0km/h | 149m | 0.0m/s | 21.9°C | 68.3% | 996.5hPa | 2.9V | 00:00:00 | 00:00:00 | 00:00:00 | |
| SP3WXH | 2026-08-31 12:26:29 | 53.27122 | 17.05263 | 0° | 0km/h | 154m | 0.1m/s | 21.8°C | 70.6% | 996.6hPa | 2.9V | 00:00:00 | 00:00:00 | 00:00:00 | |
| SP3WXH | 2026-08-31 12:26:09 | 53.27121 | 17.05265 | 0° | 0km/h | 151m | -0.0m/s | 21.5°C | 73.0% | 996.3hPa | 2.9V | 00:00:00 | 00:00:00 | 00:00:00 | |
| SP3WXH | 2026-08-31 12:25:49 | 53.27121 | 17.05265 | 0° | 0km/h | 151m | 0.1m/s | 21.7°C | 66.7% | 996.4hPa | 2.9V | 00:00:00 | 00:00:00 | 00:00:00 | |
| SP3WXH | 2026-08-31 12:25:27 | 53.27121 | 17.05266 | 0° | 0km/h | 152m | -0.1m/s | 21.8°C | 65.8% | 996.4hPa | 2.9V | 00:00:00 | 00:00:00 | 00:00:00 | |
| SP3WXH | 2026-08-31 12:25:07 | 53.27121 | 17.05266 | 0° | 0km/h | 153m | 0.0m/s | 21.8°C | 65.9% | 996.5hPa | 2.9V | 00:00:00 | 00:00:00 | 00:00:00 | |
| SP3WXH | 2026-08-31 12:24:46 | 53.27121 | 17.05267 | 0° | 0km/h | 150m | -0.0m/s | 21.9°C | 65.6% | 996.2hPa | 2.9V | 00:00:00 | 00:00:00 | 00:00:00 | |
| SP3WXH | 2026-08-31 12:24:26 | 53.27121 | 17.05266 | 0° | 0km/h | 150m | 0.1m/s | 21.9°C | 64.2% | 996.2hPa | 2.9V | 00:00:00 | 00:00:00 | 00:00:00 | |
| SP3WXH | 2026-08-31 12:24:05 | 53.27121 | 17.05267 | 0° | 0km/h | 150m | -0.0m/s | 21.9°C | 67.0% | 996.4hPa | 2.9V | 00:00:00 | 00:00:00 | 00:00:00 | |
| SP3WXH | 2026-08-31 12:23:45 | 53.27121 | 17.05268 | 0° | 0km/h | 150m | -0.1m/s | 21.7°C | 67.5% | 996.3hPa | 2.9V | 00:00:00 | 00:00:00 | 00:00:00 | |
| SP3WXH | 2026-08-31 12:23:24 | 53.27121 | 17.05269 | 0° | 0km/h | 149m | -0.0m/s | 22.0°C | 63.9% | 996.5hPa | 2.9V | 00:00:00 | 00:00:00 | 00:00:00 | |
| SP3WXH | 2026-08-31 12:23:04 | 53.27121 | 17.05269 | 0° | 0km/h | 150m | -0.1m/s | 21.9°C | 64.6% | 996.2hPa | 2.9V | 00:00:00 | 00:00:00 | 00:00:00 | |
| SP3WXH | 2026-08-31 12:22:44 | 53.27120 | 17.05269 | 0° | 0km/h | 149m | -0.1m/s | 21.8°C | 65.5% | 996.4hPa | 2.9V | 00:00:00 | 00:00:00 | 00:00:00 | |
| SP3WXH | 2026-08-31 12:22:23 | 53.27120 | 17.05270 | 0° | 0km/h | 149m | 0.0m/s | 21.8°C | 65.4% | 996.3hPa | 2.9V | 00:00:00 | 00:00:00 | 00:00:00 | |
| SP3WXH | 2026-08-31 12:22:02 | 53.27121 | 17.05270 | 0° | 0km/h | 151m | -0.0m/s | 21.9°C | 64.2% | 996.3hPa | 2.9V | 00:00:00 | 00:00:00 | 00:00:00 | |
| SP3WXH | 2026-08-31 12:21:41 | 53.27120 | 17.05269 | 0° | 0km/h | 150m | -0.0m/s | 22.0°C | 63.0% | 996.4hPa | 2.9V | 00:00:00 | 00:00:00 | 00:00:00 | |
| SP3WXH | 2026-08-31 12:21:21 | 53.27121 | 17.05268 | 0° | 0km/h | 151m | -0.1m/s | 21.9°C | 64.3% | 996.4hPa | 2.9V | 00:00:00 | 00:00:00 | 00:00:00 | |
| SP3WXH | 2026-08-31 12:21:01 | 53.27121 | 17.05268 | 0° | 0km/h | 151m | -0.1m/s | 21.9°C | 64.1% | 996.4hPa | 2.9V | 00:00:00 | 00:00:00 | 00:00:00 | |
| SP3WXH | 2026-08-31 12:20:40 | 53.27121 | 17.05268 | 0° | 0km/h | 151m | -0.2m/s | 21.9°C | 62.1% | 996.3hPa | 2.9V | 00:00:00 | 00:00:00 | 00:00:00 | |
| SP3WXH | 2026-08-31 12:20:21 | 53.27120 | 17.05267 | 0° | 0km/h | 150m | 0.0m/s | 21.9°C | 66.4% | 996.3hPa | 2.9V | 00:00:00 | 00:00:00 | 00:00:00 | |
| SP3WXH | 2026-08-31 12:19:59 | 53.27120 | 17.05268 | 0° | 0km/h | 148m | -0.0m/s | 21.9°C | 66.5% | 996.3hPa | 2.9V | 00:00:00 | 00:00:00 | 00:00:00 | |
| SP3WXH | 2026-08-31 12:19:39 | 53.27120 | 17.05268 | 0° | 0km/h | 148m | 0.0m/s | 21.9°C | 65.2% | 996.3hPa | 2.9V | 00:00:00 | 00:00:00 | 00:00:00 | |
| SP3WXH | 2026-08-31 12:19:18 | 53.27121 | 17.05266 | 0° | 0km/h | 151m | -0.1m/s | 21.9°C | 66.0% | 996.4hPa | 2.9V | 00:00:00 | 00:00:00 | 00:00:00 | |
| SP3WXH | 2026-08-31 12:18:57 | 53.27121 | 17.05267 | 0° | 0km/h | 151m | -0.0m/s | 21.9°C | 65.5% | 996.4hPa | 2.9V | 00:00:00 | 00:00:00 | 00:00:00 | |
| SP3WXH | 2026-08-31 12:18:36 | 53.27121 | 17.05267 | 0° | 0km/h | 150m | 0.0m/s | 21.8°C | 64.8% | 996.4hPa | 2.9V | 00:00:00 | 00:00:00 | 00:00:00 | |
| SP3WXH | 2026-08-31 12:18:16 | 53.27120 | 17.05268 | 0° | 0km/h | 150m | 0.0m/s | 22.0°C | 64.5% | 996.4hPa | 2.9V | 00:00:00 | 00:00:00 | 00:00:00 | |
| SP3WXH | 2026-08-31 12:17:56 | 53.27121 | 17.05268 | 0° | 0km/h | 151m | 0.0m/s | 21.9°C | 65.0% | 996.2hPa | 2.9V | 00:00:00 | 00:00:00 | 00:00:00 | |
| SP3WXH | 2026-08-31 12:17:35 | 53.27121 | 17.05267 | 0° | 0km/h | 150m | 0.1m/s | 21.9°C | 64.5% | 996.2hPa | 2.9V | 00:00:00 | 00:00:00 | 00:00:00 | |
| SP3WXH | 2026-08-31 12:17:15 | 53.27121 | 17.05268 | 0° | 0km/h | 150m | 0.0m/s | 21.9°C | 65.4% | 996.5hPa | 2.9V | 00:00:00 | 00:00:00 | 00:00:00 | |
| SP3WXH | 2026-08-31 12:16:55 | 53.27121 | 17.05268 | 0° | 0km/h | 151m | -0.2m/s | 22.0°C | 64.8% | 996.3hPa | 2.9V | 00:00:00 | 00:00:00 | 00:00:00 | |
| SP3WXH | 2026-08-31 12:16:34 | 53.27121 | 17.05268 | 0° | 0km/h | 151m | 0.1m/s | 21.9°C | 64.9% | 996.2hPa | 2.9V | 00:00:00 | 00:00:00 | 00:00:00 | |
| SP3WXH | 2026-08-31 12:16:13 | 53.27122 | 17.05268 | 339° | 4km/h | 151m | 0.5m/s | 21.9°C | 64.5% | 996.3hPa | 2.9V | 00:00:00 | 00:00:00 | 00:00:00 | |
| SP3WXH | 2026-08-31 12:15:53 | 53.27121 | 17.05268 | 0° | 0km/h | 149m | 0.5m/s | 21.9°C | 63.7% | 996.3hPa | 2.9V | 00:00:00 | 00:00:00 | 00:00:00 | |
| SP3WXH | 2026-08-31 12:15:41 | 53.27121 | 17.05268 | 0° | 0km/h | 149m | 0.0m/s | 21.9°C | 66.4% | 996.3hPa | 2.9V | 00:00:00 | 00:00:00 | 00:00:00 | |
| SP3WXH | 2026-08-31 12:15:13 | 53.27121 | 17.05268 | 0° | 0km/h | 148m | -0.1m/s | 21.9°C | 65.6% | 996.4hPa | 2.9V | 00:00:00 | 00:00:00 | 00:00:00 | |
| SP3WXH | 2026-08-31 12:14:52 | 53.27121 | 17.05267 | 0° | 0km/h | 150m | 0.1m/s | 22.0°C | 65.7% | 996.5hPa | 2.9V | 00:00:00 | 00:00:00 | 00:00:00 | |
| SP3WXH | 2026-08-31 12:14:30 | 53.27121 | 17.05267 | 0° | 0km/h | 149m | 0.1m/s | 22.0°C | 65.5% | 996.4hPa | 2.9V | 00:00:00 | 00:00:00 | 00:00:00 | |
| SP3WXH | 2026-08-31 12:14:10 | 53.27121 | 17.05267 | 0° | 0km/h | 150m | 0.0m/s | 22.0°C | 65.7% | 996.4hPa | 2.9V | 00:00:00 | 00:00:00 | 00:00:00 | |
| SP3WXH | 2026-08-31 12:13:49 | 53.27121 | 17.05267 | 84° | 2km/h | 150m | -0.3m/s | 21.9°C | 66.3% | 996.4hPa | 2.9V | 00:00:00 | 00:00:00 | 00:00:00 | |
| SP3WXH | 2026-08-31 12:13:29 | 53.27121 | 17.05266 | 0° | 0km/h | 152m | 0.0m/s | 21.9°C | 67.4% | 996.5hPa | 2.9V | 00:00:00 | 00:00:00 | 00:00:00 | |
| SP3WXH | 2026-08-31 12:13:09 | 53.27121 | 17.05265 | 0° | 0km/h | 152m | 0.0m/s | 22.0°C | 67.1% | 996.5hPa | 2.9V | 00:00:00 | 00:00:00 | 00:00:00 | |
| SP3WXH | 2026-08-31 12:12:51 | 53.27121 | 17.05265 | 0° | 0km/h | 151m | -0.1m/s | 21.9°C | 67.9% | 996.5hPa | 2.9V | 00:00:00 | 00:00:00 | 00:00:00 | |
| SP3WXH | 2026-08-31 12:12:36 | 53.27120 | 17.05267 | 0° | 0km/h | 149m | -0.0m/s | 21.9°C | 66.1% | 996.2hPa | 2.9V | 00:00:00 | 00:00:00 | 00:00:00 | |
| SP3WXH | 2026-08-31 12:12:25 | 53.27120 | 17.05268 | 0° | 0km/h | 148m | 0.0m/s | 21.9°C | 65.9% | 996.3hPa | 2.9V | 00:00:00 | 00:00:00 | 00:00:00 | |
| SP3WXH | 2026-08-31 12:12:25 | 53.27120 | 17.05267 | 0° | 0km/h | 149m | 0.0m/s | 22.0°C | 64.2% | 996.3hPa | 2.9V | 00:00:00 | 00:00:00 | 00:00:00 | |
| SP3WXH | 2026-08-31 12:12:10 | 53.27121 | 17.05267 | 0° | 0km/h | 149m | 0.0m/s | 22.0°C | 65.9% | 996.5hPa | 2.9V | 00:00:00 | 00:00:00 | 00:00:00 | |
| SP3WXH | 2026-08-31 12:12:10 | 53.27121 | 17.05267 | 0° | 0km/h | 150m | 0.0m/s | 21.9°C | 65.6% | 996.3hPa | 2.9V | 00:00:00 | 00:00:00 | 00:00:00 | |
| SP3WXH | 2026-08-31 12:12:10 | 53.27121 | 17.05268 | 0° | 0km/h | 150m | -0.1m/s | 21.8°C | 68.3% | 996.6hPa | 2.9V | 00:00:00 | 00:00:00 | 00:00:00 | |
| SP3WXH | 2026-08-31 12:12:10 | 53.27121 | 17.05267 | 0° | 0km/h | 150m | -0.0m/s | 21.9°C | 66.8% | 996.4hPa | 2.9V | 00:00:00 | 00:00:00 | 00:00:00 | |
| SP3WXH | 2026-08-31 12:11:46 | 53.27122 | 17.05268 | 0° | 0km/h | 150m | -0.0m/s | 22.0°C | 64.7% | 996.3hPa | 2.9V | 00:00:00 | 00:00:00 | 00:00:00 | |
| SP3WXH | 2026-08-31 12:09:49 | 53.27121 | 17.05267 | 0° | 0km/h | 151m | -0.0m/s | 22.0°C | 67.2% | 996.5hPa | 2.9V | 00:00:00 | 00:00:00 | 00:00:00 | |
| SP3WXH | 2026-08-31 12:09:24 | 53.27121 | 17.05268 | 0° | 0km/h | 151m | -0.0m/s | 22.1°C | 65.7% | 996.4hPa | 2.9V | 00:00:00 | 00:00:00 | 00:00:00 | |
| SP3WXH | 2026-08-31 12:09:05 | 53.27121 | 17.05268 | 0° | 0km/h | 152m | -0.0m/s | 22.0°C | 65.4% | 996.6hPa | 2.9V | 00:00:00 | 00:00:00 | 00:00:00 | |
| SP3WXH | 2026-08-31 12:08:44 | 53.27121 | 17.05267 | 0° | 0km/h | 154m | 0.0m/s | 22.1°C | 67.1% | 996.4hPa | 2.9V | 00:00:00 | 00:00:00 | 00:00:00 | |
| SP3WXH | 2026-08-31 12:08:23 | 53.27122 | 17.05267 | 0° | 0km/h | 155m | 0.0m/s | 22.0°C | 67.3% | 996.2hPa | 2.9V | 00:00:00 | 00:00:00 | 00:00:00 | |
| SP3WXH | 2026-08-31 12:08:02 | 53.27121 | 17.05268 | 339° | 2km/h | 156m | 0.6m/s | 21.9°C | 67.7% | 996.5hPa | 2.9V | 00:00:00 | 00:00:00 | 00:00:00 | |
| SP3WXH | 2026-08-31 12:07:41 | 53.27121 | 17.05266 | 0° | 0km/h | 153m | 0.1m/s | 21.8°C | 65.1% | 996.4hPa | 2.9V | 00:00:00 | 00:00:00 | 00:00:00 | |
| SP3WXH | 2026-08-31 12:07:20 | 53.27120 | 17.05266 | 0° | 0km/h | 149m | 0.1m/s | 21.8°C | 64.7% | 996.5hPa | 2.9V | 00:00:00 | 00:00:00 | 00:00:00 | |
| SP3WXH | 2026-08-31 12:07:00 | 53.27119 | 17.05266 | 0° | 0km/h | 149m | 0.1m/s | 22.0°C | 69.7% | 996.4hPa | 2.9V | 00:00:00 | 00:00:00 | 00:00:00 | |
| SP3WXH | 2026-08-31 12:06:40 | 53.27119 | 17.05266 | 0° | 0km/h | 148m | -0.1m/s | 21.9°C | 69.1% | 996.4hPa | 2.9V | 00:00:00 | 00:00:00 | 00:00:00 | |
| SP3WXH | 2026-08-31 12:06:19 | 53.27119 | 17.05267 | 0° | 0km/h | 150m | -0.0m/s | 21.8°C | 68.0% | 996.4hPa | 2.9V | 00:00:00 | 00:00:00 | 00:00:00 | |
| SP3WXH | 2026-08-31 12:05:59 | 53.27119 | 17.05267 | 0° | 0km/h | 152m | -0.0m/s | 21.6°C | 70.4% | 996.4hPa | 2.9V | 00:00:00 | 00:00:00 | 00:00:00 | |
| SP3WXH | 2026-08-31 12:05:38 | 53.27120 | 17.05268 | 0° | 0km/h | 155m | 0.1m/s | 21.7°C | 69.8% | 996.4hPa | 2.9V | 00:00:00 | 00:00:00 | 00:00:00 | |
| SP3WXH | 2026-08-31 12:05:17 | 53.27120 | 17.05268 | 0° | 0km/h | 154m | -0.0m/s | 21.7°C | 69.8% | 996.4hPa | 2.9V | 00:00:00 | 00:00:00 | 00:00:00 | |
| SP3WXH | 2026-08-31 12:04:56 | 53.27120 | 17.05268 | 0° | 0km/h | 151m | 0.0m/s | 21.8°C | 72.4% | 996.6hPa | 2.9V | 00:00:00 | 00:00:00 | 00:00:00 | |
| SP3WXH | 2026-08-31 12:04:36 | 53.27120 | 17.05267 | 0° | 0km/h | 150m | 0.0m/s | 21.9°C | 73.2% | 996.6hPa | 2.9V | 00:00:00 | 00:00:00 | 00:00:00 | |
| SP3WXH | 2026-08-31 12:04:15 | 53.27120 | 17.05267 | 0° | 0km/h | 149m | -0.1m/s | 21.8°C | 69.2% | 996.5hPa | 2.9V | 00:00:00 | 00:00:00 | 00:00:00 | |
| SP3WXH | 2026-08-31 12:03:54 | 53.27119 | 17.05267 | 0° | 0km/h | 149m | -0.0m/s | 21.6°C | 72.1% | 996.5hPa | 2.9V | 00:00:00 | 00:00:00 | 00:00:00 | |
| SP3WXH | 2026-08-31 12:03:35 | 53.27119 | 17.05268 | 0° | 0km/h | 148m | -0.0m/s | 21.3°C | 73.8% | 996.5hPa | 2.9V | 00:00:00 | 00:00:00 | 00:00:00 | |
| SP3WXH | 2026-08-31 12:03:14 | 53.27119 | 17.05268 | 0° | 0km/h | 149m | 0.1m/s | 21.3°C | 76.8% | 996.3hPa | 2.9V | 00:00:00 | 00:00:00 | 00:00:00 | |
| SP3WXH | 2026-08-31 12:02:53 | 53.27119 | 17.05269 | 0° | 0km/h | 149m | -0.1m/s | 21.6°C | 70.5% | 996.4hPa | 2.9V | 00:00:00 | 00:00:00 | 00:00:00 | |
| SP3WXH | 2026-08-31 12:02:32 | 53.27119 | 17.05268 | 0° | 0km/h | 149m | -0.1m/s | 21.8°C | 70.4% | 996.4hPa | 2.9V | 00:00:00 | 00:00:00 | 00:00:00 | |
| SP3WXH | 2026-08-31 12:02:12 | 53.27119 | 17.05268 | 0° | 0km/h | 148m | 0.0m/s | 21.8°C | 71.0% | 996.5hPa | 2.9V | 00:00:00 | 00:00:00 | 00:00:00 | |
| SP3WXH | 2026-08-31 12:01:52 | 53.27119 | 17.05266 | 0° | 0km/h | 148m | -0.1m/s | 21.8°C | 70.0% | 996.5hPa | 2.9V | 00:00:00 | 00:00:00 | 00:00:00 | |
| SP3WXH | 2026-08-31 12:01:31 | 53.27119 | 17.05265 | 0° | 0km/h | 148m | 0.1m/s | 21.7°C | 68.9% | 996.4hPa | 2.9V | 00:00:00 | 00:00:00 | 00:00:00 | |
| SP3WXH | 2026-08-31 12:01:11 | 53.27119 | 17.05264 | 0° | 0km/h | 148m | 0.1m/s | 21.6°C | 70.7% | 996.5hPa | 2.9V | 00:00:00 | 00:00:00 | 00:00:00 | |
| SP3WXH | 2026-08-31 12:00:51 | 53.27119 | 17.05265 | 0° | 0km/h | 148m | -0.0m/s | 21.6°C | 73.0% | 996.5hPa | 2.9V | 00:00:00 | 00:00:00 | 00:00:00 | |
| SP3WXH | 2026-08-31 12:00:32 | 53.27119 | 17.05266 | 0° | 0km/h | 148m | -0.0m/s | 22.0°C | 69.7% | 996.4hPa | 2.9V | 00:00:00 | 00:00:00 | 00:00:00 | |
| SP3WXH | 2026-08-31 12:00:12 | 53.27119 | 17.05265 | 0° | 0km/h | 148m | 0.1m/s | 21.6°C | 70.7% | 996.4hPa | 2.9V | 00:00:00 | 00:00:00 | 00:00:00 | |
| SP3WXH | 2026-08-31 11:59:51 | 53.27119 | 17.05266 | 0° | 0km/h | 148m | 0.0m/s | 21.5°C | 70.6% | 996.4hPa | 2.9V | 00:00:00 | 00:00:00 | 00:00:00 | |
| SP3WXH | 2026-08-31 11:59:31 | 53.27119 | 17.05266 | 0° | 0km/h | 148m | -0.0m/s | 21.6°C | 69.5% | 996.4hPa | 2.9V | 00:00:00 | 00:00:00 | 00:00:00 | |
| SP3WXH | 2026-08-31 11:59:09 | 53.27119 | 17.05266 | 0° | 0km/h | 149m | 0.1m/s | 21.6°C | 67.8% | 996.4hPa | 2.9V | 00:00:00 | 00:00:00 | 00:00:00 | |
| SP3WXH | 2026-08-31 11:58:50 | 53.27118 | 17.05267 | 0° | 0km/h | 149m | -0.0m/s | 21.5°C | 70.4% | 996.5hPa | 2.9V | 00:00:00 | 00:00:00 | 00:00:00 | |
| SP3WXH | 2026-08-31 11:58:30 | 53.27119 | 17.05268 | 0° | 0km/h | 150m | -0.0m/s | 21.4°C | 75.1% | 996.4hPa | 2.9V | 00:00:00 | 00:00:00 | 00:00:00 | |
| SP3WXH | 2026-08-31 11:58:10 | 53.27119 | 17.05267 | 0° | 0km/h | 151m | 0.1m/s | 21.2°C | 77.0% | 996.3hPa | 2.9V | 00:00:00 | 00:00:00 | 00:00:00 | |
| SP3WXH | 2026-08-31 11:57:49 | 53.27119 | 17.05266 | 0° | 0km/h | 151m | 0.0m/s | 21.1°C | 74.5% | 996.3hPa | 2.9V | 00:00:00 | 00:00:00 | 00:00:00 | |
| SP3WXH | 2026-08-31 11:57:28 | 53.27119 | 17.05267 | 0° | 0km/h | 151m | 0.0m/s | 21.1°C | 72.3% | 996.4hPa | 2.9V | 00:00:00 | 00:00:00 | 00:00:00 | |
| SP3WXH | 2026-08-31 11:57:08 | 53.27119 | 17.05268 | 0° | 0km/h | 150m | -0.0m/s | 21.3°C | 71.2% | 996.3hPa | 2.9V | 00:00:00 | 00:00:00 | 00:00:00 | |
| SP3WXH | 2026-08-31 11:56:48 | 53.27121 | 17.05268 | 0° | 0km/h | 151m | -0.0m/s | 21.4°C | 70.0% | 996.3hPa | 2.9V | 00:00:00 | 00:00:00 | 00:00:00 | |
| SP3WXH | 2026-08-31 11:56:28 | 53.27121 | 17.05268 | 0° | 0km/h | 152m | -0.1m/s | 21.1°C | 73.3% | 996.4hPa | 2.9V | 00:00:00 | 00:00:00 | 00:00:00 | |
| SP3WXH | 2026-08-31 11:56:07 | 53.27120 | 17.05268 | 0° | 0km/h | 152m | -0.0m/s | 21.1°C | 72.0% | 996.5hPa | 2.9V | 00:00:00 | 00:00:00 | 00:00:00 | |
| SP3WXH | 2026-08-31 11:55:45 | 53.27121 | 17.05268 | 0° | 0km/h | 152m | -0.0m/s | 21.1°C | 73.0% | 996.4hPa | 2.9V | 00:00:00 | 00:00:00 | 00:00:00 | |
| SP3WXH | 2026-08-31 11:55:26 | 53.27121 | 17.05267 | 0° | 0km/h | 152m | 0.0m/s | 21.2°C | 72.0% | 996.5hPa | 2.9V | 00:00:00 | 00:00:00 | 00:00:00 | |
| SP3WXH | 2026-08-31 11:55:05 | 53.27121 | 17.05265 | 0° | 0km/h | 152m | 0.0m/s | 21.4°C | 70.7% | 996.3hPa | 2.9V | 00:00:00 | 00:00:00 | 00:00:00 | |
| SP3WXH | 2026-08-31 11:54:46 | 53.27121 | 17.05264 | 0° | 0km/h | 153m | -0.1m/s | 21.1°C | 75.9% | 996.4hPa | 2.9V | 00:00:00 | 00:00:00 | 00:00:00 | |
| SP3WXH | 2026-08-31 11:54:25 | 53.27121 | 17.05265 | 0° | 0km/h | 152m | -0.0m/s | 21.0°C | 75.3% | 996.4hPa | 2.9V | 00:00:00 | 00:00:00 | 00:00:00 | |
| SP3WXH | 2026-08-31 11:54:04 | 53.27121 | 17.05267 | 0° | 0km/h | 151m | -0.1m/s | 21.0°C | 77.2% | 996.5hPa | 2.9V | 00:00:00 | 00:00:00 | 00:00:00 | |
| SP3WXH | 2026-08-31 11:53:44 | 53.27120 | 17.05267 | 0° | 0km/h | 151m | 0.0m/s | 21.1°C | 75.8% | 996.5hPa | 2.9V | 00:00:00 | 00:00:00 | 00:00:00 | |
| SP3WXH | 2026-08-31 11:53:23 | 53.27119 | 17.05267 | 0° | 0km/h | 152m | -0.0m/s | 21.0°C | 77.6% | 996.4hPa | 2.9V | 00:00:00 | 00:00:00 | 00:00:00 | |
| SP3WXH | 2026-08-31 11:53:03 | 53.27119 | 17.05268 | 0° | 0km/h | 154m | -0.1m/s | 21.0°C | 75.8% | 996.4hPa | 2.9V | 00:00:00 | 00:00:00 | 00:00:00 | |
| SP3WXH | 2026-08-31 11:52:43 | 53.27119 | 17.05267 | 0° | 0km/h | 157m | -0.1m/s | 21.1°C | 74.8% | 996.4hPa | 2.9V | 00:00:00 | 00:00:00 | 00:00:00 | |
| SP3WXH | 2026-08-31 11:52:22 | 53.27120 | 17.05267 | 0° | 0km/h | 156m | -0.0m/s | 21.1°C | 74.0% | 996.6hPa | 2.9V | 00:00:00 | 00:00:00 | 00:00:00 | |
| SP3WXH | 2026-08-31 11:52:02 | 53.27119 | 17.05269 | 0° | 0km/h | 153m | 0.0m/s | 21.3°C | 70.6% | 996.6hPa | 2.9V | 00:00:00 | 00:00:00 | 00:00:00 | |
| SP3WXH | 2026-08-31 11:51:40 | 53.27119 | 17.05268 | 0° | 0km/h | 154m | 0.0m/s | 21.2°C | 70.8% | 996.4hPa | 2.9V | 00:00:00 | 00:00:00 | 00:00:00 | |
| SP3WXH | 2026-08-31 11:51:20 | 53.27119 | 17.05267 | 0° | 0km/h | 157m | 0.0m/s | 21.2°C | 70.4% | 996.4hPa | 2.9V | 00:00:00 | 00:00:00 | 00:00:00 | |
| SP3WXH | 2026-08-31 11:51:00 | 53.27119 | 17.05267 | 0° | 0km/h | 158m | -0.0m/s | 21.4°C | 69.0% | 996.5hPa | 2.9V | 00:00:00 | 00:00:00 | 00:00:00 | |
| SP3WXH | 2026-08-31 11:50:38 | 53.27119 | 17.05268 | 0° | 0km/h | 158m | 0.0m/s | 21.4°C | 70.5% | 996.5hPa | 2.9V | 00:00:00 | 00:00:00 | 00:00:00 | |
| SP3WXH | 2026-08-31 11:50:18 | 53.27119 | 17.05269 | 0° | 0km/h | 157m | 0.0m/s | 21.3°C | 70.8% | 996.5hPa | 2.9V | 00:00:00 | 00:00:00 | 00:00:00 | |
| SP3WXH | 2026-08-31 11:49:56 | 53.27119 | 17.05270 | 0° | 0km/h | 157m | -0.1m/s | 21.3°C | 69.3% | 996.5hPa | 2.9V | 00:00:00 | 00:00:00 | 00:00:00 | |
| SP3WXH | 2026-08-31 11:49:36 | 53.27119 | 17.05268 | 0° | 0km/h | 156m | -0.1m/s | 21.2°C | 70.8% | 996.4hPa | 2.9V | 00:00:00 | 00:00:00 | 00:00:00 | |
| SP3WXH | 2026-08-31 11:49:15 | 53.27120 | 17.05266 | 0° | 0km/h | 155m | -0.0m/s | 21.2°C | 71.9% | 996.3hPa | 2.9V | 00:00:00 | 00:00:00 | 00:00:00 | |
| SP3WXH | 2026-08-31 11:48:54 | 53.27120 | 17.05266 | 0° | 0km/h | 154m | -0.0m/s | 21.2°C | 71.8% | 996.4hPa | 2.9V | 00:00:00 | 00:00:00 | 00:00:00 | |
| SP3WXH | 2026-08-31 11:48:34 | 53.27121 | 17.05266 | 0° | 0km/h | 152m | -0.2m/s | 21.1°C | 73.2% | 996.6hPa | 2.9V | 00:00:00 | 00:00:00 | 00:00:00 | |
| SP3WXH | 2026-08-31 11:48:14 | 53.27121 | 17.05265 | 0° | 0km/h | 153m | -0.0m/s | 21.1°C | 72.5% | 996.5hPa | 2.9V | 00:00:00 | 00:00:00 | 00:00:00 | |
| SP3WXH | 2026-08-31 11:47:53 | 53.27121 | 17.05265 | 0° | 0km/h | 154m | -0.1m/s | 21.1°C | 72.5% | 996.5hPa | 2.9V | 00:00:00 | 00:00:00 | 00:00:00 | |
| SP3WXH | 2026-08-31 11:47:33 | 53.27121 | 17.05264 | 0° | 0km/h | 154m | -0.1m/s | 21.1°C | 72.1% | 996.5hPa | 2.9V | 00:00:00 | 00:00:00 | 00:00:00 | |
| SP3WXH | 2026-08-31 11:47:12 | 53.27121 | 17.05264 | 0° | 0km/h | 153m | 0.1m/s | 21.2°C | 71.0% | 996.5hPa | 2.9V | 00:00:00 | 00:00:00 | 00:00:00 | |
| SP3WXH | 2026-08-31 11:46:51 | 53.27121 | 17.05265 | 0° | 0km/h | 152m | -0.1m/s | 21.2°C | 69.2% | 996.7hPa | 2.9V | 00:00:00 | 00:00:00 | 00:00:00 | |
| SP3WXH | 2026-08-31 11:46:32 | 53.27121 | 17.05267 | 0° | 0km/h | 151m | -0.0m/s | 21.2°C | 70.4% | 996.5hPa | 2.9V | 00:00:00 | 00:00:00 | 00:00:00 | |
| SP3WXH | 2026-08-31 11:46:11 | 53.27120 | 17.05266 | 0° | 0km/h | 156m | -0.0m/s | 21.2°C | 70.4% | 996.5hPa | 2.9V | 00:00:00 | 00:00:00 | 00:00:00 | |
| SP3WXH | 2026-08-31 11:45:51 | 53.27120 | 17.05266 | 0° | 0km/h | 154m | 0.2m/s | 21.1°C | 71.7% | 996.5hPa | 2.9V | 00:00:00 | 00:00:00 | 00:00:00 | |
| SP3WXH | 2026-08-31 11:45:29 | 53.27120 | 17.05266 | 0° | 0km/h | 152m | 0.0m/s | 21.1°C | 72.6% | 996.6hPa | 2.9V | 00:00:00 | 00:00:00 | 00:00:00 | |
| SP3WXH | 2026-08-31 11:45:09 | 53.27120 | 17.05266 | 0° | 0km/h | 153m | -0.0m/s | 21.1°C | 70.5% | 996.6hPa | 2.9V | 00:00:00 | 00:00:00 | 00:00:00 | |
| SP3WXH | 2026-08-31 11:44:49 | 53.27119 | 17.05266 | 0° | 0km/h | 154m | 0.1m/s | 21.1°C | 71.4% | 996.6hPa | 2.9V | 00:00:00 | 00:00:00 | 00:00:00 | |
| SP3WXH | 2026-08-31 11:44:34 | 53.27119 | 17.05266 | 0° | 0km/h | 154m | 0.1m/s | 20.9°C | 73.3% | 996.5hPa | 2.9V | 00:00:00 | 00:00:00 | 00:00:00 | |
| SP3WXH | 2026-08-31 11:44:07 | 53.27119 | 17.05266 | 0° | 0km/h | 154m | -0.0m/s | 20.9°C | 73.9% | 996.6hPa | 2.9V | 00:00:00 | 00:00:00 | 00:00:00 | |
| SP3WXH | 2026-08-31 11:43:47 | 53.27118 | 17.05267 | 0° | 0km/h | 154m | 0.0m/s | 21.1°C | 70.8% | 996.6hPa | 2.9V | 00:00:00 | 00:00:00 | 00:00:00 | |
| SP3WXH | 2026-08-31 11:43:26 | 53.27117 | 17.05266 | 0° | 0km/h | 153m | 0.0m/s | 20.9°C | 72.7% | 996.6hPa | 2.9V | 00:00:00 | 00:00:00 | 00:00:00 | |
| SP3WXH | 2026-08-31 11:43:05 | 53.27118 | 17.05265 | 0° | 0km/h | 155m | -0.1m/s | 20.9°C | 72.7% | 996.6hPa | 2.9V | 00:00:00 | 00:00:00 | 00:00:00 | |
| SP3WXH | 2026-08-31 11:42:46 | 53.27119 | 17.05264 | 0° | 0km/h | 156m | 0.1m/s | 20.9°C | 72.6% | 996.6hPa | 2.9V | 00:00:00 | 00:00:00 | 00:00:00 | |
| SP3WXH | 2026-08-31 11:42:25 | 53.27120 | 17.05264 | 0° | 0km/h | 153m | -0.1m/s | 21.0°C | 73.1% | 996.6hPa | 2.9V | 00:00:00 | 00:00:00 | 00:00:00 | |
| SP3WXH | 2026-08-31 11:42:04 | 53.27120 | 17.05264 | 0° | 0km/h | 154m | -0.1m/s | 21.1°C | 69.5% | 996.7hPa | 2.9V | 00:00:00 | 00:00:00 | 00:00:00 | |
| SP3WXH | 2026-08-31 11:41:43 | 53.27120 | 17.05264 | 0° | 0km/h | 156m | 0.1m/s | 20.9°C | 73.9% | 996.6hPa | 2.9V | 00:00:00 | 00:00:00 | 00:00:00 | |
| SP3WXH | 2026-08-31 11:41:23 | 53.27120 | 17.05264 | 0° | 0km/h | 158m | 0.0m/s | 20.8°C | 73.2% | 996.6hPa | 2.9V | 00:00:00 | 00:00:00 | 00:00:00 | |
| SP3WXH | 2026-08-31 11:41:01 | 53.27120 | 17.05264 | 0° | 0km/h | 158m | 0.1m/s | 21.2°C | 70.4% | 996.6hPa | 2.9V | 00:00:00 | 00:00:00 | 00:00:00 | |
| SP3WXH | 2026-08-31 11:40:40 | 53.27120 | 17.05264 | 0° | 0km/h | 156m | -0.1m/s | 21.0°C | 72.2% | 996.6hPa | 2.9V | 00:00:00 | 00:00:00 | 00:00:00 | |
| SP3WXH | 2026-08-31 11:40:29 | 53.27119 | 17.05266 | 0° | 0km/h | 152m | -0.0m/s | 21.0°C | 71.0% | 996.6hPa | 2.9V | 00:00:00 | 00:00:00 | 00:00:00 | |
| SP3WXH | 2026-08-31 11:39:54 | 53.27119 | 17.05268 | 0° | 0km/h | 150m | -0.1m/s | 21.2°C | 68.8% | 996.6hPa | 2.9V | 00:00:00 | 00:00:00 | 00:00:00 | |
| SP3WXH | 2026-08-31 11:39:33 | 53.27119 | 17.05267 | 0° | 0km/h | 151m | -0.2m/s | 21.2°C | 68.5% | 996.6hPa | 2.9V | 00:00:00 | 00:00:00 | 00:00:00 | |
| SP3WXH | 2026-08-31 11:39:13 | 53.27118 | 17.05266 | 0° | 0km/h | 156m | 0.1m/s | 21.0°C | 71.7% | 996.6hPa | 2.9V | 00:00:00 | 00:00:00 | 00:00:00 | |
| SP3WXH | 2026-08-31 11:38:49 | 53.27118 | 17.05266 | 0° | 0km/h | 158m | 0.1m/s | 20.9°C | 73.5% | 996.5hPa | 2.9V | 00:00:00 | 00:00:00 | 00:00:00 | |
| SP3WXH | 2026-08-31 11:38:23 | 53.27119 | 17.05267 | 0° | 0km/h | 158m | 0.1m/s | 21.0°C | 72.2% | 996.6hPa | 2.9V | 00:00:00 | 00:00:00 | 00:00:00 | |
| SP3WXH | 2026-08-31 11:38:02 | 53.27119 | 17.05266 | 0° | 0km/h | 155m | -0.0m/s | 21.0°C | 71.0% | 996.6hPa | 2.9V | 00:00:00 | 00:00:00 | 00:00:00 | |
| SP3WXH | 2026-08-31 11:37:39 | 53.27119 | 17.05266 | 0° | 0km/h | 153m | -0.0m/s | 21.2°C | 70.6% | 996.6hPa | 2.9V | 00:00:00 | 00:00:00 | 00:00:00 | |
| SP3WXH | 2026-08-31 11:37:19 | 53.27119 | 17.05268 | 0° | 0km/h | 152m | -0.0m/s | 20.7°C | 73.3% | 996.5hPa | 2.9V | 00:00:00 | 00:00:00 | 00:00:00 | |
| SP3WXH | 2026-08-31 11:36:59 | 53.27120 | 17.05268 | 0° | 0km/h | 154m | 0.1m/s | 20.8°C | 0% | 996.6hPa | 2.9V | 00:00:00 | 00:00:00 | 00:00:00 | |
| SP3WXH | 2026-08-31 11:36:37 | 53.27119 | 17.05267 | 0° | 0km/h | 154m | 0.0m/s | 20.7°C | 0% | 996.5hPa | 2.9V | 00:00:00 | 00:00:00 | 00:00:00 | |
| SP3WXH | 2026-08-31 11:36:15 | 53.27119 | 17.05266 | 0° | 0km/h | 151m | -0.1m/s | 21.0°C | 0% | 996.6hPa | 2.9V | 00:00:00 | 00:00:00 | 00:00:00 | |
| SP3WXH | 2026-08-31 11:35:54 | 53.27121 | 17.05267 | 0° | 0km/h | 151m | 0.0m/s | 0°C | 0% | 996.4hPa | 2.9V | 00:00:00 | 00:00:00 | 00:00:00 | |
| SP3WXH | 2026-08-31 11:35:17 | 53.27120 | 17.05267 | 0° | 0km/h | 152m | 0.1m/s | 0°C | 0% | 996.5hPa | 2.9V | 00:00:00 | 00:00:00 | 00:00:00 | |
| SP3WXH | 2026-08-31 11:34:55 | 53.27119 | 17.05268 | 0° | 0km/h | 155m | 0.0m/s | 0°C | 0% | 0hPa | 2.9V | 00:00:00 | 00:00:00 | 00:00:00 | |
| SP3WXH | 2026-08-31 11:34:35 | 53.27121 | 17.05267 | 0° | 0km/h | 156m | 0.0m/s | 0°C | 0% | 0hPa | 2.9V | 00:00:00 | 00:00:00 | 00:00:00 | |
| SP3WXH | 2026-08-31 11:33:29 | 53.27122 | 17.05268 | 0° | 0km/h | 152m | 0.0m/s | 0°C | 0% | 0hPa | 2.9V | 00:00:00 | 00:00:00 | 00:00:00 | |
| SP3BTT-10 | 2026-08-31 08:09:45 | 53.26686 | 17.04732 | 38° | 26km/h | 356m | -1.3m/s | 17.5°C | 77.5% | 974.3hPa | 2.9V | 00:00:00 | 00:00:00 | 00:00:00 | |
| SP3BTT-10 | 2026-08-31 08:09:33 | 53.26634 | 17.04636 | 58° | 26km/h | 372m | -1.1m/s | 17.3°C | 79.4% | 972.3hPa | 2.9V | 00:00:00 | 00:00:00 | 00:00:00 | |
| SP3BTT-10 | 2026-08-31 08:09:27 | 53.26611 | 17.04587 | 48° | 24km/h | 379m | -1.3m/s | 17.3°C | 79.3% | 971.6hPa | 2.9V | 00:00:00 | 00:00:00 | 00:00:00 | |
| SP3BTT-10 | 2026-08-31 08:09:21 | 53.26587 | 17.04541 | 46° | 27km/h | 387m | -1.1m/s | 17.1°C | 81.5% | 970.8hPa | 2.9V | 00:00:00 | 00:00:00 | 08:30:00 | |
| SP3BTT-10 | 2026-08-31 08:09:15 | 53.26560 | 17.04490 | 54° | 26km/h | 394m | -1.0m/s | 17.6°C | 74.8% | 969.8hPa | 2.9V | 00:00:00 | 00:00:00 | 00:00:00 | |
| SP3BTT-10 | 2026-08-31 08:09:09 | 53.26536 | 17.04438 | 46° | 26km/h | 401m | -1.1m/s | 17.6°C | 74.4% | 969.2hPa | 2.9V | 00:00:00 | 00:00:00 | 00:00:00 | |
| SP3BTT-10 | 2026-08-31 08:09:03 | 53.26505 | 17.04396 | 37° | 27km/h | 407m | -1.1m/s | 17.6°C | 74.0% | 968.5hPa | 2.9V | 00:00:00 | 00:00:00 | 00:00:00 | |
| SP3BTT-10 | 2026-08-31 08:08:57 | 53.26470 | 17.04354 | 38° | 31km/h | 414m | -1.2m/s | 17.9°C | 70.9% | 967.5hPa | 2.9V | 00:00:00 | 00:00:00 | 00:00:00 | |
| SP3BTT-10 | 2026-08-31 08:08:51 | 53.26432 | 17.04308 | 35° | 33km/h | 421m | -1.1m/s | 18.0°C | 70.0% | 966.8hPa | 2.9V | 00:00:00 | 00:00:00 | 00:00:00 | |
| SP3BTT-10 | 2026-08-31 08:08:45 | 53.26393 | 17.04258 | 37° | 33km/h | 427m | -1.1m/s | 17.9°C | 70.0% | 966.0hPa | 2.9V | 00:00:00 | 00:00:00 | 00:00:00 | |
| SP3BTT-10 | 2026-08-31 08:08:39 | 53.26355 | 17.04205 | 43° | 35km/h | 433m | -1.1m/s | 17.9°C | 70.0% | 965.2hPa | 2.9V | 00:00:00 | 00:00:00 | 00:00:00 | |
| SP3BTT-10 | 2026-08-31 08:08:33 | 53.26316 | 17.04148 | 41° | 35km/h | 440m | -1.1m/s | 17.9°C | 69.9% | 964.4hPa | 2.9V | 00:00:00 | 00:00:00 | 00:00:00 | |
| SP3BTT-10 | 2026-08-31 08:08:21 | 53.26243 | 17.04023 | 52° | 33km/h | 453m | -0.9m/s | 18.0°C | 67.9% | 962.9hPa | 2.9V | 00:00:00 | 00:00:00 | 00:00:00 | |
| SP3BTT-10 | 2026-08-31 08:08:15 | 53.26213 | 17.03958 | 53° | 33km/h | 459m | -1.1m/s | 18.1°C | 66.8% | 962.3hPa | 2.9V | 00:00:00 | 00:00:00 | 00:00:00 | |
| SP3BTT-10 | 2026-08-31 08:08:09 | 53.26181 | 17.03892 | 50° | 33km/h | 465m | -1.2m/s | 18.1°C | 65.2% | 961.2hPa | 2.9V | 00:00:00 | 00:00:00 | 00:00:00 | |
| SP3BTT-10 | 2026-08-31 08:08:03 | 53.26148 | 17.03829 | 50° | 31km/h | 473m | -1.2m/s | 18.2°C | 64.5% | 960.7hPa | 2.9V | 00:00:00 | 00:00:00 | 00:00:00 | |
| SP3BTT-10 | 2026-08-31 08:07:57 | 53.26117 | 17.03769 | 51° | 31km/h | 479m | -1.0m/s | 18.2°C | 64.6% | 960.0hPa | 2.9V | 00:00:00 | 00:00:00 | 00:00:00 | |
| SP3BTT-10 | 2026-08-31 08:07:51 | 53.26088 | 17.03709 | 50° | 31km/h | 486m | -1.0m/s | 18.2°C | 63.2% | 959.1hPa | 2.9V | 00:00:00 | 00:00:00 | 00:00:00 | |
| SP3BTT-10 | 2026-08-31 08:07:45 | 53.26058 | 17.03651 | 51° | 31km/h | 493m | -1.0m/s | 18.2°C | 62.2% | 958.6hPa | 2.9V | 00:00:00 | 00:00:00 | 00:00:00 | |
| SP3BTT-10 | 2026-08-31 08:07:39 | 53.26029 | 17.03592 | 50° | 29km/h | 500m | -1.1m/s | 18.2°C | 61.8% | 957.8hPa | 2.9V | 00:00:00 | 00:00:00 | 00:00:00 | |
| SP3BTT-10 | 2026-08-31 08:07:33 | 53.25999 | 17.03537 | 43° | 29km/h | 509m | -1.3m/s | 18.2°C | 61.8% | 956.8hPa | 2.9V | 00:00:00 | 00:00:00 | 08:30:00 | |
| SP3BTT-10 | 2026-08-31 08:07:27 | 53.25964 | 17.03490 | 37° | 35km/h | 516m | -1.2m/s | 18.2°C | 61.4% | 956.0hPa | 2.7V | 00:00:00 | 00:00:00 | 00:00:00 | |
| SP3BTT-10 | 2026-08-31 08:07:21 | 53.25924 | 17.03432 | 48° | 37km/h | 525m | -1.1m/s | 18.2°C | 60.7% | 955.3hPa | 2.7V | 00:00:00 | 00:00:00 | 00:00:00 | |
| SP3BTT-10 | 2026-08-31 08:07:15 | 53.25890 | 17.03362 | 52° | 35km/h | 532m | -1.0m/s | 18.3°C | 58.3% | 954.2hPa | 2.7V | 00:00:00 | 00:00:00 | 00:00:00 | |
| SP3BTT-10 | 2026-08-31 08:07:09 | 53.25859 | 17.03291 | 57° | 33km/h | 539m | -1.0m/s | 18.3°C | 58.2% | 953.5hPa | 2.9V | 00:00:00 | 00:00:00 | 00:00:00 | |
| SP3BTT-10 | 2026-08-31 08:07:03 | 53.25832 | 17.03223 | 58° | 29km/h | 547m | -1.3m/s | 18.3°C | 57.2% | 952.6hPa | 2.9V | 00:00:00 | 00:00:00 | 00:00:00 | |
| SP3BTT-10 | 2026-08-31 08:06:57 | 53.25807 | 17.03162 | 55° | 27km/h | 554m | -1.0m/s | 18.3°C | 57.2% | 951.8hPa | 2.9V | 00:00:00 | 00:00:00 | 00:00:00 | |
| SP3BTT-10 | 2026-08-31 08:06:51 | 53.25782 | 17.03106 | 52° | 27km/h | 562m | -1.6m/s | 18.2°C | 57.3% | 950.7hPa | 2.9V | 00:00:00 | 00:00:00 | 00:00:00 | |
| SP3BTT-10 | 2026-08-31 08:06:45 | 53.25755 | 17.03051 | 51° | 27km/h | 571m | -1.5m/s | 18.2°C | 57.1% | 949.8hPa | 2.9V | 00:00:00 | 00:00:00 | 00:00:00 | |
| SP3BTT-10 | 2026-08-31 08:06:39 | 53.25729 | 17.02995 | 54° | 27km/h | 580m | -1.2m/s | 18.3°C | 54.5% | 948.9hPa | 2.9V | 00:00:00 | 00:00:00 | 08:30:00 | |
| SP3BTT-10 | 2026-08-31 08:06:33 | 53.25704 | 17.02942 | 48° | 29km/h | 588m | -1.1m/s | 18.3°C | 54.2% | 948.0hPa | 2.9V | 00:00:00 | 00:00:00 | 00:00:00 | |
| SP3BTT-10 | 2026-08-31 08:06:27 | 53.25673 | 17.02886 | 51° | 33km/h | 596m | -1.4m/s | 18.1°C | 55.6% | 947.2hPa | 2.9V | 00:00:00 | 00:00:00 | 00:00:00 | |
| SP3BTT-10 | 2026-08-31 08:06:21 | 53.25645 | 17.02814 | 59° | 33km/h | 604m | -1.1m/s | 18.0°C | 56.3% | 946.5hPa | 2.9V | 00:00:00 | 00:00:00 | 00:00:00 | |
| SP3BTT-10 | 2026-08-31 08:06:15 | 53.25621 | 17.02739 | 66° | 29km/h | 611m | -1.1m/s | 17.9°C | 56.9% | 945.5hPa | 2.9V | 00:00:00 | 00:00:00 | 00:00:00 | |
| SP3BTT-10 | 2026-08-31 08:06:09 | 53.25602 | 17.02674 | 63° | 26km/h | 618m | -1.2m/s | 17.8°C | 57.4% | 944.7hPa | 2.9V | 00:00:00 | 00:00:00 | 00:00:00 | |
| SP3BTT-10 | 2026-08-31 08:06:03 | 53.25583 | 17.02617 | 57° | 26km/h | 626m | -1.0m/s | 17.8°C | 55.6% | 943.9hPa | 2.9V | 00:00:00 | 00:00:00 | 00:00:00 | |
| SP3BTT-10 | 2026-08-31 08:05:57 | 53.25564 | 17.02562 | 64° | 26km/h | 634m | -1.1m/s | 17.9°C | 54.2% | 943.2hPa | 2.7V | 00:00:00 | 00:00:00 | 00:00:00 | |
| SP3BTT-10 | 2026-08-31 08:05:51 | 53.25547 | 17.02502 | 66° | 26km/h | 641m | -1.0m/s | 17.9°C | 54.4% | 942.2hPa | 2.7V | 00:00:00 | 00:00:00 | 00:00:00 | |
| SP3BTT-10 | 2026-08-31 08:05:45 | 53.25531 | 17.02444 | 65° | 26km/h | 648m | -1.0m/s | 17.8°C | 54.6% | 941.5hPa | 2.7V | 00:00:00 | 00:00:00 | 08:30:00 | |
| SP3BTT-10 | 2026-08-31 08:05:39 | 53.25516 | 17.02384 | 69° | 26km/h | 655m | -1.2m/s | 17.8°C | 54.9% | 940.6hPa | 2.9V | 00:00:00 | 00:00:00 | 00:00:00 | |
| SP3BTT-10 | 2026-08-31 08:05:33 | 53.25501 | 17.02326 | 71° | 26km/h | 663m | -1.0m/s | 17.7°C | 54.8% | 939.9hPa | 2.9V | 00:00:00 | 00:00:00 | 00:00:00 | |
| SP3BTT-10 | 2026-08-31 08:05:27 | 53.25488 | 17.02264 | 74° | 27km/h | 670m | -1.1m/s | 17.7°C | 55.1% | 939.0hPa | 2.9V | 00:00:00 | 00:00:00 | 00:00:00 | |
| SP3BTT-10 | 2026-08-31 08:05:21 | 53.25475 | 17.02199 | 73° | 29km/h | 676m | -0.9m/s | 17.6°C | 55.2% | 938.2hPa | 2.9V | 00:00:00 | 00:00:00 | 00:00:00 | |
| SP3BTT-10 | 2026-08-31 08:05:15 | 53.25462 | 17.02130 | 72° | 31km/h | 683m | -0.9m/s | 17.6°C | 55.2% | 937.6hPa | 2.9V | 00:00:00 | 00:00:00 | 00:00:00 | |
| SP3BTT-10 | 2026-08-31 08:05:09 | 53.25445 | 17.02057 | 69° | 31km/h | 690m | -1.3m/s | 17.5°C | 55.0% | 936.7hPa | 2.9V | 00:00:00 | 00:00:00 | 00:00:00 | |
| SP3BTT-10 | 2026-08-31 08:05:03 | 53.25428 | 17.01984 | 70° | 31km/h | 697m | -1.2m/s | 17.5°C | 55.0% | 935.8hPa | 2.9V | 00:00:00 | 00:00:00 | 00:00:00 | |
| SP3BTT-10 | 2026-08-31 08:04:57 | 53.25410 | 17.01910 | 65° | 33km/h | 704m | -1.3m/s | 17.4°C | 54.8% | 935.5hPa | 2.9V | 00:00:00 | 00:00:00 | 00:00:00 | |
| SP3BTT-10 | 2026-08-31 08:04:51 | 53.25390 | 17.01834 | 69° | 31km/h | 712m | -1.0m/s | 17.4°C | 54.7% | 934.4hPa | 2.9V | 00:00:00 | 00:00:00 | 08:30:00 | |
| SP3BTT-10 | 2026-08-31 08:04:45 | 53.25374 | 17.01760 | 73° | 27km/h | 718m | -1.0m/s | 17.4°C | 54.2% | 933.8hPa | 2.7V | 00:00:00 | 00:00:00 | 00:00:00 | |
| SP3BTT-10 | 2026-08-31 08:04:39 | 53.25361 | 17.01693 | 72° | 26km/h | 726m | -1.4m/s | 17.3°C | 54.2% | 932.7hPa | 2.7V | 00:00:00 | 00:00:00 | 00:00:00 | |
| SP3BTT-10 | 2026-08-31 08:04:33 | 53.25349 | 17.01630 | 74° | 27km/h | 733m | -1.1m/s | 17.2°C | 54.6% | 932.0hPa | 2.7V | 00:00:00 | 00:00:00 | 00:00:00 | |
| SP3BTT-10 | 2026-08-31 08:04:27 | 53.25338 | 17.01564 | 72° | 29km/h | 741m | -1.3m/s | 17.2°C | 55.0% | 931.2hPa | 2.9V | 00:00:00 | 00:00:00 | 00:00:00 | |
| SP3BTT-10 | 2026-08-31 08:04:21 | 53.25325 | 17.01493 | 72° | 33km/h | 748m | -1.4m/s | 17.1°C | 55.3% | 930.5hPa | 2.9V | 00:00:00 | 00:00:00 | 00:00:00 | |
| SP3BTT-10 | 2026-08-31 08:04:15 | 53.25308 | 17.01414 | 71° | 33km/h | 756m | -1.0m/s | 17.0°C | 55.6% | 929.4hPa | 2.9V | 00:00:00 | 00:00:00 | 00:00:00 | |
| SP3BTT-10 | 2026-08-31 08:04:09 | 53.25288 | 17.01336 | 66° | 35km/h | 762m | -1.0m/s | 17.0°C | 55.9% | 928.8hPa | 2.7V | 00:00:00 | 00:00:00 | 00:00:00 | |
| SP3BTT-10 | 2026-08-31 08:04:03 | 53.25265 | 17.01258 | 63° | 33km/h | 770m | -1.2m/s | 16.9°C | 56.5% | 927.9hPa | 2.7V | 00:00:00 | 00:00:00 | 00:00:00 | |
| SP3BTT-10 | 2026-08-31 08:03:57 | 53.25240 | 17.01184 | 59° | 31km/h | 778m | -1.1m/s | 16.8°C | 56.8% | 927.0hPa | 2.7V | 00:00:00 | 00:00:00 | 08:30:00 | |
| SP3BTT-10 | 2026-08-31 08:03:51 | 53.25215 | 17.01119 | 58° | 27km/h | 785m | -1.1m/s | 16.8°C | 57.2% | 926.2hPa | 2.7V | 00:00:00 | 00:00:00 | 00:00:00 | |
| SP3BTT-10 | 2026-08-31 08:03:45 | 53.25192 | 17.01059 | 60° | 27km/h | 792m | -1.2m/s | 16.7°C | 57.6% | 925.5hPa | 2.7V | 00:00:00 | 00:00:00 | 00:00:00 | |
| SP3BTT-10 | 2026-08-31 08:03:39 | 53.25175 | 17.00998 | 69° | 27km/h | 799m | -1.1m/s | 16.6°C | 58.1% | 924.6hPa | 2.7V | 00:00:00 | 00:00:00 | 00:00:00 | |
| SP3BTT-10 | 2026-08-31 08:03:33 | 53.25160 | 17.00930 | 71° | 31km/h | 807m | -1.1m/s | 16.6°C | 58.2% | 923.9hPa | 2.7V | 00:00:00 | 00:00:00 | 00:00:00 | |
| SP3BTT-10 | 2026-08-31 08:03:27 | 53.25144 | 17.00856 | 70° | 33km/h | 814m | -1.0m/s | 16.5°C | 58.5% | 923.3hPa | 2.7V | 00:00:00 | 00:00:00 | 00:00:00 | |
| SP3BTT-10 | 2026-08-31 08:03:21 | 53.25126 | 17.00778 | 68° | 35km/h | 820m | -1.1m/s | 16.4°C | 58.7% | 922.6hPa | 2.7V | 00:00:00 | 00:00:00 | 00:00:00 | |
| SP3BTT-10 | 2026-08-31 08:03:15 | 53.25106 | 17.00697 | 67° | 35km/h | 827m | -1.1m/s | 16.4°C | 59.0% | 921.8hPa | 2.7V | 00:00:00 | 00:00:00 | 00:00:00 | |
| SP3BTT-10 | 2026-08-31 08:03:09 | 53.25085 | 17.00615 | 66° | 37km/h | 834m | -1.1m/s | 16.3°C | 59.3% | 921.1hPa | 2.7V | 00:00:00 | 00:00:00 | 00:00:00 | |
| SP3BTT-10 | 2026-08-31 08:03:03 | 53.25059 | 17.00533 | 58° | 35km/h | 840m | -1.0m/s | 16.2°C | 59.5% | 920.3hPa | 2.7V | 00:00:00 | 00:00:00 | 08:30:00 | |
| SP3BTT-10 | 2026-08-31 08:02:57 | 53.25029 | 17.00459 | 53° | 35km/h | 847m | -1.3m/s | 16.2°C | 59.6% | 919.5hPa | 2.7V | 00:00:00 | 00:00:00 | 00:00:00 | |
| SP3BTT-10 | 2026-08-31 08:02:51 | 53.24997 | 17.00388 | 52° | 33km/h | 854m | -1.1m/s | 16.1°C | 59.9% | 918.6hPa | 2.7V | 00:00:00 | 00:00:00 | 00:00:00 | |
| SP3BTT-10 | 2026-08-31 08:02:39 | 53.24938 | 17.00260 | 57° | 29km/h | 869m | -1.0m/s | 16.0°C | 60.1% | 917.2hPa | 2.7V | 00:00:00 | 00:00:00 | 00:00:00 | |
| SP3BTT-10 | 2026-08-31 08:02:33 | 53.24916 | 17.00197 | 62° | 29km/h | 875m | -1.3m/s | 16.0°C | 60.3% | 916.5hPa | 2.7V | 00:00:00 | 00:00:00 | 00:00:00 | |
| SP3BTT-10 | 2026-08-31 08:02:27 | 53.24897 | 17.00128 | 66° | 35km/h | 883m | -1.2m/s | 15.9°C | 60.7% | 915.6hPa | 2.7V | 00:00:00 | 00:00:00 | 00:00:00 | |
| SP3BTT-10 | 2026-08-31 08:02:21 | 53.24875 | 17.00049 | 64° | 37km/h | 890m | -1.3m/s | 15.8°C | 61.1% | 915.1hPa | 2.7V | 00:00:00 | 00:00:00 | 00:00:00 | |
| SP3BTT-10 | 2026-08-31 08:02:15 | 53.24848 | 16.99967 | 62° | 38km/h | 897m | -0.9m/s | 15.8°C | 61.3% | 914.2hPa | 2.7V | 00:00:00 | 00:00:00 | 00:00:00 | |
| SP3BTT-10 | 2026-08-31 08:02:09 | 53.24817 | 16.99886 | 53° | 37km/h | 904m | -1.3m/s | 15.7°C | 61.9% | 913.3hPa | 2.7V | 00:00:00 | 00:00:00 | 08:30:00 | |
| SP3BTT-10 | 2026-08-31 08:02:03 | 53.24784 | 16.99815 | 51° | 35km/h | 911m | -1.0m/s | 15.6°C | 62.1% | 912.6hPa | 2.7V | 00:00:00 | 00:00:00 | 00:00:00 | |
| SP3BTT-10 | 2026-08-31 08:01:57 | 53.24750 | 16.99749 | 49° | 31km/h | 919m | -1.2m/s | 15.6°C | 62.3% | 911.8hPa | 2.7V | 00:00:00 | 00:00:00 | 00:00:00 | |
| SP3BTT-10 | 2026-08-31 08:01:51 | 53.24719 | 16.99688 | 54° | 29km/h | 927m | -1.1m/s | 15.5°C | 62.5% | 911.0hPa | 2.7V | 00:00:00 | 00:00:00 | 00:00:00 | |
| SP3BTT-10 | 2026-08-31 08:01:45 | 53.24694 | 16.99627 | 58° | 31km/h | 935m | -1.4m/s | 15.4°C | 62.7% | 910.3hPa | 2.7V | 00:00:00 | 00:00:00 | 00:00:00 | |
| KRY50SP-1 | 2026-08-31 08:01:43 | 53.24690 | 16.99616 | 62° | 29km/h | 937m | -1.2m/s | 15.5°C | 62.2% | 910.1hPa | 2.7V | 00:00:00 | 00:00:00 | 00:00:00 | |
| SP3BTT-10 | 2026-08-31 08:01:39 | 53.24672 | 16.99557 | 66° | 33km/h | 943m | -0.9m/s | 15.4°C | 63.0% | 909.5hPa | 2.7V | 00:00:00 | 00:00:00 | 00:00:00 | |
| KRY50SP-1 | 2026-08-31 08:01:35 | 53.24661 | 16.99519 | 66° | 33km/h | 947m | -1.2m/s | 15.4°C | 62.6% | 909.2hPa | 2.7V | 00:00:00 | 00:00:00 | 00:00:00 | |
| SP3BTT-10 | 2026-08-31 08:01:33 | 53.24650 | 16.99480 | 63° | 37km/h | 951m | -1.4m/s | 15.3°C | 63.4% | 908.6hPa | 2.7V | 00:00:00 | 00:00:00 | 00:00:00 | |
| KRY50SP-1 | 2026-08-31 08:01:27 | 53.24628 | 16.99412 | 61° | 38km/h | 957m | -1.0m/s | 15.3°C | 63.1% | 908.0hPa | 2.7V | 00:00:00 | 00:00:00 | 00:00:00 | |
| SP3BTT-10 | 2026-08-31 08:01:27 | 53.24623 | 16.99398 | 59° | 38km/h | 958m | -1.0m/s | 15.2°C | 63.8% | 907.8hPa | 2.7V | 00:00:00 | 00:00:00 | 00:00:00 | |
| KRY50SP-1 | 2026-08-31 08:01:21 | 53.24595 | 16.99330 | 55° | 38km/h | 964m | -1.0m/s | 15.2°C | 63.4% | 907.2hPa | 2.7V | 00:00:00 | 00:00:00 | 00:00:00 | |
| SP3BTT-10 | 2026-08-31 08:01:21 | 53.24590 | 16.99317 | 53° | 38km/h | 965m | -1.1m/s | 15.1°C | 64.0% | 907.0hPa | 2.7V | 00:00:00 | 00:00:00 | 00:00:00 | |
| KRY50SP-1 | 2026-08-31 08:01:15 | 53.24560 | 16.99256 | 50° | 37km/h | 971m | -1.2m/s | 15.1°C | 63.7% | 906.3hPa | 2.7V | 00:00:00 | 00:00:00 | 00:00:00 | |
| SP3BTT-10 | 2026-08-31 08:01:15 | 53.24554 | 16.99244 | 50° | 35km/h | 972m | -1.0m/s | 15.1°C | 64.4% | 906.3hPa | 2.7V | 00:00:00 | 00:00:00 | 08:30:00 | |
| KRY50SP-1 | 2026-08-31 08:01:10 | 53.24530 | 16.99199 | 50° | 35km/h | 977m | -1.2m/s | 15.1°C | 63.9% | 905.8hPa | 2.7V | 00:00:00 | 00:00:00 | 00:00:00 | |
| SP3BTT-10 | 2026-08-31 08:01:09 | 53.24518 | 16.99177 | 49° | 33km/h | 980m | -1.1m/s | 15.0°C | 64.6% | 905.4hPa | 2.7V | 00:00:00 | 00:00:00 | 00:00:00 | |
| KRY50SP-1 | 2026-08-31 08:01:04 | 53.24496 | 16.99134 | 52° | 31km/h | 985m | -1.1m/s | 15.0°C | 64.2% | 905.0hPa | 2.7V | 00:00:00 | 00:00:00 | 00:00:00 | |
| SP3BTT-10 | 2026-08-31 08:01:03 | 53.24487 | 16.99113 | 54° | 31km/h | 988m | -1.2m/s | 14.9°C | 64.9% | 904.7hPa | 2.7V | 00:00:00 | 00:00:00 | 00:00:00 | |
| KRY50SP-1 | 2026-08-31 08:00:59 | 53.24473 | 16.99080 | 57° | 31km/h | 991m | -1.1m/s | 15.0°C | 64.2% | 904.4hPa | 2.7V | 00:00:00 | 00:00:00 | 00:00:00 | |
| SP3BTT-10 | 2026-08-31 08:00:57 | 53.24460 | 16.99046 | 60° | 35km/h | 995m | -1.2m/s | 14.9°C | 65.1% | 903.8hPa | 2.7V | 00:00:00 | 00:00:00 | 00:00:00 | |
| SP3BTT-10 | 2026-08-31 08:00:51 | 53.24434 | 16.98971 | 61° | 37km/h | 1003m | -1.2m/s | 14.8°C | 65.5% | 903.1hPa | 2.7V | 00:00:00 | 00:00:00 | 00:00:00 | |
| KRY50SP-1 | 2026-08-31 08:00:49 | 53.24430 | 16.98957 | 64° | 35km/h | 1004m | -0.9m/s | 14.8°C | 64.7% | 903.1hPa | 2.7V | 00:00:00 | 00:00:00 | 00:00:00 | |
| SP3BTT-10 | 2026-08-31 08:00:45 | 53.24408 | 16.98889 | 63° | 38km/h | 1009m | -0.8m/s | 14.7°C | 65.5% | 902.4hPa | 2.7V | 00:00:00 | 00:00:00 | 00:00:00 | |
| KRY50SP-1 | 2026-08-31 08:00:43 | 53.24404 | 16.98875 | 61° | 38km/h | 1011m | -1.4m/s | 14.8°C | 64.7% | 902.3hPa | 2.7V | 00:00:00 | 00:00:00 | 00:00:00 | |
| SP3BTT-10 | 2026-08-31 08:00:39 | 53.24378 | 16.98803 | 59° | 40km/h | 1016m | -1.1m/s | 14.7°C | 65.5% | 901.5hPa | 2.7V | 00:00:00 | 00:00:00 | 00:00:00 | |
| KRY50SP-1 | 2026-08-31 08:00:37 | 53.24372 | 16.98789 | 56° | 40km/h | 1017m | -1.4m/s | 14.7°C | 64.9% | 901.5hPa | 2.7V | 00:00:00 | 00:00:00 | 00:00:00 | |
| SP3BTT-10 | 2026-08-31 08:00:33 | 53.24343 | 16.98717 | 56° | 40km/h | 1024m | -1.4m/s | 14.6°C | 65.6% | 900.6hPa | 2.7V | 00:00:00 | 00:00:00 | 00:00:00 | |
| KRY50SP-1 | 2026-08-31 08:00:32 | 53.24343 | 16.98717 | 57° | 40km/h | 1024m | -1.4m/s | 14.7°C | 64.9% | 900.7hPa | 2.7V | 00:00:00 | 00:00:00 | 00:00:00 | |
| SP3BTT-10 | 2026-08-31 08:00:27 | 53.24306 | 16.98634 | 52° | 38km/h | 1032m | -0.9m/s | 14.6°C | 65.8% | 899.9hPa | 2.7V | 00:00:00 | 00:00:00 | 00:00:00 | |
| KRY50SP-1 | 2026-08-31 08:00:26 | 53.24306 | 16.98634 | 53° | 38km/h | 1032m | -0.9m/s | 14.6°C | 65.0% | 899.9hPa | 2.7V | 00:00:00 | 00:00:00 | 00:00:00 | |
| SP3BTT-10 | 2026-08-31 08:00:21 | 53.24269 | 16.98560 | 49° | 38km/h | 1039m | -1.1m/s | 14.5°C | 65.8% | 899.1hPa | 2.7V | 00:00:00 | 00:00:00 | 08:30:00 | |
| KRY50SP-1 | 2026-08-31 08:00:20 | 53.24269 | 16.98561 | 50° | 37km/h | 1039m | -1.1m/s | 14.6°C | 65.1% | 899.1hPa | 2.7V | 00:00:00 | 00:00:00 | 00:00:00 | |
| SP3BTT-10 | 2026-08-31 08:00:15 | 53.24230 | 16.98490 | 49° | 37km/h | 1046m | -1.1m/s | 14.4°C | 66.1% | 898.3hPa | 2.7V | 00:00:00 | 00:00:00 | 00:00:00 | |
| SP3BTT-10 | 2026-08-31 08:00:09 | 53.24192 | 16.98420 | 49° | 37km/h | 1054m | -1.0m/s | 14.4°C | 66.7% | 897.6hPa | 2.7V | 00:00:00 | 00:00:00 | 00:00:00 | |
| SP3BTT-10 | 2026-08-31 08:00:03 | 53.24153 | 16.98352 | 49° | 37km/h | 1062m | -0.9m/s | 14.3°C | 67.3% | 896.7hPa | 2.7V | 00:00:00 | 00:00:00 | 00:00:00 | |
| KRY50SP-1 | 2026-08-31 07:59:57 | 53.24122 | 16.98295 | 48° | 37km/h | 1068m | -1.4m/s | 14.3°C | 66.9% | 896.0hPa | 2.7V | 00:00:00 | 00:00:00 | 00:00:00 | |
| SP3BTT-10 | 2026-08-31 07:59:57 | 53.24115 | 16.98283 | 47° | 37km/h | 1070m | -1.3m/s | 14.3°C | 67.6% | 895.8hPa | 2.7V | 00:00:00 | 00:00:00 | 00:00:00 | |
| SP3BTT-10 | 2026-08-31 07:59:51 | 53.24078 | 16.98216 | 48° | 35km/h | 1077m | -1.1m/s | 14.2°C | 67.8% | 895.1hPa | 2.7V | 00:00:00 | 00:00:00 | 00:00:00 | |
| KRY50SP-1 | 2026-08-31 07:59:47 | 53.24059 | 16.98184 | 48° | 37km/h | 1081m | -1.0m/s | 14.2°C | 67.1% | 894.6hPa | 2.7V | 00:00:00 | 00:00:00 | 00:00:00 | |
| SP3BTT-10 | 2026-08-31 07:59:45 | 53.24041 | 16.98151 | 49° | 35km/h | 1085m | -1.2m/s | 14.1°C | 68.1% | 894.2hPa | 2.7V | 00:00:00 | 00:00:00 | 00:00:00 | |
| SP3BTT-10 | 2026-08-31 07:59:39 | 53.24008 | 16.98087 | 49° | 33km/h | 1092m | -1.3m/s | 14.1°C | 68.5% | 893.5hPa | 2.7V | 00:00:00 | 00:00:00 | 00:00:00 | |
| SP3BTT-10 | 2026-08-31 07:59:33 | 53.23974 | 16.98022 | 51° | 33km/h | 1100m | -1.1m/s | 14.0°C | 68.7% | 892.6hPa | 2.7V | 00:00:00 | 00:00:00 | 00:00:00 | |
| SP3BTT-10 | 2026-08-31 07:59:27 | 53.23942 | 16.97958 | 50° | 33km/h | 1108m | -1.2m/s | 13.9°C | 68.9% | 892.0hPa | 2.7V | 00:00:00 | 00:00:00 | 08:30:00 | |
| SP3BTT-10 | 2026-08-31 07:59:21 | 53.23910 | 16.97893 | 53° | 33km/h | 1116m | -1.0m/s | 13.9°C | 69.0% | 891.0hPa | 2.7V | 00:00:00 | 00:00:00 | 00:00:00 | |
| KRY50SP-1 | 2026-08-31 07:59:20 | 53.23910 | 16.97893 | 53° | 33km/h | 1116m | -1.1m/s | 13.9°C | 68.1% | 891.1hPa | 2.7V | 00:00:00 | 00:00:00 | 00:00:00 | |
| SP3BTT-10 | 2026-08-31 07:59:15 | 53.23880 | 16.97827 | 55° | 33km/h | 1124m | -1.0m/s | 13.8°C | 69.5% | 890.3hPa | 2.7V | 00:00:00 | 00:00:00 | 00:00:00 | |
| SP3BTT-10 | 2026-08-31 07:59:09 | 53.23853 | 16.97760 | 58° | 33km/h | 1131m | -1.1m/s | 13.7°C | 69.9% | 889.4hPa | 2.7V | 00:00:00 | 00:00:00 | 00:00:00 | |
| SP3BTT-10 | 2026-08-31 07:58:58 | 53.23804 | 16.97633 | 58° | 33km/h | 1145m | -0.9m/s | 13.6°C | 70.3% | 888.0hPa | 2.7V | 00:00:00 | 00:00:00 | 00:00:00 | |
| KRY50SP-1 | 2026-08-31 07:58:57 | 53.23804 | 16.97633 | 59° | 33km/h | 1145m | -1.0m/s | 13.6°C | 69.4% | 888.0hPa | 2.7V | 00:00:00 | 00:00:00 | 00:00:00 | |
| KRY50SP-1 | 2026-08-31 07:58:52 | 53.23782 | 16.97577 | 59° | 31km/h | 1152m | -1.3m/s | 13.6°C | 69.7% | 887.2hPa | 2.7V | 00:00:00 | 00:00:00 | 00:00:00 | |
| KRY50SP-1 | 2026-08-31 07:58:44 | 53.23746 | 16.97484 | 58° | 33km/h | 1162m | -1.1m/s | 13.5°C | 69.7% | 886.2hPa | 2.7V | 00:00:00 | 00:00:00 | 00:00:00 | |
| SP3BTT-10 | 2026-08-31 07:58:38 | 53.23715 | 16.97406 | 56° | 33km/h | 1170m | -1.3m/s | 13.3°C | 70.8% | 885.3hPa | 2.7V | 00:00:00 | 00:00:00 | 00:00:00 | |
| KRY50SP-1 | 2026-08-31 07:58:36 | 53.23711 | 16.97394 | 60° | 33km/h | 1171m | -1.2m/s | 13.4°C | 69.9% | 885.3hPa | 2.7V | 00:00:00 | 00:00:00 | 00:00:00 | |
| SP3BTT-10 | 2026-08-31 07:58:18 | 53.23631 | 16.97168 | 64° | 33km/h | 1193m | -1.0m/s | 13.1°C | 72.0% | 882.7hPa | 2.7V | 00:00:00 | 00:00:00 | 00:00:00 | |
| KRY50SP-1 | 2026-08-31 07:58:16 | 53.23627 | 16.97156 | 61° | 31km/h | 1195m | -1.0m/s | 13.2°C | 70.9% | 882.6hPa | 2.7V | 00:00:00 | 00:00:00 | 00:00:00 | |
| KRY50SP-1 | 2026-08-31 07:58:05 | 53.23584 | 16.97027 | 62° | 33km/h | 1207m | -1.2m/s | 13.0°C | 71.5% | 881.3hPa | 2.7V | 00:00:00 | 00:00:00 | 00:00:00 | |
| SP3BTT-10 | 2026-08-31 07:57:58 | 53.23554 | 16.96930 | 62° | 35km/h | 1215m | -1.4m/s | 12.9°C | 72.7% | 880.3hPa | 2.7V | 00:00:00 | 00:00:00 | 00:00:00 | |
| KRY50SP-1 | 2026-08-31 07:57:57 | 53.23554 | 16.96930 | 62° | 33km/h | 1215m | -1.5m/s | 13.0°C | 71.7% | 880.4hPa | 2.7V | 00:00:00 | 00:00:00 | 00:00:00 | |
| KRY50SP-1 | 2026-08-31 07:57:51 | 53.23533 | 16.96856 | 67° | 31km/h | 1223m | -1.2m/s | 12.9°C | 72.0% | 879.6hPa | 2.7V | 00:00:00 | 00:00:00 | 00:00:00 | |
| KRY50SP-1 | 2026-08-31 07:57:45 | 53.23512 | 16.96778 | 66° | 35km/h | 1230m | -1.1m/s | 12.8°C | 72.3% | 878.8hPa | 2.7V | 00:00:00 | 00:00:00 | 00:00:00 | |
| KRY50SP-1 | 2026-08-31 07:57:40 | 53.23492 | 16.96711 | 64° | 37km/h | 1237m | -1.5m/s | 12.8°C | 72.3% | 877.9hPa | 2.7V | 00:00:00 | 00:00:00 | 00:00:00 | |
| SP3BTT-10 | 2026-08-31 07:57:38 | 53.23479 | 16.96670 | 64° | 37km/h | 1241m | -1.1m/s | 12.7°C | 73.5% | 877.5hPa | 2.7V | 00:00:00 | 00:00:00 | 00:00:00 | |
| KRY50SP-1 | 2026-08-31 07:57:32 | 53.23456 | 16.96599 | 62° | 38km/h | 1247m | -1.3m/s | 12.7°C | 72.7% | 876.8hPa | 2.7V | 00:00:00 | 00:00:00 | 00:00:00 | |
| KRY50SP-1 | 2026-08-31 07:57:26 | 53.23426 | 16.96521 | 55° | 37km/h | 1255m | -1.1m/s | 12.6°C | 73.0% | 876.2hPa | 2.7V | 00:00:00 | 00:00:00 | 00:00:00 | |
| KRY50SP-1 | 2026-08-31 07:57:21 | 53.23399 | 16.96459 | 56° | 37km/h | 1261m | -1.3m/s | 12.5°C | 73.1% | 875.4hPa | 2.7V | 00:00:00 | 00:00:00 | 00:00:00 | |
| SP3BTT-10 | 2026-08-31 07:57:18 | 53.23378 | 16.96407 | 58° | 35km/h | 1266m | -1.1m/s | 12.5°C | 74.1% | 874.9hPa | 2.7V | 00:00:00 | 00:00:00 | 08:30:00 | |
| KRY50SP-1 | 2026-08-31 07:57:15 | 53.23368 | 16.96381 | 59° | 37km/h | 1268m | -1.3m/s | 12.5°C | 72.9% | 874.7hPa | 2.7V | 00:00:00 | 00:00:00 | 00:00:00 | |
| KRY50SP-1 | 2026-08-31 07:57:09 | 53.23339 | 16.96309 | 56° | 33km/h | 1276m | -1.1m/s | 12.4°C | 73.0% | 874.0hPa | 2.7V | 00:00:00 | 00:00:00 | 00:00:00 | |
| KRY50SP-1 | 2026-08-31 07:57:04 | 53.23315 | 16.96250 | 58° | 35km/h | 1282m | -1.1m/s | 12.4°C | 73.2% | 873.3hPa | 2.7V | 00:00:00 | 00:00:00 | 00:00:00 | |
| KRY50SP-1 | 2026-08-31 07:56:59 | 53.23290 | 16.96190 | 57° | 35km/h | 1288m | -1.3m/s | 12.3°C | 73.5% | 872.7hPa | 2.7V | 00:00:00 | 00:00:00 | 00:00:00 | |
| SP3BTT-10 | 2026-08-31 07:56:58 | 53.23281 | 16.96166 | 57° | 33km/h | 1291m | -1.1m/s | 12.2°C | 74.7% | 872.5hPa | 2.7V | 00:00:00 | 00:00:00 | 00:00:00 | |
| KRY50SP-1 | 2026-08-31 07:56:54 | 53.23267 | 16.96132 | 57° | 33km/h | 1294m | -1.1m/s | 12.3°C | 73.5% | 872.1hPa | 2.7V | 00:00:00 | 00:00:00 | 00:00:00 | |
| KRY50SP-1 | 2026-08-31 07:56:48 | 53.23240 | 16.96062 | 57° | 35km/h | 1301m | -1.2m/s | 12.2°C | 73.3% | 871.3hPa | 2.7V | 00:00:00 | 00:00:00 | 00:00:00 | |
| KRY50SP-1 | 2026-08-31 07:56:43 | 53.23216 | 16.96002 | 58° | 33km/h | 1307m | -1.1m/s | 12.2°C | 73.2% | 870.6hPa | 2.7V | 00:00:00 | 00:00:00 | 00:00:00 | |
| KRY50SP-1 | 2026-08-31 07:56:38 | 53.23193 | 16.95943 | 58° | 33km/h | 1313m | -1.3m/s | 12.1°C | 73.4% | 869.9hPa | 2.7V | 00:00:00 | 00:00:00 | 00:00:00 | |
| SP3BTT-10 | 2026-08-31 07:56:38 | 53.23189 | 16.95931 | 57° | 31km/h | 1314m | -1.0m/s | 12.1°C | 74.6% | 869.8hPa | 2.7V | 00:00:00 | 00:00:00 | 00:00:00 | |
| KRY50SP-1 | 2026-08-31 07:56:32 | 53.23166 | 16.95873 | 57° | 31km/h | 1320m | -1.1m/s | 12.0°C | 73.7% | 869.2hPa | 2.7V | 00:00:00 | 00:00:00 | 00:00:00 | |
| KRY50SP-1 | 2026-08-31 07:56:26 | 53.23141 | 16.95810 | 58° | 29km/h | 1327m | -1.4m/s | 12.0°C | 73.6% | 868.5hPa | 2.7V | 00:00:00 | 00:00:00 | 00:00:00 | |
| KRY50SP-1 | 2026-08-31 07:56:20 | 53.23116 | 16.95745 | 58° | 31km/h | 1335m | -1.3m/s | 12.0°C | 71.4% | 867.8hPa | 2.7V | 00:00:00 | 00:00:00 | 00:00:00 | |
| SP3BTT-10 | 2026-08-31 07:56:18 | 53.23103 | 16.95711 | 58° | 29km/h | 1339m | -1.3m/s | 12.0°C | 72.1% | 867.2hPa | 2.7V | 00:00:00 | 00:00:00 | 00:00:00 | |
| KRY50SP-1 | 2026-08-31 07:56:14 | 53.23090 | 16.95679 | 59° | 29km/h | 1343m | -1.3m/s | 12.0°C | 70.5% | 866.8hPa | 2.7V | 00:00:00 | 00:00:00 | 00:00:00 | |
| KRY50SP-1 | 2026-08-31 07:56:09 | 53.23071 | 16.95626 | 60° | 29km/h | 1349m | -1.2m/s | 12.0°C | 70.0% | 866.1hPa | 2.7V | 00:00:00 | 00:00:00 | 00:00:00 | |
| KRY50SP-1 | 2026-08-31 07:56:03 | 53.23049 | 16.95564 | 61° | 27km/h | 1357m | -1.3m/s | 12.0°C | 69.7% | 865.4hPa | 2.7V | 00:00:00 | 00:00:00 | 00:00:00 | |
| KRY50SP-1 | 2026-08-31 07:55:58 | 53.23031 | 16.95513 | 62° | 27km/h | 1363m | -1.3m/s | 11.9°C | 70.0% | 864.7hPa | 2.7V | 00:00:00 | 00:00:00 | 00:00:00 | |
| SP3BTT-10 | 2026-08-31 07:55:58 | 53.23027 | 16.95502 | 62° | 29km/h | 1364m | -1.2m/s | 11.8°C | 71.2% | 864.5hPa | 2.7V | 00:00:00 | 00:00:00 | 00:00:00 | |
| KRY50SP-1 | 2026-08-31 07:55:52 | 53.23011 | 16.95451 | 64° | 27km/h | 1371m | -1.3m/s | 11.8°C | 70.3% | 864.0hPa | 2.7V | 00:00:00 | 00:00:00 | 00:00:00 | |
| KRY50SP-1 | 2026-08-31 07:55:46 | 53.22991 | 16.95392 | 57° | 29km/h | 1378m | -1.2m/s | 11.7°C | 70.1% | 863.2hPa | 2.7V | 00:00:00 | 00:00:00 | 00:00:00 | |
| KRY50SP-1 | 2026-08-31 07:55:40 | 53.22968 | 16.95321 | 69° | 35km/h | 1386m | -1.2m/s | 11.7°C | 70.2% | 862.4hPa | 2.7V | 00:00:00 | 00:00:00 | 00:00:00 | |
| SP3BTT-10 | 2026-08-31 07:55:38 | 53.22959 | 16.95280 | 74° | 29km/h | 1390m | -1.3m/s | 11.6°C | 71.5% | 861.9hPa | 2.7V | 00:00:00 | 00:00:00 | 00:00:00 | |
| KRY50SP-1 | 2026-08-31 07:55:35 | 53.22955 | 16.95253 | 76° | 33km/h | 1393m | -1.4m/s | 11.6°C | 70.3% | 861.6hPa | 2.7V | 00:00:00 | 00:00:00 | 00:00:00 | |
| KRY50SP-1 | 2026-08-31 07:55:29 | 53.22944 | 16.95179 | 79° | 27km/h | 1401m | -1.4m/s | 11.5°C | 70.4% | 860.8hPa | 2.7V | 00:00:00 | 00:00:00 | 00:00:00 | |
| KRY50SP-1 | 2026-08-31 07:55:24 | 53.22937 | 16.95122 | 80° | 27km/h | 1408m | -1.3m/s | 11.5°C | 70.3% | 860.2hPa | 2.7V | 00:00:00 | 00:00:00 | 00:00:00 | |
| SP3BTT-10 | 2026-08-31 07:55:18 | 53.22928 | 16.95044 | 80° | 31km/h | 1417m | -1.2m/s | 11.4°C | 71.6% | 859.1hPa | 2.7V | 00:00:00 | 00:00:00 | 00:00:00 | |
| KRY50SP-1 | 2026-08-31 07:55:13 | 53.22924 | 16.94998 | 82° | 27km/h | 1422m | -1.2m/s | 11.4°C | 70.4% | 858.7hPa | 2.7V | 00:00:00 | 00:00:00 | 00:00:00 | |
| KRY50SP-1 | 2026-08-31 07:55:07 | 53.22917 | 16.94925 | 82° | 31km/h | 1430m | -1.2m/s | 11.3°C | 70.4% | 857.9hPa | 2.7V | 00:00:00 | 00:00:00 | 00:00:00 | |
| KRY50SP-1 | 2026-08-31 07:55:02 | 53.22910 | 16.94859 | 79° | 33km/h | 1436m | -1.2m/s | 11.3°C | 70.5% | 857.3hPa | 2.7V | 00:00:00 | 00:00:00 | 00:00:00 | |
| SP3BTT-10 | 2026-08-31 07:54:58 | 53.22900 | 16.94792 | 76° | 33km/h | 1442m | -1.2m/s | 11.2°C | 71.2% | 856.6hPa | 2.7V | 00:00:00 | 00:00:00 | 00:00:00 | |
| KRY50SP-1 | 2026-08-31 07:54:57 | 53.22900 | 16.94792 | 76° | 33km/h | 1442m | -1.3m/s | 11.3°C | 69.9% | 856.6hPa | 2.7V | 00:00:00 | 00:00:00 | 00:00:00 | |
| KRY50SP-1 | 2026-08-31 07:54:52 | 53.22890 | 16.94724 | 77° | 33km/h | 1448m | -1.3m/s | 11.3°C | 68.3% | 856.0hPa | 2.7V | 00:00:00 | 00:00:00 | 00:00:00 | |
| KRY50SP-1 | 2026-08-31 07:54:46 | 53.22876 | 16.94644 | 73° | 33km/h | 1455m | -1.2m/s | 11.2°C | 68.4% | 855.2hPa | 2.7V | 00:00:00 | 00:00:00 | 00:00:00 | |
| KRY50SP-1 | 2026-08-31 07:54:41 | 53.22863 | 16.94580 | 70° | 31km/h | 1460m | -1.2m/s | 11.1°C | 68.3% | 854.7hPa | 2.7V | 00:00:00 | 00:00:00 | 00:00:00 | |
| SP3BTT-10 | 2026-08-31 07:54:38 | 53.22851 | 16.94530 | 70° | 31km/h | 1465m | -1.2m/s | 11.0°C | 69.6% | 854.1hPa | 2.7V | 00:00:00 | 00:00:00 | 00:00:00 | |
| KRY50SP-1 | 2026-08-31 07:54:36 | 53.22849 | 16.94517 | 70° | 33km/h | 1466m | -1.2m/s | 11.1°C | 68.2% | 853.9hPa | 2.7V | 00:00:00 | 00:00:00 | 00:00:00 | |
| KRY50SP-1 | 2026-08-31 07:54:30 | 53.22832 | 16.94441 | 70° | 31km/h | 1472m | -1.3m/s | 11.0°C | 68.6% | 853.1hPa | 2.7V | 00:00:00 | 00:00:00 | 00:00:00 | |
| KRY50SP-1 | 2026-08-31 07:54:24 | 53.22815 | 16.94371 | 66° | 29km/h | 1479m | -1.2m/s | 11.0°C | 68.8% | 852.6hPa | 2.7V | 00:00:00 | 00:00:00 | 00:00:00 | |
| KRY50SP-1 | 2026-08-31 07:54:19 | 53.22799 | 16.94315 | 63° | 31km/h | 1485m | -1.4m/s | 10.9°C | 68.9% | 852.0hPa | 2.7V | 00:00:00 | 00:00:00 | 00:00:00 | |
| SP3BTT-10 | 2026-08-31 07:54:18 | 53.22792 | 16.94291 | 62° | 29km/h | 1488m | -1.3m/s | 10.9°C | 70.1% | 851.6hPa | 2.7V | 00:00:00 | 00:00:00 | 08:30:00 | |
| KRY50SP-1 | 2026-08-31 07:54:13 | 53.22778 | 16.94240 | 71° | 35km/h | 1493m | -1.0m/s | 10.9°C | 68.9% | 851.3hPa | 2.7V | 00:00:00 | 00:00:00 | 00:00:00 | |
| KRY50SP-1 | 2026-08-31 07:54:08 | 53.22767 | 16.94169 | 82° | 33km/h | 1498m | -1.3m/s | 10.8°C | 69.2% | 850.6hPa | 2.7V | 00:00:00 | 00:00:00 | 00:00:00 | |
| KRY50SP-1 | 2026-08-31 07:54:02 | 53.22763 | 16.94098 | 79° | 26km/h | 1505m | -1.5m/s | 10.7°C | 69.4% | 849.9hPa | 2.7V | 00:00:00 | 00:00:00 | 00:00:00 | |
| SP3WXH-11 | 2026-08-31 07:53:54 | 53.22740 | 16.93995 | 65° | 27km/h | 1517m | -1.3m/s | 10.6°C | 69.7% | 848.6hPa | 2.7V | 00:00:00 | 00:00:00 | 00:00:00 | |
| KRY50SP-1 | 2026-08-31 07:53:51 | 53.22737 | 16.93984 | 66° | 27km/h | 1519m | -1.5m/s | 10.6°C | 69.8% | 848.4hPa | 2.7V | 00:00:00 | 00:00:00 | 00:00:00 | |
| KRY50SP-1 | 2026-08-31 07:53:45 | 53.22715 | 16.93916 | 62° | 33km/h | 1527m | -1.6m/s | 10.5°C | 70.4% | 847.6hPa | 2.7V | 00:00:00 | 00:00:00 | 00:00:00 | |
| SP3BTT-10 | 2026-08-31 07:53:38 | 53.22686 | 16.93811 | 66° | 37km/h | 1539m | -1.4m/s | 10.4°C | 72.4% | 846.4hPa | 2.7V | 00:00:00 | 00:00:00 | 00:00:00 | |
| KRY50SP-1 | 2026-08-31 07:53:33 | 53.22671 | 16.93756 | 67° | 37km/h | 1545m | -1.6m/s | 10.4°C | 71.0% | 846.0hPa | 2.7V | 00:00:00 | 00:00:00 | 00:00:00 | |
| KRY50SP-1 | 2026-08-31 07:53:27 | 53.22652 | 16.93669 | 72° | 38km/h | 1553m | -1.1m/s | 10.3°C | 71.6% | 845.2hPa | 2.7V | 00:00:00 | 00:00:00 | 00:00:00 | |
| SP3WXH-11 | 2026-08-31 07:53:23 | 53.22636 | 16.93580 | 76° | 35km/h | 1560m | -0.9m/s | 10.2°C | 72.0% | 844.5hPa | 2.7V | 00:00:00 | 00:00:00 | 00:00:00 | |
| KRY50SP-1 | 2026-08-31 07:53:21 | 53.22636 | 16.93580 | 78° | 37km/h | 1561m | -0.9m/s | 10.2°C | 72.1% | 844.5hPa | 2.7V | 00:00:00 | 00:00:00 | 00:00:00 | |
| SP3BTT-10 | 2026-08-31 07:53:18 | 53.22629 | 16.93524 | 78° | 31km/h | 1564m | -1.0m/s | 10.2°C | 73.8% | 843.9hPa | 2.7V | 00:00:00 | 00:00:00 | 00:00:00 | |
| KRY50SP-1 | 2026-08-31 07:53:15 | 53.22625 | 16.93501 | 73° | 27km/h | 1566m | -1.3m/s | 10.2°C | 72.5% | 843.7hPa | 2.7V | 00:00:00 | 00:00:00 | 00:00:00 | |
| KRY50SP-1 | 2026-08-31 07:53:10 | 53.22612 | 16.93447 | 65° | 27km/h | 1572m | -1.5m/s | 10.2°C | 73.1% | 843.1hPa | 2.7V | 00:00:00 | 00:00:00 | 00:00:00 | |
| KRY50SP-1 | 2026-08-31 07:53:04 | 53.22589 | 16.93378 | 61° | 35km/h | 1581m | -1.3m/s | 10.1°C | 73.5% | 842.4hPa | 2.7V | 00:00:00 | 00:00:00 | 00:00:00 | |
| SP3WXH-11 | 2026-08-31 07:52:52 | 53.22538 | 16.93199 | 63° | 35km/h | 1597m | -1.1m/s | 9.9°C | 74.6% | 840.8hPa | 2.7V | 00:00:00 | 00:00:00 | 00:00:00 | |
| KRY50SP-1 | 2026-08-31 07:52:48 | 53.22527 | 16.93156 | 65° | 37km/h | 1601m | -1.3m/s | 9.9°C | 75.1% | 840.4hPa | 2.7V | 00:00:00 | 00:00:00 | 00:00:00 | |
| KRY50SP-1 | 2026-08-31 07:52:42 | 53.22501 | 16.93076 | 62° | 37km/h | 1608m | -1.3m/s | 9.9°C | 76.2% | 839.7hPa | 2.7V | 00:00:00 | 00:00:00 | 00:00:00 | |
| SP3BTT-10 | 2026-08-31 07:52:38 | 53.22480 | 16.93014 | 61° | 31km/h | 1615m | -1.2m/s | 9.8°C | 77.9% | 838.9hPa | 2.7V | 00:00:00 | 00:00:00 | 00:00:00 | |
| KRY50SP-1 | 2026-08-31 07:52:37 | 53.22480 | 16.93014 | 61° | 33km/h | 1615m | -1.3m/s | 9.8°C | 76.3% | 839.0hPa | 2.7V | 00:00:00 | 00:00:00 | 00:00:00 | |
| KRY50SP-1 | 2026-08-31 07:52:31 | 53.22458 | 16.92945 | 64° | 29km/h | 1622m | -1.2m/s | 9.8°C | 76.2% | 838.3hPa | 2.7V | 00:00:00 | 00:00:00 | 00:00:00 | |
| KRY50SP-1 | 2026-08-31 07:52:26 | 53.22442 | 16.92888 | 70° | 29km/h | 1628m | -1.3m/s | 9.7°C | 76.1% | 837.7hPa | 2.7V | 00:00:00 | 00:00:00 | 00:00:00 | |
| KRY50SP-1 | 2026-08-31 07:52:22 | 53.22430 | 16.92829 | 74° | 31km/h | 1634m | -1.2m/s | 9.7°C | 76.4% | 837.1hPa | 2.7V | 00:00:00 | 00:00:00 | 00:00:00 | |
| SP3WXH-11 | 2026-08-31 07:52:21 | 53.22426 | 16.92804 | 72° | 31km/h | 1636m | -1.3m/s | 9.7°C | 76.9% | 836.8hPa | 2.7V | 00:00:00 | 00:00:00 | 00:00:00 | |
| SP3BTT-10 | 2026-08-31 07:52:18 | 53.22421 | 16.92778 | 77° | 37km/h | 1639m | -1.1m/s | 9.6°C | 78.8% | 836.6hPa | 2.7V | 00:00:00 | 00:00:00 | 00:00:00 | |
| KRY50SP-1 | 2026-08-31 07:52:15 | 53.22417 | 16.92752 | 75° | 33km/h | 1641m | -1.2m/s | 9.6°C | 77.3% | 836.2hPa | 2.7V | 00:00:00 | 00:00:00 | 00:00:00 | |
| KRY50SP-1 | 2026-08-31 07:52:10 | 53.22405 | 16.92681 | 73° | 37km/h | 1647m | -1.1m/s | 9.5°C | 77.8% | 835.6hPa | 2.7V | 00:00:00 | 00:00:00 | 00:00:00 | |
| KRY50SP-1 | 2026-08-31 07:52:05 | 53.22389 | 16.92608 | 68° | 38km/h | 1653m | -1.2m/s | 9.5°C | 78.9% | 835.2hPa | 2.7V | 00:00:00 | 00:00:00 | 00:00:00 | |
| SP3WXH-11 | 2026-08-31 07:51:50 | 53.22315 | 16.92378 | 59° | 31km/h | 1675m | -1.2m/s | 9.3°C | 80.4% | 833.1hPa | 2.7V | 00:00:00 | 00:00:00 | 00:00:00 | |
| KRY50SP-1 | 2026-08-31 07:51:49 | 53.22319 | 16.92390 | 60° | 33km/h | 1674m | -1.5m/s | 9.3°C | 79.7% | 833.2hPa | 2.7V | 00:00:00 | 00:00:00 | 00:00:00 | |
| KRY50SP-1 | 2026-08-31 07:51:43 | 53.22296 | 16.92323 | 65° | 29km/h | 1682m | -1.2m/s | 9.2°C | 81.7% | 832.3hPa | 2.7V | 00:00:00 | 00:00:00 | 00:00:00 | |
| KRY50SP-1 | 2026-08-31 07:51:38 | 53.22281 | 16.92266 | 72° | 29km/h | 1689m | -1.1m/s | 9.1°C | 82.4% | 831.7hPa | 2.7V | 00:00:00 | 00:00:00 | 00:00:00 | |
| KRY50SP-1 | 2026-08-31 07:51:33 | 53.22268 | 16.92207 | 74° | 29km/h | 1695m | -1.3m/s | 9.1°C | 82.6% | 831.2hPa | 2.7V | 00:00:00 | 00:00:00 | 00:00:00 | |
| KRY50SP-1 | 2026-08-31 07:51:27 | 53.22255 | 16.92130 | 76° | 33km/h | 1703m | -1.2m/s | 9.0°C | 83.3% | 830.3hPa | 2.7V | 00:00:00 | 00:00:00 | 00:00:00 | |
| KRY50SP-1 | 2026-08-31 07:51:22 | 53.22242 | 16.92060 | 74° | 37km/h | 1709m | -1.1m/s | 9.0°C | 83.6% | 829.7hPa | 2.7V | 00:00:00 | 00:00:00 | 00:00:00 | |
| KRY50SP-1 | 2026-08-31 07:51:17 | 53.22228 | 16.91988 | 72° | 37km/h | 1715m | -1.4m/s | 8.9°C | 83.1% | 829.1hPa | 2.7V | 00:00:00 | 00:00:00 | 00:00:00 | |
| KRY50SP-1 | 2026-08-31 07:51:12 | 53.22212 | 16.91914 | 70° | 38km/h | 1721m | -1.2m/s | 8.9°C | 83.1% | 828.4hPa | 2.7V | 00:00:00 | 00:00:00 | 00:00:00 | |
| KRY50SP-1 | 2026-08-31 07:51:06 | 53.22189 | 16.91827 | 62° | 38km/h | 1729m | -1.2m/s | 8.8°C | 82.9% | 827.7hPa | 2.7V | 00:00:00 | 00:00:00 | 00:00:00 | |
| SP3WXH-11 | 2026-08-31 07:50:48 | 53.22109 | 16.91586 | 62° | 29km/h | 1753m | -1.3m/s | 8.6°C | 83.8% | 825.1hPa | 2.7V | 00:00:00 | 00:00:00 | 00:00:00 | |
| KRY50SP-1 | 2026-08-31 07:50:43 | 53.22099 | 16.91551 | 62° | 31km/h | 1757m | -1.3m/s | 8.5°C | 83.7% | 824.8hPa | 2.7V | 00:00:00 | 00:00:00 | 00:00:00 | |
| KRY50SP-1 | 2026-08-31 07:50:38 | 53.22080 | 16.91495 | 61° | 31km/h | 1764m | -1.3m/s | 8.5°C | 84.0% | 824.1hPa | 2.7V | 00:00:00 | 00:00:00 | 00:00:00 | |
| SP3BTT-10 | 2026-08-31 07:50:38 | 53.22076 | 16.91483 | 61° | 31km/h | 1765m | -1.3m/s | 8.4°C | 86.0% | 824.0hPa | 2.7V | 00:00:00 | 00:00:00 | 00:00:00 | |
| KRY50SP-1 | 2026-08-31 07:50:32 | 53.22057 | 16.91426 | 64° | 31km/h | 1771m | -1.2m/s | 8.4°C | 84.0% | 823.4hPa | 2.7V | 00:00:00 | 00:00:00 | 00:00:00 | |
| KRY50SP-1 | 2026-08-31 07:50:27 | 53.22040 | 16.91369 | 65° | 31km/h | 1778m | -1.4m/s | 8.4°C | 83.9% | 822.7hPa | 2.7V | 00:00:00 | 00:00:00 | 00:00:00 | |
| SP3BTT-10 | 2026-08-31 07:50:18 | 53.22008 | 16.91252 | 68° | 31km/h | 1790m | -1.3m/s | 8.2°C | 86.4% | 821.4hPa | 2.7V | 00:00:00 | 00:00:00 | 00:00:00 | |
| KRY50SP-1 | 2026-08-31 07:50:16 | 53.22006 | 16.91240 | 69° | 31km/h | 1791m | -1.1m/s | 8.2°C | 84.3% | 821.4hPa | 2.7V | 00:00:00 | 00:00:00 | 00:00:00 | |
| KRY50SP-1 | 2026-08-31 07:50:10 | 53.21988 | 16.91170 | 67° | 29km/h | 1799m | -1.1m/s | 8.3°C | 80.8% | 820.6hPa | 2.7V | 00:00:00 | 00:00:00 | 00:00:00 | |
| KRY50SP-1 | 2026-08-31 07:50:05 | 53.21971 | 16.91112 | 63° | 31km/h | 1805m | -1.4m/s | 8.2°C | 80.6% | 820.0hPa | 2.7V | 00:00:00 | 00:00:00 | 00:00:00 | |
| SP3WXH-11 | 2026-08-31 07:49:46 | 53.21902 | 16.90860 | 65° | 29km/h | 1831m | -1.1m/s | 8.0°C | 79.4% | 817.2hPa | 2.7V | 00:00:00 | 00:00:00 | 00:00:00 | |
| KRY50SP-1 | 2026-08-31 07:49:43 | 53.21899 | 16.90849 | 62° | 31km/h | 1832m | -1.4m/s | 8.0°C | 79.4% | 817.2hPa | 2.7V | 00:00:00 | 00:00:00 | 00:00:00 | |
| KRY50SP-1 | 2026-08-31 07:49:38 | 53.21877 | 16.90791 | 56° | 35km/h | 1839m | -1.3m/s | 8.0°C | 79.4% | 816.5hPa | 2.7V | 00:00:00 | 00:00:00 | 00:00:00 | |
| SP3BTT-10 | 2026-08-31 07:49:38 | 53.21873 | 16.90779 | 57° | 37km/h | 1840m | -1.4m/s | 7.9°C | 81.6% | 816.4hPa | 2.7V | 00:00:00 | 00:00:00 | 00:00:00 | |
| KRY50SP-1 | 2026-08-31 07:49:32 | 53.21847 | 16.90714 | 59° | 38km/h | 1848m | -1.6m/s | 7.9°C | 79.5% | 815.8hPa | 2.7V | 00:00:00 | 00:00:00 | 00:00:00 | |
| KRY50SP-1 | 2026-08-31 07:49:26 | 53.21816 | 16.90634 | 58° | 38km/h | 1855m | -1.2m/s | 7.8°C | 79.1% | 815.0hPa | 2.7V | 00:00:00 | 00:00:00 | 00:00:00 | |
| KRY50SP-1 | 2026-08-31 07:49:20 | 53.21784 | 16.90558 | 54° | 37km/h | 1863m | -1.5m/s | 7.7°C | 79.2% | 814.2hPa | 2.7V | 00:00:00 | 00:00:00 | 00:00:00 | |
| SP3BTT-10 | 2026-08-31 07:49:18 | 53.21769 | 16.90521 | 56° | 35km/h | 1867m | -1.2m/s | 7.7°C | 81.3% | 813.8hPa | 2.7V | 00:00:00 | 00:00:00 | 00:00:00 | |
| KRY50SP-1 | 2026-08-31 07:49:15 | 53.21759 | 16.90498 | 58° | 33km/h | 1870m | -1.1m/s | 7.7°C | 79.1% | 813.5hPa | 2.7V | 00:00:00 | 00:00:00 | 00:00:00 | |
| SP3WXH-11 | 2026-08-31 07:49:15 | 53.21750 | 16.90475 | 58° | 31km/h | 1872m | -1.5m/s | 7.7°C | 78.3% | 813.2hPa | 2.7V | 00:00:00 | 00:00:00 | 00:00:00 | |
| KRY50SP-1 | 2026-08-31 07:49:04 | 53.21719 | 16.90362 | 70° | 35km/h | 1883m | -1.2m/s | 7.6°C | 78.7% | 812.2hPa | 2.7V | 00:00:00 | 00:00:00 | 00:00:00 | |
| KRY50SP-1 | 2026-08-31 07:48:59 | 53.21702 | 16.90291 | 68° | 40km/h | 1890m | -1.3m/s | 7.5°C | 78.1% | 811.4hPa | 2.7V | 00:00:00 | 00:00:00 | 00:00:00 | |
| SP3BTT-10 | 2026-08-31 07:48:58 | 53.21694 | 16.90261 | 67° | 40km/h | 1893m | -1.4m/s | 7.5°C | 80.5% | 811.2hPa | 2.7V | 00:00:00 | 00:00:00 | 00:00:00 | |
| KRY50SP-1 | 2026-08-31 07:48:53 | 53.21677 | 16.90200 | 65° | 42km/h | 1898m | -1.1m/s | 7.5°C | 78.1% | 810.8hPa | 2.7V | 00:00:00 | 00:00:00 | 00:00:00 | |
| KRY50SP-1 | 2026-08-31 07:48:48 | 53.21653 | 16.90122 | 64° | 40km/h | 1904m | -1.4m/s | 7.4°C | 78.2% | 810.0hPa | 2.7V | 00:00:00 | 00:00:00 | 00:00:00 | |
| SP3WXH-11 | 2026-08-31 07:48:44 | 53.21623 | 16.90033 | 59° | 38km/h | 1912m | -1.5m/s | 7.4°C | 77.5% | 809.3hPa | 2.7V | 00:00:00 | 00:00:00 | 00:00:00 | |
| KRY50SP-1 | 2026-08-31 07:48:42 | 53.21623 | 16.90033 | 60° | 40km/h | 1913m | -1.5m/s | 7.4°C | 77.5% | 809.3hPa | 2.7V | 00:00:00 | 00:00:00 | 00:00:00 | |
| SP3BTT-10 | 2026-08-31 07:48:38 | 53.21595 | 16.89963 | 56° | 37km/h | 1919m | -1.3m/s | 7.3°C | 78.5% | 808.6hPa | 2.7V | 00:00:00 | 00:00:00 | 00:00:00 | |
| KRY50SP-1 | 2026-08-31 07:48:36 | 53.21590 | 16.89949 | 58° | 40km/h | 1921m | -1.2m/s | 7.3°C | 76.5% | 808.6hPa | 2.7V | 00:00:00 | 00:00:00 | 00:00:00 | |
| KRY50SP-1 | 2026-08-31 07:48:23 | 53.21523 | 16.89784 | 59° | 33km/h | 1936m | -1.2m/s | 7.2°C | 76.6% | 806.8hPa | 2.7V | 00:00:00 | 00:00:00 | 00:00:00 | |
| SP3BTT-10 | 2026-08-31 07:48:18 | 53.21499 | 16.89711 | 66° | 38km/h | 1944m | -1.1m/s | 7.1°C | 78.9% | 806.0hPa | 2.7V | 00:00:00 | 00:00:00 | 08:30:00 | |
| KRY50SP-1 | 2026-08-31 07:48:16 | 53.21496 | 16.89697 | 69° | 35km/h | 1945m | -1.3m/s | 7.1°C | 76.8% | 805.9hPa | 2.7V | 00:00:00 | 00:00:00 | 00:00:00 | |
| SP3WXH-11 | 2026-08-31 07:48:12 | 53.21478 | 16.89629 | 66° | 35km/h | 1952m | -1.2m/s | 7.1°C | 77.0% | 805.4hPa | 2.7V | 00:00:00 | 00:00:00 | 00:00:00 | |
| KRY50SP-1 | 2026-08-31 07:48:11 | 53.21478 | 16.89629 | 68° | 37km/h | 1952m | -1.2m/s | 7.1°C | 77.1% | 805.4hPa | 2.7V | 00:00:00 | 00:00:00 | 00:00:00 | |
| KRY50SP-1 | 2026-08-31 07:48:05 | 53.21458 | 16.89542 | 70° | 38km/h | 1959m | -1.0m/s | 7.0°C | 77.4% | 804.7hPa | 2.7V | 00:00:00 | 00:00:00 | 00:00:00 | |
| SP3BTT-10 | 2026-08-31 07:47:58 | 53.21427 | 16.89419 | 67° | 42km/h | 1968m | -1.1m/s | 6.8°C | 79.8% | 803.6hPa | 2.7V | 00:00:00 | 00:00:00 | 00:00:00 | |
| SP3WXH-11 | 2026-08-31 07:47:41 | 53.21353 | 16.89146 | 67° | 40km/h | 1989m | -1.3m/s | 6.7°C | 78.3% | 801.6hPa | 2.7V | 00:00:00 | 00:00:00 | 00:00:00 | |
| SP3BTT-10 | 2026-08-31 07:47:38 | 53.21340 | 16.89097 | 66° | 40km/h | 1994m | -1.3m/s | 6.6°C | 80.6% | 801.2hPa | 2.7V | 00:00:00 | 00:00:00 | 00:00:00 | |
| KRY50SP-1 | 2026-08-31 07:47:22 | 53.21280 | 16.88855 | 69° | 35km/h | 2014m | -1.0m/s | 6.5°C | 79.3% | 799.5hPa | 2.7V | 00:00:00 | 00:00:00 | 00:00:00 | |
| SP3BTT-10 | 2026-08-31 07:47:18 | 53.21258 | 16.88792 | 56° | 42km/h | 2020m | -1.3m/s | 6.4°C | 81.7% | 798.9hPa | 2.7V | 00:00:00 | 00:00:00 | 00:00:00 | |
| KRY50SP-1 | 2026-08-31 07:47:16 | 53.21253 | 16.88779 | 57° | 37km/h | 2021m | -1.4m/s | 6.4°C | 79.5% | 798.7hPa | 2.7V | 00:00:00 | 00:00:00 | 00:00:00 | |
| KRY50SP-1 | 2026-08-31 07:47:10 | 53.21218 | 16.88694 | 60° | 44km/h | 2030m | -1.2m/s | 6.4°C | 79.3% | 797.8hPa | 2.7V | 00:00:00 | 00:00:00 | 00:00:00 | |
| KRY50SP-1 | 2026-08-31 07:47:04 | 53.21188 | 16.88595 | 67° | 44km/h | 2038m | -1.1m/s | 6.3°C | 79.3% | 797.1hPa | 2.7V | 00:00:00 | 00:00:00 | 00:00:00 | |
| SP3BTT-10 | 2026-08-31 07:46:58 | 53.21159 | 16.88481 | 68° | 42km/h | 2047m | -1.2m/s | 6.2°C | 81.4% | 796.2hPa | 2.7V | 00:00:00 | 00:00:00 | 00:00:00 | |
| KRY50SP-1 | 2026-08-31 07:46:47 | 53.21118 | 16.88323 | 68° | 42km/h | 2061m | -1.2m/s | 6.2°C | 78.4% | 795.0hPa | 2.7V | 00:00:00 | 00:00:00 | 00:00:00 | |
| KRY50SP-1 | 2026-08-31 07:46:39 | 53.21082 | 16.88190 | 63° | 44km/h | 2073m | -1.6m/s | 6.1°C | 78.0% | 793.8hPa | 2.7V | 00:00:00 | 00:00:00 | 00:00:00 | |
| SP3BTT-10 | 2026-08-31 07:46:38 | 53.21071 | 16.88156 | 64° | 46km/h | 2076m | -1.6m/s | 6.0°C | 80.5% | 793.5hPa | 2.7V | 00:00:00 | 00:00:00 | 00:00:00 | |
| KRY50SP-1 | 2026-08-31 07:46:34 | 53.21052 | 16.88090 | 65° | 44km/h | 2083m | -1.7m/s | 6.0°C | 78.5% | 792.9hPa | 2.7V | 00:00:00 | 00:00:00 | 00:00:00 | |
| KRY50SP-1 | 2026-08-31 07:46:27 | 53.21022 | 16.87987 | 65° | 46km/h | 2092m | -1.3m/s | 5.9°C | 79.7% | 792.1hPa | 2.7V | 00:00:00 | 00:00:00 | 00:00:00 | |
| KRY50SP-1 | 2026-08-31 07:46:22 | 53.20997 | 16.87902 | 65° | 46km/h | 2099m | -1.7m/s | 5.9°C | 80.0% | 791.4hPa | 2.7V | 00:00:00 | 00:00:00 | 00:00:00 | |
| SP3BTT-10 | 2026-08-31 07:46:18 | 53.20972 | 16.87817 | 66° | 40km/h | 2107m | -1.4m/s | 5.8°C | 82.1% | 790.4hPa | 2.7V | 00:00:00 | 00:00:00 | 00:00:00 | |
| KRY50SP-1 | 2026-08-31 07:46:16 | 53.20968 | 16.87801 | 67° | 42km/h | 2109m | -1.5m/s | 5.8°C | 80.0% | 790.5hPa | 2.7V | 00:00:00 | 00:00:00 | 00:00:00 | |
| KRY50SP-1 | 2026-08-31 07:46:10 | 53.20941 | 16.87710 | 60° | 40km/h | 2118m | -1.1m/s | 5.7°C | 80.3% | 789.6hPa | 2.7V | 00:00:00 | 00:00:00 | 00:00:00 | |
| SP3WXH-11 | 2026-08-31 07:46:08 | 53.20926 | 16.87668 | 57° | 38km/h | 2121m | -1.1m/s | 5.7°C | 80.7% | 789.4hPa | 2.7V | 00:00:00 | 00:00:00 | 00:00:00 | |
| KRY50SP-1 | 2026-08-31 07:46:04 | 53.20909 | 16.87628 | 55° | 38km/h | 2126m | -1.2m/s | 5.6°C | 81.2% | 788.9hPa | 2.7V | 00:00:00 | 00:00:00 | 00:00:00 | |
| SP3BTT-10 | 2026-08-31 07:45:58 | 53.20864 | 16.87534 | 52° | 46km/h | 2135m | -1.2m/s | 5.5°C | 84.2% | 787.8hPa | 2.7V | 00:00:00 | 00:00:00 | 00:00:00 | |
| KRY50SP-1 | 2026-08-31 07:45:53 | 53.20838 | 16.87474 | 54° | 46km/h | 2140m | -1.2m/s | 5.5°C | 81.8% | 787.5hPa | 2.7V | 00:00:00 | 00:00:00 | 00:00:00 | |
| KRY50SP-1 | 2026-08-31 07:45:47 | 53.20798 | 16.87376 | 58° | 47km/h | 2148m | -1.3m/s | 5.4°C | 82.2% | 786.7hPa | 2.7V | 00:00:00 | 00:00:00 | 00:00:00 | |
| KRY50SP-1 | 2026-08-31 07:45:42 | 53.20763 | 16.87297 | 54° | 46km/h | 2154m | -1.4m/s | 5.4°C | 83.9% | 786.2hPa | 2.7V | 00:00:00 | 00:00:00 | 00:00:00 | |
| SP3BTT-10 | 2026-08-31 07:45:38 | 53.20726 | 16.87223 | 51° | 40km/h | 2162m | -0.9m/s | 5.3°C | 87.7% | 785.4hPa | 2.7V | 00:00:00 | 00:00:00 | 00:00:00 | |
| SP3WXH-11 | 2026-08-31 07:45:37 | 53.20719 | 16.87208 | 50° | 44km/h | 2163m | -1.3m/s | 5.3°C | 85.0% | 785.2hPa | 2.7V | 00:00:00 | 00:00:00 | 00:00:00 | |
| KRY50SP-1 | 2026-08-31 07:45:36 | 53.20719 | 16.87208 | 51° | 46km/h | 2163m | -1.3m/s | 5.3°C | 85.1% | 785.2hPa | 2.7V | 00:00:00 | 00:00:00 | 00:00:00 | |
| KRY50SP-1 | 2026-08-31 07:45:30 | 53.20676 | 16.87125 | 50° | 42km/h | 2171m | -1.4m/s | 5.2°C | 85.3% | 784.4hPa | 2.7V | 00:00:00 | 00:00:00 | 00:00:00 | |
| KRY50SP-1 | 2026-08-31 07:45:25 | 53.20643 | 16.87060 | 52° | 38km/h | 2178m | -1.6m/s | 5.2°C | 85.9% | 783.8hPa | 2.7V | 00:00:00 | 00:00:00 | 00:00:00 | |
| KRY50SP-1 | 2026-08-31 07:45:19 | 53.20607 | 16.86982 | 56° | 38km/h | 2186m | -1.1m/s | 5.1°C | 86.2% | 783.0hPa | 2.7V | 00:00:00 | 00:00:00 | 00:00:00 | |
| SP3BTT-10 | 2026-08-31 07:45:18 | 53.20595 | 16.86956 | 54° | 44km/h | 2189m | -1.4m/s | 5.0°C | 89.2% | 782.8hPa | 2.7V | 00:00:00 | 00:00:00 | 08:30:00 | |
| SP3WXH-11 | 2026-08-31 07:45:06 | 53.20512 | 16.86797 | 51° | 46km/h | 2205m | -1.2m/s | 4.9°C | 87.0% | 781.2hPa | 2.7V | 00:00:00 | 00:00:00 | 00:00:00 | |
| SP3BTT-10 | 2026-08-31 07:44:58 | 53.20460 | 16.86666 | 62° | 42km/h | 2216m | -1.3m/s | 4.8°C | 90.4% | 780.1hPa | 2.7V | 00:00:00 | 00:00:00 | 00:00:00 | |
| SP3BTT-10 | 2026-08-31 07:44:38 | 53.20322 | 16.86395 | 45° | 46km/h | 2243m | -1.4m/s | 4.5°C | 92.1% | 777.4hPa | 2.7V | 00:00:00 | 00:00:00 | 00:00:00 | |
| SP3WXH-11 | 2026-08-31 07:44:35 | 53.20297 | 16.86355 | 44° | 46km/h | 2248m | -1.4m/s | 4.5°C | 89.5% | 777.3hPa | 2.7V | 00:00:00 | 00:00:00 | 00:00:00 | |
| KRY50SP-1 | 2026-08-31 07:44:34 | 53.20297 | 16.86355 | 46° | 46km/h | 2248m | -1.4m/s | 4.5°C | 89.6% | 777.3hPa | 2.7V | 00:00:00 | 00:00:00 | 00:00:00 | |
| KRY50SP-1 | 2026-08-31 07:44:27 | 53.20229 | 16.86247 | 45° | 46km/h | 2259m | -1.6m/s | 4.4°C | 90.0% | 776.1hPa | 2.7V | 00:00:00 | 00:00:00 | 00:00:00 | |
| SP3BTT-10 | 2026-08-31 07:44:18 | 53.20152 | 16.86122 | 44° | 49km/h | 2271m | -1.4m/s | 4.3°C | 93.4% | 774.9hPa | 2.7V | 00:00:00 | 00:00:00 | 00:00:00 | |
| SP3WXH-11 | 2026-08-31 07:44:04 | 53.20025 | 16.85924 | 42° | 47km/h | 2290m | -1.3m/s | 4.2°C | 90.9% | 773.1hPa | 2.7V | 00:00:00 | 00:00:00 | 00:00:00 | |
| SP3BTT-10 | 2026-08-31 07:43:58 | 53.19971 | 16.85846 | 42° | 44km/h | 2298m | -1.1m/s | 4.0°C | 94.7% | 772.4hPa | 2.7V | 00:00:00 | 00:00:00 | 00:00:00 | |
| KRY50SP-1 | 2026-08-31 07:43:43 | 53.19864 | 16.85664 | 52° | 46km/h | 2316m | -1.2m/s | 4.0°C | 92.3% | 770.8hPa | 2.7V | 00:00:00 | 00:00:00 | 00:00:00 | |
| SP3BTT-10 | 2026-08-31 07:43:38 | 53.19819 | 16.85572 | 53° | 51km/h | 2324m | -1.3m/s | 3.9°C | 95.3% | 770.0hPa | 2.7V | 00:00:00 | 00:00:00 | 00:00:00 | |
| SP3WXH-11 | 2026-08-31 07:43:33 | 53.19779 | 16.85491 | 49° | 51km/h | 2330m | -1.1m/s | 3.9°C | 92.0% | 769.5hPa | 2.7V | 00:00:00 | 00:00:00 | 00:00:00 | |
| KRY50SP-1 | 2026-08-31 07:43:32 | 53.19779 | 16.85490 | 51° | 51km/h | 2330m | -1.1m/s | 3.9°C | 92.1% | 769.5hPa | 2.7V | 00:00:00 | 00:00:00 | 00:00:00 | |
| KRY50SP-1 | 2026-08-31 07:43:27 | 53.19734 | 16.85410 | 46° | 51km/h | 2336m | -1.5m/s | 3.9°C | 92.1% | 768.9hPa | 2.7V | 00:00:00 | 00:00:00 | 00:00:00 | |
| KRY50SP-1 | 2026-08-31 07:43:21 | 53.19676 | 16.85324 | 41° | 49km/h | 2344m | -1.1m/s | 3.8°C | 92.5% | 768.1hPa | 2.7V | 00:00:00 | 00:00:00 | 00:00:00 | |
| SP3BTT-10 | 2026-08-31 07:43:18 | 53.19637 | 16.85272 | 39° | 47km/h | 2348m | -1.0m/s | 3.7°C | 95.9% | 767.6hPa | 2.7V | 00:00:00 | 00:00:00 | 00:00:00 | |
| KRY50SP-1 | 2026-08-31 07:43:16 | 53.19628 | 16.85260 | 40° | 47km/h | 2350m | -1.0m/s | 3.8°C | 92.7% | 767.5hPa | 2.7V | 00:00:00 | 00:00:00 | 00:00:00 | |
| KRY50SP-1 | 2026-08-31 07:43:10 | 53.19572 | 16.85184 | 40° | 47km/h | 2356m | -1.1m/s | 3.7°C | 92.5% | 766.7hPa | 2.7V | 00:00:00 | 00:00:00 | 00:00:00 | |
| KRY50SP-1 | 2026-08-31 07:43:05 | 53.19526 | 16.85123 | 39° | 47km/h | 2363m | -1.3m/s | 3.7°C | 92.4% | 766.3hPa | 2.7V | 00:00:00 | 00:00:00 | 00:00:00 | |
| KRY50SP-1 | 2026-08-31 07:43:00 | 53.19481 | 16.85062 | 41° | 46km/h | 2369m | -1.2m/s | 3.7°C | 92.4% | 765.9hPa | 2.7V | 00:00:00 | 00:00:00 | 00:00:00 | |
| SP3BTT-10 | 2026-08-31 07:42:58 | 53.19454 | 16.85025 | 40° | 44km/h | 2372m | -1.1m/s | 3.6°C | 95.4% | 765.4hPa | 2.7V | 00:00:00 | 00:00:00 | 00:00:00 | |
| KRY50SP-1 | 2026-08-31 07:42:55 | 53.19436 | 16.85000 | 41° | 46km/h | 2375m | -1.3m/s | 3.6°C | 92.4% | 765.1hPa | 2.7V | 00:00:00 | 00:00:00 | 00:00:00 | |
| KRY50SP-1 | 2026-08-31 07:42:49 | 53.19386 | 16.84926 | 44° | 44km/h | 2382m | -1.1m/s | 3.6°C | 92.5% | 764.5hPa | 2.7V | 00:00:00 | 00:00:00 | 00:00:00 | |
| KRY50SP-1 | 2026-08-31 07:42:43 | 53.19337 | 16.84850 | 44° | 44km/h | 2389m | -1.0m/s | 3.5°C | 92.7% | 763.8hPa | 2.7V | 00:00:00 | 00:00:00 | 00:00:00 | |
| SP3BTT-10 | 2026-08-31 07:42:38 | 53.19288 | 16.84773 | 47° | 47km/h | 2396m | -1.3m/s | 3.4°C | 95.8% | 763.1hPa | 2.7V | 00:00:00 | 00:00:00 | 00:00:00 | |
| KRY50SP-1 | 2026-08-31 07:42:32 | 53.19250 | 16.84708 | 44° | 42km/h | 2402m | -0.9m/s | 3.4°C | 92.6% | 762.5hPa | 2.7V | 00:00:00 | 00:00:00 | 00:00:00 | |
| SP3WXH-11 | 2026-08-31 07:42:31 | 53.19233 | 16.84685 | 39° | 44km/h | 2405m | -1.3m/s | 3.4°C | 92.7% | 762.4hPa | 2.7V | 00:00:00 | 00:00:00 | 00:00:00 | |
| KRY50SP-1 | 2026-08-31 07:42:26 | 53.19195 | 16.84637 | 39° | 49km/h | 2409m | -1.0m/s | 3.3°C | 93.0% | 761.9hPa | 2.7V | 00:00:00 | 00:00:00 | 00:00:00 | |
| KRY50SP-1 | 2026-08-31 07:42:20 | 53.19136 | 16.84550 | 46° | 51km/h | 2416m | -1.0m/s | 3.3°C | 93.7% | 761.3hPa | 2.7V | 00:00:00 | 00:00:00 | 00:00:00 | |
| SP3BTT-10 | 2026-08-31 07:42:18 | 53.19109 | 16.84503 | 48° | 46km/h | 2420m | -1.0m/s | 3.2°C | 97.0% | 760.9hPa | 2.7V | 00:00:00 | 00:00:00 | 08:30:00 | |
| KRY50SP-1 | 2026-08-31 07:42:15 | 53.19092 | 16.84471 | 49° | 51km/h | 2422m | -1.3m/s | 3.2°C | 93.8% | 760.7hPa | 2.7V | 00:00:00 | 00:00:00 | 00:00:00 | |
| KRY50SP-1 | 2026-08-31 07:42:09 | 53.19043 | 16.84381 | 47° | 47km/h | 2430m | -1.3m/s | 3.1°C | 94.1% | 760.1hPa | 2.7V | 00:00:00 | 00:00:00 | 00:00:00 | |
| KRY50SP-1 | 2026-08-31 07:42:03 | 53.18995 | 16.84303 | 41° | 44km/h | 2437m | -1.1m/s | 3.1°C | 94.3% | 759.4hPa | 2.7V | 00:00:00 | 00:00:00 | 00:00:00 | |
| SP3WXH-11 | 2026-08-31 07:42:00 | 53.18960 | 16.84257 | 36° | 46km/h | 2442m | -1.4m/s | 3.0°C | 94.4% | 758.8hPa | 2.7V | 00:00:00 | 00:00:00 | 00:00:00 | |
| SP3BTT-10 | 2026-08-31 07:41:58 | 53.18940 | 16.84250 | 38° | 49km/h | 2445m | -1.2m/s | 3.0°C | 98.1% | 758.5hPa | 2.7V | 00:00:00 | 00:00:00 | 00:00:00 | |
| KRY50SP-1 | 2026-08-31 07:41:52 | 53.18890 | 16.84166 | 45° | 53km/h | 2451m | -1.0m/s | 3.0°C | 95.1% | 758.2hPa | 2.7V | 00:00:00 | 00:00:00 | 00:00:00 | |
| KRY50SP-1 | 2026-08-31 07:41:47 | 53.18845 | 16.84086 | 49° | 49km/h | 2457m | -1.1m/s | 2.9°C | 94.9% | 757.6hPa | 2.7V | 00:00:00 | 00:00:00 | 00:00:00 | |
| KRY50SP-1 | 2026-08-31 07:41:41 | 53.18801 | 16.83994 | 54° | 46km/h | 2464m | -0.7m/s | 2.8°C | 94.9% | 756.9hPa | 2.7V | 00:00:00 | 00:00:00 | 00:00:00 | |
| SP3BTT-10 | 2026-08-31 07:41:38 | 53.18772 | 16.83932 | 53° | 49km/h | 2468m | -1.0m/s | 2.8°C | 98.4% | 756.5hPa | 2.7V | 00:00:00 | 00:00:00 | 00:00:00 | |
| KRY50SP-1 | 2026-08-31 07:41:36 | 53.18765 | 16.83916 | 53° | 49km/h | 2469m | -1.0m/s | 2.8°C | 95.0% | 756.4hPa | 2.7V | 00:00:00 | 00:00:00 | 00:00:00 | |
| KRY50SP-1 | 2026-08-31 07:41:31 | 53.18728 | 16.83833 | 56° | 49km/h | 2475m | -1.5m/s | 2.7°C | 95.5% | 755.7hPa | 2.7V | 00:00:00 | 00:00:00 | 00:00:00 | |
| SP3WXH-11 | 2026-08-31 07:41:29 | 53.18706 | 16.83784 | 51° | 49km/h | 2480m | -1.2m/s | 2.7°C | 95.4% | 755.3hPa | 2.7V | 00:00:00 | 00:00:00 | 00:00:00 | |
| KRY50SP-1 | 2026-08-31 07:41:26 | 53.18691 | 16.83751 | 56° | 49km/h | 2483m | -1.9m/s | 2.7°C | 95.7% | 755.0hPa | 2.7V | 00:00:00 | 00:00:00 | 00:00:00 | |
| KRY50SP-1 | 2026-08-31 07:41:20 | 53.18647 | 16.83649 | 57° | 47km/h | 2491m | -1.7m/s | 2.6°C | 95.8% | 754.2hPa | 2.7V | 00:00:00 | 00:00:00 | 00:00:00 | |
| SP3BTT-10 | 2026-08-31 07:41:18 | 53.18625 | 16.83598 | 54° | 47km/h | 2496m | -1.6m/s | 2.5°C | 99.4% | 753.9hPa | 2.7V | 00:00:00 | 00:00:00 | 00:00:00 | |
| KRY50SP-1 | 2026-08-31 07:41:14 | 53.18603 | 16.83548 | 54° | 49km/h | 2501m | -1.1m/s | 2.5°C | 95.7% | 753.3hPa | 2.7V | 00:00:00 | 00:00:00 | 00:00:00 | |
| KRY50SP-1 | 2026-08-31 07:41:08 | 53.18560 | 16.83446 | 55° | 51km/h | 2509m | -1.0m/s | 2.5°C | 95.5% | 752.7hPa | 2.7V | 00:00:00 | 00:00:00 | 00:00:00 | |
| KRY50SP-1 | 2026-08-31 07:41:04 | 53.18526 | 16.83363 | 59° | 47km/h | 2516m | -1.2m/s | 2.5°C | 94.5% | 752.1hPa | 2.7V | 00:00:00 | 00:00:00 | 00:00:00 | |
| SP3BTT-10 | 2026-08-31 07:40:58 | 53.18487 | 16.83265 | 60° | 44km/h | 2523m | -1.5m/s | 2.6°C | 89.4% | 751.2hPa | 2.7V | 00:00:00 | 00:00:00 | 00:00:00 | |
| KRY50SP-1 | 2026-08-31 07:40:52 | 53.18456 | 16.83181 | 59° | 44km/h | 2530m | -1.2m/s | 2.6°C | 85.2% | 750.6hPa | 2.7V | 00:00:00 | 00:00:00 | 00:00:00 | |
| KRY50SP-1 | 2026-08-31 07:40:46 | 53.18423 | 16.83084 | 61° | 42km/h | 2538m | -1.6m/s | 2.8°C | 76.8% | 750.0hPa | 2.7V | 00:00:00 | 00:00:00 | 00:00:00 | |
| KRY50SP-1 | 2026-08-31 07:40:42 | 53.18396 | 16.83004 | 62° | 44km/h | 2545m | -1.3m/s | 2.8°C | 72.5% | 749.3hPa | 2.7V | 00:00:00 | 00:00:00 | 00:00:00 | |
| SP3BTT-10 | 2026-08-31 07:40:38 | 53.18375 | 16.82940 | 64° | 40km/h | 2551m | -1.6m/s | 2.7°C | 75.9% | 748.7hPa | 2.7V | 00:00:00 | 00:00:00 | 00:00:00 | |
| KRY50SP-1 | 2026-08-31 07:40:35 | 53.18365 | 16.82909 | 60° | 42km/h | 2555m | -1.4m/s | 2.7°C | 72.2% | 748.4hPa | 2.7V | 00:00:00 | 00:00:00 | 00:00:00 | |
| KRY50SP-1 | 2026-08-31 07:40:30 | 53.18341 | 16.82836 | 62° | 40km/h | 2562m | -1.2m/s | 2.7°C | 70.4% | 747.7hPa | 2.7V | 00:00:00 | 00:00:00 | 00:00:00 | |
| SP3WXH-11 | 2026-08-31 07:40:27 | 53.18322 | 16.82779 | 58° | 38km/h | 2568m | -1.5m/s | 2.7°C | 68.9% | 747.2hPa | 2.7V | 00:00:00 | 00:00:00 | 00:00:00 | |
| KRY50SP-1 | 2026-08-31 07:40:25 | 53.18317 | 16.82764 | 64° | 38km/h | 2569m | -1.9m/s | 2.7°C | 68.1% | 747.0hPa | 2.7V | 00:00:00 | 00:00:00 | 00:00:00 | |
| KRY50SP-1 | 2026-08-31 07:40:19 | 53.18290 | 16.82678 | 68° | 38km/h | 2579m | -1.5m/s | 2.7°C | 67.0% | 746.3hPa | 2.7V | 00:00:00 | 00:00:00 | 00:00:00 | |
| SP3BTT-10 | 2026-08-31 07:40:18 | 53.18282 | 16.82647 | 67° | 44km/h | 2582m | -1.1m/s | 2.7°C | 66.4% | 745.8hPa | 2.7V | 00:00:00 | 00:00:00 | 00:00:00 | |
| KRY50SP-1 | 2026-08-31 07:40:14 | 53.18269 | 16.82601 | 65° | 44km/h | 2587m | -1.2m/s | 2.8°C | 61.7% | 745.5hPa | 2.7V | 00:00:00 | 00:00:00 | 00:00:00 | |
| KRY50SP-1 | 2026-08-31 07:40:08 | 53.18242 | 16.82501 | 68° | 46km/h | 2595m | -0.9m/s | 2.8°C | 58.9% | 744.9hPa | 2.7V | 00:00:00 | 00:00:00 | 00:00:00 | |
| KRY50SP-1 | 2026-08-31 07:40:02 | 53.18215 | 16.82395 | 69° | 44km/h | 2601m | -1.3m/s | 2.7°C | 57.8% | 744.0hPa | 2.7V | 00:00:00 | 00:00:00 | 00:00:00 | |
| SP3WXH-11 | 2026-08-31 07:39:56 | 53.18184 | 16.82273 | 66° | 40km/h | 2610m | -1.0m/s | 2.7°C | 55.5% | 743.2hPa | 2.7V | 00:00:00 | 00:00:00 | 00:00:00 | |
| KRY50SP-1 | 2026-08-31 07:39:52 | 53.18171 | 16.82227 | 63° | 40km/h | 2613m | -1.2m/s | 2.8°C | 53.3% | 743.0hPa | 2.7V | 00:00:00 | 00:00:00 | 00:00:00 | |
| KRY50SP-1 | 2026-08-31 07:39:46 | 53.18141 | 16.82141 | 60° | 38km/h | 2621m | -1.2m/s | 2.8°C | 49.8% | 742.3hPa | 2.7V | 00:00:00 | 00:00:00 | 00:00:00 | |
| SP3BTT-10 | 2026-08-31 07:39:38 | 53.18099 | 16.82014 | 62° | 38km/h | 2632m | -1.2m/s | 3.0°C | 42.9% | 741.2hPa | 2.7V | 00:00:00 | 00:00:00 | 00:00:00 | |
| KRY50SP-1 | 2026-08-31 07:39:35 | 53.18090 | 16.81985 | 61° | 38km/h | 2634m | -1.2m/s | 3.0°C | 39.6% | 741.0hPa | 2.7V | 00:00:00 | 00:00:00 | 00:00:00 | |
| KRY50SP-1 | 2026-08-31 07:39:29 | 53.18062 | 16.81898 | 63° | 40km/h | 2641m | -1.0m/s | 3.1°C | 36.5% | 740.4hPa | 2.7V | 00:00:00 | 00:00:00 | 00:00:00 | |
| SP3WXH-11 | 2026-08-31 07:39:25 | 53.18039 | 16.81825 | 62° | 40km/h | 2647m | -1.0m/s | 3.1°C | 35.8% | 739.9hPa | 2.7V | 00:00:00 | 00:00:00 | 00:00:00 | |
| KRY50SP-1 | 2026-08-31 07:39:24 | 53.18039 | 16.81825 | 64° | 40km/h | 2647m | -1.0m/s | 3.1°C | 35.8% | 739.9hPa | 2.7V | 00:00:00 | 00:00:00 | 00:00:00 | |
| SP3BTT-10 | 2026-08-31 07:39:18 | 53.18009 | 16.81721 | 65° | 38km/h | 2656m | -1.0m/s | 3.0°C | 36.5% | 739.1hPa | 2.7V | 00:00:00 | 00:00:00 | 08:30:00 | |
| KRY50SP-1 | 2026-08-31 07:39:13 | 53.17993 | 16.81659 | 70° | 38km/h | 2661m | -1.3m/s | 3.1°C | 35.5% | 738.7hPa | 2.7V | 00:00:00 | 00:00:00 | 00:00:00 | |
| KRY50SP-1 | 2026-08-31 07:39:08 | 53.17975 | 16.81584 | 68° | 38km/h | 2666m | -0.8m/s | 3.1°C | 35.0% | 738.2hPa | 2.7V | 00:00:00 | 00:00:00 | 00:00:00 | |
| KRY50SP-1 | 2026-08-31 07:39:02 | 53.17951 | 16.81494 | 66° | 40km/h | 2673m | -1.1m/s | 3.1°C | 35.3% | 737.6hPa | 2.7V | 00:00:00 | 00:00:00 | 00:00:00 | |
| SP3WXH-11 | 2026-08-31 07:38:54 | 53.17916 | 16.81360 | 67° | 37km/h | 2683m | -1.4m/s | 3.1°C | 34.8% | 736.6hPa | 2.7V | 00:00:00 | 00:00:00 | 00:00:00 | |
| KRY50SP-1 | 2026-08-31 07:38:51 | 53.17908 | 16.81330 | 66° | 40km/h | 2685m | -1.2m/s | 3.1°C | 34.1% | 736.5hPa | 2.7V | 00:00:00 | 00:00:00 | 00:00:00 | |
| KRY50SP-1 | 2026-08-31 07:38:46 | 53.17890 | 16.81254 | 72° | 38km/h | 2691m | -1.4m/s | 3.2°C | 33.4% | 735.8hPa | 2.7V | 00:00:00 | 00:00:00 | 00:00:00 | |
| KRY50SP-1 | 2026-08-31 07:38:40 | 53.17869 | 16.81164 | 66° | 38km/h | 2698m | -1.2m/s | 3.1°C | 33.5% | 735.2hPa | 2.7V | 00:00:00 | 00:00:00 | 00:00:00 | |
| SP3BTT-10 | 2026-08-31 07:38:38 | 53.17857 | 16.81121 | 63° | 44km/h | 2702m | -1.4m/s | 3.1°C | 34.6% | 734.9hPa | 2.7V | 00:00:00 | 00:00:00 | 00:00:00 | |
| KRY50SP-1 | 2026-08-31 07:38:34 | 53.17842 | 16.81076 | 62° | 44km/h | 2706m | -1.2m/s | 3.1°C | 32.7% | 734.6hPa | 2.7V | 00:00:00 | 00:00:00 | 00:00:00 | |
| SP3WXH-11 | 2026-08-31 07:38:23 | 53.17791 | 16.80859 | 72° | 42km/h | 2721m | -1.2m/s | 3.1°C | 31.4% | 733.1hPa | 2.7V | 00:00:00 | 00:00:00 | 00:00:00 | |
| SP3BTT-10 | 2026-08-31 07:38:18 | 53.17773 | 16.80782 | 65° | 46km/h | 2727m | -1.5m/s | 3.0°C | 32.2% | 732.5hPa | 2.7V | 00:00:00 | 00:00:00 | 00:00:00 | |
| KRY50SP-1 | 2026-08-31 07:38:17 | 53.17773 | 16.80782 | 66° | 38km/h | 2727m | -1.5m/s | 3.1°C | 31.1% | 732.6hPa | 2.7V | 00:00:00 | 00:00:00 | 00:00:00 | |
| KRY50SP-1 | 2026-08-31 07:38:05 | 53.17710 | 16.80583 | 67° | 47km/h | 2744m | -1.2m/s | 3.1°C | 30.0% | 731.0hPa | 2.7V | 00:00:00 | 00:00:00 | 00:00:00 | |
| SP3WXH-11 | 2026-08-31 07:37:52 | 53.17636 | 16.80331 | 60° | 46km/h | 2763m | -1.3m/s | 3.0°C | 30.0% | 729.3hPa | 2.7V | 00:00:00 | 00:00:00 | 00:00:00 | |
| KRY50SP-1 | 2026-08-31 07:37:48 | 53.17619 | 16.80277 | 66° | 49km/h | 2768m | -1.4m/s | 3.0°C | 30.5% | 728.9hPa | 2.7V | 00:00:00 | 00:00:00 | 00:00:00 | |
| KRY50SP-1 | 2026-08-31 07:37:42 | 53.17588 | 16.80167 | 67° | 49km/h | 2776m | -1.7m/s | 3.0°C | 30.9% | 728.1hPa | 2.7V | 00:00:00 | 00:00:00 | 00:00:00 | |
| SP3BTT-10 | 2026-08-31 07:37:38 | 53.17561 | 16.80076 | 64° | 47km/h | 2783m | -1.5m/s | 2.9°C | 31.8% | 727.5hPa | 2.7V | 00:00:00 | 00:00:00 | 00:00:00 | |
| KRY50SP-1 | 2026-08-31 07:37:36 | 53.17555 | 16.80058 | 62° | 47km/h | 2785m | -1.2m/s | 2.9°C | 30.8% | 727.4hPa | 2.7V | 00:00:00 | 00:00:00 | 00:00:00 | |
| KRY50SP-1 | 2026-08-31 07:37:30 | 53.17521 | 16.79953 | 63° | 47km/h | 2793m | -1.5m/s | 2.9°C | 30.9% | 726.5hPa | 2.7V | 00:00:00 | 00:00:00 | 00:00:00 | |
| KRY50SP-1 | 2026-08-31 07:37:24 | 53.17486 | 16.79849 | 61° | 47km/h | 2802m | -1.5m/s | 2.8°C | 31.1% | 725.9hPa | 2.7V | 00:00:00 | 00:00:00 | 00:00:00 | |
| SP3WXH-11 | 2026-08-31 07:37:21 | 53.17461 | 16.79781 | 59° | 46km/h | 2808m | -1.5m/s | 2.8°C | 31.0% | 725.3hPa | 2.7V | 00:00:00 | 00:00:00 | 00:00:00 | |
| SP3BTT-10 | 2026-08-31 07:37:18 | 53.17443 | 16.79731 | 60° | 44km/h | 2812m | -1.4m/s | 2.7°C | 32.1% | 725.0hPa | 2.7V | 00:00:00 | 00:00:00 | 00:00:00 | |
| KRY50SP-1 | 2026-08-31 07:37:13 | 53.17419 | 16.79666 | 60° | 46km/h | 2818m | -1.3m/s | 2.8°C | 30.4% | 724.4hPa | 2.7V | 00:00:00 | 00:00:00 | 00:00:00 | |
| KRY50SP-1 | 2026-08-31 07:37:07 | 53.17385 | 16.79570 | 60° | 44km/h | 2826m | -1.3m/s | 2.8°C | 30.2% | 723.7hPa | 2.7V | 00:00:00 | 00:00:00 | 00:00:00 | |
| SP3WXH-11 | 2026-08-31 07:36:50 | 53.17281 | 16.79281 | 56° | 44km/h | 2851m | -1.4m/s | 2.7°C | 30.3% | 721.3hPa | 2.7V | 00:00:00 | 00:00:00 | 00:00:00 | |
| KRY50SP-1 | 2026-08-31 07:36:49 | 53.17281 | 16.79281 | 58° | 46km/h | 2851m | -1.4m/s | 2.7°C | 30.3% | 721.3hPa | 2.7V | 00:00:00 | 00:00:00 | 00:00:00 | |
| KRY50SP-1 | 2026-08-31 07:36:44 | 53.17253 | 16.79206 | 62° | 40km/h | 2858m | -1.4m/s | 2.7°C | 30.3% | 720.8hPa | 2.7V | 00:00:00 | 00:00:00 | 00:00:00 | |
| SP3BTT-10 | 2026-08-31 07:36:38 | 53.17219 | 16.79103 | 61° | 46km/h | 2868m | -1.3m/s | 2.6°C | 31.3% | 719.9hPa | 2.7V | 00:00:00 | 00:00:00 | 00:00:00 | |
| KRY50SP-1 | 2026-08-31 07:36:33 | 53.17197 | 16.79040 | 61° | 44km/h | 2874m | -1.5m/s | 2.6°C | 30.2% | 719.3hPa | 2.7V | 00:00:00 | 00:00:00 | 00:00:00 | |
| KRY50SP-1 | 2026-08-31 07:36:27 | 53.17162 | 16.78941 | 59° | 47km/h | 2884m | -1.4m/s | 2.6°C | 30.6% | 718.5hPa | 2.7V | 00:00:00 | 00:00:00 | 00:00:00 | |
| KRY50SP-1 | 2026-08-31 07:36:22 | 53.17132 | 16.78858 | 60° | 47km/h | 2891m | -1.2m/s | 2.5°C | 30.8% | 717.9hPa | 2.7V | 00:00:00 | 00:00:00 | 00:00:00 | |
| SP3WXH-11 | 2026-08-31 07:36:19 | 53.17107 | 16.78792 | 58° | 46km/h | 2897m | -1.5m/s | 2.5°C | 30.3% | 717.4hPa | 2.7V | 00:00:00 | 00:00:00 | 00:00:00 | |
| SP3BTT-10 | 2026-08-31 07:36:18 | 53.17100 | 16.78775 | 59° | 42km/h | 2899m | -1.4m/s | 2.4°C | 31.1% | 717.2hPa | 2.7V | 00:00:00 | 00:00:00 | 08:30:00 | |
| KRY50SP-1 | 2026-08-31 07:36:17 | 53.17101 | 16.78775 | 60° | 47km/h | 2899m | -1.4m/s | 2.5°C | 30.0% | 717.2hPa | 2.7V | 00:00:00 | 00:00:00 | 00:00:00 | |
| KRY50SP-1 | 2026-08-31 07:36:11 | 53.17063 | 16.78679 | 56° | 44km/h | 2907m | -1.3m/s | 2.5°C | 30.0% | 716.4hPa | 2.7V | 00:00:00 | 00:00:00 | 00:00:00 | |
| KRY50SP-1 | 2026-08-31 07:36:05 | 53.17030 | 16.78590 | 59° | 42km/h | 2915m | -1.3m/s | 2.4°C | 30.4% | 715.6hPa | 2.7V | 00:00:00 | 00:00:00 | 00:00:00 | |
| SP3WXH-11 | 2026-08-31 07:35:48 | 53.16946 | 16.78333 | 62° | 38km/h | 2941m | -1.5m/s | 2.4°C | 28.5% | 713.3hPa | 2.7V | 00:00:00 | 00:00:00 | 00:00:00 | |
| KRY50SP-1 | 2026-08-31 07:35:42 | 53.16923 | 16.78260 | 65° | 40km/h | 2949m | -1.4m/s | 2.5°C | 26.7% | 712.8hPa | 2.7V | 00:00:00 | 00:00:00 | 00:00:00 | |
| SP3BTT-10 | 2026-08-31 07:35:38 | 53.16904 | 16.78186 | 68° | 38km/h | 2956m | -1.6m/s | 2.4°C | 27.4% | 711.9hPa | 2.7V | 00:00:00 | 00:00:00 | 00:00:00 | |
| KRY50SP-1 | 2026-08-31 07:35:37 | 53.16904 | 16.78186 | 68° | 37km/h | 2956m | -1.6m/s | 2.4°C | 26.5% | 712.0hPa | 2.7V | 00:00:00 | 00:00:00 | 00:00:00 | |
| KRY50SP-1 | 2026-08-31 07:35:31 | 53.16881 | 16.78099 | 70° | 37km/h | 2965m | -1.6m/s | 2.4°C | 25.9% | 711.2hPa | 2.7V | 00:00:00 | 00:00:00 | 00:00:00 | |
| KRY50SP-1 | 2026-08-31 07:35:26 | 53.16862 | 16.78025 | 71° | 40km/h | 2972m | -1.3m/s | 2.4°C | 24.4% | 710.5hPa | 2.7V | 00:00:00 | 00:00:00 | 00:00:00 | |
| KRY50SP-1 | 2026-08-31 07:35:20 | 53.16842 | 16.77931 | 72° | 40km/h | 2981m | -1.5m/s | 2.4°C | 23.8% | 709.9hPa | 2.7V | 00:00:00 | 00:00:00 | 00:00:00 | |
| SP3BTT-10 | 2026-08-31 07:35:18 | 53.16831 | 16.77882 | 68° | 40km/h | 2985m | -1.3m/s | 2.4°C | 24.4% | 709.2hPa | 2.7V | 00:00:00 | 00:00:00 | 00:00:00 | |
| SP3WXH-11 | 2026-08-31 07:35:17 | 53.16827 | 16.77866 | 69° | 40km/h | 2986m | -1.7m/s | 2.4°C | 23.5% | 709.3hPa | 2.7V | 00:00:00 | 00:00:00 | 00:00:00 | |
| KRY50SP-1 | 2026-08-31 07:35:14 | 53.16820 | 16.77833 | 72° | 44km/h | 2990m | -1.5m/s | 2.4°C | 23.4% | 709.0hPa | 2.7V | 00:00:00 | 00:00:00 | 00:00:00 | |
| KRY50SP-1 | 2026-08-31 07:35:09 | 53.16802 | 16.77746 | 71° | 44km/h | 2996m | -1.4m/s | 2.4°C | 22.9% | 708.4hPa | 2.7V | 00:00:00 | 00:00:00 | 00:00:00 | |
| KRY50SP-1 | 2026-08-31 07:35:03 | 53.16782 | 16.77650 | 67° | 38km/h | 3005m | -1.1m/s | 2.4°C | 22.4% | 707.6hPa | 2.7V | 00:00:00 | 00:00:00 | 00:00:00 | |
| SP3WXH-11 | 2026-08-31 07:34:46 | 53.16701 | 16.77408 | 54° | 37km/h | 3030m | -1.5m/s | 2.3°C | 21.4% | 705.5hPa | 2.7V | 00:00:00 | 00:00:00 | 00:00:00 | |
| KRY50SP-1 | 2026-08-31 07:34:40 | 53.16671 | 16.77337 | 59° | 44km/h | 3037m | -1.3m/s | 2.3°C | 21.3% | 704.8hPa | 2.7V | 00:00:00 | 00:00:00 | 00:00:00 | |
| SP3BTT-10 | 2026-08-31 07:34:38 | 53.16655 | 16.77287 | 66° | 37km/h | 3041m | -1.1m/s | 2.2°C | 22.2% | 704.2hPa | 2.7V | 00:00:00 | 00:00:00 | 00:00:00 | |
| KRY50SP-1 | 2026-08-31 07:34:34 | 53.16643 | 16.77236 | 70° | 42km/h | 3045m | -1.2m/s | 2.2°C | 21.2% | 704.0hPa | 2.7V | 00:00:00 | 00:00:00 | 00:00:00 | |
| KRY50SP-1 | 2026-08-31 07:34:29 | 53.16626 | 16.77159 | 74° | 35km/h | 3052m | -1.3m/s | 2.2°C | 20.7% | 703.4hPa | 2.7V | 00:00:00 | 00:00:00 | 00:00:00 | |
| KRY50SP-1 | 2026-08-31 07:34:23 | 53.16606 | 16.77079 | 61° | 33km/h | 3060m | -1.4m/s | 2.1°C | 20.3% | 702.6hPa | 2.7V | 00:00:00 | 00:00:00 | 00:00:00 | |
| SP3BTT-10 | 2026-08-31 07:34:18 | 53.16581 | 16.77008 | 55° | 35km/h | 3069m | -1.6m/s | 2.0°C | 20.9% | 701.8hPa | 2.7V | 00:00:00 | 00:00:00 | 00:00:00 | |
| SP3WXH-11 | 2026-08-31 07:34:15 | 53.16567 | 16.76975 | 55° | 31km/h | 3073m | -1.6m/s | 2.1°C | 20.0% | 701.4hPa | 2.7V | 00:00:00 | 00:00:00 | 00:00:00 | |
| KRY50SP-1 | 2026-08-31 07:34:13 | 53.16562 | 16.76963 | 56° | 35km/h | 3075m | -1.3m/s | 2.0°C | 19.8% | 701.4hPa | 2.7V | 00:00:00 | 00:00:00 | 00:00:00 | |
| KRY50SP-1 | 2026-08-31 07:34:08 | 53.16537 | 16.76906 | 56° | 35km/h | 3082m | -1.5m/s | 2.0°C | 19.5% | 700.7hPa | 2.7V | 00:00:00 | 00:00:00 | 00:00:00 | |
| KRY50SP-1 | 2026-08-31 07:34:02 | 53.16504 | 16.76838 | 54° | 33km/h | 3092m | -1.5m/s | 2.0°C | 19.2% | 700.0hPa | 2.7V | 00:00:00 | 00:00:00 | 00:00:00 | |
| SP3BTT-10 | 2026-08-31 07:33:58 | 53.16477 | 16.76781 | 52° | 38km/h | 3098m | -1.3m/s | 1.9°C | 19.7% | 699.5hPa | 2.7V | 00:00:00 | 00:00:00 | 00:00:00 | |
| KRY50SP-1 | 2026-08-31 07:33:57 | 53.16477 | 16.76781 | 52° | 35km/h | 3098m | -1.4m/s | 2.0°C | 18.9% | 699.5hPa | 2.7V | 00:00:00 | 00:00:00 | 00:00:00 | |
| KRY50SP-1 | 2026-08-31 07:33:51 | 53.16440 | 16.76710 | 51° | 40km/h | 3106m | -1.3m/s | 1.9°C | 18.6% | 698.8hPa | 2.7V | 00:00:00 | 00:00:00 | 00:00:00 | |
| KRY50SP-1 | 2026-08-31 07:33:46 | 53.16409 | 16.76636 | 62° | 44km/h | 3112m | -1.1m/s | 1.9°C | 17.9% | 698.2hPa | 2.7V | 00:00:00 | 00:00:00 | 00:00:00 | |
| SP3WXH-11 | 2026-08-31 07:33:44 | 53.16391 | 16.76573 | 68° | 37km/h | 3117m | -1.1m/s | 1.9°C | 17.3% | 697.8hPa | 2.7V | 00:00:00 | 00:00:00 | 00:00:00 | |
| KRY50SP-1 | 2026-08-31 07:33:40 | 53.16383 | 16.76545 | 67° | 35km/h | 3120m | -1.2m/s | 1.9°C | 17.0% | 697.5hPa | 2.7V | 00:00:00 | 00:00:00 | 00:00:00 | |
| SP3BTT-10 | 2026-08-31 07:33:38 | 53.16373 | 16.76508 | 59° | 40km/h | 3124m | -1.2m/s | 1.9°C | 17.2% | 697.2hPa | 2.7V | 00:00:00 | 00:00:00 | 00:00:00 | |
| KRY50SP-1 | 2026-08-31 07:33:35 | 53.16363 | 16.76486 | 51° | 35km/h | 3126m | -1.4m/s | 2.0°C | 16.5% | 697.1hPa | 2.7V | 00:00:00 | 00:00:00 | 00:00:00 | |
| KRY50SP-1 | 2026-08-31 07:33:29 | 53.16327 | 16.76418 | 51° | 40km/h | 3134m | -1.1m/s | 2.0°C | 15.4% | 696.4hPa | 2.7V | 00:00:00 | 00:00:00 | 00:00:00 | |
| KRY50SP-1 | 2026-08-31 07:33:23 | 53.16287 | 16.76338 | 53° | 44km/h | 3141m | -1.1m/s | 2.0°C | 14.9% | 695.7hPa | 2.7V | 00:00:00 | 00:00:00 | 00:00:00 | |
| KRY50SP-1 | 2026-08-31 07:33:17 | 53.16247 | 16.76253 | 53° | 44km/h | 3148m | -1.2m/s | 1.9°C | 14.4% | 695.0hPa | 2.7V | 00:00:00 | 00:00:00 | 00:00:00 | |
| SP3WXH-11 | 2026-08-31 07:33:13 | 53.16204 | 16.76168 | 48° | 44km/h | 3156m | -1.4m/s | 1.9°C | 14.7% | 694.4hPa | 2.7V | 00:00:00 | 00:00:00 | 00:00:00 | |
| KRY50SP-1 | 2026-08-31 07:33:11 | 53.16204 | 16.76167 | 50° | 44km/h | 3157m | -1.4m/s | 1.9°C | 14.7% | 694.4hPa | 2.7V | 00:00:00 | 00:00:00 | 00:00:00 | |
| SP3BTT-10 | 2026-08-31 07:33:08 | 53.16175 | 16.76110 | 52° | 40km/h | 3162m | -1.2m/s | 1.8°C | 15.3% | 693.8hPa | 2.7V | 00:00:00 | 00:00:00 | 08:30:00 | |
| KRY50SP-1 | 2026-08-31 07:33:06 | 53.16168 | 16.76094 | 53° | 46km/h | 3163m | -1.3m/s | 1.8°C | 14.8% | 693.8hPa | 2.7V | 00:00:00 | 00:00:00 | 00:00:00 | |
| KRY50SP-1 | 2026-08-31 07:33:01 | 53.16136 | 16.76016 | 59° | 42km/h | 3169m | -1.3m/s | 1.8°C | 14.8% | 693.2hPa | 2.7V | 00:00:00 | 00:00:00 | 00:00:00 | |
| KRY50SP-1 | 2026-08-31 07:32:56 | 53.16109 | 16.75950 | 54° | 35km/h | 3175m | -1.5m/s | 1.7°C | 14.7% | 692.8hPa | 2.7V | 00:00:00 | 00:00:00 | 00:00:00 | |
| KRY50SP-1 | 2026-08-31 07:32:50 | 53.16076 | 16.75883 | 47° | 35km/h | 3184m | -1.2m/s | 1.7°C | 14.3% | 691.9hPa | 2.7V | 00:00:00 | 00:00:00 | 00:00:00 | |
| KRY50SP-1 | 2026-08-31 07:32:45 | 53.16043 | 16.75830 | 46° | 38km/h | 3190m | -1.4m/s | 1.7°C | 13.9% | 691.3hPa | 2.7V | 00:00:00 | 00:00:00 | 00:00:00 | |
| SP3WXH-11 | 2026-08-31 07:32:42 | 53.16006 | 16.75765 | 47° | 44km/h | 3197m | -1.2m/s | 1.6°C | 14.0% | 690.7hPa | 2.7V | 00:00:00 | 00:00:00 | 00:00:00 | |
| KRY50SP-1 | 2026-08-31 07:32:39 | 53.15998 | 16.75751 | 50° | 46km/h | 3199m | -1.4m/s | 1.7°C | 13.7% | 690.8hPa | 2.7V | 00:00:00 | 00:00:00 | 00:00:00 | |
| SP3BTT-10 | 2026-08-31 07:32:38 | 53.15984 | 16.75722 | 50° | 46km/h | 3202m | -1.3m/s | 1.6°C | 14.3% | 690.4hPa | 2.7V | 00:00:00 | 00:00:00 | 00:00:00 | |
| KRY50SP-1 | 2026-08-31 07:32:34 | 53.15962 | 16.75677 | 53° | 46km/h | 3206m | -1.4m/s | 1.6°C | 13.9% | 690.1hPa | 2.7V | 00:00:00 | 00:00:00 | 00:00:00 | |
| KRY50SP-1 | 2026-08-31 07:32:29 | 53.15927 | 16.75601 | 53° | 46km/h | 3213m | -1.7m/s | 1.6°C | 14.0% | 689.5hPa | 2.7V | 00:00:00 | 00:00:00 | 00:00:00 | |
| KRY50SP-1 | 2026-08-31 07:32:23 | 53.15882 | 16.75510 | 51° | 46km/h | 3221m | -1.5m/s | 1.6°C | 14.0% | 688.8hPa | 2.7V | 00:00:00 | 00:00:00 | 00:00:00 | |
| KRY50SP-1 | 2026-08-31 07:32:17 | 53.15835 | 16.75425 | 47° | 46km/h | 3229m | -1.4m/s | 1.6°C | 13.5% | 688.0hPa | 2.7V | 00:00:00 | 00:00:00 | 00:00:00 | |
| SP3WXH-11 | 2026-08-31 07:32:11 | 53.15773 | 16.75320 | 44° | 42km/h | 3241m | -1.3m/s | 1.6°C | 14.2% | 686.9hPa | 2.7V | 00:00:00 | 00:00:00 | 00:00:00 | |
| SP3BTT-10 | 2026-08-31 07:32:08 | 53.15758 | 16.75296 | 45° | 40km/h | 3244m | -1.1m/s | 1.5°C | 14.5% | 686.7hPa | 2.7V | 00:00:00 | 00:00:00 | 00:00:00 | |
| KRY50SP-1 | 2026-08-31 07:32:06 | 53.15751 | 16.75284 | 44° | 40km/h | 3245m | -1.4m/s | 1.6°C | 13.9% | 686.7hPa | 2.7V | 00:00:00 | 00:00:00 | 00:00:00 | |
| KRY50SP-1 | 2026-08-31 07:32:00 | 53.15702 | 16.75212 | 46° | 44km/h | 3254m | -1.7m/s | 1.6°C | 14.6% | 685.8hPa | 2.7V | 00:00:00 | 00:00:00 | 00:00:00 | |
| KRY50SP-1 | 2026-08-31 07:31:54 | 53.15659 | 16.75124 | 59° | 44km/h | 3263m | -1.5m/s | 1.6°C | 15.5% | 685.1hPa | 2.7V | 00:00:00 | 00:00:00 | 00:00:00 | |
| KRY50SP-1 | 2026-08-31 07:31:48 | 53.15628 | 16.75036 | 58° | 38km/h | 3272m | -1.3m/s | 1.5°C | 15.8% | 684.4hPa | 2.7V | 00:00:00 | 00:00:00 | 00:00:00 | |
| KRY50SP-1 | 2026-08-31 07:31:42 | 53.15592 | 16.74968 | 45° | 38km/h | 3281m | -1.2m/s | 1.5°C | 15.9% | 683.6hPa | 2.7V | 00:00:00 | 00:00:00 | 00:00:00 | |
| SP3WXH-11 | 2026-08-31 07:31:40 | 53.15561 | 16.74925 | 38° | 42km/h | 3287m | -1.4m/s | 1.6°C | 15.0% | 683.2hPa | 2.7V | 00:00:00 | 00:00:00 | 00:00:00 | |
| SP3BTT-10 | 2026-08-31 07:31:38 | 53.15553 | 16.74913 | 42° | 46km/h | 3288m | -1.2m/s | 1.5°C | 15.6% | 683.0hPa | 2.7V | 00:00:00 | 00:00:00 | 00:00:00 | |
| KRY50SP-1 | 2026-08-31 07:31:37 | 53.15553 | 16.74913 | 42° | 44km/h | 3288m | -1.2m/s | 1.6°C | 15.0% | 683.0hPa | 2.7V | 00:00:00 | 00:00:00 | 00:00:00 | |
| KRY50SP-1 | 2026-08-31 07:31:31 | 53.15501 | 16.74841 | 41° | 46km/h | 3297m | -1.4m/s | 1.6°C | 13.7% | 682.2hPa | 2.7V | 00:00:00 | 00:00:00 | 00:00:00 | |
| KRY50SP-1 | 2026-08-31 07:31:26 | 53.15458 | 16.74779 | 39° | 46km/h | 3305m | -1.4m/s | 1.6°C | 13.0% | 681.7hPa | 2.7V | 00:00:00 | 00:00:00 | 00:00:00 | |
| KRY50SP-1 | 2026-08-31 07:31:21 | 53.15414 | 16.74717 | 42° | 44km/h | 3312m | -1.5m/s | 1.6°C | 12.4% | 681.1hPa | 2.7V | 00:00:00 | 00:00:00 | 00:00:00 | |
| KRY50SP-1 | 2026-08-31 07:31:16 | 53.15370 | 16.74650 | 46° | 49km/h | 3319m | -1.4m/s | 1.6°C | 12.0% | 680.5hPa | 2.7V | 00:00:00 | 00:00:00 | 00:00:00 | |
| KRY50SP-1 | 2026-08-31 07:31:11 | 53.15331 | 16.74575 | 52° | 44km/h | 3325m | -1.3m/s | 1.6°C | 11.5% | 679.9hPa | 2.7V | 00:00:00 | 00:00:00 | 00:00:00 | |
| SP3WXH-11 | 2026-08-31 07:31:09 | 53.15305 | 16.74524 | 46° | 37km/h | 3330m | -1.5m/s | 1.6°C | 11.5% | 679.4hPa | 2.7V | 00:00:00 | 00:00:00 | 00:00:00 | |
| SP3BTT-10 | 2026-08-31 07:31:08 | 53.15305 | 16.74524 | 47° | 44km/h | 3330m | -1.4m/s | 1.6°C | 11.9% | 679.3hPa | 2.7V | 00:00:00 | 00:00:00 | 00:00:00 | |
| KRY50SP-1 | 2026-08-31 07:31:05 | 53.15292 | 16.74501 | 46° | 37km/h | 3333m | -1.5m/s | 1.6°C | 11.3% | 679.1hPa | 2.7V | 00:00:00 | 00:00:00 | 00:00:00 | |
| KRY50SP-1 | 2026-08-31 07:31:00 | 53.15258 | 16.74449 | 38° | 38km/h | 3340m | -1.6m/s | 1.6°C | 11.1% | 678.6hPa | 2.7V | 00:00:00 | 00:00:00 | 00:00:00 | |
| KRY50SP-1 | 2026-08-31 07:30:55 | 53.15216 | 16.74397 | 38° | 46km/h | 3347m | -1.3m/s | 1.6°C | 10.9% | 677.9hPa | 2.7V | 00:00:00 | 00:00:00 | 00:00:00 | |
| KRY50SP-1 | 2026-08-31 07:30:49 | 53.15162 | 16.74322 | 43° | 47km/h | 3355m | -1.2m/s | 1.6°C | 10.8% | 677.3hPa | 2.7V | 00:00:00 | 00:00:00 | 00:00:00 | |
| KRY50SP-1 | 2026-08-31 07:30:45 | 53.15117 | 16.74255 | 44° | 47km/h | 3361m | -1.1m/s | 1.6°C | 10.9% | 676.8hPa | 2.7V | 00:00:00 | 00:00:00 | 00:00:00 | |
| KRY50SP-1 | 2026-08-31 07:30:39 | 53.15071 | 16.74185 | 44° | 49km/h | 3368m | -1.4m/s | 1.5°C | 10.8% | 676.2hPa | 2.7V | 00:00:00 | 00:00:00 | 00:00:00 | |
| SP3WXH-11 | 2026-08-31 07:30:38 | 53.15045 | 16.74141 | 45° | 49km/h | 3372m | -1.5m/s | 1.5°C | 10.7% | 675.8hPa | 2.7V | 00:00:00 | 00:00:00 | 00:00:00 | |
| KRY50SP-1 | 2026-08-31 07:30:34 | 53.15027 | 16.74111 | 48° | 49km/h | 3375m | -1.5m/s | 1.5°C | 10.7% | 675.7hPa | 2.7V | 00:00:00 | 00:00:00 | 00:00:00 | |
| KRY50SP-1 | 2026-08-31 07:30:29 | 53.14988 | 16.74035 | 52° | 44km/h | 3381m | -1.3m/s | 1.5°C | 10.7% | 675.1hPa | 2.7V | 00:00:00 | 00:00:00 | 00:00:00 | |
| KRY50SP-1 | 2026-08-31 07:30:23 | 53.14944 | 16.73966 | 38° | 38km/h | 3390m | -1.4m/s | 1.4°C | 10.7% | 674.4hPa | 2.7V | 00:00:00 | 00:00:00 | 00:00:00 | |
| KRY50SP-1 | 2026-08-31 07:30:17 | 53.14890 | 16.73902 | 38° | 47km/h | 3398m | -1.4m/s | 1.4°C | 10.7% | 673.7hPa | 2.7V | 00:00:00 | 00:00:00 | 00:00:00 | |
| KRY50SP-1 | 2026-08-31 07:30:12 | 53.14842 | 16.73836 | 44° | 51km/h | 3405m | -1.4m/s | 1.3°C | 10.7% | 673.1hPa | 2.7V | 00:00:00 | 00:00:00 | 00:00:00 | |
| SP3BTT-10 | 2026-08-31 07:30:08 | 53.14797 | 16.73761 | 47° | 47km/h | 3412m | -1.6m/s | 1.2°C | 11.2% | 672.5hPa | 2.7V | 00:00:00 | 00:00:00 | 00:00:00 | |
| KRY50SP-1 | 2026-08-31 07:30:06 | 53.14788 | 16.73746 | 51° | 47km/h | 3413m | -1.5m/s | 1.2°C | 10.7% | 672.4hPa | 2.7V | 00:00:00 | 00:00:00 | 00:00:00 | |
| KRY50SP-1 | 2026-08-31 07:30:01 | 53.14752 | 16.73674 | 50° | 40km/h | 3420m | -1.5m/s | 1.2°C | 10.6% | 671.8hPa | 2.7V | 00:00:00 | 00:00:00 | 00:00:00 | |
| KRY50SP-1 | 2026-08-31 07:29:55 | 53.14706 | 16.73607 | 37° | 44km/h | 3428m | -1.2m/s | 1.2°C | 10.6% | 671.3hPa | 2.7V | 00:00:00 | 00:00:00 | 00:00:00 | |
| KRY50SP-1 | 2026-08-31 07:29:49 | 53.14649 | 16.73533 | 43° | 49km/h | 3435m | -1.4m/s | 1.1°C | 10.7% | 670.5hPa | 2.7V | 00:00:00 | 00:00:00 | 00:00:00 | |
| KRY50SP-1 | 2026-08-31 07:29:43 | 53.14594 | 16.73445 | 45° | 49km/h | 3444m | -1.4m/s | 1.1°C | 10.7% | 669.9hPa | 2.7V | 00:00:00 | 00:00:00 | 00:00:00 | |
| SP3BTT-10 | 2026-08-31 07:29:38 | 53.14539 | 16.73355 | 44° | 47km/h | 3452m | -1.3m/s | 1.0°C | 11.1% | 669.1hPa | 2.7V | 00:00:00 | 00:00:00 | 00:00:00 | |
| KRY50SP-1 | 2026-08-31 07:29:37 | 53.14539 | 16.73355 | 45° | 51km/h | 3452m | -1.3m/s | 1.1°C | 10.7% | 669.2hPa | 2.7V | 00:00:00 | 00:00:00 | 00:00:00 | |
| SP3WXH-11 | 2026-08-31 07:29:36 | 53.14512 | 16.73310 | 44° | 51km/h | 3456m | -1.5m/s | 1.1°C | 10.6% | 668.9hPa | 2.7V | 00:00:00 | 00:00:00 | 00:00:00 | |
| KRY50SP-1 | 2026-08-31 07:29:32 | 53.14493 | 16.73279 | 47° | 51km/h | 3459m | -1.3m/s | 1.1°C | 10.7% | 668.6hPa | 2.7V | 00:00:00 | 00:00:00 | 00:00:00 | |
| KRY50SP-1 | 2026-08-31 07:29:27 | 53.14450 | 16.73199 | 52° | 51km/h | 3466m | -1.6m/s | 1.0°C | 10.7% | 668.0hPa | 2.7V | 00:00:00 | 00:00:00 | 00:00:00 | |
| KRY50SP-1 | 2026-08-31 07:29:22 | 53.14412 | 16.73120 | 53° | 46km/h | 3472m | -1.3m/s | 1.0°C | 10.8% | 667.5hPa | 2.7V | 00:00:00 | 00:00:00 | 00:00:00 | |
| KRY50SP-1 | 2026-08-31 07:29:17 | 53.14376 | 16.73056 | 42° | 42km/h | 3479m | -1.1m/s | 1.0°C | 10.4% | 666.9hPa | 2.7V | 00:00:00 | 00:00:00 | 00:00:00 | |
| KRY50SP-1 | 2026-08-31 07:29:12 | 53.14331 | 16.72997 | 40° | 47km/h | 3485m | -1.4m/s | 1.0°C | 10.2% | 666.4hPa | 2.7V | 00:00:00 | 00:00:00 | 00:00:00 | |
| SP3BTT-10 | 2026-08-31 07:29:08 | 53.14282 | 16.72930 | 42° | 49km/h | 3492m | -1.5m/s | 0.9°C | 10.6% | 665.9hPa | 2.7V | 00:00:00 | 00:00:00 | 00:00:00 | |
| KRY50SP-1 | 2026-08-31 07:29:06 | 53.14272 | 16.72915 | 42° | 53km/h | 3494m | -1.6m/s | 0.9°C | 10.1% | 665.7hPa | 2.7V | 00:00:00 | 00:00:00 | 00:00:00 | |
| SP3WXH-11 | 2026-08-31 07:29:05 | 53.14242 | 16.72869 | 46° | 53km/h | 3498m | -1.5m/s | 0.9°C | 10.0% | 665.3hPa | 2.7V | 00:00:00 | 00:00:00 | 00:00:00 | |
| KRY50SP-1 | 2026-08-31 07:29:00 | 53.14216 | 16.72819 | 53° | 49km/h | 3502m | -1.6m/s | 0.9°C | 9.8% | 664.9hPa | 2.7V | 00:00:00 | 00:00:00 | 00:00:00 | |
| KRY50SP-1 | 2026-08-31 07:28:55 | 53.14179 | 16.72742 | 54° | 42km/h | 3510m | -1.5m/s | 0.9°C | 9.5% | 664.3hPa | 2.7V | 00:00:00 | 00:00:00 | 00:00:00 | |
| KRY50SP-1 | 2026-08-31 07:28:50 | 53.14142 | 16.72680 | 41° | 44km/h | 3517m | -1.2m/s | 0.9°C | 9.3% | 663.9hPa | 2.7V | 00:00:00 | 00:00:00 | 00:00:00 | |
| KRY50SP-1 | 2026-08-31 07:28:44 | 53.14085 | 16.72604 | 42° | 53km/h | 3526m | -1.3m/s | 0.8°C | 9.3% | 663.2hPa | 2.7V | 00:00:00 | 00:00:00 | 00:00:00 | |
| SP3BTT-10 | 2026-08-31 07:28:38 | 53.14021 | 16.72493 | 52° | 49km/h | 3535m | -1.4m/s | 0.7°C | 9.6% | 662.3hPa | 2.7V | 00:00:00 | 00:00:00 | 08:30:00 | |
| KRY50SP-1 | 2026-08-31 07:28:33 | 53.13990 | 16.72428 | 53° | 46km/h | 3541m | -1.3m/s | 0.7°C | 9.1% | 661.8hPa | 2.7V | 00:00:00 | 00:00:00 | 00:00:00 | |
| KRY50SP-1 | 2026-08-31 07:28:28 | 53.13956 | 16.72360 | 46° | 42km/h | 3548m | -1.3m/s | 0.7°C | 8.8% | 661.2hPa | 2.7V | 00:00:00 | 00:00:00 | 00:00:00 | |
| KRY50SP-1 | 2026-08-31 07:28:22 | 53.13904 | 16.72285 | 39° | 49km/h | 3557m | -1.4m/s | 0.7°C | 8.7% | 660.6hPa | 2.7V | 00:00:00 | 00:00:00 | 00:00:00 | |
| KRY50SP-1 | 2026-08-31 07:28:17 | 53.13854 | 16.72214 | 43° | 55km/h | 3564m | -1.4m/s | 0.6°C | 8.7% | 660.0hPa | 2.7V | 00:00:00 | 00:00:00 | 00:00:00 | |
| KRY50SP-1 | 2026-08-31 07:28:12 | 53.13808 | 16.72130 | 52° | 53km/h | 3572m | -1.3m/s | 0.5°C | 8.7% | 659.4hPa | 2.7V | 00:00:00 | 00:00:00 | 00:00:00 | |
| SP3BTT-10 | 2026-08-31 07:28:08 | 53.13771 | 16.72048 | 51° | 47km/h | 3579m | -1.3m/s | 0.4°C | 9.0% | 658.7hPa | 2.7V | 00:00:00 | 00:00:00 | 00:00:00 | |
| KRY50SP-1 | 2026-08-31 07:28:07 | 53.13771 | 16.72048 | 52° | 46km/h | 3579m | -1.3m/s | 0.5°C | 8.6% | 658.7hPa | 2.7V | 00:00:00 | 00:00:00 | 00:00:00 | |
| KRY50SP-1 | 2026-08-31 07:28:02 | 53.13734 | 16.71981 | 42° | 44km/h | 3586m | -1.5m/s | 0.4°C | 8.4% | 658.2hPa | 2.7V | 00:00:00 | 00:00:00 | 00:00:00 | |
| KRY50SP-1 | 2026-08-31 07:27:57 | 53.13688 | 16.71918 | 41° | 51km/h | 3593m | -1.3m/s | 0.4°C | 8.4% | 657.6hPa | 2.7V | 00:00:00 | 00:00:00 | 00:00:00 | |
| KRY50SP-1 | 2026-08-31 07:27:51 | 53.13631 | 16.71827 | 50° | 53km/h | 3602m | -1.6m/s | 0.3°C | 8.3% | 656.9hPa | 2.7V | 00:00:00 | 00:00:00 | 00:00:00 | |
| KRY50SP-1 | 2026-08-31 07:27:45 | 53.13581 | 16.71725 | 54° | 49km/h | 3611m | -1.4m/s | 0.2°C | 8.3% | 656.0hPa | 2.7V | 00:00:00 | 00:00:00 | 00:00:00 | |
| KRY50SP-1 | 2026-08-31 07:27:39 | 53.13538 | 16.71633 | 51° | 44km/h | 3619m | -1.4m/s | 0.2°C | 8.3% | 655.4hPa | 2.7V | 00:00:00 | 00:00:00 | 00:00:00 | |
| SP3BTT-10 | 2026-08-31 07:27:38 | 53.13523 | 16.71605 | 49° | 46km/h | 3622m | -1.4m/s | 0.1°C | 8.7% | 655.0hPa | 2.7V | 00:00:00 | 00:00:00 | 00:00:00 | |
| KRY50SP-1 | 2026-08-31 07:27:33 | 53.13494 | 16.71550 | 49° | 44km/h | 3628m | -1.4m/s | 0.1°C | 8.3% | 654.6hPa | 2.7V | 00:00:00 | 00:00:00 | 00:00:00 | |
| KRY50SP-1 | 2026-08-31 07:27:27 | 53.13452 | 16.71471 | 50° | 42km/h | 3637m | -1.6m/s | 0.0°C | 8.3% | 653.7hPa | 2.7V | 00:00:00 | 00:00:00 | 00:00:00 | |
| SP3WXH-11 | 2026-08-31 07:27:26 | 53.13438 | 16.71447 | 44° | 38km/h | 3640m | -1.7m/s | -0.0°C | 8.3% | 653.6hPa | 2.7V | 00:00:00 | 00:00:00 | 00:00:00 | |
| KRY50SP-1 | 2026-08-31 07:27:21 | 53.13407 | 16.71400 | 42° | 40km/h | 3647m | -1.7m/s | -0.1°C | 8.3% | 653.2hPa | 2.7V | 00:00:00 | 00:00:00 | 00:00:00 | |
| KRY50SP-1 | 2026-08-31 07:27:16 | 53.13362 | 16.71336 | 44° | 51km/h | 3655m | -1.4m/s | -0.1°C | 8.3% | 652.5hPa | 2.7V | 00:00:00 | 00:00:00 | 00:00:00 | |
| KRY50SP-1 | 2026-08-31 07:27:11 | 53.13319 | 16.71256 | 53° | 51km/h | 3663m | -1.5m/s | -0.2°C | 8.3% | 651.9hPa | 2.7V | 00:00:00 | 00:00:00 | 00:00:00 | |
| SP3BTT-10 | 2026-08-31 07:27:08 | 53.13288 | 16.71189 | 54° | 46km/h | 3670m | -1.5m/s | -0.2°C | 8.7% | 651.3hPa | 2.7V | 00:00:00 | 00:00:00 | 00:00:00 | |
| KRY50SP-1 | 2026-08-31 07:27:06 | 53.13281 | 16.71173 | 57° | 47km/h | 3671m | -1.9m/s | -0.2°C | 8.4% | 651.2hPa | 2.7V | 00:00:00 | 00:00:00 | 00:00:00 | |
| KRY50SP-1 | 2026-08-31 07:27:00 | 53.13243 | 16.71083 | 54° | 38km/h | 3682m | -1.6m/s | -0.3°C | 8.4% | 650.3hPa | 2.7V | 00:00:00 | 00:00:00 | 00:00:00 | |
| KRY50SP-1 | 2026-08-31 07:26:55 | 53.13207 | 16.71022 | 41° | 44km/h | 3690m | -1.5m/s | -0.3°C | 8.3% | 649.6hPa | 2.7V | 00:00:00 | 00:00:00 | 00:00:00 | |
| KRY50SP-1 | 2026-08-31 07:26:49 | 53.13153 | 16.70942 | 47° | 49km/h | 3700m | -1.6m/s | -0.4°C | 8.1% | 648.8hPa | 2.7V | 00:00:00 | 00:00:00 | 00:00:00 | |
| KRY50SP-1 | 2026-08-31 07:26:44 | 53.13112 | 16.70862 | 54° | 49km/h | 3708m | -1.6m/s | -0.4°C | 8.0% | 648.3hPa | 2.7V | 00:00:00 | 00:00:00 | 00:00:00 | |
| SP3BTT-10 | 2026-08-31 07:26:38 | 53.13063 | 16.70754 | 51° | 42km/h | 3719m | -1.6m/s | -0.4°C | 8.2% | 647.3hPa | 2.7V | 00:00:00 | 00:00:00 | 00:00:00 | |
| KRY50SP-1 | 2026-08-31 07:26:32 | 53.13030 | 16.70690 | 51° | 38km/h | 3727m | -1.8m/s | -0.4°C | 7.6% | 646.6hPa | 2.7V | 00:00:00 | 00:00:00 | 00:00:00 | |
| KRY50SP-1 | 2026-08-31 07:26:27 | 53.12997 | 16.70626 | 51° | 40km/h | 3736m | -1.7m/s | -0.5°C | 7.4% | 645.9hPa | 2.7V | 00:00:00 | 00:00:00 | 00:00:00 | |
| SP3WXH-11 | 2026-08-31 07:26:24 | 53.12970 | 16.70576 | 48° | 38km/h | 3742m | -1.7m/s | -0.5°C | 7.2% | 645.4hPa | 2.7V | 00:00:00 | 00:00:00 | 00:00:00 | |
| KRY50SP-1 | 2026-08-31 07:26:21 | 53.12957 | 16.70551 | 50° | 40km/h | 3746m | -1.6m/s | -0.5°C | 7.1% | 645.1hPa | 2.7V | 00:00:00 | 00:00:00 | 00:00:00 | |
| KRY50SP-1 | 2026-08-31 07:26:16 | 53.12925 | 16.70484 | 53° | 44km/h | 3754m | -1.7m/s | -0.5°C | 7.1% | 644.4hPa | 2.7V | 00:00:00 | 00:00:00 | 00:00:00 | |
| KRY50SP-1 | 2026-08-31 07:26:10 | 53.12881 | 16.70393 | 52° | 47km/h | 3764m | -1.6m/s | -0.5°C | 7.0% | 643.6hPa | 2.7V | 00:00:00 | 00:00:00 | 00:00:00 | |
| SP3BTT-10 | 2026-08-31 07:26:08 | 53.12858 | 16.70347 | 51° | 49km/h | 3769m | -1.7m/s | -0.5°C | 7.2% | 643.2hPa | 2.7V | 00:00:00 | 00:00:00 | 00:00:00 | |
| KRY50SP-1 | 2026-08-31 07:26:04 | 53.12835 | 16.70300 | 51° | 47km/h | 3773m | -1.6m/s | -0.5°C | 6.8% | 642.7hPa | 2.7V | 00:00:00 | 00:00:00 | 00:00:00 | |
| SP3WXH-11 | 2026-08-31 07:25:53 | 53.12740 | 16.70113 | 51° | 47km/h | 3792m | -1.9m/s | -0.6°C | 6.7% | 641.1hPa | 2.7V | 00:00:00 | 00:00:00 | 00:00:00 | |
| KRY50SP-1 | 2026-08-31 07:25:48 | 53.12706 | 16.70050 | 47° | 51km/h | 3799m | -1.8m/s | -0.7°C | 6.6% | 640.6hPa | 2.7V | 00:00:00 | 00:00:00 | 00:00:00 | |
| KRY50SP-1 | 2026-08-31 07:25:42 | 53.12653 | 16.69958 | 48° | 51km/h | 3810m | -1.7m/s | -0.7°C | 6.5% | 639.7hPa | 2.7V | 00:00:00 | 00:00:00 | 00:00:00 | |
| SP3BTT-10 | 2026-08-31 07:25:38 | 53.12609 | 16.69884 | 44° | 44km/h | 3819m | -1.7m/s | -0.7°C | 6.8% | 639.1hPa | 2.7V | 00:00:00 | 00:00:00 | 00:00:00 | |
| KRY50SP-1 | 2026-08-31 07:25:37 | 53.12609 | 16.69884 | 44° | 49km/h | 3819m | -1.8m/s | -0.8°C | 6.5% | 639.1hPa | 2.7V | 00:00:00 | 00:00:00 | 00:00:00 | |
| KRY50SP-1 | 2026-08-31 07:25:31 | 53.12554 | 16.69800 | 43° | 46km/h | 3829m | -1.9m/s | -0.9°C | 6.0% | 638.3hPa | 2.7V | 00:00:00 | 00:00:00 | 00:00:00 | |
| KRY50SP-1 | 2026-08-31 07:25:25 | 53.12499 | 16.69723 | 39° | 47km/h | 3839m | -1.6m/s | -0.9°C | 5.7% | 637.5hPa | 2.7V | 00:00:00 | 00:00:00 | 00:00:00 | |
| SP3WXH-11 | 2026-08-31 07:25:22 | 53.12463 | 16.69675 | 40° | 42km/h | 3846m | -1.8m/s | -1.0°C | 5.7% | 637.0hPa | 2.7V | 00:00:00 | 00:00:00 | 00:00:00 | |
| KRY50SP-1 | 2026-08-31 07:25:20 | 53.12455 | 16.69662 | 42° | 44km/h | 3847m | -2.0m/s | -1.0°C | 5.6% | 636.9hPa | 2.7V | 00:00:00 | 00:00:00 | 00:00:00 | |
| KRY50SP-1 | 2026-08-31 07:25:14 | 53.12408 | 16.69590 | 45° | 40km/h | 3858m | -1.6m/s | -1.1°C | 5.4% | 636.1hPa | 2.7V | 00:00:00 | 00:00:00 | 00:00:00 | |
| SP3BTT-10 | 2026-08-31 07:25:08 | 53.12357 | 16.69510 | 41° | 46km/h | 3869m | -1.6m/s | -1.1°C | 5.0% | 635.0hPa | 2.7V | 00:00:00 | 00:00:00 | 00:00:00 | |
| KRY50SP-1 | 2026-08-31 07:25:02 | 53.12313 | 16.69450 | 43° | 47km/h | 3878m | -1.7m/s | -1.2°C | 4.2% | 634.4hPa | 2.7V | 00:00:00 | 00:00:00 | 00:00:00 | |
| SP3WXH-11 | 2026-08-31 07:24:51 | 53.12219 | 16.69259 | 54° | 42km/h | 3899m | -1.7m/s | -1.3°C | 6.7% | 632.7hPa | 2.7V | 00:00:00 | 00:00:00 | 00:00:00 | |
| KRY50SP-1 | 2026-08-31 07:24:46 | 53.12194 | 16.69205 | 49° | 38km/h | 3905m | -1.9m/s | -1.3°C | 6.9% | 632.1hPa | 2.7V | 00:00:00 | 00:00:00 | 00:00:00 | |
| KRY50SP-1 | 2026-08-31 07:24:40 | 53.12147 | 16.69137 | 39° | 47km/h | 3915m | -1.8m/s | -1.4°C | 6.8% | 631.5hPa | 2.7V | 00:00:00 | 00:00:00 | 00:00:00 | |
| SP3BTT-10 | 2026-08-31 07:24:38 | 53.12119 | 16.69096 | 45° | 46km/h | 3920m | -1.5m/s | -1.3°C | 7.8% | 630.9hPa | 2.7V | 00:00:00 | 00:00:00 | 00:00:00 | |
| KRY50SP-1 | 2026-08-31 07:24:35 | 53.12102 | 16.69066 | 47° | 51km/h | 3923m | -1.7m/s | -1.4°C | 8.1% | 630.8hPa | 2.7V | 00:00:00 | 00:00:00 | 00:00:00 | |
| KRY50SP-1 | 2026-08-31 07:24:30 | 53.12062 | 16.68986 | 54° | 47km/h | 3931m | -1.4m/s | -1.5°C | 10.7% | 630.0hPa | 2.7V | 00:00:00 | 00:00:00 | 00:00:00 | |
| KRY50SP-1 | 2026-08-31 07:24:26 | 53.12031 | 16.68911 | 56° | 40km/h | 3939m | -1.9m/s | -1.6°C | 11.3% | 629.4hPa | 2.7V | 00:00:00 | 00:00:00 | 00:00:00 | |
| KRY50SP-1 | 2026-08-31 07:24:19 | 53.11992 | 16.68838 | 41° | 40km/h | 3949m | -1.8m/s | -1.7°C | 13.9% | 628.6hPa | 2.7V | 00:00:00 | 00:00:00 | 00:00:00 | |
| KRY50SP-1 | 2026-08-31 07:24:15 | 53.11949 | 16.68780 | 43° | 47km/h | 3957m | -1.7m/s | -1.8°C | 16.1% | 628.0hPa | 2.7V | 00:00:00 | 00:00:00 | 00:00:00 | |
| KRY50SP-1 | 2026-08-31 07:24:09 | 53.11906 | 16.68705 | 50° | 49km/h | 3966m | -1.6m/s | -1.8°C | 14.3% | 627.4hPa | 2.7V | 00:00:00 | 00:00:00 | 00:00:00 | |
| SP3BTT-10 | 2026-08-31 07:24:08 | 53.11891 | 16.68673 | 55° | 44km/h | 3969m | -1.7m/s | -1.8°C | 14.3% | 627.0hPa | 2.7V | 00:00:00 | 00:00:00 | 08:30:00 | |
| KRY50SP-1 | 2026-08-31 07:24:04 | 53.11872 | 16.68627 | 58° | 42km/h | 3974m | -1.7m/s | -1.9°C | 12.8% | 626.6hPa | 2.7V | 00:00:00 | 00:00:00 | 00:00:00 | |
| SP3WXH-11 | 2026-08-31 07:23:49 | 53.11763 | 16.68432 | 38° | 46km/h | 4001m | -1.4m/s | -2.1°C | 15.0% | 624.7hPa | 2.7V | 00:00:00 | 00:00:00 | 00:00:00 | |
| KRY50SP-1 | 2026-08-31 07:23:47 | 53.11754 | 16.68419 | 43° | 47km/h | 4003m | -1.7m/s | -2.2°C | 15.4% | 624.5hPa | 2.7V | 00:00:00 | 00:00:00 | 00:00:00 | |
| KRY50SP-1 | 2026-08-31 07:23:43 | 53.11711 | 16.68346 | 49° | 49km/h | 4011m | -1.5m/s | -2.2°C | 15.1% | 624.0hPa | 2.7V | 00:00:00 | 00:00:00 | 00:00:00 | |
| SP3BTT-10 | 2026-08-31 07:23:38 | 53.11676 | 16.68270 | 55° | 42km/h | 4019m | -1.7m/s | -2.2°C | 15.6% | 623.4hPa | 2.7V | 00:00:00 | 00:00:00 | 00:00:00 | |
| KRY50SP-1 | 2026-08-31 07:23:37 | 53.11676 | 16.68270 | 55° | 42km/h | 4019m | -1.7m/s | -2.3°C | 14.8% | 623.4hPa | 2.7V | 00:00:00 | 00:00:00 | 00:00:00 | |
| KRY50SP-1 | 2026-08-31 07:23:31 | 53.11640 | 16.68193 | 53° | 35km/h | 4029m | -1.9m/s | -2.4°C | 14.1% | 622.5hPa | 2.7V | 00:00:00 | 00:00:00 | 00:00:00 | |
| KRY50SP-1 | 2026-08-31 07:23:25 | 53.11601 | 16.68128 | 42° | 38km/h | 4040m | -1.6m/s | -2.4°C | 15.4% | 621.8hPa | 2.7V | 00:00:00 | 00:00:00 | 00:00:00 | |
| KRY50SP-1 | 2026-08-31 07:23:20 | 53.11560 | 16.68069 | 45° | 47km/h | 4047m | -1.3m/s | -2.5°C | 15.8% | 621.2hPa | 2.7V | 00:00:00 | 00:00:00 | 00:00:00 | |
| SP3WXH-11 | 2026-08-31 07:23:18 | 53.11535 | 16.68028 | 48° | 46km/h | 4051m | -1.6m/s | -2.6°C | 15.9% | 621.0hPa | 2.7V | 00:00:00 | 00:00:00 | 00:00:00 | |
| KRY50SP-1 | 2026-08-31 07:23:15 | 53.11519 | 16.67998 | 51° | 47km/h | 4055m | -1.4m/s | -2.6°C | 17.3% | 620.7hPa | 2.7V | 00:00:00 | 00:00:00 | 00:00:00 | |
| KRY50SP-1 | 2026-08-31 07:23:09 | 53.11479 | 16.67908 | 54° | 42km/h | 4064m | -1.4m/s | -2.6°C | 16.7% | 620.0hPa | 2.7V | 00:00:00 | 00:00:00 | 00:00:00 | |
| SP3BTT-10 | 2026-08-31 07:23:08 | 53.11467 | 16.67880 | 56° | 38km/h | 4067m | -1.6m/s | -2.6°C | 17.6% | 619.7hPa | 2.7V | 00:00:00 | 00:00:00 | 00:00:00 | |
| KRY50SP-1 | 2026-08-31 07:23:04 | 53.11450 | 16.67840 | 53° | 38km/h | 4072m | -1.3m/s | -2.7°C | 16.8% | 619.4hPa | 2.7V | 00:00:00 | 00:00:00 | 00:00:00 | |
| SP3WXH-11 | 2026-08-31 07:22:47 | 53.11345 | 16.67632 | 40° | 40km/h | 4098m | -1.4m/s | -2.9°C | 15.6% | 617.3hPa | 2.7V | 00:00:00 | 00:00:00 | 00:00:00 | |
| KRY50SP-1 | 2026-08-31 07:22:43 | 53.11321 | 16.67594 | 49° | 44km/h | 4102m | -1.3m/s | -2.9°C | 15.7% | 617.1hPa | 2.7V | 00:00:00 | 00:00:00 | 00:00:00 | |
| SP3BTT-10 | 2026-08-31 07:22:38 | 53.11282 | 16.67508 | 56° | 42km/h | 4111m | -1.3m/s | -2.8°C | 17.5% | 616.2hPa | 2.7V | 00:00:00 | 00:00:00 | 00:00:00 | |
| KRY50SP-1 | 2026-08-31 07:22:32 | 53.11255 | 16.67437 | 60° | 38km/h | 4118m | -1.5m/s | -3.0°C | 17.4% | 615.8hPa | 2.7V | 00:00:00 | 00:00:00 | 00:00:00 | |
| KRY50SP-1 | 2026-08-31 07:22:26 | 53.11225 | 16.67361 | 54° | 33km/h | 4128m | -1.4m/s | -3.0°C | 16.8% | 615.0hPa | 2.7V | 00:00:00 | 00:00:00 | 00:00:00 | |
| KRY50SP-1 | 2026-08-31 07:22:20 | 53.11187 | 16.67298 | 43° | 40km/h | 4136m | -1.4m/s | -3.1°C | 16.8% | 614.3hPa | 2.7V | 00:00:00 | 00:00:00 | 00:00:00 | |
| SP3WXH-11 | 2026-08-31 07:22:16 | 53.11149 | 16.67233 | 49° | 44km/h | 4143m | -1.5m/s | -3.1°C | 17.1% | 613.9hPa | 2.7V | 00:00:00 | 00:00:00 | 00:00:00 | |
| KRY50SP-1 | 2026-08-31 07:22:14 | 53.11142 | 16.67218 | 52° | 46km/h | 4145m | -1.5m/s | -3.0°C | 17.0% | 613.6hPa | 2.7V | 00:00:00 | 00:00:00 | 00:00:00 | |
| KRY50SP-1 | 2026-08-31 07:22:08 | 53.11103 | 16.67126 | 59° | 44km/h | 4154m | -1.5m/s | -3.1°C | 16.4% | 613.0hPa | 2.7V | 00:00:00 | 00:00:00 | 00:00:00 | |
| KRY50SP-1 | 2026-08-31 07:22:02 | 53.11070 | 16.67032 | 61° | 42km/h | 4163m | -1.5m/s | -3.1°C | 16.4% | 612.2hPa | 2.7V | 00:00:00 | 00:00:00 | 00:00:00 | |
| SP3WXH-11 | 2026-08-31 07:21:45 | 53.10959 | 16.66754 | 49° | 44km/h | 4189m | -1.4m/s | -3.2°C | 15.5% | 610.3hPa | 2.7V | 00:00:00 | 00:00:00 | 00:00:00 | |
| KRY50SP-1 | 2026-08-31 07:21:40 | 53.10930 | 16.66701 | 48° | 42km/h | 4195m | -1.4m/s | -3.3°C | 15.6% | 609.8hPa | 2.7V | 00:00:00 | 00:00:00 | 00:00:00 | |
| KRY50SP-1 | 2026-08-31 07:21:35 | 53.10895 | 16.66640 | 47° | 38km/h | 4202m | -1.3m/s | -3.3°C | 15.5% | 609.2hPa | 2.7V | 00:00:00 | 00:00:00 | 00:00:00 | |
| KRY50SP-1 | 2026-08-31 07:21:30 | 53.10863 | 16.66583 | 50° | 37km/h | 4210m | -1.3m/s | -3.3°C | 15.3% | 608.6hPa | 2.7V | 00:00:00 | 00:00:00 | 00:00:00 | |
| KRY50SP-1 | 2026-08-31 07:21:25 | 53.10831 | 16.66512 | 59° | 35km/h | 4218m | -1.4m/s | -3.3°C | 14.7% | 607.9hPa | 2.7V | 00:00:00 | 00:00:00 | 00:00:00 | |
| KRY50SP-1 | 2026-08-31 07:21:19 | 53.10808 | 16.66446 | 62° | 37km/h | 4226m | -1.5m/s | -3.2°C | 14.6% | 607.4hPa | 2.7V | 00:00:00 | 00:00:00 | 00:00:00 | |
| SP3WXH-11 | 2026-08-31 07:21:14 | 53.10781 | 16.66368 | 61° | 35km/h | 4234m | -1.4m/s | -3.3°C | 14.7% | 606.7hPa | 2.7V | 00:00:00 | 00:00:00 | 00:00:00 | |
| KRY50SP-1 | 2026-08-31 07:21:09 | 53.10764 | 16.66313 | 64° | 37km/h | 4240m | -1.4m/s | -3.3°C | 14.6% | 606.2hPa | 2.7V | 00:00:00 | 00:00:00 | 00:00:00 | |
| SP3BTT-10 | 2026-08-31 07:21:08 | 53.10756 | 16.66285 | 64° | 44km/h | 4243m | -1.4m/s | -3.3°C | 15.4% | 605.9hPa | 2.7V | 00:00:00 | 00:00:00 | 00:00:00 | |
| KRY50SP-1 | 2026-08-31 07:21:04 | 53.10743 | 16.66242 | 66° | 38km/h | 4248m | -1.4m/s | -3.3°C | 14.7% | 605.6hPa | 2.7V | 00:00:00 | 00:00:00 | 00:00:00 | |
| EDDB2-11 | 2026-08-31 07:20:52 | 53.10653 | 16.65923 | 61° | 44km/h | 4278m | -1.5m/s | -3.3°C | 14.4% | 603.4hPa | 2.7V | 00:00:00 | 00:00:00 | 00:00:00 | |
| KRY50SP-1 | 2026-08-31 07:20:47 | 53.10668 | 16.65973 | 65° | 44km/h | 4274m | -1.4m/s | -3.3°C | 14.4% | 603.6hPa | 2.7V | 00:00:00 | 00:00:00 | 00:00:00 | |
| SP3WXH-11 | 2026-08-31 07:20:43 | 53.10642 | 16.65890 | 61° | 46km/h | 4281m | -1.5m/s | -3.4°C | 14.4% | 603.2hPa | 2.7V | 00:00:00 | 00:00:00 | 00:00:00 | |
| KRY50SP-1 | 2026-08-31 07:20:41 | 53.10636 | 16.65872 | 62° | 47km/h | 4282m | -1.6m/s | -3.4°C | 14.4% | 603.0hPa | 2.7V | 00:00:00 | 00:00:00 | 00:00:00 | |
| SP3BTT-10 | 2026-08-31 07:20:38 | 53.10614 | 16.65802 | 64° | 46km/h | 4289m | -1.6m/s | -3.4°C | 15.3% | 602.4hPa | 2.7V | 00:00:00 | 00:00:00 | 00:00:00 | |
| KRY50SP-1 | 2026-08-31 07:20:36 | 53.10609 | 16.65784 | 66° | 46km/h | 4291m | -1.7m/s | -3.4°C | 14.4% | 602.4hPa | 2.6V | 00:00:00 | 00:00:00 | 00:00:00 | |
| KRY50SP-1 | 2026-08-31 07:20:31 | 53.10589 | 16.65701 | 69° | 38km/h | 4299m | -1.6m/s | -3.5°C | 14.4% | 601.9hPa | 2.6V | 00:00:00 | 00:00:00 | 00:00:00 | |
| KRY50SP-1 | 2026-08-31 07:20:25 | 53.10562 | 16.65623 | 54° | 38km/h | 4308m | -1.6m/s | -3.6°C | 14.3% | 601.2hPa | 2.6V | 00:00:00 | 00:00:00 | 00:00:00 | |
| EDDB2-11 | 2026-08-31 07:20:21 | 53.10531 | 16.65553 | 55° | 44km/h | 4316m | -1.6m/s | -3.6°C | 14.2% | 600.5hPa | 2.6V | 00:00:00 | 00:00:00 | 00:00:00 | |
| KRY50SP-1 | 2026-08-31 07:20:14 | 53.10497 | 16.65452 | 65° | 46km/h | 4326m | -1.7m/s | -3.7°C | 15.5% | 599.7hPa | 2.6V | 00:00:00 | 00:00:00 | 00:00:00 | |
| SP3WXH-11 | 2026-08-31 07:20:12 | 53.10483 | 16.65400 | 68° | 42km/h | 4331m | -1.7m/s | -3.7°C | 15.5% | 599.3hPa | 2.6V | 00:00:00 | 00:00:00 | 00:00:00 | |
| SP3BTT-10 | 2026-08-31 07:20:08 | 53.10468 | 16.65335 | 70° | 40km/h | 4338m | -1.6m/s | -3.7°C | 16.4% | 598.8hPa | 2.6V | 00:00:00 | 00:00:00 | 00:00:00 | |
| KRY50SP-1 | 2026-08-31 07:20:02 | 53.10450 | 16.65266 | 64° | 35km/h | 4346m | -1.7m/s | -3.8°C | 14.3% | 598.2hPa | 2.6V | 00:00:00 | 00:00:00 | 00:00:00 | |
| SONDE2-11 | 2026-08-31 07:19:59 | 53.10383 | 16.65103 | 58° | 46km/h | 4367m | -1.8m/s | -3.9°C | 14.4% | 596.7hPa | 2.6V | 00:00:00 | 00:00:00 | 00:00:00 | |
| EDDB2-11 | 2026-08-31 07:19:50 | 53.10377 | 16.65086 | 60° | 46km/h | 4368m | -1.6m/s | -3.9°C | 14.4% | 596.5hPa | 2.6V | 00:00:00 | 00:00:00 | 00:00:00 | |
| KRY50SP-1 | 2026-08-31 07:19:47 | 53.10362 | 16.65034 | 68° | 44km/h | 4374m | -1.7m/s | -4.0°C | 14.5% | 596.1hPa | 2.6V | 00:00:00 | 00:00:00 | 00:00:00 | |
| SP3WXH-11 | 2026-08-31 07:19:41 | 53.10339 | 16.64942 | 64° | 35km/h | 4384m | -1.8m/s | -4.0°C | 14.5% | 595.3hPa | 2.6V | 00:00:00 | 00:00:00 | 00:00:00 | |
| KRY50SP-1 | 2026-08-31 07:19:36 | 53.10316 | 16.64879 | 56° | 35km/h | 4393m | -1.8m/s | -4.1°C | 13.7% | 594.7hPa | 2.6V | 00:00:00 | 00:00:00 | 00:00:00 | |
| KRY50SP-1 | 2026-08-31 07:19:30 | 53.10288 | 16.64819 | 51° | 38km/h | 4402m | -2.0m/s | -4.2°C | 13.1% | 594.0hPa | 2.6V | 00:00:00 | 00:00:00 | 00:00:00 | |
| KRY50SP-1 | 2026-08-31 07:19:25 | 53.10247 | 16.64738 | 55° | 46km/h | 4413m | -1.9m/s | -4.1°C | 11.9% | 593.2hPa | 2.6V | 00:00:00 | 00:00:00 | 00:00:00 | |
| SP3BTT-10 | 2026-08-31 07:19:23 | 53.10234 | 16.64707 | 59° | 38km/h | 4416m | -1.8m/s | -4.0°C | 10.0% | 592.8hPa | 2.6V | 00:00:00 | 00:00:00 | 00:00:00 | |
| KRY50SP-1 | 2026-08-31 07:19:19 | 53.10214 | 16.64641 | 66° | 40km/h | 4423m | -1.7m/s | -4.2°C | 9.2% | 592.4hPa | 2.6V | 00:00:00 | 00:00:00 | 00:00:00 | |
| KRY50SP-1 | 2026-08-31 07:19:13 | 53.10193 | 16.64573 | 60° | 33km/h | 4432m | -1.7m/s | -4.2°C | 9.3% | 591.8hPa | 2.6V | 00:00:00 | 00:00:00 | 00:00:00 | |
| SP3WXH-11 | 2026-08-31 07:19:10 | 53.10174 | 16.64527 | 53° | 33km/h | 4439m | -1.8m/s | -4.3°C | 9.6% | 591.2hPa | 2.6V | 00:00:00 | 00:00:00 | 00:00:00 | |
| KRY50SP-1 | 2026-08-31 07:19:07 | 53.10164 | 16.64505 | 51° | 35km/h | 4442m | -1.9m/s | -4.3°C | 9.7% | 590.9hPa | 2.6V | 00:00:00 | 00:00:00 | 00:00:00 | |
| KRY50SP-1 | 2026-08-31 07:19:02 | 53.10132 | 16.64448 | 48° | 42km/h | 4452m | -1.9m/s | -4.4°C | 9.6% | 590.2hPa | 2.6V | 00:00:00 | 00:00:00 | 00:00:00 | |
| EDDB2-12 | 2026-08-31 07:19:01 | 53.10111 | 16.64406 | 54° | 44km/h | 4457m | -1.9m/s | -4.4°C | 9.6% | 589.8hPa | 2.6V | 00:00:00 | 00:00:00 | 00:00:00 | |
| SONDE2-11 | 2026-08-31 07:18:57 | 53.10088 | 16.64342 | 63° | 40km/h | 4464m | -1.7m/s | -4.5°C | 9.7% | 589.3hPa | 2.6V | 00:00:00 | 00:00:00 | 00:00:00 | |
| KRY50SP-1 | 2026-08-31 07:18:52 | 53.10075 | 16.64298 | 64° | 37km/h | 4469m | -1.9m/s | -4.5°C | 10.1% | 588.9hPa | 2.6V | 00:00:00 | 00:00:00 | 00:00:00 | |
| KRY50SP-1 | 2026-08-31 07:18:46 | 53.10047 | 16.64227 | 52° | 35km/h | 4480m | -1.9m/s | -4.5°C | 11.1% | 588.0hPa | 2.6V | 00:00:00 | 00:00:00 | 00:00:00 | |
| KRY50SP-1 | 2026-08-31 07:18:40 | 53.10010 | 16.64159 | 48° | 40km/h | 4491m | -1.7m/s | -4.6°C | 10.5% | 587.2hPa | 2.6V | 00:00:00 | 00:00:00 | 00:00:00 | |
| SP3WXH-11 | 2026-08-31 07:18:39 | 53.09997 | 16.64134 | 48° | 40km/h | 4495m | -1.9m/s | -4.6°C | 10.7% | 587.0hPa | 2.6V | 00:00:00 | 00:00:00 | 00:00:00 | |
| SP3BTT-10 | 2026-08-31 07:18:38 | 53.09990 | 16.64120 | 50° | 40km/h | 4496m | -1.8m/s | -4.6°C | 11.3% | 586.7hPa | 2.6V | 00:00:00 | 00:00:00 | 08:30:00 | |
| KRY50SP-1 | 2026-08-31 07:18:35 | 53.09969 | 16.64079 | 52° | 44km/h | 4502m | -1.6m/s | -4.7°C | 11.1% | 586.5hPa | 2.7V | 00:00:00 | 00:00:00 | 00:00:00 | |
| EDDB2-12 | 2026-08-31 07:18:30 | 53.09934 | 16.64009 | 50° | 42km/h | 4511m | -1.9m/s | -4.7°C | 11.1% | 585.9hPa | 2.7V | 00:00:00 | 00:00:00 | 00:00:00 | |
| KRY50SP-1 | 2026-08-31 07:18:28 | 53.09927 | 16.63995 | 50° | 44km/h | 4513m | -1.6m/s | -4.7°C | 11.2% | 585.7hPa | 2.7V | 00:00:00 | 00:00:00 | 00:00:00 | |
| SONDE2-11 | 2026-08-31 07:18:26 | 53.09898 | 16.63941 | 47° | 42km/h | 4520m | -1.8m/s | -4.8°C | 11.7% | 585.2hPa | 2.7V | 00:00:00 | 00:00:00 | 00:00:00 | |
| KRY50SP-1 | 2026-08-31 07:18:23 | 53.09891 | 16.63927 | 50° | 44km/h | 4522m | -1.9m/s | -4.8°C | 11.6% | 585.0hPa | 2.7V | 00:00:00 | 00:00:00 | 00:00:00 | |
| EDDB2-11 | 2026-08-31 07:18:17 | 53.09843 | 16.63821 | 58° | 42km/h | 4535m | -1.6m/s | -4.9°C | 11.5% | 584.0hPa | 2.7V | 00:00:00 | 00:00:00 | 00:00:00 | |
| KRY50SP-1 | 2026-08-31 07:18:11 | 53.09818 | 16.63752 | 57° | 35km/h | 4543m | -1.8m/s | -5.0°C | 11.7% | 583.4hPa | 2.7V | 00:00:00 | 00:00:00 | 00:00:00 | |
| SP3BTT-10 | 2026-08-31 07:18:08 | 53.09797 | 16.63707 | 50° | 37km/h | 4550m | -1.7m/s | -5.0°C | 12.5% | 582.9hPa | 2.7V | 00:00:00 | 00:00:00 | 00:00:00 | |
| KRY50SP-1 | 2026-08-31 07:18:05 | 53.09786 | 16.63686 | 47° | 35km/h | 4554m | -1.7m/s | -5.1°C | 11.7% | 582.6hPa | 2.7V | 00:00:00 | 00:00:00 | 00:00:00 | |
| EDDB2-12 | 2026-08-31 07:17:59 | 53.09737 | 16.63608 | 44° | 42km/h | 4566m | -1.8m/s | -5.2°C | 11.6% | 581.7hPa | 2.7V | 00:00:00 | 00:00:00 | 00:00:00 | |
| SONDE2-11 | 2026-08-31 07:17:55 | 53.09699 | 16.63543 | 45° | 42km/h | 4575m | -1.9m/s | -5.2°C | 11.6% | 581.0hPa | 2.7V | 00:00:00 | 00:00:00 | 00:00:00 | |
| KRY50SP-1 | 2026-08-31 07:17:53 | 53.09698 | 16.63543 | 46° | 44km/h | 4576m | -1.9m/s | -5.2°C | 11.6% | 581.0hPa | 2.7V | 00:00:00 | 00:00:00 | 00:00:00 | |
| KRY50SP-1 | 2026-08-31 07:17:48 | 53.09660 | 16.63478 | 47° | 44km/h | 4585m | -1.8m/s | -5.3°C | 11.5% | 580.3hPa | 2.7V | 00:00:00 | 00:00:00 | 00:00:00 | |
| KRY50SP-1 | 2026-08-31 07:17:42 | 53.09613 | 16.63398 | 46° | 44km/h | 4595m | -1.8m/s | -5.4°C | 10.9% | 579.6hPa | 2.7V | 00:00:00 | 00:00:00 | 00:00:00 | |
| SP3WXH-11 | 2026-08-31 07:17:37 | 53.09564 | 16.63316 | 47° | 46km/h | 4606m | -1.8m/s | -5.4°C | 10.4% | 578.8hPa | 2.7V | 00:00:00 | 00:00:00 | 00:00:00 | |
| KRY50SP-1 | 2026-08-31 07:17:31 | 53.09529 | 16.63239 | 57° | 42km/h | 4614m | -1.6m/s | -5.4°C | 9.9% | 578.2hPa | 2.7V | 00:00:00 | 00:00:00 | 00:00:00 | |
| EDDB2-12 | 2026-08-31 07:17:28 | 53.09506 | 16.63186 | 50° | 35km/h | 4621m | -1.7m/s | -5.6°C | 9.8% | 577.7hPa | 2.7V | 00:00:00 | 00:00:00 | 00:00:00 | |
| KRY50SP-1 | 2026-08-31 07:17:26 | 53.09500 | 16.63175 | 49° | 37km/h | 4623m | -1.9m/s | -5.6°C | 9.8% | 577.6hPa | 2.7V | 00:00:00 | 00:00:00 | 00:00:00 | |
| SONDE2-11 | 2026-08-31 07:17:24 | 53.09473 | 16.63132 | 41° | 37km/h | 4630m | -1.7m/s | -5.6°C | 9.7% | 577.0hPa | 2.7V | 00:00:00 | 00:00:00 | 00:00:00 | |
| SP3BTT-10 | 2026-08-31 07:17:23 | 53.09473 | 16.63132 | 42° | 38km/h | 4630m | -1.6m/s | -5.5°C | 10.4% | 577.0hPa | 2.7V | 00:00:00 | 00:00:00 | 00:00:00 | |
| KRY50SP-1 | 2026-08-31 07:17:16 | 53.09429 | 16.63070 | 40° | 38km/h | 4640m | -1.8m/s | -5.6°C | 10.1% | 576.2hPa | 2.7V | 00:00:00 | 00:00:00 | 00:00:00 | |
| EDDB2-11 | 2026-08-31 07:17:15 | 53.09414 | 16.63049 | 38° | 40km/h | 4644m | -1.8m/s | -5.7°C | 9.7% | 575.9hPa | 2.7V | 00:00:00 | 00:00:00 | 00:00:00 | |
| KRY50SP-1 | 2026-08-31 07:17:10 | 53.09380 | 16.63004 | 41° | 46km/h | 4651m | -1.7m/s | -5.7°C | 9.9% | 575.5hPa | 2.7V | 00:00:00 | 00:00:00 | 00:00:00 | |
| SP3WXH-11 | 2026-08-31 07:17:06 | 53.09337 | 16.62936 | 48° | 47km/h | 4660m | -1.8m/s | -5.7°C | 9.7% | 574.8hPa | 2.7V | 00:00:00 | 00:00:00 | 00:00:00 | |
| KRY50SP-1 | 2026-08-31 07:17:05 | 53.09337 | 16.62936 | 50° | 47km/h | 4660m | -1.8m/s | -5.7°C | 9.7% | 574.8hPa | 2.7V | 00:00:00 | 00:00:00 | 00:00:00 | |
| EDDB2-12 | 2026-08-31 07:16:57 | 53.09280 | 16.62815 | 45° | 35km/h | 4675m | -1.7m/s | -5.9°C | 9.0% | 573.8hPa | 2.7V | 00:00:00 | 00:00:00 | 00:00:00 | |
| SONDE2-11 | 2026-08-31 07:16:53 | 53.09245 | 16.62765 | 37° | 38km/h | 4684m | -1.8m/s | -5.9°C | 8.6% | 573.0hPa | 2.7V | 00:00:00 | 00:00:00 | 00:00:00 | |
| KRY50SP-1 | 2026-08-31 07:16:48 | 53.09220 | 16.62733 | 40° | 44km/h | 4689m | -1.8m/s | -5.9°C | 8.3% | 572.6hPa | 2.7V | 00:00:00 | 00:00:00 | 00:00:00 | |
| EDDB2-11 | 2026-08-31 07:16:44 | 53.09176 | 16.62666 | 47° | 47km/h | 4697m | -1.6m/s | -5.9°C | 8.0% | 572.0hPa | 2.7V | 00:00:00 | 00:00:00 | 00:00:00 | |
| KRY50SP-1 | 2026-08-31 07:16:43 | 53.09176 | 16.62666 | 49° | 47km/h | 4697m | -1.6m/s | -5.9°C | 8.0% | 572.0hPa | 2.7V | 00:00:00 | 00:00:00 | 00:00:00 | |
| KRY50SP-1 | 2026-08-31 07:16:38 | 53.09141 | 16.62592 | 55° | 40km/h | 4706m | -1.6m/s | -6.0°C | 8.5% | 571.4hPa | 2.7V | 00:00:00 | 00:00:00 | 00:00:00 | |
| SP3WXH-11 | 2026-08-31 07:16:35 | 53.09117 | 16.62542 | 48° | 35km/h | 4712m | -1.8m/s | -6.0°C | 8.1% | 571.1hPa | 2.7V | 00:00:00 | 00:00:00 | 00:00:00 | |
| KRY50SP-1 | 2026-08-31 07:16:32 | 53.09105 | 16.62521 | 46° | 35km/h | 4716m | -1.7m/s | -6.0°C | 7.6% | 570.7hPa | 2.7V | 00:00:00 | 00:00:00 | 00:00:00 | |
| KRY50SP-1 | 2026-08-31 07:16:27 | 53.09070 | 16.62472 | 36° | 38km/h | 4725m | -1.7m/s | -6.0°C | 8.1% | 570.1hPa | 2.7V | 00:00:00 | 00:00:00 | 00:00:00 | |
| EDDB2-12 | 2026-08-31 07:16:26 | 53.09053 | 16.62453 | 35° | 42km/h | 4728m | -1.7m/s | -6.1°C | 8.4% | 569.8hPa | 2.7V | 00:00:00 | 00:00:00 | 00:00:00 | |
| SP3BTT-10 | 2026-08-31 07:16:23 | 53.09026 | 16.62419 | 40° | 40km/h | 4733m | -1.5m/s | -6.0°C | 10.3% | 569.4hPa | 2.7V | 00:00:00 | 00:00:00 | 00:00:00 | |
| SONDE2-11 | 2026-08-31 07:16:21 | 53.09009 | 16.62392 | 44° | 46km/h | 4736m | -1.6m/s | -6.0°C | 10.1% | 569.2hPa | 2.7V | 00:00:00 | 00:00:00 | 00:00:00 | |
| KRY50SP-1 | 2026-08-31 07:16:16 | 53.08979 | 16.62335 | 53° | 42km/h | 4742m | -1.6m/s | -6.2°C | 10.3% | 568.7hPa | 2.7V | 00:00:00 | 00:00:00 | 00:00:00 | |
| EDDB2-11 | 2026-08-31 07:16:13 | 53.08954 | 16.62283 | 50° | 37km/h | 4749m | -1.5m/s | -6.2°C | 10.5% | 568.3hPa | 2.7V | 00:00:00 | 00:00:00 | 00:00:00 | |
| KRY50SP-1 | 2026-08-31 07:16:11 | 53.08948 | 16.62271 | 51° | 37km/h | 4750m | -1.6m/s | -6.2°C | 10.6% | 568.2hPa | 2.7V | 00:00:00 | 00:00:00 | 00:00:00 | |
| KRY50SP-1 | 2026-08-31 07:16:05 | 53.08908 | 16.62209 | 39° | 38km/h | 4760m | -1.5m/s | -6.3°C | 10.9% | 567.5hPa | 2.7V | 00:00:00 | 00:00:00 | 00:00:00 | |
| SP3WXH-11 | 2026-08-31 07:16:04 | 53.08892 | 16.62189 | 36° | 38km/h | 4763m | -1.4m/s | -6.3°C | 11.1% | 567.2hPa | 2.7V | 00:00:00 | 00:00:00 | 00:00:00 | |
| SONDE2-11 | 2026-08-31 07:15:50 | 53.08775 | 16.62016 | 52° | 42km/h | 4786m | -1.6m/s | -6.4°C | 12.1% | 565.6hPa | 2.7V | 00:00:00 | 00:00:00 | 00:00:00 | |
| KRY50SP-1 | 2026-08-31 07:15:48 | 53.08769 | 16.62003 | 54° | 40km/h | 4788m | -1.6m/s | -6.4°C | 12.2% | 565.4hPa | 2.7V | 00:00:00 | 00:00:00 | 00:00:00 | |
| EDDB2-11 | 2026-08-31 07:15:42 | 53.08725 | 16.61924 | 38° | 35km/h | 4798m | -1.6m/s | -6.4°C | 11.4% | 564.7hPa | 2.7V | 00:00:00 | 00:00:00 | 00:00:00 | |
| SP3BTT-10 | 2026-08-31 07:15:37 | 53.08684 | 16.61875 | 36° | 44km/h | 4806m | -1.5m/s | -6.4°C | 8.4% | 564.1hPa | 2.7V | 00:00:00 | 00:00:00 | 00:00:00 | |
| SP3WXH-11 | 2026-08-31 07:15:33 | 53.08639 | 16.61814 | 43° | 47km/h | 4815m | -1.6m/s | -6.5°C | 9.9% | 563.5hPa | 2.7V | 00:00:00 | 00:00:00 | 00:00:00 | |
| KRY50SP-1 | 2026-08-31 07:15:25 | 53.08593 | 16.61728 | 53° | 42km/h | 4824m | -1.5m/s | -6.5°C | 10.5% | 562.8hPa | 2.7V | 00:00:00 | 00:00:00 | 00:00:00 | |
| EDDB2-12 | 2026-08-31 07:15:24 | 53.08581 | 16.61702 | 50° | 38km/h | 4827m | -1.5m/s | -6.5°C | 10.4% | 562.6hPa | 2.7V | 00:00:00 | 00:00:00 | 00:00:00 | |
| KRY50SP-1 | 2026-08-31 07:15:20 | 53.08562 | 16.61667 | 45° | 37km/h | 4832m | -1.6m/s | -6.6°C | 10.4% | 562.3hPa | 2.7V | 00:00:00 | 00:00:00 | 00:00:00 | |
| SONDE2-11 | 2026-08-31 07:15:19 | 53.08548 | 16.61647 | 39° | 38km/h | 4835m | -1.5m/s | -6.6°C | 10.4% | 562.1hPa | 2.7V | 00:00:00 | 00:00:00 | 00:00:00 | |
| KRY50SP-1 | 2026-08-31 07:15:14 | 53.08515 | 16.61604 | 38° | 44km/h | 4841m | -1.6m/s | -6.6°C | 10.4% | 561.6hPa | 2.7V | 00:00:00 | 00:00:00 | 00:00:00 | |
| EDDB2-11 | 2026-08-31 07:15:11 | 53.08478 | 16.61559 | 37° | 46km/h | 4847m | -1.5m/s | -6.7°C | 10.2% | 561.2hPa | 2.7V | 00:00:00 | 00:00:00 | 00:00:00 | |
| KRY50SP-1 | 2026-08-31 07:15:08 | 53.08460 | 16.61534 | 40° | 47km/h | 4850m | -1.7m/s | -6.7°C | 10.1% | 560.9hPa | 2.7V | 00:00:00 | 00:00:00 | 00:00:00 | |
| SP3WXH-11 | 2026-08-31 07:15:02 | 53.08387 | 16.61423 | 47° | 49km/h | 4863m | -1.5m/s | -6.8°C | 9.5% | 560.0hPa | 2.7V | 00:00:00 | 00:00:00 | 00:00:00 | |
| EDDB2-12 | 2026-08-31 07:14:53 | 53.08330 | 16.61307 | 48° | 37km/h | 4875m | -1.7m/s | -6.9°C | 8.3% | 559.1hPa | 2.7V | 00:00:00 | 00:00:00 | 00:00:00 | |
| SONDE2-11 | 2026-08-31 07:14:48 | 53.08293 | 16.61253 | 36° | 42km/h | 4883m | -1.4m/s | -7.0°C | 7.9% | 558.6hPa | 2.7V | 00:00:00 | 00:00:00 | 00:00:00 | |
| KRY50SP-1 | 2026-08-31 07:14:46 | 53.08284 | 16.61242 | 37° | 44km/h | 4884m | -1.6m/s | -6.9°C | 7.9% | 558.5hPa | 2.7V | 00:00:00 | 00:00:00 | 00:00:00 | |
| KRY50SP-1 | 2026-08-31 07:14:41 | 53.08237 | 16.61184 | 40° | 49km/h | 4892m | -1.5m/s | -7.0°C | 8.2% | 557.9hPa | 2.7V | 00:00:00 | 00:00:00 | 00:00:00 | |
| EDDB2-11 | 2026-08-31 07:14:40 | 53.08219 | 16.61157 | 42° | 47km/h | 4895m | -1.5m/s | -7.0°C | 8.2% | 557.7hPa | 2.7V | 00:00:00 | 00:00:00 | 00:00:00 | |
| KRY50SP-1 | 2026-08-31 07:14:35 | 53.08185 | 16.61098 | 50° | 47km/h | 4901m | -1.5m/s | -7.0°C | 8.6% | 557.3hPa | 2.7V | 00:00:00 | 00:00:00 | 00:00:00 | |
| 3Z3Z-3 | 2026-08-31 07:14:32 | 53.08162 | 16.61053 | 50° | 47km/h | 4906m | -1.6m/s | -7.1°C | 8.9% | 556.9hPa | 2.7V | 00:00:00 | 00:00:00 | 00:00:00 | |
| KRY50SP-1 | 2026-08-31 07:14:30 | 53.08146 | 16.61023 | 50° | 47km/h | 4909m | -1.5m/s | -7.1°C | 9.1% | 556.7hPa | 2.7V | 00:00:00 | 00:00:00 | 00:00:00 | |
| KRY50SP-1 | 2026-08-31 07:14:24 | 53.08097 | 16.60932 | 50° | 47km/h | 4918m | -1.4m/s | -7.1°C | 9.3% | 556.0hPa | 2.7V | 00:00:00 | 00:00:00 | 00:00:00 | |
| EDDB2-12 | 2026-08-31 07:14:22 | 53.08074 | 16.60887 | 49° | 46km/h | 4922m | -1.5m/s | -7.2°C | 9.4% | 555.7hPa | 2.7V | 00:00:00 | 00:00:00 | 00:00:00 | |
| KRY50SP-1 | 2026-08-31 07:14:18 | 53.08051 | 16.60842 | 52° | 47km/h | 4927m | -1.6m/s | -7.2°C | 9.5% | 555.4hPa | 2.7V | 00:00:00 | 00:00:00 | 00:00:00 | |
| SONDE2-11 | 2026-08-31 07:14:17 | 53.08036 | 16.60811 | 52° | 46km/h | 4930m | -1.6m/s | -7.3°C | 9.5% | 555.2hPa | 2.7V | 00:00:00 | 00:00:00 | 00:00:00 | |
| KRY50SP-1 | 2026-08-31 07:14:13 | 53.08014 | 16.60764 | 55° | 44km/h | 4935m | -1.6m/s | -7.3°C | 9.6% | 554.9hPa | 2.7V | 00:00:00 | 00:00:00 | 00:00:00 | |
| EDDB2-11 | 2026-08-31 07:14:09 | 53.07981 | 16.60698 | 43° | 38km/h | 4942m | -1.4m/s | -7.4°C | 9.7% | 554.2hPa | 2.7V | 00:00:00 | 00:00:00 | 00:00:00 | |
| KRY50SP-1 | 2026-08-31 07:14:08 | 53.07981 | 16.60698 | 45° | 40km/h | 4942m | -1.4m/s | -7.4°C | 9.7% | 554.2hPa | 2.7V | 00:00:00 | 00:00:00 | 00:00:00 | |
| SP3BTT-10 | 2026-08-31 07:14:07 | 53.07966 | 16.60675 | 40° | 46km/h | 4945m | -1.4m/s | -7.4°C | 10.5% | 554.1hPa | 2.7V | 00:00:00 | 00:00:00 | 00:00:00 | |
| KRY50SP-1 | 2026-08-31 07:14:02 | 53.07930 | 16.60629 | 38° | 47km/h | 4951m | -1.4m/s | -7.4°C | 10.0% | 553.7hPa | 2.7V | 00:00:00 | 00:00:00 | 00:00:00 | |
| SP3WXH-11 | 2026-08-31 07:14:00 | 53.07891 | 16.60580 | 37° | 49km/h | 4958m | -1.6m/s | -7.5°C | 10.0% | 553.2hPa | 2.7V | 00:00:00 | 00:00:00 | 00:00:00 | |
| EDDB2-12 | 2026-08-31 07:13:51 | 53.07815 | 16.60462 | 49° | 49km/h | 4970m | -1.8m/s | -7.6°C | 10.0% | 552.3hPa | 2.7V | 00:00:00 | 00:00:00 | 00:00:00 | |
| SONDE2-11 | 2026-08-31 07:13:46 | 53.07778 | 16.60386 | 50° | 40km/h | 4979m | -1.5m/s | -7.6°C | 10.1% | 551.7hPa | 2.7V | 00:00:00 | 00:00:00 | 00:00:00 | |
| KRY50SP-1 | 2026-08-31 07:13:40 | 53.07740 | 16.60327 | 39° | 42km/h | 4987m | -1.7m/s | -7.7°C | 10.2% | 551.2hPa | 2.7V | 00:00:00 | 00:00:00 | 00:00:00 | |
| EDDB2-11 | 2026-08-31 07:13:38 | 53.07713 | 16.60293 | 36° | 46km/h | 4991m | -1.7m/s | -7.8°C | 10.2% | 550.9hPa | 2.7V | 00:00:00 | 00:00:00 | 00:00:00 | |
| KRY50SP-1 | 2026-08-31 07:13:35 | 53.07693 | 16.60268 | 39° | 49km/h | 4995m | -1.6m/s | -7.8°C | 10.3% | 550.5hPa | 2.7V | 00:00:00 | 00:00:00 | 00:00:00 | |
| SP3WXH-11 | 2026-08-31 07:13:29 | 53.07618 | 16.60147 | 50° | 49km/h | 5007m | -1.6m/s | -7.9°C | 10.6% | 549.6hPa | 2.7V | 00:00:00 | 00:00:00 | 00:00:00 | |
| KRY50SP-1 | 2026-08-31 07:13:24 | 53.07588 | 16.60086 | 52° | 42km/h | 5014m | -1.6m/s | -7.9°C | 10.8% | 549.2hPa | 2.7V | 00:00:00 | 00:00:00 | 00:00:00 | |
| EDDB2-12 | 2026-08-31 07:13:20 | 53.07560 | 16.60036 | 41° | 40km/h | 5021m | -1.7m/s | -8.0°C | 11.3% | 548.6hPa | 2.7V | 00:00:00 | 00:00:00 | 00:00:00 | |
| KRY50SP-1 | 2026-08-31 07:13:18 | 53.07552 | 16.60024 | 41° | 42km/h | 5023m | -1.8m/s | -8.1°C | 11.4% | 548.7hPa | 2.7V | 00:00:00 | 00:00:00 | 00:00:00 | |
| SONDE2-11 | 2026-08-31 07:13:15 | 53.07517 | 16.59977 | 38° | 47km/h | 5029m | -1.7m/s | -8.1°C | 11.2% | 548.1hPa | 2.7V | 00:00:00 | 00:00:00 | 00:00:00 | |
| KRY50SP-1 | 2026-08-31 07:13:12 | 53.07498 | 16.59951 | 40° | 49km/h | 5032m | -1.6m/s | -8.2°C | 10.5% | 548.0hPa | 2.7V | 00:00:00 | 00:00:00 | 00:00:00 | |
| EDDB2-11 | 2026-08-31 07:13:07 | 53.07440 | 16.59873 | 38° | 49km/h | 5042m | -1.7m/s | -8.2°C | 11.6% | 547.2hPa | 2.7V | 00:00:00 | 00:00:00 | 00:00:00 | |
| KRY50SP-1 | 2026-08-31 07:13:06 | 53.07440 | 16.59873 | 40° | 49km/h | 5042m | -1.7m/s | -8.2°C | 11.7% | 547.2hPa | 2.7V | 00:00:00 | 00:00:00 | 00:00:00 | |
| SP3WXH-11 | 2026-08-31 07:12:58 | 53.07348 | 16.59755 | 39° | 40km/h | 5059m | -1.6m/s | -8.4°C | 11.6% | 546.0hPa | 2.7V | 00:00:00 | 00:00:00 | 00:00:00 | |
| EDDB2-12 | 2026-08-31 07:12:49 | 53.07289 | 16.59658 | 48° | 42km/h | 5072m | -1.5m/s | -8.4°C | 12.0% | 545.1hPa | 2.7V | 00:00:00 | 00:00:00 | 00:00:00 | |
| KRY50SP-1 | 2026-08-31 07:12:45 | 53.07267 | 16.59616 | 52° | 44km/h | 5078m | -1.8m/s | -8.5°C | 12.4% | 544.9hPa | 2.7V | 00:00:00 | 00:00:00 | 00:00:00 | |
| SONDE2-11 | 2026-08-31 07:12:44 | 53.07253 | 16.59587 | 51° | 46km/h | 5081m | -1.5m/s | -8.5°C | 12.4% | 544.5hPa | 2.7V | 00:00:00 | 00:00:00 | 00:00:00 | |
| 3Z3Z-3 | 2026-08-31 07:12:39 | 53.07223 | 16.59525 | 53° | 47km/h | 5088m | -1.7m/s | -8.6°C | 12.4% | 544.1hPa | 2.7V | 00:00:00 | 00:00:00 | 00:00:00 | |
| EDDB2-11 | 2026-08-31 07:12:36 | 53.07191 | 16.59461 | 48° | 49km/h | 5094m | -1.6m/s | -8.7°C | 12.3% | 543.6hPa | 2.7V | 00:00:00 | 00:00:00 | 00:00:00 | |
| KRY50SP-1 | 2026-08-31 07:12:33 | 53.07173 | 16.59430 | 46° | 53km/h | 5097m | -1.7m/s | -8.7°C | 12.4% | 543.3hPa | 2.7V | 00:00:00 | 00:00:00 | 00:00:00 | |
| KRY50SP-1 | 2026-08-31 07:12:27 | 53.07116 | 16.59340 | 43° | 53km/h | 5108m | -1.8m/s | -8.8°C | 12.6% | 542.6hPa | 2.7V | 00:00:00 | 00:00:00 | 00:00:00 | |
| 3Z3Z-3 | 2026-08-31 07:12:26 | 53.07106 | 16.59325 | 43° | 53km/h | 5110m | -1.8m/s | -8.8°C | 12.7% | 542.5hPa | 2.7V | 00:00:00 | 00:00:00 | 00:00:00 | |
| KRY50SP-1 | 2026-08-31 07:12:22 | 53.07066 | 16.59269 | 39° | 49km/h | 5117m | -1.7m/s | -8.9°C | 12.9% | 542.0hPa | 2.7V | 00:00:00 | 00:00:00 | 00:00:00 | |
| EDDB2-12 | 2026-08-31 07:12:18 | 53.07017 | 16.59208 | 36° | 46km/h | 5126m | -1.6m/s | -8.9°C | 13.0% | 541.3hPa | 2.7V | 00:00:00 | 00:00:00 | 00:00:00 | |
| KRY50SP-1 | 2026-08-31 07:12:17 | 53.07016 | 16.59208 | 38° | 47km/h | 5126m | -1.6m/s | -8.9°C | 13.1% | 541.3hPa | 2.7V | 00:00:00 | 00:00:00 | 00:00:00 | |
| SONDE2-11 | 2026-08-31 07:12:13 | 53.06972 | 16.59151 | 39° | 42km/h | 5135m | -1.8m/s | -9.0°C | 13.2% | 540.7hPa | 2.7V | 00:00:00 | 00:00:00 | 00:00:00 | |
| KRY50SP-1 | 2026-08-31 07:12:12 | 53.06972 | 16.59151 | 40° | 42km/h | 5135m | -1.8m/s | -9.0°C | 13.2% | 540.7hPa | 2.7V | 00:00:00 | 00:00:00 | 00:00:00 | |
| 3Z3Z-3 | 2026-08-31 07:12:09 | 53.06948 | 16.59117 | 44° | 42km/h | 5140m | -1.8m/s | -9.1°C | 13.3% | 540.4hPa | 2.7V | 00:00:00 | 00:00:00 | 00:00:00 | |
| KRY50SP-1 | 2026-08-31 07:12:06 | 53.06925 | 16.59079 | 48° | 42km/h | 5146m | -1.5m/s | -9.1°C | 13.4% | 539.9hPa | 2.7V | 00:00:00 | 00:00:00 | 00:00:00 | |
| SP3WXH-11 | 2026-08-31 07:11:56 | 53.06830 | 16.58898 | 48° | 51km/h | 5168m | -1.8m/s | -9.3°C | 13.7% | 538.5hPa | 2.7V | 00:00:00 | 00:00:00 | 00:00:00 | |
| EDDB2-12 | 2026-08-31 07:11:47 | 53.06745 | 16.58754 | 40° | 53km/h | 5185m | -1.6m/s | -9.4°C | 13.8% | 537.3hPa | 2.7V | 00:00:00 | 00:00:00 | 00:00:00 | |
| KRY50SP-1 | 2026-08-31 07:11:44 | 53.06735 | 16.58740 | 41° | 53km/h | 5186m | -1.8m/s | -9.4°C | 13.8% | 537.2hPa | 2.7V | 00:00:00 | 00:00:00 | 00:00:00 | |
| SONDE2-11 | 2026-08-31 07:11:42 | 53.06704 | 16.58699 | 38° | 49km/h | 5192m | -1.6m/s | -9.5°C | 13.8% | 536.8hPa | 2.7V | 00:00:00 | 00:00:00 | 00:00:00 | |
| KRY50SP-1 | 2026-08-31 07:11:38 | 53.06675 | 16.58662 | 38° | 47km/h | 5197m | -1.6m/s | -9.5°C | 13.9% | 536.5hPa | 2.7V | 00:00:00 | 00:00:00 | 00:00:00 | |
| 3Z3Z-3 | 2026-08-31 07:11:37 | 53.06665 | 16.58649 | 37° | 47km/h | 5199m | -1.8m/s | -9.5°C | 13.9% | 536.3hPa | 2.7V | 00:00:00 | 00:00:00 | 00:00:00 | |
| EDDB2-11 | 2026-08-31 07:11:34 | 53.06621 | 16.58591 | 41° | 42km/h | 5208m | -1.8m/s | -9.6°C | 14.0% | 535.7hPa | 2.7V | 00:00:00 | 00:00:00 | 00:00:00 | |
| KRY50SP-1 | 2026-08-31 07:11:32 | 53.06621 | 16.58590 | 43° | 44km/h | 5208m | -1.8m/s | -9.6°C | 14.0% | 535.7hPa | 2.7V | 00:00:00 | 00:00:00 | 00:00:00 | |
| KRY50SP-1 | 2026-08-31 07:11:26 | 53.06575 | 16.58511 | 50° | 46km/h | 5218m | -1.9m/s | -9.7°C | 13.9% | 534.9hPa | 2.7V | 00:00:00 | 00:00:00 | 00:00:00 | |
| SP3WXH-11 | 2026-08-31 07:11:25 | 53.06552 | 16.58467 | 50° | 46km/h | 5224m | -2.0m/s | -9.7°C | 13.9% | 534.6hPa | 2.7V | 00:00:00 | 00:00:00 | 00:00:00 | |
| KRY50SP-1 | 2026-08-31 07:11:20 | 53.06528 | 16.58419 | 52° | 51km/h | 5230m | -1.7m/s | -9.7°C | 13.7% | 534.2hPa | 2.7V | 00:00:00 | 00:00:00 | 00:00:00 | |
| KRY50SP-1 | 2026-08-31 07:11:15 | 53.06485 | 16.58336 | 50° | 55km/h | 5239m | -1.6m/s | -9.8°C | 13.7% | 533.7hPa | 2.7V | 00:00:00 | 00:00:00 | 00:00:00 | |
| SONDE2-11 | 2026-08-31 07:11:11 | 53.06438 | 16.58252 | 45° | 55km/h | 5248m | -2.0m/s | -9.9°C | 9.4% | 533.0hPa | 2.7V | 00:00:00 | 00:00:00 | 00:00:00 | |
| KRY50SP-1 | 2026-08-31 07:11:09 | 53.06428 | 16.58235 | 45° | 55km/h | 5250m | -2.0m/s | -9.9°C | 8.8% | 532.8hPa | 2.7V | 00:00:00 | 00:00:00 | 00:00:00 | |
| 3Z3Z-3 | 2026-08-31 07:11:04 | 53.06376 | 16.58159 | 40° | 55km/h | 5259m | -1.8m/s | -9.9°C | 8.8% | 532.2hPa | 2.7V | 00:00:00 | 00:00:00 | 00:00:00 | |
| EDDB2-11 | 2026-08-31 07:11:03 | 53.06345 | 16.58116 | 38° | 51km/h | 5264m | -1.7m/s | -10.0°C | 9.4% | 531.8hPa | 2.7V | 00:00:00 | 00:00:00 | 00:00:00 | |
| KRY50SP-1 | 2026-08-31 07:10:58 | 53.06314 | 16.58077 | 39° | 51km/h | 5270m | -1.7m/s | -10.0°C | 11.0% | 531.5hPa | 2.7V | 00:00:00 | 00:00:00 | 00:00:00 | |
| KRY50SP-1 | 2026-08-31 07:10:53 | 53.06266 | 16.58015 | 40° | 46km/h | 5279m | -1.7m/s | -10.1°C | 8.7% | 530.8hPa | 2.7V | 00:00:00 | 00:00:00 | 00:00:00 | |
| KRY50SP-1 | 2026-08-31 07:10:48 | 53.06224 | 16.57951 | 48° | 44km/h | 5288m | -1.8m/s | -10.2°C | 9.1% | 530.2hPa | 2.7V | 00:00:00 | 00:00:00 | 00:00:00 | |
| EDDB2-12 | 2026-08-31 07:10:45 | 53.06187 | 16.57879 | 49° | 46km/h | 5297m | -1.8m/s | -10.2°C | 10.0% | 529.5hPa | 2.7V | 00:00:00 | 00:00:00 | 00:00:00 | |
| KRY50SP-1 | 2026-08-31 07:10:42 | 53.06179 | 16.57864 | 52° | 47km/h | 5300m | -2.0m/s | -10.3°C | 10.1% | 529.5hPa | 2.7V | 00:00:00 | 00:00:00 | 00:00:00 | |
| SONDE2-11 | 2026-08-31 07:10:40 | 53.06148 | 16.57800 | 51° | 51km/h | 5307m | -2.0m/s | -10.3°C | 10.0% | 528.9hPa | 2.7V | 00:00:00 | 00:00:00 | 00:00:00 | |
| KRY50SP-1 | 2026-08-31 07:10:37 | 53.06140 | 16.57784 | 51° | 51km/h | 5309m | -1.9m/s | -10.3°C | 10.1% | 528.8hPa | 2.7V | 00:00:00 | 00:00:00 | 00:00:00 | |
| SP3BTT-10 | 2026-08-31 07:10:36 | 53.06123 | 16.57750 | 51° | 51km/h | 5313m | -2.0m/s | -10.3°C | 11.5% | 528.5hPa | 2.7V | 00:00:00 | 00:00:00 | 00:00:00 | |
| KRY50SP-1 | 2026-08-31 07:10:31 | 53.06087 | 16.57681 | 50° | 55km/h | 5320m | -1.7m/s | -10.4°C | 11.5% | 528.1hPa | 2.7V | 00:00:00 | 00:00:00 | 00:00:00 | |
| KRY50SP-1 | 2026-08-31 07:10:25 | 53.06030 | 16.57578 | 46° | 57km/h | 5331m | -1.8m/s | -10.5°C | 12.6% | 527.3hPa | 2.7V | 00:00:00 | 00:00:00 | 00:00:00 | |
| 3Z3Z-3 | 2026-08-31 07:10:23 | 53.05999 | 16.57527 | 45° | 57km/h | 5337m | -1.9m/s | -10.6°C | 12.7% | 527.0hPa | 2.7V | 00:00:00 | 00:00:00 | 00:00:00 | |
| KRY50SP-1 | 2026-08-31 07:10:20 | 53.05978 | 16.57495 | 43° | 57km/h | 5340m | -1.8m/s | -10.6°C | 12.9% | 526.7hPa | 2.7V | 00:00:00 | 00:00:00 | 00:00:00 | |
| EDDB2-12 | 2026-08-31 07:10:14 | 53.05895 | 16.57379 | 38° | 49km/h | 5355m | -1.7m/s | -10.7°C | 14.0% | 525.7hPa | 2.7V | 00:00:00 | 00:00:00 | 00:00:00 | |
| 3Z3Z-3 | 2026-08-31 07:10:11 | 53.05885 | 16.57366 | 40° | 49km/h | 5357m | -1.8m/s | -10.7°C | 14.2% | 525.5hPa | 2.7V | 00:00:00 | 00:00:00 | 00:00:00 | |
| SONDE2-11 | 2026-08-31 07:10:09 | 53.05857 | 16.57327 | 40° | 46km/h | 5363m | -1.6m/s | -10.8°C | 14.5% | 525.1hPa | 2.7V | 00:00:00 | 00:00:00 | 00:00:00 | |
| SP3BTT-10 | 2026-08-31 07:10:06 | 53.05832 | 16.57288 | 45° | 55km/h | 5368m | -1.4m/s | -10.8°C | 16.0% | 524.7hPa | 2.7V | 00:00:00 | 00:00:00 | 00:00:00 | |
| KRY50SP-1 | 2026-08-31 07:10:04 | 53.05824 | 16.57275 | 46° | 46km/h | 5370m | -1.6m/s | -10.9°C | 14.6% | 524.7hPa | 2.7V | 00:00:00 | 00:00:00 | 00:00:00 | |
| EDDB2-11 | 2026-08-31 07:10:01 | 53.05785 | 16.57200 | 49° | 49km/h | 5378m | -1.7m/s | -10.9°C | 14.9% | 524.0hPa | 2.7V | 00:00:00 | 00:00:00 | 00:00:00 | |
| SP3WXH-11 | 2026-08-31 07:09:51 | 53.05712 | 16.57044 | 50° | 57km/h | 5395m | -1.7m/s | -11.1°C | 15.1% | 522.9hPa | 2.7V | 00:00:00 | 00:00:00 | 00:00:00 | |
| 3Z3Z-3 | 2026-08-31 07:09:50 | 53.05711 | 16.57044 | 51° | 57km/h | 5395m | -1.7m/s | -11.1°C | 15.1% | 522.9hPa | 2.7V | 00:00:00 | 00:00:00 | 00:00:00 | |
| KRY50SP-1 | 2026-08-31 07:09:47 | 53.05682 | 16.56990 | 48° | 58km/h | 5400m | -1.7m/s | -11.1°C | 14.6% | 522.5hPa | 2.7V | 00:00:00 | 00:00:00 | 00:00:00 | |
| EDDB2-12 | 2026-08-31 07:09:43 | 53.05619 | 16.56889 | 39° | 58km/h | 5411m | -1.4m/s | -11.2°C | 14.3% | 521.8hPa | 2.7V | 00:00:00 | 00:00:00 | 00:00:00 | |
| KRY50SP-1 | 2026-08-31 07:09:41 | 53.05619 | 16.56889 | 41° | 58km/h | 5411m | -1.4m/s | -11.2°C | 14.3% | 521.8hPa | 2.7V | 00:00:00 | 00:00:00 | 00:00:00 | |
| 3Z3Z-3 | 2026-08-31 07:09:40 | 53.05608 | 16.56873 | 42° | 57km/h | 5413m | -1.9m/s | -11.2°C | 14.4% | 521.7hPa | 2.7V | 00:00:00 | 00:00:00 | 00:00:00 | |
| SONDE2-11 | 2026-08-31 07:09:38 | 53.05565 | 16.56816 | 37° | 53km/h | 5420m | -1.7m/s | -11.3°C | 14.7% | 521.2hPa | 2.7V | 00:00:00 | 00:00:00 | 00:00:00 | |
| SP3BTT-10 | 2026-08-31 07:09:36 | 53.05555 | 16.56802 | 39° | 51km/h | 5421m | -1.9m/s | -11.2°C | 16.0% | 521.1hPa | 2.7V | 00:00:00 | 00:00:00 | 00:00:00 | |
| KRY50SP-1 | 2026-08-31 07:09:35 | 53.05555 | 16.56802 | 40° | 51km/h | 5421m | -1.9m/s | -11.3°C | 14.7% | 521.1hPa | 2.7V | 00:00:00 | 00:00:00 | 00:00:00 | |
| EDDB2-11 | 2026-08-31 07:09:30 | 53.05489 | 16.56708 | 46° | 47km/h | 5434m | -1.7m/s | -11.4°C | 14.2% | 520.3hPa | 2.7V | 00:00:00 | 00:00:00 | 00:00:00 | |
| 3Z3Z-3 | 2026-08-31 07:09:28 | 53.05489 | 16.56708 | 47° | 47km/h | 5434m | -1.7m/s | -11.4°C | 14.2% | 520.3hPa | 2.7V | 00:00:00 | 00:00:00 | 00:00:00 | |
| KRY50SP-1 | 2026-08-31 07:09:25 | 53.05465 | 16.56663 | 51° | 49km/h | 5439m | -1.6m/s | -11.4°C | 14.2% | 520.0hPa | 2.7V | 00:00:00 | 00:00:00 | 00:00:00 | |
| KRY50SP-1 | 2026-08-31 07:09:20 | 53.05424 | 16.56580 | 54° | 53km/h | 5448m | -1.9m/s | -11.5°C | 14.1% | 519.4hPa | 2.7V | 00:00:00 | 00:00:00 | 00:00:00 | |
| 3Z3Z-3 | 2026-08-31 07:09:18 | 53.05408 | 16.56544 | 53° | 53km/h | 5451m | -1.5m/s | -11.5°C | 13.4% | 519.1hPa | 2.7V | 00:00:00 | 00:00:00 | 00:00:00 | |
| EDDB2-12 | 2026-08-31 07:09:12 | 53.05333 | 16.56398 | 48° | 58km/h | 5464m | -1.6m/s | -11.6°C | 13.3% | 518.2hPa | 2.7V | 00:00:00 | 00:00:00 | 00:00:00 | |
| KRY50SP-1 | 2026-08-31 07:09:08 | 53.05313 | 16.56360 | 49° | 60km/h | 5468m | -1.5m/s | -11.7°C | 13.4% | 518.1hPa | 2.7V | 00:00:00 | 00:00:00 | 00:00:00 | |
| SONDE2-11 | 2026-08-31 07:09:07 | 53.05282 | 16.56306 | 45° | 58km/h | 5472m | -1.7m/s | -11.7°C | 13.7% | 517.7hPa | 2.7V | 00:00:00 | 00:00:00 | 00:00:00 | |
| KRY50SP-1 | 2026-08-31 07:09:03 | 53.05261 | 16.56271 | 44° | 60km/h | 5476m | -1.4m/s | -11.7°C | 13.6% | 517.4hPa | 2.7V | 00:00:00 | 00:00:00 | 00:00:00 | |
| EDDB2-11 | 2026-08-31 07:08:59 | 53.05195 | 16.56178 | 38° | 55km/h | 5486m | -1.5m/s | -11.8°C | 13.8% | 516.8hPa | 2.7V | 00:00:00 | 00:00:00 | 00:00:00 | |
| SP3WXH-11 | 2026-08-31 07:08:49 | 53.05108 | 16.56049 | 46° | 47km/h | 5500m | -1.6m/s | -11.9°C | 14.6% | 515.8hPa | 2.7V | 00:00:00 | 00:00:00 | 00:00:00 | |
| KRY50SP-1 | 2026-08-31 07:08:47 | 53.05099 | 16.56034 | 49° | 49km/h | 5502m | -1.8m/s | -11.9°C | 14.5% | 515.7hPa | 2.7V | 00:00:00 | 00:00:00 | 00:00:00 | |
| 3Z3Z-3 | 2026-08-31 07:08:44 | 53.05075 | 16.55989 | 50° | 49km/h | 5507m | -1.7m/s | -12.0°C | 12.9% | 515.4hPa | 2.7V | 00:00:00 | 00:00:00 | 00:00:00 | |
| KRY50SP-1 | 2026-08-31 07:08:41 | 53.05051 | 16.55940 | 53° | 51km/h | 5511m | -1.7m/s | -12.0°C | 12.7% | 515.2hPa | 2.7V | 00:00:00 | 00:00:00 | 00:00:00 | |
| EDDB2-12 | 2026-08-31 07:08:40 | 53.05035 | 16.55906 | 52° | 51km/h | 5515m | -1.7m/s | -12.0°C | 12.9% | 514.9hPa | 2.7V | 00:00:00 | 00:00:00 | 00:00:00 | |
| SP3BTT-10 | 2026-08-31 07:08:36 | 53.05001 | 16.55834 | 51° | 58km/h | 5521m | -1.3m/s | -12.0°C | 13.9% | 514.4hPa | 2.7V | 00:00:00 | 00:00:00 | 00:00:00 | |
| KRY50SP-1 | 2026-08-31 07:08:35 | 53.05001 | 16.55834 | 52° | 57km/h | 5521m | -1.3m/s | -12.1°C | 12.7% | 514.4hPa | 2.7V | 00:00:00 | 00:00:00 | 00:00:00 | |
| 3Z3Z-3 | 2026-08-31 07:08:34 | 53.04992 | 16.55815 | 54° | 57km/h | 5523m | -1.6m/s | -12.1°C | 12.7% | 514.3hPa | 2.7V | 00:00:00 | 00:00:00 | 00:00:00 | |
| KRY50SP-1 | 2026-08-31 07:08:29 | 53.04947 | 16.55719 | 52° | 60km/h | 5531m | -1.7m/s | -12.2°C | 13.4% | 513.9hPa | 2.7V | 00:00:00 | 00:00:00 | 00:00:00 | |
| EDDB2-11 | 2026-08-31 07:08:27 | 53.04917 | 16.55662 | 48° | 60km/h | 5535m | -1.7m/s | -12.2°C | 13.7% | 513.5hPa | 2.7V | 00:00:00 | 00:00:00 | 00:00:00 | |
| KRY50SP-1 | 2026-08-31 07:08:24 | 53.04897 | 16.55624 | 48° | 60km/h | 5539m | -1.3m/s | -12.2°C | 13.8% | 513.3hPa | 2.7V | 00:00:00 | 00:00:00 | 00:00:00 | |
| 3Z3Z-3 | 2026-08-31 07:08:22 | 53.04865 | 16.55570 | 46° | 60km/h | 5543m | -1.1m/s | -12.3°C | 13.9% | 513.0hPa | 2.7V | 00:00:00 | 00:00:00 | 00:00:00 | |
| KRY50SP-1 | 2026-08-31 07:08:20 | 53.04843 | 16.55535 | 45° | 62km/h | 5546m | -1.6m/s | -12.3°C | 14.7% | 512.8hPa | 2.7V | 00:00:00 | 00:00:00 | 00:00:00 | |
| SP3WXH-11 | 2026-08-31 07:08:18 | 53.04821 | 16.55498 | 44° | 60km/h | 5549m | -1.4m/s | -12.3°C | 14.6% | 512.5hPa | 2.7V | 00:00:00 | 00:00:00 | 00:00:00 | |
| KRY50SP-1 | 2026-08-31 07:08:13 | 53.04777 | 16.55421 | 50° | 64km/h | 5555m | -1.1m/s | -12.3°C | 14.3% | 512.2hPa | 2.7V | 00:00:00 | 00:00:00 | 00:00:00 | |
| EDDB2-12 | 2026-08-31 07:08:09 | 53.04731 | 16.55324 | 51° | 53km/h | 5561m | -1.3m/s | -12.3°C | 14.3% | 511.8hPa | 2.7V | 00:00:00 | 00:00:00 | 00:00:00 | |
| KRY50SP-1 | 2026-08-31 07:08:07 | 53.04723 | 16.55307 | 51° | 53km/h | 5563m | -1.3m/s | -12.3°C | 14.3% | 511.7hPa | 2.7V | 00:00:00 | 00:00:00 | 00:00:00 | |
| SP3BTT-10 | 2026-08-31 07:08:06 | 53.04705 | 16.55274 | 47° | 62km/h | 5566m | -1.6m/s | -12.3°C | 16.0% | 511.5hPa | 2.7V | 00:00:00 | 00:00:00 | 00:00:00 | |
| SONDE2-11 | 2026-08-31 07:08:05 | 53.04687 | 16.55244 | 40° | 53km/h | 5569m | -1.4m/s | -12.3°C | 14.5% | 511.3hPa | 2.7V | 00:00:00 | 00:00:00 | 00:00:00 | |
| EDDB2-11 | 2026-08-31 07:07:56 | 53.04598 | 16.55124 | 38° | 60km/h | 5581m | -1.6m/s | -12.4°C | 14.3% | 510.5hPa | 2.7V | 00:00:00 | 00:00:00 | 00:00:00 | |
| SP3WXH-11 | 2026-08-31 07:07:47 | 53.04487 | 16.54973 | 40° | 64km/h | 5595m | -1.7m/s | -12.5°C | 14.0% | 509.5hPa | 2.7V | 00:00:00 | 00:00:00 | 00:00:00 | |
| KRY50SP-1 | 2026-08-31 07:07:39 | 53.04387 | 16.54825 | 45° | 66km/h | 5606m | -1.1m/s | -12.6°C | 14.0% | 508.8hPa | 2.7V | 00:00:00 | 00:00:00 | 00:00:00 | |
| 3Z3Z-3 | 2026-08-31 07:07:38 | 53.04387 | 16.54825 | 45° | 66km/h | 5606m | -1.1m/s | -12.6°C | 14.0% | 508.8hPa | 2.7V | 00:00:00 | 00:00:00 | 00:00:00 | |
| SP3BTT-10 | 2026-08-31 07:07:36 | 53.04350 | 16.54767 | 42° | 62km/h | 5609m | -1.0m/s | -12.6°C | 15.6% | 508.4hPa | 2.7V | 00:00:00 | 00:00:00 | 00:00:00 | |
| SONDE2-11 | 2026-08-31 07:07:34 | 53.04311 | 16.54710 | 39° | 68km/h | 5612m | -1.0m/s | -12.7°C | 14.5% | 508.2hPa | 2.7V | 00:00:00 | 00:00:00 | 00:00:00 | |
| KRY50SP-1 | 2026-08-31 07:07:32 | 53.04311 | 16.54710 | 41° | 68km/h | 5612m | -1.0m/s | -12.7°C | 14.5% | 508.3hPa | 2.7V | 00:00:00 | 00:00:00 | 00:00:00 | |
| EDDB2-11 | 2026-08-31 07:07:26 | 53.04205 | 16.54575 | 35° | 62km/h | 5622m | -1.3m/s | -12.8°C | 15.4% | 507.6hPa | 2.7V | 00:00:00 | 00:00:00 | 00:00:00 | |
| KRY50SP-1 | 2026-08-31 07:07:21 | 53.04168 | 16.54529 | 38° | 60km/h | 5626m | -1.3m/s | -12.7°C | 16.3% | 507.4hPa | 2.7V | 00:00:00 | 00:00:00 | 00:00:00 | |
| 3Z3Z-3 | 2026-08-31 07:07:19 | 53.04144 | 16.54498 | 40° | 58km/h | 5629m | -1.3m/s | -12.7°C | 17.7% | 507.2hPa | 2.7V | 00:00:00 | 00:00:00 | 00:00:00 | |
| SP3WXH-11 | 2026-08-31 07:07:16 | 53.04100 | 16.54433 | 42° | 58km/h | 5635m | -1.4m/s | -12.8°C | 18.7% | 506.8hPa | 2.7V | 00:00:00 | 00:00:00 | 00:00:00 | |
| KRY50SP-1 | 2026-08-31 07:07:10 | 53.04045 | 16.54345 | 46° | 60km/h | 5641m | -1.4m/s | -12.8°C | 20.0% | 506.4hPa | 2.7V | 00:00:00 | 00:00:00 | 00:00:00 | |
| 3Z3Z-3 | 2026-08-31 07:07:09 | 53.04034 | 16.54327 | 47° | 60km/h | 5643m | -1.4m/s | -12.8°C | 20.2% | 506.4hPa | 2.7V | 00:00:00 | 00:00:00 | 00:00:00 | |
| EDDB2-12 | 2026-08-31 07:07:07 | 53.04002 | 16.54271 | 47° | 62km/h | 5647m | -1.7m/s | -12.7°C | 20.4% | 506.1hPa | 2.7V | 00:00:00 | 00:00:00 | 00:00:00 | |
| KRY50SP-1 | 2026-08-31 07:07:05 | 53.03991 | 16.54251 | 48° | 64km/h | 5649m | -1.5m/s | -12.7°C | 20.6% | 506.0hPa | 2.7V | 00:00:00 | 00:00:00 | 00:00:00 | |
| SONDE2-11 | 2026-08-31 07:07:03 | 53.03945 | 16.54173 | 43° | 66km/h | 5655m | -1.2m/s | -12.8°C | 20.5% | 505.6hPa | 2.7V | 00:00:00 | 00:00:00 | 00:00:00 | |
| EDDB2-11 | 2026-08-31 07:06:54 | 53.03839 | 16.54022 | 40° | 71km/h | 5665m | -1.4m/s | -12.6°C | 29.9% | 504.9hPa | 2.7V | 00:00:00 | 00:00:00 | 00:00:00 | |
| SP3WXH-11 | 2026-08-31 07:06:45 | 53.03727 | 16.53843 | 45° | 58km/h | 5677m | -1.1m/s | -12.7°C | 34.5% | 504.1hPa | 2.7V | 00:00:00 | 00:00:00 | 00:00:00 | |
| KRY50SP-1 | 2026-08-31 07:06:42 | 53.03705 | 16.53809 | 42° | 58km/h | 5680m | -1.4m/s | -12.8°C | 34.9% | 504.0hPa | 2.7V | 00:00:00 | 00:00:00 | 00:00:00 | |
| KRY50SP-1 | 2026-08-31 07:06:37 | 53.03644 | 16.53732 | 36° | 62km/h | 5686m | -1.5m/s | -12.8°C | 36.8% | 503.5hPa | 2.7V | 00:00:00 | 00:00:00 | 00:00:00 | |
| EDDB2-12 | 2026-08-31 07:06:36 | 53.03618 | 16.53702 | 35° | 64km/h | 5689m | -1.5m/s | -12.8°C | 37.3% | 503.4hPa | 2.7V | 00:00:00 | 00:00:00 | 00:00:00 | |
| SP3BTT-10 | 2026-08-31 07:06:35 | 53.03605 | 16.53686 | 35° | 66km/h | 5691m | -1.2m/s | -12.8°C | 40.9% | 503.1hPa | 2.7V | 00:00:00 | 00:00:00 | 00:00:00 | |
| 3Z3Z-3 | 2026-08-31 07:06:33 | 53.03591 | 16.53670 | 37° | 68km/h | 5692m | -1.6m/s | -12.8°C | 37.6% | 503.1hPa | 2.7V | 00:00:00 | 00:00:00 | 00:00:00 | |
| KRY50SP-1 | 2026-08-31 07:06:31 | 53.03562 | 16.53636 | 38° | 69km/h | 5695m | -1.3m/s | -12.9°C | 38.1% | 502.8hPa | 2.7V | 00:00:00 | 00:00:00 | 00:00:00 | |
| KRY50SP-1 | 2026-08-31 07:06:26 | 53.03492 | 16.53543 | 42° | 73km/h | 5703m | -1.2m/s | -12.9°C | 38.7% | 502.5hPa | 2.7V | 00:00:00 | 00:00:00 | 00:00:00 | |
| EDDB2-11 | 2026-08-31 07:06:23 | 53.03442 | 16.53463 | 45° | 62km/h | 5708m | -1.5m/s | -13.0°C | 39.0% | 502.0hPa | 2.7V | 00:00:00 | 00:00:00 | 00:00:00 | |
| 3Z3Z-3 | 2026-08-31 07:06:22 | 53.03442 | 16.53463 | 47° | 64km/h | 5708m | -1.5m/s | -13.0°C | 39.1% | 502.0hPa | 2.7V | 00:00:00 | 00:00:00 | 00:00:00 | |
| KRY50SP-1 | 2026-08-31 07:06:21 | 53.03431 | 16.53444 | 47° | 62km/h | 5710m | -1.5m/s | -13.0°C | 39.0% | 502.0hPa | 2.7V | 00:00:00 | 00:00:00 | 00:00:00 | |
| KRY50SP-1 | 2026-08-31 07:06:16 | 53.03376 | 16.53363 | 37° | 58km/h | 5717m | -1.3m/s | -13.0°C | 39.0% | 501.5hPa | 2.7V | 00:00:00 | 00:00:00 | 00:00:00 | |
| SP3WXH-11 | 2026-08-31 07:06:14 | 53.03339 | 16.53320 | 33° | 62km/h | 5720m | -1.4m/s | -13.1°C | 39.1% | 501.3hPa | 2.7V | 00:00:00 | 00:00:00 | 00:00:00 | |
| 3Z3Z-3 | 2026-08-31 07:06:10 | 53.03298 | 16.53273 | 37° | 68km/h | 5725m | -1.6m/s | -13.1°C | 39.2% | 501.0hPa | 2.7V | 00:00:00 | 00:00:00 | 00:00:00 | |
| SP3BTT-10 | 2026-08-31 07:06:05 | 53.03216 | 16.53161 | 43° | 68km/h | 5735m | -1.3m/s | -13.1°C | 42.9% | 500.3hPa | 2.7V | 00:00:00 | 00:00:00 | 00:00:00 | |
| KRY50SP-1 | 2026-08-31 07:06:04 | 53.03216 | 16.53161 | 43° | 69km/h | 5735m | -1.4m/s | -13.2°C | 39.5% | 500.4hPa | 2.7V | 00:00:00 | 00:00:00 | 00:00:00 | |
| SONDE2-11 | 2026-08-31 07:06:01 | 53.03155 | 16.53062 | 46° | 62km/h | 5742m | -1.6m/s | -13.3°C | 39.5% | 499.9hPa | 2.7V | 00:00:00 | 00:00:00 | 00:00:00 | |
| EDDB2-11 | 2026-08-31 07:05:52 | 53.03068 | 16.52925 | 36° | 57km/h | 5755m | -1.6m/s | -13.4°C | 40.0% | 499.0hPa | 2.7V | 00:00:00 | 00:00:00 | 00:00:00 | |
| 3Z3Z-3 | 2026-08-31 07:05:49 | 53.03043 | 16.52896 | 36° | 62km/h | 5759m | -1.5m/s | -13.4°C | 40.1% | 498.8hPa | 2.7V | 00:00:00 | 00:00:00 | 00:00:00 | |
| KRY50SP-1 | 2026-08-31 07:05:47 | 53.03016 | 16.52866 | 35° | 66km/h | 5762m | -1.6m/s | -13.4°C | 40.2% | 498.6hPa | 2.7V | 00:00:00 | 00:00:00 | 00:00:00 | |
| SP3WXH-11 | 2026-08-31 07:05:43 | 53.02947 | 16.52777 | 41° | 69km/h | 5770m | -1.8m/s | -13.5°C | 40.5% | 498.1hPa | 2.7V | 00:00:00 | 00:00:00 | 00:00:00 | |
| KRY50SP-1 | 2026-08-31 07:05:42 | 53.02947 | 16.52777 | 43° | 71km/h | 5770m | -1.8m/s | -13.5°C | 40.5% | 498.1hPa | 2.7V | 00:00:00 | 00:00:00 | 00:00:00 | |
| 3Z3Z-3 | 2026-08-31 07:05:39 | 53.02910 | 16.52716 | 45° | 68km/h | 5775m | -1.3m/s | -13.5°C | 40.7% | 497.8hPa | 2.7V | 00:00:00 | 00:00:00 | 00:00:00 | |
| KRY50SP-1 | 2026-08-31 07:05:37 | 53.02886 | 16.52677 | 48° | 66km/h | 5778m | -1.3m/s | -13.6°C | 40.8% | 497.6hPa | 2.7V | 00:00:00 | 00:00:00 | 00:00:00 | |
| SP3BTT-10 | 2026-08-31 07:05:35 | 53.02854 | 16.52621 | 46° | 58km/h | 5783m | -1.6m/s | -13.5°C | 44.5% | 497.2hPa | 2.7V | 00:00:00 | 00:00:00 | 08:30:00 | |
| EDDB2-12 | 2026-08-31 07:05:34 | 53.02844 | 16.52603 | 42° | 57km/h | 5784m | -1.6m/s | -13.6°C | 40.9% | 497.1hPa | 2.7V | 00:00:00 | 00:00:00 | 00:00:00 | |
| KRY50SP-1 | 2026-08-31 07:05:32 | 53.02833 | 16.52587 | 44° | 57km/h | 5786m | -1.6m/s | -13.6°C | 41.0% | 497.1hPa | 2.7V | 00:00:00 | 00:00:00 | 00:00:00 | |
| SONDE2-11 | 2026-08-31 07:05:29 | 53.02787 | 16.52528 | 33° | 60km/h | 5793m | -1.6m/s | -13.7°C | 41.0% | 496.5hPa | 2.7V | 00:00:00 | 00:00:00 | 00:00:00 | |
| 3Z3Z-3 | 2026-08-31 07:05:28 | 53.02787 | 16.52528 | 35° | 60km/h | 5793m | -1.6m/s | -13.7°C | 41.1% | 496.5hPa | 2.7V | 00:00:00 | 00:00:00 | 00:00:00 | |
| KRY50SP-1 | 2026-08-31 07:05:26 | 53.02761 | 16.52499 | 35° | 64km/h | 5796m | -1.7m/s | -13.7°C | 41.2% | 496.4hPa | 2.7V | 00:00:00 | 00:00:00 | 00:00:00 | |
| EDDB2-11 | 2026-08-31 07:05:21 | 53.02681 | 16.52396 | 42° | 68km/h | 5806m | -1.2m/s | -13.8°C | 41.5% | 495.8hPa | 2.7V | 00:00:00 | 00:00:00 | 00:00:00 | |
| KRY50SP-1 | 2026-08-31 07:05:20 | 53.02681 | 16.52396 | 44° | 68km/h | 5806m | -1.2m/s | -13.8°C | 41.5% | 495.8hPa | 2.7V | 00:00:00 | 00:00:00 | 00:00:00 | |
| 3Z3Z-3 | 2026-08-31 07:05:18 | 53.02656 | 16.52357 | 46° | 68km/h | 5809m | -1.4m/s | -13.8°C | 41.6% | 495.6hPa | 2.7V | 00:00:00 | 00:00:00 | 00:00:00 | |
| KRY50SP-1 | 2026-08-31 07:05:15 | 53.02621 | 16.52297 | 47° | 64km/h | 5814m | -1.4m/s | -13.9°C | 41.7% | 495.2hPa | 2.7V | 00:00:00 | 00:00:00 | 00:00:00 | |
| SP3WXH-11 | 2026-08-31 07:05:12 | 53.02579 | 16.52224 | 44° | 58km/h | 5820m | -1.8m/s | -14.0°C | 41.7% | 494.8hPa | 2.7V | 00:00:00 | 00:00:00 | 00:00:00 | |
| KRY50SP-1 | 2026-08-31 07:05:10 | 53.02568 | 16.52207 | 45° | 58km/h | 5822m | -1.6m/s | -14.0°C | 41.9% | 494.6hPa | 2.7V | 00:00:00 | 00:00:00 | 00:00:00 | |
| 3Z3Z-3 | 2026-08-31 07:05:07 | 53.02535 | 16.52160 | 39° | 58km/h | 5827m | -1.4m/s | -14.0°C | 42.5% | 494.4hPa | 2.7V | 00:00:00 | 00:00:00 | 00:00:00 | |
| KRY50SP-1 | 2026-08-31 07:05:05 | 53.02511 | 16.52130 | 38° | 60km/h | 5831m | -1.8m/s | -14.0°C | 42.4% | 494.1hPa | 2.7V | 00:00:00 | 00:00:00 | 00:00:00 | |
| EDDB2-12 | 2026-08-31 07:05:03 | 53.02476 | 16.52084 | 38° | 58km/h | 5836m | -1.7m/s | -14.1°C | 42.8% | 493.8hPa | 2.7V | 00:00:00 | 00:00:00 | 00:00:00 | |
| SONDE2-11 | 2026-08-31 07:04:58 | 53.02417 | 16.52008 | 36° | 58km/h | 5846m | -1.6m/s | -14.2°C | 42.7% | 493.1hPa | 2.7V | 00:00:00 | 00:00:00 | 00:00:00 | |
| EDDB2-11 | 2026-08-31 07:04:50 | 53.02325 | 16.51887 | 40° | 57km/h | 5859m | -1.5m/s | -14.3°C | 42.7% | 492.3hPa | 2.7V | 00:00:00 | 00:00:00 | 00:00:00 | |
| KRY50SP-1 | 2026-08-31 07:04:49 | 53.02325 | 16.51887 | 41° | 58km/h | 5859m | -1.5m/s | -14.3°C | 42.7% | 492.3hPa | 2.7V | 00:00:00 | 00:00:00 | 00:00:00 | |
| 3Z3Z-3 | 2026-08-31 07:04:46 | 53.02292 | 16.51839 | 44° | 58km/h | 5864m | -1.1m/s | -14.3°C | 42.6% | 492.0hPa | 2.7V | 00:00:00 | 00:00:00 | 00:00:00 | |
| KRY50SP-1 | 2026-08-31 07:04:44 | 53.02271 | 16.51807 | 44° | 57km/h | 5867m | -1.7m/s | -14.4°C | 42.7% | 491.7hPa | 2.7V | 00:00:00 | 00:00:00 | 00:00:00 | |
| SP3WXH-11 | 2026-08-31 07:04:41 | 53.02228 | 16.51747 | 37° | 55km/h | 5873m | -1.6m/s | -14.4°C | 42.6% | 491.2hPa | 2.7V | 00:00:00 | 00:00:00 | 00:00:00 | |
| KRY50SP-1 | 2026-08-31 07:04:38 | 53.02205 | 16.51719 | 36° | 58km/h | 5877m | -1.5m/s | -14.5°C | 42.7% | 491.1hPa | 2.7V | 00:00:00 | 00:00:00 | 00:00:00 | |
| SP3BTT-10 | 2026-08-31 07:04:35 | 53.02155 | 16.51658 | 38° | 57km/h | 5884m | -1.6m/s | -14.5°C | 47.3% | 490.5hPa | 2.7V | 00:00:00 | 00:00:00 | 00:00:00 | |
| KRY50SP-1 | 2026-08-31 07:04:33 | 53.02142 | 16.51641 | 39° | 64km/h | 5886m | -1.8m/s | -14.5°C | 43.4% | 490.5hPa | 2.7V | 00:00:00 | 00:00:00 | 00:00:00 | |
| EDDB2-12 | 2026-08-31 07:04:32 | 53.02116 | 16.51608 | 38° | 64km/h | 5890m | -1.7m/s | -14.6°C | 43.4% | 490.3hPa | 2.7V | 00:00:00 | 00:00:00 | 00:00:00 | |
| KRY50SP-1 | 2026-08-31 07:04:28 | 53.02064 | 16.51536 | 40° | 68km/h | 5897m | -1.6m/s | -14.6°C | 42.7% | 489.8hPa | 2.7V | 00:00:00 | 00:00:00 | 00:00:00 | |
| SONDE2-11 | 2026-08-31 07:04:27 | 53.02051 | 16.51518 | 38° | 66km/h | 5898m | -1.4m/s | -14.6°C | 42.6% | 489.7hPa | 2.7V | 00:00:00 | 00:00:00 | 00:00:00 | |
| 3Z3Z-3 | 2026-08-31 07:04:25 | 53.02038 | 16.51500 | 40° | 66km/h | 5900m | -1.2m/s | -14.6°C | 42.4% | 489.6hPa | 2.7V | 00:00:00 | 00:00:00 | 00:00:00 | |
| KRY50SP-1 | 2026-08-31 07:04:22 | 53.01999 | 16.51450 | 37° | 64km/h | 5904m | -1.4m/s | -14.7°C | 42.3% | 489.3hPa | 2.7V | 00:00:00 | 00:00:00 | 00:00:00 | |
| EDDB2-11 | 2026-08-31 07:04:19 | 53.01946 | 16.51391 | 33° | 60km/h | 5910m | -1.7m/s | -14.8°C | 42.3% | 488.8hPa | 2.7V | 00:00:00 | 00:00:00 | 00:00:00 | |
| KRY50SP-1 | 2026-08-31 07:04:17 | 53.01933 | 16.51376 | 36° | 60km/h | 5912m | -1.8m/s | -14.8°C | 42.5% | 488.7hPa | 2.7V | 00:00:00 | 00:00:00 | 00:00:00 | |
| KRY50SP-1 | 2026-08-31 07:04:11 | 53.01866 | 16.51292 | 41° | 55km/h | 5922m | -1.9m/s | -14.9°C | 42.4% | 488.0hPa | 2.7V | 00:00:00 | 00:00:00 | 00:00:00 | |
| SP3WXH-11 | 2026-08-31 07:04:10 | 53.01846 | 16.51263 | 43° | 53km/h | 5926m | -2.1m/s | -14.9°C | 42.6% | 487.8hPa | 2.7V | 00:00:00 | 00:00:00 | 00:00:00 | |
| SP3BTT-10 | 2026-08-31 07:04:05 | 53.01797 | 16.51184 | 45° | 57km/h | 5936m | -1.7m/s | -14.9°C | 48.0% | 487.1hPa | 2.7V | 00:00:00 | 00:00:00 | 00:00:00 | |
| EDDB2-12 | 2026-08-31 07:04:01 | 53.01758 | 16.51113 | 47° | 60km/h | 5943m | -1.8m/s | -14.9°C | 45.7% | 486.7hPa | 2.7V | 00:00:00 | 00:00:00 | 00:00:00 | |
| SONDE2-11 | 2026-08-31 07:03:56 | 53.01700 | 16.51019 | 41° | 64km/h | 5952m | -1.7m/s | -15.0°C | 45.3% | 486.2hPa | 2.7V | 00:00:00 | 00:00:00 | 00:00:00 | |
| EDDB2-11 | 2026-08-31 07:03:48 | 53.01598 | 16.50889 | 34° | 60km/h | 5966m | -1.7m/s | -15.1°C | 44.2% | 485.2hPa | 2.7V | 00:00:00 | 00:00:00 | 00:00:00 | |
| KRY50SP-1 | 2026-08-31 07:03:44 | 53.01560 | 16.50845 | 35° | 60km/h | 5972m | -1.6m/s | -15.1°C | 44.0% | 484.9hPa | 2.7V | 00:00:00 | 00:00:00 | 00:00:00 | |
| KRY50SP-1 | 2026-08-31 07:03:40 | 53.01499 | 16.50777 | 36° | 57km/h | 5982m | -2.0m/s | -15.2°C | 42.2% | 484.3hPa | 2.7V | 00:00:00 | 00:00:00 | 00:00:00 | |
| SP3WXH-11 | 2026-08-31 07:03:39 | 53.01488 | 16.50763 | 34° | 55km/h | 5984m | -1.8m/s | -15.2°C | 40.6% | 484.2hPa | 2.7V | 00:00:00 | 00:00:00 | 00:00:00 | |
| 3Z3Z-3 | 2026-08-31 07:03:38 | 53.01488 | 16.50763 | 36° | 57km/h | 5984m | -1.8m/s | -15.2°C | 40.6% | 484.2hPa | 2.7V | 00:00:00 | 00:00:00 | 00:00:00 | |
| SP3BTT-10 | 2026-08-31 07:03:35 | 53.01443 | 16.50708 | 37° | 58km/h | 5991m | -1.6m/s | -15.2°C | 44.0% | 483.7hPa | 2.7V | 00:00:00 | 00:00:00 | 00:00:00 | |
| KRY50SP-1 | 2026-08-31 07:03:33 | 53.01432 | 16.50695 | 40° | 53km/h | 5993m | -1.5m/s | -15.3°C | 40.2% | 483.6hPa | 2.7V | 00:00:00 | 00:00:00 | 00:00:00 | |
| KRY50SP-1 | 2026-08-31 07:03:28 | 53.01381 | 16.50623 | 43° | 53km/h | 6002m | -1.9m/s | -15.3°C | 41.0% | 482.9hPa | 2.7V | 00:00:00 | 00:00:00 | 00:00:00 | |
| 3Z3Z-3 | 2026-08-31 07:03:27 | 53.01372 | 16.50608 | 46° | 53km/h | 6004m | -2.0m/s | -15.4°C | 40.8% | 482.9hPa | 2.7V | 00:00:00 | 00:00:00 | 00:00:00 | |
| SONDE2-11 | 2026-08-31 07:03:25 | 53.01343 | 16.50560 | 47° | 55km/h | 6010m | -2.0m/s | -15.4°C | 41.0% | 482.4hPa | 2.7V | 00:00:00 | 00:00:00 | 00:00:00 | |
| KRY50SP-1 | 2026-08-31 07:03:24 | 53.01334 | 16.50542 | 46° | 57km/h | 6012m | -2.1m/s | -15.4°C | 40.9% | 482.3hPa | 2.7V | 00:00:00 | 00:00:00 | 00:00:00 | |
| EDDB2-11 | 2026-08-31 07:03:17 | 53.01261 | 16.50415 | 45° | 62km/h | 6024m | -2.0m/s | -15.5°C | 39.2% | 481.5hPa | 2.7V | 00:00:00 | 00:00:00 | 00:00:00 | |
| KRY50SP-1 | 2026-08-31 07:03:12 | 53.01214 | 16.50342 | 44° | 64km/h | 6032m | -1.9m/s | -15.6°C | 40.6% | 481.1hPa | 2.7V | 00:00:00 | 00:00:00 | 00:00:00 | |
| SP3WXH-11 | 2026-08-31 07:03:08 | 53.01151 | 16.50255 | 38° | 62km/h | 6041m | -1.9m/s | -15.6°C | 40.0% | 480.4hPa | 2.7V | 00:00:00 | 00:00:00 | 00:00:00 | |
| KRY50SP-1 | 2026-08-31 07:03:06 | 53.01139 | 16.50239 | 39° | 62km/h | 6042m | -1.5m/s | -15.6°C | 38.5% | 480.3hPa | 2.7V | 00:00:00 | 00:00:00 | 00:00:00 | |
| EDDB2-12 | 2026-08-31 07:02:59 | 53.01040 | 16.50121 | 36° | 55km/h | 6056m | -1.8m/s | -15.7°C | 32.9% | 479.4hPa | 2.7V | 00:00:00 | 00:00:00 | 00:00:00 | |
| SONDE2-11 | 2026-08-31 07:02:54 | 53.00986 | 16.50053 | 39° | 51km/h | 6065m | -1.6m/s | -15.7°C | 33.4% | 478.8hPa | 2.7V | 00:00:00 | 00:00:00 | 00:00:00 | |
| EDDB2-11 | 2026-08-31 07:02:46 | 53.00907 | 16.49927 | 47° | 57km/h | 6078m | -1.8m/s | -15.9°C | 33.7% | 477.8hPa | 2.7V | 00:00:00 | 00:00:00 | 00:00:00 | |
| KRY50SP-1 | 2026-08-31 07:02:44 | 53.00897 | 16.49909 | 48° | 58km/h | 6080m | -1.8m/s | -15.9°C | 33.9% | 477.7hPa | 2.7V | 00:00:00 | 00:00:00 | 00:00:00 | |
| 3Z3Z-3 | 2026-08-31 07:02:39 | 53.00845 | 16.49819 | 47° | 60km/h | 6089m | -1.8m/s | -16.0°C | 33.8% | 477.1hPa | 2.7V | 00:00:00 | 00:00:00 | 00:00:00 | |
| KRY50SP-1 | 2026-08-31 07:02:38 | 53.00834 | 16.49800 | 47° | 62km/h | 6090m | -2.0m/s | -16.0°C | 33.8% | 477.1hPa | 2.7V | 00:00:00 | 00:00:00 | 00:00:00 | |
| SP3WXH-11 | 2026-08-31 07:02:37 | 53.00813 | 16.49763 | 45° | 62km/h | 6094m | -2.1m/s | -16.0°C | 33.7% | 476.8hPa | 2.7V | 00:00:00 | 00:00:00 | 00:00:00 | |
| SP3BTT-10 | 2026-08-31 07:02:35 | 53.00790 | 16.49725 | 45° | 57km/h | 6098m | -1.6m/s | -16.0°C | 36.1% | 476.5hPa | 2.7V | 00:00:00 | 00:00:00 | 00:00:00 | |
| KRY50SP-1 | 2026-08-31 07:02:32 | 53.00766 | 16.49687 | 45° | 66km/h | 6102m | -1.9m/s | -16.1°C | 32.6% | 476.3hPa | 2.7V | 00:00:00 | 00:00:00 | 00:00:00 | |
| EDDB2-12 | 2026-08-31 07:02:28 | 53.00704 | 16.49596 | 39° | 62km/h | 6111m | -2.0m/s | -16.2°C | 31.9% | 475.7hPa | 2.7V | 00:00:00 | 00:00:00 | 00:00:00 | |
| KRY50SP-1 | 2026-08-31 07:02:26 | 53.00692 | 16.49579 | 40° | 62km/h | 6113m | -2.0m/s | -16.2°C | 31.8% | 475.6hPa | 2.7V | 00:00:00 | 00:00:00 | 00:00:00 | |
| SONDE2-11 | 2026-08-31 07:02:23 | 53.00644 | 16.49516 | 37° | 58km/h | 6120m | -2.2m/s | -16.2°C | 31.5% | 475.1hPa | 2.7V | 00:00:00 | 00:00:00 | 00:00:00 | |
| KRY50SP-1 | 2026-08-31 07:02:21 | 53.00632 | 16.49501 | 38° | 58km/h | 6123m | -2.0m/s | -16.3°C | 31.6% | 474.9hPa | 2.7V | 00:00:00 | 00:00:00 | 00:00:00 | |
| 3Z3Z-3 | 2026-08-31 07:02:17 | 53.00584 | 16.49443 | 38° | 58km/h | 6130m | -2.2m/s | -16.3°C | 31.2% | 474.4hPa | 2.7V | 00:00:00 | 00:00:00 | 00:00:00 | |
| KRY50SP-1 | 2026-08-31 07:02:16 | 53.00573 | 16.49429 | 38° | 57km/h | 6132m | -2.0m/s | -16.3°C | 31.1% | 474.3hPa | 2.7V | 00:00:00 | 00:00:00 | 00:00:00 | |
| EDDB2-11 | 2026-08-31 07:02:15 | 53.00550 | 16.49400 | 37° | 55km/h | 6135m | -1.7m/s | -16.4°C | 31.2% | 474.0hPa | 2.7V | 00:00:00 | 00:00:00 | 00:00:00 | |
| KRY50SP-1 | 2026-08-31 07:02:11 | 53.00518 | 16.49357 | 41° | 53km/h | 6141m | -1.8m/s | -16.4°C | 31.1% | 473.7hPa | 2.7V | 00:00:00 | 00:00:00 | 00:00:00 | |
| SP3WXH-11 | 2026-08-31 07:02:06 | 53.00457 | 16.49269 | 44° | 53km/h | 6150m | -1.6m/s | -16.5°C | 31.0% | 473.0hPa | 2.7V | 00:00:00 | 00:00:00 | 00:00:00 | |
| SP3BTT-10 | 2026-08-31 07:02:05 | 53.00448 | 16.49253 | 46° | 57km/h | 6152m | -1.5m/s | -16.5°C | 34.2% | 472.9hPa | 2.7V | 00:00:00 | 00:00:00 | 00:00:00 | |
| EDDB2-12 | 2026-08-31 07:01:57 | 53.00367 | 16.49114 | 47° | 60km/h | 6165m | -1.8m/s | -16.7°C | 31.8% | 472.1hPa | 2.7V | 00:00:00 | 00:00:00 | 00:00:00 | |
| SONDE2-11 | 2026-08-31 07:01:52 | 53.00317 | 16.49019 | 50° | 58km/h | 6174m | -2.3m/s | -16.8°C | 31.5% | 471.5hPa | 2.7V | 00:00:00 | 00:00:00 | 00:00:00 | |
| KRY50SP-1 | 2026-08-31 07:01:49 | 53.00298 | 16.48982 | 51° | 55km/h | 6179m | -2.2m/s | -16.8°C | 31.3% | 471.3hPa | 2.7V | 00:00:00 | 00:00:00 | 00:00:00 | |
| EDDB2-11 | 2026-08-31 07:01:44 | 53.00244 | 16.48886 | 39° | 51km/h | 6190m | -1.7m/s | -16.9°C | 31.3% | 470.5hPa | 2.7V | 00:00:00 | 00:00:00 | 00:00:00 | |
| KRY50SP-1 | 2026-08-31 07:01:43 | 53.00244 | 16.48886 | 41° | 51km/h | 6190m | -1.7m/s | -16.9°C | 31.3% | 470.5hPa | 2.7V | 00:00:00 | 00:00:00 | 00:00:00 | |
| 3Z3Z-3 | 2026-08-31 07:01:42 | 53.00234 | 16.48872 | 39° | 53km/h | 6192m | -1.7m/s | -16.9°C | 31.2% | 470.5hPa | 2.7V | 00:00:00 | 00:00:00 | 00:00:00 | |
| KRY50SP-1 | 2026-08-31 07:01:38 | 53.00186 | 16.48814 | 39° | 62km/h | 6198m | -1.8m/s | -16.9°C | 31.5% | 470.1hPa | 2.7V | 00:00:00 | 00:00:00 | 00:00:00 | |
| SP3BTT-10 | 2026-08-31 07:01:35 | 53.00137 | 16.48744 | 42° | 58km/h | 6205m | -2.1m/s | -17.0°C | 35.0% | 469.6hPa | 2.7V | 00:00:00 | 00:00:00 | 00:00:00 | |
| KRY50SP-1 | 2026-08-31 07:01:33 | 53.00125 | 16.48725 | 46° | 66km/h | 6208m | -2.1m/s | -17.0°C | 31.3% | 469.5hPa | 2.7V | 00:00:00 | 00:00:00 | 00:00:00 | |
| 3Z3Z-3 | 2026-08-31 07:01:31 | 53.00102 | 16.48686 | 48° | 66km/h | 6211m | -2.1m/s | -17.0°C | 30.9% | 469.3hPa | 2.7V | 00:00:00 | 00:00:00 | 00:00:00 | |
| KRY50SP-1 | 2026-08-31 07:01:27 | 53.00061 | 16.48607 | 53° | 58km/h | 6219m | -2.0m/s | -17.1°C | 30.8% | 468.8hPa | 2.7V | 00:00:00 | 00:00:00 | 00:00:00 | |
| EDDB2-12 | 2026-08-31 07:01:26 | 53.00043 | 16.48571 | 49° | 53km/h | 6222m | -2.0m/s | -17.1°C | 30.8% | 468.6hPa | 2.7V | 00:00:00 | 00:00:00 | 00:00:00 | |
| KRY50SP-1 | 2026-08-31 07:01:22 | 53.00016 | 16.48524 | 44° | 49km/h | 6227m | -1.8m/s | -17.1°C | 30.9% | 468.3hPa | 2.7V | 00:00:00 | 00:00:00 | 00:00:00 | |
| SONDE2-11 | 2026-08-31 07:01:21 | 52.99998 | 16.48496 | 40° | 49km/h | 6230m | -1.7m/s | -17.1°C | 30.5% | 468.0hPa | 2.7V | 00:00:00 | 00:00:00 | 00:00:00 | |
| 3Z3Z-3 | 2026-08-31 07:01:20 | 52.99998 | 16.48496 | 41° | 51km/h | 6230m | -1.7m/s | -17.1°C | 30.6% | 468.0hPa | 2.7V | 00:00:00 | 00:00:00 | 00:00:00 | |
| KRY50SP-1 | 2026-08-31 07:01:16 | 52.99953 | 16.48440 | 37° | 60km/h | 6237m | -1.7m/s | -17.2°C | 30.7% | 467.5hPa | 2.7V | 00:00:00 | 00:00:00 | 00:00:00 | |
| EDDB2-11 | 2026-08-31 07:01:13 | 52.99904 | 16.48375 | 42° | 64km/h | 6243m | -1.8m/s | -17.3°C | 31.1% | 467.2hPa | 2.7V | 00:00:00 | 00:00:00 | 00:00:00 | |
| 3Z3Z-3 | 2026-08-31 07:01:10 | 52.99880 | 16.48337 | 45° | 66km/h | 6246m | -1.9m/s | -17.3°C | 31.1% | 466.9hPa | 2.7V | 00:00:00 | 00:00:00 | 00:00:00 | |
| SP3WXH-11 | 2026-08-31 07:01:04 | 52.99811 | 16.48199 | 51° | 53km/h | 6258m | -1.4m/s | -17.4°C | 30.8% | 466.2hPa | 2.7V | 00:00:00 | 00:00:00 | 00:00:00 | |
| EDDB2-12 | 2026-08-31 07:00:55 | 52.99727 | 16.48068 | 38° | 51km/h | 6276m | -2.5m/s | -17.5°C | 31.0% | 465.2hPa | 2.7V | 00:00:00 | 00:00:00 | 00:00:00 | |
| SONDE2-11 | 2026-08-31 07:00:50 | 52.99667 | 16.47989 | 41° | 62km/h | 6285m | -1.7m/s | -17.6°C | 31.0% | 464.7hPa | 2.7V | 00:00:00 | 00:00:00 | 00:00:00 | |
| KRY50SP-1 | 2026-08-31 07:00:48 | 52.99643 | 16.47952 | 44° | 66km/h | 6288m | -1.7m/s | -17.6°C | 30.9% | 464.5hPa | 2.7V | 00:00:00 | 00:00:00 | 00:00:00 | |
| 3Z3Z-3 | 2026-08-31 07:00:46 | 52.99632 | 16.47932 | 49° | 64km/h | 6290m | -1.9m/s | -17.6°C | 30.8% | 464.3hPa | 2.7V | 00:00:00 | 00:00:00 | 00:00:00 | |
| EDDB2-11 | 2026-08-31 07:00:42 | 52.99581 | 16.47835 | 51° | 57km/h | 6298m | -1.8m/s | -17.7°C | 31.0% | 463.8hPa | 2.7V | 00:00:00 | 00:00:00 | 00:00:00 | |
| KRY50SP-1 | 2026-08-31 07:00:41 | 52.99581 | 16.47835 | 52° | 57km/h | 6298m | -1.8m/s | -17.7°C | 31.0% | 463.8hPa | 2.7V | 00:00:00 | 00:00:00 | 00:00:00 | |
| KRY50SP-1 | 2026-08-31 07:00:36 | 52.99536 | 16.47754 | 42° | 51km/h | 6306m | -1.6m/s | -17.8°C | 31.6% | 463.4hPa | 2.7V | 00:00:00 | 00:00:00 | 00:00:00 | |
| 3Z3Z-3 | 2026-08-31 07:00:35 | 52.99527 | 16.47740 | 43° | 51km/h | 6308m | -1.9m/s | -17.8°C | 31.5% | 463.3hPa | 2.7V | 00:00:00 | 00:00:00 | 00:00:00 | |
| SP3WXH-11 | 2026-08-31 07:00:33 | 52.99497 | 16.47700 | 34° | 53km/h | 6313m | -1.9m/s | -17.9°C | 31.4% | 463.0hPa | 2.7V | 00:00:00 | 00:00:00 | 00:00:00 | |
| KRY50SP-1 | 2026-08-31 07:00:30 | 52.99474 | 16.47674 | 35° | 57km/h | 6317m | -1.8m/s | -17.9°C | 31.3% | 462.8hPa | 2.7V | 00:00:00 | 00:00:00 | 00:00:00 | |
| 3Z3Z-3 | 2026-08-31 07:00:25 | 52.99413 | 16.47596 | 42° | 66km/h | 6325m | -1.3m/s | -17.9°C | 30.7% | 462.2hPa | 2.7V | 00:00:00 | 00:00:00 | 00:00:00 | |
| EDDB2-12 | 2026-08-31 07:00:24 | 52.99388 | 16.47558 | 45° | 64km/h | 6327m | -1.4m/s | -17.9°C | 30.5% | 462.1hPa | 2.7V | 00:00:00 | 00:00:00 | 00:00:00 | |
| SONDE2-11 | 2026-08-31 07:00:19 | 52.99337 | 16.47463 | 48° | 55km/h | 6334m | -1.6m/s | -18.0°C | 30.3% | 461.6hPa | 2.7V | 00:00:00 | 00:00:00 | 00:00:00 | |
| KRY50SP-1 | 2026-08-31 07:00:13 | 52.99292 | 16.47384 | 44° | 49km/h | 6342m | -1.7m/s | -18.1°C | 30.6% | 461.2hPa | 2.7V | 00:00:00 | 00:00:00 | 00:00:00 | |
| EDDB2-11 | 2026-08-31 07:00:11 | 52.99263 | 16.47343 | 38° | 51km/h | 6346m | -1.8m/s | -18.1°C | 31.7% | 460.8hPa | 2.7V | 00:00:00 | 00:00:00 | 00:00:00 | |
| KRY50SP-1 | 2026-08-31 07:00:08 | 52.99242 | 16.47317 | 35° | 55km/h | 6349m | -1.8m/s | -18.1°C | 34.1% | 460.6hPa | 2.7V | 00:00:00 | 00:00:00 | 00:00:00 | |
| SP3BTT-10 | 2026-08-31 07:00:05 | 52.99195 | 16.47260 | 39° | 57km/h | 6356m | -1.6m/s | -18.1°C | 39.5% | 460.1hPa | 2.7V | 00:00:00 | 00:00:00 | 00:00:00 | |
| SP3WXH-11 | 2026-08-31 07:00:02 | 52.99159 | 16.47210 | 42° | 60km/h | 6360m | -1.8m/s | -18.2°C | 35.1% | 459.9hPa | 2.7V | 00:00:00 | 00:00:00 | 00:00:00 | |
| EDDB2-12 | 2026-08-31 06:59:53 | 52.99055 | 16.47055 | 42° | 62km/h | 6376m | -1.8m/s | -18.3°C | 38.3% | 459.0hPa | 2.7V | 00:00:00 | 00:00:00 | 00:00:00 | |
| SONDE2-11 | 2026-08-31 06:59:48 | 52.98984 | 16.46947 | 45° | 66km/h | 6386m | -1.8m/s | -18.4°C | 41.0% | 458.3hPa | 2.7V | 00:00:00 | 00:00:00 | 00:00:00 | |
| KRY50SP-1 | 2026-08-31 06:59:45 | 52.98973 | 16.46928 | 49° | 62km/h | 6388m | -2.2m/s | -18.4°C | 40.6% | 458.2hPa | 2.7V | 00:00:00 | 00:00:00 | 00:00:00 | |
| 3Z3Z-3 | 2026-08-31 06:59:43 | 52.98951 | 16.46889 | 48° | 62km/h | 6391m | -1.8m/s | -18.4°C | 39.6% | 458.0hPa | 2.7V | 00:00:00 | 00:00:00 | 00:00:00 | |
| EDDB2-11 | 2026-08-31 06:59:40 | 52.98914 | 16.46816 | 51° | 49km/h | 6399m | -2.1m/s | -18.5°C | 40.4% | 457.6hPa | 2.7V | 00:00:00 | 00:00:00 | 00:00:00 | |
| SP3BTT-10 | 2026-08-31 06:59:35 | 52.98870 | 16.46744 | 40° | 62km/h | 6408m | -2.0m/s | -18.5°C | 45.6% | 457.0hPa | 2.7V | 00:00:00 | 00:00:00 | 08:30:00 | |
| KRY50SP-1 | 2026-08-31 06:59:31 | 52.98826 | 16.46689 | 36° | 58km/h | 6415m | -1.8m/s | -18.6°C | 41.6% | 456.6hPa | 2.6V | 00:00:00 | 00:00:00 | 00:00:00 | |
| 3Z3Z-3 | 2026-08-31 06:59:30 | 52.98826 | 16.46689 | 36° | 58km/h | 6415m | -1.8m/s | -18.6°C | 41.6% | 456.6hPa | 2.6V | 00:00:00 | 00:00:00 | 00:00:00 | |
| KRY50SP-1 | 2026-08-31 06:59:25 | 52.98763 | 16.46610 | 43° | 62km/h | 6423m | -2.3m/s | -18.7°C | 42.8% | 456.1hPa | 2.6V | 00:00:00 | 00:00:00 | 00:00:00 | |
| EDDB2-12 | 2026-08-31 06:59:22 | 52.98715 | 16.46535 | 48° | 62km/h | 6429m | -2.4m/s | -18.7°C | 46.9% | 455.6hPa | 2.6V | 00:00:00 | 00:00:00 | 00:00:00 | |
| 3Z3Z-3 | 2026-08-31 06:59:19 | 52.98693 | 16.46495 | 50° | 64km/h | 6433m | -2.0m/s | -18.8°C | 46.9% | 455.3hPa | 2.6V | 00:00:00 | 00:00:00 | 00:00:00 | |
| SONDE2-11 | 2026-08-31 06:59:17 | 52.98655 | 16.46419 | 49° | 53km/h | 6441m | -1.7m/s | -18.8°C | 47.3% | 454.9hPa | 2.6V | 00:00:00 | 00:00:00 | 00:00:00 | |
| KRY50SP-1 | 2026-08-31 06:59:13 | 52.98637 | 16.46385 | 48° | 49km/h | 6444m | -1.5m/s | -18.8°C | 47.4% | 454.7hPa | 2.6V | 00:00:00 | 00:00:00 | 00:00:00 | |
| EDDB2-11 | 2026-08-31 06:59:09 | 52.98589 | 16.46316 | 36° | 53km/h | 6453m | -1.9m/s | -18.9°C | 50.6% | 454.1hPa | 2.6V | 00:00:00 | 00:00:00 | 00:00:00 | |
| KRY50SP-1 | 2026-08-31 06:59:08 | 52.98588 | 16.46316 | 38° | 53km/h | 6453m | -1.9m/s | -18.9°C | 50.7% | 454.1hPa | 2.6V | 00:00:00 | 00:00:00 | 00:00:00 | |
| 3Z3Z-3 | 2026-08-31 06:59:04 | 52.98544 | 16.46258 | 41° | 60km/h | 6461m | -2.2m/s | -18.9°C | 54.2% | 453.7hPa | 2.6V | 00:00:00 | 00:00:00 | 00:00:00 | |
| KRY50SP-1 | 2026-08-31 06:59:03 | 52.98531 | 16.46242 | 40° | 64km/h | 6463m | -2.0m/s | -19.0°C | 52.6% | 453.6hPa | 2.6V | 00:00:00 | 00:00:00 | 00:00:00 | |
| SP3WXH-11 | 2026-08-31 06:59:00 | 52.98470 | 16.46149 | 47° | 66km/h | 6471m | -2.2m/s | -19.0°C | 54.1% | 453.0hPa | 2.6V | 00:00:00 | 00:00:00 | 00:00:00 | |
| EDDB2-12 | 2026-08-31 06:58:51 | 52.98394 | 16.45994 | 49° | 51km/h | 6485m | -2.0m/s | -19.2°C | 60.5% | 452.2hPa | 2.6V | 00:00:00 | 00:00:00 | 00:00:00 | |
| SONDE2-11 | 2026-08-31 06:58:46 | 52.98336 | 16.45905 | 38° | 57km/h | 6495m | -1.6m/s | -19.3°C | 61.1% | 451.5hPa | 2.6V | 00:00:00 | 00:00:00 | 00:00:00 | |
| 3Z3Z-3 | 2026-08-31 06:58:43 | 52.98324 | 16.45890 | 41° | 60km/h | 6497m | -1.8m/s | -19.3°C | 61.4% | 451.4hPa | 2.6V | 00:00:00 | 00:00:00 | 00:00:00 | |
| KRY50SP-1 | 2026-08-31 06:58:41 | 52.98300 | 16.45857 | 42° | 64km/h | 6500m | -1.8m/s | -19.3°C | 61.7% | 451.2hPa | 2.6V | 00:00:00 | 00:00:00 | 00:00:00 | |
| EDDB2-11 | 2026-08-31 06:58:38 | 52.98252 | 16.45783 | 44° | 66km/h | 6507m | -2.4m/s | -19.4°C | 62.5% | 450.6hPa | 2.6V | 00:00:00 | 00:00:00 | 00:00:00 | |
| KRY50SP-1 | 2026-08-31 06:58:36 | 52.98240 | 16.45763 | 46° | 68km/h | 6510m | -2.1m/s | -19.4°C | 62.7% | 450.5hPa | 2.6V | 00:00:00 | 00:00:00 | 00:00:00 | |
| SP3BTT-10 | 2026-08-31 06:58:34 | 52.98203 | 16.45704 | 45° | 58km/h | 6514m | -1.6m/s | -19.3°C | 69.2% | 450.2hPa | 2.6V | 00:00:00 | 00:00:00 | 00:00:00 | |
| 3Z3Z-3 | 2026-08-31 06:58:33 | 52.98203 | 16.45704 | 46° | 68km/h | 6514m | -1.7m/s | -19.4°C | 62.5% | 450.2hPa | 2.6V | 00:00:00 | 00:00:00 | 00:00:00 | |
| KRY50SP-1 | 2026-08-31 06:58:30 | 52.98167 | 16.45644 | 47° | 68km/h | 6519m | -2.4m/s | -19.4°C | 62.7% | 450.0hPa | 2.6V | 00:00:00 | 00:00:00 | 00:00:00 | |
| SP3WXH-11 | 2026-08-31 06:58:29 | 52.98144 | 16.45603 | 47° | 66km/h | 6523m | -2.3m/s | -19.4°C | 62.9% | 449.7hPa | 2.6V | 00:00:00 | 00:00:00 | 00:00:00 | |
| KRY50SP-1 | 2026-08-31 06:58:24 | 52.98097 | 16.45521 | 48° | 68km/h | 6531m | -2.3m/s | -19.5°C | 63.2% | 449.3hPa | 2.6V | 00:00:00 | 00:00:00 | 00:00:00 | |
| 3Z3Z-3 | 2026-08-31 06:58:23 | 52.98073 | 16.45480 | 46° | 68km/h | 6535m | -2.1m/s | -19.6°C | 63.5% | 449.1hPa | 2.6V | 00:00:00 | 00:00:00 | 00:00:00 | |
| KRY50SP-1 | 2026-08-31 06:58:19 | 52.98036 | 16.45423 | 42° | 64km/h | 6540m | -2.4m/s | -19.6°C | 63.8% | 448.8hPa | 2.6V | 00:00:00 | 00:00:00 | 00:00:00 | |
| SONDE2-11 | 2026-08-31 06:58:15 | 52.97964 | 16.45321 | 42° | 57km/h | 6553m | -1.9m/s | -19.7°C | 64.9% | 448.1hPa | 2.6V | 00:00:00 | 00:00:00 | 00:00:00 | |
| KRY50SP-1 | 2026-08-31 06:58:13 | 52.97964 | 16.45321 | 43° | 58km/h | 6553m | -1.9m/s | -19.7°C | 65.0% | 448.1hPa | 2.6V | 00:00:00 | 00:00:00 | 00:00:00 | |
| KRY50SP-1 | 2026-08-31 06:58:08 | 52.97911 | 16.45240 | 44° | 55km/h | 6562m | -1.5m/s | -19.7°C | 67.6% | 447.5hPa | 2.6V | 00:00:00 | 00:00:00 | 00:00:00 | |
| EDDB2-11 | 2026-08-31 06:58:07 | 52.97891 | 16.45208 | 45° | 53km/h | 6565m | -1.7m/s | -19.7°C | 67.8% | 447.3hPa | 2.6V | 00:00:00 | 00:00:00 | 00:00:00 | |
| SP3BTT-10 | 2026-08-31 06:58:04 | 52.97862 | 16.45158 | 51° | 62km/h | 6570m | -1.8m/s | -19.7°C | 75.3% | 447.0hPa | 2.6V | 00:00:00 | 00:00:00 | 00:00:00 | |
| KRY50SP-1 | 2026-08-31 06:58:02 | 52.97853 | 16.45140 | 52° | 55km/h | 6572m | -1.7m/s | -19.8°C | 68.2% | 446.8hPa | 2.6V | 00:00:00 | 00:00:00 | 00:00:00 | |
| SP3WXH-11 | 2026-08-31 06:57:58 | 52.97808 | 16.45043 | 52° | 60km/h | 6579m | -2.4m/s | -19.9°C | 68.6% | 446.4hPa | 2.6V | 00:00:00 | 00:00:00 | 00:00:00 | |
| EDDB2-12 | 2026-08-31 06:57:49 | 52.97723 | 16.44849 | 45° | 53km/h | 6598m | -1.8m/s | -20.0°C | 69.0% | 445.3hPa | 2.6V | 00:00:00 | 00:00:00 | 00:00:00 | |
| KRY50SP-1 | 2026-08-31 06:57:46 | 52.97703 | 16.44817 | 45° | 57km/h | 6600m | -1.9m/s | -20.1°C | 69.5% | 445.1hPa | 2.6V | 00:00:00 | 00:00:00 | 00:00:00 | |
| SONDE2-11 | 2026-08-31 06:57:44 | 52.97670 | 16.44764 | 46° | 62km/h | 6605m | -1.9m/s | -20.1°C | 69.3% | 444.9hPa | 2.6V | 00:00:00 | 00:00:00 | 00:00:00 | |
| AM1SDL-15 | 2026-08-31 06:57:42 | 52.97659 | 16.44745 | 47° | 64km/h | 6607m | -1.6m/s | -20.1°C | 77.3% | 444.7hPa | 2.6V | 00:00:00 | 02:47:57 | 00:00:00 | |
| KRY50SP-1 | 2026-08-31 06:57:41 | 52.97647 | 16.44725 | 48° | 64km/h | 6608m | -2.0m/s | -20.1°C | 69.7% | 444.6hPa | 2.6V | 00:00:00 | 00:00:00 | 00:00:00 | |
| 3Z3Z-3 | 2026-08-31 06:57:40 | 52.97647 | 16.44725 | 48° | 64km/h | 6608m | -2.0m/s | -20.1°C | 69.7% | 444.6hPa | 2.6V | 00:00:00 | 00:00:00 | 00:00:00 | |
| EDDB2-11 | 2026-08-31 06:57:36 | 52.97594 | 16.44619 | 50° | 64km/h | 6615m | -2.0m/s | -20.2°C | 70.2% | 444.1hPa | 2.6V | 00:00:00 | 00:00:00 | 00:00:00 | |
| SP3BTT-10 | 2026-08-31 06:57:34 | 52.97574 | 16.44576 | 51° | 66km/h | 6618m | -2.3m/s | -20.2°C | 77.5% | 443.9hPa | 2.6V | 00:00:00 | 00:00:00 | 00:00:00 | |
| AM1SDL-15 | 2026-08-31 06:57:30 | 52.97532 | 16.44487 | 53° | 58km/h | 6626m | -2.5m/s | -20.2°C | 76.8% | 443.5hPa | 2.7V | 00:00:00 | 02:47:45 | 00:00:00 | |
| 3Z3Z-3 | 2026-08-31 06:57:29 | 52.97532 | 16.44487 | 54° | 69km/h | 6626m | -2.5m/s | -20.3°C | 69.2% | 443.6hPa | 2.5V | 00:00:00 | 00:00:00 | 00:00:00 | |
| KRY50SP-1 | 2026-08-31 06:57:28 | 52.97521 | 16.44464 | 57° | 68km/h | 6628m | -2.4m/s | -20.2°C | 68.7% | 443.4hPa | 2.5V | 00:00:00 | 00:00:00 | 00:00:00 | |
| SP3WXH-11 | 2026-08-31 06:57:27 | 52.97503 | 16.44417 | 57° | 64km/h | 6632m | -1.6m/s | -20.3°C | 67.7% | 443.1hPa | 2.5V | 00:00:00 | 00:00:00 | 00:00:00 | |
| KRY50SP-1 | 2026-08-31 06:57:23 | 52.97477 | 16.44349 | 61° | 60km/h | 6637m | -2.2m/s | -20.3°C | 67.7% | 442.9hPa | 2.5V | 00:00:00 | 00:00:00 | 00:00:00 | |
| 3Z3Z-3 | 2026-08-31 06:57:19 | 52.97446 | 16.44266 | 59° | 55km/h | 6644m | -1.8m/s | -20.3°C | 67.8% | 442.5hPa | 2.5V | 00:00:00 | 00:00:00 | 00:00:00 | |
| KRY50SP-1 | 2026-08-31 06:57:17 | 52.97431 | 16.44229 | 54° | 53km/h | 6647m | -2.4m/s | -20.4°C | 67.9% | 442.2hPa | 2.5V | 00:00:00 | 00:00:00 | 00:00:00 | |
| AM1SDL-15 | 2026-08-31 06:57:14 | 52.97395 | 16.44161 | 45° | 66km/h | 6654m | -1.7m/s | -20.4°C | 75.6% | 441.8hPa | 2.5V | 00:00:00 | 02:47:29 | 00:00:00 | |
| SONDE2-11 | 2026-08-31 06:57:13 | 52.97373 | 16.44126 | 46° | 60km/h | 6658m | -2.3m/s | -20.4°C | 68.3% | 441.6hPa | 2.5V | 00:00:00 | 00:00:00 | 00:00:00 | |
| KRY50SP-1 | 2026-08-31 06:57:11 | 52.97373 | 16.44126 | 48° | 60km/h | 6658m | -2.3m/s | -20.4°C | 68.4% | 441.6hPa | 2.5V | 00:00:00 | 00:00:00 | 00:00:00 | |
| 3Z3Z-3 | 2026-08-31 06:57:08 | 52.97340 | 16.44068 | 48° | 66km/h | 6663m | -2.3m/s | -20.5°C | 68.7% | 441.3hPa | 2.5V | 00:00:00 | 00:00:00 | 00:00:00 | |
| KRY50SP-1 | 2026-08-31 06:57:06 | 52.97306 | 16.44003 | 54° | 69km/h | 6669m | -2.2m/s | -20.5°C | 70.0% | 441.0hPa | 2.5V | 00:00:00 | 00:00:00 | 00:00:00 | |
| EDDB2-11 | 2026-08-31 06:57:05 | 52.97286 | 16.43956 | 57° | 68km/h | 6673m | -2.1m/s | -20.5°C | 69.4% | 440.7hPa | 2.5V | 00:00:00 | 00:00:00 | 00:00:00 | |
| SP3WXH-11 | 2026-08-31 06:56:56 | 52.97223 | 16.43785 | 55° | 53km/h | 6689m | -2.2m/s | -20.5°C | 72.1% | 440.0hPa | 2.5V | 00:00:00 | 00:00:00 | 00:00:00 | |
| EDDB2-12 | 2026-08-31 06:56:47 | 52.97128 | 16.43602 | 51° | 64km/h | 6706m | -1.9m/s | -20.7°C | 73.4% | 439.0hPa | 2.5V | 00:00:00 | 00:00:00 | 00:00:00 | |
| KRY50SP-1 | 2026-08-31 06:56:41 | 52.97086 | 16.43513 | 55° | 68km/h | 6713m | -2.4m/s | -20.7°C | 73.2% | 438.6hPa | 2.5V | 00:00:00 | 00:00:00 | 00:00:00 | |
| KRY50SP-1 | 2026-08-31 06:56:37 | 52.97039 | 16.43401 | 61° | 60km/h | 6722m | -2.0m/s | -20.8°C | 74.3% | 438.0hPa | 2.5V | 00:00:00 | 00:00:00 | 00:00:00 | |
| 3Z3Z-3 | 2026-08-31 06:56:36 | 52.97039 | 16.43401 | 61° | 60km/h | 6722m | -2.0m/s | -20.8°C | 74.3% | 438.0hPa | 2.5V | 00:00:00 | 00:00:00 | 00:00:00 | |
| SP3BTT-10 | 2026-08-31 06:56:35 | 52.97024 | 16.43358 | 60° | 62km/h | 6725m | -1.5m/s | -20.8°C | 82.3% | 437.8hPa | 2.5V | 00:00:00 | 00:00:00 | 00:00:00 | |
| EDDB2-11 | 2026-08-31 06:56:34 | 52.97009 | 16.43315 | 62° | 58km/h | 6728m | -2.0m/s | -20.9°C | 74.3% | 437.6hPa | 2.5V | 00:00:00 | 00:00:00 | 00:00:00 | |
| KRY50SP-1 | 2026-08-31 06:56:31 | 52.97002 | 16.43292 | 61° | 62km/h | 6730m | -2.0m/s | -20.9°C | 74.5% | 437.5hPa | 2.5V | 00:00:00 | 00:00:00 | 00:00:00 | |
| 3Z3Z-3 | 2026-08-31 06:56:26 | 52.96963 | 16.43180 | 61° | 62km/h | 6739m | -1.9m/s | -21.0°C | 74.5% | 437.0hPa | 2.5V | 00:00:00 | 00:00:00 | 00:00:00 | |
| SP3WXH-11 | 2026-08-31 06:56:25 | 52.96940 | 16.43111 | 62° | 62km/h | 6743m | -2.0m/s | -21.1°C | 74.5% | 436.7hPa | 2.5V | 00:00:00 | 00:00:00 | 00:00:00 | |
| AM1SDL-15 | 2026-08-31 06:56:22 | 52.96924 | 16.43064 | 61° | 66km/h | 6747m | -1.9m/s | -21.0°C | 83.1% | 436.4hPa | 2.5V | 00:00:00 | 02:46:37 | 00:00:00 | |
| KRY50SP-1 | 2026-08-31 06:56:19 | 52.96908 | 16.43016 | 62° | 66km/h | 6750m | -2.3m/s | -21.1°C | 74.8% | 436.2hPa | 2.5V | 00:00:00 | 00:00:00 | 00:00:00 | |
| EDDB2-12 | 2026-08-31 06:56:16 | 52.96863 | 16.42899 | 54° | 66km/h | 6759m | -1.7m/s | -21.1°C | 76.0% | 435.8hPa | 2.5V | 00:00:00 | 00:00:00 | 00:00:00 | |
| KRY50SP-1 | 2026-08-31 06:56:14 | 52.96863 | 16.42899 | 56° | 66km/h | 6759m | -1.7m/s | -21.1°C | 76.1% | 435.8hPa | 2.5V | 00:00:00 | 00:00:00 | 00:00:00 | |
| AM1SDL-15 | 2026-08-31 06:56:10 | 52.96814 | 16.42790 | 52° | 62km/h | 6767m | -1.5m/s | -21.1°C | 85.3% | 435.3hPa | 2.5V | 00:00:00 | 02:46:25 | 00:00:00 | |
| KRY50SP-1 | 2026-08-31 06:56:08 | 52.96803 | 16.42769 | 52° | 62km/h | 6768m | -1.5m/s | -21.2°C | 77.4% | 435.3hPa | 2.5V | 00:00:00 | 00:00:00 | 00:00:00 | |
| SP3BTT-10 | 2026-08-31 06:56:05 | 52.96766 | 16.42690 | 53° | 64km/h | 6774m | -1.8m/s | -21.2°C | 86.5% | 434.8hPa | 2.5V | 00:00:00 | 00:00:00 | 00:00:00 | |
| KRY50SP-1 | 2026-08-31 06:56:03 | 52.96749 | 16.42651 | 55° | 57km/h | 6777m | -1.9m/s | -21.3°C | 77.7% | 434.7hPa | 2.5V | 00:00:00 | 00:00:00 | 00:00:00 | |
| SP3WXH-11 | 2026-08-31 06:55:54 | 52.96674 | 16.42447 | 61° | 58km/h | 6794m | -2.0m/s | -21.4°C | 78.6% | 433.7hPa | 2.5V | 00:00:00 | 00:00:00 | 00:00:00 | |
| KRY50SP-1 | 2026-08-31 06:55:53 | 52.96674 | 16.42447 | 62° | 58km/h | 6795m | -2.0m/s | -21.4°C | 78.7% | 433.7hPa | 2.5V | 00:00:00 | 00:00:00 | 00:00:00 | |
| KRY50SP-1 | 2026-08-31 06:55:46 | 52.96632 | 16.42312 | 65° | 64km/h | 6805m | -1.8m/s | -21.4°C | 80.7% | 433.1hPa | 2.5V | 00:00:00 | 00:00:00 | 00:00:00 | |
| 3Z3Z-3 | 2026-08-31 06:55:44 | 52.96618 | 16.42263 | 63° | 66km/h | 6808m | -2.0m/s | -21.4°C | 80.8% | 432.9hPa | 2.5V | 00:00:00 | 00:00:00 | 00:00:00 | |
| KRY50SP-1 | 2026-08-31 06:55:41 | 52.96594 | 16.42189 | 61° | 68km/h | 6813m | -2.1m/s | -21.4°C | 81.1% | 432.6hPa | 2.5V | 00:00:00 | 00:00:00 | 00:00:00 | |
| SONDE2-11 | 2026-08-31 06:55:39 | 52.96568 | 16.42116 | 57° | 66km/h | 6818m | -2.1m/s | -21.5°C | 81.1% | 432.2hPa | 2.5V | 00:00:00 | 00:00:00 | 00:00:00 | |
| KRY50SP-1 | 2026-08-31 06:55:36 | 52.96549 | 16.42069 | 57° | 68km/h | 6821m | -2.0m/s | -21.5°C | 81.7% | 432.1hPa | 2.5V | 00:00:00 | 00:00:00 | 00:00:00 | |
| SP3BTT-10 | 2026-08-31 06:55:35 | 52.96530 | 16.42023 | 56° | 64km/h | 6825m | -1.8m/s | -21.5°C | 91.0% | 431.7hPa | 2.5V | 00:00:00 | 00:00:00 | 00:00:00 | |
| 3Z3Z-3 | 2026-08-31 06:55:34 | 52.96530 | 16.42023 | 56° | 64km/h | 6825m | -1.8m/s | -21.5°C | 81.8% | 431.8hPa | 2.7V | 00:00:00 | 00:00:00 | 00:00:00 | |
| EDDB2-11 | 2026-08-31 06:55:32 | 52.96490 | 16.41935 | 51° | 64km/h | 6832m | -1.8m/s | -21.6°C | 81.8% | 431.4hPa | 2.7V | 00:00:00 | 00:00:00 | 00:00:00 | |
| KRY50SP-1 | 2026-08-31 06:55:30 | 52.96489 | 16.41936 | 52° | 64km/h | 6832m | -1.8m/s | -21.6°C | 81.9% | 431.4hPa | 2.7V | 00:00:00 | 00:00:00 | 00:00:00 | |
| KRY50SP-1 | 2026-08-31 06:55:25 | 52.96440 | 16.41832 | 53° | 60km/h | 6839m | -2.0m/s | -21.6°C | 82.5% | 430.8hPa | 2.7V | 00:00:00 | 00:00:00 | 00:00:00 | |
| 3Z3Z-3 | 2026-08-31 06:55:24 | 52.96431 | 16.41811 | 56° | 60km/h | 6841m | -2.3m/s | -21.7°C | 82.5% | 430.8hPa | 2.7V | 00:00:00 | 00:00:00 | 00:00:00 | |
| SP3WXH-11 | 2026-08-31 06:55:23 | 52.96407 | 16.41751 | 58° | 55km/h | 6847m | -2.2m/s | -21.7°C | 82.5% | 430.5hPa | 2.7V | 00:00:00 | 00:00:00 | 00:00:00 | |
| KRY50SP-1 | 2026-08-31 06:55:19 | 52.96392 | 16.41711 | 56° | 55km/h | 6851m | -1.9m/s | -21.7°C | 82.8% | 430.2hPa | 2.7V | 00:00:00 | 00:00:00 | 00:00:00 | |
| KRY50SP-1 | 2026-08-31 06:55:14 | 52.96349 | 16.41615 | 51° | 58km/h | 6858m | -1.7m/s | -21.8°C | 82.9% | 429.9hPa | 2.7V | 00:00:00 | 00:00:00 | 00:00:00 | |
| 3Z3Z-3 | 2026-08-31 06:55:13 | 52.96340 | 16.41595 | 53° | 60km/h | 6859m | -1.9m/s | -21.8°C | 83.0% | 429.7hPa | 2.7V | 00:00:00 | 00:00:00 | 00:00:00 | |
| SONDE2-11 | 2026-08-31 06:55:08 | 52.96278 | 16.41464 | 59° | 68km/h | 6868m | -2.0m/s | -21.9°C | 83.0% | 429.2hPa | 2.7V | 00:00:00 | 00:00:00 | 00:00:00 | |
| 3Z3Z-3 | 2026-08-31 06:55:02 | 52.96237 | 16.41339 | 65° | 66km/h | 6877m | -2.1m/s | -22.0°C | 83.7% | 428.7hPa | 2.7V | 00:00:00 | 00:00:00 | 00:00:00 | |
| EDDB2-11 | 2026-08-31 06:55:01 | 52.96218 | 16.41268 | 66° | 58km/h | 6881m | -2.5m/s | -22.0°C | 83.8% | 428.4hPa | 2.7V | 00:00:00 | 00:00:00 | 00:00:00 | |
| SP3WXH-11 | 2026-08-31 06:54:52 | 52.96162 | 16.41068 | 62° | 57km/h | 6901m | -2.3m/s | -22.2°C | 84.8% | 427.3hPa | 2.7V | 00:00:00 | 00:00:00 | 00:00:00 | |
| 3Z3Z-3 | 2026-08-31 06:54:51 | 52.96169 | 16.41090 | 66° | 58km/h | 6899m | -2.3m/s | -22.2°C | 84.8% | 427.5hPa | 2.7V | 00:00:00 | 00:00:00 | 00:00:00 | |
| AA1-15 | 2026-08-31 06:54:34 | 52.96055 | 16.40664 | 66° | 68km/h | 6934m | -2.3m/s | 0°C | 0% | 0hPa | 2.7V | 18:12:15 | 02:44:49 | 00:00:00 | |
| 3Z3Z-3 | 2026-08-31 06:54:31 | 52.96041 | 16.40611 | 67° | 71km/h | 6938m | -2.4m/s | -22.5°C | 83.7% | 425.2hPa | 2.7V | 00:00:00 | 00:00:00 | 00:00:00 | |
| KRY50SP-1 | 2026-08-31 06:54:29 | 52.96025 | 16.40559 | 66° | 69km/h | 6942m | -1.9m/s | -22.5°C | 83.8% | 424.9hPa | 2.7V | 00:00:00 | 00:00:00 | 00:00:00 | |
| DB0DAN | 2026-08-31 06:54:25 | 52.95984 | 16.40431 | 60° | 64km/h | 6950m | -2.2m/s | -22.6°C | 84% | 424.47hPa | 2.7V | 00:00:00 | 00:00:00 | 00:00:00 | |
| KRY50SP-1 | 2026-08-31 06:54:23 | 52.95975 | 16.40406 | 61° | 66km/h | 6952m | -2.3m/s | -22.6°C | 84.2% | 424.3hPa | 2.7V | 00:00:00 | 00:00:00 | 00:00:00 | |
| AM1SDL-15 | 2026-08-31 06:54:22 | 52.95959 | 16.40358 | 59° | 62km/h | 6956m | -1.8m/s | -22.6°C | 94.3% | 424.1hPa | 2.7V | 00:00:00 | 02:44:37 | 00:00:00 | |
| SP3WXH-11 | 2026-08-31 06:54:21 | 52.95942 | 16.40311 | 62° | 62km/h | 6959m | -2.2m/s | -22.7°C | 84.6% | 424.0hPa | 2.7V | 00:00:00 | 00:00:00 | 00:00:00 | |
| 3Z3Z-3 | 2026-08-31 06:54:19 | 52.95942 | 16.40311 | 63° | 64km/h | 6959m | -2.2m/s | -22.7°C | 84.7% | 424.0hPa | 2.7V | 00:00:00 | 00:00:00 | 00:00:00 | |
| KRY50SP-1 | 2026-08-31 06:54:18 | 52.95935 | 16.40288 | 62° | 64km/h | 6961m | -2.1m/s | -22.7°C | 85.0% | 423.9hPa | 2.7V | 00:00:00 | 00:00:00 | 00:00:00 | |
| KRY50SP-1 | 2026-08-31 06:54:13 | 52.95897 | 16.40175 | 62° | 60km/h | 6970m | -2.5m/s | -22.8°C | 86.2% | 423.3hPa | 2.7V | 00:00:00 | 00:00:00 | 00:00:00 | |
| EDDB2-12 | 2026-08-31 06:54:11 | 52.95876 | 16.40110 | 65° | 57km/h | 6976m | -1.8m/s | -22.8°C | 86.0% | 423.0hPa | 2.7V | 00:00:00 | 00:00:00 | 00:00:00 | |
| AM1SDL-15 | 2026-08-31 06:54:10 | 52.95869 | 16.40088 | 65° | 58km/h | 6977m | -2.0m/s | -22.8°C | 96.4% | 422.9hPa | 2.7V | 00:00:00 | 02:44:25 | 00:00:00 | |
| 3Z3Z-3 | 2026-08-31 06:54:09 | 52.95869 | 16.40088 | 66° | 60km/h | 6977m | -2.1m/s | -22.8°C | 86.3% | 423.0hPa | 2.7V | 00:00:00 | 00:00:00 | 00:00:00 | |
| KRY50SP-1 | 2026-08-31 06:54:07 | 52.95857 | 16.40043 | 69° | 58km/h | 6981m | -2.3m/s | -22.8°C | 86.2% | 422.7hPa | 2.7V | 00:00:00 | 00:00:00 | 00:00:00 | |
| SONDE2-11 | 2026-08-31 06:54:06 | 52.95846 | 16.39999 | 69° | 58km/h | 6985m | -2.3m/s | -22.9°C | 86.3% | 422.5hPa | 2.7V | 00:00:00 | 00:00:00 | 00:00:00 | |
| SP3BTT-10 | 2026-08-31 06:54:05 | 52.95840 | 16.39976 | 67° | 64km/h | 6987m | -2.1m/s | -22.9°C | 96.8% | 422.4hPa | 2.7V | 00:00:00 | 00:00:00 | 00:00:00 | |
| EDDB2-11 | 2026-08-31 06:53:59 | 52.95803 | 16.39815 | 67° | 58km/h | 7002m | -2.4m/s | -23.0°C | 86.6% | 421.7hPa | 2.7V | 00:00:00 | 00:00:00 | 00:00:00 | |
| SP3WXH-11 | 2026-08-31 06:53:50 | 52.95755 | 16.39593 | 71° | 66km/h | 7020m | -1.8m/s | -23.0°C | 87.5% | 420.7hPa | 2.7V | 00:00:00 | 00:00:00 | 00:00:00 | |
| AM1SDL-15 | 2026-08-31 06:53:46 | 52.95737 | 16.39513 | 68° | 68km/h | 7026m | -1.9m/s | -23.0°C | 98.3% | 420.3hPa | 2.7V | 00:00:00 | 02:44:01 | 00:00:00 | |
| 3Z3Z-3 | 2026-08-31 06:53:44 | 52.95730 | 16.39487 | 68° | 68km/h | 7027m | -1.6m/s | -23.1°C | 88.3% | 420.3hPa | 2.7V | 00:00:00 | 00:00:00 | 00:00:00 | |
| KRY50SP-1 | 2026-08-31 06:53:41 | 52.95708 | 16.39409 | 66° | 68km/h | 7033m | -2.1m/s | -23.0°C | 88.5% | 420.1hPa | 2.7V | 00:00:00 | 00:00:00 | 00:00:00 | |
| EDDB2-12 | 2026-08-31 06:53:40 | 52.95693 | 16.39359 | 63° | 66km/h | 7037m | -1.9m/s | -23.0°C | 88.3% | 419.9hPa | 2.7V | 00:00:00 | 00:00:00 | 00:00:00 | |
| SP3BTT-10 | 2026-08-31 06:53:35 | 52.95652 | 16.39236 | 60° | 58km/h | 7047m | -2.0m/s | -22.9°C | 97.1% | 419.3hPa | 2.7V | 00:00:00 | 00:00:00 | 08:30:00 | |
| AM1SDL-15 | 2026-08-31 06:53:34 | 52.95644 | 16.39212 | 60° | 60km/h | 7049m | -2.0m/s | -23.0°C | 96.8% | 419.2hPa | 2.7V | 00:00:00 | 02:43:49 | 00:00:00 | |
| 3Z3Z-3 | 2026-08-31 06:53:33 | 52.95644 | 16.39212 | 61° | 66km/h | 7049m | -2.1m/s | -23.0°C | 86.6% | 419.2hPa | 2.7V | 00:00:00 | 00:00:00 | 00:00:00 | |
| KRY50SP-1 | 2026-08-31 06:53:30 | 52.95619 | 16.39143 | 59° | 62km/h | 7055m | -2.0m/s | -23.0°C | 86.7% | 419.0hPa | 2.7V | 00:00:00 | 00:00:00 | 00:00:00 | |
| EDDB2-11 | 2026-08-31 06:53:28 | 52.95587 | 16.39056 | 57° | 58km/h | 7062m | -1.9m/s | -23.0°C | 85.6% | 418.5hPa | 2.7V | 00:00:00 | 00:00:00 | 00:00:00 | |
| KRY50SP-1 | 2026-08-31 06:53:25 | 52.95578 | 16.39035 | 58° | 60km/h | 7064m | -1.9m/s | -23.0°C | 85.7% | 418.5hPa | 2.7V | 00:00:00 | 00:00:00 | 00:00:00 | |
| 3Z3Z-3 | 2026-08-31 06:53:22 | 52.95553 | 16.38973 | 56° | 60km/h | 7070m | -1.8m/s | -23.1°C | 85.6% | 418.0hPa | 2.7V | 00:00:00 | 00:00:00 | 00:00:00 | |
| AM1SDL-15 | 2026-08-31 06:53:20 | 52.95527 | 16.38909 | 55° | 60km/h | 7076m | -2.0m/s | -23.1°C | 95.1% | 417.7hPa | 2.7V | 00:00:00 | 02:43:35 | 00:00:00 | |
| SP3WXH-11 | 2026-08-31 06:53:18 | 52.95508 | 16.38864 | 57° | 66km/h | 7080m | -2.0m/s | -23.2°C | 85.0% | 417.6hPa | 2.5V | 00:00:00 | 00:00:00 | 00:00:00 | |
| KRY50SP-1 | 2026-08-31 06:53:14 | 52.95483 | 16.38789 | 65° | 68km/h | 7086m | -1.7m/s | -23.1°C | 85.7% | 417.2hPa | 2.5V | 00:00:00 | 00:00:00 | 00:00:00 | |
| EDDB2-12 | 2026-08-31 06:53:09 | 52.95447 | 16.38644 | 64° | 57km/h | 7096m | -1.9m/s | -23.3°C | 86.6% | 416.6hPa | 2.5V | 00:00:00 | 00:00:00 | 00:00:00 | |
| KRY50SP-1 | 2026-08-31 06:53:08 | 52.95447 | 16.38644 | 66° | 58km/h | 7096m | -1.9m/s | -23.3°C | 86.7% | 416.6hPa | 2.5V | 00:00:00 | 00:00:00 | 00:00:00 | |
| 3Z3Z-3 | 2026-08-31 06:53:07 | 52.95441 | 16.38622 | 65° | 57km/h | 7099m | -2.0m/s | -23.3°C | 87.0% | 416.6hPa | 2.5V | 00:00:00 | 00:00:00 | 00:00:00 | |
| AM1SDL-15 | 2026-08-31 06:53:05 | 52.95419 | 16.38560 | 59° | 62km/h | 7104m | -1.5m/s | -23.3°C | 97.0% | 416.2hPa | 2.5V | 00:00:00 | 02:43:20 | 00:00:00 | |
| SONDE2-11 | 2026-08-31 06:53:04 | 52.95412 | 16.38540 | 58° | 57km/h | 7105m | -1.7m/s | -23.3°C | 85.8% | 416.1hPa | 2.5V | 00:00:00 | 00:00:00 | 00:00:00 | |
| KRY50SP-1 | 2026-08-31 06:53:02 | 52.95404 | 16.38519 | 59° | 58km/h | 7107m | -1.7m/s | -23.3°C | 86.2% | 416.0hPa | 2.5V | 00:00:00 | 00:00:00 | 00:00:00 | |
| EDDB2-11 | 2026-08-31 06:52:56 | 52.95343 | 16.38371 | 55° | 66km/h | 7122m | -1.6m/s | -23.5°C | 86.8% | 415.2hPa | 2.5V | 00:00:00 | 00:00:00 | 00:00:00 | |
| SP3WXH-11 | 2026-08-31 06:52:47 | 52.95268 | 16.38147 | 66° | 64km/h | 7140m | -1.7m/s | -23.6°C | 86.9% | 414.3hPa | 2.5V | 00:00:00 | 00:00:00 | 00:00:00 | |
| KRY50SP-1 | 2026-08-31 06:52:45 | 52.95261 | 16.38121 | 68° | 64km/h | 7142m | -1.7m/s | -23.6°C | 87.2% | 414.2hPa | 2.5V | 00:00:00 | 00:00:00 | 00:00:00 | |
| AM1SDL-15 | 2026-08-31 06:52:41 | 52.95229 | 16.38008 | 63° | 58km/h | 7150m | -1.6m/s | -23.6°C | 98.5% | 413.6hPa | 2.5V | 00:00:00 | 02:42:56 | 08:30:00 | |
| 3Z3Z-3 | 2026-08-31 06:52:40 | 52.95229 | 16.38008 | 64° | 57km/h | 7150m | -1.6m/s | -23.6°C | 88.0% | 413.7hPa | 2.7V | 00:00:00 | 00:00:00 | 00:00:00 | |
| EDDB2-12 | 2026-08-31 06:52:38 | 52.95209 | 16.37947 | 59° | 55km/h | 7155m | -1.9m/s | -23.7°C | 88.2% | 413.4hPa | 2.7V | 00:00:00 | 00:00:00 | 00:00:00 | |
| KRY50SP-1 | 2026-08-31 06:52:34 | 52.95185 | 16.37888 | 57° | 57km/h | 7162m | -2.3m/s | -23.7°C | 88.5% | 413.1hPa | 2.7V | 00:00:00 | 00:00:00 | 00:00:00 | |
| SP3BTT-10 | 2026-08-31 06:52:33 | 52.95168 | 16.37848 | 54° | 62km/h | 7166m | -1.7m/s | -23.7°C | 0% | 412.8hPa | 2.7V | 00:00:00 | 00:00:00 | 00:00:00 | |
| AM1SDL-15 | 2026-08-31 06:52:29 | 52.95130 | 16.37762 | 55° | 68km/h | 7172m | -1.4m/s | -23.8°C | 0% | 412.3hPa | 2.7V | 00:00:00 | 02:42:44 | 00:00:00 | |
| KRY50SP-1 | 2026-08-31 06:52:28 | 52.95130 | 16.37762 | 55° | 68km/h | 7172m | -1.5m/s | -23.8°C | 88.6% | 412.4hPa | 2.7V | 00:00:00 | 00:00:00 | 00:00:00 | |
| EDDB2-11 | 2026-08-31 06:52:26 | 52.95091 | 16.37665 | 59° | 69km/h | 7180m | -1.9m/s | -23.9°C | 88.7% | 412.0hPa | 2.7V | 00:00:00 | 00:00:00 | 00:00:00 | |
| KRY50SP-1 | 2026-08-31 06:52:22 | 52.95074 | 16.37613 | 64° | 69km/h | 7184m | -1.6m/s | -23.9°C | 89.5% | 411.8hPa | 2.7V | 00:00:00 | 00:00:00 | 00:00:00 | |
| AM1SDL-15 | 2026-08-31 06:52:17 | 52.95032 | 16.37475 | 60° | 58km/h | 7195m | -2.3m/s | -24.0°C | 0% | 411.1hPa | 2.7V | 00:00:00 | 02:42:32 | 00:00:00 | |
| SP3WXH-11 | 2026-08-31 06:52:16 | 52.95024 | 16.37455 | 58° | 55km/h | 7197m | -2.1m/s | -24.1°C | 91.2% | 411.1hPa | 2.7V | 00:00:00 | 00:00:00 | 00:00:00 | |
| KRY50SP-1 | 2026-08-31 06:52:11 | 52.94992 | 16.37377 | 53° | 57km/h | 7205m | -2.5m/s | -24.1°C | 91.6% | 410.6hPa | 2.7V | 00:00:00 | 00:00:00 | 00:00:00 | |
| EDDB2-12 | 2026-08-31 06:52:07 | 52.94946 | 16.37278 | 52° | 64km/h | 7216m | -2.1m/s | -24.3°C | 91.6% | 410.0hPa | 2.7V | 00:00:00 | 00:00:00 | 00:00:00 | |
| AM1SDL-15 | 2026-08-31 06:52:05 | 52.94926 | 16.37233 | 57° | 66km/h | 7220m | -2.1m/s | -24.2°C | 0% | 409.7hPa | 2.7V | 00:00:00 | 02:42:20 | 00:00:00 | |
| SP3BTT-10 | 2026-08-31 06:52:03 | 52.94908 | 16.37184 | 59° | 68km/h | 7224m | -1.6m/s | -24.2°C | 0% | 409.5hPa | 2.7V | 00:00:00 | 00:00:00 | 00:00:00 | |
| SONDE2-11 | 2026-08-31 06:52:02 | 52.94899 | 16.37159 | 61° | 69km/h | 7226m | -1.6m/s | -24.3°C | 92.7% | 409.5hPa | 2.7V | 00:00:00 | 00:00:00 | 00:00:00 | |
| EDDB2-11 | 2026-08-31 06:51:54 | 52.94842 | 16.36972 | 60° | 55km/h | 7242m | -1.8m/s | -24.4°C | 94.1% | 408.6hPa | 2.7V | 00:00:00 | 00:00:00 | 00:00:00 | |
| SP3WXH-11 | 2026-08-31 06:51:45 | 52.94761 | 16.36793 | 49° | 62km/h | 7259m | -1.7m/s | -24.6°C | 94.2% | 407.5hPa | 2.7V | 00:00:00 | 00:00:00 | 00:00:00 | |
| KRY50SP-1 | 2026-08-31 06:51:44 | 52.94762 | 16.36793 | 51° | 64km/h | 7259m | -1.7m/s | -24.6°C | 94.3% | 407.5hPa | 2.7V | 00:00:00 | 00:00:00 | 00:00:00 | |
| AM1SDL-15 | 2026-08-31 06:51:41 | 52.94721 | 16.36706 | 56° | 68km/h | 7267m | -2.0m/s | -24.5°C | 0% | 407.1hPa | 2.7V | 00:00:00 | 02:41:56 | 00:00:00 | |
| KRY50SP-1 | 2026-08-31 06:51:38 | 52.94702 | 16.36659 | 57° | 69km/h | 7271m | -1.6m/s | -24.6°C | 93.0% | 406.9hPa | 2.7V | 00:00:00 | 00:00:00 | 00:00:00 | |
| EDDB2-12 | 2026-08-31 06:51:36 | 52.94675 | 16.36584 | 61° | 68km/h | 7277m | -1.9m/s | -24.6°C | 92.2% | 406.6hPa | 2.7V | 00:00:00 | 00:00:00 | 00:00:00 | |
| SP3BTT-10 | 2026-08-31 06:51:33 | 52.94651 | 16.36508 | 65° | 62km/h | 7283m | -2.3m/s | -24.7°C | 0% | 406.2hPa | 2.7V | 00:00:00 | 00:00:00 | 00:00:00 | |
| KRY50SP-1 | 2026-08-31 06:51:32 | 52.94652 | 16.36508 | 66° | 68km/h | 7283m | -2.3m/s | -24.7°C | 92.3% | 406.2hPa | 2.5V | 00:00:00 | 00:00:00 | 00:00:00 | |
| SONDE2-11 | 2026-08-31 06:51:31 | 52.94637 | 16.36458 | 65° | 64km/h | 7287m | -2.4m/s | -24.7°C | 93.9% | 405.9hPa | 2.5V | 00:00:00 | 00:00:00 | 00:00:00 | |
| AM1SDL-15 | 2026-08-31 06:51:29 | 52.94624 | 16.36412 | 66° | 58km/h | 7291m | -1.8m/s | -24.7°C | 0% | 405.6hPa | 2.5V | 00:00:00 | 02:41:44 | 00:00:00 | |
| KRY50SP-1 | 2026-08-31 06:51:27 | 52.94617 | 16.36390 | 64° | 58km/h | 7294m | -2.0m/s | -24.7°C | 95.4% | 405.6hPa | 2.7V | 00:00:00 | 00:00:00 | 00:00:00 | |
| EDDB2-11 | 2026-08-31 06:51:23 | 52.94581 | 16.36291 | 52° | 57km/h | 7304m | -2.2m/s | -24.9°C | 95.6% | 405.0hPa | 2.7V | 00:00:00 | 00:00:00 | 00:00:00 | |
| KRY50SP-1 | 2026-08-31 06:51:21 | 52.94572 | 16.36272 | 53° | 60km/h | 7306m | -2.2m/s | -24.9°C | 96.1% | 404.9hPa | 2.7V | 00:00:00 | 00:00:00 | 00:00:00 | |
| AM1SDL-15 | 2026-08-31 06:51:17 | 52.94523 | 16.36165 | 56° | 68km/h | 7317m | -2.8m/s | -24.9°C | 0% | 404.4hPa | 2.7V | 00:00:00 | 02:41:32 | 00:00:00 | |
| KRY50SP-1 | 2026-08-31 06:51:16 | 52.94522 | 16.36165 | 57° | 66km/h | 7317m | -2.8m/s | -24.9°C | 95.9% | 404.4hPa | 2.7V | 00:00:00 | 00:00:00 | 00:00:00 | |
| SP3WXH-11 | 2026-08-31 06:51:14 | 52.94494 | 16.36093 | 58° | 69km/h | 7324m | -2.0m/s | -24.9°C | 93.5% | 404.0hPa | 2.7V | 00:00:00 | 00:00:00 | 00:00:00 | |
| KRY50SP-1 | 2026-08-31 06:51:11 | 52.94476 | 16.36042 | 62° | 69km/h | 7329m | -2.3m/s | -24.9°C | 91.6% | 403.8hPa | 2.7V | 00:00:00 | 00:00:00 | 00:00:00 | |
| AM1SDL-15 | 2026-08-31 06:51:05 | 52.94424 | 16.35870 | 66° | 58km/h | 7345m | -1.7m/s | -25.0°C | 0% | 402.9hPa | 2.7V | 00:00:00 | 02:41:20 | 00:00:00 | |
| SONDE2-11 | 2026-08-31 06:51:00 | 52.94390 | 16.35767 | 57° | 55km/h | 7354m | -1.8m/s | -25.1°C | 86.7% | 402.5hPa | 2.7V | 00:00:00 | 00:00:00 | 00:00:00 | |
| EDDB2-11 | 2026-08-31 06:50:52 | 52.94316 | 16.35601 | 55° | 68km/h | 7368m | -1.9m/s | -25.2°C | 87.6% | 401.6hPa | 2.7V | 00:00:00 | 00:00:00 | 00:00:00 | |
| KRY50SP-1 | 2026-08-31 06:50:50 | 52.94306 | 16.35577 | 57° | 71km/h | 7370m | -1.7m/s | -25.3°C | 88.1% | 401.4hPa | 2.7V | 00:00:00 | 00:00:00 | 00:00:00 | |
| KRY50SP-1 | 2026-08-31 06:50:45 | 52.94264 | 16.35450 | 66° | 68km/h | 7380m | -2.0m/s | -25.3°C | 80.0% | 400.9hPa | 2.7V | 00:00:00 | 00:00:00 | 00:00:00 | |
| SP3WXH-11 | 2026-08-31 06:50:43 | 52.94244 | 16.35377 | 64° | 60km/h | 7387m | -1.6m/s | -25.3°C | 80.2% | 400.6hPa | 2.7V | 00:00:00 | 00:00:00 | 00:00:00 | |
| AM1SDL-15 | 2026-08-31 06:50:41 | 52.94231 | 16.35332 | 62° | 62km/h | 7390m | -1.7m/s | -25.3°C | 91.4% | 400.2hPa | 2.7V | 00:00:00 | 02:40:56 | 00:00:00 | |
| KRY50SP-1 | 2026-08-31 06:50:40 | 52.94230 | 16.35332 | 63° | 58km/h | 7390m | -1.8m/s | -25.4°C | 81.1% | 400.3hPa | 2.7V | 00:00:00 | 00:00:00 | 00:00:00 | |
| KRY50SP-1 | 2026-08-31 06:50:35 | 52.94189 | 16.35228 | 55° | 62km/h | 7399m | -1.7m/s | -25.5°C | 82.6% | 399.9hPa | 2.7V | 00:00:00 | 00:00:00 | 00:00:00 | |
| EDDB2-12 | 2026-08-31 06:50:34 | 52.94169 | 16.35186 | 51° | 64km/h | 7403m | -2.2m/s | -25.5°C | 83.1% | 399.7hPa | 2.7V | 00:00:00 | 00:00:00 | 00:00:00 | |
| SP3BTT-10 | 2026-08-31 06:50:32 | 52.94149 | 16.35142 | 54° | 66km/h | 7407m | -1.6m/s | -25.5°C | 94.6% | 399.4hPa | 2.7V | 00:00:00 | 00:00:00 | 00:00:00 | |
| KRY50SP-1 | 2026-08-31 06:50:30 | 52.94138 | 16.35120 | 53° | 68km/h | 7409m | -1.6m/s | -25.5°C | 84.3% | 399.3hPa | 2.7V | 00:00:00 | 00:00:00 | 00:00:00 | |
| SONDE2-11 | 2026-08-31 06:50:29 | 52.94117 | 16.35074 | 53° | 69km/h | 7413m | -2.0m/s | -25.6°C | 85.4% | 399.1hPa | 2.7V | 00:00:00 | 00:00:00 | 00:00:00 | |
| KRY50SP-1 | 2026-08-31 06:50:24 | 52.94076 | 16.34974 | 60° | 71km/h | 7421m | -2.2m/s | -25.6°C | 86.7% | 398.6hPa | 2.7V | 00:00:00 | 00:00:00 | 00:00:00 | |
| EDDB2-11 | 2026-08-31 06:50:21 | 52.94041 | 16.34870 | 64° | 68km/h | 7430m | -2.0m/s | -25.7°C | 88.7% | 398.1hPa | 2.7V | 00:00:00 | 00:00:00 | 00:00:00 | |
| AM1SDL-15 | 2026-08-31 06:50:17 | 52.94012 | 16.34775 | 61° | 62km/h | 7438m | -2.0m/s | -25.7°C | 99.7% | 397.8hPa | 2.7V | 00:00:00 | 02:40:32 | 00:00:00 | |
| SP3WXH-11 | 2026-08-31 06:50:12 | 52.93970 | 16.34672 | 54° | 58km/h | 7448m | -2.1m/s | -25.7°C | 83.3% | 397.2hPa | 2.5V | 00:00:00 | 00:00:00 | 00:00:00 | |
| KRY50SP-1 | 2026-08-31 06:50:06 | 52.93919 | 16.34570 | 51° | 68km/h | 7458m | -1.9m/s | -25.7°C | 68.6% | 396.6hPa | 2.5V | 00:00:00 | 00:00:00 | 00:00:00 | |
| AM1SDL-15 | 2026-08-31 06:50:05 | 52.93897 | 16.34526 | 50° | 69km/h | 7462m | -2.1m/s | -25.6°C | 80.7% | 396.4hPa | 2.5V | 00:00:00 | 02:40:20 | 00:00:00 | |
| EDDB2-12 | 2026-08-31 06:50:03 | 52.93874 | 16.34478 | 54° | 71km/h | 7466m | -2.0m/s | -25.7°C | 75.8% | 396.2hPa | 2.5V | 00:00:00 | 00:00:00 | 00:00:00 | |
| SONDE2-11 | 2026-08-31 06:49:58 | 52.93827 | 16.34350 | 62° | 68km/h | 7476m | -2.0m/s | -25.8°C | 77.4% | 395.7hPa | 2.5V | 00:00:00 | 00:00:00 | 00:00:00 | |
| EDDB2-11 | 2026-08-31 06:49:50 | 52.93761 | 16.34176 | 49° | 58km/h | 7491m | -2.1m/s | -25.9°C | 76.4% | 394.8hPa | 2.5V | 00:00:00 | 00:00:00 | 00:00:00 | |
| KRY50SP-1 | 2026-08-31 06:49:49 | 52.93761 | 16.34176 | 51° | 60km/h | 7492m | -2.1m/s | -25.9°C | 76.5% | 394.8hPa | 2.5V | 00:00:00 | 00:00:00 | 00:00:00 | |
| KRY50SP-1 | 2026-08-31 06:49:43 | 52.93697 | 16.34057 | 50° | 68km/h | 7504m | -2.0m/s | -26.0°C | 74.4% | 394.2hPa | 2.5V | 00:00:00 | 00:00:00 | 00:00:00 | |
| AM1SDL-15 | 2026-08-31 06:49:41 | 52.93663 | 16.33989 | 52° | 68km/h | 7509m | -1.7m/s | -25.9°C | 82.6% | 393.8hPa | 2.5V | 00:00:00 | 02:39:56 | 00:00:00 | |
| KRY50SP-1 | 2026-08-31 06:49:38 | 52.93641 | 16.33938 | 57° | 73km/h | 7512m | -1.7m/s | -26.0°C | 70.7% | 393.6hPa | 2.6V | 00:00:00 | 00:00:00 | 00:00:00 | |
| SP3BTT-10 | 2026-08-31 06:49:32 | 52.93580 | 16.33769 | 57° | 71km/h | 7526m | -1.3m/s | -26.0°C | 83.8% | 392.9hPa | 2.6V | 00:00:00 | 00:00:00 | 00:00:00 | |
| AM1SDL-15 | 2026-08-31 06:49:29 | 52.93554 | 16.33707 | 53° | 66km/h | 7532m | -1.9m/s | -26.1°C | 86.0% | 392.6hPa | 2.7V | 00:00:00 | 02:39:44 | 00:00:00 | |
| SONDE2-11 | 2026-08-31 06:49:27 | 52.93535 | 16.33668 | 48° | 60km/h | 7535m | -2.1m/s | -26.2°C | 76.7% | 392.4hPa | 2.7V | 00:00:00 | 00:00:00 | 00:00:00 | |
| KRY50SP-1 | 2026-08-31 06:49:26 | 52.93535 | 16.33668 | 49° | 62km/h | 7536m | -2.1m/s | -26.1°C | 76.8% | 392.4hPa | 2.7V | 00:00:00 | 00:00:00 | 00:00:00 | |
| KRY50SP-1 | 2026-08-31 06:49:22 | 52.93481 | 16.33568 | 49° | 66km/h | 7545m | -2.0m/s | -26.2°C | 77.3% | 392.0hPa | 2.7V | 00:00:00 | 00:00:00 | 00:00:00 | |
| EDDB2-11 | 2026-08-31 06:49:19 | 52.93445 | 16.33504 | 48° | 71km/h | 7551m | -1.7m/s | -26.3°C | 76.0% | 391.6hPa | 2.7V | 00:00:00 | 00:00:00 | 00:00:00 | |
| AM1SDL-15 | 2026-08-31 06:49:17 | 52.93420 | 16.33458 | 51° | 71km/h | 7554m | -1.7m/s | -26.2°C | 84.5% | 391.4hPa | 2.7V | 00:00:00 | 02:39:32 | 00:00:00 | |
| KRY50SP-1 | 2026-08-31 06:49:16 | 52.93419 | 16.33458 | 51° | 75km/h | 7554m | -1.7m/s | -26.3°C | 74.4% | 391.4hPa | 2.7V | 00:00:00 | 00:00:00 | 00:00:00 | |
| SP3WXH-11 | 2026-08-31 06:49:10 | 52.93347 | 16.33282 | 59° | 64km/h | 7566m | -1.5m/s | -26.3°C | 72.6% | 390.7hPa | 2.7V | 00:00:00 | 00:00:00 | 00:00:00 | |
| AM1SDL-15 | 2026-08-31 06:49:05 | 52.93302 | 16.33173 | 52° | 68km/h | 7574m | -1.7m/s | -26.4°C | 83.2% | 390.3hPa | 2.7V | 00:00:00 | 02:39:20 | 08:30:00 | |
| EDDB2-12 | 2026-08-31 06:49:01 | 52.93260 | 16.33091 | 47° | 66km/h | 7581m | -2.2m/s | -26.5°C | 73.6% | 389.9hPa | 2.5V | 00:00:00 | 00:00:00 | 00:00:00 | |
| SONDE2-11 | 2026-08-31 06:48:56 | 52.93200 | 16.32985 | 47° | 73km/h | 7591m | -1.8m/s | -26.6°C | 72.4% | 389.4hPa | 2.5V | 00:00:00 | 00:00:00 | 00:00:00 | |
| KRY50SP-1 | 2026-08-31 06:48:55 | 52.93200 | 16.32985 | 49° | 73km/h | 7591m | -1.8m/s | -26.6°C | 72.5% | 389.4hPa | 2.5V | 00:00:00 | 00:00:00 | 00:00:00 | |
| AM1SDL-15 | 2026-08-31 06:48:53 | 52.93161 | 16.32915 | 50° | 71km/h | 7597m | -1.9m/s | -26.5°C | 78.6% | 389.0hPa | 2.5V | 00:00:00 | 02:39:08 | 00:00:00 | |
| KRY50SP-1 | 2026-08-31 06:48:50 | 52.93136 | 16.32865 | 52° | 78km/h | 7600m | -1.9m/s | -26.6°C | 68.5% | 388.9hPa | 2.5V | 00:00:00 | 00:00:00 | 00:00:00 | |
| KRY50SP-1 | 2026-08-31 06:48:45 | 52.93084 | 16.32739 | 59° | 68km/h | 7610m | -1.9m/s | -26.7°C | 69.4% | 388.5hPa | 2.5V | 00:00:00 | 00:00:00 | 00:00:00 | |
| SP3BTT-10 | 2026-08-31 06:48:44 | 52.93065 | 16.32693 | 55° | 68km/h | 7613m | -1.5m/s | -26.6°C | 77.7% | 388.2hPa | 2.5V | 00:00:00 | 00:00:00 | 00:00:00 | |
| AM1SDL-15 | 2026-08-31 06:48:41 | 52.93035 | 16.32632 | 49° | 69km/h | 7619m | -1.4m/s | -26.7°C | 77.7% | 387.9hPa | 2.5V | 00:00:00 | 02:38:56 | 00:00:00 | |
| SP3WXH-11 | 2026-08-31 06:48:39 | 52.93013 | 16.32592 | 46° | 66km/h | 7622m | -1.7m/s | -26.8°C | 67.8% | 387.8hPa | 2.5V | 00:00:00 | 00:00:00 | 00:00:00 | |
| KRY50SP-1 | 2026-08-31 06:48:34 | 52.92965 | 16.32511 | 46° | 71km/h | 7628m | -1.8m/s | -26.8°C | 65.7% | 387.3hPa | 2.5V | 00:00:00 | 00:00:00 | 00:00:00 | |
| EDDB2-12 | 2026-08-31 06:48:30 | 52.92902 | 16.32399 | 48° | 77km/h | 7637m | -1.5m/s | -26.9°C | 64.5% | 386.9hPa | 2.5V | 00:00:00 | 00:00:00 | 00:00:00 | |
| AM1SDL-15 | 2026-08-31 06:48:29 | 52.92889 | 16.32374 | 52° | 69km/h | 7639m | -1.4m/s | -26.9°C | 71.0% | 386.7hPa | 2.5V | 00:00:00 | 02:38:44 | 00:00:00 | |
| KRY50SP-1 | 2026-08-31 06:48:28 | 52.92889 | 16.32374 | 53° | 78km/h | 7639m | -1.4m/s | -26.9°C | 62.3% | 386.8hPa | 2.7V | 00:00:00 | 00:00:00 | 00:00:00 | |
| SONDE2-11 | 2026-08-31 06:48:25 | 52.92835 | 16.32246 | 56° | 69km/h | 7647m | -1.7m/s | -27.0°C | 59.9% | 386.4hPa | 2.7V | 00:00:00 | 00:00:00 | 00:00:00 | |
| KRY50SP-1 | 2026-08-31 06:48:22 | 52.92825 | 16.32222 | 58° | 68km/h | 7649m | -1.7m/s | -27.0°C | 59.1% | 386.3hPa | 2.7V | 00:00:00 | 00:00:00 | 00:00:00 | |
| AM1SDL-15 | 2026-08-31 06:48:17 | 52.92769 | 16.32093 | 53° | 66km/h | 7660m | -1.5m/s | -27.0°C | 65.3% | 385.6hPa | 2.7V | 00:00:00 | 02:38:32 | 00:00:00 | |
| KRY50SP-1 | 2026-08-31 06:48:11 | 52.92715 | 16.31998 | 46° | 66km/h | 7670m | -2.2m/s | -27.1°C | 53.6% | 385.2hPa | 2.7V | 00:00:00 | 00:00:00 | 00:00:00 | |
| SP3WXH-11 | 2026-08-31 06:48:08 | 52.92665 | 16.31914 | 47° | 73km/h | 7676m | -1.5m/s | -27.2°C | 53.7% | 384.8hPa | 2.7V | 00:00:00 | 00:00:00 | 00:00:00 | |
| KRY50SP-1 | 2026-08-31 06:48:07 | 52.92652 | 16.31891 | 50° | 75km/h | 7678m | -1.3m/s | -27.2°C | 53.7% | 384.8hPa | 2.7V | 00:00:00 | 00:00:00 | 00:00:00 | |
| AM1SDL-15 | 2026-08-31 06:48:05 | 52.92629 | 16.31842 | 53° | 66km/h | 7681m | -1.6m/s | -27.2°C | 61.9% | 384.5hPa | 2.7V | 00:00:00 | 02:38:20 | 00:00:00 | |
| 3Z3Z-3 | 2026-08-31 06:48:02 | 52.92607 | 16.31794 | 57° | 71km/h | 7685m | -1.7m/s | -27.3°C | 54.3% | 384.4hPa | 2.7V | 00:00:00 | 00:00:00 | 00:00:00 | |
| EDDB2-12 | 2026-08-31 06:47:59 | 52.92569 | 16.31699 | 55° | 64km/h | 7692m | -2.4m/s | -27.4°C | 54.4% | 383.9hPa | 2.7V | 00:00:00 | 00:00:00 | 00:00:00 | |
| SONDE2-11 | 2026-08-31 06:47:54 | 52.92515 | 16.31576 | 47° | 58km/h | 7703m | -2.1m/s | -27.4°C | 55.1% | 383.4hPa | 2.7V | 00:00:00 | 00:00:00 | 00:00:00 | |
| EDDB2-11 | 2026-08-31 06:47:46 | 52.92432 | 16.31439 | 47° | 71km/h | 7715m | -1.7m/s | -27.5°C | 56.4% | 382.7hPa | 2.7V | 00:00:00 | 00:00:00 | 00:00:00 | |
| KRY50SP-1 | 2026-08-31 06:47:42 | 52.92395 | 16.31369 | 52° | 77km/h | 7721m | -1.8m/s | -27.6°C | 56.6% | 382.4hPa | 2.7V | 00:00:00 | 00:00:00 | 00:00:00 | |
| AM1SDL-15 | 2026-08-31 06:47:41 | 52.92371 | 16.31320 | 53° | 66km/h | 7724m | -1.8m/s | -27.6°C | 65.3% | 382.2hPa | 2.7V | 00:00:00 | 02:37:56 | 00:00:00 | |
| SP3WXH-11 | 2026-08-31 06:47:37 | 52.92331 | 16.31224 | 55° | 64km/h | 7731m | -2.0m/s | -27.7°C | 57.7% | 381.8hPa | 2.7V | 00:00:00 | 00:00:00 | 00:00:00 | |
| KRY50SP-1 | 2026-08-31 06:47:36 | 52.92331 | 16.31224 | 57° | 66km/h | 7731m | -2.0m/s | -27.7°C | 57.7% | 381.8hPa | 2.7V | 00:00:00 | 00:00:00 | 00:00:00 | |
| KRY50SP-1 | 2026-08-31 06:47:30 | 52.92276 | 16.31102 | 50° | 60km/h | 7742m | -1.9m/s | -27.8°C | 57.6% | 381.3hPa | 2.7V | 00:00:00 | 00:00:00 | 00:00:00 | |
| AM1SDL-15 | 2026-08-31 06:47:29 | 52.92256 | 16.31066 | 48° | 68km/h | 7746m | -1.8m/s | -27.7°C | 65.9% | 381.1hPa | 2.7V | 00:00:00 | 02:37:44 | 00:00:00 | |
| EDDB2-12 | 2026-08-31 06:47:28 | 52.92245 | 16.31048 | 42° | 62km/h | 7747m | -1.8m/s | -27.8°C | 57.3% | 381.0hPa | 2.7V | 00:00:00 | 00:00:00 | 00:00:00 | |
| KRY50SP-1 | 2026-08-31 06:47:25 | 52.92221 | 16.31012 | 43° | 66km/h | 7751m | -1.7m/s | -27.8°C | 57.5% | 380.8hPa | 2.7V | 00:00:00 | 00:00:00 | 00:00:00 | |
| SONDE2-11 | 2026-08-31 06:47:23 | 52.92172 | 16.30930 | 47° | 71km/h | 7758m | -2.3m/s | -27.9°C | 58.0% | 380.5hPa | 2.7V | 00:00:00 | 00:00:00 | 00:00:00 | |
| KRY50SP-1 | 2026-08-31 06:47:19 | 52.92148 | 16.30884 | 54° | 71km/h | 7761m | -1.6m/s | -27.9°C | 58.3% | 380.3hPa | 2.7V | 00:00:00 | 00:00:00 | 00:00:00 | |
| AM1SDL-15 | 2026-08-31 06:47:17 | 52.92117 | 16.30813 | 55° | 62km/h | 7767m | -2.0m/s | -28.0°C | 67.1% | 379.9hPa | 2.7V | 00:00:00 | 02:37:32 | 08:30:00 | |
| EDDB2-11 | 2026-08-31 06:47:15 | 52.92098 | 16.30766 | 57° | 68km/h | 7770m | -1.7m/s | -28.0°C | 58.2% | 379.8hPa | 2.6V | 00:00:00 | 00:00:00 | 00:00:00 | |
| KRY50SP-1 | 2026-08-31 06:47:14 | 52.92098 | 16.30766 | 58° | 68km/h | 7771m | -1.7m/s | -28.0°C | 58.3% | 379.7hPa | 2.6V | 00:00:00 | 00:00:00 | 00:00:00 | |
| KRY50SP-1 | 2026-08-31 06:47:08 | 52.92046 | 16.30639 | 50° | 57km/h | 7783m | -2.2m/s | -28.1°C | 57.8% | 379.1hPa | 2.6V | 00:00:00 | 00:00:00 | 00:00:00 | |
| SP3WXH-11 | 2026-08-31 06:47:06 | 52.92016 | 16.30586 | 44° | 60km/h | 7789m | -1.9m/s | -28.2°C | 57.4% | 378.8hPa | 2.6V | 00:00:00 | 00:00:00 | 00:00:00 | |
| AM1SDL-15 | 2026-08-31 06:47:05 | 52.92005 | 16.30568 | 44° | 68km/h | 7790m | -1.5m/s | -28.2°C | 65.9% | 378.7hPa | 2.6V | 00:00:00 | 02:37:20 | 00:00:00 | |
| KRY50SP-1 | 2026-08-31 06:47:03 | 52.91993 | 16.30550 | 43° | 64km/h | 7792m | -1.7m/s | -28.2°C | 57.0% | 378.6hPa | 2.6V | 00:00:00 | 00:00:00 | 00:00:00 | |
| EDDB2-12 | 2026-08-31 06:46:57 | 52.91911 | 16.30401 | 54° | 69km/h | 7805m | -1.9m/s | -28.3°C | 58.0% | 378.0hPa | 2.6V | 00:00:00 | 00:00:00 | 00:00:00 | |
| SONDE2-11 | 2026-08-31 06:46:52 | 52.91855 | 16.30264 | 59° | 62km/h | 7816m | -1.8m/s | -28.4°C | 56.4% | 377.4hPa | 2.6V | 00:00:00 | 00:00:00 | 00:00:00 | |
| SP3BTT-10 | 2026-08-31 06:46:47 | 52.91823 | 16.30180 | 55° | 58km/h | 7824m | -1.9m/s | -28.4°C | 64.1% | 376.9hPa | 2.6V | 00:00:00 | 00:00:00 | 00:00:00 | |
| KRY50SP-1 | 2026-08-31 06:46:46 | 52.91822 | 16.30181 | 56° | 57km/h | 7824m | -1.9m/s | -28.5°C | 55.7% | 377.0hPa | 2.6V | 00:00:00 | 00:00:00 | 00:00:00 | |
| EDDB2-11 | 2026-08-31 06:46:44 | 52.91796 | 16.30126 | 48° | 57km/h | 7829m | -1.4m/s | -28.5°C | 55.1% | 376.7hPa | 2.6V | 00:00:00 | 00:00:00 | 00:00:00 | |
| KRY50SP-1 | 2026-08-31 06:46:36 | 52.91705 | 16.29965 | 53° | 71km/h | 7843m | -1.7m/s | -28.6°C | 54.3% | 375.9hPa | 2.6V | 00:00:00 | 00:00:00 | 00:00:00 | |
| SP3WXH-11 | 2026-08-31 06:46:35 | 52.91694 | 16.29942 | 52° | 71km/h | 7845m | -1.7m/s | -28.6°C | 54.2% | 375.8hPa | 2.6V | 00:00:00 | 00:00:00 | 00:00:00 | |
| KRY50SP-1 | 2026-08-31 06:46:30 | 52.91653 | 16.29845 | 57° | 68km/h | 7853m | -1.7m/s | -28.7°C | 53.3% | 375.4hPa | 2.6V | 00:00:00 | 00:00:00 | 00:00:00 | |
| AM1SDL-15 | 2026-08-31 06:46:29 | 52.91635 | 16.29798 | 61° | 60km/h | 7857m | -1.8m/s | -28.6°C | 61.2% | 375.3hPa | 2.6V | 00:00:00 | 02:36:44 | 00:00:00 | |
| KRY50SP-1 | 2026-08-31 06:46:25 | 52.91611 | 16.29732 | 60° | 58km/h | 7862m | -1.9m/s | -28.7°C | 53.5% | 375.1hPa | 2.6V | 00:00:00 | 00:00:00 | 00:00:00 | |
| 3Z3Z-3 | 2026-08-31 06:46:22 | 52.91587 | 16.29675 | 53° | 55km/h | 7869m | -2.1m/s | -28.8°C | 53.9% | 374.7hPa | 2.6V | 00:00:00 | 00:00:00 | 00:00:00 | |
| KRY50SP-1 | 2026-08-31 06:46:20 | 52.91569 | 16.29639 | 49° | 57km/h | 7872m | -1.7m/s | -28.8°C | 54.7% | 374.5hPa | 2.6V | 00:00:00 | 00:00:00 | 00:00:00 | |
| AA1-15 | 2026-08-31 06:46:00 | 52.91367 | 16.29167 | 55° | 57km/h | 7909m | -1.9m/s | 0°C | 0% | 0hPa | 2.6V | 18:12:15 | 02:36:15 | 00:00:00 | |
| AA1-15 | 2026-08-31 06:45:49 | 52.91255 | 16.28940 | 54° | 71km/h | 7927m | -1.2m/s | 0°C | 0% | 0hPa | 2.6V | 18:12:15 | 02:36:04 | 00:00:00 | |
| SP3BTT-10 | 2026-08-31 06:45:47 | 52.91235 | 16.28890 | 56° | 68km/h | 7930m | -2.1m/s | -29.3°C | 60.4% | 371.4hPa | 2.5V | 00:00:00 | 00:00:00 | 00:00:00 | |
| EDDB2-11 | 2026-08-31 06:45:42 | 52.91192 | 16.28766 | 62° | 62km/h | 7939m | -1.5m/s | -29.4°C | 52.5% | 371.1hPa | 2.5V | 00:00:00 | 00:00:00 | 00:00:00 | |
| AM1SDL-15 | 2026-08-31 06:45:41 | 52.91185 | 16.28743 | 62° | 60km/h | 7941m | -1.9m/s | -29.4°C | 60.6% | 370.9hPa | 2.5V | 00:00:00 | 02:35:56 | 00:00:00 | |
| KRY50SP-1 | 2026-08-31 06:45:37 | 52.91163 | 16.28682 | 57° | 57km/h | 7946m | -1.7m/s | -29.5°C | 52.7% | 370.7hPa | 2.5V | 00:00:00 | 00:00:00 | 00:00:00 | |
| KRY50SP-1 | 2026-08-31 06:45:31 | 52.91105 | 16.28567 | 50° | 66km/h | 7956m | -1.4m/s | -29.5°C | 55.9% | 370.2hPa | 2.5V | 00:00:00 | 00:00:00 | 00:00:00 | |
| AM1SDL-15 | 2026-08-31 06:45:29 | 52.91072 | 16.28499 | 53° | 64km/h | 7961m | -1.7m/s | -29.5°C | 68.2% | 369.8hPa | 2.5V | 00:00:00 | 02:35:44 | 08:30:00 | |
| KRY50SP-1 | 2026-08-31 06:45:26 | 52.91051 | 16.28450 | 59° | 69km/h | 7964m | -1.6m/s | -29.6°C | 60.7% | 369.7hPa | 2.5V | 00:00:00 | 00:00:00 | 00:00:00 | |
| EDDB2-12 | 2026-08-31 06:45:24 | 52.91019 | 16.28351 | 63° | 62km/h | 7971m | -1.7m/s | -29.7°C | 61.8% | 369.3hPa | 2.5V | 00:00:00 | 00:00:00 | 00:00:00 | |
| KRY50SP-1 | 2026-08-31 06:45:20 | 52.91005 | 16.28304 | 63° | 60km/h | 7974m | -2.0m/s | -29.7°C | 62.1% | 369.1hPa | 2.5V | 00:00:00 | 00:00:00 | 00:00:00 | |
| SONDE2-11 | 2026-08-31 06:45:18 | 52.90984 | 16.28240 | 59° | 55km/h | 7981m | -2.1m/s | -29.8°C | 61.8% | 368.9hPa | 2.5V | 00:00:00 | 00:00:00 | 00:00:00 | |
| AM1SDL-15 | 2026-08-31 06:45:17 | 52.90976 | 16.28220 | 57° | 62km/h | 7983m | -2.1m/s | -29.7°C | 71.5% | 368.7hPa | 2.5V | 00:00:00 | 02:35:32 | 00:00:00 | |
| KRY50SP-1 | 2026-08-31 06:45:15 | 52.90968 | 16.28201 | 54° | 55km/h | 7985m | -2.1m/s | -29.8°C | 62.4% | 368.7hPa | 2.5V | 00:00:00 | 00:00:00 | 00:00:00 | |
| EDDB2-11 | 2026-08-31 06:45:11 | 52.90921 | 16.28108 | 47° | 62km/h | 7994m | -2.0m/s | -29.9°C | 64.2% | 368.2hPa | 2.5V | 00:00:00 | 00:00:00 | 00:00:00 | |
| AM1SDL-15 | 2026-08-31 06:45:05 | 52.90859 | 16.27972 | 60° | 60km/h | 8004m | -1.5m/s | -29.9°C | 79.2% | 367.6hPa | 2.5V | 00:00:00 | 02:35:20 | 00:00:00 | |
| KRY50SP-1 | 2026-08-31 06:45:03 | 52.90851 | 16.27947 | 63° | 68km/h | 8005m | -1.7m/s | -30.0°C | 69.4% | 367.6hPa | 2.5V | 00:00:00 | 00:00:00 | 00:00:00 | |
| SP3WXH-11 | 2026-08-31 06:45:02 | 52.90836 | 16.27898 | 63° | 62km/h | 8009m | -1.7m/s | -30.0°C | 69.2% | 367.4hPa | 2.5V | 00:00:00 | 00:00:00 | 00:00:00 | |
| EDDB2-12 | 2026-08-31 06:44:53 | 52.90764 | 16.27691 | 51° | 57km/h | 8029m | -1.8m/s | -30.1°C | 66.7% | 366.4hPa | 2.5V | 00:00:00 | 00:00:00 | 00:00:00 | |
| SONDE2-11 | 2026-08-31 06:44:47 | 52.90713 | 16.27591 | 52° | 66km/h | 8038m | -1.5m/s | -30.2°C | 67.0% | 365.9hPa | 2.5V | 00:00:00 | 00:00:00 | 00:00:00 | |
| KRY50SP-1 | 2026-08-31 06:44:46 | 52.90714 | 16.27591 | 54° | 66km/h | 8038m | -1.5m/s | -30.2°C | 67.1% | 365.9hPa | 2.5V | 00:00:00 | 00:00:00 | 00:00:00 | |
| AM1SDL-15 | 2026-08-31 06:44:41 | 52.90661 | 16.27447 | 62° | 57km/h | 8047m | -2.2m/s | -30.2°C | 76.2% | 365.3hPa | 2.5V | 00:00:00 | 02:34:56 | 00:00:00 | |
| EDDB2-11 | 2026-08-31 06:44:40 | 52.90654 | 16.27422 | 65° | 64km/h | 8049m | -1.8m/s | -30.3°C | 65.7% | 365.2hPa | 2.5V | 00:00:00 | 00:00:00 | 00:00:00 | |
| KRY50SP-1 | 2026-08-31 06:44:36 | 52.90635 | 16.27351 | 69° | 58km/h | 8055m | -1.8m/s | -30.3°C | 65.2% | 364.9hPa | 2.5V | 00:00:00 | 00:00:00 | 00:00:00 | |
| SP3BTT-10 | 2026-08-31 06:44:31 | 52.90597 | 16.27233 | 54° | 60km/h | 8067m | -1.7m/s | -30.4°C | 76.5% | 364.3hPa | 2.5V | 00:00:00 | 00:00:00 | 00:00:00 | |
| KRY50SP-1 | 2026-08-31 06:44:30 | 52.90596 | 16.27233 | 55° | 53km/h | 8067m | -1.7m/s | -30.4°C | 66.1% | 364.4hPa | 2.5V | 00:00:00 | 00:00:00 | 00:00:00 | |
| AM1SDL-15 | 2026-08-31 06:44:29 | 52.90579 | 16.27195 | 53° | 66km/h | 8070m | -1.9m/s | -30.4°C | 76.5% | 364.1hPa | 2.5V | 00:00:00 | 02:34:44 | 00:00:00 | |
| KRY50SP-1 | 2026-08-31 06:44:25 | 52.90550 | 16.27133 | 54° | 66km/h | 8076m | -2.1m/s | -30.5°C | 65.9% | 363.9hPa | 2.5V | 00:00:00 | 00:00:00 | 00:00:00 | |
| EDDB2-12 | 2026-08-31 06:44:21 | 52.90501 | 16.27014 | 61° | 69km/h | 8086m | -2.5m/s | -30.6°C | 66.2% | 363.3hPa | 2.5V | 00:00:00 | 00:00:00 | 00:00:00 | |
| KRY50SP-1 | 2026-08-31 06:44:20 | 52.90501 | 16.27014 | 62° | 69km/h | 8086m | -2.5m/s | -30.6°C | 66.3% | 363.3hPa | 2.5V | 00:00:00 | 00:00:00 | 00:00:00 | |
| AM1SDL-15 | 2026-08-31 06:44:17 | 52.90472 | 16.26915 | 65° | 57km/h | 8095m | -2.3m/s | -30.6°C | 76.8% | 362.9hPa | 2.5V | 00:00:00 | 02:34:32 | 00:00:00 | |
| SONDE2-11 | 2026-08-31 06:44:16 | 52.90466 | 16.26893 | 66° | 55km/h | 8097m | -2.1m/s | -30.7°C | 66.4% | 362.8hPa | 2.6V | 00:00:00 | 00:00:00 | 00:00:00 | |
| EDDB2-11 | 2026-08-31 06:44:09 | 52.90418 | 16.26757 | 51° | 57km/h | 8111m | -2.6m/s | -30.8°C | 67.5% | 362.1hPa | 2.6V | 00:00:00 | 00:00:00 | 00:00:00 | |
| AM1SDL-15 | 2026-08-31 06:44:05 | 52.90382 | 16.26675 | 58° | 66km/h | 8120m | -2.4m/s | -30.8°C | 78.7% | 361.6hPa | 2.6V | 00:00:00 | 02:34:20 | 00:00:00 | |
| KRY50SP-1 | 2026-08-31 06:44:04 | 52.90382 | 16.26675 | 58° | 64km/h | 8120m | -2.5m/s | -30.9°C | 68.0% | 361.6hPa | 2.6V | 00:00:00 | 00:00:00 | 00:00:00 | |
| SP3WXH-11 | 2026-08-31 06:44:00 | 52.90337 | 16.26561 | 57° | 64km/h | 8132m | -2.0m/s | -30.9°C | 67.7% | 361.1hPa | 2.6V | 00:00:00 | 00:00:00 | 00:00:00 | |
| EDDB2-12 | 2026-08-31 06:43:50 | 52.90240 | 16.26326 | 54° | 66km/h | 8154m | -2.6m/s | -31.1°C | 65.7% | 360.0hPa | 2.6V | 00:00:00 | 00:00:00 | 00:00:00 | |
| SONDE2-11 | 2026-08-31 06:43:45 | 52.90193 | 16.26223 | 52° | 58km/h | 8166m | -1.9m/s | -31.1°C | 64.3% | 359.3hPa | 2.6V | 00:00:00 | 00:00:00 | 00:00:00 | |
| AM1SDL-15 | 2026-08-31 06:43:41 | 52.90159 | 16.26147 | 55° | 60km/h | 8175m | -1.9m/s | -31.2°C | 74.6% | 358.9hPa | 2.6V | 00:00:00 | 02:33:56 | 08:30:00 | |
| KRY50SP-1 | 2026-08-31 06:43:40 | 52.90159 | 16.26147 | 55° | 53km/h | 8175m | -1.9m/s | -31.2°C | 64.2% | 358.9hPa | 2.6V | 00:00:00 | 00:00:00 | 00:00:00 | |
| EDDB2-11 | 2026-08-31 06:43:38 | 52.90138 | 16.26091 | 62° | 55km/h | 8182m | -1.8m/s | -31.3°C | 63.5% | 358.6hPa | 2.6V | 00:00:00 | 00:00:00 | 00:00:00 | |
| KRY50SP-1 | 2026-08-31 06:43:35 | 52.90125 | 16.26048 | 65° | 58km/h | 8186m | -2.4m/s | -31.3°C | 63.4% | 358.4hPa | 2.6V | 00:00:00 | 00:00:00 | 00:00:00 | |
| AA1-15 | 2026-08-31 06:43:13 | 52.89925 | 16.25513 | 51° | 64km/h | 8239m | -2.3m/s | 0°C | 0% | 0hPa | 2.6V | 18:12:15 | 02:33:28 | 00:00:00 | |
| AA1-15 | 2026-08-31 06:43:02 | 52.89820 | 16.25248 | 63° | 68km/h | 8264m | -2m/s | 0°C | 0% | 0hPa | 2.6V | 18:12:15 | 02:33:17 | 00:00:00 | |
| SP3WXH-11 | 2026-08-31 06:42:58 | 52.89784 | 16.25125 | 62° | 64km/h | 8275m | -2.6m/s | -32.2°C | 66.0% | 353.8hPa | 2.6V | 00:00:00 | 00:00:00 | 00:00:00 | |
| EDDB2-12 | 2026-08-31 06:42:48 | 52.89705 | 16.24893 | 58° | 73km/h | 8296m | -2.8m/s | -32.3°C | 65.4% | 352.8hPa | 2.6V | 00:00:00 | 00:00:00 | 00:00:00 | |
| SONDE2-11 | 2026-08-31 06:42:43 | 52.89661 | 16.24759 | 62° | 69km/h | 8309m | -2.7m/s | -32.4°C | 65.7% | 352.2hPa | 2.6V | 00:00:00 | 00:00:00 | 00:00:00 | |
| KRY50SP-1 | 2026-08-31 06:42:42 | 52.89660 | 16.24759 | 63° | 69km/h | 8309m | -2.7m/s | -32.4°C | 65.8% | 352.2hPa | 2.6V | 00:00:00 | 00:00:00 | 00:00:00 | |
| AM1SDL-15 | 2026-08-31 06:42:41 | 52.89645 | 16.24708 | 63° | 64km/h | 8314m | -2.1m/s | -32.4°C | 77.2% | 351.9hPa | 2.6V | 00:00:00 | 02:32:56 | 00:00:00 | |
| KRY50SP-1 | 2026-08-31 06:42:37 | 52.89621 | 16.24639 | 60° | 64km/h | 8322m | -2.2m/s | -32.6°C | 66.7% | 351.6hPa | 2.6V | 00:00:00 | 00:00:00 | 00:00:00 | |
| EDDB2-11 | 2026-08-31 06:42:36 | 52.89597 | 16.24572 | 59° | 64km/h | 8329m | -1.8m/s | -32.6°C | 67.0% | 351.3hPa | 2.6V | 00:00:00 | 00:00:00 | 00:00:00 | |
| KRY50SP-1 | 2026-08-31 06:42:31 | 52.89571 | 16.24504 | 59° | 62km/h | 8335m | -2.4m/s | -32.7°C | 66.8% | 350.9hPa | 2.6V | 00:00:00 | 00:00:00 | 00:00:00 | |
| AM1SDL-15 | 2026-08-31 06:42:29 | 52.89547 | 16.24439 | 57° | 62km/h | 8342m | -2.1m/s | -32.7°C | 78.0% | 350.5hPa | 2.6V | 00:00:00 | 02:32:44 | 00:00:00 | |
| KRY50SP-1 | 2026-08-31 06:42:27 | 52.89531 | 16.24396 | 60° | 60km/h | 8346m | -2.0m/s | -32.8°C | 66.7% | 350.4hPa | 2.5V | 00:00:00 | 00:00:00 | 00:00:00 | |
| KRY50SP-1 | 2026-08-31 06:42:20 | 52.89486 | 16.24260 | 66° | 66km/h | 8359m | -2.2m/s | -32.9°C | 67.1% | 349.7hPa | 2.5V | 00:00:00 | 00:00:00 | 00:00:00 | |
| AM1SDL-15 | 2026-08-31 06:42:17 | 52.89456 | 16.24159 | 66° | 75km/h | 8368m | -2.0m/s | -32.9°C | 77.9% | 349.2hPa | 2.5V | 00:00:00 | 02:32:32 | 00:00:00 | |
| SP3BTT-10 | 2026-08-31 06:42:16 | 52.89449 | 16.24133 | 64° | 68km/h | 8370m | -2.4m/s | -32.9°C | 78.1% | 349.1hPa | 2.5V | 00:00:00 | 00:00:00 | 00:00:00 | |
| KRY50SP-1 | 2026-08-31 06:42:15 | 52.89449 | 16.24133 | 65° | 69km/h | 8370m | -2.4m/s | -33.0°C | 66.8% | 349.1hPa | 2.5V | 00:00:00 | 00:00:00 | 00:00:00 | |
| SONDE2-11 | 2026-08-31 06:42:12 | 52.89417 | 16.24026 | 61° | 73km/h | 8379m | -2.1m/s | -33.0°C | 66.2% | 348.6hPa | 2.5V | 00:00:00 | 00:00:00 | 00:00:00 | |
| KRY50SP-1 | 2026-08-31 06:42:10 | 52.89408 | 16.23998 | 63° | 75km/h | 8381m | -2.3m/s | -33.1°C | 66.2% | 348.5hPa | 2.5V | 00:00:00 | 00:00:00 | 00:00:00 | |
| EDDB2-11 | 2026-08-31 06:42:05 | 52.89336 | 16.23808 | 54° | 77km/h | 8397m | -2.5m/s | -33.2°C | 64.5% | 347.7hPa | 2.5V | 00:00:00 | 00:00:00 | 00:00:00 | |
| SP3WXH-11 | 2026-08-31 06:41:56 | 52.89243 | 16.23591 | 56° | 64km/h | 8419m | -2.1m/s | -33.4°C | 66.3% | 346.6hPa | 2.5V | 00:00:00 | 00:00:00 | 00:00:00 | |
| KRY50SP-1 | 2026-08-31 06:41:54 | 52.89243 | 16.23591 | 57° | 66km/h | 8419m | -2.1m/s | -33.4°C | 66.4% | 346.7hPa | 2.5V | 00:00:00 | 00:00:00 | 00:00:00 | |
| AM1SDL-15 | 2026-08-31 06:41:51 | 52.89206 | 16.23500 | 58° | 68km/h | 8428m | -2.5m/s | -33.4°C | 79.4% | 346.1hPa | 2.5V | 00:00:00 | 02:32:06 | 08:30:00 | |
| KRY50SP-1 | 2026-08-31 06:41:48 | 52.89190 | 16.23453 | 62° | 66km/h | 8433m | -2.1m/s | -33.4°C | 67.8% | 346.0hPa | 2.5V | 00:00:00 | 00:00:00 | 00:00:00 | |
| SP3BTT-10 | 2026-08-31 06:41:46 | 52.89166 | 16.23381 | 66° | 75km/h | 8439m | -2.4m/s | -33.4°C | 79.6% | 345.6hPa | 2.5V | 00:00:00 | 00:00:00 | 08:30:00 | |
| KRY50SP-1 | 2026-08-31 06:41:43 | 52.89151 | 16.23331 | 66° | 66km/h | 8443m | -1.9m/s | -33.5°C | 68.0% | 345.5hPa | 2.5V | 00:00:00 | 00:00:00 | 00:00:00 | |
| SONDE2-11 | 2026-08-31 06:41:41 | 52.89130 | 16.23252 | 66° | 69km/h | 8448m | -1.9m/s | -33.6°C | 68.6% | 345.1hPa | 2.5V | 00:00:00 | 00:00:00 | 00:00:00 | |
| AM1SDL-15 | 2026-08-31 06:41:39 | 52.89114 | 16.23198 | 64° | 75km/h | 8452m | -1.9m/s | -33.6°C | 81.2% | 344.9hPa | 2.5V | 00:00:00 | 02:31:54 | 00:00:00 | |
| KRY50SP-1 | 2026-08-31 06:41:37 | 52.89106 | 16.23170 | 65° | 77km/h | 8454m | -1.5m/s | -33.6°C | 69.4% | 344.9hPa | 2.5V | 00:00:00 | 00:00:00 | 00:00:00 | |
| EDDB2-11 | 2026-08-31 06:41:34 | 52.89060 | 16.23027 | 62° | 75km/h | 8461m | -1.5m/s | -33.7°C | 69.3% | 344.4hPa | 2.5V | 00:00:00 | 00:00:00 | 00:00:00 | |
| KRY50SP-1 | 2026-08-31 06:41:31 | 52.89051 | 16.22998 | 63° | 78km/h | 8463m | -2.1m/s | -33.7°C | 69.1% | 344.3hPa | 2.5V | 00:00:00 | 00:00:00 | 00:00:00 | |
| SP3WXH-11 | 2026-08-31 06:41:25 | 52.88996 | 16.22802 | 64° | 64km/h | 8474m | -1.4m/s | -33.8°C | 69.6% | 343.7hPa | 2.5V | 00:00:00 | 00:00:00 | 00:00:00 | |
| KRY50SP-1 | 2026-08-31 06:41:19 | 52.88955 | 16.22688 | 55° | 64km/h | 8482m | -1.8m/s | -33.8°C | 70.2% | 343.3hPa | 2.5V | 00:00:00 | 00:00:00 | 00:00:00 | |
| SP6BVK | 2026-08-31 06:41:18 | 52.88945 | 16.22666 | 54° | 66km/h | 8483m | -1.8m/s | -33.8°C | 70.5% | 343.2hPa | 2.5V | 00:00:00 | 00:00:00 | 00:00:00 | |
| AM1SDL-15 | 2026-08-31 06:41:15 | 52.88901 | 16.22570 | 55° | 77km/h | 8490m | -1.8m/s | -33.9°C | 82.8% | 342.8hPa | 2.5V | 00:00:00 | 02:31:30 | 00:00:00 | |
| KRY50SP-1 | 2026-08-31 06:41:14 | 52.88901 | 16.22570 | 56° | 77km/h | 8490m | -1.8m/s | -34.0°C | 70.5% | 342.9hPa | 2.6V | 00:00:00 | 00:00:00 | 00:00:00 | |
| SONDE2-11 | 2026-08-31 06:41:10 | 52.88849 | 16.22431 | 60° | 78km/h | 8496m | -1.4m/s | -34.0°C | 69.6% | 342.5hPa | 2.6V | 00:00:00 | 00:00:00 | 00:00:00 | |
| KRY50SP-1 | 2026-08-31 06:41:08 | 52.88839 | 16.22402 | 63° | 78km/h | 8497m | -1.2m/s | -34.0°C | 69.6% | 342.4hPa | 2.6V | 00:00:00 | 00:00:00 | 00:00:00 | |
| AM1SDL-15 | 2026-08-31 06:41:03 | 52.88786 | 16.22232 | 62° | 78km/h | 8505m | -1.8m/s | -34.0°C | 82.9% | 342.0hPa | 2.6V | 00:00:00 | 02:31:18 | 00:00:00 | |
| KRY50SP-1 | 2026-08-31 06:41:02 | 52.88786 | 16.22232 | 63° | 73km/h | 8505m | -1.8m/s | -34.0°C | 70.7% | 342.0hPa | 2.6V | 00:00:00 | 00:00:00 | 00:00:00 | |
| SP3WXH-11 | 2026-08-31 06:40:54 | 52.88695 | 16.21950 | 62° | 78km/h | 8522m | -2.2m/s | -34.2°C | 71.9% | 341.2hPa | 2.6V | 00:00:00 | 00:00:00 | 00:00:00 | |
| KRY50SP-1 | 2026-08-31 06:40:51 | 52.88686 | 16.21920 | 65° | 80km/h | 8523m | -1.8m/s | -34.2°C | 71.6% | 341.1hPa | 2.6V | 00:00:00 | 00:00:00 | 00:00:00 | |
| AM1SDL-15 | 2026-08-31 06:40:49 | 52.88661 | 16.21827 | 69° | 73km/h | 8528m | -1.6m/s | -34.2°C | 82.7% | 340.9hPa | 2.6V | 00:00:00 | 02:31:04 | 00:00:00 | |
| SP3BTT-10 | 2026-08-31 06:40:47 | 52.88647 | 16.21765 | 70° | 80km/h | 8530m | -1.3m/s | -34.2°C | 81.8% | 340.7hPa | 2.6V | 00:00:00 | 00:00:00 | 00:00:00 | |
| KRY50SP-1 | 2026-08-31 06:40:46 | 52.88640 | 16.21735 | 70° | 77km/h | 8531m | -1.1m/s | -34.3°C | 69.3% | 340.7hPa | 2.6V | 00:00:00 | 00:00:00 | 00:00:00 | |
| EDDB2-12 | 2026-08-31 06:40:44 | 52.88626 | 16.21678 | 68° | 69km/h | 8533m | -1.0m/s | -34.3°C | 69.8% | 340.6hPa | 2.6V | 00:00:00 | 00:00:00 | 00:00:00 | |
| KRY50SP-1 | 2026-08-31 06:40:40 | 52.88604 | 16.21598 | 64° | 69km/h | 8536m | -1.3m/s | -34.3°C | 71.6% | 340.5hPa | 2.6V | 00:00:00 | 00:00:00 | 00:00:00 | |
| SONDE2-11 | 2026-08-31 06:40:39 | 52.88586 | 16.21546 | 59° | 71km/h | 8537m | -1.3m/s | -34.3°C | 71.6% | 340.4hPa | 2.6V | 00:00:00 | 00:00:00 | 00:00:00 | |
| AM1SDL-15 | 2026-08-31 06:40:37 | 52.88567 | 16.21493 | 57° | 78km/h | 8539m | -1.3m/s | -34.3°C | 83.7% | 340.2hPa | 2.6V | 00:00:00 | 02:30:52 | 00:00:00 | |
| KRY50SP-1 | 2026-08-31 06:40:35 | 52.88556 | 16.21467 | 58° | 77km/h | 8540m | -1.6m/s | -34.3°C | 71.2% | 340.2hPa | 2.6V | 00:00:00 | 00:00:00 | 00:00:00 | |
| EDDB2-11 | 2026-08-31 06:40:32 | 52.88505 | 16.21327 | 62° | 78km/h | 8548m | -2.1m/s | -34.4°C | 72.5% | 339.9hPa | 2.6V | 00:00:00 | 00:00:00 | 00:00:00 | |
| KRY50SP-1 | 2026-08-31 06:40:29 | 52.88495 | 16.21297 | 64° | 78km/h | 8550m | -2.0m/s | -34.4°C | 72.6% | 339.9hPa | 2.6V | 00:00:00 | 00:00:00 | 00:00:00 | |
| AM1SDL-15 | 2026-08-31 06:40:25 | 52.88452 | 16.21142 | 66° | 80km/h | 8557m | -1.3m/s | -34.3°C | 84.7% | 339.4hPa | 2.6V | 00:00:00 | 02:30:40 | 00:00:00 | |
| SP3WXH-11 | 2026-08-31 06:40:23 | 52.88426 | 16.21044 | 70° | 84km/h | 8560m | -1.8m/s | -34.4°C | 70.1% | 339.3hPa | 2.6V | 00:00:00 | 00:00:00 | 00:00:00 | |
| SP3BTT-10 | 2026-08-31 06:40:17 | 52.88393 | 16.20883 | 74° | 82km/h | 8569m | -1.6m/s | -34.3°C | 78.7% | 338.8hPa | 2.6V | 00:00:00 | 00:00:00 | 00:00:00 | |
| SP6BVK | 2026-08-31 06:40:16 | 52.88393 | 16.20883 | 74° | 75km/h | 8569m | -1.7m/s | -34.3°C | 66.8% | 338.8hPa | 2.6V | 00:00:00 | 00:00:00 | 00:00:00 | |
| AM1SDL-15 | 2026-08-31 06:40:13 | 52.88368 | 16.20771 | 65° | 80km/h | 8575m | -1.1m/s | -34.4°C | 82.8% | 338.6hPa | 2.6V | 00:00:00 | 02:30:28 | 00:00:00 | |
| KRY50SP-1 | 2026-08-31 06:40:12 | 52.88367 | 16.20771 | 66° | 69km/h | 8575m | -1.2m/s | -34.4°C | 70.5% | 338.6hPa | 2.6V | 00:00:00 | 00:00:00 | 00:00:00 | |
| SONDE2-11 | 2026-08-31 06:40:08 | 52.88321 | 16.20637 | 60° | 78km/h | 8580m | -1.3m/s | -34.4°C | 69.3% | 338.4hPa | 2.6V | 00:00:00 | 00:00:00 | 00:00:00 | |
| KRY50SP-1 | 2026-08-31 06:40:07 | 52.88321 | 16.20637 | 61° | 78km/h | 8580m | -1.3m/s | -34.4°C | 69.4% | 338.4hPa | 2.6V | 00:00:00 | 00:00:00 | 00:00:00 | |
| KRY50SP-1 | 2026-08-31 06:40:02 | 52.88267 | 16.20484 | 63° | 88km/h | 8586m | -0.9m/s | -34.4°C | 64.7% | 338.2hPa | 2.6V | 00:00:00 | 00:00:00 | 00:00:00 | |
| EDDB2-11 | 2026-08-31 06:40:01 | 52.88236 | 16.20386 | 64° | 89km/h | 8589m | -1.7m/s | -34.4°C | 65.3% | 338.1hPa | 2.6V | 00:00:00 | 00:00:00 | 00:00:00 | |
| SP3WXH-11 | 2026-08-31 06:39:52 | 52.88157 | 16.20083 | 67° | 86km/h | 8604m | -1.8m/s | -34.6°C | 67.1% | 337.4hPa | 2.6V | 00:00:00 | 00:00:00 | 00:00:00 | |
| KRY50SP-1 | 2026-08-31 06:39:50 | 52.88156 | 16.20083 | 69° | 88km/h | 8604m | -1.8m/s | -34.6°C | 67.2% | 337.4hPa | 2.6V | 00:00:00 | 00:00:00 | 00:00:00 | |
| AM1SDL-15 | 2026-08-31 06:39:49 | 52.88140 | 16.20016 | 69° | 84km/h | 8607m | -1.3m/s | -34.6°C | 79.4% | 337.2hPa | 2.6V | 00:00:00 | 02:30:04 | 00:00:00 | |
| KRY50SP-1 | 2026-08-31 06:39:44 | 52.88110 | 16.19885 | 70° | 82km/h | 8611m | -1.2m/s | -34.7°C | 68.8% | 337.1hPa | 2.6V | 00:00:00 | 00:00:00 | 00:00:00 | |
| EDDB2-12 | 2026-08-31 06:39:42 | 52.88087 | 16.19789 | 67° | 82km/h | 8615m | -1.8m/s | -34.7°C | 69.3% | 336.9hPa | 2.6V | 00:00:00 | 00:00:00 | 00:00:00 | |
| KRY50SP-1 | 2026-08-31 06:39:38 | 52.88062 | 16.19691 | 67° | 88km/h | 8619m | -1.0m/s | -34.7°C | 67.9% | 336.7hPa | 2.6V | 00:00:00 | 00:00:00 | 00:00:00 | |
| SONDE2-11 | 2026-08-31 06:39:37 | 52.88045 | 16.19624 | 66° | 86km/h | 8621m | -0.7m/s | -34.7°C | 66.3% | 336.6hPa | 2.6V | 00:00:00 | 00:00:00 | 00:00:00 | |
| SP6BVK | 2026-08-31 06:39:34 | 52.88028 | 16.19558 | 69° | 86km/h | 8623m | -1.6m/s | -34.7°C | 66.8% | 336.5hPa | 2.6V | 00:00:00 | 00:00:00 | 00:00:00 | |
| SP3BTT-10 | 2026-08-31 06:39:32 | 52.88005 | 16.19459 | 70° | 84km/h | 8626m | -0.6m/s | -34.7°C | 78.8% | 336.2hPa | 2.6V | 00:00:00 | 00:00:00 | 00:00:00 | |
| EDDB2-11 | 2026-08-31 06:39:30 | 52.87983 | 16.19364 | 69° | 78km/h | 8629m | -1.1m/s | -34.8°C | 66.9% | 336.2hPa | 2.6V | 00:00:00 | 00:00:00 | 00:00:00 | |
| KRY50SP-1 | 2026-08-31 06:39:26 | 52.87969 | 16.19302 | 70° | 78km/h | 8630m | -1.2m/s | -34.8°C | 67.8% | 336.0hPa | 2.6V | 00:00:00 | 00:00:00 | 00:00:00 | |
| AM1SDL-15 | 2026-08-31 06:39:25 | 52.87955 | 16.19240 | 70° | 84km/h | 8633m | -1.6m/s | -34.8°C | 80.8% | 335.8hPa | 2.6V | 00:00:00 | 02:29:40 | 00:00:00 | |
| KRY50SP-1 | 2026-08-31 06:39:20 | 52.87927 | 16.19111 | 73° | 84km/h | 8637m | -1.4m/s | -34.9°C | 68.8% | 335.7hPa | 2.5V | 00:00:00 | 00:00:00 | 00:00:00 | |
| KRY50SP-1 | 2026-08-31 06:39:15 | 52.87893 | 16.18944 | 70° | 88km/h | 8644m | -1.3m/s | -35.0°C | 69.3% | 335.3hPa | 2.5V | 00:00:00 | 00:00:00 | 00:00:00 | |
| SP6BVK | 2026-08-31 06:39:14 | 52.87885 | 16.18910 | 69° | 89km/h | 8645m | -1.8m/s | -35.0°C | 68.9% | 335.3hPa | 2.5V | 00:00:00 | 00:00:00 | 00:00:00 | |
| AM1SDL-15 | 2026-08-31 06:39:13 | 52.87868 | 16.18840 | 67° | 88km/h | 8648m | -1.8m/s | -35.0°C | 80.3% | 335.1hPa | 2.5V | 00:00:00 | 02:29:28 | 00:00:00 | |
| EDDB2-12 | 2026-08-31 06:39:11 | 52.87849 | 16.18769 | 66° | 91km/h | 8652m | -2.0m/s | -35.1°C | 67.5% | 334.9hPa | 2.5V | 00:00:00 | 00:00:00 | 00:00:00 | |
| KRY50SP-1 | 2026-08-31 06:39:09 | 52.87840 | 16.18733 | 68° | 93km/h | 8654m | -2.5m/s | -35.1°C | 67.7% | 334.9hPa | 2.5V | 00:00:00 | 00:00:00 | 00:00:00 | |
| SONDE2-11 | 2026-08-31 06:39:06 | 52.87806 | 16.18597 | 70° | 82km/h | 8663m | -1.6m/s | -35.1°C | 70.5% | 334.5hPa | 2.5V | 00:00:00 | 00:00:00 | 00:00:00 | |
| KRY50SP-1 | 2026-08-31 06:39:04 | 52.87799 | 16.18564 | 70° | 82km/h | 8665m | -1.2m/s | -35.1°C | 71.0% | 334.4hPa | 2.5V | 00:00:00 | 00:00:00 | 00:00:00 | |
| EDDB2-11 | 2026-08-31 06:38:58 | 52.87742 | 16.18332 | 66° | 89km/h | 8680m | -4.0m/s | -35.3°C | 70.9% | 333.7hPa | 2.5V | 00:00:00 | 00:00:00 | 00:00:00 | |
| SP3WXH-11 | 2026-08-31 06:38:50 | 52.87655 | 16.18002 | 69° | 91km/h | 8704m | -2.5m/s | -35.5°C | 68.9% | 332.6hPa | 2.5V | 00:00:00 | 00:00:00 | 00:00:00 | |
| AM1SDL-15 | 2026-08-31 06:38:49 | 52.87655 | 16.18002 | 70° | 84km/h | 8704m | -2.4m/s | -35.5°C | 81.7% | 332.5hPa | 2.5V | 00:00:00 | 02:29:04 | 00:00:00 | |
| KRY50SP-1 | 2026-08-31 06:38:47 | 52.87646 | 16.17966 | 71° | 88km/h | 8706m | -2.6m/s | -35.5°C | 68.7% | 332.4hPa | 2.5V | 00:00:00 | 00:00:00 | 00:00:00 | |
| KRY50SP-1 | 2026-08-31 06:38:42 | 52.87608 | 16.17807 | 65° | 78km/h | 8715m | -1.5m/s | -35.6°C | 70.8% | 332.0hPa | 2.5V | 00:00:00 | 00:00:00 | 00:00:00 | |
| EDDB2-12 | 2026-08-31 06:38:40 | 52.87578 | 16.17717 | 60° | 84km/h | 8719m | -1.6m/s | -35.7°C | 71.9% | 331.7hPa | 2.5V | 00:00:00 | 00:00:00 | 00:00:00 | |
| AM1SDL-15 | 2026-08-31 06:38:37 | 52.87545 | 16.17625 | 60° | 91km/h | 8724m | -2.2m/s | -35.6°C | 86.6% | 331.4hPa | 2.5V | 00:00:00 | 02:28:52 | 00:00:00 | |
| KRY50SP-1 | 2026-08-31 06:38:36 | 52.87545 | 16.17624 | 60° | 88km/h | 8724m | -2.3m/s | -35.7°C | 73.4% | 331.5hPa | 2.5V | 00:00:00 | 00:00:00 | 00:00:00 | |
| SONDE2-11 | 2026-08-31 06:38:35 | 52.87522 | 16.17561 | 60° | 89km/h | 8728m | -1.7m/s | -35.7°C | 73.6% | 331.3hPa | 2.5V | 00:00:00 | 00:00:00 | 00:00:00 | |
| SP3BTT-10 | 2026-08-31 06:38:32 | 52.87486 | 16.17463 | 59° | 84km/h | 8733m | -2.2m/s | -35.7°C | 86.9% | 331.1hPa | 2.5V | 00:00:00 | 00:00:00 | 00:00:00 | |
| KRY50SP-1 | 2026-08-31 06:38:31 | 52.87486 | 16.17463 | 60° | 89km/h | 8733m | -2.3m/s | -35.8°C | 73.6% | 331.1hPa | 2.5V | 00:00:00 | 00:00:00 | 00:00:00 | |
| EDDB2-11 | 2026-08-31 06:38:27 | 52.87426 | 16.17297 | 59° | 93km/h | 8743m | -2.1m/s | -35.9°C | 73.7% | 330.6hPa | 2.5V | 00:00:00 | 00:00:00 | 00:00:00 | |
| KRY50SP-1 | 2026-08-31 06:38:26 | 52.87425 | 16.17297 | 60° | 93km/h | 8743m | -2.1m/s | -35.9°C | 73.8% | 330.6hPa | 2.5V | 00:00:00 | 00:00:00 | 00:00:00 | |
| AM1SDL-15 | 2026-08-31 06:38:25 | 52.87402 | 16.17229 | 62° | 86km/h | 8747m | -1.9m/s | -35.9°C | 87.5% | 330.4hPa | 2.5V | 00:00:00 | 02:28:40 | 00:00:00 | |
| SP6BVK | 2026-08-31 06:38:24 | 52.87402 | 16.17229 | 63° | 93km/h | 8747m | -2.0m/s | -35.9°C | 73.9% | 330.5hPa | 2.5V | 00:00:00 | 00:00:00 | 00:00:00 | |
| KRY50SP-1 | 2026-08-31 06:38:20 | 52.87361 | 16.17089 | 68° | 89km/h | 8753m | -1.9m/s | -36.0°C | 72.8% | 330.2hPa | 2.5V | 00:00:00 | 00:00:00 | 00:00:00 | |
| SP3WXH-11 | 2026-08-31 06:38:19 | 52.87336 | 16.16990 | 67° | 80km/h | 8757m | -1.7m/s | -36.0°C | 73.0% | 330.0hPa | 2.5V | 00:00:00 | 00:00:00 | 00:00:00 | |
| KRY50SP-1 | 2026-08-31 06:38:16 | 52.87319 | 16.16928 | 67° | 78km/h | 8761m | -1.7m/s | -36.0°C | 72.6% | 329.9hPa | 2.5V | 00:00:00 | 00:00:00 | 00:00:00 | |
| AM1SDL-15 | 2026-08-31 06:38:13 | 52.87292 | 16.16841 | 60° | 86km/h | 8765m | -1.8m/s | -36.0°C | 87.9% | 329.6hPa | 2.5V | 00:00:00 | 02:28:28 | 08:30:00 | |
| DB0DAN | 2026-08-31 06:38:10 | 52.87260 | 16.16752 | 58° | 82km/h | 8770m | -1.3m/s | -36.1°C | 75.2% | 329.42hPa | 2.6V | 00:00:00 | 00:00:00 | 00:00:00 | |
| EDDB2-12 | 2026-08-31 06:38:09 | 52.87248 | 16.16722 | 58° | 86km/h | 8771m | -1.3m/s | -36.1°C | 75.4% | 329.3hPa | 2.6V | 00:00:00 | 00:00:00 | 00:00:00 | |
| KRY50SP-1 | 2026-08-31 06:38:04 | 52.87201 | 16.16599 | 60° | 86km/h | 8775m | -1.7m/s | -36.2°C | 75.4% | 329.0hPa | 2.6V | 00:00:00 | 00:00:00 | 00:00:00 | |
| SP6BVK | 2026-08-31 06:38:03 | 52.87189 | 16.16568 | 59° | 88km/h | 8777m | -1.9m/s | -36.2°C | 75.6% | 328.9hPa | 2.6V | 00:00:00 | 00:00:00 | 00:00:00 | |
| EDDB2-11 | 2026-08-31 06:37:56 | 52.87093 | 16.16322 | 56° | 88km/h | 8790m | -1.9m/s | -36.4°C | 75.6% | 328.3hPa | 2.6V | 00:00:00 | 00:00:00 | 00:00:00 | |
| DB0DAN | 2026-08-31 06:37:55 | 52.87081 | 16.16291 | 56° | 84km/h | 8792m | -1.7m/s | -36.4°C | 75.7% | 328.29hPa | 2.6V | 00:00:00 | 00:00:00 | 00:00:00 | |
| SP3WXH-11 | 2026-08-31 06:37:48 | 52.86996 | 16.16055 | 62° | 78km/h | 8804m | -1.5m/s | -36.5°C | 75.9% | 327.8hPa | 2.5V | 00:00:00 | 00:00:00 | 00:00:00 | |
| KRY50SP-1 | 2026-08-31 06:37:47 | 52.86996 | 16.16055 | 63° | 78km/h | 8804m | -1.5m/s | -36.5°C | 76.0% | 327.8hPa | 2.5V | 00:00:00 | 00:00:00 | 00:00:00 | |
| 3Z3Z-3 | 2026-08-31 06:37:46 | 52.86996 | 16.16055 | 63° | 78km/h | 8804m | -1.5m/s | -36.5°C | 76.0% | 327.8hPa | 2.5V | 00:00:00 | 00:00:00 | 00:00:00 | |
| SP6BVK | 2026-08-31 06:37:42 | 52.86958 | 16.15941 | 60° | 77km/h | 8811m | -1.9m/s | -36.5°C | 75.3% | 327.4hPa | 2.5V | 00:00:00 | 00:00:00 | 00:00:00 | |
| KRY50SP-1 | 2026-08-31 06:37:40 | 52.86938 | 16.15886 | 59° | 78km/h | 8815m | -1.6m/s | -36.6°C | 75.2% | 327.2hPa | 2.5V | 00:00:00 | 00:00:00 | 00:00:00 | |
| EDDB2-12 | 2026-08-31 06:37:38 | 52.86904 | 16.15803 | 54° | 82km/h | 8820m | -2.1m/s | -36.6°C | 74.4% | 326.9hPa | 2.5V | 00:00:00 | 00:00:00 | 00:00:00 | |
| AM1SDL-15 | 2026-08-31 06:37:37 | 52.86892 | 16.15774 | 56° | 88km/h | 8823m | -2.0m/s | -36.6°C | 88.4% | 326.8hPa | 2.5V | 00:00:00 | 02:27:52 | 00:00:00 | |
| KRY50SP-1 | 2026-08-31 06:37:34 | 52.86867 | 16.15715 | 59° | 88km/h | 8827m | -2.6m/s | -36.7°C | 74.6% | 326.6hPa | 2.5V | 00:00:00 | 00:00:00 | 00:00:00 | |
| SONDE2-11 | 2026-08-31 06:37:33 | 52.86832 | 16.15620 | 60° | 88km/h | 8835m | -2.6m/s | -36.8°C | 75.2% | 326.3hPa | 2.5V | 00:00:00 | 00:00:00 | 00:00:00 | |
| KRY50SP-1 | 2026-08-31 06:37:28 | 52.86801 | 16.15522 | 65° | 86km/h | 8842m | -2.4m/s | -36.8°C | 76.9% | 325.9hPa | 2.5V | 00:00:00 | 00:00:00 | 00:00:00 | |
| DB0DAN | 2026-08-31 06:37:25 | 52.86763 | 16.15390 | 66° | 84km/h | 8852m | -2.8m/s | -36.9°C | 77.1% | 325.46hPa | 2.5V | 00:00:00 | 00:00:00 | 00:00:00 | |
| AM1SDL-15 | 2026-08-31 06:37:25 | 52.86763 | 16.15390 | 66° | 89km/h | 8852m | -2.7m/s | -36.9°C | 91.7% | 325.4hPa | 2.6V | 00:00:00 | 02:27:40 | 00:00:00 | |
| KRY50SP-1 | 2026-08-31 06:37:23 | 52.86754 | 16.15356 | 67° | 89km/h | 8854m | -2.6m/s | -37.0°C | 76.9% | 325.3hPa | 2.6V | 00:00:00 | 00:00:00 | 00:00:00 | |
| SP6BVK | 2026-08-31 06:37:21 | 52.86736 | 16.15288 | 67° | 89km/h | 8859m | -2.9m/s | -37.0°C | 76.5% | 325.1hPa | 2.6V | 00:00:00 | 00:00:00 | 00:00:00 | |
| KRY50SP-1 | 2026-08-31 06:37:17 | 52.86700 | 16.15149 | 68° | 91km/h | 8871m | -3.4m/s | -37.1°C | 76.5% | 324.5hPa | 2.6V | 00:00:00 | 00:00:00 | 00:00:00 | |
| SP3WXH-11 | 2026-08-31 06:37:16 | 52.86682 | 16.15079 | 66° | 91km/h | 8876m | -3.1m/s | -37.2°C | 76.6% | 324.3hPa | 2.6V | 00:00:00 | 00:00:00 | 00:00:00 | |
| 3Z3Z-3 | 2026-08-31 06:37:14 | 52.86673 | 16.15043 | 67° | 93km/h | 8879m | -2.7m/s | -37.2°C | 77.2% | 324.1hPa | 2.6V | 00:00:00 | 00:00:00 | 00:00:00 | |
| AM1SDL-15 | 2026-08-31 06:37:13 | 52.86652 | 16.14973 | 64° | 95km/h | 8885m | -3.2m/s | -37.2°C | 92.5% | 323.9hPa | 2.6V | 00:00:00 | 02:27:28 | 00:00:00 | |
| KRY50SP-1 | 2026-08-31 06:37:12 | 52.86652 | 16.14973 | 65° | 95km/h | 8885m | -3.3m/s | -37.2°C | 77.9% | 323.9hPa | 2.6V | 00:00:00 | 00:00:00 | 00:00:00 | |
| EDDB2-12 | 2026-08-31 06:37:07 | 52.86587 | 16.14762 | 61° | 97km/h | 8899m | -3.2m/s | -37.4°C | 78.5% | 323.2hPa | 2.6V | 00:00:00 | 00:00:00 | 00:00:00 | |
| KRY50SP-1 | 2026-08-31 06:37:06 | 52.86587 | 16.14762 | 63° | 97km/h | 8899m | -3.2m/s | -37.4°C | 78.6% | 323.2hPa | 2.6V | 00:00:00 | 00:00:00 | 00:00:00 | |
| SONDE2-11 | 2026-08-31 06:37:02 | 52.86525 | 16.14548 | 66° | 91km/h | 8915m | -2.8m/s | -37.6°C | 77.8% | 322.4hPa | 2.6V | 00:00:00 | 00:00:00 | 00:00:00 | |
| EDDB2-11 | 2026-08-31 06:36:54 | 52.86464 | 16.14316 | 65° | 84km/h | 8931m | -2.7m/s | -37.6°C | 75.3% | 321.7hPa | 2.6V | 00:00:00 | 00:00:00 | 00:00:00 | |
| SP3WXH-11 | 2026-08-31 06:36:46 | 52.86373 | 16.14016 | 62° | 89km/h | 8953m | -2.3m/s | -37.8°C | 75.0% | 320.7hPa | 2.6V | 00:00:00 | 00:00:00 | 00:00:00 | |
| 3Z3Z-3 | 2026-08-31 06:36:40 | 52.86328 | 16.13881 | 62° | 95km/h | 8962m | -2.3m/s | -37.9°C | 71.7% | 320.2hPa | 2.6V | 00:00:00 | 00:00:00 | 00:00:00 | |
| EDDB2-12 | 2026-08-31 06:36:36 | 52.86264 | 16.13663 | 65° | 100km/h | 8976m | -1.9m/s | -37.8°C | 70.8% | 319.6hPa | 2.6V | 00:00:00 | 00:00:00 | 00:00:00 | |
| AM1SDL-15 | 2026-08-31 06:36:35 | 52.86264 | 16.13663 | 66° | 99km/h | 8976m | -1.8m/s | -37.8°C | 84.7% | 319.5hPa | 2.6V | 00:00:00 | 02:26:50 | 00:00:00 | |
| SONDE2-11 | 2026-08-31 06:36:31 | 52.86217 | 16.13468 | 70° | 97km/h | 8986m | -1.8m/s | -38.0°C | 70.2% | 319.1hPa | 2.6V | 00:00:00 | 00:00:00 | 00:00:00 | |
| KRY50SP-1 | 2026-08-31 06:36:29 | 52.86217 | 16.13469 | 71° | 99km/h | 8986m | -1.8m/s | -38.0°C | 70.3% | 319.1hPa | 2.6V | 00:00:00 | 00:00:00 | 00:00:00 | |
| AM1SDL-15 | 2026-08-31 06:36:23 | 52.86161 | 16.13207 | 70° | 89km/h | 8995m | -1.4m/s | -38.0°C | 84.7% | 318.7hPa | 2.6V | 00:00:00 | 02:26:38 | 08:30:00 | |
| SP6BVK | 2026-08-31 06:36:20 | 52.86144 | 16.13140 | 67° | 88km/h | 8998m | -1.7m/s | -38.1°C | 70.8% | 318.6hPa | 2.5V | 00:00:00 | 00:00:00 | 00:00:00 | |
| KRY50SP-1 | 2026-08-31 06:36:18 | 52.86126 | 16.13075 | 64° | 86km/h | 9001m | -1.7m/s | -38.1°C | 70.8% | 318.5hPa | 2.5V | 00:00:00 | 00:00:00 | 00:00:00 | |
| 3Z3Z-3 | 2026-08-31 06:36:17 | 52.86116 | 16.13043 | 65° | 86km/h | 9002m | -1.8m/s | -38.1°C | 71.3% | 318.4hPa | 2.5V | 00:00:00 | 00:00:00 | 00:00:00 | |
| SP3BTT-10 | 2026-08-31 06:36:16 | 52.86096 | 16.12979 | 62° | 89km/h | 9006m | -2.0m/s | -38.1°C | 86.4% | 318.2hPa | 2.5V | 00:00:00 | 00:00:00 | 00:00:00 | |
| SP3WXH-11 | 2026-08-31 06:36:14 | 52.86075 | 16.12913 | 62° | 91km/h | 9009m | -1.7m/s | -38.2°C | 73.4% | 318.1hPa | 2.5V | 00:00:00 | 00:00:00 | 00:00:00 | |
| KRY50SP-1 | 2026-08-31 06:36:13 | 52.86075 | 16.12914 | 63° | 91km/h | 9009m | -1.7m/s | -38.2°C | 73.5% | 318.1hPa | 2.5V | 00:00:00 | 00:00:00 | 00:00:00 | |
| AM1SDL-15 | 2026-08-31 06:36:11 | 52.86042 | 16.12807 | 64° | 100km/h | 9014m | -2.5m/s | -38.2°C | 87.7% | 317.8hPa | 2.5V | 00:00:00 | 02:26:26 | 00:00:00 | |
| KRY50SP-1 | 2026-08-31 06:36:08 | 52.86019 | 16.12733 | 64° | 100km/h | 9018m | -2.3m/s | -38.3°C | 73.3% | 317.6hPa | 2.5V | 00:00:00 | 00:00:00 | 00:00:00 | |
| 3Z3Z-3 | 2026-08-31 06:36:06 | 52.85996 | 16.12658 | 65° | 100km/h | 9023m | -2.6m/s | -38.4°C | 73.2% | 317.4hPa | 2.5V | 00:00:00 | 00:00:00 | 00:00:00 | |
| EDDB2-12 | 2026-08-31 06:36:05 | 52.85962 | 16.12545 | 63° | 99km/h | 9030m | -3.3m/s | -38.4°C | 72.2% | 317.0hPa | 2.5V | 00:00:00 | 00:00:00 | 00:00:00 | |
| KRY50SP-1 | 2026-08-31 06:36:02 | 52.85951 | 16.12508 | 65° | 100km/h | 9033m | -3.0m/s | -38.5°C | 72.1% | 316.9hPa | 2.5V | 00:00:00 | 00:00:00 | 00:00:00 | |
| AA1-15 | 2026-08-31 06:36:02 | 52.85939 | 16.12471 | 63° | 99km/h | 9036m | -2.6m/s | -38.5°C | 75.4% | 316.8hPa | 2.6V | 18:12:15 | 02:26:17 | 00:00:00 | |
| SONDE2-11 | 2026-08-31 06:36:00 | 52.85906 | 16.12362 | 62° | 97km/h | 9043m | -2.7m/s | -38.5°C | 71.8% | 316.5hPa | 2.5V | 00:00:00 | 00:00:00 | 00:00:00 | |
| EDDB2-11 | 2026-08-31 06:35:52 | 52.85836 | 16.12116 | 65° | 88km/h | 9059m | -2.2m/s | -38.6°C | 71.7% | 315.7hPa | 2.5V | 00:00:00 | 00:00:00 | 00:00:00 | |
| AA1-15 | 2026-08-31 06:35:37 | 52.85673 | 16.11578 | 67° | 106km/h | 9093m | -2.5m/s | -38.9°C | 66.8% | 314.2hPa | 2.5V | 18:12:15 | 02:25:52 | 00:00:00 | |
| AA1-15 | 2026-08-31 06:35:26 | 52.85575 | 16.11130 | 71° | 100km/h | 9114m | -1.7m/s | -39.2°C | 69.6% | 313.2hPa | 2.5V | 18:12:15 | 02:25:41 | 00:00:00 | |
| AM1SDL-15 | 2026-08-31 06:35:23 | 52.85551 | 16.11011 | 73° | 95km/h | 9118m | -1.2m/s | -39.1°C | 82.1% | 313.0hPa | 2.6V | 00:00:00 | 02:25:38 | 00:00:00 | |
| KRY50SP-1 | 2026-08-31 06:35:22 | 52.85551 | 16.11011 | 73° | 99km/h | 9118m | -1.2m/s | -39.2°C | 68.2% | 313.1hPa | 2.6V | 00:00:00 | 00:00:00 | 00:00:00 | |
| EDDB2-11 | 2026-08-31 06:35:21 | 52.85536 | 16.10933 | 72° | 95km/h | 9120m | -1.5m/s | -39.2°C | 68.9% | 312.9hPa | 2.6V | 00:00:00 | 00:00:00 | 00:00:00 | |
| 3Z3Z-3 | 2026-08-31 06:35:19 | 52.85529 | 16.10895 | 74° | 95km/h | 9121m | -2.0m/s | -39.2°C | 69.2% | 312.8hPa | 2.6V | 00:00:00 | 00:00:00 | 00:00:00 | |
| SP6BVK | 2026-08-31 06:35:18 | 52.85522 | 16.10856 | 74° | 97km/h | 9124m | -2.1m/s | -39.2°C | 68.6% | 312.8hPa | 2.6V | 00:00:00 | 00:00:00 | 00:00:00 | |
| KRY50SP-1 | 2026-08-31 06:35:17 | 52.85515 | 16.10817 | 75° | 97km/h | 9125m | -1.6m/s | -39.3°C | 67.8% | 312.8hPa | 2.6V | 00:00:00 | 00:00:00 | 00:00:00 | |
| AA1-15 | 2026-08-31 06:34:59 | 52.85347 | 16.10121 | 71° | 108km/h | 9153m | -1m/s | -39.5°C | 70.6% | 311.4hPa | 2.6V | 18:12:15 | 02:25:14 | 00:00:00 | |
| EDDB2-11 | 2026-08-31 06:34:50 | 52.85281 | 16.09779 | 68° | 84km/h | 9164m | -1.9m/s | -39.6°C | 69.2% | 310.8hPa | 2.6V | 00:00:00 | 00:00:00 | 00:00:00 | |
| AA1-15 | 2026-08-31 06:34:44 | 52.85220 | 16.09571 | 62° | 104km/h | 9174m | -1.9m/s | -39.7°C | 72.3% | 310.4hPa | 2.6V | 18:12:15 | 02:24:59 | 00:00:00 | |
| AA1-15 | 2026-08-31 06:34:28 | 52.85019 | 16.08925 | 62° | 106km/h | 9224m | -3.4m/s | -40.2°C | 72.7% | 308.2hPa | 2.6V | 18:12:15 | 02:24:43 | 00:00:00 | |
| AA1-15 | 2026-08-31 06:34:15 | 52.84854 | 16.08412 | 62° | 115km/h | 9263m | -3m/s | -40.5°C | 65.9% | 306.5hPa | 2.5V | 18:12:15 | 02:24:30 | 00:00:00 | |
| AA1-15 | 2026-08-31 06:34:00 | 52.84691 | 16.07785 | 64° | 102km/h | 9299m | -2.4m/s | -40.7°C | 60.8% | 304.9hPa | 2.5V | 18:12:15 | 02:24:15 | 00:00:00 | |
| SONDE2-11 | 2026-08-31 06:33:55 | 52.84627 | 16.07590 | 60° | 111km/h | 9309m | -2.3m/s | -40.8°C | 60.6% | 304.3hPa | 2.5V | 00:00:00 | 00:00:00 | 00:00:00 | |
| S3001 | 2026-08-31 06:33:49 | 52.84543 | 16.07341 | 62° | 115km/h | 9323m | -2.5m/s | -41.0°C | 61.3% | 303.8hPa | 2.5V | 00:00:00 | 00:00:00 | 00:00:00 | |
| EDDB2-11 | 2026-08-31 06:33:48 | 52.84529 | 16.07297 | 62° | 119km/h | 9326m | -2.5m/s | -41.0°C | 61.2% | 303.7hPa | 2.5V | 00:00:00 | 00:00:00 | 00:00:00 | |
| AA1-15 | 2026-08-31 06:33:32 | 52.84348 | 16.06625 | 62° | 102km/h | 9361m | -2m/s | -41.3°C | 63% | 302hPa | 2.5V | 18:12:15 | 02:23:47 | 00:00:00 | |
| AA1-15 | 2026-08-31 06:33:21 | 52.84195 | 16.06183 | 62° | 117km/h | 9384m | -2.9m/s | -41.5°C | 65.2% | 301hPa | 2.5V | 18:12:15 | 02:23:36 | 00:00:00 | |
| AA1-15 | 2026-08-31 06:33:10 | 52.84058 | 16.05697 | 68° | 106km/h | 9408m | -2.7m/s | -41.7°C | 64.4% | 299.9hPa | 2.5V | 18:12:15 | 02:23:25 | 00:00:00 | |
| AA1-15 | 2026-08-31 06:32:56 | 52.83864 | 16.05136 | 60° | 124km/h | 9440m | -2.7m/s | -42°C | 65.6% | 298.4hPa | 2.6V | 18:12:15 | 02:23:11 | 00:00:00 | |
| SONDE2-11 | 2026-08-31 06:32:53 | 52.83822 | 16.04998 | 65° | 119km/h | 9448m | -2.7m/s | -42.1°C | 61.8% | 298.2hPa | 2.5V | 00:00:00 | 00:00:00 | 00:00:00 | |
| S3001 | 2026-08-31 06:32:47 | 52.83754 | 16.04737 | 66° | 102km/h | 9462m | -2.2m/s | -42.2°C | 62.7% | 297.6hPa | 2.5V | 00:00:00 | 00:00:00 | 00:00:00 | |
| EDDB2-11 | 2026-08-31 06:32:46 | 52.83743 | 16.04697 | 64° | 102km/h | 9463m | -2.2m/s | -42.3°C | 62.6% | 297.6hPa | 2.5V | 00:00:00 | 00:00:00 | 00:00:00 | |
| SP3BTT-10 | 2026-08-31 06:32:43 | 52.83708 | 16.04583 | 60° | 106km/h | 9470m | -2.2m/s | -42.2°C | 76.1% | 297.2hPa | 2.5V | 00:00:00 | 00:00:00 | 00:00:00 | |
| KRY50SP-1 | 2026-08-31 06:32:40 | 52.83680 | 16.04508 | 59° | 106km/h | 9474m | -2.2m/s | -42.3°C | 60.9% | 297.0hPa | 2.5V | 00:00:00 | 00:00:00 | 00:00:00 | |
| SP3WXH-11 | 2026-08-31 06:32:37 | 52.83619 | 16.04347 | 58° | 120km/h | 9483m | -2.8m/s | -42.4°C | 60.1% | 296.6hPa | 2.5V | 00:00:00 | 00:00:00 | 00:00:00 | |
| KRY50SP-1 | 2026-08-31 06:32:34 | 52.83588 | 16.04260 | 62° | 120km/h | 9488m | -1.9m/s | -42.4°C | 60.5% | 296.5hPa | 2.5V | 00:00:00 | 00:00:00 | 00:00:00 | |
| SP6BVK | 2026-08-31 06:32:32 | 52.83558 | 16.04171 | 63° | 122km/h | 9492m | -1.9m/s | -42.4°C | 60.6% | 296.3hPa | 2.5V | 00:00:00 | 00:00:00 | 00:00:00 | |
| SONDE2-12 | 2026-08-31 06:32:30 | 52.83305 | 16.03352 | 58° | 117km/h | 9525m | -1.8m/s | -42.7°C | 72.9% | 294.8hPa | 2.5V | 00:00:00 | 00:00:00 | 00:00:00 | |
| AA1-15 | 2026-08-31 06:32:13 | 52.83305 | 16.03352 | 58° | 117km/h | 9525m | -1.8m/s | -42.7°C | 65.4% | 294.8hPa | 2.5V | 18:12:15 | 02:22:28 | 00:00:00 | |
| AA1-15 | 2026-08-31 06:32:03 | 52.83170 | 16.02906 | 67° | 115km/h | 9543m | -2.2m/s | -42.9°C | 67.5% | 294hPa | 2.6V | 18:12:15 | 02:22:18 | 00:00:00 | |
| SONDE2-12 | 2026-08-31 06:31:59 | 52.83126 | 16.02737 | 66° | 104km/h | 9550m | -1.8m/s | -43.0°C | 75.4% | 293.7hPa | 2.6V | 00:00:00 | 00:00:00 | 00:00:00 | |
| AA1-15 | 2026-08-31 06:31:52 | 52.83038 | 16.02463 | 59° | 110km/h | 9562m | -1.7m/s | -43.1°C | 68.5% | 293.2hPa | 2.6V | 18:12:15 | 02:22:07 | 00:00:00 | |
| SONDE2-11 | 2026-08-31 06:31:51 | 52.83024 | 16.02424 | 58° | 110km/h | 9563m | -1.9m/s | -43.1°C | 64.8% | 293.1hPa | 2.5V | 00:00:00 | 00:00:00 | 00:00:00 | |
| AA1-15 | 2026-08-31 06:31:42 | 52.82887 | 16.02040 | 63° | 122km/h | 9582m | -2.5m/s | -43.3°C | 67.3% | 292.3hPa | 2.5V | 18:12:15 | 02:21:57 | 00:00:00 | |
| AA1-15 | 2026-08-31 06:31:31 | 52.82756 | 16.01569 | 62° | 104km/h | 9602m | -2m/s | -43.4°C | 68.3% | 291.5hPa | 2.5V | 18:12:15 | 02:21:46 | 00:00:00 | |
| AA1-15 | 2026-08-31 06:31:21 | 52.82612 | 16.01171 | 60° | 119km/h | 9619m | -1.5m/s | -43.6°C | 67.7% | 290.8hPa | 2.5V | 18:12:15 | 02:21:36 | 00:00:00 | |
| SONDE2-11 | 2026-08-31 06:31:20 | 52.82596 | 16.01129 | 59° | 117km/h | 9620m | -1.6m/s | -43.6°C | 64.4% | 290.7hPa | 2.6V | 00:00:00 | 00:00:00 | 00:00:00 | |
| 3Z3Z-3 | 2026-08-31 06:31:19 | 52.82597 | 16.01129 | 60° | 119km/h | 9620m | -1.6m/s | -43.6°C | 64.5% | 290.7hPa | 2.6V | 00:00:00 | 00:00:00 | 00:00:00 | |
| AM1SDL-15 | 2026-08-31 06:31:17 | 52.82552 | 16.01000 | 62° | 122km/h | 9624m | -1.5m/s | -43.6°C | 80.7% | 290.5hPa | 2.6V | 00:00:00 | 02:21:32 | 00:00:00 | |
| S3001 | 2026-08-31 06:31:14 | 52.82508 | 16.00870 | 60° | 119km/h | 9629m | -1.6m/s | -43.7°C | 65.4% | 290.3hPa | 2.6V | 00:00:00 | 00:00:00 | 00:00:00 | |
| KRY50SP-1 | 2026-08-31 06:31:12 | 52.82493 | 16.00826 | 61° | 122km/h | 9630m | -1.6m/s | -43.7°C | 65.5% | 290.3hPa | 2.6V | 00:00:00 | 00:00:00 | 00:00:00 | |
| DB0DAN | 2026-08-31 06:31:10 | 52.82448 | 16.00694 | 60° | 115km/h | 9635m | -1m/s | -43.7°C | 65.4% | 290.12hPa | 2.6V | 00:00:00 | 00:00:00 | 00:00:00 | |
| AA1-15 | 2026-08-31 06:31:10 | 52.82448 | 16.00694 | 60° | 120km/h | 9635m | -1m/s | -43.7°C | 68.2% | 290.1hPa | 2.6V | 18:12:15 | 02:21:25 | 00:00:00 | |
| AA1-15 | 2026-08-31 06:30:59 | 52.82288 | 16.00193 | 64° | 122km/h | 9650m | -1.6m/s | -43.8°C | 67.2% | 289.5hPa | 2.6V | 18:12:15 | 02:21:14 | 00:00:00 | |
| SP3BTT-10 | 2026-08-31 06:30:58 | 52.82274 | 16.00148 | 64° | 117km/h | 9651m | -1.1m/s | -43.8°C | 78.9% | 289.5hPa | 2.5V | 00:00:00 | 00:00:00 | 00:00:00 | |
| DB0DAN | 2026-08-31 06:30:55 | 52.82236 | 16.00019 | 63° | 106km/h | 9655m | -1.5m/s | -43.9°C | 64.2% | 289.34hPa | 2.5V | 00:00:00 | 00:00:00 | 00:00:00 | |
| AA1-15 | 2026-08-31 06:30:48 | 52.82146 | 15.99741 | 60° | 110km/h | 9667m | -1.3m/s | -44°C | 67.4% | 288.9hPa | 2.5V | 18:12:15 | 02:21:03 | 00:00:00 | |
| AA1-15 | 2026-08-31 06:30:37 | 52.81975 | 15.99306 | 56° | 117km/h | 9687m | -1.7m/s | -44.2°C | 67.2% | 288.1hPa | 2.5V | 18:12:15 | 02:20:52 | 00:00:00 | |
| AA1-15 | 2026-08-31 06:30:26 | 52.81783 | 15.98856 | 55° | 128km/h | 9702m | -1.3m/s | -44.3°C | 64.2% | 287.4hPa | 2.6V | 18:12:15 | 02:20:41 | 00:00:00 | |
| AA1-15 | 2026-08-31 06:30:14 | 52.81591 | 15.98319 | 59° | 115km/h | 9718m | -1.2m/s | -44.1°C | 57.3% | 286.8hPa | 2.6V | 18:12:15 | 02:20:29 | 00:00:00 | |
| AA1-15 | 2026-08-31 06:30:03 | 52.81403 | 15.97875 | 54° | 126km/h | 9733m | -1.6m/s | -44.2°C | 56.6% | 286.1hPa | 2.6V | 18:12:15 | 02:20:18 | 00:00:00 | |
| SP3WXH-11 | 2026-08-31 06:30:02 | 52.81385 | 15.97832 | 55° | 126km/h | 9735m | -1.4m/s | -44.2°C | 51.9% | 286.1hPa | 2.5V | 00:00:00 | 00:00:00 | 00:00:00 | |
| EDDB2-12 | 2026-08-31 06:29:52 | 52.81214 | 15.97375 | 61° | 124km/h | 9750m | -1.4m/s | -44.3°C | 51.1% | 285.4hPa | 2.5V | 00:00:00 | 00:00:00 | 00:00:00 | |
| SONDE2-11 | 2026-08-31 06:29:47 | 52.81141 | 15.97153 | 60° | 115km/h | 9758m | -1.5m/s | -44.4°C | 51.1% | 285.1hPa | 2.5V | 00:00:00 | 00:00:00 | 00:00:00 | |
| AA1-15 | 2026-08-31 06:29:41 | 52.81048 | 15.96910 | 54° | 117km/h | 9768m | -1.9m/s | -44.5°C | 55.7% | 284.7hPa | 2.5V | 18:12:15 | 02:19:56 | 00:00:00 | |
| AA1-15 | 2026-08-31 06:29:30 | 52.80847 | 15.96431 | 59° | 133km/h | 9788m | -2.1m/s | -44.6°C | 55.4% | 283.9hPa | 2.5V | 18:12:15 | 02:19:45 | 00:00:00 | |
| AA1-15 | 2026-08-31 06:29:20 | 52.80690 | 15.95986 | 57° | 117km/h | 9809m | -2.1m/s | -44.7°C | 55.4% | 283hPa | 2.5V | 18:12:15 | 02:19:35 | 00:00:00 | |
| AA1-15 | 2026-08-31 06:29:10 | 52.80509 | 15.95572 | 54° | 130km/h | 9830m | -2.1m/s | -44.8°C | 56.6% | 282.2hPa | 2.6V | 18:12:15 | 02:19:25 | 00:00:00 | |
| AA1-15 | 2026-08-31 06:28:59 | 52.80312 | 15.95066 | 61° | 124km/h | 9855m | -2.3m/s | -45°C | 55.3% | 281.1hPa | 2.5V | 18:12:15 | 02:19:14 | 00:00:00 | |
| AA1-15 | 2026-08-31 06:28:48 | 52.80127 | 15.94606 | 52° | 122km/h | 9881m | -2.3m/s | -45.2°C | 57.5% | 280.1hPa | 2.5V | 18:12:15 | 02:19:03 | 00:00:00 | |
| SONDE2-11 | 2026-08-31 06:28:45 | 52.80068 | 15.94481 | 51° | 130km/h | 9888m | -2.4m/s | -45.3°C | 51.4% | 279.8hPa | 2.6V | 00:00:00 | 00:00:00 | 00:00:00 | |
| AA1-15 | 2026-08-31 06:28:37 | 52.79914 | 15.94112 | 58° | 133km/h | 9908m | -2.6m/s | -45.5°C | 56.9% | 278.9hPa | 2.6V | 18:12:15 | 02:18:52 | 00:00:00 | |
| AA1-15 | 2026-08-31 06:28:26 | 52.79728 | 15.93638 | 53° | 122km/h | 9938m | -2.9m/s | -45.8°C | 58.5% | 277.6hPa | 2.5V | 18:12:15 | 02:18:41 | 00:00:00 | |
| AA1-15 | 2026-08-31 06:28:15 | 52.79508 | 15.93150 | 57° | 139km/h | 9967m | -2.8m/s | -46.1°C | 58.6% | 276.3hPa | 2.6V | 18:12:15 | 02:18:30 | 00:00:00 | |
| SONDE2-11 | 2026-08-31 06:28:14 | 52.79489 | 15.93102 | 57° | 135km/h | 9970m | -2.5m/s | -46.1°C | 52.9% | 276.3hPa | 2.5V | 00:00:00 | 00:00:00 | 00:00:00 | |
| KRY50SP-1 | 2026-08-31 06:28:11 | 52.79453 | 15.93006 | 60° | 131km/h | 9976m | -2.6m/s | -46.1°C | 53.8% | 276.0hPa | 2.5V | 00:00:00 | 00:00:00 | 00:00:00 | |
| KRY50SP-1 | 2026-08-31 06:28:06 | 52.79370 | 15.92783 | 57° | 120km/h | 9991m | -2.7m/s | -46.3°C | 54.6% | 275.4hPa | 2.5V | 00:00:00 | 00:00:00 | 00:00:00 | |
| AA1-15 | 2026-08-31 06:27:49 | 52.79017 | 15.91975 | 59° | 133km/h | 10043m | -2.7m/s | -46.7°C | 60.1% | 273.2hPa | 2.5V | 18:12:15 | 02:18:04 | 00:00:00 | |
| EDDB2-12 | 2026-08-31 06:27:48 | 52.79000 | 15.91927 | 58° | 131km/h | 10046m | -2.8m/s | -46.8°C | 54.3% | 273.1hPa | 2.5V | 00:00:00 | 00:00:00 | 00:00:00 | |
| AA1-15 | 2026-08-31 06:27:39 | 52.78844 | 15.91532 | 52° | 126km/h | 10073m | -3m/s | -47°C | 61.1% | 272.1hPa | 2.5V | 18:12:15 | 02:17:54 | 00:00:00 | |
| S3001 | 2026-08-31 06:27:37 | 52.78783 | 15.91404 | 51° | 133km/h | 10082m | -2.5m/s | -47.1°C | 55.5% | 271.8hPa | 2.6V | 00:00:00 | 00:00:00 | 00:00:00 | |
| EDDB2-11 | 2026-08-31 06:27:35 | 52.78762 | 15.91360 | 51° | 131km/h | 10084m | -2.7m/s | -47.1°C | 55.3% | 271.7hPa | 2.6V | 00:00:00 | 00:00:00 | 00:00:00 | |
| KRY50SP-1 | 2026-08-31 06:27:33 | 52.78741 | 15.91316 | 53° | 137km/h | 10087m | -2.9m/s | -47.1°C | 55.2% | 271.5hPa | 2.6V | 00:00:00 | 00:00:00 | 00:00:00 | |
| AM1SDL-15 | 2026-08-31 06:27:30 | 52.78655 | 15.91133 | 55° | 139km/h | 10099m | -2.9m/s | -47.2°C | 69.9% | 271.0hPa | 2.6V | 00:00:00 | 02:17:45 | 00:00:00 | |
| 3Z3Z-3 | 2026-08-31 06:27:29 | 52.78655 | 15.91133 | 55° | 139km/h | 10099m | -2.9m/s | -47.3°C | 54.9% | 271.0hPa | 2.6V | 00:00:00 | 00:00:00 | 00:00:00 | |
| KRY50SP-1 | 2026-08-31 06:27:28 | 52.78634 | 15.91085 | 56° | 142km/h | 10102m | -2.7m/s | -47.3°C | 54.8% | 270.9hPa | 2.6V | 00:00:00 | 00:00:00 | 00:00:00 | |
| KRY50SP-1 | 2026-08-31 06:27:23 | 52.78536 | 15.90842 | 59° | 139km/h | 10115m | -2.7m/s | -47.4°C | 55.2% | 270.3hPa | 2.6V | 00:00:00 | 00:00:00 | 00:00:00 | |
| SP6BVK | 2026-08-31 06:27:22 | 52.78518 | 15.90792 | 59° | 141km/h | 10118m | -3.0m/s | -47.4°C | 55.8% | 270.2hPa | 2.6V | 00:00:00 | 00:00:00 | 00:00:00 | |
| KRY50SP-1 | 2026-08-31 06:27:18 | 52.78421 | 15.90548 | 58° | 139km/h | 10132m | -2.5m/s | -47.5°C | 57.4% | 269.7hPa | 2.6V | 00:00:00 | 00:00:00 | 00:00:00 | |
| EDDB2-12 | 2026-08-31 06:27:17 | 52.78402 | 15.90499 | 56° | 139km/h | 10135m | -2.5m/s | -47.6°C | 57.1% | 269.5hPa | 2.6V | 00:00:00 | 00:00:00 | 00:00:00 | |
| SP3BTT-10 | 2026-08-31 06:27:13 | 52.78325 | 15.90300 | 58° | 144km/h | 10145m | -2.4m/s | -47.6°C | 70.8% | 269.0hPa | 2.6V | 00:00:00 | 00:00:00 | 00:00:00 | |
| AA1-15 | 2026-08-31 06:26:55 | 52.77977 | 15.89450 | 53° | 144km/h | 10193m | -2.5m/s | -48.1°C | 60.9% | 267.2hPa | 2.6V | 18:12:15 | 02:17:10 | 00:00:00 | |
| EDDB2-12 | 2026-08-31 06:26:46 | 52.77797 | 15.88993 | 59° | 142km/h | 10214m | -2.1m/s | -48.3°C | 53.5% | 266.3hPa | 2.6V | 00:00:00 | 00:00:00 | 00:00:00 | |
| AA1-15 | 2026-08-31 06:26:44 | 52.77760 | 15.88891 | 59° | 141km/h | 10219m | -2.6m/s | -48.3°C | 59.8% | 266.1hPa | 2.6V | 18:12:15 | 02:16:59 | 00:00:00 | |
| AA1-15 | 2026-08-31 06:26:31 | 52.77493 | 15.88276 | 52° | 146km/h | 10250m | -2.1m/s | -48.6°C | 60.5% | 264.9hPa | 2.6V | 18:12:15 | 02:16:46 | 00:00:00 | |
| AA1-15 | 2026-08-31 06:26:20 | 52.77253 | 15.87711 | 55° | 155km/h | 10278m | -2.8m/s | -48.8°C | 59.4% | 263.8hPa | 2.6V | 18:12:15 | 02:16:35 | 00:00:00 | |
| AA1-15 | 2026-08-31 06:26:09 | 52.77003 | 15.87130 | 57° | 159km/h | 10304m | -2.5m/s | -49°C | 59.9% | 262.6hPa | 2.5V | 18:12:15 | 02:16:24 | 00:00:00 | |
| AA1-15 | 2026-08-31 06:25:59 | 52.76801 | 15.86609 | 54° | 142km/h | 10328m | -2.2m/s | -49.1°C | 58.8% | 261.7hPa | 2.5V | 18:12:15 | 02:16:14 | 00:00:00 | |
| AA1-15 | 2026-08-31 06:25:48 | 52.76548 | 15.86051 | 55° | 161km/h | 10353m | -2.5m/s | -49.2°C | 59.3% | 260.7hPa | 2.5V | 18:12:15 | 02:16:03 | 00:00:00 | |
| AA1-15 | 2026-08-31 06:25:37 | 52.76325 | 15.85462 | 56° | 141km/h | 10382m | -2.7m/s | -49.4°C | 57.8% | 259.5hPa | 2.6V | 18:12:15 | 02:15:52 | 00:00:00 | |
| AA1-15 | 2026-08-31 06:25:26 | 52.76078 | 15.84908 | 55° | 161km/h | 10409m | -2.7m/s | -49.7°C | 59.6% | 258.6hPa | 2.6V | 18:12:15 | 02:15:41 | 00:00:00 | |
| AA1-15 | 2026-08-31 06:25:15 | 52.75846 | 15.84308 | 60° | 144km/h | 10433m | -2.5m/s | -50°C | 60% | 257.5hPa | 2.6V | 18:12:15 | 02:15:30 | 00:00:00 | |
| AA1-15 | 2026-08-31 06:25:04 | 52.75613 | 15.83753 | 54° | 157km/h | 10460m | -2.6m/s | -50.2°C | 59.8% | 256.4hPa | 2.6V | 18:12:15 | 02:15:19 | 00:00:00 | |
| AA1-15 | 2026-08-31 06:24:53 | 52.75374 | 15.83141 | 60° | 153km/h | 10487m | -2.5m/s | -50.4°C | 59.8% | 255.4hPa | 2.6V | 18:12:15 | 02:15:08 | 00:00:00 | |
| SP3WXH-11 | 2026-08-31 06:24:52 | 52.75336 | 15.83033 | 59° | 148km/h | 10492m | -2.3m/s | -50.5°C | 54.3% | 255.2hPa | 2.6V | 00:00:00 | 00:00:00 | 00:00:00 | |
| AA1-15 | 2026-08-31 06:24:42 | 52.75148 | 15.82575 | 54° | 155km/h | 10514m | -2.1m/s | -50.6°C | 58.3% | 254.4hPa | 2.6V | 18:12:15 | 02:14:57 | 00:00:00 | |
| AA1-15 | 2026-08-31 06:24:31 | 52.74900 | 15.81965 | 60° | 159km/h | 10539m | -2.4m/s | -50.9°C | 57.7% | 253.4hPa | 2.6V | 18:12:15 | 02:14:46 | 00:00:00 | |
| AA1-15 | 2026-08-31 06:24:20 | 52.74682 | 15.81391 | 54° | 148km/h | 10563m | -2m/s | -51°C | 57.4% | 252.5hPa | 2.6V | 18:12:15 | 02:14:35 | 00:00:00 | |
| AA1-15 | 2026-08-31 06:24:09 | 52.74432 | 15.80793 | 59° | 162km/h | 10588m | -2.3m/s | -51.3°C | 57.9% | 251.5hPa | 2.6V | 18:12:15 | 02:14:24 | 00:00:00 | |
| AA1-15 | 2026-08-31 06:23:58 | 52.74211 | 15.80194 | 55° | 148km/h | 10616m | -2m/s | -51.6°C | 58.9% | 250.4hPa | 2.5V | 18:12:15 | 02:14:13 | 00:00:00 | |
| SP3WXH-11 | 2026-08-31 06:23:50 | 52.74006 | 15.79724 | 53° | 161km/h | 10635m | -2.2m/s | -51.7°C | 52.4% | 249.6hPa | 2.6V | 00:00:00 | 00:00:00 | 00:00:00 | |
| 3Z3Z-3 | 2026-08-31 06:23:45 | 52.73935 | 15.79560 | 57° | 164km/h | 10641m | -2.3m/s | -51.8°C | 52.9% | 249.3hPa | 2.6V | 00:00:00 | 00:00:00 | 00:00:00 | |
| EDDB2-12 | 2026-08-31 06:23:40 | 52.73779 | 15.79156 | 60° | 159km/h | 10656m | -2.1m/s | -51.9°C | 52.0% | 248.7hPa | 2.6V | 00:00:00 | 00:00:00 | 00:00:00 | |
| 3Z3Z-3 | 2026-08-31 06:23:35 | 52.73720 | 15.78986 | 61° | 151km/h | 10663m | -2.1m/s | -52.0°C | 51.9% | 248.4hPa | 2.6V | 00:00:00 | 00:00:00 | 00:00:00 | |
| SONDE2-11 | 2026-08-31 06:23:34 | 52.73682 | 15.78877 | 59° | 146km/h | 10666m | -2.3m/s | -52.0°C | 52.0% | 248.2hPa | 2.6V | 00:00:00 | 00:00:00 | 00:00:00 | |
| AA1-15 | 2026-08-31 06:23:12 | 52.73206 | 15.77672 | 61° | 151km/h | 10716m | -2.4m/s | -52.4°C | 58.3% | 246.3hPa | 2.6V | 18:12:15 | 02:13:27 | 00:00:00 | |
| SONDE2-12 | 2026-08-31 06:23:12 | 52.73046 | 15.77255 | 53° | 151km/h | 10735m | -2.4m/s | -52.6°C | 64.4% | 245.6hPa | 2.6V | 00:00:00 | 00:00:00 | 00:00:00 | |
| KRY50SP-1 | 2026-08-31 06:23:11 | 52.73206 | 15.77672 | 62° | 151km/h | 10716m | -2.4m/s | -52.4°C | 51.5% | 246.3hPa | 2.6V | 00:00:00 | 00:00:00 | 00:00:00 | |
| EDDB2-12 | 2026-08-31 06:23:09 | 52.73130 | 15.77459 | 57° | 146km/h | 10725m | -2.4m/s | -52.6°C | 51.7% | 245.9hPa | 2.6V | 00:00:00 | 00:00:00 | 00:00:00 | |
| KRY50SP-1 | 2026-08-31 06:23:05 | 52.73089 | 15.77356 | 57° | 148km/h | 10730m | -2.3m/s | -52.6°C | 52.1% | 245.8hPa | 2.6V | 00:00:00 | 00:00:00 | 00:00:00 | |
| SONDE2-11 | 2026-08-31 06:23:03 | 52.73023 | 15.77203 | 53° | 153km/h | 10737m | -2.1m/s | -52.6°C | 52.1% | 245.5hPa | 2.6V | 00:00:00 | 00:00:00 | 00:00:00 | |
| 3Z3Z-3 | 2026-08-31 06:23:02 | 52.73023 | 15.77203 | 55° | 155km/h | 10737m | -2.1m/s | -52.6°C | 52.2% | 245.5hPa | 2.6V | 00:00:00 | 00:00:00 | 00:00:00 | |
| S3001 | 2026-08-31 06:22:58 | 52.72880 | 15.76874 | 56° | 166km/h | 10751m | -2.5m/s | -52.8°C | 53.1% | 244.9hPa | 2.6V | 00:00:00 | 00:00:00 | 00:00:00 | |
| EDDB2-11 | 2026-08-31 06:22:56 | 52.72858 | 15.76816 | 57° | 164km/h | 10753m | -2.4m/s | -52.8°C | 53.3% | 244.9hPa | 2.6V | 00:00:00 | 00:00:00 | 00:00:00 | |
| SP3WXH-11 | 2026-08-31 06:22:48 | 52.72679 | 15.76299 | 60° | 148km/h | 10774m | -2.4m/s | -53.0°C | 53.3% | 244.0hPa | 2.6V | 00:00:00 | 00:00:00 | 00:00:00 | |
| SONDE2-12 | 2026-08-31 06:22:41 | 52.72296 | 15.75331 | 60° | 157km/h | 10816m | -2.2m/s | -53.3°C | 65.3% | 242.4hPa | 2.6V | 00:00:00 | 00:00:00 | 00:00:00 | |
| AM1SDL-15 | 2026-08-31 06:22:40 | 52.72542 | 15.75940 | 55° | 157km/h | 10791m | -2.6m/s | -53.1°C | 69.8% | 243.4hPa | 2.6V | 00:00:00 | 02:12:55 | 00:00:00 | |
| EDDB2-12 | 2026-08-31 06:22:38 | 52.72474 | 15.75785 | 54° | 157km/h | 10797m | -2.1m/s | -53.2°C | 52.4% | 243.2hPa | 2.6V | 00:00:00 | 00:00:00 | 00:00:00 | |
| KRY50SP-1 | 2026-08-31 06:22:36 | 52.72474 | 15.75784 | 55° | 157km/h | 10797m | -2.1m/s | -53.2°C | 52.5% | 243.1hPa | 2.6V | 00:00:00 | 00:00:00 | 00:00:00 | |
| SONDE2-11 | 2026-08-31 06:22:32 | 52.72359 | 15.75505 | 58° | 164km/h | 10809m | -2.4m/s | -53.3°C | 52.3% | 242.7hPa | 2.6V | 00:00:00 | 00:00:00 | 00:00:00 | |
| AA1-15 | 2026-08-31 06:22:14 | 52.72022 | 15.74501 | 62° | 142km/h | 10851m | -2.4m/s | -53.7°C | 59.1% | 241.1hPa | 2.6V | 18:12:15 | 02:12:29 | 00:00:00 | |
| AA1-15 | 2026-08-31 06:22:03 | 52.71808 | 15.73936 | 59° | 157km/h | 10874m | -2.5m/s | -53.8°C | 58.7% | 240.2hPa | 2.6V | 18:12:15 | 02:12:18 | 00:00:00 | |
| AA1-15 | 2026-08-31 06:21:52 | 52.71607 | 15.73314 | 64° | 146km/h | 10901m | -2.8m/s | -53.9°C | 58.7% | 239.2hPa | 2.5V | 18:12:15 | 02:12:07 | 00:00:00 | |
| SP3WXH-11 | 2026-08-31 06:21:46 | 52.71488 | 15.72953 | 58° | 139km/h | 10917m | -2.3m/s | -54.1°C | 51.9% | 238.5hPa | 2.5V | 00:00:00 | 00:00:00 | 00:00:00 | |
| AA1-15 | 2026-08-31 06:21:41 | 52.71409 | 15.72751 | 56° | 148km/h | 10925m | -2.3m/s | -54.1°C | 58.3% | 238.2hPa | 2.5V | 18:12:15 | 02:11:56 | 00:00:00 | |
| AA1-15 | 2026-08-31 06:21:30 | 52.71197 | 15.72132 | 65° | 155km/h | 10953m | -2.6m/s | -54.4°C | 59.3% | 237.2hPa | 2.5V | 18:12:15 | 02:11:45 | 00:00:00 | |
| AA1-15 | 2026-08-31 06:21:19 | 52.71015 | 15.71552 | 58° | 142km/h | 10980m | -2.1m/s | -54.6°C | 59.5% | 236.2hPa | 2.5V | 18:12:15 | 02:11:34 | 00:00:00 | |
| AA1-15 | 2026-08-31 06:21:08 | 52.70798 | 15.70945 | 63° | 157km/h | 11006m | -2.2m/s | -54.8°C | 59.3% | 235.3hPa | 2.5V | 18:12:15 | 02:11:23 | 00:00:00 | |
| SONDE2-12 | 2026-08-31 06:21:08 | 52.70780 | 15.70887 | 64° | 153km/h | 11008m | -2.6m/s | -54.8°C | 67.7% | 235.2hPa | 2.6V | 00:00:00 | 00:00:00 | 00:00:00 | |
| AA1-15 | 2026-08-31 06:20:57 | 52.70620 | 15.70358 | 60° | 139km/h | 11031m | -2.3m/s | -55.1°C | 59.7% | 234.4hPa | 2.6V | 18:12:15 | 02:11:12 | 00:00:00 | |
| AA1-15 | 2026-08-31 06:20:46 | 52.70405 | 15.69778 | 62° | 155km/h | 11058m | -1.8m/s | -55.3°C | 59.6% | 233.4hPa | 2.6V | 18:12:15 | 02:11:01 | 00:00:00 | |
| SONDE2-12 | 2026-08-31 06:20:37 | 52.70249 | 15.69230 | 63° | 133km/h | 11079m | -2.5m/s | -55.6°C | 64.7% | 232.6hPa | 2.6V | 00:00:00 | 00:00:00 | 00:00:00 | |
| AA1-15 | 2026-08-31 06:20:35 | 52.70233 | 15.69180 | 63° | 135km/h | 11081m | -2.5m/s | -55.6°C | 59.4% | 232.5hPa | 2.6V | 18:12:15 | 02:10:50 | 00:00:00 | |
| AA1-15 | 2026-08-31 06:20:24 | 52.70034 | 15.68615 | 62° | 150km/h | 11106m | -2.1m/s | -55.8°C | 59.5% | 231.6hPa | 2.6V | 18:12:15 | 02:10:39 | 00:00:00 | |
| AA1-15 | 2026-08-31 06:20:13 | 52.69867 | 15.68008 | 67° | 133km/h | 11131m | -1.9m/s | -56°C | 61% | 230.7hPa | 2.6V | 18:12:15 | 02:10:28 | 00:00:00 | |
| SONDE2-12 | 2026-08-31 06:20:05 | 52.69748 | 15.67616 | 59° | 135km/h | 11149m | -2.3m/s | -56.1°C | 68.1% | 230.0hPa | 2.6V | 00:00:00 | 00:00:00 | 00:00:00 | |
| AA1-15 | 2026-08-31 06:20:02 | 52.69694 | 15.67464 | 61° | 146km/h | 11156m | -2.1m/s | -56°C | 60.9% | 229.8hPa | 2.6V | 18:12:15 | 02:10:17 | 00:00:00 | |
| AA1-15 | 2026-08-31 06:19:52 | 52.69538 | 15.66920 | 67° | 139km/h | 11176m | -2.1m/s | -56.2°C | 62.1% | 229.1hPa | 2.5V | 18:12:15 | 02:10:07 | 00:00:00 | |
| S3001 | 2026-08-31 06:19:51 | 52.69525 | 15.66867 | 67° | 137km/h | 11178m | -2.4m/s | -56.2°C | 56.1% | 229.0hPa | 2.5V | 00:00:00 | 00:00:00 | 00:00:00 | |
| EDDB2-11 | 2026-08-31 06:19:50 | 52.69512 | 15.66815 | 67° | 135km/h | 11180m | -2.3m/s | -56.2°C | 55.6% | 228.9hPa | 2.5V | 00:00:00 | 00:00:00 | 00:00:00 | |
| AA1-15 | 2026-08-31 06:19:41 | 52.69390 | 15.66375 | 61° | 131km/h | 11199m | -2.1m/s | -56.4°C | 60.1% | 228.2hPa | 2.5V | 18:12:15 | 02:09:56 | 00:00:00 | |
| DB0DAN | 2026-08-31 06:19:40 | 52.69374 | 15.66327 | 61° | 128km/h | 11201m | -2m/s | -56.4°C | 54% | 228.12hPa | 2.6V | 00:00:00 | 00:00:00 | 00:00:00 | |
| SONDE2-12 | 2026-08-31 06:19:34 | 52.69271 | 15.66014 | 63° | 144km/h | 11213m | -1.7m/s | -56.5°C | 68.4% | 227.7hPa | 2.5V | 00:00:00 | 00:00:00 | 00:00:00 | |
| AA1-15 | 2026-08-31 06:19:30 | 52.69210 | 15.65794 | 68° | 142km/h | 11221m | -1.9m/s | -56.6°C | 58.4% | 227.4hPa | 2.5V | 18:12:15 | 02:09:45 | 00:00:00 | |
| KRY50SP-1 | 2026-08-31 06:19:28 | 52.69197 | 15.65740 | 69° | 139km/h | 11222m | -1.9m/s | -56.6°C | 53.5% | 227.4hPa | 2.6V | 00:00:00 | 00:00:00 | 00:00:00 | |
| SP6BVK | 2026-08-31 06:19:27 | 52.69184 | 15.65686 | 69° | 139km/h | 11224m | -1.9m/s | -56.5°C | 53.1% | 227.3hPa | 2.6V | 00:00:00 | 00:00:00 | 00:00:00 | |
| SP3BTT-10 | 2026-08-31 06:19:26 | 52.69158 | 15.65580 | 69° | 130km/h | 11228m | -2.2m/s | -56.5°C | 71.6% | 227.1hPa | 2.6V | 00:00:00 | 00:00:00 | 00:00:00 | |
| AA1-15 | 2026-08-31 06:19:06 | 52.68858 | 15.64581 | 67° | 137km/h | 11270m | -1.6m/s | -56.5°C | 53.4% | 225.8hPa | 2.6V | 18:12:15 | 02:09:21 | 00:00:00 | |
| AA1-15 | 2026-08-31 06:18:45 | 52.68546 | 15.63537 | 66° | 144km/h | 11314m | -2.1m/s | -56.7°C | 51.3% | 224.3hPa | 2.5V | 18:12:15 | 02:09:00 | 00:00:00 | |
| AA1-15 | 2026-08-31 06:18:35 | 52.68415 | 15.63018 | 65° | 128km/h | 11334m | -2.1m/s | -56.6°C | 50.2% | 223.6hPa | 2.6V | 18:12:15 | 02:08:50 | 00:00:00 | |
| SONDE2-12 | 2026-08-31 06:18:32 | 52.68356 | 15.62830 | 60° | 130km/h | 11343m | -2.0m/s | -56.6°C | 56.4% | 223.2hPa | 2.6V | 00:00:00 | 00:00:00 | 00:00:00 | |
| AA1-15 | 2026-08-31 06:18:23 | 52.68218 | 15.62427 | 63° | 146km/h | 11360m | -1.9m/s | -56.7°C | 49.7% | 222.6hPa | 2.6V | 18:12:15 | 02:08:38 | 00:00:00 | |
| KRY50SP-1 | 2026-08-31 06:18:22 | 52.68217 | 15.62427 | 64° | 146km/h | 11360m | -1.9m/s | -56.7°C | 43.0% | 222.6hPa | 2.5V | 00:00:00 | 00:00:00 | 00:00:00 | |
| S3001 | 2026-08-31 06:18:18 | 52.68141 | 15.62152 | 67° | 141km/h | 11370m | -1.8m/s | -56.7°C | 42.6% | 222.3hPa | 2.5V | 00:00:00 | 00:00:00 | 00:00:00 | |
| KRY50SP-1 | 2026-08-31 06:18:16 | 52.68127 | 15.62098 | 69° | 141km/h | 11372m | -2.1m/s | -56.7°C | 42.6% | 222.2hPa | 2.5V | 00:00:00 | 00:00:00 | 00:00:00 | |
| 13BRC | 2026-08-31 06:18:13 | 52.68090 | 15.61940 | 69° | 131km/h | 11378m | -2.0m/s | -56.7°C | 43.6% | 222.0hPa | 2.5V | 00:00:00 | 00:00:00 | 00:00:00 | |
| 3Z3Z-3 | 2026-08-31 06:18:12 | 52.68077 | 15.61890 | 69° | 128km/h | 11381m | -2.1m/s | -56.7°C | 43.9% | 222.0hPa | 2.5V | 00:00:00 | 00:00:00 | 00:00:00 | |
| DB0DAN | 2026-08-31 06:18:10 | 52.68038 | 15.61746 | 63° | 120km/h | 11387m | -2.1m/s | -56.6°C | 42.7% | 221.71hPa | 2.5V | 00:00:00 | 00:00:00 | 00:00:00 | |
| AA1-15 | 2026-08-31 06:17:51 | 52.67744 | 15.60761 | 66° | 130km/h | 11428m | -1.7m/s | -56.7°C | 48% | 220.3hPa | 2.5V | 18:12:15 | 02:08:06 | 00:00:00 | |
| S3001 | 2026-08-31 06:17:47 | 52.67685 | 15.60566 | 61° | 131km/h | 11437m | -2.3m/s | -56.8°C | 42.6% | 220.0hPa | 2.6V | 00:00:00 | 00:00:00 | 00:00:00 | |
| EDDB2-11 | 2026-08-31 06:17:46 | 52.67653 | 15.60469 | 60° | 133km/h | 11441m | -1.8m/s | -56.8°C | 42.3% | 219.9hPa | 2.6V | 00:00:00 | 00:00:00 | 00:00:00 | |
| SP6BVK | 2026-08-31 06:17:45 | 52.67669 | 15.60517 | 62° | 133km/h | 11439m | -2.0m/s | -56.8°C | 42.6% | 220.0hPa | 2.6V | 00:00:00 | 00:00:00 | 00:00:00 | |
| KRY50SP-1 | 2026-08-31 06:17:42 | 52.67619 | 15.60370 | 61° | 137km/h | 11445m | -1.8m/s | -56.9°C | 41.9% | 219.8hPa | 2.6V | 00:00:00 | 00:00:00 | 00:00:00 | |
| DB0DAN | 2026-08-31 06:17:40 | 52.67564 | 15.60218 | 60° | 137km/h | 11451m | -1.9m/s | -57°C | 41.7% | 219.49hPa | 2.6V | 00:00:00 | 00:00:00 | 00:00:00 | |
| AA1-15 | 2026-08-31 06:17:37 | 52.67510 | 15.60059 | 62° | 148km/h | 11458m | -2.2m/s | -57°C | 47.9% | 219.3hPa | 2.5V | 18:12:15 | 02:07:52 | 00:00:00 | |
| AA1-15 | 2026-08-31 06:17:26 | 52.67350 | 15.59456 | 68° | 131km/h | 11481m | -2.2m/s | -57.1°C | 46.3% | 218.5hPa | 2.6V | 18:12:15 | 02:07:41 | 00:00:00 | |
| AA1-15 | 2026-08-31 06:17:15 | 52.67178 | 15.58907 | 62° | 148km/h | 11504m | -2.1m/s | -57.2°C | 45.4% | 217.7hPa | 2.6V | 18:12:15 | 02:07:30 | 00:00:00 | |
| KRY50SP-1 | 2026-08-31 06:17:14 | 52.67178 | 15.58907 | 63° | 148km/h | 11504m | -2.1m/s | -57.2°C | 40.7% | 217.7hPa | 2.5V | 00:00:00 | 00:00:00 | 00:00:00 | |
| SP3BTT-10 | 2026-08-31 06:17:11 | 52.67112 | 15.58684 | 67° | 146km/h | 11512m | -2.0m/s | -57.2°C | 54.1% | 217.4hPa | 2.5V | 00:00:00 | 00:00:00 | 00:00:00 | |
| KRY50SP-1 | 2026-08-31 06:17:09 | 52.67097 | 15.58627 | 68° | 151km/h | 11514m | -2.0m/s | -57.3°C | 37.5% | 217.3hPa | 2.5V | 00:00:00 | 00:00:00 | 00:00:00 | |
| SP3WXH-11 | 2026-08-31 06:17:06 | 52.67043 | 15.58398 | 69° | 141km/h | 11523m | -2.3m/s | -57.2°C | 36.7% | 217.0hPa | 2.5V | 00:00:00 | 00:00:00 | 00:00:00 | |
| 3Z3Z-3 | 2026-08-31 06:17:05 | 52.67042 | 15.58398 | 71° | 142km/h | 11523m | -2.3m/s | -57.2°C | 36.8% | 217.0hPa | 2.5V | 00:00:00 | 00:00:00 | 00:00:00 | |
| KRY50SP-1 | 2026-08-31 06:17:03 | 52.67018 | 15.58290 | 70° | 137km/h | 11528m | -2.1m/s | -57.1°C | 36.9% | 216.9hPa | 2.5V | 00:00:00 | 00:00:00 | 00:00:00 | |
| EDDB2-12 | 2026-08-31 06:16:56 | 52.66897 | 15.57886 | 61° | 139km/h | 11543m | -1.9m/s | -57.1°C | 35.6% | 216.3hPa | 2.5V | 00:00:00 | 00:00:00 | 00:00:00 | |
| SONDE2-11 | 2026-08-31 06:16:50 | 52.66797 | 15.57562 | 65° | 148km/h | 11556m | -2.2m/s | -56.9°C | 35.4% | 215.9hPa | 2.5V | 00:00:00 | 00:00:00 | 00:00:00 | |
| S3001 | 2026-08-31 06:16:45 | 52.66726 | 15.57279 | 69° | 146km/h | 11566m | -1.9m/s | -56.9°C | 34.1% | 215.6hPa | 2.5V | 00:00:00 | 00:00:00 | 00:00:00 | |
| AA1-15 | 2026-08-31 06:16:44 | 52.66713 | 15.57223 | 70° | 144km/h | 11568m | -2.1m/s | -56.9°C | 39.4% | 215.5hPa | 2.5V | 18:12:15 | 02:06:59 | 00:00:00 | |
| AA1-15 | 2026-08-31 06:16:33 | 52.66573 | 15.56644 | 64° | 133km/h | 11592m | -2.2m/s | -56.8°C | 36.9% | 214.7hPa | 2.6V | 18:12:15 | 02:06:48 | 00:00:00 | |
| SONDE2-12 | 2026-08-31 06:16:28 | 52.66443 | 15.56223 | 65° | 150km/h | 11609m | -2.3m/s | -56.7°C | 37.8% | 214.2hPa | 2.6V | 00:00:00 | 00:00:00 | 00:00:00 | |
| AA1-15 | 2026-08-31 06:16:18 | 52.66348 | 15.55822 | 71° | 141km/h | 11624m | -2.1m/s | -56.5°C | 32.7% | 213.6hPa | 2.6V | 18:12:15 | 02:06:33 | 00:00:00 | |
| AM1SDL-15 | 2026-08-31 06:16:17 | 52.66337 | 15.55768 | 71° | 137km/h | 11627m | -1.9m/s | 0°C | 0% | 0hPa | 2.5V | 00:00:00 | 02:06:32 | 08:30:00 | |
| S3001 | 2026-08-31 06:16:14 | 52.66301 | 15.55610 | 68° | 133km/h | 11633m | -2.3m/s | -56.3°C | 25.8% | 213.3hPa | 2.5V | 00:00:00 | 00:00:00 | 00:00:00 | |
| KRY50SP-1 | 2026-08-31 06:16:12 | 52.66289 | 15.55559 | 68° | 133km/h | 11635m | -2.4m/s | -56.2°C | 25.8% | 213.2hPa | 2.5V | 00:00:00 | 00:00:00 | 00:00:00 | |
| DB0DAN | 2026-08-31 06:16:10 | 52.66246 | 15.55406 | 64° | 131km/h | 11642m | -1.9m/s | -56.2°C | 26.1% | 213.03hPa | 2.5V | 00:00:00 | 00:00:00 | 00:00:00 | |
| AA1-15 | 2026-08-31 06:16:07 | 52.66200 | 15.55248 | 65° | 144km/h | 11648m | -2.1m/s | -56.2°C | 30.8% | 212.8hPa | 2.5V | 18:12:15 | 02:06:22 | 00:00:00 | |
| SONDE2-12 | 2026-08-31 06:15:57 | 52.66050 | 15.54672 | 70° | 150km/h | 11670m | -2.0m/s | -56.1°C | 29.0% | 212.0hPa | 2.5V | 00:00:00 | 00:00:00 | 00:00:00 | |
| AA1-15 | 2026-08-31 06:15:56 | 52.66037 | 15.54613 | 71° | 148km/h | 11672m | -2.1m/s | -56.1°C | 28.7% | 212hPa | 2.5V | 18:12:15 | 02:06:11 | 00:00:00 | |
| DB0DAN | 2026-08-31 06:15:55 | 52.66025 | 15.54556 | 71° | 139km/h | 11674m | -2m/s | -56.2°C | 22.7% | 211.89hPa | 2.5V | 00:00:00 | 00:00:00 | 00:00:00 | |
| AA1-15 | 2026-08-31 06:15:45 | 52.65901 | 15.54027 | 65° | 141km/h | 11697m | -2m/s | -56°C | 26.6% | 211.1hPa | 2.6V | 18:12:15 | 02:06:00 | 00:00:00 | |
| AA1-15 | 2026-08-31 06:15:34 | 52.65742 | 15.53397 | 72° | 150km/h | 11723m | -2.7m/s | -55.8°C | 25.8% | 210.3hPa | 2.5V | 18:12:15 | 02:05:49 | 00:00:00 | |
| SONDE2-12 | 2026-08-31 06:15:26 | 52.65656 | 15.52954 | 69° | 133km/h | 11744m | -2.3m/s | -56.0°C | 23.9% | 209.6hPa | 2.6V | 00:00:00 | 00:00:00 | 00:00:00 | |
| AA1-15 | 2026-08-31 06:15:23 | 52.65618 | 15.52798 | 67° | 137km/h | 11751m | -2.3m/s | -56°C | 24% | 209.4hPa | 2.6V | 18:12:15 | 02:05:38 | 00:00:00 | |
| AA1-15 | 2026-08-31 06:15:12 | 52.65460 | 15.52172 | 71° | 153km/h | 11776m | -2.4m/s | -56°C | 22% | 208.6hPa | 2.5V | 18:12:15 | 02:05:27 | 00:00:00 | |
| DB0DAN | 2026-08-31 06:15:10 | 52.65435 | 15.52053 | 72° | 146km/h | 11781m | -2.4m/s | -56°C | 17.2% | 208.43hPa | 2.6V | 00:00:00 | 00:00:00 | 00:00:00 | |
| 3Z3Z-3 | 2026-08-31 06:15:05 | 52.65391 | 15.51814 | 75° | 148km/h | 11791m | -2.5m/s | -55.9°C | 16.3% | 208.1hPa | 2.6V | 00:00:00 | 00:00:00 | 00:00:00 | |
| AM1SDL-15 | 2026-08-31 06:15:01 | 52.65342 | 15.51532 | 73° | 139km/h | 11803m | -2.4m/s | 0°C | 0% | 0hPa | 2.6V | 00:00:00 | 02:05:16 | 00:00:00 | |
| AA1-15 | 2026-08-31 06:15:01 | 52.65342 | 15.51532 | 73° | 135km/h | 11803m | -2.4m/s | -55.8°C | 19.3% | 207.7hPa | 2.6V | 18:12:15 | 02:05:16 | 00:00:00 | |
| KRY50SP-1 | 2026-08-31 06:15:00 | 52.65342 | 15.51532 | 74° | 135km/h | 11803m | -2.4m/s | -55.8°C | 15.1% | 207.7hPa | 2.6V | 00:00:00 | 00:00:00 | 00:00:00 | |
| SP6BVK | 2026-08-31 06:14:59 | 52.65332 | 15.51479 | 73° | 133km/h | 11806m | -2.2m/s | -55.7°C | 14.9% | 207.6hPa | 2.6V | 00:00:00 | 00:00:00 | 00:00:00 | |
| DB0DAN | 2026-08-31 06:14:55 | 52.65271 | 15.51218 | 67° | 131km/h | 11818m | -2.6m/s | -55.7°C | 14.1% | 207.21hPa | 2.6V | 00:00:00 | 00:00:00 | 00:00:00 | |
| AA1-15 | 2026-08-31 06:14:50 | 52.65201 | 15.50941 | 69° | 151km/h | 11831m | -2.3m/s | -55.3°C | 16.3% | 206.8hPa | 2.5V | 18:12:15 | 02:05:05 | 00:00:00 | |
| SONDE2-11 | 2026-08-31 06:14:46 | 52.65149 | 15.50703 | 72° | 153km/h | 11840m | -2.5m/s | -55.0°C | 12.2% | 206.5hPa | 2.5V | 00:00:00 | 00:00:00 | 00:00:00 | |
| 13BRC | 2026-08-31 06:14:45 | 52.65149 | 15.50703 | 74° | 153km/h | 11841m | -2.5m/s | -55.0°C | 12.2% | 206.5hPa | 2.5V | 00:00:00 | 00:00:00 | 00:00:00 | |
| KRY50SP-1 | 2026-08-31 06:14:43 | 52.65127 | 15.50583 | 75° | 148km/h | 11845m | -2.3m/s | -54.9°C | 11.7% | 206.3hPa | 2.5V | 00:00:00 | 00:00:00 | 00:00:00 | |
| 3Z3Z-3 | 2026-08-31 06:14:42 | 52.65117 | 15.50525 | 76° | 146km/h | 11848m | -2.5m/s | -54.9°C | 11.4% | 206.3hPa | 2.5V | 00:00:00 | 00:00:00 | 00:00:00 | |
| DB0DAN | 2026-08-31 06:14:40 | 52.65089 | 15.50356 | 74° | 128km/h | 11855m | -2.2m/s | -54.8°C | 10.9% | 206hPa | 2.5V | 00:00:00 | 00:00:00 | 00:00:00 | |
| AA1-15 | 2026-08-31 06:14:38 | 52.65070 | 15.50249 | 73° | 131km/h | 11860m | -2.7m/s | -54.8°C | 13.6% | 205.8hPa | 2.6V | 18:12:15 | 02:04:53 | 00:00:00 | |
| AA1-15 | 2026-08-31 06:14:27 | 52.64931 | 15.49650 | 69° | 151km/h | 11888m | -2.5m/s | -54.5°C | 11.3% | 204.9hPa | 2.5V | 18:12:15 | 02:04:42 | 00:00:00 | |
| SONDE2-12 | 2026-08-31 06:14:24 | 52.64894 | 15.49471 | 72° | 151km/h | 11896m | -2.8m/s | -54.5°C | 10.6% | 204.7hPa | 2.5V | 00:00:00 | 00:00:00 | 00:00:00 | |
| AA1-15 | 2026-08-31 06:14:16 | 52.64811 | 15.49014 | 74° | 139km/h | 11916m | -2.7m/s | -53.8°C | 9.4% | 204hPa | 2.5V | 18:12:15 | 02:04:31 | 00:00:00 | |
| AA1-15 | 2026-08-31 06:14:05 | 52.64715 | 15.48428 | 74° | 130km/h | 11945m | -3.1m/s | -53.3°C | 8.1% | 203hPa | 2.6V | 18:12:15 | 02:04:20 | 00:00:00 | |
| AA1-15 | 2026-08-31 06:13:54 | 52.64589 | 15.47858 | 72° | 141km/h | 11973m | -2.3m/s | -52.8°C | 7.2% | 202.1hPa | 2.6V | 18:12:15 | 02:04:09 | 00:00:00 | |
| SONDE2-12 | 2026-08-31 06:13:53 | 52.64579 | 15.47802 | 73° | 137km/h | 11975m | -2.5m/s | -52.8°C | 7.2% | 202.1hPa | 2.5V | 00:00:00 | 00:00:00 | 00:00:00 | |
| EDDB2-12 | 2026-08-31 06:13:50 | 52.64551 | 15.47636 | 75° | 135km/h | 11982m | -2.8m/s | -52.6°C | 5.6% | 201.8hPa | 2.5V | 00:00:00 | 00:00:00 | 00:00:00 | |
| AA1-15 | 2026-08-31 06:13:44 | 52.64506 | 15.47309 | 77° | 130km/h | 11998m | -2.5m/s | -52.4°C | 6.7% | 201.3hPa | 2.5V | 18:12:15 | 02:03:59 | 00:00:00 | |
| AA1-15 | 2026-08-31 06:13:33 | 52.64397 | 15.46767 | 68° | 131km/h | 12024m | -2.5m/s | -52.3°C | 6.7% | 200.5hPa | 2.6V | 18:12:15 | 02:03:48 | 00:00:00 | |
| SONDE2-12 | 2026-08-31 06:13:22 | 52.64280 | 15.46159 | 77° | 135km/h | 12051m | -2.6m/s | -52.4°C | 5.9% | 199.6hPa | 2.5V | 00:00:00 | 00:00:00 | 00:00:00 | |
| AA1-15 | 2026-08-31 06:13:22 | 52.64280 | 15.46159 | 78° | 137km/h | 12051m | -2.6m/s | -52.4°C | 6.1% | 199.6hPa | 2.5V | 18:12:15 | 02:03:37 | 00:00:00 | |
| AA1-15 | 2026-08-31 06:13:11 | 52.64184 | 15.45589 | 70° | 133km/h | 12077m | -2.1m/s | -52.3°C | 5.7% | 198.9hPa | 2.5V | 18:12:15 | 02:03:26 | 00:00:00 | |
| DB0DAN | 2026-08-31 06:13:10 | 52.64172 | 15.45537 | 70° | 128km/h | 12080m | -2.3m/s | -52.3°C | 4.7% | 198.78hPa | 2.6V | 00:00:00 | 00:00:00 | 00:00:00 | |
| AA1-15 | 2026-08-31 06:13:00 | 52.64050 | 15.44998 | 72° | 146km/h | 12103m | -2.6m/s | -52°C | 5% | 198hPa | 2.5V | 18:12:15 | 02:03:15 | 00:00:00 | |
| SONDE2-12 | 2026-08-31 06:12:51 | 52.63965 | 15.44479 | 78° | 135km/h | 12124m | -2.7m/s | -51.9°C | 5.2% | 197.3hPa | 2.6V | 00:00:00 | 00:00:00 | 00:00:00 | |
| AA1-15 | 2026-08-31 06:12:49 | 52.63951 | 15.44371 | 78° | 130km/h | 12129m | -2.2m/s | -52°C | 4.8% | 197.2hPa | 2.6V | 18:12:15 | 02:03:04 | 00:00:00 | |
| EDDB2-12 | 2026-08-31 06:12:48 | 52.63944 | 15.44319 | 77° | 124km/h | 12131m | -2.0m/s | -52.0°C | 4.1% | 197.2hPa | 2.5V | 00:00:00 | 00:00:00 | 00:00:00 | |
| AA1-15 | 2026-08-31 06:12:38 | 52.63848 | 15.43831 | 68° | 135km/h | 12155m | -2.5m/s | -51.8°C | 4.3% | 196.4hPa | 2.5V | 18:12:15 | 02:02:53 | 00:00:00 | |
| AA1-15 | 2026-08-31 06:12:27 | 52.63745 | 15.43230 | 77° | 128km/h | 12180m | -2.1m/s | -51.4°C | 4.2% | 195.7hPa | 2.6V | 18:12:15 | 02:02:42 | 00:00:00 | |
| SONDE2-12 | 2026-08-31 06:12:20 | 52.63695 | 15.42884 | 76° | 120km/h | 12196m | -2.2m/s | -51.4°C | 4.7% | 195.2hPa | 2.5V | 00:00:00 | 00:00:00 | 00:00:00 | |
| AA1-15 | 2026-08-31 06:12:16 | 52.63670 | 15.42691 | 79° | 117km/h | 12204m | -2.9m/s | -51.5°C | 4.5% | 194.9hPa | 2.5V | 18:12:15 | 02:02:31 | 00:00:00 | |
| AA1-15 | 2026-08-31 06:12:05 | 52.63585 | 15.42195 | 69° | 115km/h | 12231m | -2.7m/s | -51.6°C | 4.3% | 194.1hPa | 2.5V | 18:12:15 | 02:02:20 | 00:00:00 | |
| EDDB2-11 | 2026-08-31 06:12:05 | 52.63574 | 15.42149 | 68° | 119km/h | 12234m | -2.5m/s | -51.5°C | 3.7% | 194.0hPa | 2.5V | 00:00:00 | 00:00:00 | 00:00:00 | |
| SP3WXH-11 | 2026-08-31 06:11:56 | 52.63496 | 15.41750 | 76° | 124km/h | 12251m | -2.1m/s | -51.2°C | 3.8% | 193.5hPa | 2.5V | 00:00:00 | 00:00:00 | 00:00:00 | |
| DB0DAN | 2026-08-31 06:11:55 | 52.63489 | 15.41700 | 78° | 115km/h | 12254m | -2.2m/s | -51.2°C | 3.9% | 193.43hPa | 2.5V | 00:00:00 | 00:00:00 | 00:00:00 | |
| AA1-15 | 2026-08-31 06:11:54 | 52.63483 | 15.41651 | 78° | 122km/h | 12255m | -2.4m/s | -51.2°C | 4.5% | 193.3hPa | 2.6V | 18:12:15 | 02:02:09 | 00:00:00 | |
| SONDE2-12 | 2026-08-31 06:11:49 | 52.63454 | 15.41419 | 77° | 108km/h | 12267m | -2.5m/s | -51.4°C | 4.7% | 193.0hPa | 2.5V | 00:00:00 | 00:00:00 | 00:00:00 | |
| EDDB2-12 | 2026-08-31 06:11:46 | 52.63435 | 15.41294 | 76° | 100km/h | 12273m | -3.1m/s | -51.5°C | 3.8% | 192.8hPa | 2.5V | 00:00:00 | 00:00:00 | 00:00:00 | |
| AA1-15 | 2026-08-31 06:11:43 | 52.63414 | 15.41173 | 72° | 100km/h | 12281m | -2.8m/s | -51.5°C | 4.5% | 192.6hPa | 2.5V | 18:12:15 | 02:01:58 | 00:00:00 | |
| DB0DAN | 2026-08-31 06:11:40 | 52.63386 | 15.41050 | 68° | 104km/h | 12288m | -2.6m/s | -51.5°C | 3.8% | 192.31hPa | 2.6V | 00:00:00 | 00:00:00 | 00:00:00 | |
| AA1-15 | 2026-08-31 06:11:33 | 52.63309 | 15.40723 | 73° | 128km/h | 12305m | -2.6m/s | -51.5°C | 4.5% | 191.8hPa | 2.6V | 18:12:15 | 02:01:48 | 00:00:00 | |
| AA1-15 | 2026-08-31 06:11:22 | 52.63235 | 15.40215 | 72° | 106km/h | 12332m | -2.5m/s | -51.3°C | 4.5% | 191.1hPa | 2.5V | 18:12:15 | 02:01:37 | 00:00:00 | |
| SONDE2-12 | 2026-08-31 06:11:18 | 52.63197 | 15.40048 | 67° | 113km/h | 12342m | -2.4m/s | -51.2°C | 4.7% | 190.8hPa | 2.5V | 00:00:00 | 00:00:00 | 00:00:00 | |
| AA1-15 | 2026-08-31 06:11:11 | 52.63121 | 15.39712 | 72° | 131km/h | 12361m | -2.9m/s | -51.2°C | 4.1% | 190.2hPa | 2.5V | 18:12:15 | 02:01:26 | 00:00:00 | |
| DB0DAN | 2026-08-31 06:11:10 | 52.63111 | 15.39660 | 73° | 126km/h | 12364m | -2.7m/s | -51.2°C | 3.4% | 190.11hPa | 2.7V | 00:00:00 | 00:00:00 | 00:00:00 | |
| AA1-15 | 2026-08-31 06:11:00 | 52.63044 | 15.39170 | 74° | 106km/h | 12392m | -2.2m/s | -51°C | 3.5% | 189.4hPa | 2.5V | 18:12:15 | 02:01:15 | 00:00:00 | |
| KRY50SP-1 | 2026-08-31 06:10:58 | 52.63036 | 15.39128 | 73° | 106km/h | 12394m | -2.3m/s | -51.0°C | 3.1% | 189.3hPa | 2.5V | 00:00:00 | 00:00:00 | 00:00:00 | |
| 3Z3Z-3 | 2026-08-31 06:10:57 | 52.63027 | 15.39086 | 71° | 108km/h | 12396m | -2.5m/s | -51.0°C | 3.1% | 189.3hPa | 2.5V | 00:00:00 | 00:00:00 | 00:00:00 | |
| DB0DAN | 2026-08-31 06:10:55 | 52.62997 | 15.38957 | 68° | 111km/h | 12404m | -2.5m/s | -51.1°C | 3.1% | 189.02hPa | 2.5V | 00:00:00 | 00:00:00 | 00:00:00 | |
| AA1-15 | 2026-08-31 06:10:49 | 52.62933 | 15.38672 | 73° | 128km/h | 12421m | -2.7m/s | -51.1°C | 3.2% | 188.5hPa | 2.5V | 18:12:15 | 02:01:04 | 00:00:00 | |
| SONDE2-12 | 2026-08-31 06:10:47 | 52.62916 | 15.38570 | 76° | 126km/h | 12427m | -2.8m/s | -51.1°C | 3.7% | 188.4hPa | 2.6V | 00:00:00 | 00:00:00 | 00:00:00 | |
| 3Z3Z-3 | 2026-08-31 06:10:46 | 52.62916 | 15.38570 | 77° | 126km/h | 12427m | -2.8m/s | -51.1°C | 3.1% | 188.4hPa | 2.6V | 00:00:00 | 00:00:00 | 00:00:00 | |
| EDDB2-12 | 2026-08-31 06:10:44 | 52.62890 | 15.38371 | 79° | 119km/h | 12438m | -2.8m/s | -51.1°C | 3.1% | 188.0hPa | 2.6V | 00:00:00 | 00:00:00 | 00:00:00 | |
| DB0DAN | 2026-08-31 06:10:40 | 52.62875 | 15.38228 | 80° | 106km/h | 12446m | -2.8m/s | -51.2°C | 3% | 187.82hPa | 2.6V | 00:00:00 | 00:00:00 | 00:00:00 | |
| AA1-15 | 2026-08-31 06:10:38 | 52.62865 | 15.38138 | 80° | 110km/h | 12451m | -3.2m/s | -51.2°C | 3.1% | 187.6hPa | 2.6V | 18:12:15 | 02:00:53 | 00:00:00 | |
| AA1-15 | 2026-08-31 06:10:27 | 52.62775 | 15.37674 | 72° | 117km/h | 12481m | -2.5m/s | -51°C | 2.9% | 186.8hPa | 2.5V | 18:12:15 | 02:00:42 | 00:00:00 | |
| DB0DAN | 2026-08-31 06:10:25 | 52.62758 | 15.37581 | 74° | 113km/h | 12487m | -2.6m/s | -51°C | 2.9% | 186.63hPa | 2.5V | 00:00:00 | 00:00:00 | 00:00:00 | |
| AA1-15 | 2026-08-31 06:10:16 | 52.62705 | 15.37164 | 79° | 106km/h | 12511m | -2.5m/s | -51°C | 3% | 185.9hPa | 2.6V | 18:12:15 | 02:00:31 | 00:00:00 | |
| 3Z3Z-3 | 2026-08-31 06:10:14 | 52.62700 | 15.37121 | 80° | 102km/h | 12514m | -2.3m/s | -51.0°C | 2.9% | 185.8hPa | 2.6V | 00:00:00 | 00:00:00 | 00:00:00 | |
| KRY50SP-1 | 2026-08-31 06:10:12 | 52.62690 | 15.37040 | 81° | 99km/h | 12518m | -2.7m/s | -51.0°C | 3.0% | 185.7hPa | 2.6V | 00:00:00 | 00:00:00 | 00:00:00 | |
| DB0DAN | 2026-08-31 06:10:10 | 52.62678 | 15.36920 | 81° | 91km/h | 12526m | -3.1m/s | -51.1°C | 2.9% | 185.5hPa | 2.6V | 00:00:00 | 00:00:00 | 00:00:00 | |
| AA1-15 | 2026-08-31 06:10:06 | 52.62661 | 15.36768 | 78° | 91km/h | 12537m | -3m/s | -51°C | 3% | 185.2hPa | 2.6V | 18:12:15 | 02:00:21 | 00:00:00 | |
| 3Z3Z-3 | 2026-08-31 06:10:04 | 52.62656 | 15.36731 | 79° | 89km/h | 12540m | -3.4m/s | -51.0°C | 2.8% | 185.1hPa | 2.5V | 00:00:00 | 00:00:00 | 00:00:00 | |
| KRY50SP-1 | 2026-08-31 06:10:02 | 52.62645 | 15.36658 | 76° | 89km/h | 12546m | -2.4m/s | -50.9°C | 2.8% | 184.9hPa | 2.5V | 00:00:00 | 00:00:00 | 00:00:00 | |
| EDDB2-11 | 2026-08-31 06:10:00 | 52.62626 | 15.36552 | 72° | 88km/h | 12554m | -2.9m/s | -50.8°C | 2.7% | 184.7hPa | 2.5V | 00:00:00 | 00:00:00 | 00:00:00 | |
| S3001 | 2026-08-31 06:09:56 | 52.62595 | 15.36407 | 69° | 95km/h | 12565m | -3.0m/s | -50.0°C | 2.6% | 184.4hPa | 2.5V | 00:00:00 | 00:00:00 | 00:00:00 | |
| DB0DAN | 2026-08-31 06:09:55 | 52.62586 | 15.36370 | 68° | 93km/h | 12568m | -3.3m/s | -50.1°C | 2.6% | 184.27hPa | 2.5V | 00:00:00 | 00:00:00 | 00:00:00 | |
| AA1-15 | 2026-08-31 06:09:54 | 52.62577 | 15.36331 | 70° | 100km/h | 12572m | -3.4m/s | -50.1°C | 2.6% | 184.2hPa | 2.7V | 18:12:15 | 02:00:09 | 00:00:00 | |
| SONDE2-12 | 2026-08-31 06:09:45 | 52.62517 | 15.35957 | 79° | 106km/h | 12597m | -2.8m/s | -50.0°C | 3.2% | 183.6hPa | 2.7V | 00:00:00 | 00:00:00 | 00:00:00 | |
| AA1-15 | 2026-08-31 06:09:43 | 52.62508 | 15.35871 | 81° | 104km/h | 12602m | -2.6m/s | -50.1°C | 2.6% | 183.4hPa | 2.7V | 18:12:15 | 01:59:58 | 00:00:00 | |
| 3Z3Z-3 | 2026-08-31 06:09:42 | 52.62508 | 15.35871 | 82° | 104km/h | 12602m | -2.6m/s | -50.1°C | 2.6% | 183.4hPa | 2.5V | 00:00:00 | 00:00:00 | 00:00:00 | |
| DB0DAN | 2026-08-31 06:09:40 | 52.62496 | 15.35748 | 80° | 91km/h | 12609m | -2.1m/s | -50.1°C | 2.6% | 183.21hPa | 2.5V | 00:00:00 | 00:00:00 | 00:00:00 | |
| AA1-15 | 2026-08-31 06:09:32 | 52.62467 | 15.35462 | 81° | 86km/h | 12631m | -2.3m/s | -50.2°C | 2.6% | 182.6hPa | 2.5V | 18:12:15 | 01:59:47 | 00:00:00 | |
| DL2RXE-15 | 2026-08-31 06:09:30 | 52.62463 | 15.35427 | 82° | 86km/h | 12633m | -2.9m/s | -50.3°C | 2.5% | 182.6hPa | 2.7V | 00:00:00 | 00:00:00 | 00:00:00 | |
| OE3JTB-15 | 2026-08-31 06:09:29 | 52.62456 | 15.35357 | 81° | 78km/h | 12639m | -2.8m/s | -50.3°C | 5.5% | 182.3hPa | 2.7V | 00:00:00 | 01:59:44 | 00:00:00 | |
| DB0DAN | 2026-08-31 06:09:25 | 52.62441 | 15.35217 | 80° | 82km/h | 12651m | -2.9m/s | -50.5°C | 2.6% | 182.09hPa | 2.7V | 00:00:00 | 00:00:00 | 00:00:00 | |
| AA1-15 | 2026-08-31 06:09:22 | 52.62430 | 15.35111 | 80° | 86km/h | 12659m | -2.2m/s | -50.4°C | 2.6% | 181.8hPa | 2.5V | 18:12:15 | 01:59:37 | 00:00:00 | |
| SONDE2-12 | 2026-08-31 06:09:14 | 52.62400 | 15.34835 | 79° | 80km/h | 12678m | -2.6m/s | -50.6°C | 3.2% | 181.3hPa | 2.5V | 00:00:00 | 00:00:00 | 00:00:00 | |
| AA1-15 | 2026-08-31 06:09:11 | 52.62389 | 15.34739 | 79° | 77km/h | 12686m | -2.7m/s | -50.6°C | 2.5% | 181.1hPa | 2.5V | 18:12:15 | 01:59:26 | 00:00:00 | |
| AA1-15 | 2026-08-31 06:09:00 | 52.62322 | 15.34409 | 66° | 84km/h | 12715m | -2.5m/s | -50.4°C | 2.2% | 180.3hPa | 2.7V | 18:12:15 | 01:59:15 | 00:00:00 | |
| AA1-15 | 2026-08-31 06:08:49 | 52.62252 | 15.34024 | 79° | 80km/h | 12743m | -2.2m/s | -50.4°C | 2.2% | 179.6hPa | 2.7V | 18:12:15 | 01:59:04 | 00:00:00 | |
| SONDE2-12 | 2026-08-31 06:08:43 | 52.62229 | 15.33837 | 77° | 71km/h | 12757m | -2.1m/s | -50.5°C | 3.0% | 179.2hPa | 2.5V | 00:00:00 | 00:00:00 | 00:00:00 | |
| DB0DAN | 2026-08-31 06:08:40 | 52.62217 | 15.33751 | 76° | 66km/h | 12763m | -2.5m/s | -50.6°C | 2.4% | 178.99hPa | 2.5V | 00:00:00 | 00:00:00 | 00:00:00 | |
| AA1-15 | 2026-08-31 06:08:38 | 52.62207 | 15.33696 | 72° | 68km/h | 12768m | -2.5m/s | -50.6°C | 2.3% | 178.8hPa | 2.7V | 18:12:15 | 01:58:53 | 00:00:00 | |
| AA1-15 | 2026-08-31 06:08:27 | 52.62120 | 15.33386 | 67° | 86km/h | 12796m | -1.8m/s | -50.7°C | 2.2% | 178.1hPa | 2.7V | 18:12:15 | 01:58:42 | 00:00:00 | |
| DB0DAN | 2026-08-31 06:08:25 | 52.62105 | 15.33320 | 71° | 80km/h | 12800m | -1.9m/s | -50.8°C | 2.4% | 177.99hPa | 2.5V | 00:00:00 | 00:00:00 | 00:00:00 | |
| AA1-15 | 2026-08-31 06:08:16 | 52.62059 | 15.33048 | 74° | 69km/h | 12820m | -2.4m/s | -51°C | 2.3% | 177.4hPa | 2.5V | 18:12:15 | 01:58:31 | 00:00:00 | |
| SONDE2-12 | 2026-08-31 06:08:12 | 52.62034 | 15.32916 | 72° | 64km/h | 12833m | -2.5m/s | -51.0°C | 2.9% | 177.1hPa | 2.5V | 00:00:00 | 00:00:00 | 00:00:00 | |
| DB0DAN | 2026-08-31 06:08:10 | 52.62029 | 15.32890 | 72° | 60km/h | 12835m | -2.1m/s | -51°C | 2.4% | 177.03hPa | 2.5V | 00:00:00 | 00:00:00 | 00:00:00 | |
| AA1-15 | 2026-08-31 06:08:05 | 52.62003 | 15.32771 | 65° | 60km/h | 12848m | -2.5m/s | -51°C | 2.2% | 176.7hPa | 2.5V | 18:12:15 | 01:58:20 | 00:00:00 | |
| SONDE2-11 | 2026-08-31 06:08:03 | 52.61988 | 15.32725 | 60° | 64km/h | 12853m | -2.3m/s | -51.0°C | 2.3% | 176.5hPa | 2.5V | 00:00:00 | 00:00:00 | 00:00:00 | |
| KRY50SP-1 | 2026-08-31 06:08:02 | 52.61988 | 15.32725 | 61° | 64km/h | 12853m | -2.3m/s | -51.0°C | 2.3% | 176.5hPa | 2.5V | 00:00:00 | 00:00:00 | 00:00:00 | |
| EDDB2-11 | 2026-08-31 06:07:56 | 52.61921 | 15.32541 | 62° | 80km/h | 12869m | -2.6m/s | -51.1°C | 2.3% | 176.1hPa | 2.5V | 00:00:00 | 00:00:00 | 00:00:00 | |
| DB0DAN | 2026-08-31 06:07:55 | 52.61911 | 15.32511 | 65° | 80km/h | 12871m | -2.3m/s | -51.1°C | 2.3% | 176.03hPa | 2.5V | 00:00:00 | 00:00:00 | 00:00:00 | |
| AA1-15 | 2026-08-31 06:07:54 | 52.61903 | 15.32479 | 67° | 84km/h | 12874m | -2.5m/s | -51.1°C | 2.1% | 176hPa | 2.5V | 18:12:15 | 01:58:09 | 00:00:00 | |
| S3001 | 2026-08-31 06:07:52 | 52.61887 | 15.32415 | 71° | 80km/h | 12879m | -2.3m/s | -51.1°C | 2.3% | 175.9hPa | 2.5V | 00:00:00 | 00:00:00 | 00:00:00 | |
| SP3WXH-11 | 2026-08-31 06:07:48 | 52.61863 | 15.32291 | 72° | 71km/h | 12889m | -2.1m/s | -51.2°C | 2.3% | 175.6hPa | 2.5V | 00:00:00 | 00:00:00 | 00:00:00 | |
| AA1-15 | 2026-08-31 06:07:43 | 52.61833 | 15.32161 | 64° | 66km/h | 12902m | -2.8m/s | -51.3°C | 2% | 175.3hPa | 2.5V | 18:12:15 | 01:57:58 | 00:00:00 | |
| SONDE2-12 | 2026-08-31 06:07:41 | 52.61811 | 15.32089 | 61° | 64km/h | 12910m | -2.6m/s | -51.3°C | 2.8% | 175.0hPa | 2.7V | 00:00:00 | 00:00:00 | 00:00:00 | |
| DB0DAN | 2026-08-31 06:07:40 | 52.61811 | 15.32089 | 62° | 62km/h | 12910m | -2.6m/s | -51.3°C | 2.3% | 175.02hPa | 2.7V | 00:00:00 | 00:00:00 | 00:00:00 | |
| AA1-15 | 2026-08-31 06:07:32 | 52.61740 | 15.31895 | 57° | 69km/h | 12930m | -2.5m/s | -51.2°C | 2.1% | 174.5hPa | 2.5V | 18:12:15 | 01:57:47 | 00:00:00 | |
| SONDE2-11 | 2026-08-31 06:07:32 | 52.61731 | 15.31871 | 54° | 69km/h | 12933m | -2.4m/s | -51.2°C | 2.3% | 174.4hPa | 2.5V | 00:00:00 | 00:00:00 | 00:00:00 | |
| KRY50SP-1 | 2026-08-31 06:07:29 | 52.61720 | 15.31847 | 56° | 69km/h | 12935m | -2.6m/s | -51.2°C | 2.3% | 174.3hPa | 2.5V | 00:00:00 | 00:00:00 | 00:00:00 | |
| DB0NH | 2026-08-31 06:07:28 | 52.61699 | 15.31800 | 54° | 75km/h | 12941m | -2.5m/s | -51.1°C | 5.4% | 174.2hPa | 2.5V | 00:00:00 | 01:57:43 | 00:00:00 | |
| DL2RXE-15 | 2026-08-31 06:07:27 | 52.61699 | 15.31800 | 54° | 71km/h | 12941m | -2.6m/s | -51.2°C | 2.3% | 174.2hPa | 2.5V | 00:00:00 | 00:00:00 | 00:00:00 | |
| DB0DAN | 2026-08-31 06:07:25 | 52.61665 | 15.31728 | 50° | 73km/h | 12949m | -2.4m/s | -51.2°C | 2.2% | 173.96hPa | 2.5V | 00:00:00 | 00:00:00 | 00:00:00 | |
| AA1-15 | 2026-08-31 06:07:21 | 52.61614 | 15.31622 | 55° | 84km/h | 12960m | -2.4m/s | -51.3°C | 2% | 173.7hPa | 2.7V | 18:12:15 | 01:57:36 | 00:00:00 | |
| AA1-15 | 2026-08-31 06:07:11 | 52.61518 | 15.31333 | 62° | 71km/h | 12986m | -2.4m/s | -51.4°C | 2.2% | 173.1hPa | 2.5V | 18:12:15 | 01:57:26 | 00:00:00 | |
| DB0DAN | 2026-08-31 06:07:10 | 52.61509 | 15.31307 | 60° | 68km/h | 12989m | -2.2m/s | -51.4°C | 2.3% | 172.92hPa | 2.5V | 00:00:00 | 00:00:00 | 00:00:00 | |
| SONDE2-12 | 2026-08-31 06:07:10 | 52.61500 | 15.31282 | 59° | 69km/h | 12991m | -2.5m/s | -51.5°C | 2.8% | 172.9hPa | 2.5V | 00:00:00 | 00:00:00 | 00:00:00 | |
| AA1-15 | 2026-08-31 06:07:00 | 52.61421 | 15.31060 | 58° | 66km/h | 13015m | -2.6m/s | -51.6°C | 2.1% | 172.2hPa | 2.5V | 18:12:15 | 01:57:15 | 00:00:00 | |
| DB0NH | 2026-08-31 06:06:58 | 52.61403 | 15.31013 | 56° | 78km/h | 13020m | -2.6m/s | -51.5°C | 5.5% | 172.1hPa | 2.5V | 00:00:00 | 01:57:13 | 00:00:00 | |
| DB0DAN | 2026-08-31 06:06:55 | 52.61373 | 15.30942 | 53° | 68km/h | 13028m | -2.7m/s | -51.6°C | 2.3% | 171.87hPa | 2.7V | 00:00:00 | 00:00:00 | 00:00:00 | |
| AA1-15 | 2026-08-31 06:06:49 | 52.61301 | 15.30801 | 49° | 75km/h | 13044m | -2.9m/s | -51.5°C | 2.2% | 171.5hPa | 2.7V | 18:12:15 | 01:57:04 | 00:00:00 | |
| SP3WXH-11 | 2026-08-31 06:06:46 | 52.61248 | 15.30710 | 44° | 77km/h | 13055m | -2.8m/s | -51.6°C | 2.3% | 171.2hPa | 2.5V | 00:00:00 | 00:00:00 | 00:00:00 | |
| SP6BVK | 2026-08-31 06:06:44 | 52.61248 | 15.30710 | 46° | 78km/h | 13055m | -2.8m/s | -51.6°C | 2.3% | 171.2hPa | 2.5V | 00:00:00 | 00:00:00 | 00:00:00 | |
| KRY50SP-1 | 2026-08-31 06:06:43 | 52.61234 | 15.30687 | 46° | 78km/h | 13059m | -3.1m/s | -51.7°C | 2.2% | 171.1hPa | 2.5V | 00:00:00 | 00:00:00 | 00:00:00 | |
| 13BRC | 2026-08-31 06:06:42 | 52.61220 | 15.30664 | 45° | 78km/h | 13062m | -3.1m/s | -51.7°C | 2.3% | 171.0hPa | 2.5V | 00:00:00 | 00:00:00 | 00:00:00 | |
| DB0DAN | 2026-08-31 06:06:40 | 52.61176 | 15.30590 | 48° | 82km/h | 13070m | -2.3m/s | -51.8°C | 2.3% | 170.82hPa | 2.5V | 00:00:00 | 00:00:00 | 00:00:00 | |
| SONDE2-12 | 2026-08-31 06:06:39 | 52.61148 | 15.30533 | 53° | 88km/h | 13075m | -2.5m/s | -51.8°C | 2.8% | 170.7hPa | 2.5V | 00:00:00 | 00:00:00 | 00:00:00 | |
| AA1-15 | 2026-08-31 06:06:38 | 52.61148 | 15.30533 | 53° | 89km/h | 13074m | -2.5m/s | -51.8°C | 2.2% | 170.7hPa | 2.5V | 18:12:15 | 01:56:53 | 00:00:00 | |
| AA1-15 | 2026-08-31 06:06:27 | 52.61024 | 15.30232 | 50° | 71km/h | 13104m | -2.6m/s | -51.9°C | 2.2% | 169.9hPa | 2.5V | 18:12:15 | 01:56:42 | 00:00:00 | |
| DB0DAN | 2026-08-31 06:06:25 | 52.61000 | 15.30187 | 50° | 68km/h | 13110m | -3.1m/s | -52°C | 2.3% | 169.75hPa | 2.7V | 00:00:00 | 00:00:00 | 00:00:00 | |
| AA1-15 | 2026-08-31 06:06:16 | 52.60880 | 15.29985 | 44° | 78km/h | 13134m | -3m/s | -52.2°C | 2.4% | 169.1hPa | 2.5V | 18:12:15 | 01:56:31 | 00:00:00 | |
| SONDE2-12 | 2026-08-31 06:06:08 | 52.60736 | 15.29777 | 42° | 91km/h | 13160m | -2.9m/s | -52.4°C | 2.9% | 168.5hPa | 2.5V | 00:00:00 | 00:00:00 | 00:00:00 | |
| AA1-15 | 2026-08-31 06:06:05 | 52.60702 | 15.29723 | 44° | 93km/h | 13166m | -2.5m/s | -52.4°C | 2.3% | 168.3hPa | 2.5V | 18:12:15 | 01:56:20 | 00:00:00 | |
| AA1-15 | 2026-08-31 06:05:54 | 52.60562 | 15.29412 | 53° | 73km/h | 13194m | -2.5m/s | -52.6°C | 2.3% | 167.5hPa | 2.7V | 18:12:15 | 01:56:09 | 00:00:00 | |
| EDDB2-11 | 2026-08-31 06:05:52 | 52.60539 | 15.29366 | 47° | 69km/h | 13200m | -2.5m/s | -52.6°C | 2.3% | 167.3hPa | 2.7V | 00:00:00 | 00:00:00 | 00:00:00 | |
| S3001 | 2026-08-31 06:05:48 | 52.60485 | 15.29280 | 41° | 82km/h | 13211m | -2.3m/s | -52.6°C | 2.4% | 167.1hPa | 2.7V | 00:00:00 | 00:00:00 | 00:00:00 | |
| AA1-15 | 2026-08-31 06:05:43 | 52.60404 | 15.29155 | 47° | 93km/h | 13223m | -2.9m/s | -52.7°C | 2.2% | 166.7hPa | 2.7V | 18:12:15 | 01:55:58 | 00:00:00 | |
| 13BRC | 2026-08-31 06:05:42 | 52.60404 | 15.29155 | 48° | 93km/h | 13224m | -2.9m/s | -52.7°C | 2.4% | 166.7hPa | 2.5V | 00:00:00 | 00:00:00 | 00:00:00 | |
| DB0DAN | 2026-08-31 06:05:40 | 52.60358 | 15.29069 | 51° | 89km/h | 13231m | -2.7m/s | -52.5°C | 2.3% | 166.53hPa | 2.5V | 00:00:00 | 00:00:00 | 00:00:00 | |
| SONDE2-12 | 2026-08-31 06:05:36 | 52.60303 | 15.28949 | 54° | 88km/h | 13242m | -2.7m/s | -52.2°C | 2.7% | 166.3hPa | 2.5V | 00:00:00 | 00:00:00 | 00:00:00 | |
| AA1-15 | 2026-08-31 06:05:32 | 52.60254 | 15.28827 | 59° | 88km/h | 13253m | -2.6m/s | -52.1°C | 1.9% | 165.9hPa | 2.5V | 18:12:15 | 01:55:47 | 00:00:00 | |
| KRY50SP-1 | 2026-08-31 06:05:30 | 52.60243 | 15.28797 | 60° | 84km/h | 13256m | -2.7m/s | -52.1°C | 2.1% | 165.9hPa | 2.7V | 00:00:00 | 00:00:00 | 00:00:00 | |
| DB0NH | 2026-08-31 06:05:28 | 52.60210 | 15.28709 | 59° | 86km/h | 13263m | -2.4m/s | -52.0°C | 5.3% | 165.6hPa | 2.7V | 00:00:00 | 01:55:43 | 00:00:00 | |
| DB0DAN | 2026-08-31 06:05:25 | 52.60178 | 15.28628 | 56° | 73km/h | 13270m | -2.6m/s | -52.1°C | 2.1% | 165.48hPa | 2.5V | 00:00:00 | 00:00:00 | 00:00:00 | |
| AA1-15 | 2026-08-31 06:05:21 | 52.60132 | 15.28529 | 50° | 77km/h | 13281m | -2.7m/s | -52.2°C | 1.9% | 165.2hPa | 2.5V | 18:12:15 | 01:55:36 | 00:00:00 | |
| EDDB2-11 | 2026-08-31 06:05:21 | 52.60132 | 15.28529 | 49° | 75km/h | 13281m | -2.7m/s | -52.2°C | 2.2% | 165.2hPa | 2.7V | 00:00:00 | 00:00:00 | 00:00:00 | |
| S3001 | 2026-08-31 06:05:17 | 52.60064 | 15.28410 | 44° | 80km/h | 13293m | -2.4m/s | -52.1°C | 2.2% | 164.9hPa | 2.7V | 00:00:00 | 00:00:00 | 00:00:00 | |
| KRY50SP-1 | 2026-08-31 06:05:14 | 52.60049 | 15.28387 | 45° | 84km/h | 13296m | -2.7m/s | -52.0°C | 2.1% | 164.8hPa | 2.7V | 00:00:00 | 00:00:00 | 00:00:00 | |
| DB0DAN | 2026-08-31 06:05:10 | 52.59970 | 15.28256 | 48° | 89km/h | 13309m | -2.6m/s | -51.8°C | 2.1% | 164.51hPa | 2.7V | 00:00:00 | 00:00:00 | 00:00:00 | |
| AA1-15 | 2026-08-31 06:05:10 | 52.59970 | 15.28256 | 48° | 93km/h | 13309m | -2.6m/s | -51.8°C | 1.8% | 164.5hPa | 2.7V | 18:12:15 | 01:55:25 | 00:00:00 | |
| SONDE2-12 | 2026-08-31 06:05:06 | 52.59895 | 15.28099 | 55° | 95km/h | 13323m | -2.6m/s | -51.5°C | 2.5% | 164.1hPa | 2.5V | 00:00:00 | 00:00:00 | 00:00:00 | |
| AA1-15 | 2026-08-31 06:05:00 | 52.59835 | 15.27935 | 61° | 86km/h | 13336m | -2.6m/s | -51.7°C | 1.6% | 163.8hPa | 2.5V | 18:12:15 | 01:55:15 | 00:00:00 | |
| SONDE2-11 | 2026-08-31 06:04:56 | 52.59793 | 15.27822 | 55° | 73km/h | 13346m | -2.4m/s | -51.6°C | 1.9% | 163.5hPa | 2.5V | 00:00:00 | 00:00:00 | 00:00:00 | |
| DB0DAN | 2026-08-31 06:04:55 | 52.59782 | 15.27798 | 53° | 69km/h | 13348m | -2.6m/s | -51.6°C | 2% | 163.49hPa | 2.5V | 00:00:00 | 00:00:00 | 00:00:00 | |
| AA1-15 | 2026-08-31 06:04:49 | 52.59704 | 15.27654 | 47° | 86km/h | 13365m | -2.3m/s | -51.7°C | 1.7% | 163.1hPa | 2.7V | 18:12:15 | 01:55:04 | 00:00:00 | |
| S3001 | 2026-08-31 06:04:46 | 52.59643 | 15.27540 | 50° | 95km/h | 13374m | -2.3m/s | -51.7°C | 2.0% | 162.8hPa | 2.7V | 00:00:00 | 00:00:00 | 00:00:00 | |
| MECKS9 | 2026-08-31 06:04:45 | 52.59658 | 15.27570 | 51° | 95km/h | 13372m | -2.3m/s | -51.7°C | 2.0% | 162.9hPa | 2.7V | 00:00:00 | 00:00:00 | 00:00:00 | |
| DB0DAN | 2026-08-31 06:04:40 | 52.59570 | 15.27376 | 57° | 93km/h | 13387m | -2.6m/s | -51.8°C | 2% | 162.45hPa | 2.7V | 00:00:00 | 00:00:00 | 00:00:00 | |
| AA1-15 | 2026-08-31 06:04:38 | 52.59545 | 15.27307 | 60° | 95km/h | 13392m | -2.6m/s | -51.9°C | 1.7% | 162.3hPa | 2.7V | 18:12:15 | 01:54:53 | 00:00:00 | |
| SONDE2-12 | 2026-08-31 06:04:35 | 52.59502 | 15.27174 | 63° | 84km/h | 13403m | -2.4m/s | -51.9°C | 2.3% | 162.1hPa | 2.5V | 00:00:00 | 00:00:00 | 00:00:00 | |
| AA1-15 | 2026-08-31 06:04:27 | 52.59429 | 15.26977 | 51° | 80km/h | 13421m | -2.8m/s | -52°C | 1.7% | 161.6hPa | 2.5V | 18:12:15 | 01:54:42 | 00:00:00 | |
| DB0DAN | 2026-08-31 06:04:25 | 52.59402 | 15.26924 | 49° | 80km/h | 13426m | -2.8m/s | -52°C | 2% | 161.52hPa | 2.7V | 00:00:00 | 00:00:00 | 00:00:00 | |
| AA1-15 | 2026-08-31 06:04:16 | 52.59265 | 15.26647 | 55° | 102km/h | 13451m | -2.4m/s | -52.1°C | 1.6% | 160.9hPa | 2.5V | 18:12:15 | 01:54:31 | 00:00:00 | |
| AA1-15 | 2026-08-31 06:04:05 | 52.59142 | 15.26276 | 57° | 82km/h | 13478m | -2.1m/s | -51.9°C | 1.5% | 160.2hPa | 2.5V | 18:12:15 | 01:54:20 | 00:00:00 | |
| SONDE2-12 | 2026-08-31 06:04:04 | 52.59119 | 15.26221 | 53° | 80km/h | 13483m | -2.6m/s | -52.0°C | 2.4% | 160.0hPa | 2.5V | 00:00:00 | 00:00:00 | 00:00:00 | |
| EDDB2-12 | 2026-08-31 06:04:00 | 52.59078 | 15.26137 | 50° | 89km/h | 13490m | -2.7m/s | -52.0°C | 1.9% | 159.9hPa | 2.5V | 00:00:00 | 00:00:00 | 00:00:00 | |
| AM1SDL-15 | 2026-08-31 06:03:59 | 52.59064 | 15.26108 | 51° | 99km/h | 13493m | -2.7m/s | 0°C | 0% | 0hPa | 2.5V | 00:00:00 | 01:54:14 | 00:00:00 | |
| DB0NH | 2026-08-31 06:03:58 | 52.59049 | 15.26079 | 50° | 95km/h | 13496m | -2.5m/s | -52.0°C | 5.2% | 159.7hPa | 2.5V | 00:00:00 | 01:54:13 | 08:30:00 | |
| DB0DAN | 2026-08-31 06:03:55 | 52.59001 | 15.25985 | 53° | 97km/h | 13504m | -2.8m/s | -52.1°C | 1.9% | 159.55hPa | 2.7V | 00:00:00 | 00:00:00 | 00:00:00 | |
| AA1-15 | 2026-08-31 06:03:54 | 52.58986 | 15.25951 | 54° | 102km/h | 13506m | -2.9m/s | -52.1°C | 1.5% | 159.5hPa | 2.7V | 18:12:15 | 01:54:09 | 00:00:00 | |
| EDDB2-11 | 2026-08-31 06:03:48 | 52.58889 | 15.25700 | 60° | 99km/h | 13526m | -2.5m/s | -51.6°C | 1.8% | 159.0hPa | 2.7V | 00:00:00 | 00:00:00 | 00:00:00 | |
| AA1-15 | 2026-08-31 06:03:43 | 52.58843 | 15.25559 | 63° | 93km/h | 13536m | -2.8m/s | -51.5°C | 1.3% | 158.8hPa | 2.7V | 18:12:15 | 01:53:58 | 00:00:00 | |
| KRY50SP-1 | 2026-08-31 06:03:43 | 52.58843 | 15.25559 | 64° | 93km/h | 13536m | -2.8m/s | -51.5°C | 1.8% | 158.8hPa | 2.5V | 00:00:00 | 00:00:00 | 00:00:00 | |
| DB0DAN | 2026-08-31 06:03:40 | 52.58813 | 15.25460 | 64° | 82km/h | 13544m | -3.3m/s | -51.4°C | 1.7% | 158.54hPa | 2.5V | 00:00:00 | 00:00:00 | 00:00:00 | |
| AA1-15 | 2026-08-31 06:03:32 | 52.58719 | 15.25223 | 50° | 93km/h | 13567m | -2.4m/s | -51.4°C | 1.3% | 158hPa | 2.5V | 18:12:15 | 01:53:47 | 00:00:00 | |
| EDDB2-12 | 2026-08-31 06:03:29 | 52.58673 | 15.25130 | 51° | 99km/h | 13575m | -2.5m/s | -51.5°C | 1.8% | 157.9hPa | 2.7V | 00:00:00 | 00:00:00 | 00:00:00 | |
| DB0NH | 2026-08-31 06:03:28 | 52.58657 | 15.25097 | 51° | 97km/h | 13577m | -2.6m/s | -51.5°C | 4.8% | 157.7hPa | 2.7V | 00:00:00 | 01:53:43 | 00:00:00 | |
| MECKS9 | 2026-08-31 06:03:27 | 52.58657 | 15.25097 | 52° | 100km/h | 13577m | -2.6m/s | -51.5°C | 1.8% | 157.8hPa | 2.7V | 00:00:00 | 00:00:00 | 00:00:00 | |
| DB0DAN | 2026-08-31 06:03:25 | 52.58610 | 15.24994 | 56° | 100km/h | 13586m | -2.7m/s | -51.6°C | 1.8% | 157.57hPa | 2.7V | 00:00:00 | 00:00:00 | 00:00:00 | |
| AA1-15 | 2026-08-31 06:03:15 | 52.58485 | 15.24620 | 66° | 93km/h | 13613m | -2.9m/s | -51.8°C | 1.3% | 156.9hPa | 2.5V | 18:12:15 | 01:53:30 | 00:00:00 | |
| AA1-15 | 2026-08-31 06:03:04 | 52.58352 | 15.24290 | 51° | 97km/h | 13643m | -2.8m/s | -51.8°C | 1.3% | 156.2hPa | 2.7V | 18:12:15 | 01:53:19 | 00:00:00 | |
| SONDE2-12 | 2026-08-31 06:03:01 | 52.58305 | 15.24192 | 53° | 102km/h | 13651m | -2.9m/s | -51.8°C | 2.2% | 156.0hPa | 2.5V | 00:00:00 | 00:00:00 | 00:00:00 | |
| SONCRA | 2026-08-31 06:03:00 | 52.58289 | 15.24157 | 55° | 106km/h | 13654m | -2.6m/s | -51.9°C | 1.7% | 155.9hPa | 2.5V | 00:00:00 | 00:00:00 | 00:00:00 | |
| KRY50SP-1 | 2026-08-31 06:02:59 | 52.58289 | 15.24157 | 56° | 108km/h | 13654m | -2.6m/s | -51.9°C | 1.7% | 155.9hPa | 2.5V | 00:00:00 | 00:00:00 | 00:00:00 | |
| DB0NH | 2026-08-31 06:02:58 | 52.58260 | 15.24083 | 60° | 93km/h | 13659m | -3.1m/s | -51.8°C | 4.9% | 155.7hPa | 2.5V | 00:00:00 | 01:53:13 | 00:00:00 | |
| 13BRC | 2026-08-31 06:02:57 | 52.58260 | 15.24083 | 60° | 108km/h | 13659m | -3.1m/s | -51.9°C | 1.8% | 155.8hPa | 2.5V | 00:00:00 | 00:00:00 | 00:00:00 | |
| DB0DAN | 2026-08-31 06:02:55 | 52.58221 | 15.23969 | 63° | 97km/h | 13668m | -2.9m/s | -51.9°C | 1.8% | 155.59hPa | 2.5V | 00:00:00 | 00:00:00 | 00:00:00 | |
| DM0DOS-11 | 2026-08-31 06:02:53 | 52.58161 | 15.23753 | 66° | 86km/h | 13685m | -3.1m/s | -52°C | 4.9% | 155.2hPa | 2.5V | 08:30:00 | 01:53:04 | 00:00:00 | |
| AA1-15 | 2026-08-31 06:02:53 | 52.58199 | 15.23894 | 66° | 99km/h | 13673m | -3m/s | -52°C | 1.3% | 155.4hPa | 2.7V | 18:12:15 | 01:53:08 | 00:00:00 | |
| SONDE2-11 | 2026-08-31 06:02:52 | 52.58189 | 15.23857 | 66° | 93km/h | 13676m | -2.8m/s | -52.0°C | 1.8% | 155.4hPa | 2.5V | 00:00:00 | 00:00:00 | 00:00:00 | |
| EDDB2-11 | 2026-08-31 06:02:46 | 52.58123 | 15.23632 | 59° | 78km/h | 13696m | -3.3m/s | -52.1°C | 1.7% | 154.9hPa | 2.5V | 00:00:00 | 00:00:00 | 00:00:00 | |
| AA1-15 | 2026-08-31 06:02:42 | 52.58090 | 15.23549 | 54° | 82km/h | 13705m | -3.2m/s | -52.1°C | 1.2% | 154.7hPa | 2.5V | 18:12:15 | 01:52:57 | 00:00:00 | |
| DB0DAN | 2026-08-31 06:02:40 | 52.58064 | 15.23493 | 52° | 84km/h | 13711m | -3.1m/s | -52.1°C | 1.7% | 154.56hPa | 2.7V | 00:00:00 | 00:00:00 | 00:00:00 | |
| SP3BTT-10 | 2026-08-31 06:02:38 | 52.58036 | 15.23432 | 55° | 93km/h | 13717m | -2.6m/s | -52.1°C | 4.9% | 154.3hPa | 2.7V | 00:00:00 | 00:00:00 | 00:00:00 | |
| 13BRC | 2026-08-31 06:02:37 | 52.58036 | 15.23432 | 55° | 97km/h | 13717m | -2.6m/s | -52.1°C | 1.7% | 154.4hPa | 2.7V | 00:00:00 | 00:00:00 | 00:00:00 | |
| DM0DOS-11 | 2026-08-31 06:02:35 | 52.57968 | 15.23255 | 61° | 100km/h | 13732m | -2.9m/s | -52.2°C | 5% | 154.1hPa | 2.7V | 08:30:00 | 01:52:48 | 00:00:00 | |
| AA1-15 | 2026-08-31 06:02:31 | 52.57944 | 15.23181 | 64° | 100km/h | 13738m | -2.9m/s | -52.3°C | 1.4% | 153.9hPa | 2.5V | 18:12:15 | 01:52:46 | 00:00:00 | |
| SONDE2-12 | 2026-08-31 06:02:30 | 52.57933 | 15.23144 | 64° | 99km/h | 13741m | -2.8m/s | -52.3°C | 2.2% | 153.9hPa | 2.7V | 00:00:00 | 00:00:00 | 00:00:00 | |
| SONCRA | 2026-08-31 06:02:29 | 52.57923 | 15.23107 | 66° | 99km/h | 13743m | -3.1m/s | -52.3°C | 1.8% | 153.8hPa | 2.7V | 00:00:00 | 00:00:00 | 00:00:00 | |
| DB0NH | 2026-08-31 06:02:28 | 52.57913 | 15.23070 | 68° | 93km/h | 13746m | -3.0m/s | -52.2°C | 4.9% | 153.7hPa | 2.7V | 00:00:00 | 01:52:43 | 00:00:00 | |
| DB0DAN | 2026-08-31 06:02:25 | 52.57886 | 15.22963 | 68° | 86km/h | 13755m | -2.9m/s | -52.3°C | 1.7% | 153.55hPa | 2.5V | 00:00:00 | 00:00:00 | 00:00:00 | |
| DM0DOS-11 | 2026-08-31 06:02:25 | 52.57855 | 15.22831 | 67° | 82km/h | 13767m | -3.2m/s | -52.4°C | 4.8% | 153.2hPa | 2.7V | 08:30:00 | 01:52:36 | 00:00:00 | |
| AA1-15 | 2026-08-31 06:02:20 | 52.57847 | 15.22801 | 65° | 78km/h | 13770m | -3.1m/s | -52.4°C | 1.2% | 153.2hPa | 2.5V | 18:12:15 | 01:52:35 | 00:00:00 | |
| OE3JTB-15 | 2026-08-31 06:02:19 | 52.57839 | 15.22772 | 65° | 97km/h | 13773m | -3.7m/s | -52.3°C | 4.8% | 153.1hPa | 2.7V | 00:00:00 | 01:52:34 | 00:00:00 | |
| SP6BVK | 2026-08-31 06:02:17 | 52.57830 | 15.22743 | 62° | 78km/h | 13776m | -3.0m/s | -52.4°C | 1.7% | 153.0hPa | 2.7V | 00:00:00 | 00:00:00 | 00:00:00 | |
| 13BRC | 2026-08-31 06:02:16 | 52.57820 | 15.22715 | 60° | 80km/h | 13779m | -2.7m/s | -52.4°C | 1.7% | 153.0hPa | 2.7V | 00:00:00 | 00:00:00 | 00:00:00 | |
| KRY50SP-1 | 2026-08-31 06:02:14 | 52.57798 | 15.22657 | 57° | 86km/h | 13785m | -2.6m/s | -52.3°C | 1.7% | 152.8hPa | 2.7V | 00:00:00 | 00:00:00 | 00:00:00 | |
| DB0DAN | 2026-08-31 06:02:10 | 52.57733 | 15.22497 | 58° | 95km/h | 13799m | -2.8m/s | -52.3°C | 1.7% | 152.5hPa | 2.7V | 00:00:00 | 00:00:00 | 00:00:00 | |
| AA1-15 | 2026-08-31 06:02:09 | 52.57721 | 15.22462 | 61° | 99km/h | 13802m | -3m/s | -52.3°C | 1.2% | 152.4hPa | 2.7V | 18:12:15 | 01:52:24 | 00:00:00 | |
| KRY50SP-1 | 2026-08-31 06:02:08 | 52.57721 | 15.22462 | 62° | 99km/h | 13802m | -3.0m/s | -52.3°C | 1.7% | 152.4hPa | 2.5V | 00:00:00 | 00:00:00 | 00:00:00 | |
| DM0DOS-11 | 2026-08-31 06:02:07 | 52.57685 | 15.22352 | 65° | 102km/h | 13811m | -3.4m/s | -52.4°C | 5% | 152.2hPa | 2.5V | 08:30:00 | 01:52:21 | 00:00:00 | |
| SONDE2-12 | 2026-08-31 06:01:59 | 52.57617 | 15.22075 | 69° | 104km/h | 13834m | -3.1m/s | -52.6°C | 2.0% | 151.7hPa | 2.5V | 00:00:00 | 00:00:00 | 00:00:00 | |
| AA1-15 | 2026-08-31 06:01:58 | 52.57608 | 15.22035 | 71° | 104km/h | 13837m | -3.2m/s | -52.6°C | 1.1% | 151.7hPa | 2.5V | 18:12:15 | 01:52:13 | 00:00:00 | |
| SONCRA | 2026-08-31 06:01:58 | 52.57608 | 15.22035 | 70° | 102km/h | 13837m | -3.2m/s | -52.6°C | 1.7% | 151.7hPa | 2.5V | 00:00:00 | 00:00:00 | 00:00:00 | |
| EDDB2-12 | 2026-08-31 06:01:56 | 52.57590 | 15.21953 | 70° | 104km/h | 13842m | -2.9m/s | -52.5°C | 1.7% | 151.5hPa | 2.5V | 00:00:00 | 00:00:00 | 00:00:00 | |
| DB0DAN | 2026-08-31 06:01:55 | 52.57581 | 15.21912 | 70° | 99km/h | 13845m | -3.2m/s | -52.5°C | 1.6% | 151.4hPa | 2.5V | 00:00:00 | 00:00:00 | 00:00:00 | |
| AA1-15 | 2026-08-31 06:01:47 | 52.57514 | 15.21590 | 72° | 100km/h | 13869m | -3m/s | -52.4°C | 1.1% | 150.8hPa | 2.5V | 18:12:15 | 01:52:02 | 00:00:00 | |
| MECKS9 | 2026-08-31 06:01:46 | 52.57514 | 15.21590 | 73° | 100km/h | 13869m | -3.0m/s | -52.4°C | 1.7% | 150.8hPa | 2.6V | 00:00:00 | 00:00:00 | 00:00:00 | |
| EDDB2-11 | 2026-08-31 06:01:44 | 52.57484 | 15.21432 | 74° | 97km/h | 13880m | -3.3m/s | -52.0°C | 1.6% | 150.6hPa | 2.6V | 00:00:00 | 00:00:00 | 00:00:00 | |
| KRY50SP-1 | 2026-08-31 06:01:42 | 52.57484 | 15.21432 | 75° | 99km/h | 13880m | -3.3m/s | -52.0°C | 1.6% | 150.6hPa | 2.6V | 00:00:00 | 00:00:00 | 00:00:00 | |
| DB0DAN | 2026-08-31 06:01:40 | 52.57466 | 15.21317 | 75° | 89km/h | 13889m | -2.9m/s | -51.3°C | 1.5% | 150.39hPa | 2.6V | 00:00:00 | 00:00:00 | 00:00:00 | |
| AA1-15 | 2026-08-31 06:01:36 | 52.57443 | 15.21168 | 78° | 89km/h | 13901m | -3.3m/s | -50.5°C | 0.6% | 150.1hPa | 2.5V | 18:12:15 | 01:51:51 | 00:00:00 | |
| AA1-15 | 2026-08-31 06:01:25 | 52.57390 | 15.20790 | 76° | 80km/h | 13934m | -3.3m/s | -50°C | 0.6% | 149.4hPa | 2.7V | 18:12:15 | 01:51:40 | 00:00:00 | |
| DB0DAN | 2026-08-31 06:01:25 | 52.57390 | 15.20790 | 76° | 77km/h | 13934m | -3.3m/s | -50°C | 1.3% | 149.37hPa | 2.7V | 00:00:00 | 00:00:00 | 00:00:00 | |
| AA1-15 | 2026-08-31 06:01:14 | 52.57337 | 15.20462 | 78° | 77km/h | 13968m | -2.7m/s | -50.1°C | 0.6% | 148.6hPa | 2.7V | 18:12:15 | 01:51:29 | 00:00:00 | |
| DB0DAN | 2026-08-31 06:01:10 | 52.57322 | 15.20335 | 80° | 73km/h | 13979m | -2.9m/s | -50°C | 1.4% | 148.37hPa | 2.6V | 00:00:00 | 00:00:00 | 00:00:00 | |
| S3001 | 2026-08-31 06:01:09 | 52.57316 | 15.20274 | 79° | 73km/h | 13985m | -2.8m/s | -50.1°C | 1.4% | 148.3hPa | 2.7V | 00:00:00 | 00:00:00 | 00:00:00 | |
| SP3WXH-11 | 2026-08-31 06:01:05 | 52.57300 | 15.20162 | 73° | 66km/h | 13996m | -2.7m/s | -50.1°C | 1.4% | 148.0hPa | 2.7V | 00:00:00 | 00:00:00 | 00:00:00 | |
| DM0DOS-11 | 2026-08-31 06:01:04 | 52.57276 | 15.20062 | 64° | 66km/h | 14007m | -2.9m/s | -49.9°C | 4.1% | 147.7hPa | 2.7V | 08:30:00 | 01:51:15 | 00:00:00 | |
| AA1-15 | 2026-08-31 06:01:04 | 52.57300 | 15.20162 | 73° | 66km/h | 13996m | -2.7m/s | -50.1°C | 0.6% | 148hPa | 2.5V | 18:12:15 | 01:51:19 | 00:00:00 | |
| MECKS9 | 2026-08-31 06:01:03 | 52.57300 | 15.20162 | 74° | 66km/h | 13997m | -2.7m/s | -50.1°C | 1.4% | 148.0hPa | 2.7V | 00:00:00 | 00:00:00 | 00:00:00 | |
| SONCRA | 2026-08-31 06:00:56 | 52.57243 | 15.19963 | 59° | 73km/h | 14020m | -2.8m/s | -49.7°C | 1.3% | 147.5hPa | 2.7V | 00:00:00 | 00:00:00 | 00:00:00 | |
| DB0DAN | 2026-08-31 06:00:55 | 52.57233 | 15.19936 | 59° | 73km/h | 14022m | -2.7m/s | -49.7°C | 1.3% | 147.39hPa | 2.7V | 00:00:00 | 00:00:00 | 00:00:00 | |
| DM0DOS-11 | 2026-08-31 06:00:54 | 52.57187 | 15.19785 | 68° | 84km/h | 14037m | -3.1m/s | -49.5°C | 4% | 147.1hPa | 2.6V | 08:30:00 | 01:51:05 | 00:00:00 | |
| AA1-15 | 2026-08-31 06:00:53 | 52.57213 | 15.19879 | 62° | 82km/h | 14028m | -2.9m/s | -49.5°C | 0.5% | 147.2hPa | 2.7V | 18:12:15 | 01:51:08 | 00:00:00 | |
| SONDE2-11 | 2026-08-31 06:00:48 | 52.57174 | 15.19721 | 73° | 78km/h | 14043m | -2.5m/s | -49.5°C | 1.3% | 146.9hPa | 2.5V | 00:00:00 | 00:00:00 | 00:00:00 | |
| KRY50SP-1 | 2026-08-31 06:00:47 | 52.57173 | 15.19721 | 75° | 80km/h | 14043m | -2.5m/s | -49.5°C | 1.3% | 146.9hPa | 2.5V | 00:00:00 | 00:00:00 | 00:00:00 | |
| DM0DOS-11 | 2026-08-31 06:00:44 | 52.57136 | 15.19490 | 72° | 66km/h | 14064m | -2.7m/s | -49.5°C | 4.1% | 146.4hPa | 2.5V | 08:30:00 | 01:50:55 | 00:00:00 | |
| AA1-15 | 2026-08-31 06:00:42 | 52.57146 | 15.19544 | 75° | 69km/h | 14059m | -2.7m/s | -49.6°C | 0.6% | 146.6hPa | 2.7V | 18:12:15 | 01:50:57 | 00:00:00 | |
| DB0DAN | 2026-08-31 06:00:40 | 52.57136 | 15.19490 | 73° | 62km/h | 14064m | -2.7m/s | -49.5°C | 1.4% | 146.45hPa | 2.5V | 00:00:00 | 00:00:00 | 00:00:00 | |
| MECKS9 | 2026-08-31 06:00:37 | 52.57126 | 15.19440 | 72° | 62km/h | 14070m | -2.6m/s | -49.5°C | 1.4% | 146.3hPa | 2.7V | 00:00:00 | 00:00:00 | 00:00:00 | |
| SP6BVK | 2026-08-31 06:00:35 | 52.57116 | 15.19394 | 70° | 60km/h | 14075m | -2.9m/s | -49.5°C | 1.3% | 146.2hPa | 2.7V | 00:00:00 | 00:00:00 | 00:00:00 | |
| DM0DOS-11 | 2026-08-31 06:00:34 | 52.57073 | 15.19261 | 56° | 66km/h | 14093m | -2.9m/s | -49.5°C | 4% | 145.8hPa | 2.7V | 08:30:00 | 01:50:45 | 00:00:00 | |
| AA1-15 | 2026-08-31 06:00:31 | 52.57082 | 15.19283 | 58° | 62km/h | 14090m | -3.1m/s | -49.5°C | 0.5% | 145.9hPa | 2.6V | 18:12:15 | 01:50:46 | 00:00:00 | |
| KRY50SP-1 | 2026-08-31 06:00:30 | 52.57082 | 15.19283 | 59° | 62km/h | 14091m | -3.1m/s | -49.5°C | 1.3% | 145.9hPa | 2.6V | 00:00:00 | 00:00:00 | 00:00:00 | |
| SONDE2-12 | 2026-08-31 06:00:26 | 52.56946 | 15.18795 | 72° | 58km/h | 14142m | -2.9m/s | -49.9°C | 1.7% | 144.8hPa | 2.6V | 00:00:00 | 00:00:00 | 00:00:00 | |
| DB0DAN | 2026-08-31 06:00:25 | 52.57023 | 15.19133 | 61° | 77km/h | 14108m | -2.8m/s | -49.7°C | 1.4% | 145.51hPa | 2.6V | 00:00:00 | 00:00:00 | 00:00:00 | |
| SONCRA | 2026-08-31 06:00:25 | 52.57014 | 15.19104 | 62° | 80km/h | 14111m | -2.9m/s | -49.7°C | 1.3% | 145.4hPa | 2.6V | 00:00:00 | 00:00:00 | 00:00:00 | |
| DM0DOS-11 | 2026-08-31 06:00:24 | 52.56983 | 15.18983 | 70° | 75km/h | 14123m | -2.9m/s | -49.8°C | 4.1% | 145.2hPa | 2.6V | 08:30:00 | 01:50:35 | 00:00:00 | |
| AA1-15 | 2026-08-31 06:00:20 | 52.56983 | 15.18983 | 71° | 75km/h | 14123m | -2.9m/s | -49.8°C | 0.7% | 145.2hPa | 2.6V | 18:12:15 | 01:50:35 | 00:00:00 | |
| KRY50SP-1 | 2026-08-31 06:00:19 | 52.56983 | 15.18983 | 72° | 75km/h | 14123m | -2.9m/s | -49.8°C | 1.4% | 145.2hPa | 2.7V | 00:00:00 | 00:00:00 | 00:00:00 | |
| DL2RXE-15 | 2026-08-31 06:00:16 | 52.56966 | 15.18897 | 74° | 68km/h | 14131m | -2.9m/s | -49.9°C | 1.4% | 145.1hPa | 2.7V | 00:00:00 | 00:00:00 | 00:00:00 | |
| KRY50SP-1 | 2026-08-31 06:00:15 | 52.56956 | 15.18844 | 73° | 66km/h | 14137m | -2.7m/s | -49.9°C | 1.4% | 144.9hPa | 2.7V | 00:00:00 | 00:00:00 | 00:00:00 | |
| DM0DOS-11 | 2026-08-31 06:00:14 | 52.56932 | 15.18726 | 67° | 57km/h | 14151m | -2.7m/s | -50°C | 4.2% | 144.6hPa | 2.7V | 08:30:00 | 01:50:25 | 00:00:00 | |
| 13BRC | 2026-08-31 06:00:12 | 52.56946 | 15.18795 | 74° | 60km/h | 14142m | -2.9m/s | -49.9°C | 1.4% | 144.8hPa | 2.7V | 00:00:00 | 00:00:00 | 00:00:00 | |
| DB0DAN | 2026-08-31 06:00:10 | 52.56932 | 15.18726 | 68° | 55km/h | 14151m | -2.7m/s | -50°C | 1.4% | 144.59hPa | 2.7V | 00:00:00 | 00:00:00 | 00:00:00 | |
| AA1-15 | 2026-08-31 06:00:09 | 52.56926 | 15.18705 | 65° | 55km/h | 14153m | -2.5m/s | -50°C | 0.8% | 144.5hPa | 2.5V | 18:12:15 | 01:50:24 | 00:00:00 | |
| KRY50SP-1 | 2026-08-31 06:00:08 | 52.56926 | 15.18705 | 66° | 55km/h | 14153m | -2.5m/s | -50.0°C | 1.4% | 144.5hPa | 2.6V | 00:00:00 | 00:00:00 | 00:00:00 | |
| S3001 | 2026-08-31 06:00:06 | 52.56906 | 15.18646 | 57° | 53km/h | 14161m | -3.5m/s | -50.1°C | 1.4% | 144.3hPa | 2.6V | 00:00:00 | 00:00:00 | 00:00:00 | |
| MECKS9 | 2026-08-31 06:00:05 | 52.56906 | 15.18646 | 59° | 53km/h | 14162m | -3.5m/s | -50.1°C | 1.4% | 144.3hPa | 2.6V | 00:00:00 | 00:00:00 | 00:00:00 | |
| DM0DOS-11 | 2026-08-31 06:00:04 | 52.56852 | 15.18517 | 56° | 73km/h | 14179m | -2.7m/s | -50.2°C | 4.3% | 144hPa | 2.6V | 08:30:00 | 01:50:15 | 00:00:00 | |
| AA1-15 | 2026-08-31 05:59:59 | 52.56841 | 15.18491 | 56° | 77km/h | 14181m | -2.7m/s | -50.2°C | 0.8% | 143.9hPa | 2.7V | 18:12:15 | 01:50:14 | 00:00:00 | |
| DB0NH | 2026-08-31 05:59:58 | 52.56831 | 15.18464 | 59° | 73km/h | 14185m | -3.0m/s | -50.2°C | 4.3% | 143.8hPa | 2.6V | 00:00:00 | 01:50:13 | 00:00:00 | |
| KRY50SP-1 | 2026-08-31 05:59:57 | 52.56831 | 15.18464 | 60° | 77km/h | 14185m | -3.1m/s | -50.2°C | 1.4% | 143.8hPa | 2.6V | 00:00:00 | 00:00:00 | 00:00:00 | |
| DL2RXE-15 | 2026-08-31 05:59:56 | 52.56821 | 15.18437 | 62° | 78km/h | 14188m | -2.9m/s | -50.3°C | 1.4% | 143.8hPa | 2.6V | 00:00:00 | 00:00:00 | 00:00:00 | |
| DM0DOS-11 | 2026-08-31 05:59:55 | 52.56767 | 15.18225 | 74° | 75km/h | 14208m | -3m/s | -50.4°C | 4.3% | 143.3hPa | 2.6V | 08:30:00 | 01:50:05 | 00:00:00 | |
| DB0DAN | 2026-08-31 05:59:55 | 52.56802 | 15.18378 | 63° | 78km/h | 14194m | -3.1m/s | -50.3°C | 1.4% | 143.65hPa | 2.6V | 00:00:00 | 00:00:00 | 00:00:00 | |
| AA1-15 | 2026-08-31 05:59:48 | 52.56758 | 15.18168 | 75° | 66km/h | 14214m | -3m/s | -50.5°C | 0.8% | 143.2hPa | 2.6V | 18:12:15 | 01:50:03 | 00:00:00 | |
| SONDE2-11 | 2026-08-31 05:59:46 | 52.56744 | 15.18093 | 69° | 57km/h | 14223m | -2.8m/s | -50.5°C | 1.6% | 143.0hPa | 2.7V | 00:00:00 | 00:00:00 | 00:00:00 | |
| DM0DOS-11 | 2026-08-31 05:59:45 | 52.56706 | 15.17987 | 53° | 62km/h | 14238m | -2.5m/s | -50.6°C | 4.4% | 142.7hPa | 2.7V | 08:30:00 | 01:49:55 | 00:00:00 | |
| MECKS9 | 2026-08-31 05:59:44 | 52.56743 | 15.18093 | 70° | 58km/h | 14224m | -2.8m/s | -50.5°C | 1.6% | 143.0hPa | 2.7V | 00:00:00 | 00:00:00 | 00:00:00 | |
| DB0DAN | 2026-08-31 05:59:40 | 52.56706 | 15.17987 | 53° | 60km/h | 14238m | -2.5m/s | -50.6°C | 1.5% | 142.68hPa | 2.7V | 00:00:00 | 00:00:00 | 00:00:00 | |
| AA1-15 | 2026-08-31 05:59:38 | 52.56686 | 15.17944 | 52° | 68km/h | 14243m | -2.6m/s | -50.5°C | 0.9% | 142.6hPa | 2.7V | 18:12:15 | 01:49:53 | 00:00:00 | |
| KRY50SP-1 | 2026-08-31 05:59:35 | 52.56655 | 15.17873 | 56° | 75km/h | 14252m | -3.3m/s | -50.6°C | 1.5% | 142.3hPa | 2.6V | 00:00:00 | 00:00:00 | 00:00:00 | |
| DM0DOS-11 | 2026-08-31 05:59:34 | 52.56602 | 15.17733 | 61° | 84km/h | 14266m | -2.7m/s | -50.6°C | 4.4% | 142hPa | 2.6V | 08:30:00 | 01:49:45 | 00:00:00 | |
| AA1-15 | 2026-08-31 05:59:27 | 52.56576 | 15.17638 | 69° | 80km/h | 14275m | -2.7m/s | -50.7°C | 0.9% | 141.8hPa | 2.7V | 18:12:15 | 01:49:42 | 00:00:00 | |
| DB0DAN | 2026-08-31 05:59:25 | 52.56563 | 15.17578 | 72° | 69km/h | 14281m | -2.5m/s | -50.7°C | 1.5% | 141.72hPa | 2.5V | 00:00:00 | 00:00:00 | 00:00:00 | |
| SONDE2-12 | 2026-08-31 05:59:24 | 52.56557 | 15.17549 | 72° | 69km/h | 14284m | -2.7m/s | -50.7°C | 1.9% | 141.7hPa | 2.6V | 00:00:00 | 00:00:00 | 00:00:00 | |
| AA1-15 | 2026-08-31 05:59:16 | 52.56502 | 15.17367 | 55° | 66km/h | 14305m | -3.1m/s | -50.9°C | 1% | 141.1hPa | 2.6V | 18:12:15 | 01:49:31 | 00:00:00 | |
| SONDE2-11 | 2026-08-31 05:59:15 | 52.56482 | 15.17323 | 51° | 66km/h | 14312m | -3.2m/s | -51.0°C | 1.6% | 141.0hPa | 2.6V | 00:00:00 | 00:00:00 | 00:00:00 | |
| DM0DOS-11 | 2026-08-31 05:59:14 | 52.56436 | 15.17226 | 54° | 78km/h | 14324m | -3.2m/s | -51°C | 4.5% | 140.7hPa | 2.6V | 08:30:00 | 01:49:25 | 00:00:00 | |
| SP6BVK | 2026-08-31 05:59:12 | 52.56471 | 15.17301 | 52° | 71km/h | 14316m | -2.7m/s | -51.0°C | 1.6% | 141.0hPa | 2.6V | 00:00:00 | 00:00:00 | 00:00:00 | |
| DB0DAN | 2026-08-31 05:59:10 | 52.56436 | 15.17226 | 54° | 75km/h | 14324m | -3.2m/s | -51.1°C | 1.6% | 140.74hPa | 2.6V | 00:00:00 | 00:00:00 | 00:00:00 | |
| 13BRC | 2026-08-31 05:59:09 | 52.56436 | 15.17226 | 55° | 78km/h | 14324m | -3.2m/s | -51.1°C | 1.6% | 140.7hPa | 2.6V | 00:00:00 | 00:00:00 | 00:00:00 | |
| MECKS9 | 2026-08-31 05:59:08 | 52.56424 | 15.17199 | 56° | 80km/h | 14327m | -3.0m/s | -51.1°C | 1.6% | 140.7hPa | 2.6V | 00:00:00 | 00:00:00 | 00:00:00 | |
| SP3BTT-10 | 2026-08-31 05:59:06 | 52.56390 | 15.17113 | 59° | 75km/h | 14335m | -2.4m/s | -51.1°C | 4.5% | 140.5hPa | 2.6V | 00:00:00 | 00:00:00 | 00:00:00 | |
| DM0DOS-11 | 2026-08-31 05:59:05 | 52.56337 | 15.16927 | 69° | 75km/h | 14351m | -3m/s | -51.3°C | 4.6% | 140.1hPa | 2.5V | 08:30:00 | 01:49:15 | 00:00:00 | |
| AA1-15 | 2026-08-31 05:59:05 | 52.56380 | 15.17082 | 61° | 86km/h | 14338m | -2.7m/s | -51.2°C | 1.1% | 140.5hPa | 2.6V | 18:12:15 | 01:49:20 | 00:00:00 | |
| S3001 | 2026-08-31 05:59:04 | 52.56369 | 15.17051 | 62° | 84km/h | 14341m | -2.8m/s | -51.2°C | 1.6% | 140.4hPa | 2.7V | 00:00:00 | 00:00:00 | 00:00:00 | |
| SP3WXH-11 | 2026-08-31 05:59:00 | 52.56337 | 15.16927 | 69° | 73km/h | 14351m | -3.0m/s | -51.3°C | 1.6% | 140.2hPa | 2.7V | 00:00:00 | 00:00:00 | 00:00:00 | |
| DL2RXE-15 | 2026-08-31 05:58:59 | 52.56337 | 15.16927 | 70° | 75km/h | 14351m | -3.0m/s | -51.3°C | 1.6% | 140.1hPa | 2.7V | 00:00:00 | 00:00:00 | 00:00:00 | |
| DB0NH | 2026-08-31 05:58:58 | 52.56324 | 15.16872 | 69° | 75km/h | 14357m | -3.0m/s | -51.3°C | 4.7% | 140.0hPa | 2.7V | 00:00:00 | 01:49:13 | 00:00:00 | |
| MECKS9 | 2026-08-31 05:58:57 | 52.56324 | 15.16872 | 69° | 69km/h | 14357m | -3.1m/s | -51.3°C | 1.6% | 140.0hPa | 2.7V | 00:00:00 | 00:00:00 | 00:00:00 | |
| DB0DAN | 2026-08-31 05:58:55 | 52.56303 | 15.16797 | 63° | 60km/h | 14366m | -3.2m/s | -51.4°C | 1.7% | 139.86hPa | 2.7V | 00:00:00 | 00:00:00 | 00:00:00 | |
| AA1-15 | 2026-08-31 05:58:54 | 52.56296 | 15.16775 | 60° | 60km/h | 14369m | -3.1m/s | -51.5°C | 1.2% | 139.8hPa | 2.5V | 18:12:15 | 01:49:09 | 00:00:00 | |
| DM0DOS-11 | 2026-08-31 05:58:53 | 52.56260 | 15.16691 | 51° | 64km/h | 14381m | -3.2m/s | -51.6°C | 4.8% | 139.5hPa | 2.7V | 08:30:00 | 01:49:05 | 00:00:00 | |
| SONDE2-12 | 2026-08-31 05:58:53 | 52.56287 | 15.16754 | 56° | 60km/h | 14372m | -2.6m/s | -51.5°C | 2.1% | 139.7hPa | 2.6V | 00:00:00 | 00:00:00 | 00:00:00 | |
| SONCRA | 2026-08-31 05:58:52 | 52.56269 | 15.16711 | 54° | 62km/h | 14378m | -3.2m/s | -51.5°C | 1.7% | 139.6hPa | 2.6V | 00:00:00 | 00:00:00 | 00:00:00 | |
| EDDB2-12 | 2026-08-31 05:58:50 | 52.56249 | 15.16669 | 50° | 68km/h | 14384m | -2.8m/s | -51.6°C | 1.7% | 139.4hPa | 2.6V | 00:00:00 | 00:00:00 | 00:00:00 | |
| 13BRC | 2026-08-31 05:58:49 | 52.56260 | 15.16690 | 52° | 64km/h | 14381m | -3.2m/s | -51.6°C | 1.7% | 139.5hPa | 2.6V | 00:00:00 | 00:00:00 | 00:00:00 | |
| SONDE2-11 | 2026-08-31 05:58:44 | 52.56178 | 15.16524 | 53° | 84km/h | 14403m | -2.9m/s | -51.8°C | 1.7% | 139.1hPa | 2.6V | 00:00:00 | 00:00:00 | 00:00:00 | |
| DM0DOS-11 | 2026-08-31 05:58:43 | 52.56143 | 15.16436 | 60° | 86km/h | 14412m | -2.8m/s | -51.9°C | 4.8% | 138.9hPa | 2.6V | 08:30:00 | 01:48:55 | 00:00:00 | |
| AA1-15 | 2026-08-31 05:58:43 | 52.56178 | 15.16524 | 54° | 84km/h | 14403m | -2.9m/s | -51.8°C | 1.2% | 139.1hPa | 2.7V | 18:12:15 | 01:48:58 | 00:00:00 | |
| DB0DAN | 2026-08-31 05:58:40 | 52.56143 | 15.16436 | 60° | 82km/h | 14412m | -2.8m/s | -51.9°C | 1.7% | 138.87hPa | 2.6V | 00:00:00 | 00:00:00 | 00:00:00 | |
| DL2RXE-15 | 2026-08-31 05:58:39 | 52.56143 | 15.16436 | 61° | 86km/h | 14412m | -2.8m/s | -51.9°C | 1.7% | 138.9hPa | 2.7V | 00:00:00 | 00:00:00 | 00:00:00 | |
| EDDB2-11 | 2026-08-31 05:58:37 | 52.56112 | 15.16341 | 65° | 86km/h | 14420m | -2.9m/s | -51.9°C | 1.7% | 138.7hPa | 2.7V | 00:00:00 | 00:00:00 | 00:00:00 | |
| DM0DOS-11 | 2026-08-31 05:58:33 | 52.56060 | 15.16124 | 66° | 71km/h | 14441m | -2.9m/s | -52.1°C | 5% | 138.2hPa | 2.7V | 08:30:00 | 01:48:45 | 00:00:00 | |
| AA1-15 | 2026-08-31 05:58:32 | 52.56074 | 15.16181 | 69° | 78km/h | 14435m | -2.9m/s | -52.1°C | 1.3% | 138.3hPa | 2.7V | 18:12:15 | 01:48:47 | 00:00:00 | |
| SP6BVK | 2026-08-31 05:58:31 | 52.56074 | 15.16180 | 70° | 78km/h | 14435m | -2.9m/s | -52.1°C | 1.7% | 138.3hPa | 2.7V | 00:00:00 | 00:00:00 | 00:00:00 | |
| SP3WXH-11 | 2026-08-31 05:58:29 | 52.56052 | 15.16098 | 63° | 68km/h | 14444m | -2.7m/s | -52.1°C | 1.7% | 138.2hPa | 2.7V | 00:00:00 | 00:00:00 | 00:00:00 | |
| DB0NH | 2026-08-31 05:58:28 | 52.56044 | 15.16073 | 61° | 78km/h | 14447m | -2.8m/s | -52.1°C | 5.0% | 138.1hPa | 2.7V | 00:00:00 | 01:48:43 | 00:00:00 | |
| DB0DAN | 2026-08-31 05:58:25 | 52.56016 | 15.16003 | 52° | 66km/h | 14456m | -3.1m/s | -52.2°C | 1.7% | 137.92hPa | 2.7V | 00:00:00 | 00:00:00 | 00:00:00 | |
| SONDE2-12 | 2026-08-31 05:58:22 | 52.55980 | 15.15932 | 49° | 75km/h | 14465m | -3.2m/s | -52.2°C | 2.1% | 137.7hPa | 2.6V | 00:00:00 | 00:00:00 | 00:00:00 | |
| AA1-15 | 2026-08-31 05:58:21 | 52.55967 | 15.15908 | 49° | 82km/h | 14469m | -2.8m/s | -52.2°C | 1.3% | 137.7hPa | 2.6V | 18:12:15 | 01:48:36 | 00:00:00 | |
| SONCRA | 2026-08-31 05:58:21 | 52.55954 | 15.15881 | 51° | 82km/h | 14472m | -3.2m/s | -52.2°C | 1.7% | 137.6hPa | 2.6V | 00:00:00 | 00:00:00 | 00:00:00 | |
| OE3JTB-15 | 2026-08-31 05:58:20 | 52.55954 | 15.15881 | 52° | 78km/h | 14472m | -3.2m/s | -52.1°C | 5.0% | 137.6hPa | 2.6V | 00:00:00 | 00:00:00 | 08:30:00 | |
| EDDB2-12 | 2026-08-31 05:58:19 | 52.55928 | 15.15827 | 52° | 86km/h | 14478m | -2.8m/s | -52.2°C | 1.8% | 137.5hPa | 2.6V | 00:00:00 | 00:00:00 | 00:00:00 | |
| KRY50SP-1 | 2026-08-31 05:58:17 | 52.55928 | 15.15827 | 54° | 86km/h | 14478m | -2.8m/s | -52.2°C | 1.8% | 137.5hPa | 2.6V | 00:00:00 | 00:00:00 | 00:00:00 | |
| DM0DOS-11 | 2026-08-31 05:58:15 | 52.55835 | 15.15548 | 67° | 80km/h | 14503m | -2.8m/s | -52°C | 4.9% | 136.9hPa | 2.6V | 08:30:00 | 01:48:24 | 00:00:00 | |
| DB0DAN | 2026-08-31 05:58:10 | 52.55843 | 15.15579 | 67° | 78km/h | 14501m | -2.6m/s | -52.1°C | 1.8% | 136.96hPa | 2.5V | 00:00:00 | 00:00:00 | 00:00:00 | |
| AA1-15 | 2026-08-31 05:58:05 | 52.55809 | 15.15427 | 71° | 73km/h | 14515m | -2.8m/s | -52.1°C | 1.3% | 136.7hPa | 2.7V | 18:12:15 | 01:48:20 | 00:00:00 | |
| DM0DOS-11 | 2026-08-31 05:58:03 | 52.55769 | 15.15271 | 59° | 64km/h | 14532m | -3m/s | -52.2°C | 4.9% | 136.3hPa | 2.7V | 08:30:00 | 01:48:14 | 00:00:00 | |
| S3001 | 2026-08-31 05:58:02 | 52.55791 | 15.15344 | 67° | 66km/h | 14524m | -2.6m/s | -52.2°C | 1.7% | 136.5hPa | 2.7V | 00:00:00 | 00:00:00 | 00:00:00 | |
| KRY50SP-1 | 2026-08-31 05:57:59 | 52.55778 | 15.15295 | 63° | 68km/h | 14530m | -2.7m/s | -52.2°C | 1.7% | 136.3hPa | 2.7V | 00:00:00 | 00:00:00 | 00:00:00 | |
| DB0NH | 2026-08-31 05:57:58 | 52.55760 | 15.15248 | 57° | 73km/h | 14536m | -2.6m/s | -52.2°C | 5.0% | 136.2hPa | 2.7V | 00:00:00 | 01:48:13 | 00:00:00 | |
| DB0DAN | 2026-08-31 05:57:55 | 52.55727 | 15.15175 | 51° | 73km/h | 14544m | -2.4m/s | -52.2°C | 1.7% | 136.07hPa | 2.6V | 00:00:00 | 00:00:00 | 00:00:00 | |
| KRY50SP-1 | 2026-08-31 05:57:54 | 52.55727 | 15.15175 | 52° | 77km/h | 14544m | -2.4m/s | -52.2°C | 1.7% | 136.1hPa | 2.7V | 00:00:00 | 00:00:00 | 00:00:00 | |
| DM0DOS-11 | 2026-08-31 05:57:53 | 52.55652 | 15.15009 | 58° | 89km/h | 14562m | -2.9m/s | -52.3°C | 4.9% | 135.7hPa | 2.7V | 08:30:00 | 01:48:04 | 00:00:00 | |
| AA1-15 | 2026-08-31 05:57:53 | 52.55703 | 15.15125 | 53° | 82km/h | 14551m | -3m/s | -52.2°C | 1.2% | 135.9hPa | 2.7V | 18:12:15 | 01:48:08 | 00:00:00 | |
| SONDE2-12 | 2026-08-31 05:57:51 | 52.55677 | 15.15070 | 53° | 84km/h | 14556m | -3.1m/s | -52.3°C | 2.1% | 135.8hPa | 2.5V | 00:00:00 | 00:00:00 | 00:00:00 | |
| SONCRA | 2026-08-31 05:57:50 | 52.55652 | 15.15009 | 58° | 89km/h | 14562m | -2.9m/s | -52.3°C | 1.7% | 135.7hPa | 2.5V | 00:00:00 | 00:00:00 | 00:00:00 | |
| EDDB2-12 | 2026-08-31 05:57:48 | 52.55629 | 15.14944 | 62° | 88km/h | 14568m | -3.0m/s | -52.3°C | 1.7% | 135.6hPa | 2.5V | 00:00:00 | 00:00:00 | 00:00:00 | |
| 13BRC | 2026-08-31 05:57:47 | 52.55640 | 15.14977 | 60° | 91km/h | 14565m | -2.7m/s | -52.3°C | 1.7% | 135.6hPa | 2.5V | 00:00:00 | 00:00:00 | 00:00:00 | |
| AM1SDL-15 | 2026-08-31 05:57:45 | 52.55610 | 15.14877 | 66° | 77km/h | 14574m | -3.0m/s | 0°C | 0% | 0hPa | 2.5V | 00:00:00 | 01:48:00 | 00:00:00 | |
| MECKS9 | 2026-08-31 05:57:44 | 52.55610 | 15.14877 | 67° | 88km/h | 14574m | -3.0m/s | -52.4°C | 1.7% | 135.4hPa | 2.5V | 00:00:00 | 00:00:00 | 00:00:00 | |
| DM0DOS-11 | 2026-08-31 05:57:43 | 52.55568 | 15.14696 | 68° | 71km/h | 14591m | -2.7m/s | -52.5°C | 5% | 135hPa | 2.5V | 08:30:00 | 01:47:54 | 00:00:00 | |
| DB0DAN | 2026-08-31 05:57:40 | 52.55574 | 15.14723 | 71° | 69km/h | 14588m | -3.1m/s | -52.5°C | 1.8% | 135.11hPa | 2.7V | 00:00:00 | 00:00:00 | 00:00:00 | |
| KRY50SP-1 | 2026-08-31 05:57:37 | 52.55561 | 15.14670 | 67° | 66km/h | 14594m | -2.9m/s | -52.5°C | 1.7% | 135.0hPa | 2.7V | 00:00:00 | 00:00:00 | 00:00:00 | |
| EDDB2-11 | 2026-08-31 05:57:35 | 52.55539 | 15.14597 | 58° | 66km/h | 14603m | -2.5m/s | -52.5°C | 1.7% | 134.8hPa | 2.7V | 00:00:00 | 00:00:00 | 00:00:00 | |
| DM0DOS-11 | 2026-08-31 05:57:34 | 52.55476 | 15.14457 | 52° | 77km/h | 14620m | -3.2m/s | -52.5°C | 4.9% | 134.4hPa | 2.7V | 08:30:00 | 01:47:44 | 00:00:00 | |
| AA1-15 | 2026-08-31 05:57:27 | 52.55451 | 15.14403 | 53° | 82km/h | 14626m | -2.9m/s | -52.6°C | 1.2% | 134.3hPa | 2.6V | 18:12:15 | 01:47:42 | 00:00:00 | |
| DB0DAN | 2026-08-31 05:57:25 | 52.55426 | 15.14345 | 57° | 84km/h | 14632m | -2.8m/s | -52.6°C | 1.7% | 134.17hPa | 2.6V | 00:00:00 | 00:00:00 | 00:00:00 | |
| DM0DOS-11 | 2026-08-31 05:57:20 | 52.55367 | 15.14153 | 67° | 84km/h | 14649m | -2.8m/s | -52.8°C | 5% | 133.8hPa | 2.6V | 08:30:00 | 01:47:34 | 00:00:00 | |
| SONDE2-12 | 2026-08-31 05:57:20 | 52.55375 | 15.14185 | 66° | 84km/h | 14647m | -3.1m/s | -52.7°C | 2.1% | 133.9hPa | 2.7V | 00:00:00 | 00:00:00 | 00:00:00 | |
| AA1-15 | 2026-08-31 05:57:16 | 52.55344 | 15.14057 | 69° | 78km/h | 14658m | -2.8m/s | -52.8°C | 1.3% | 133.6hPa | 2.7V | 18:12:15 | 01:47:31 | 00:00:00 | |
| KRY50SP-1 | 2026-08-31 05:57:15 | 52.55343 | 15.14057 | 70° | 78km/h | 14658m | -2.8m/s | -52.8°C | 1.7% | 133.6hPa | 2.7V | 00:00:00 | 00:00:00 | 00:00:00 | |
| DB0DAN | 2026-08-31 05:57:10 | 52.55310 | 15.13882 | 71° | 64km/h | 14675m | -2.7m/s | -53°C | 1.6% | 133.27hPa | 2.7V | 00:00:00 | 00:00:00 | 00:00:00 | |
| AA1-15 | 2026-08-31 05:57:05 | 52.55276 | 15.13763 | 58° | 66km/h | 14689m | -3m/s | -53.1°C | 1.2% | 133hPa | 2.7V | 18:12:15 | 01:47:20 | 00:00:00 | |
| EDDB2-11 | 2026-08-31 05:57:04 | 52.55266 | 15.13740 | 54° | 68km/h | 14692m | -2.6m/s | -53.1°C | 1.6% | 133.0hPa | 2.7V | 00:00:00 | 00:00:00 | 00:00:00 | |
| DL2RXE-15 | 2026-08-31 05:57:03 | 52.55266 | 15.13740 | 56° | 69km/h | 14692m | -2.6m/s | -53.1°C | 1.6% | 133.0hPa | 2.7V | 00:00:00 | 00:00:00 | 00:00:00 | |
| DM0DOS-11 | 2026-08-31 05:57:00 | 52.55212 | 15.13606 | 58° | 84km/h | 14706m | -2.5m/s | -53.1°C | 5% | 132.6hPa | 2.7V | 08:30:00 | 01:47:14 | 00:00:00 | |
| SP3WXH-11 | 2026-08-31 05:56:56 | 52.55180 | 15.13515 | 62° | 82km/h | 14713m | -2.5m/s | -53.1°C | 1.7% | 132.5hPa | 2.6V | 00:00:00 | 00:00:00 | 00:00:00 | |
| DB0DAN | 2026-08-31 05:56:55 | 52.55171 | 15.13485 | 65° | 77km/h | 14716m | -2.3m/s | -53.1°C | 1.6% | 132.43hPa | 2.6V | 00:00:00 | 00:00:00 | 00:00:00 | |
| OE3JTB-15 | 2026-08-31 05:56:55 | 52.55171 | 15.13484 | 65° | 73km/h | 14716m | -2.3m/s | -53.1°C | 5.0% | 132.4hPa | 2.5V | 00:00:00 | 01:47:10 | 00:00:00 | |
| DM0DOS-11 | 2026-08-31 05:56:54 | 52.55128 | 15.13308 | 69° | 77km/h | 14731m | -2.4m/s | -53.2°C | 5% | 132.1hPa | 2.5V | 08:30:00 | 01:47:04 | 00:00:00 | |
| AA1-15 | 2026-08-31 05:56:54 | 52.55163 | 15.13455 | 66° | 78km/h | 14718m | -2.3m/s | -53.1°C | 1.2% | 132.4hPa | 2.6V | 18:12:15 | 01:47:09 | 00:00:00 | |
| SONDE2-12 | 2026-08-31 05:56:49 | 52.55128 | 15.13308 | 69° | 75km/h | 14731m | -2.4m/s | -53.2°C | 2.0% | 132.1hPa | 2.6V | 00:00:00 | 00:00:00 | 00:00:00 | |
| SONCRA | 2026-08-31 05:56:47 | 52.55116 | 15.13247 | 71° | 77km/h | 14736m | -2.8m/s | -53.2°C | 1.5% | 132.0hPa | 2.6V | 00:00:00 | 00:00:00 | 00:00:00 | |
| EDDB2-12 | 2026-08-31 05:56:46 | 52.55105 | 15.13185 | 75° | 77km/h | 14741m | -3.0m/s | -53.2°C | 1.5% | 131.9hPa | 2.6V | 00:00:00 | 00:00:00 | 00:00:00 | |
| AA1-15 | 2026-08-31 05:56:43 | 52.55096 | 15.13124 | 77° | 75km/h | 14747m | -3.1m/s | -53.2°C | 1% | 131.7hPa | 2.6V | 18:12:15 | 01:46:58 | 00:00:00 | |
| KRY50SP-1 | 2026-08-31 05:56:42 | 52.55096 | 15.13124 | 78° | 75km/h | 14747m | -3.1m/s | -53.2°C | 1.5% | 131.7hPa | 2.7V | 00:00:00 | 00:00:00 | 00:00:00 | |
| DB0DAN | 2026-08-31 05:56:40 | 52.55085 | 15.13040 | 76° | 62km/h | 14755m | -2.9m/s | -53.1°C | 1.5% | 131.56hPa | 2.7V | 00:00:00 | 00:00:00 | 00:00:00 | |
| DM0DOS-11 | 2026-08-31 05:56:38 | 52.55070 | 15.12966 | 67° | 62km/h | 14764m | -2.6m/s | -53.1°C | 4.9% | 131.4hPa | 2.6V | 08:30:00 | 01:46:52 | 00:00:00 | |
| AA1-15 | 2026-08-31 05:56:32 | 52.55029 | 15.12845 | 58° | 73km/h | 14777m | -2.7m/s | -53.1°C | 1% | 131.1hPa | 2.7V | 18:12:15 | 01:46:47 | 00:00:00 | |
| KRY50SP-1 | 2026-08-31 05:56:31 | 52.55029 | 15.12845 | 59° | 73km/h | 14777m | -2.7m/s | -53.1°C | 1.6% | 131.1hPa | 2.7V | 00:00:00 | 00:00:00 | 00:00:00 | |
| DM0DOS-11 | 2026-08-31 05:56:28 | 52.54976 | 15.12708 | 58° | 84km/h | 14790m | -2.7m/s | -53°C | 4.8% | 130.8hPa | 2.7V | 08:30:00 | 01:46:42 | 00:00:00 | |
| DB0DAN | 2026-08-31 05:56:25 | 52.54954 | 15.12646 | 61° | 84km/h | 14796m | -3.1m/s | -53°C | 1.4% | 130.69hPa | 2.6V | 00:00:00 | 00:00:00 | 00:00:00 | |
| AA1-15 | 2026-08-31 05:56:21 | 52.54916 | 15.12510 | 70° | 89km/h | 14808m | -2.6m/s | -53°C | 0.9% | 130.5hPa | 2.7V | 18:12:15 | 01:46:36 | 00:00:00 | |
| KRY50SP-1 | 2026-08-31 05:56:20 | 52.54916 | 15.12510 | 71° | 89km/h | 14808m | -2.6m/s | -53.0°C | 1.5% | 130.5hPa | 2.6V | 00:00:00 | 00:00:00 | 00:00:00 | |
| DM0DOS-11 | 2026-08-31 05:56:18 | 52.54891 | 15.12377 | 75° | 77km/h | 14819m | -2.9m/s | -52.9°C | 4.8% | 130.2hPa | 2.6V | 08:30:00 | 01:46:32 | 00:00:00 | |
| SONDE2-12 | 2026-08-31 05:56:18 | 52.54896 | 15.12408 | 74° | 80km/h | 14816m | -2.4m/s | -52.9°C | 1.8% | 130.3hPa | 2.7V | 00:00:00 | 00:00:00 | 00:00:00 | |
| AA1-15 | 2026-08-31 05:56:10 | 52.54850 | 15.12188 | 62° | 66km/h | 14838m | -2.6m/s | -52.7°C | 0.9% | 129.9hPa | 2.7V | 18:12:15 | 01:46:25 | 00:00:00 | |
| DB0DAN | 2026-08-31 05:56:10 | 52.54850 | 15.12188 | 62° | 64km/h | 14838m | -2.6m/s | -52.7°C | 1.5% | 129.86hPa | 2.7V | 00:00:00 | 00:00:00 | 00:00:00 | |
| DM0DOS-11 | 2026-08-31 05:56:08 | 52.54823 | 15.12117 | 55° | 69km/h | 14846m | -3m/s | -52.8°C | 4.7% | 129.7hPa | 2.6V | 08:30:00 | 01:46:22 | 00:00:00 | |
| AA1-15 | 2026-08-31 05:55:59 | 52.54728 | 15.11898 | 58° | 93km/h | 14869m | -2.9m/s | -52.8°C | 0.8% | 129.2hPa | 2.6V | 18:12:15 | 01:46:14 | 00:00:00 | |
| DM0DOS-11 | 2026-08-31 05:55:58 | 52.54704 | 15.11831 | 62° | 95km/h | 14875m | -2.8m/s | -52.7°C | 4.7% | 129.1hPa | 2.7V | 08:30:00 | 01:46:12 | 00:00:00 | |
| S3001 | 2026-08-31 05:55:58 | 52.54716 | 15.11865 | 59° | 93km/h | 14872m | -2.9m/s | -52.7°C | 1.4% | 129.2hPa | 2.5V | 00:00:00 | 00:00:00 | 00:00:00 | |
| DB0DAN | 2026-08-31 05:55:55 | 52.54685 | 15.11760 | 68° | 89km/h | 14880m | -3m/s | -52.8°C | 1.5% | 129hPa | 2.5V | 00:00:00 | 00:00:00 | 00:00:00 | |
| SP3WXH-11 | 2026-08-31 05:55:54 | 52.54676 | 15.11724 | 70° | 91km/h | 14883m | -2.8m/s | -52.8°C | 1.5% | 128.9hPa | 2.7V | 00:00:00 | 00:00:00 | 00:00:00 | |
| DB0NH | 2026-08-31 05:55:53 | 52.54669 | 15.11688 | 73° | 77km/h | 14886m | -2.7m/s | -52.8°C | 4.7% | 128.9hPa | 2.7V | 00:00:00 | 01:46:08 | 00:00:00 | |
| DM0DOS-11 | 2026-08-31 05:55:48 | 52.54634 | 15.11506 | 65° | 66km/h | 14904m | -3m/s | -52.6°C | 4.6% | 128.5hPa | 2.7V | 08:30:00 | 01:46:02 | 00:00:00 | |
| AA1-15 | 2026-08-31 05:55:48 | 52.54641 | 15.11531 | 71° | 69km/h | 14901m | -2.8m/s | -52.7°C | 0.9% | 128.6hPa | 2.6V | 18:12:15 | 01:46:03 | 00:00:00 | |
| SONDE2-12 | 2026-08-31 05:55:47 | 52.54634 | 15.11506 | 66° | 64km/h | 14904m | -3.0m/s | -52.6°C | 1.8% | 128.5hPa | 2.7V | 00:00:00 | 00:00:00 | 00:00:00 | |
| SP6BVK | 2026-08-31 05:55:45 | 52.54627 | 15.11481 | 65° | 64km/h | 14907m | -3.0m/s | -52.6°C | 1.4% | 128.5hPa | 2.7V | 00:00:00 | 00:00:00 | 00:00:00 | |
| 13BRC | 2026-08-31 05:55:44 | 52.54620 | 15.11458 | 61° | 66km/h | 14910m | -2.6m/s | -52.5°C | 1.4% | 128.5hPa | 2.7V | 00:00:00 | 00:00:00 | 00:00:00 | |
| EDDB2-12 | 2026-08-31 05:55:43 | 52.54601 | 15.11412 | 53° | 68km/h | 14916m | -3.3m/s | -52.5°C | 1.4% | 128.3hPa | 2.7V | 00:00:00 | 00:00:00 | 00:00:00 | |
| KRY50SP-1 | 2026-08-31 05:55:42 | 52.54601 | 15.11412 | 54° | 69km/h | 14916m | -3.3m/s | -52.5°C | 1.4% | 128.3hPa | 2.7V | 00:00:00 | 00:00:00 | 00:00:00 | |
| DB0DAN | 2026-08-31 05:55:40 | 52.54565 | 15.11338 | 52° | 78km/h | 14925m | -3m/s | -52.5°C | 1.4% | 128.12hPa | 2.7V | 00:00:00 | 00:00:00 | 00:00:00 | |
| DM0DOS-11 | 2026-08-31 05:55:38 | 52.54527 | 15.11251 | 58° | 91km/h | 14933m | -2.8m/s | -52.5°C | 4.6% | 128hPa | 2.6V | 08:30:00 | 01:45:52 | 00:00:00 | |
| AA1-15 | 2026-08-31 05:55:37 | 52.54527 | 15.11251 | 58° | 91km/h | 14933m | -2.8m/s | -52.5°C | 0.8% | 128hPa | 2.6V | 18:12:15 | 01:45:52 | 00:00:00 | |
| SP3BTT-10 | 2026-08-31 05:55:36 | 52.54516 | 15.11219 | 61° | 68km/h | 14936m | -2.7m/s | -52.4°C | 4.7% | 127.9hPa | 2.7V | 00:00:00 | 00:00:00 | 00:00:00 | |
| DL2RXE-15 | 2026-08-31 05:55:33 | 52.54496 | 15.11151 | 68° | 88km/h | 14942m | -2.3m/s | -52.5°C | 1.5% | 127.8hPa | 2.7V | 00:00:00 | 00:00:00 | 00:00:00 | |
| EDDB2-11 | 2026-08-31 05:55:31 | 52.54473 | 15.11053 | 70° | 80km/h | 14949m | -2.8m/s | -52.5°C | 1.5% | 127.7hPa | 2.7V | 00:00:00 | 00:00:00 | 00:00:00 | |
| MECKS9 | 2026-08-31 05:55:30 | 52.54473 | 15.11053 | 72° | 82km/h | 14949m | -2.8m/s | -52.5°C | 1.5% | 127.7hPa | 2.7V | 00:00:00 | 00:00:00 | 00:00:00 | |
| DM0DOS-11 | 2026-08-31 05:55:28 | 52.54449 | 15.10934 | 71° | 69km/h | 14959m | -2.7m/s | -52.5°C | 4.6% | 127.4hPa | 2.7V | 08:30:00 | 01:45:42 | 00:00:00 | |
| AA1-15 | 2026-08-31 05:55:27 | 52.54449 | 15.10934 | 71° | 69km/h | 14959m | -2.7m/s | -52.6°C | 0.9% | 127.4hPa | 2.7V | 18:12:15 | 01:45:42 | 00:00:00 | |
| DB0DAN | 2026-08-31 05:55:25 | 52.54438 | 15.10882 | 69° | 60km/h | 14964m | -2.6m/s | -52.6°C | 1.4% | 127.31hPa | 2.6V | 00:00:00 | 00:00:00 | 00:00:00 | |
| 13BRC | 2026-08-31 05:55:24 | 52.54438 | 15.10882 | 70° | 64km/h | 14965m | -2.6m/s | -52.6°C | 1.4% | 127.3hPa | 2.6V | 00:00:00 | 00:00:00 | 00:00:00 | |
| DB0NH | 2026-08-31 05:55:23 | 52.54425 | 15.10834 | 65° | 71km/h | 14971m | -2.9m/s | -52.6°C | 4.6% | 127.2hPa | 2.6V | 00:00:00 | 01:45:38 | 00:00:00 | |
| KRY50SP-1 | 2026-08-31 05:55:20 | 52.54411 | 15.10789 | 58° | 62km/h | 14977m | -2.8m/s | -52.6°C | 1.4% | 127.1hPa | 2.6V | 00:00:00 | 00:00:00 | 00:00:00 | |
| MECKS9 | 2026-08-31 05:55:19 | 52.54402 | 15.10767 | 56° | 68km/h | 14979m | -2.6m/s | -52.5°C | 1.4% | 127.0hPa | 2.6V | 00:00:00 | 00:00:00 | 00:00:00 | |
| DM0DOS-11 | 2026-08-31 05:55:18 | 52.54370 | 15.10695 | 54° | 80km/h | 14987m | -2.5m/s | -52.5°C | 4.6% | 126.9hPa | 2.6V | 08:30:00 | 01:45:32 | 00:00:00 | |
| AA1-15 | 2026-08-31 05:55:16 | 52.54358 | 15.10667 | 56° | 82km/h | 14989m | -2.9m/s | -52.5°C | 0.8% | 126.8hPa | 2.7V | 18:12:15 | 01:45:31 | 00:00:00 | |
| SONDE2-12 | 2026-08-31 05:55:16 | 52.54358 | 15.10667 | 55° | 80km/h | 14989m | -2.9m/s | -52.5°C | 1.8% | 126.8hPa | 2.7V | 00:00:00 | 00:00:00 | 00:00:00 | |
| KRY50SP-1 | 2026-08-31 05:55:15 | 52.54358 | 15.10667 | 57° | 82km/h | 14989m | -2.9m/s | -52.5°C | 1.4% | 126.8hPa | 2.7V | 00:00:00 | 00:00:00 | 00:00:00 | |
| SONCRA | 2026-08-31 05:55:14 | 52.54336 | 15.10609 | 58° | 84km/h | 14995m | -2.7m/s | -52.6°C | 1.4% | 126.7hPa | 2.7V | 00:00:00 | 00:00:00 | 00:00:00 | |
| DB0DAN | 2026-08-31 05:55:10 | 52.54297 | 15.10482 | 69° | 82km/h | 15005m | -2.8m/s | -52.5°C | 1.5% | 126.51hPa | 2.7V | 00:00:00 | 00:00:00 | 00:00:00 | |
| DM0DOS-11 | 2026-08-31 05:55:08 | 52.54277 | 15.10385 | 74° | 77km/h | 15012m | -2.7m/s | -52.5°C | 4.8% | 126.3hPa | 2.6V | 08:30:00 | 01:45:22 | 00:00:00 | |
| AA1-15 | 2026-08-31 05:55:05 | 52.54267 | 15.10325 | 76° | 73km/h | 15017m | -2.9m/s | -52.5°C | 1% | 126.3hPa | 2.6V | 18:12:15 | 01:45:20 | 00:00:00 | |
| 13BRC | 2026-08-31 05:55:04 | 52.54267 | 15.10325 | 77° | 75km/h | 15017m | -2.9m/s | -52.5°C | 1.5% | 126.3hPa | 2.7V | 00:00:00 | 00:00:00 | 00:00:00 | |
| EDDB2-11 | 2026-08-31 05:55:00 | 52.54247 | 15.10194 | 73° | 55km/h | 15031m | -3.4m/s | -52.6°C | 1.4% | 125.9hPa | 2.7V | 00:00:00 | 00:00:00 | 00:00:00 | |
| DM0DOS-11 | 2026-08-31 05:54:58 | 52.54231 | 15.10132 | 61° | 53km/h | 15041m | -3.5m/s | -52.7°C | 4.5% | 125.8hPa | 2.7V | 08:30:00 | 01:45:12 | 00:00:00 | |
| S3001 | 2026-08-31 05:54:56 | 52.54215 | 15.10091 | 54° | 60km/h | 15047m | -3.3m/s | -52.7°C | 1.4% | 125.7hPa | 2.6V | 00:00:00 | 00:00:00 | 00:00:00 | |
| DB0DAN | 2026-08-31 05:54:55 | 52.54215 | 15.10091 | 55° | 58km/h | 15047m | -3.3m/s | -52.7°C | 1.4% | 125.65hPa | 2.6V | 00:00:00 | 00:00:00 | 00:00:00 | |
| AA1-15 | 2026-08-31 05:54:55 | 52.54215 | 15.10091 | 55° | 60km/h | 15047m | -3.3m/s | -52.7°C | 0.9% | 125.7hPa | 2.6V | 18:12:15 | 01:45:10 | 00:00:00 | |
| SP3WXH-11 | 2026-08-31 05:54:52 | 52.54186 | 15.10024 | 55° | 73km/h | 15056m | -3.0m/s | -52.7°C | 1.5% | 125.5hPa | 2.7V | 00:00:00 | 00:00:00 | 00:00:00 | |
| SP3BTT-10 | 2026-08-31 05:54:51 | 52.54176 | 15.09998 | 57° | 60km/h | 15059m | -2.7m/s | -52.7°C | 4.7% | 125.4hPa | 2.7V | 00:00:00 | 00:00:00 | 08:30:00 | |
| KRY50SP-1 | 2026-08-31 05:54:49 | 52.54166 | 15.09970 | 61° | 78km/h | 15061m | -2.7m/s | -52.7°C | 1.5% | 125.4hPa | 2.6V | 00:00:00 | 00:00:00 | 00:00:00 | |
| DM0DOS-11 | 2026-08-31 05:54:48 | 52.54140 | 15.09879 | 68° | 82km/h | 15069m | -2.6m/s | -52.8°C | 4.8% | 125.3hPa | 2.6V | 08:30:00 | 01:45:02 | 00:00:00 | |
| SONDE2-12 | 2026-08-31 05:54:45 | 52.54127 | 15.09815 | 75° | 78km/h | 15075m | -2.7m/s | -52.8°C | 1.9% | 125.2hPa | 2.7V | 00:00:00 | 00:00:00 | 00:00:00 | |
| AA1-15 | 2026-08-31 05:54:44 | 52.54122 | 15.09784 | 76° | 77km/h | 15077m | -2.8m/s | -52.8°C | 1% | 125.1hPa | 2.7V | 18:12:15 | 01:44:59 | 00:00:00 | |
| SONCRA | 2026-08-31 05:54:43 | 52.54117 | 15.09753 | 78° | 75km/h | 15080m | -3.2m/s | -52.8°C | 1.5% | 125.1hPa | 2.7V | 00:00:00 | 00:00:00 | 00:00:00 | |
| DB0DAN | 2026-08-31 05:54:40 | 52.54108 | 15.09669 | 80° | 60km/h | 15089m | -2.9m/s | -52.8°C | 1.5% | 124.86hPa | 2.7V | 00:00:00 | 00:00:00 | 00:00:00 | |
| AA1-15 | 2026-08-31 05:54:33 | 52.54082 | 15.09523 | 60° | 51km/h | 15110m | -3.1m/s | -52.9°C | 0.9% | 124.5hPa | 2.7V | 18:12:15 | 01:44:48 | 00:00:00 | |
| KRY50SP-1 | 2026-08-31 05:54:32 | 52.54082 | 15.09523 | 60° | 51km/h | 15110m | -3.1m/s | -52.9°C | 1.4% | 124.5hPa | 2.7V | 00:00:00 | 00:00:00 | 00:00:00 | |
| DM0DOS-11 | 2026-08-31 05:54:28 | 52.54031 | 15.09385 | 64° | 75km/h | 15127m | -3m/s | -52.9°C | 4.8% | 124.2hPa | 2.7V | 08:30:00 | 01:44:42 | 00:00:00 | |
| KRY50SP-1 | 2026-08-31 05:54:27 | 52.54040 | 15.09412 | 62° | 73km/h | 15124m | -3.2m/s | -52.9°C | 1.5% | 124.2hPa | 2.6V | 00:00:00 | 00:00:00 | 00:00:00 | |
| DB0DAN | 2026-08-31 05:54:25 | 52.54016 | 15.09327 | 69° | 73km/h | 15133m | -2.6m/s | -52.9°C | 1.5% | 124.04hPa | 2.6V | 00:00:00 | 00:00:00 | 00:00:00 | |
| AA1-15 | 2026-08-31 05:54:22 | 52.54000 | 15.09239 | 76° | 73km/h | 15141m | -2.7m/s | -53°C | 1% | 123.9hPa | 2.7V | 18:12:15 | 01:44:37 | 00:00:00 | |
| SP3WXH-11 | 2026-08-31 05:54:21 | 52.53996 | 15.09210 | 79° | 71km/h | 15143m | -2.9m/s | -53.0°C | 1.6% | 123.9hPa | 2.7V | 00:00:00 | 00:00:00 | 00:00:00 | |
| DB0NH | 2026-08-31 05:54:20 | 52.53993 | 15.09181 | 82° | 60km/h | 15146m | -2.8m/s | -53.0°C | 4.9% | 123.8hPa | 2.7V | 00:00:00 | 01:44:35 | 00:00:00 | |
| DM0DOS-11 | 2026-08-31 05:54:18 | 52.53987 | 15.09099 | 84° | 64km/h | 15155m | -2.9m/s | -53.1°C | 4.8% | 123.6hPa | 2.7V | 08:30:00 | 01:44:32 | 00:00:00 | |
| SONDE2-12 | 2026-08-31 05:54:14 | 52.53984 | 15.09025 | 85° | 53km/h | 15165m | -3.0m/s | -53.1°C | 1.8% | 123.5hPa | 2.6V | 00:00:00 | 00:00:00 | 00:00:00 | |
| AA1-15 | 2026-08-31 05:54:11 | 52.53980 | 15.08963 | 80° | 46km/h | 15174m | -3.5m/s | -53.2°C | 1% | 123.3hPa | 2.6V | 18:12:15 | 01:44:26 | 00:00:00 | |
| DB0DAN | 2026-08-31 05:54:10 | 52.53978 | 15.08944 | 73° | 46km/h | 15177m | -2.7m/s | -53.2°C | 1.5% | 123.22hPa | 2.7V | 00:00:00 | 00:00:00 | 00:00:00 | |
| DM0DOS-11 | 2026-08-31 05:54:08 | 52.53962 | 15.08887 | 59° | 53km/h | 15184m | -2.4m/s | -53.2°C | 4.8% | 123.1hPa | 2.6V | 08:30:00 | 01:44:22 | 00:00:00 | |
| AA1-15 | 2026-08-31 05:54:01 | 52.53917 | 15.08747 | 69° | 69km/h | 15199m | -2.8m/s | -53.3°C | 1.2% | 122.8hPa | 2.6V | 18:12:15 | 01:44:16 | 00:00:00 | |
| KRY50SP-1 | 2026-08-31 05:54:00 | 52.53917 | 15.08747 | 69° | 69km/h | 15200m | -2.8m/s | -53.3°C | 1.6% | 122.8hPa | 2.7V | 00:00:00 | 00:00:00 | 00:00:00 | |
| DM0DOS-11 | 2026-08-31 05:53:58 | 52.53899 | 15.08635 | 81° | 69km/h | 15210m | -2.8m/s | -53.3°C | 5.1% | 122.5hPa | 2.7V | 08:30:00 | 01:44:12 | 00:00:00 | |
| EDDB2-11 | 2026-08-31 05:53:58 | 52.53902 | 15.08663 | 77° | 68km/h | 15207m | -2.7m/s | -53.3°C | 1.6% | 122.6hPa | 2.6V | 00:00:00 | 00:00:00 | 00:00:00 | |
| DB0DAN | 2026-08-31 05:53:55 | 52.53896 | 15.08580 | 85° | 62km/h | 15216m | -2.5m/s | -53.3°C | 1.6% | 122.47hPa | 2.6V | 00:00:00 | 00:00:00 | 00:00:00 | |
| AA1-15 | 2026-08-31 05:53:50 | 52.53893 | 15.08454 | 91° | 53km/h | 15230m | -3.1m/s | -53.4°C | 1.1% | 122.2hPa | 2.6V | 18:12:15 | 01:44:05 | 00:00:00 | |
| DB0NH | 2026-08-31 05:53:50 | 52.53893 | 15.08454 | 92° | 51km/h | 15230m | -3.1m/s | -53.3°C | 4.9% | 122.1hPa | 2.7V | 00:00:00 | 01:44:05 | 00:00:00 | |
| DM0DOS-11 | 2026-08-31 05:53:48 | 52.53893 | 15.08395 | 86° | 42km/h | 15241m | -3.5m/s | -53.4°C | 4.8% | 122hPa | 2.7V | 08:30:00 | 01:44:02 | 00:00:00 | |
| SONDE2-12 | 2026-08-31 05:53:43 | 52.53882 | 15.08328 | 64° | 46km/h | 15252m | -2.7m/s | -53.3°C | 1.8% | 121.8hPa | 2.7V | 00:00:00 | 00:00:00 | 00:00:00 | |
| KRY50SP-1 | 2026-08-31 05:53:42 | 52.53882 | 15.08328 | 66° | 47km/h | 15252m | -2.7m/s | -53.3°C | 1.5% | 121.8hPa | 2.7V | 00:00:00 | 00:00:00 | 00:00:00 | |
| DB0DAN | 2026-08-31 05:53:40 | 52.53864 | 15.08271 | 59° | 55km/h | 15261m | -3.2m/s | -53.3°C | 1.5% | 121.58hPa | 2.7V | 00:00:00 | 00:00:00 | 00:00:00 | |
| AA1-15 | 2026-08-31 05:53:39 | 52.53856 | 15.08250 | 60° | 64km/h | 15263m | -2.9m/s | -53.3°C | 1% | 121.6hPa | 2.7V | 18:12:15 | 01:43:54 | 00:00:00 | |
| DM0DOS-11 | 2026-08-31 05:53:38 | 52.53841 | 15.08201 | 64° | 68km/h | 15270m | -3.2m/s | -53.4°C | 4.9% | 121.5hPa | 2.6V | 08:30:00 | 01:43:52 | 00:00:00 | |
| KRY50SP-1 | 2026-08-31 05:53:37 | 52.53849 | 15.08226 | 64° | 66km/h | 15267m | -3.2m/s | -53.3°C | 1.5% | 121.5hPa | 2.6V | 00:00:00 | 00:00:00 | 00:00:00 | |
| SONDE2-11 | 2026-08-31 05:53:33 | 52.53821 | 15.08094 | 81° | 68km/h | 15282m | -3.2m/s | -53.4°C | 1.6% | 121.2hPa | 2.6V | 00:00:00 | 00:00:00 | 00:00:00 | |
| KRY50SP-1 | 2026-08-31 05:53:31 | 52.53819 | 15.08067 | 86° | 64km/h | 15285m | -2.6m/s | -53.5°C | 1.6% | 121.2hPa | 2.6V | 00:00:00 | 00:00:00 | 00:00:00 | |
| MECKS9 | 2026-08-31 05:53:29 | 52.53819 | 15.08016 | 91° | 58km/h | 15291m | -2.9m/s | -53.5°C | 1.6% | 121.1hPa | 2.6V | 00:00:00 | 00:00:00 | 00:00:00 | |
| DM0DOS-11 | 2026-08-31 05:53:28 | 52.53821 | 15.07949 | 95° | 49km/h | 15299m | -3m/s | -53.6°C | 4.9% | 120.9hPa | 2.6V | 08:30:00 | 01:43:42 | 00:00:00 | |
| AA1-15 | 2026-08-31 05:53:28 | 52.53820 | 15.07970 | 94° | 53km/h | 15296m | -3m/s | -53.6°C | 1.1% | 120.9hPa | 2.7V | 18:12:15 | 01:43:43 | 00:00:00 | |
| DB0DAN | 2026-08-31 05:53:25 | 52.53823 | 15.07911 | 94° | 42km/h | 15306m | -3.6m/s | -53.7°C | 1.5% | 120.73hPa | 2.6V | 00:00:00 | 00:00:00 | 00:00:00 | |
| S3001 | 2026-08-31 05:53:23 | 52.53823 | 15.07860 | 77° | 38km/h | 15316m | -3.0m/s | -53.7°C | 1.6% | 120.5hPa | 2.6V | 00:00:00 | 00:00:00 | 00:00:00 | |
| SP3BTT-10 | 2026-08-31 05:53:21 | 52.53820 | 15.07844 | 74° | 38km/h | 15318m | -3.3m/s | -53.7°C | 5.0% | 120.5hPa | 2.6V | 00:00:00 | 00:00:00 | 00:00:00 | |
| DB0NH | 2026-08-31 05:53:20 | 52.53816 | 15.07827 | 67° | 51km/h | 15321m | -2.5m/s | -53.7°C | 5.0% | 120.4hPa | 2.6V | 00:00:00 | 01:43:35 | 00:00:00 | |
| DM0DOS-11 | 2026-08-31 05:53:18 | 52.53801 | 15.07769 | 65° | 55km/h | 15330m | -3.3m/s | -53.9°C | 5.2% | 120.3hPa | 2.7V | 08:30:00 | 01:43:32 | 00:00:00 | |
| AA1-15 | 2026-08-31 05:53:17 | 52.53801 | 15.07769 | 65° | 55km/h | 15330m | -3.3m/s | -53.9°C | 1.3% | 120.3hPa | 2.7V | 18:12:15 | 01:43:32 | 00:00:00 | |
| SONDE2-12 | 2026-08-31 05:53:12 | 52.53774 | 15.07649 | 77° | 62km/h | 15346m | -3.1m/s | -53.9°C | 2.1% | 120.0hPa | 2.7V | 00:00:00 | 00:00:00 | 00:00:00 | |
| DB0DAN | 2026-08-31 05:53:10 | 52.53770 | 15.07598 | 86° | 60km/h | 15352m | -3m/s | -53.9°C | 1.7% | 119.86hPa | 2.7V | 00:00:00 | 00:00:00 | 00:00:00 | |
| AA1-15 | 2026-08-31 05:53:06 | 52.53771 | 15.07502 | 99° | 53km/h | 15364m | -3.3m/s | -53.8°C | 1.4% | 119.7hPa | 2.7V | 18:12:15 | 01:43:21 | 00:00:00 | |
| KRY50SP-1 | 2026-08-31 05:53:04 | 52.53773 | 15.07481 | 102° | 51km/h | 15368m | -3.4m/s | -53.8°C | 1.7% | 119.6hPa | 2.7V | 00:00:00 | 00:00:00 | 00:00:00 | |
| SP6BVK | 2026-08-31 05:53:03 | 52.53775 | 15.07460 | 101° | 47km/h | 15372m | -3.3m/s | -53.8°C | 1.7% | 119.5hPa | 2.7V | 00:00:00 | 00:00:00 | 00:00:00 | |
| SONDE2-11 | 2026-08-31 05:53:02 | 52.53780 | 15.07426 | 103° | 38km/h | 15379m | -3.8m/s | -53.9°C | 1.7% | 119.4hPa | 2.7V | 00:00:00 | 00:00:00 | 00:00:00 | |
| EDDB2-11 | 2026-08-31 05:52:56 | 52.53772 | 15.07342 | 61° | 44km/h | 15400m | -3.1m/s | -53.8°C | 1.6% | 119.0hPa | 2.7V | 00:00:00 | 00:00:00 | 00:00:00 | |
| DB0DAN | 2026-08-31 05:52:55 | 52.53766 | 15.07325 | 60° | 47km/h | 15403m | -3.2m/s | -53.8°C | 1.6% | 118.95hPa | 2.7V | 00:00:00 | 00:00:00 | 00:00:00 | |
| AA1-15 | 2026-08-31 05:52:55 | 52.53766 | 15.07325 | 60° | 49km/h | 15403m | -3.2m/s | -53.8°C | 1.2% | 119hPa | 2.7V | 18:12:15 | 01:43:10 | 00:00:00 | |
| S3001 | 2026-08-31 05:52:52 | 52.53741 | 15.07243 | 68° | 60km/h | 15417m | -3.4m/s | -53.6°C | 1.7% | 118.7hPa | 2.6V | 00:00:00 | 00:00:00 | 00:00:00 | |
| DB0NH | 2026-08-31 05:52:50 | 52.53736 | 15.07219 | 74° | 47km/h | 15420m | -3.3m/s | -53.6°C | 5.2% | 118.6hPa | 2.6V | 00:00:00 | 01:43:05 | 00:00:00 | |
| OE3JTB-15 | 2026-08-31 05:52:49 | 52.53732 | 15.07195 | 78° | 46km/h | 15424m | -3.5m/s | -53.6°C | 5.2% | 118.5hPa | 2.6V | 00:00:00 | 01:43:04 | 00:00:00 | |
| DM0DOS-11 | 2026-08-31 05:52:48 | 52.53728 | 15.07127 | 89° | 49km/h | 15434m | -2.9m/s | -53.7°C | 5.3% | 118.4hPa | 2.6V | 08:30:00 | 01:43:01 | 00:00:00 | |
| SP3WXH-11 | 2026-08-31 05:52:48 | 52.53730 | 15.07171 | 82° | 57km/h | 15427m | -3.0m/s | -53.7°C | 1.7% | 118.5hPa | 2.7V | 00:00:00 | 00:00:00 | 00:00:00 | |
| AA1-15 | 2026-08-31 05:52:44 | 52.53728 | 15.07089 | 91° | 44km/h | 15440m | -3.2m/s | -53.7°C | 1.5% | 118.3hPa | 2.7V | 18:12:15 | 01:42:59 | 00:00:00 | |
| SONDE2-12 | 2026-08-31 05:52:41 | 52.53728 | 15.07041 | 83° | 31km/h | 15450m | -3.3m/s | -53.7°C | 2.2% | 118.1hPa | 2.6V | 00:00:00 | 00:00:00 | 00:00:00 | |
| DB0DAN | 2026-08-31 05:52:40 | 52.53727 | 15.07028 | 82° | 27km/h | 15453m | -3.6m/s | -53.7°C | 1.7% | 118.06hPa | 2.6V | 00:00:00 | 00:00:00 | 00:00:00 | |
| DF2AP-13 | 2026-08-31 05:52:39 | 52.53725 | 15.07016 | 75° | 42km/h | 15456m | -3.5m/s | -53.7°C | 5.3% | 117.9hPa | 2.7V | 00:00:00 | 01:42:54 | 08:30:00 | |
| 13BRC | 2026-08-31 05:52:38 | 52.53725 | 15.07016 | 76° | 29km/h | 15456m | -3.6m/s | -53.8°C | 1.7% | 118.0hPa | 2.7V | 00:00:00 | 00:00:00 | 00:00:00 | |
| EDDB2-12 | 2026-08-31 05:52:37 | 52.53720 | 15.06994 | 59° | 26km/h | 15463m | -4.1m/s | -53.8°C | 1.7% | 117.9hPa | 2.7V | 00:00:00 | 00:00:00 | 00:00:00 | |
| DM0DOS-11 | 2026-08-31 05:52:36 | 52.53680 | 15.06920 | 50° | 51km/h | 15486m | -3.7m/s | -53.6°C | 4.9% | 117.4hPa | 2.7V | 08:30:00 | 01:42:46 | 00:00:00 | |
| AA1-15 | 2026-08-31 05:52:33 | 52.53697 | 15.06949 | 46° | 46km/h | 15479m | -3.4m/s | -53.7°C | 1.2% | 117.6hPa | 2.6V | 18:12:15 | 01:42:48 | 00:00:00 | |
| MECKS9 | 2026-08-31 05:52:32 | 52.53697 | 15.06949 | 47° | 46km/h | 15479m | -3.4m/s | -53.7°C | 1.6% | 117.6hPa | 2.7V | 00:00:00 | 00:00:00 | 00:00:00 | |
| SONDE2-11 | 2026-08-31 05:52:31 | 52.53681 | 15.06920 | 50° | 51km/h | 15486m | -3.7m/s | -53.6°C | 1.6% | 117.4hPa | 2.7V | 00:00:00 | 00:00:00 | 00:00:00 | |
| DM0DOS-11 | 2026-08-31 05:52:25 | 52.53635 | 15.06702 | 78° | 33km/h | 15524m | -3.3m/s | -53.6°C | 5.2% | 116.8hPa | 2.7V | 08:30:00 | 01:42:35 | 00:00:00 | |
| DB0DAN | 2026-08-31 05:52:25 | 52.53644 | 15.06792 | 80° | 51km/h | 15507m | -3.3m/s | -53.6°C | 1.6% | 117.06hPa | 2.7V | 00:00:00 | 00:00:00 | 00:00:00 | |
| AA1-15 | 2026-08-31 05:52:22 | 52.53638 | 15.06732 | 82° | 42km/h | 15518m | -2.9m/s | -53.7°C | 1.3% | 116.9hPa | 2.6V | 18:12:15 | 01:42:37 | 00:00:00 | |
| S3001 | 2026-08-31 05:52:21 | 52.53635 | 15.06702 | 78° | 31km/h | 15524m | -3.3m/s | -53.6°C | 1.7% | 116.8hPa | 2.7V | 00:00:00 | 00:00:00 | 00:00:00 | |
| DB0NH | 2026-08-31 05:52:20 | 52.53635 | 15.06702 | 79° | 46km/h | 15525m | -3.3m/s | -53.6°C | 5.2% | 116.7hPa | 2.7V | 00:00:00 | 01:42:35 | 00:00:00 | |
| SP3WXH-11 | 2026-08-31 05:52:17 | 52.53627 | 15.06668 | 58° | 29km/h | 15535m | -3.7m/s | -53.7°C | 1.6% | 116.6hPa | 2.7V | 00:00:00 | 00:00:00 | 00:00:00 | |
| DM0DOS-11 | 2026-08-31 05:52:15 | 52.53577 | 15.06594 | 41° | 53km/h | 15561m | -3.5m/s | -53.9°C | 5% | 116.2hPa | 2.7V | 08:30:00 | 01:42:25 | 00:00:00 | |
| DL1XH-west | 2026-08-31 05:52:14 | 52.53612 | 15.06639 | 38° | 35km/h | 15547m | -3.2m/s | -53.8°C | 1.2% | 116.4hPa | 2.7V | 18:12:15 | 01:42:29 | 00:00:00 | |
| AA1-15 | 2026-08-31 05:52:11 | 52.53586 | 15.06607 | 39° | 47km/h | 15557m | -3.4m/s | -53.8°C | 1.2% | 116.2hPa | 2.6V | 18:12:15 | 01:42:26 | 00:00:00 | |
| DB0DAN | 2026-08-31 05:52:10 | 52.53577 | 15.06594 | 42° | 51km/h | 15561m | -3.5m/s | -53.9°C | 1.6% | 116.16hPa | 2.7V | 00:00:00 | 00:00:00 | 00:00:00 | |
| SONDE2-12 | 2026-08-31 05:52:10 | 52.53567 | 15.06578 | 45° | 55km/h | 15565m | -3.6m/s | -53.9°C | 1.9% | 116.1hPa | 2.6V | 00:00:00 | 00:00:00 | 00:00:00 | |
| DF2AP-13 | 2026-08-31 05:52:09 | 52.53567 | 15.06578 | 46° | 55km/h | 15565m | -3.5m/s | -53.8°C | 4.9% | 116.0hPa | 2.6V | 00:00:00 | 01:42:24 | 00:00:00 | |
| SONCRA | 2026-08-31 05:52:08 | 52.53557 | 15.06561 | 49° | 58km/h | 15568m | -3.5m/s | -53.9°C | 1.6% | 116.0hPa | 2.6V | 00:00:00 | 00:00:00 | 00:00:00 | |
| EDDB2-12 | 2026-08-31 05:52:06 | 52.53539 | 15.06519 | 59° | 62km/h | 15575m | -3.4m/s | -53.9°C | 1.6% | 115.9hPa | 2.6V | 00:00:00 | 00:00:00 | 00:00:00 | |
| DM0DOS-11 | 2026-08-31 05:52:05 | 52.53511 | 15.06387 | 77° | 44km/h | 15596m | -3.3m/s | -54°C | 5.2% | 115.5hPa | 2.6V | 08:30:00 | 01:42:15 | 00:00:00 | |
| AA1-15 | 2026-08-31 05:52:00 | 52.53511 | 15.06387 | 78° | 44km/h | 15596m | -3.3m/s | -54°C | 1.2% | 115.5hPa | 2.6V | 18:12:15 | 01:42:15 | 00:00:00 | |
| SONDE2-11 | 2026-08-31 05:52:00 | 52.53511 | 15.06387 | 77° | 44km/h | 15596m | -3.3m/s | -54.0°C | 1.6% | 115.5hPa | 2.6V | 00:00:00 | 00:00:00 | 00:00:00 | |
| MECKS9 | 2026-08-31 05:51:58 | 52.53508 | 15.06370 | 76° | 40km/h | 15600m | -3.3m/s | -53.9°C | 1.6% | 115.5hPa | 2.6V | 00:00:00 | 00:00:00 | 00:00:00 | |
| 13BRC | 2026-08-31 05:51:56 | 52.53502 | 15.06342 | 62° | 33km/h | 15606m | -3.3m/s | -54.0°C | 1.6% | 115.3hPa | 2.6V | 00:00:00 | 00:00:00 | 00:00:00 | |
| DM0DOS-11 | 2026-08-31 05:51:55 | 52.53444 | 15.06261 | 37° | 58km/h | 15631m | -3.8m/s | -54.1°C | 5.1% | 114.9hPa | 2.6V | 08:30:00 | 01:42:05 | 00:00:00 | |
| DB0DAN | 2026-08-31 05:51:55 | 52.53491 | 15.06320 | 45° | 35km/h | 15613m | -3.4m/s | -54°C | 1.6% | 115.24hPa | 2.6V | 00:00:00 | 00:00:00 | 00:00:00 | |
| AA1-15 | 2026-08-31 05:51:50 | 52.53444 | 15.06261 | 38° | 58km/h | 15631m | -3.8m/s | -54.1°C | 1.1% | 114.9hPa | 2.6V | 18:12:15 | 01:42:05 | 00:00:00 | |
| S3001 | 2026-08-31 05:51:50 | 52.53432 | 15.06245 | 39° | 60km/h | 15635m | -3.7m/s | -54.1°C | 1.6% | 114.9hPa | 2.7V | 00:00:00 | 00:00:00 | 00:00:00 | |
| DB0NH | 2026-08-31 05:51:48 | 52.53420 | 15.06228 | 43° | 53km/h | 15639m | -3.5m/s | -54.1°C | 5.1% | 114.7hPa | 2.7V | 00:00:00 | 01:42:03 | 00:00:00 | |
| KRY50SP-1 | 2026-08-31 05:51:47 | 52.53420 | 15.06228 | 43° | 66km/h | 15639m | -3.5m/s | -54.2°C | 1.5% | 114.8hPa | 2.6V | 00:00:00 | 00:00:00 | 00:00:00 | |
| DM0DOS-11 | 2026-08-31 05:51:45 | 52.53354 | 15.06044 | 73° | 53km/h | 15669m | -3.6m/s | -53.7°C | 4.9% | 114.2hPa | 2.6V | 08:30:00 | 01:41:55 | 00:00:00 | |
| DB0DAN | 2026-08-31 05:51:40 | 52.53354 | 15.06044 | 74° | 51km/h | 15669m | -3.6m/s | -53.7°C | 1.4% | 114.25hPa | 2.6V | 00:00:00 | 00:00:00 | 00:00:00 | |
| AA1-15 | 2026-08-31 05:51:39 | 52.53351 | 15.06024 | 73° | 47km/h | 15672m | -3.5m/s | -53.7°C | 0.9% | 114.2hPa | 2.6V | 18:12:15 | 01:41:54 | 00:00:00 | |
| SONDE2-12 | 2026-08-31 05:51:39 | 52.53347 | 15.06006 | 69° | 42km/h | 15676m | -3.5m/s | -53.7°C | 1.8% | 114.1hPa | 2.7V | 00:00:00 | 00:00:00 | 00:00:00 | |
| SONCRA | 2026-08-31 05:51:37 | 52.53343 | 15.05991 | 63° | 38km/h | 15679m | -3.5m/s | -53.7°C | 1.4% | 114.1hPa | 2.7V | 00:00:00 | 00:00:00 | 00:00:00 | |
| KRY50SP-1 | 2026-08-31 05:51:36 | 52.53343 | 15.05990 | 64° | 38km/h | 15679m | -3.5m/s | -53.7°C | 1.4% | 114.1hPa | 2.7V | 00:00:00 | 00:00:00 | 00:00:00 | |
| DM0DOS-11 | 2026-08-31 05:51:35 | 52.53285 | 15.05905 | 42° | 58km/h | 15704m | -3.4m/s | -53.8°C | 5% | 113.6hPa | 2.7V | 08:30:00 | 01:41:45 | 00:00:00 | |
| DL1XH-west | 2026-08-31 05:51:28 | 52.53263 | 15.05868 | 50° | 64km/h | 15711m | -3m/s | -53.7°C | 0.9% | 113.5hPa | 2.6V | 18:12:15 | 01:41:43 | 00:00:00 | |
| DB0DAN | 2026-08-31 05:51:25 | 52.53236 | 15.05799 | 62° | 62km/h | 15721m | -3.1m/s | -53.7°C | 1.4% | 113.38hPa | 2.7V | 00:00:00 | 00:00:00 | 00:00:00 | |
| DL2RXE-15 | 2026-08-31 05:51:24 | 52.53236 | 15.05799 | 63° | 66km/h | 15721m | -3.1m/s | -53.7°C | 1.4% | 113.4hPa | 2.7V | 00:00:00 | 00:00:00 | 00:00:00 | |
| EDDB2-11 | 2026-08-31 05:51:23 | 52.53223 | 15.05751 | 70° | 58km/h | 15728m | -3.6m/s | -53.6°C | 1.4% | 113.2hPa | 2.7V | 00:00:00 | 00:00:00 | 00:00:00 | |
| DM0DOS-11 | 2026-08-31 05:51:20 | 52.53212 | 15.05685 | 74° | 49km/h | 15738m | -3.4m/s | -53.4°C | 4.8% | 113hPa | 2.7V | 08:30:00 | 01:41:35 | 00:00:00 | |
| AA1-15 | 2026-08-31 05:51:17 | 52.53202 | 15.05634 | 65° | 38km/h | 15748m | -3.3m/s | -53.2°C | 0.8% | 112.8hPa | 2.6V | 18:12:15 | 01:41:32 | 00:00:00 | |
| DB0NH | 2026-08-31 05:51:17 | 52.53202 | 15.05634 | 65° | 55km/h | 15749m | -3.2m/s | -53.2°C | 4.8% | 112.8hPa | 2.6V | 00:00:00 | 01:41:32 | 00:00:00 | |
| SP3WXH-11 | 2026-08-31 05:51:15 | 52.53191 | 15.05609 | 50° | 38km/h | 15755m | -3.0m/s | -53.1°C | 1.4% | 112.7hPa | 2.6V | 00:00:00 | 00:00:00 | 00:00:00 | |
| 13BRC | 2026-08-31 05:51:14 | 52.53190 | 15.05608 | 52° | 38km/h | 15756m | -3.0m/s | -53.1°C | 1.4% | 112.7hPa | 2.6V | 00:00:00 | 00:00:00 | 00:00:00 | |
| DB0DAN | 2026-08-31 05:51:10 | 52.53143 | 15.05541 | 41° | 58km/h | 15772m | -3.5m/s | -53.1°C | 1.3% | 112.45hPa | 2.6V | 00:00:00 | 00:00:00 | 00:00:00 | |
| DL1XH-west | 2026-08-31 05:51:10 | 52.53143 | 15.05541 | 41° | 62km/h | 15772m | -3.5m/s | -53.1°C | 0.8% | 112.5hPa | 2.6V | 18:12:15 | 01:41:25 | 00:00:00 | |
| SONDE2-12 | 2026-08-31 05:51:08 | 52.53107 | 15.05483 | 51° | 69km/h | 15783m | -3.7m/s | -53.0°C | 1.6% | 112.2hPa | 2.6V | 00:00:00 | 00:00:00 | 00:00:00 | |
| AA1-15 | 2026-08-31 05:51:06 | 52.53096 | 15.05459 | 53° | 73km/h | 15787m | -3.5m/s | -53°C | 0.7% | 112.2hPa | 2.6V | 18:12:15 | 01:41:21 | 00:00:00 | |
| SONCRA | 2026-08-31 05:51:06 | 52.53096 | 15.05459 | 53° | 71km/h | 15787m | -3.5m/s | -53.0°C | 1.3% | 112.2hPa | 2.6V | 00:00:00 | 00:00:00 | 00:00:00 | |
| DL2RXE-15 | 2026-08-31 05:51:05 | 52.53086 | 15.05435 | 59° | 69km/h | 15790m | -3.4m/s | -53.0°C | 1.3% | 112.1hPa | 2.6V | 00:00:00 | 00:00:00 | 00:00:00 | |
| EDDB2-12 | 2026-08-31 05:51:04 | 52.53077 | 15.05410 | 63° | 68km/h | 15794m | -3.5m/s | -53.0°C | 1.3% | 112.1hPa | 2.6V | 00:00:00 | 00:00:00 | 00:00:00 | |
| KRY50SP-1 | 2026-08-31 05:51:03 | 52.53077 | 15.05410 | 64° | 68km/h | 15794m | -3.5m/s | -53.0°C | 1.3% | 112.1hPa | 2.6V | 00:00:00 | 00:00:00 | 00:00:00 | |
| DC4HF-4 | 2026-08-31 05:51:00 | 52.53054 | 15.05296 | 74° | 47km/h | 15810m | -3.3m/s | -53.1°C | 1.3% | 111.8hPa | 2.6V | 00:00:00 | 00:00:00 | 00:00:00 | |
| SONDE2-11 | 2026-08-31 05:50:58 | 52.53050 | 15.05278 | 69° | 44km/h | 15814m | -3.5m/s | -53.1°C | 1.3% | 111.7hPa | 2.6V | 00:00:00 | 00:00:00 | 00:00:00 | |
| DB0DAN | 2026-08-31 05:50:55 | 52.53035 | 15.05233 | 50° | 42km/h | 15824m | -3.2m/s | -53.1°C | 1.3% | 111.55hPa | 2.6V | 00:00:00 | 00:00:00 | 00:00:00 | |
| AA1-15 | 2026-08-31 05:50:55 | 52.53035 | 15.05233 | 50° | 44km/h | 15824m | -3.2m/s | -53.1°C | 0.8% | 111.5hPa | 2.6V | 18:12:15 | 01:41:10 | 00:00:00 | |
| DF8AY | 2026-08-31 05:50:49 | 52.52960 | 15.05114 | 51° | 69km/h | 15847m | -3.6m/s | 0°C | 0% | 0hPa | 2.6V | 18:12:15 | 01:41:03 | 00:00:00 | |
| S3001 | 2026-08-31 05:50:47 | 52.52949 | 15.05091 | 55° | 71km/h | 15851m | -3.5m/s | -53.1°C | 1.3% | 111.1hPa | 2.6V | 00:00:00 | 00:00:00 | 00:00:00 | |
| AA1-15 | 2026-08-31 05:50:44 | 52.52924 | 15.05012 | 68° | 69km/h | 15861m | -3.4m/s | -53.1°C | 0.8% | 110.9hPa | 2.6V | 18:12:15 | 01:40:59 | 00:00:00 | |
| SP3WXH-11 | 2026-08-31 05:50:44 | 52.52924 | 15.05012 | 67° | 69km/h | 15861m | -3.4m/s | -53.1°C | 1.4% | 110.9hPa | 2.7V | 00:00:00 | 00:00:00 | 00:00:00 | |
| DB0DAN | 2026-08-31 05:50:40 | 52.52904 | 15.04912 | 76° | 53km/h | 15875m | -3.4m/s | -53°C | 1.3% | 110.67hPa | 2.7V | 00:00:00 | 00:00:00 | 00:00:00 | |
| SONDE2-12 | 2026-08-31 05:50:37 | 52.52890 | 15.04835 | 63° | 42km/h | 15888m | -2.9m/s | -52.9°C | 1.6% | 110.4hPa | 2.6V | 00:00:00 | 00:00:00 | 00:00:00 | |
| AA1-15 | 2026-08-31 05:50:33 | 52.52871 | 15.04794 | 46° | 46km/h | 15897m | -3.5m/s | -52.8°C | 0.7% | 110.2hPa | 2.6V | 18:12:15 | 01:40:48 | 00:00:00 | |
| DL1XH-west | 2026-08-31 05:50:29 | 52.52830 | 15.04730 | 47° | 64km/h | 15910m | -3.3m/s | -52.8°C | 0.8% | 110hPa | 2.7V | 18:12:15 | 01:40:44 | 00:00:00 | |
| AA1-15 | 2026-08-31 05:50:22 | 52.52777 | 15.04551 | 77° | 68km/h | 15933m | -3.4m/s | -52.8°C | 0.7% | 109.7hPa | 2.6V | 18:12:15 | 01:40:37 | 00:00:00 | |
| DL1XH-west | 2026-08-31 05:50:14 | 52.52760 | 15.04384 | 64° | 38km/h | 15959m | -3m/s | -52.8°C | 0.7% | 109.2hPa | 2.7V | 18:12:15 | 01:40:29 | 00:00:00 | |
| AA1-15 | 2026-08-31 05:50:12 | 52.52748 | 15.04355 | 54° | 47km/h | 15965m | -3.3m/s | -52.8°C | 0.7% | 109.1hPa | 2.6V | 18:12:15 | 01:40:27 | 00:00:00 | |
| SONDE2-12 | 2026-08-31 05:50:05 | 52.52696 | 15.04198 | 71° | 66km/h | 15989m | -2.8m/s | -52.6°C | 1.6% | 108.7hPa | 2.6V | 00:00:00 | 00:00:00 | 00:00:00 | |
| AA1-15 | 2026-08-31 05:50:01 | 52.52682 | 15.04092 | 83° | 60km/h | 16000m | -2.8m/s | -52.5°C | 0.7% | 108.5hPa | 2.6V | 18:12:15 | 01:40:16 | 00:00:00 | |
| DL1XH-west | 2026-08-31 05:50:00 | 52.52680 | 15.04068 | 84° | 57km/h | 16003m | -3m/s | -52.5°C | 0.7% | 108.5hPa | 2.6V | 18:12:15 | 01:40:15 | 00:00:00 | |
| SONDE2-11 | 2026-08-31 05:49:56 | 52.52677 | 15.03990 | 77° | 38km/h | 16016m | -3.2m/s | -52.4°C | 1.3% | 108.2hPa | 2.6V | 00:00:00 | 00:00:00 | 00:00:00 | |
| DB0DAN | 2026-08-31 05:49:55 | 52.52675 | 15.03975 | 72° | 37km/h | 16019m | -3.1m/s | -52.4°C | 1.2% | 108.17hPa | 2.6V | 00:00:00 | 00:00:00 | 00:00:00 | |
| AA1-15 | 2026-08-31 05:49:51 | 52.52655 | 15.03920 | 49° | 46km/h | 16032m | -2.9m/s | -52.1°C | 0.5% | 108hPa | 2.6V | 18:12:15 | 01:40:06 | 00:00:00 | |
| DM0DOS-11 | 2026-08-31 05:49:50 | 52.52637 | 15.03889 | 47° | 57km/h | 16038m | -3m/s | -52.1°C | 4.3% | 107.9hPa | 2.6V | 08:30:00 | 01:40:04 | 00:00:00 | |
| DL1XH-west | 2026-08-31 05:49:48 | 52.52627 | 15.03871 | 50° | 60km/h | 16041m | -2.9m/s | -52.1°C | 0.5% | 107.8hPa | 2.7V | 18:12:15 | 01:40:03 | 00:00:00 | |
| S3001 | 2026-08-31 05:49:45 | 52.52599 | 15.03806 | 61° | 66km/h | 16051m | -3.3m/s | -52.1°C | 1.2% | 107.7hPa | 2.6V | 00:00:00 | 00:00:00 | 00:00:00 | |
| DM0DOS-11 | 2026-08-31 05:49:44 | 52.52570 | 15.03664 | 80° | 49km/h | 16070m | -2.9m/s | -52°C | 4.4% | 107.4hPa | 2.6V | 08:30:00 | 01:39:54 | 00:00:00 | |
| AA1-15 | 2026-08-31 05:49:40 | 52.52573 | 15.03686 | 80° | 55km/h | 16067m | -3.2m/s | -52.1°C | 0.7% | 107.4hPa | 2.6V | 18:12:15 | 01:39:55 | 00:00:00 | |
| SONDE2-12 | 2026-08-31 05:49:34 | 52.52563 | 15.03576 | 81° | 35km/h | 16086m | -3.5m/s | -52.0°C | 1.5% | 107.1hPa | 2.6V | 00:00:00 | 00:00:00 | 00:00:00 | |
| AA1-15 | 2026-08-31 05:49:29 | 52.52544 | 15.03517 | 47° | 38km/h | 16103m | -2.9m/s | -52°C | 0.5% | 106.8hPa | 2.6V | 18:12:15 | 01:39:44 | 00:00:00 | |
| DB0DAN | 2026-08-31 05:49:25 | 52.52510 | 15.03459 | 50° | 51km/h | 16116m | -3.5m/s | -52°C | 1.2% | 106.6hPa | 2.7V | 00:00:00 | 00:00:00 | 00:00:00 | |
| DL1XH-west | 2026-08-31 05:49:21 | 52.52479 | 15.03381 | 64° | 57km/h | 16130m | -2.9m/s | -52.1°C | 0.6% | 106.4hPa | 2.7V | 18:12:15 | 01:39:36 | 00:00:00 | |
| AA1-15 | 2026-08-31 05:49:19 | 52.52469 | 15.03339 | 74° | 51km/h | 16137m | -2.8m/s | -52.1°C | 0.6% | 106.3hPa | 2.7V | 18:12:15 | 01:39:34 | 00:00:00 | |
| EDDB2-11 | 2026-08-31 05:49:19 | 52.52469 | 15.03339 | 73° | 49km/h | 16137m | -2.8m/s | -52.1°C | 1.2% | 106.3hPa | 2.7V | 00:00:00 | 00:00:00 | 00:00:00 | |
| KRY50SP-1 | 2026-08-31 05:49:18 | 52.52469 | 15.03339 | 75° | 51km/h | 16137m | -2.8m/s | -52.1°C | 1.2% | 106.3hPa | 2.7V | 00:00:00 | 00:00:00 | 00:00:00 | |
| SP6BVK | 2026-08-31 05:49:16 | 52.52463 | 15.03299 | 80° | 46km/h | 16143m | -3.0m/s | -52.1°C | 1.2% | 106.2hPa | 2.7V | 00:00:00 | 00:00:00 | 00:00:00 | |
| S3001 | 2026-08-31 05:49:14 | 52.52459 | 15.03245 | 88° | 38km/h | 16152m | -3.2m/s | -52.2°C | 1.2% | 106.0hPa | 2.7V | 00:00:00 | 00:00:00 | 00:00:00 | |
| KRY50SP-1 | 2026-08-31 05:49:13 | 52.52458 | 15.03229 | 86° | 37km/h | 16156m | -3.3m/s | -52.2°C | 1.2% | 105.9hPa | 2.7V | 00:00:00 | 00:00:00 | 00:00:00 | |
| DL2RXE-15 | 2026-08-31 05:49:12 | 52.52458 | 15.03229 | 86° | 37km/h | 16156m | -3.3m/s | -52.2°C | 1.2% | 105.9hPa | 2.7V | 00:00:00 | 00:00:00 | 00:00:00 | |
| DB0DAN | 2026-08-31 05:49:10 | 52.52457 | 15.03194 | 76° | 20km/h | 16166m | -3.8m/s | -52.3°C | 1.2% | 105.75hPa | 2.7V | 00:00:00 | 00:00:00 | 00:00:00 | |
| AA1-15 | 2026-08-31 05:49:09 | 52.52453 | 15.03179 | 54° | 18km/h | 16174m | -3.3m/s | -52.4°C | 0.5% | 105.6hPa | 2.6V | 18:12:15 | 01:39:23 | 00:00:00 | |
| SONDE2-12 | 2026-08-31 05:49:03 | 52.52420 | 15.03142 | 35° | 44km/h | 16192m | -3.2m/s | -52.5°C | 1.5% | 105.4hPa | 2.6V | 00:00:00 | 00:00:00 | 00:00:00 | |
| DL1XH-west | 2026-08-31 05:48:57 | 52.52376 | 15.03042 | 70° | 46km/h | 16212m | -3.1m/s | -52.6°C | 0.6% | 105hPa | 2.6V | 18:12:15 | 01:39:12 | 00:00:00 | |
| DB0DAN | 2026-08-31 05:48:55 | 52.52371 | 15.03009 | 76° | 35km/h | 16219m | -3.1m/s | -52.5°C | 1.2% | 104.91hPa | 2.7V | 00:00:00 | 00:00:00 | 00:00:00 | |
| AA1-15 | 2026-08-31 05:48:47 | 52.52349 | 15.02946 | 21° | 27km/h | 16248m | -3m/s | -52.3°C | 0.5% | 104.5hPa | 2.6V | 18:12:15 | 01:39:02 | 00:00:00 | |
| OE3JTB-15 | 2026-08-31 05:48:47 | 52.52349 | 15.02946 | 21° | 46km/h | 16248m | -3.0m/s | -52.2°C | 4.4% | 104.4hPa | 2.6V | 00:00:00 | 01:39:02 | 00:00:00 | |
| KRY50SP-1 | 2026-08-31 05:48:45 | 52.52342 | 15.02942 | 18° | 31km/h | 16251m | -3.0m/s | -52.3°C | 1.1% | 104.4hPa | 2.6V | 00:00:00 | 00:00:00 | 00:00:00 | |
| S3001 | 2026-08-31 05:48:44 | 52.52315 | 15.02928 | 22° | 44km/h | 16263m | -3.1m/s | -52.3°C | 1.1% | 104.2hPa | 2.6V | 00:00:00 | 00:00:00 | 00:00:00 | |
| DB0DAN | 2026-08-31 05:48:40 | 52.52282 | 15.02898 | 38° | 51km/h | 16274m | -4.1m/s | -52.3°C | 1.1% | 104hPa | 2.6V | 00:00:00 | 00:00:00 | 00:00:00 | |
| AA1-15 | 2026-08-31 05:48:36 | 52.52249 | 15.02833 | 65° | 46km/h | 16289m | -3.4m/s | -52.2°C | 0.6% | 103.8hPa | 2.6V | 18:12:15 | 01:38:51 | 00:00:00 | |
| DL1XH-west | 2026-08-31 05:48:34 | 52.52242 | 15.02801 | 73° | 33km/h | 16294m | -3m/s | -52.1°C | 0.5% | 103.7hPa | 2.7V | 18:12:15 | 01:38:49 | 00:00:00 | |
| SONDE2-12 | 2026-08-31 05:48:32 | 52.52237 | 15.02778 | 59° | 24km/h | 16301m | -3.5m/s | -52.2°C | 1.5% | 103.6hPa | 2.7V | 00:00:00 | 00:00:00 | 00:00:00 | |
| SONCRA | 2026-08-31 05:48:31 | 52.52231 | 15.02765 | 50° | 20km/h | 16308m | -3.1m/s | -52.1°C | 1.2% | 103.5hPa | 2.7V | 00:00:00 | 00:00:00 | 00:00:00 | |
| 13BRC | 2026-08-31 05:48:29 | 52.52231 | 15.02765 | 51° | 20km/h | 16308m | -3.1m/s | -52.1°C | 1.2% | 103.5hPa | 2.7V | 00:00:00 | 00:00:00 | 00:00:00 | |
| DM0DOS-11 | 2026-08-31 05:48:28 | 52.52212 | 15.02752 | 13° | 33km/h | 16317m | -3.5m/s | -51.9°C | 4.3% | 103.3hPa | 2.7V | 08:30:00 | 01:38:42 | 00:00:00 | |
| DB0DAN | 2026-08-31 05:48:25 | 52.52193 | 15.02744 | 18° | 42km/h | 16325m | -3.9m/s | -51.9°C | 1.1% | 103.2hPa | 2.6V | 00:00:00 | 00:00:00 | 00:00:00 | |
| AA1-15 | 2026-08-31 05:48:25 | 52.52193 | 15.02744 | 18° | 44km/h | 16325m | -3.9m/s | -51.9°C | 0.4% | 103.2hPa | 2.6V | 18:12:15 | 01:38:40 | 00:00:00 | |
| SONDE2-11 | 2026-08-31 05:48:23 | 52.52169 | 15.02730 | 23° | 53km/h | 16332m | -3.5m/s | -51.9°C | 1.1% | 103.0hPa | 2.7V | 00:00:00 | 00:00:00 | 00:00:00 | |
| KRY50SP-1 | 2026-08-31 05:48:22 | 52.52169 | 15.02730 | 24° | 55km/h | 16333m | -3.5m/s | -51.9°C | 1.1% | 103.1hPa | 2.7V | 00:00:00 | 00:00:00 | 00:00:00 | |
| 3Z3Z-3 | 2026-08-31 05:48:19 | 52.52131 | 15.02695 | 38° | 58km/h | 16344m | -3.8m/s | -51.9°C | 1.1% | 102.9hPa | 2.7V | 00:00:00 | 00:00:00 | 00:00:00 | |
| DM0DOS-11 | 2026-08-31 05:48:18 | 52.52103 | 15.02645 | 56° | 51km/h | 16355m | -3.7m/s | -51.9°C | 4.2% | 102.7hPa | 2.7V | 08:30:00 | 01:38:32 | 00:00:00 | |
| DL1XH1-15 | 2026-08-31 05:48:17 | 52.52080 | 15.02575 | 50° | 27km/h | 16371m | -3.3m/s | -52°C | 4.3% | 102.5hPa | 2.7V | 08:30:00 | 01:38:27 | 00:00:00 | |
| DL1XH-west | 2026-08-31 05:48:16 | 52.52096 | 15.02627 | 59° | 47km/h | 16358m | -3.1m/s | -51.9°C | 0.4% | 102.7hPa | 2.7V | 18:12:15 | 01:38:31 | 00:00:00 | |
| AA1-15 | 2026-08-31 05:48:14 | 52.52087 | 15.02597 | 65° | 33km/h | 16364m | -3.3m/s | -52°C | 0.4% | 102.6hPa | 2.6V | 18:12:15 | 01:38:29 | 00:00:00 | |
| DB0DAN | 2026-08-31 05:48:10 | 52.52070 | 15.02562 | 31° | 22km/h | 16378m | -3.8m/s | -51.9°C | 1.2% | 102.36hPa | 2.6V | 00:00:00 | 00:00:00 | 00:00:00 | |
| DF2AP-13 | 2026-08-31 05:48:09 | 52.52064 | 15.02557 | 27° | 49km/h | 16382m | -3.4m/s | -51.8°C | 4.3% | 102.2hPa | 2.6V | 00:00:00 | 01:38:24 | 08:30:00 | |
| 13BRC | 2026-08-31 05:48:08 | 52.52064 | 15.02557 | 28° | 29km/h | 16382m | -3.4m/s | -51.9°C | 1.2% | 102.3hPa | 2.7V | 00:00:00 | 00:00:00 | 00:00:00 | |
| DL1XH1-15 | 2026-08-31 05:48:07 | 52.51991 | 15.02499 | 38° | 58km/h | 16406m | -3.3m/s | -51.9°C | 4.3% | 101.9hPa | 2.7V | 08:30:00 | 01:38:17 | 00:00:00 | |
| DL1XH-west | 2026-08-31 05:48:05 | 52.52026 | 15.02534 | 25° | 47km/h | 16395m | -3.5m/s | -51.8°C | 0.5% | 102.1hPa | 2.6V | 18:12:15 | 01:38:20 | 00:00:00 | |
| AA1-15 | 2026-08-31 05:48:03 | 52.52003 | 15.02513 | 34° | 57km/h | 16403m | -3.5m/s | -51.9°C | 0.4% | 102hPa | 2.7V | 18:12:15 | 01:38:18 | 00:00:00 | |
| SONDE2-12 | 2026-08-31 05:48:01 | 52.51980 | 15.02483 | 41° | 60km/h | 16410m | -3.5m/s | -51.9°C | 1.4% | 101.9hPa | 2.7V | 00:00:00 | 00:00:00 | 00:00:00 | |
| DC4HF-4 | 2026-08-31 05:48:00 | 52.51958 | 15.02446 | 49° | 62km/h | 16417m | -3.8m/s | -51.8°C | 1.1% | 101.7hPa | 2.7V | 00:00:00 | 00:00:00 | 00:00:00 | |
| DM0DOS-11 | 2026-08-31 05:47:58 | 52.51941 | 15.02405 | 59° | 57km/h | 16424m | -3.3m/s | -51.7°C | 4.2% | 101.6hPa | 2.7V | 08:30:00 | 01:38:12 | 00:00:00 | |
| EDDB2-12 | 2026-08-31 05:47:58 | 52.51948 | 15.02426 | 53° | 58km/h | 16421m | -3.4m/s | -51.8°C | 1.1% | 101.7hPa | 2.6V | 00:00:00 | 00:00:00 | 00:00:00 | |
| DB0DAN | 2026-08-31 05:47:55 | 52.51929 | 15.02368 | 67° | 42km/h | 16431m | -3.4m/s | -51.7°C | 1.1% | 101.52hPa | 2.6V | 00:00:00 | 00:00:00 | 00:00:00 | |
| DL1XH-west | 2026-08-31 05:47:54 | 52.51925 | 15.02351 | 70° | 38km/h | 16434m | -3.6m/s | -51.7°C | 0.4% | 101.4hPa | 2.6V | 18:12:15 | 01:38:09 | 00:00:00 | |
| AA1-15 | 2026-08-31 05:47:52 | 52.51918 | 15.02325 | 63° | 31km/h | 16442m | -3.6m/s | -51.7°C | 0.4% | 101.4hPa | 2.7V | 18:12:15 | 01:38:07 | 00:00:00 | |
| SONDE2-11 | 2026-08-31 05:47:52 | 52.51914 | 15.02315 | 45° | 27km/h | 16445m | -3.1m/s | -51.7°C | 1.1% | 101.3hPa | 2.6V | 00:00:00 | 00:00:00 | 00:00:00 | |
| DM0DOS-11 | 2026-08-31 05:47:48 | 52.51884 | 15.02290 | 20° | 42km/h | 16457m | -3.7m/s | -51.5°C | 4.1% | 101.1hPa | 2.6V | 08:30:00 | 01:38:02 | 00:00:00 | |
| EDDB2-11 | 2026-08-31 05:47:46 | 52.51862 | 15.02276 | 26° | 49km/h | 16465m | -4.0m/s | -51.4°C | 1.1% | 100.9hPa | 2.7V | 00:00:00 | 00:00:00 | 00:00:00 | |
| AA1-15 | 2026-08-31 05:47:41 | 52.51816 | 15.02220 | 45° | 62km/h | 16481m | -3.5m/s | -51.4°C | 0.4% | 100.7hPa | 2.7V | 18:12:15 | 01:37:56 | 00:00:00 | |
| DB0DAN | 2026-08-31 05:47:40 | 52.51805 | 15.02201 | 50° | 60km/h | 16484m | -3.6m/s | -51.4°C | 1.1% | 100.67hPa | 2.6V | 00:00:00 | 00:00:00 | 00:00:00 | |
| DL1XH1-15 | 2026-08-31 05:47:39 | 52.51763 | 15.02083 | 64° | 40km/h | 16504m | -3.1m/s | -51.3°C | 4.1% | 100.4hPa | 2.6V | 08:30:00 | 01:37:49 | 00:00:00 | |
| DL1XH-west | 2026-08-31 05:47:38 | 52.51786 | 15.02160 | 57° | 60km/h | 16492m | -3.7m/s | -51.4°C | 0.3% | 100.6hPa | 2.6V | 18:12:15 | 01:37:53 | 00:00:00 | |
| DM0DOS-11 | 2026-08-31 05:47:38 | 52.51779 | 15.02139 | 60° | 57km/h | 16495m | -3.7m/s | -51.4°C | 4.1% | 100.5hPa | 2.7V | 08:30:00 | 01:37:52 | 00:00:00 | |
| AA1-15 | 2026-08-31 05:47:31 | 52.51751 | 15.02048 | 52° | 26km/h | 16513m | -3.6m/s | -51.4°C | 0.4% | 100.2hPa | 2.7V | 18:12:15 | 01:37:46 | 00:00:00 | |
| MECKS9 | 2026-08-31 05:47:30 | 52.51751 | 15.02048 | 53° | 26km/h | 16513m | -3.6m/s | -51.3°C | 1.1% | 100.2hPa | 2.6V | 00:00:00 | 00:00:00 | 00:00:00 | |
| DM0DOS-11 | 2026-08-31 05:47:28 | 52.51728 | 15.02025 | 25° | 35km/h | 16527m | -4.5m/s | -51.4°C | 4.1% | 100hPa | 2.6V | 08:30:00 | 01:37:42 | 00:00:00 | |
| DL1XH-west | 2026-08-31 05:47:28 | 52.51736 | 15.02029 | 26° | 29km/h | 16524m | -3.9m/s | -51.4°C | 0.4% | 100hPa | 2.6V | 18:12:15 | 01:37:43 | 00:00:00 | |
| AA1-15 | 2026-08-31 05:47:20 | 52.51652 | 15.01934 | 51° | 64km/h | 16549m | -3.9m/s | -51.5°C | 0.4% | 99.6hPa | 2.7V | 18:12:15 | 01:37:35 | 00:00:00 | |
| MECKS9 | 2026-08-31 05:47:19 | 52.51652 | 15.01934 | 52° | 64km/h | 16549m | -3.9m/s | -51.5°C | 1.1% | 99.6hPa | 2.6V | 00:00:00 | 00:00:00 | 00:00:00 | |
| DM0DOS-11 | 2026-08-31 05:47:18 | 52.51627 | 15.01868 | 64° | 60km/h | 16562m | -4.2m/s | -51.5°C | 4.1% | 99.4hPa | 2.6V | 08:30:00 | 01:37:32 | 00:00:00 | |
| DL1XH-west | 2026-08-31 05:47:18 | 52.51635 | 15.01890 | 60° | 62km/h | 16558m | -4m/s | -51.5°C | 0.4% | 99.5hPa | 2.6V | 18:12:15 | 01:37:33 | 00:00:00 | |
| AA1-15 | 2026-08-31 05:47:10 | 52.51600 | 15.01757 | 47° | 24km/h | 16586m | -3.7m/s | -51.7°C | 0.3% | 99hPa | 2.7V | 18:12:15 | 01:37:25 | 00:00:00 | |
| 3Z3Z-3 | 2026-08-31 05:47:09 | 52.51600 | 15.01757 | 48° | 24km/h | 16586m | -3.7m/s | -51.7°C | 1.1% | 99.0hPa | 2.6V | 00:00:00 | 00:00:00 | 00:00:00 | |
| DM0DOS-11 | 2026-08-31 05:47:08 | 52.51576 | 15.01735 | 20° | 37km/h | 16601m | -3.8m/s | -51.7°C | 4.2% | 98.8hPa | 2.6V | 08:30:00 | 01:37:21 | 00:00:00 | |
| DL1XH-west | 2026-08-31 05:47:08 | 52.51590 | 15.01746 | 29° | 26km/h | 16593m | -4.3m/s | -51.7°C | 0.4% | 98.9hPa | 2.6V | 18:12:15 | 01:37:23 | 00:00:00 | |
| AA1-15 | 2026-08-31 05:46:59 | 52.51510 | 15.01631 | 63° | 62km/h | 16626m | -3.7m/s | -51.8°C | 0.4% | 98.4hPa | 2.7V | 18:12:15 | 01:37:14 | 00:00:00 | |
| DM0DOS-11 | 2026-08-31 05:46:58 | 52.51495 | 15.01563 | 75° | 53km/h | 16637m | -4.1m/s | -51.8°C | 4.2% | 98.2hPa | 2.6V | 08:30:00 | 01:37:11 | 00:00:00 | |
| DL1XH-west | 2026-08-31 05:46:58 | 52.51504 | 15.01608 | 68° | 60km/h | 16629m | -3.8m/s | -51.8°C | 0.4% | 98.4hPa | 2.7V | 18:12:15 | 01:37:13 | 00:00:00 | |
| SONCRA | 2026-08-31 05:46:58 | 52.51499 | 15.01585 | 71° | 57km/h | 16633m | -4.0m/s | -51.8°C | 1.1% | 98.3hPa | 2.6V | 00:00:00 | 00:00:00 | 00:00:00 | |
| EDDB2-12 | 2026-08-31 05:46:56 | 52.51495 | 15.01563 | 75° | 51km/h | 16637m | -4.1m/s | -51.8°C | 1.1% | 98.2hPa | 2.6V | 00:00:00 | 00:00:00 | 00:00:00 | |
| DJ2DS-15 | 2026-08-31 05:46:53 | 52.51487 | 15.01501 | 68° | 26km/h | 16652m | -3.5m/s | -51.8°C | 1.1% | 98.0hPa | 2.6V | 00:00:00 | 00:00:00 | 00:00:00 | |
| SONDE2-11 | 2026-08-31 05:46:50 | 52.51475 | 15.01480 | 28° | 26km/h | 16663m | -3.7m/s | -51.7°C | 1.1% | 97.8hPa | 2.6V | 00:00:00 | 00:00:00 | 00:00:00 | |
| DL1XH1-15 | 2026-08-31 05:46:49 | 52.51461 | 15.01469 | 24° | 37km/h | 16670m | -4m/s | -51.6°C | 4.3% | 97.7hPa | 2.6V | 08:30:00 | 01:37:02 | 00:00:00 | |
| DM0DOS-11 | 2026-08-31 05:46:48 | 52.51451 | 15.01461 | 26° | 42km/h | 16673m | -3.8m/s | -51.6°C | 4.3% | 97.6hPa | 2.6V | 08:30:00 | 01:37:01 | 00:00:00 | |
| AA1-15 | 2026-08-31 05:46:48 | 52.51468 | 15.01475 | 25° | 31km/h | 16666m | -3.7m/s | -51.7°C | 0.5% | 97.8hPa | 2.6V | 18:12:15 | 01:37:03 | 00:00:00 | |
| DL1XH-west | 2026-08-31 05:46:47 | 52.51461 | 15.01469 | 25° | 37km/h | 16670m | -4m/s | -51.7°C | 0.4% | 97.7hPa | 2.6V | 18:12:15 | 01:37:02 | 00:00:00 | |
| 13BRC | 2026-08-31 05:46:46 | 52.51460 | 15.01469 | 26° | 37km/h | 16670m | -4.0m/s | -51.7°C | 1.1% | 97.7hPa | 2.6V | 00:00:00 | 00:00:00 | 00:00:00 | |
| KRY50SP-1 | 2026-08-31 05:46:45 | 52.51451 | 15.01461 | 28° | 42km/h | 16674m | -3.8m/s | -51.6°C | 1.1% | 97.6hPa | 2.6V | 00:00:00 | 00:00:00 | 00:00:00 | |
| MECKS9 | 2026-08-31 05:46:43 | 52.51432 | 15.01440 | 38° | 53km/h | 16681m | -3.6m/s | -51.4°C | 1.1% | 97.5hPa | 2.6V | 00:00:00 | 00:00:00 | 00:00:00 | |
| DL2RXE-15 | 2026-08-31 05:46:40 | 52.51402 | 15.01388 | 56° | 60km/h | 16692m | -3.4m/s | -51.4°C | 1.1% | 97.4hPa | 2.6V | 00:00:00 | 00:00:00 | 00:00:00 | |
| DL1XH1-15 | 2026-08-31 05:46:39 | 52.51378 | 15.01297 | 77° | 58km/h | 16706m | -4.2m/s | -51.2°C | 4% | 97.2hPa | 2.6V | 08:30:00 | 01:36:52 | 00:00:00 | |
| DL1XH-west | 2026-08-31 05:46:37 | 52.51378 | 15.01297 | 78° | 58km/h | 16706m | -4.2m/s | -51.2°C | 0.3% | 97.2hPa | 2.6V | 18:12:15 | 01:36:52 | 00:00:00 | |
| SP3WXH-11 | 2026-08-31 05:46:36 | 52.51376 | 15.01274 | 82° | 53km/h | 16710m | -4.1m/s | -51.2°C | 1.0% | 97.1hPa | 2.6V | 00:00:00 | 00:00:00 | 00:00:00 | |
| KRY50SP-1 | 2026-08-31 05:46:33 | 52.51373 | 15.01235 | 86° | 42km/h | 16718m | -4.3m/s | -51.1°C | 1.0% | 97.0hPa | 2.6V | 00:00:00 | 00:00:00 | 00:00:00 | |
| 3Z3Z-3 | 2026-08-31 05:46:31 | 52.51371 | 15.01207 | 74° | 27km/h | 16726m | -4.0m/s | -51.0°C | 1.1% | 96.8hPa | 2.6V | 00:00:00 | 00:00:00 | 00:00:00 | |
| SP6BVK | 2026-08-31 05:46:30 | 52.51368 | 15.01197 | 58° | 26km/h | 16730m | -3.5m/s | -51.0°C | 1.1% | 96.8hPa | 2.6V | 00:00:00 | 00:00:00 | 00:00:00 | |
| DL1XH1-15 | 2026-08-31 05:46:29 | 52.51343 | 15.01162 | 35° | 42km/h | 16744m | -4m/s | -51.1°C | 4.1% | 96.6hPa | 2.6V | 08:30:00 | 01:36:42 | 00:00:00 | |
| SONDE2-12 | 2026-08-31 05:46:28 | 52.51351 | 15.01172 | 36° | 37km/h | 16740m | -4.0m/s | -51.1°C | 1.3% | 96.7hPa | 2.6V | 00:00:00 | 00:00:00 | 00:00:00 | |
| DL1XH-west | 2026-08-31 05:46:26 | 52.51334 | 15.01151 | 38° | 49km/h | 16748m | -3.7m/s | -51.2°C | 0.4% | 96.5hPa | 2.6V | 18:12:15 | 01:36:41 | 00:00:00 | |
| DB0DAN | 2026-08-31 05:46:25 | 52.51324 | 15.01137 | 40° | 51km/h | 16751m | -4m/s | -51.2°C | 1.1% | 96.49hPa | 2.6V | 00:00:00 | 00:00:00 | 00:00:00 | |
| EDDB2-12 | 2026-08-31 05:46:25 | 52.51324 | 15.01137 | 39° | 51km/h | 16751m | -4.0m/s | -51.2°C | 1.1% | 96.5hPa | 2.7V | 00:00:00 | 00:00:00 | 00:00:00 | |
| KRY50SP-1 | 2026-08-31 05:46:22 | 52.51304 | 15.01104 | 50° | 60km/h | 16759m | -3.9m/s | -51.2°C | 1.0% | 96.4hPa | 2.7V | 00:00:00 | 00:00:00 | 00:00:00 | |
| DL1XH1-15 | 2026-08-31 05:46:19 | 52.51265 | 15.00972 | 79° | 55km/h | 16781m | -3.6m/s | -51.3°C | 4.1% | 96hPa | 2.7V | 08:30:00 | 01:36:32 | 00:00:00 | |
| DL1XH-west | 2026-08-31 05:46:16 | 52.51263 | 15.00950 | 82° | 51km/h | 16785m | -3.8m/s | -51.4°C | 0.4% | 96hPa | 2.6V | 18:12:15 | 01:36:31 | 00:00:00 | |
| AA1-15 | 2026-08-31 05:46:15 | 52.51261 | 15.00930 | 87° | 47km/h | 16789m | -4.3m/s | -51.4°C | 0.3% | 95.9hPa | 2.6V | 18:12:15 | 01:36:30 | 00:00:00 | |
| 3Z3Z-3 | 2026-08-31 05:46:13 | 52.51262 | 15.00912 | 93° | 42km/h | 16793m | -4.1m/s | -51.4°C | 1.1% | 95.8hPa | 2.6V | 00:00:00 | 00:00:00 | 00:00:00 | |
| DL2RXE-15 | 2026-08-31 05:46:12 | 52.51262 | 15.00895 | 91° | 35km/h | 16797m | -4.3m/s | -51.4°C | 1.1% | 95.8hPa | 2.6V | 00:00:00 | 00:00:00 | 00:00:00 | |
| DB0DAN | 2026-08-31 05:46:10 | 52.51259 | 15.00860 | 61° | 22km/h | 16809m | -4.3m/s | -51.4°C | 1.1% | 95.64hPa | 2.6V | 00:00:00 | 00:00:00 | 00:00:00 | |
| DL1XH1-15 | 2026-08-31 05:46:09 | 52.51245 | 15.00835 | 37° | 37km/h | 16821m | -3.6m/s | -51.3°C | 4.2% | 95.5hPa | 2.6V | 08:30:00 | 01:36:22 | 00:00:00 | |
| DM0DOS-11 | 2026-08-31 05:46:08 | 52.51237 | 15.00824 | 40° | 42km/h | 16824m | -3.8m/s | -51.3°C | 4.2% | 95.4hPa | 2.6V | 08:30:00 | 01:36:21 | 00:00:00 | |
| DL1XH-west | 2026-08-31 05:46:06 | 52.51237 | 15.00824 | 40° | 42km/h | 16824m | -3.8m/s | -51.3°C | 0.4% | 95.4hPa | 2.6V | 18:12:15 | 01:36:21 | 00:00:00 | |
| AA1-15 | 2026-08-31 05:46:04 | 52.51219 | 15.00798 | 44° | 53km/h | 16832m | -3.8m/s | -51.2°C | 0.4% | 95.3hPa | 2.7V | 18:12:15 | 01:36:19 | 00:00:00 | |
| SONDE2-12 | 2026-08-31 05:45:57 | 52.51174 | 15.00643 | 83° | 58km/h | 16859m | -3.7m/s | -51.2°C | 1.3% | 94.9hPa | 2.6V | 00:00:00 | 00:00:00 | 00:00:00 | |
| DB0DAN | 2026-08-31 05:45:55 | 52.51173 | 15.00598 | 90° | 47km/h | 16866m | -3.8m/s | -51.3°C | 1% | 94.77hPa | 2.6V | 00:00:00 | 00:00:00 | 00:00:00 | |
| DL1XH-west | 2026-08-31 05:45:55 | 52.51173 | 15.00598 | 90° | 51km/h | 16866m | -3.8m/s | -51.3°C | 0.3% | 94.8hPa | 2.6V | 18:12:15 | 01:36:10 | 00:00:00 | |
| EDDB2-12 | 2026-08-31 05:45:54 | 52.51173 | 15.00578 | 93° | 46km/h | 16870m | -4.2m/s | -51.2°C | 1.0% | 94.7hPa | 2.7V | 00:00:00 | 00:00:00 | 00:00:00 | |
| DM0DOS-11 | 2026-08-31 05:45:53 | 52.51163 | 15.00501 | 47° | 33km/h | 16893m | -4.1m/s | -51.2°C | 4% | 94.4hPa | 2.7V | 08:30:00 | 01:36:03 | 00:00:00 | |
| AA1-15 | 2026-08-31 05:45:53 | 52.51174 | 15.00560 | 95° | 40km/h | 16873m | -4.3m/s | -51.2°C | 0.3% | 94.6hPa | 2.7V | 18:12:15 | 01:36:08 | 00:00:00 | |
| SONDE2-11 | 2026-08-31 05:45:48 | 52.51157 | 15.00491 | 44° | 37km/h | 16897m | -4.1m/s | -51.3°C | 1.1% | 94.3hPa | 2.6V | 00:00:00 | 00:00:00 | 00:00:00 | |
| DL1XH-west | 2026-08-31 05:45:44 | 52.51133 | 15.00451 | 49° | 53km/h | 16908m | -4m/s | -51.4°C | 0.4% | 94.2hPa | 2.6V | 18:12:15 | 01:35:59 | 00:00:00 | |
| AA1-15 | 2026-08-31 05:45:42 | 52.51116 | 15.00413 | 58° | 58km/h | 16916m | -3.9m/s | -51.4°C | 0.4% | 94hPa | 2.7V | 18:12:15 | 01:35:57 | 00:00:00 | |
| DB0DAN | 2026-08-31 05:45:40 | 52.51103 | 15.00370 | 68° | 57km/h | 16924m | -3.5m/s | -51.4°C | 1.1% | 93.94hPa | 2.6V | 00:00:00 | 00:00:00 | 00:00:00 | |
| DL1XH-west | 2026-08-31 05:45:34 | 52.51094 | 15.00242 | 93° | 40km/h | 16946m | -3.8m/s | -51.5°C | 0.4% | 93.6hPa | 2.7V | 18:12:15 | 01:35:49 | 00:00:00 | |
| AA1-15 | 2026-08-31 05:45:32 | 52.51095 | 15.00211 | 99° | 31km/h | 16955m | -4.4m/s | -51.5°C | 0.4% | 93.5hPa | 2.7V | 18:12:15 | 01:35:47 | 00:00:00 | |
| DB0NH | 2026-08-31 05:45:30 | 52.51095 | 15.00189 | 87° | 37km/h | 16963m | -4.1m/s | -51.3°C | 4.0% | 93.3hPa | 2.6V | 00:00:00 | 01:35:45 | 08:30:00 | |
| DL1XH1-15 | 2026-08-31 05:45:29 | 52.51077 | 15.00147 | 39° | 37km/h | 16983m | -3.6m/s | -51.4°C | 4% | 93.1hPa | 2.6V | 08:30:00 | 01:35:40 | 00:00:00 | |
| SONDE2-12 | 2026-08-31 05:45:26 | 52.51083 | 15.00156 | 40° | 27km/h | 16979m | -4.5m/s | -51.4°C | 1.3% | 93.1hPa | 2.6V | 00:00:00 | 00:00:00 | 00:00:00 | |
| DB0DAN | 2026-08-31 05:45:25 | 52.51076 | 15.00147 | 40° | 37km/h | 16983m | -3.6m/s | -51.4°C | 1.1% | 93.07hPa | 2.6V | 00:00:00 | 00:00:00 | 00:00:00 | |
| DL1XH-west | 2026-08-31 05:45:23 | 52.51060 | 15.00125 | 44° | 46km/h | 16990m | -4.4m/s | -51.4°C | 0.4% | 93hPa | 2.7V | 18:12:15 | 01:35:38 | 00:00:00 | |
| DF8AY | 2026-08-31 05:45:22 | 52.51052 | 15.00111 | 49° | 53km/h | 16995m | -4.1m/s | 0°C | 0% | 0hPa | 2.6V | 18:12:15 | 01:35:37 | 00:00:00 | |
| AA1-15 | 2026-08-31 05:45:21 | 52.51043 | 15.00093 | 53° | 57km/h | 16999m | -4m/s | -51.4°C | 0.4% | 92.9hPa | 2.6V | 18:12:15 | 01:35:36 | 00:00:00 | |
| DL1XH-west | 2026-08-31 05:45:12 | 52.51020 | 14.99914 | 98° | 33km/h | 17034m | -4.1m/s | -51.6°C | 0.4% | 92.4hPa | 2.7V | 18:12:15 | 01:35:27 | 00:00:00 | |
| AA1-15 | 2026-08-31 05:45:11 | 52.51021 | 14.99902 | 101° | 26km/h | 17038m | -4.4m/s | -51.6°C | 0.4% | 92.3hPa | 2.6V | 18:12:15 | 01:35:26 | 00:00:00 | |
| DB0DAN | 2026-08-31 05:45:10 | 52.51022 | 14.99892 | 92° | 20km/h | 17043m | -4.4m/s | -51.7°C | 1.1% | 92.25hPa | 2.6V | 00:00:00 | 00:00:00 | 00:00:00 | |
| S3001 | 2026-08-31 05:45:06 | 52.51012 | 14.99865 | 34° | 26km/h | 17059m | -3.9m/s | -51.7°C | 1.1% | 92.0hPa | 2.6V | 00:00:00 | 00:00:00 | 00:00:00 | |
| DJ2DS-15 | 2026-08-31 05:45:05 | 52.50999 | 14.99849 | 38° | 38km/h | 17067m | -3.7m/s | -51.8°C | 1.1% | 91.9hPa | 2.6V | 00:00:00 | 00:00:00 | 00:00:00 | |
| DL1XH1-15 | 2026-08-31 05:45:04 | 52.50961 | 14.99772 | 63° | 53km/h | 17086m | -4m/s | -51.9°C | 4.3% | 91.6hPa | 2.6V | 08:30:00 | 01:35:14 | 00:00:00 | |
| DF8AY | 2026-08-31 05:45:02 | 52.50982 | 14.99825 | 45° | 49km/h | 17075m | -4.3m/s | 0°C | 0% | 0hPa | 2.7V | 18:12:15 | 01:35:17 | 00:00:00 | |
| DL1XH-west | 2026-08-31 05:45:01 | 52.50974 | 14.99809 | 53° | 51km/h | 17079m | -4.1m/s | -51.8°C | 0.4% | 91.7hPa | 2.6V | 18:12:15 | 01:35:16 | 00:00:00 | |
| AA1-15 | 2026-08-31 05:45:00 | 52.50967 | 14.99792 | 60° | 55km/h | 17083m | -4m/s | -51.8°C | 0.5% | 91.7hPa | 2.6V | 18:12:15 | 01:35:15 | 00:00:00 | |
| DC4HF-4 | 2026-08-31 05:44:59 | 52.50961 | 14.99772 | 63° | 53km/h | 17086m | -4.0m/s | -51.9°C | 1.1% | 91.6hPa | 2.6V | 00:00:00 | 00:00:00 | 00:00:00 | |
| DB0DAN | 2026-08-31 05:44:55 | 52.50951 | 14.99694 | 89° | 40km/h | 17102m | -3.9m/s | -52°C | 1.1% | 91.42hPa | 2.6V | 00:00:00 | 00:00:00 | 00:00:00 | |
| DL1XH1-15 | 2026-08-31 05:44:54 | 52.50959 | 14.99623 | 107° | 16km/h | 17126m | -4.3m/s | -52.1°C | 4.2% | 91hPa | 2.7V | 08:30:00 | 01:35:04 | 00:00:00 | |
| DL1XH-west | 2026-08-31 05:44:50 | 52.50958 | 14.99631 | 105° | 20km/h | 17122m | -4.1m/s | -52.1°C | 0.4% | 91.1hPa | 2.6V | 18:12:15 | 01:35:05 | 00:00:00 | |
| AA1-15 | 2026-08-31 05:44:49 | 52.50959 | 14.99623 | 108° | 16km/h | 17126m | -4.3m/s | -52.1°C | 0.4% | 91hPa | 2.7V | 18:12:15 | 01:35:04 | 00:00:00 | |
| SONDE2-11 | 2026-08-31 05:44:45 | 52.50951 | 14.99602 | 39° | 26km/h | 17143m | -3.5m/s | -52.1°C | 1.1% | 90.8hPa | 2.6V | 00:00:00 | 00:00:00 | 00:00:00 | |
| DL1XH1-15 | 2026-08-31 05:44:44 | 52.50912 | 14.99524 | 62° | 51km/h | 17165m | -4.1m/s | -52.1°C | 4.3% | 90.5hPa | 2.6V | 08:30:00 | 01:34:54 | 00:00:00 | |
| DF8AY | 2026-08-31 05:44:41 | 52.50925 | 14.99558 | 51° | 47km/h | 17157m | -4.1m/s | 0°C | 0% | 0hPa | 2.7V | 18:12:15 | 01:34:56 | 00:00:00 | |
| DL1XH-west | 2026-08-31 05:44:39 | 52.50912 | 14.99524 | 62° | 51km/h | 17165m | -4.1m/s | -52.1°C | 0.5% | 90.5hPa | 2.6V | 18:12:15 | 01:34:54 | 00:00:00 | |
| AA1-15 | 2026-08-31 05:44:38 | 52.50906 | 14.99504 | 71° | 51km/h | 17168m | -4.4m/s | -52.1°C | 0.5% | 90.4hPa | 2.6V | 18:12:15 | 01:34:53 | 00:00:00 | |
| S3001 | 2026-08-31 05:44:35 | 52.50900 | 14.99446 | 91° | 44km/h | 17181m | -4.5m/s | -52.2°C | 1.1% | 90.2hPa | 2.7V | 00:00:00 | 00:00:00 | 00:00:00 | |
| DL1XH1-15 | 2026-08-31 05:44:34 | 52.50907 | 14.99377 | 80° | 15km/h | 17206m | -4.3m/s | -52.1°C | 4.3% | 89.9hPa | 2.7V | 08:30:00 | 01:34:44 | 00:00:00 | |
| DL1XH-west | 2026-08-31 05:44:28 | 52.50906 | 14.99372 | 64° | 15km/h | 17210m | -4.1m/s | -52.1°C | 0.5% | 89.9hPa | 2.7V | 18:12:15 | 01:34:43 | 00:00:00 | |
| AA1-15 | 2026-08-31 05:44:27 | 52.50904 | 14.99367 | 46° | 15km/h | 17214m | -4m/s | -52°C | 0.4% | 89.8hPa | 2.6V | 18:12:15 | 01:34:42 | 00:00:00 | |
| SP6BVK | 2026-08-31 05:44:26 | 52.50904 | 14.99367 | 47° | 15km/h | 17214m | -4.0m/s | -52.0°C | 1.1% | 89.8hPa | 2.6V | 00:00:00 | 00:00:00 | 00:00:00 | |
| DM0DOS-11 | 2026-08-31 05:44:25 | 52.50857 | 14.99317 | 46° | 46km/h | 17241m | -4.1m/s | -52°C | 4.3% | 89.4hPa | 2.6V | 08:30:00 | 01:34:35 | 00:00:00 | |
| SONDE2-12 | 2026-08-31 05:44:24 | 52.50889 | 14.99354 | 27° | 31km/h | 17225m | -3.8m/s | -52.0°C | 1.3% | 89.6hPa | 2.6V | 00:00:00 | 00:00:00 | 00:00:00 | |
| DF8AY | 2026-08-31 05:44:21 | 52.50865 | 14.99330 | 39° | 42km/h | 17237m | -4.3m/s | 0°C | 0% | 0hPa | 2.6V | 18:12:15 | 01:34:36 | 00:00:00 | |
| DL1XH-west | 2026-08-31 05:44:17 | 52.50839 | 14.99272 | 71° | 44km/h | 17253m | -4.1m/s | -52°C | 0.6% | 89.2hPa | 2.7V | 18:12:15 | 01:34:32 | 00:00:00 | |
| 3Z3Z-3 | 2026-08-31 05:44:15 | 52.50836 | 14.99256 | 76° | 40km/h | 17257m | -3.9m/s | -52.0°C | 1.2% | 89.2hPa | 2.7V | 00:00:00 | 00:00:00 | 00:00:00 | |
| DL2RXE-15 | 2026-08-31 05:44:14 | 52.50834 | 14.99240 | 86° | 35km/h | 17261m | -3.9m/s | -52.0°C | 1.2% | 89.2hPa | 2.7V | 00:00:00 | 00:00:00 | 00:00:00 | |
| DL1XH1-15 | 2026-08-31 05:44:12 | 52.50831 | 14.99186 | 350° | 13km/h | 17293m | -4.2m/s | -51.4°C | 4.1% | 88.7hPa | 2.7V | 08:30:00 | 01:34:22 | 00:00:00 | |
| DB0DAN | 2026-08-31 05:44:10 | 52.50836 | 14.99191 | 93° | 11km/h | 17280m | -4.5m/s | -51.8°C | 1.1% | 88.86hPa | 2.6V | 00:00:00 | 00:00:00 | 00:00:00 | |
| EDDB2-11 | 2026-08-31 05:44:09 | 52.50834 | 14.99186 | 7° | 7km/h | 17289m | -4.1m/s | -51.5°C | 1.1% | 88.8hPa | 2.7V | 00:00:00 | 00:00:00 | 00:00:00 | |
| DM0DOS-11 | 2026-08-31 05:44:06 | 52.50789 | 14.99174 | 25° | 46km/h | 17319m | -4.2m/s | -50.9°C | 3.9% | 88.3hPa | 2.7V | 08:30:00 | 01:34:16 | 00:00:00 | |
| AA1-15 | 2026-08-31 05:44:06 | 52.50828 | 14.99186 | 352° | 18km/h | 17298m | -4.5m/s | -51.1°C | 0.3% | 88.6hPa | 2.7V | 18:12:15 | 01:34:21 | 00:00:00 | |
| DF8AY | 2026-08-31 05:44:02 | 52.50799 | 14.99180 | 18° | 40km/h | 17315m | -4.2m/s | 0°C | 0% | 0hPa | 2.7V | 18:12:15 | 01:34:17 | 00:00:00 | |
| SP3WXH-11 | 2026-08-31 05:44:01 | 52.50779 | 14.99164 | 34° | 46km/h | 17323m | -4.4m/s | -50.9°C | 1.0% | 88.3hPa | 2.7V | 00:00:00 | 00:00:00 | 00:00:00 | |
| DB0NH | 2026-08-31 05:44:00 | 52.50779 | 14.99164 | 35° | 35km/h | 17323m | -4.4m/s | -50.9°C | 4.0% | 88.3hPa | 2.7V | 00:00:00 | 01:34:15 | 00:00:00 | |
| OE3JTB-15 | 2026-08-31 05:43:59 | 52.50770 | 14.99152 | 45° | 31km/h | 17328m | -4.2m/s | 0°C | 0% | 0hPa | 2.6V | 00:00:00 | 01:34:14 | 00:00:00 | |
| DM0DOS-11 | 2026-08-31 05:43:56 | 52.50745 | 14.99060 | 94° | 11km/h | 17357m | -3.8m/s | -51.2°C | 4% | 87.8hPa | 2.6V | 08:30:00 | 01:34:06 | 00:00:00 | |
| DB0DAN | 2026-08-31 05:43:55 | 52.50747 | 14.99095 | 77° | 33km/h | 17344m | -4.3m/s | -51.1°C | 1% | 88.03hPa | 2.7V | 00:00:00 | 00:00:00 | 00:00:00 | |
| DL1XH-west | 2026-08-31 05:43:55 | 52.50747 | 14.99095 | 77° | 35km/h | 17344m | -4.3m/s | -51.1°C | 0.3% | 88hPa | 2.7V | 18:12:15 | 01:34:10 | 00:00:00 | |
| DJ2DS-15 | 2026-08-31 05:43:53 | 52.50745 | 14.99060 | 94° | 11km/h | 17357m | -3.8m/s | -51.2°C | 1.0% | 87.8hPa | 2.6V | 00:00:00 | 00:00:00 | 00:00:00 | |
| DL1XH1-15 | 2026-08-31 05:43:51 | 52.50734 | 14.99063 | 346° | 26km/h | 17378m | -4.5m/s | -51.4°C | 4.1% | 87.5hPa | 2.6V | 08:30:00 | 01:34:01 | 00:00:00 | |
| EDDB2-12 | 2026-08-31 05:43:50 | 52.50744 | 14.99057 | 346° | 5km/h | 17365m | -4.6m/s | -51.3°C | 1.0% | 87.7hPa | 2.6V | 00:00:00 | 00:00:00 | 00:00:00 | |
| DC4HF-4 | 2026-08-31 05:43:47 | 52.50734 | 14.99063 | 346° | 26km/h | 17378m | -4.5m/s | -51.4°C | 1.1% | 87.5hPa | 2.6V | 00:00:00 | 00:00:00 | 00:00:00 | |
| DM0DOS-11 | 2026-08-31 05:43:46 | 52.50687 | 14.99055 | 23° | 46km/h | 17398m | -4.1m/s | -51.5°C | 4.1% | 87.3hPa | 2.6V | 08:30:00 | 01:33:56 | 00:00:00 | |
| AA1-15 | 2026-08-31 05:43:44 | 52.50718 | 14.99066 | 0° | 37km/h | 17386m | -3.9m/s | -51.4°C | 0.4% | 87.4hPa | 2.7V | 18:12:15 | 01:33:59 | 00:00:00 | |
| DF8AY | 2026-08-31 05:43:41 | 52.50688 | 14.99055 | 24° | 46km/h | 17398m | -4.1m/s | 0°C | 0% | 0hPa | 2.6V | 18:12:15 | 01:33:56 | 00:00:00 | |
| DB0DAN | 2026-08-31 05:43:40 | 52.50677 | 14.99046 | 31° | 44km/h | 17402m | -4.1m/s | -51.6°C | 1% | 87.22hPa | 2.6V | 00:00:00 | 00:00:00 | 00:00:00 | |
| 13BRC | 2026-08-31 05:43:39 | 52.50677 | 14.99046 | 32° | 46km/h | 17402m | -4.1m/s | -51.6°C | 1.0% | 87.2hPa | 2.6V | 00:00:00 | 00:00:00 | 00:00:00 | |
| EDDB2-11 | 2026-08-31 05:43:38 | 52.50651 | 14.99008 | 54° | 44km/h | 17413m | -4.1m/s | -51.6°C | 1.0% | 87.0hPa | 2.6V | 00:00:00 | 00:00:00 | 00:00:00 | |
| DM0DOS-11 | 2026-08-31 05:43:36 | 52.50639 | 14.98944 | 85° | 11km/h | 17436m | -4m/s | -51.7°C | 4.2% | 86.8hPa | 2.6V | 08:30:00 | 01:33:46 | 00:00:00 | |
| AA1-15 | 2026-08-31 05:43:33 | 52.50640 | 14.98957 | 83° | 20km/h | 17429m | -3.4m/s | -51.7°C | 0.4% | 86.9hPa | 2.7V | 18:12:15 | 01:33:48 | 00:00:00 | |
| DL2RXE-15 | 2026-08-31 05:43:32 | 52.50640 | 14.98957 | 84° | 20km/h | 17429m | -3.4m/s | -51.7°C | 1.1% | 86.9hPa | 2.7V | 00:00:00 | 00:00:00 | 00:00:00 | |
| SP3WXH-11 | 2026-08-31 05:43:30 | 52.50638 | 14.98941 | 329° | 4km/h | 17443m | -4.4m/s | -51.7°C | 1.1% | 86.7hPa | 2.7V | 00:00:00 | 00:00:00 | 00:00:00 | |
| KRY50SP-1 | 2026-08-31 05:43:28 | 52.50636 | 14.98942 | 330° | 13km/h | 17448m | -4.5m/s | -51.8°C | 1.1% | 86.6hPa | 2.7V | 00:00:00 | 00:00:00 | 00:00:00 | |
| DM0DOS-11 | 2026-08-31 05:43:26 | 52.50588 | 14.98927 | 37° | 42km/h | 17473m | -3.6m/s | -52°C | 4.3% | 86.3hPa | 2.7V | 08:30:00 | 01:33:36 | 00:00:00 | |
| DB0DAN | 2026-08-31 05:43:25 | 52.50622 | 14.98947 | 0° | 29km/h | 17460m | -3.5m/s | -51.9°C | 1.1% | 86.45hPa | 2.6V | 00:00:00 | 00:00:00 | 00:00:00 | |
| DL1XH-west | 2026-08-31 05:43:23 | 52.50606 | 14.98943 | 17° | 37km/h | 17467m | -3.8m/s | -51.9°C | 0.5% | 86.3hPa | 2.6V | 18:12:15 | 01:33:38 | 00:00:00 | |
| AA1-15 | 2026-08-31 05:43:22 | 52.50597 | 14.98936 | 29° | 42km/h | 17470m | -3.4m/s | -52°C | 0.5% | 86.3hPa | 2.7V | 18:12:15 | 01:33:37 | 00:00:00 | |
| SONCRA | 2026-08-31 05:43:20 | 52.50580 | 14.98916 | 43° | 42km/h | 17477m | -3.7m/s | -52.0°C | 1.1% | 86.2hPa | 2.6V | 00:00:00 | 00:00:00 | 00:00:00 | |
| DL1XH1-15 | 2026-08-31 05:43:19 | 52.50560 | 14.98875 | 61° | 42km/h | 17488m | -4.2m/s | -51.9°C | 4.3% | 86hPa | 2.6V | 08:30:00 | 01:33:32 | 00:00:00 | |
| EDDB2-12 | 2026-08-31 05:43:19 | 52.50566 | 14.98890 | 53° | 42km/h | 17484m | -3.7m/s | -52.0°C | 1.1% | 86.1hPa | 2.7V | 00:00:00 | 00:00:00 | 00:00:00 | |
| SP3BTT-10 | 2026-08-31 05:43:18 | 52.50566 | 14.98890 | 54° | 35km/h | 17484m | -3.6m/s | -51.9°C | 4.3% | 86.1hPa | 2.7V | 00:00:00 | 00:00:00 | 00:00:00 | |
| KRY50SP-1 | 2026-08-31 05:43:17 | 52.50566 | 14.98890 | 55° | 44km/h | 17484m | -3.7m/s | -52.0°C | 1.1% | 86.1hPa | 2.7V | 00:00:00 | 00:00:00 | 00:00:00 | |
| DM0DOS-11 | 2026-08-31 05:43:16 | 52.50554 | 14.98805 | 99° | 13km/h | 17513m | -3.9m/s | -51.6°C | 4.2% | 85.7hPa | 2.7V | 08:30:00 | 01:33:26 | 00:00:00 | |
| DL1XH-west | 2026-08-31 05:43:12 | 52.50552 | 14.98812 | 101° | 20km/h | 17509m | -3.9m/s | -51.7°C | 0.5% | 85.8hPa | 2.6V | 18:12:15 | 01:33:27 | 00:00:00 | |
| DL1XH1-15 | 2026-08-31 05:43:12 | 52.50550 | 14.98800 | 346° | 13km/h | 17527m | -3.6m/s | -51.5°C | 4.2% | 85.6hPa | 2.6V | 08:30:00 | 01:33:22 | 00:00:00 | |
| AA1-15 | 2026-08-31 05:43:11 | 52.50553 | 14.98805 | 100° | 13km/h | 17513m | -3.9m/s | -51.7°C | 0.4% | 85.8hPa | 2.7V | 18:12:15 | 01:33:26 | 00:00:00 | |
| DB0DAN | 2026-08-31 05:43:10 | 52.50554 | 14.98801 | 90° | 5km/h | 17516m | -3.7m/s | -51.6°C | 1.1% | 85.73hPa | 2.7V | 00:00:00 | 00:00:00 | 00:00:00 | |
| 3Z3Z-3 | 2026-08-31 05:43:09 | 52.50554 | 14.98801 | 91° | 5km/h | 17516m | -3.7m/s | -51.6°C | 1.1% | 85.7hPa | 2.6V | 00:00:00 | 00:00:00 | 00:00:00 | |
| KRY50SP-1 | 2026-08-31 05:43:07 | 52.50550 | 14.98800 | 348° | 13km/h | 17527m | -3.6m/s | -51.6°C | 1.1% | 85.6hPa | 2.6V | 00:00:00 | 00:00:00 | 00:00:00 | |
| DM0DOS-11 | 2026-08-31 05:43:06 | 52.50510 | 14.98791 | 26° | 42km/h | 17548m | -3.9m/s | -51.5°C | 4.1% | 85.3hPa | 2.6V | 08:30:00 | 01:33:16 | 00:00:00 | |
| DL1XH-west | 2026-08-31 05:43:01 | 52.50510 | 14.98791 | 27° | 42km/h | 17548m | -3.9m/s | -51.5°C | 0.4% | 85.3hPa | 2.6V | 18:12:15 | 01:33:16 | 00:00:00 | |
| AA1-15 | 2026-08-31 05:43:00 | 52.50500 | 14.98782 | 33° | 46km/h | 17551m | -3.7m/s | -51.5°C | 0.4% | 85.2hPa | 2.6V | 18:12:15 | 01:33:15 | 00:00:00 | |
| SP3WXH-11 | 2026-08-31 05:42:59 | 52.50483 | 14.98758 | 48° | 46km/h | 17559m | -3.9m/s | -51.5°C | 1.0% | 85.1hPa | 2.6V | 00:00:00 | 00:00:00 | 00:00:00 | |
| 13BRC | 2026-08-31 05:42:58 | 52.50491 | 14.98771 | 42° | 46km/h | 17555m | -3.7m/s | -51.5°C | 1.0% | 85.2hPa | 2.6V | 00:00:00 | 00:00:00 | 00:00:00 | |
| DM0DOS-11 | 2026-08-31 05:42:56 | 52.50462 | 14.98655 | 95° | 24km/h | 17585m | -3.9m/s | -51.4°C | 4.1% | 84.8hPa | 2.6V | 08:30:00 | 01:33:06 | 00:00:00 | |
| DB0DAN | 2026-08-31 05:42:55 | 52.50466 | 14.98710 | 71° | 40km/h | 17570m | -3.7m/s | -51.4°C | 1% | 84.95hPa | 2.6V | 00:00:00 | 00:00:00 | 00:00:00 | |
| DL1XH-west | 2026-08-31 05:42:51 | 52.50462 | 14.98655 | 95° | 24km/h | 17585m | -3.9m/s | -51.4°C | 0.4% | 84.8hPa | 2.6V | 18:12:15 | 01:33:06 | 00:00:00 | |
| DL1XH1-15 | 2026-08-31 05:42:49 | 52.50459 | 14.98637 | 358° | 13km/h | 17600m | -4m/s | -51.4°C | 4.2% | 84.6hPa | 2.7V | 08:30:00 | 01:33:02 | 00:00:00 | |
| AA1-15 | 2026-08-31 05:42:49 | 52.50462 | 14.98641 | 89° | 9km/h | 17592m | -4.2m/s | -51.4°C | 0.4% | 84.7hPa | 2.6V | 18:12:15 | 01:33:04 | 00:00:00 | |
| EDDB2-12 | 2026-08-31 05:42:48 | 52.50459 | 14.98637 | 358° | 13km/h | 17600m | -4.0m/s | -51.4°C | 1.1% | 84.6hPa | 2.7V | 00:00:00 | 00:00:00 | 00:00:00 | |
| DM0DOS-11 | 2026-08-31 05:42:46 | 52.50417 | 14.98622 | 22° | 46km/h | 17622m | -3.3m/s | -51.5°C | 4.2% | 84.3hPa | 2.7V | 08:30:00 | 01:32:56 | 00:00:00 | |
| DF8AY | 2026-08-31 05:42:42 | 52.50427 | 14.98629 | 19° | 40km/h | 17619m | -3.8m/s | 0°C | 0% | 0hPa | 2.7V | 18:12:15 | 01:32:57 | 00:00:00 | |
| DL1XH-west | 2026-08-31 05:42:40 | 52.50406 | 14.98614 | 28° | 47km/h | 17626m | -4m/s | -51.6°C | 0.5% | 84.2hPa | 2.6V | 18:12:15 | 01:32:55 | 00:00:00 | |
| DL1XH1-15 | 2026-08-31 05:42:39 | 52.50378 | 14.98576 | 53° | 49km/h | 17636m | -3.9m/s | -51.6°C | 4.2% | 84.1hPa | 2.7V | 08:30:00 | 01:32:52 | 00:00:00 | |
| AA1-15 | 2026-08-31 05:42:39 | 52.50396 | 14.98604 | 36° | 47km/h | 17629m | -4.1m/s | -51.6°C | 0.4% | 84.2hPa | 2.6V | 18:12:15 | 01:32:54 | 00:00:00 | |
| 3Z3Z-3 | 2026-08-31 05:42:38 | 52.50386 | 14.98591 | 46° | 47km/h | 17633m | -3.8m/s | -51.6°C | 1.0% | 84.1hPa | 2.7V | 00:00:00 | 00:00:00 | 00:00:00 | |
| DM0DOS-11 | 2026-08-31 05:42:36 | 52.50358 | 14.98478 | 86° | 27km/h | 17658m | -3.7m/s | -51.7°C | 4.2% | 83.8hPa | 2.7V | 08:30:00 | 01:32:46 | 00:00:00 | |
| DL1XH-west | 2026-08-31 05:42:30 | 52.50358 | 14.98468 | 98° | 22km/h | 17662m | -4.3m/s | -51.7°C | 0.4% | 83.7hPa | 2.7V | 18:12:15 | 01:32:45 | 00:00:00 | |
| DL1XH1-15 | 2026-08-31 05:42:29 | 52.50357 | 14.98452 | 3° | 7km/h | 17674m | -4.3m/s | -51.7°C | 4.2% | 83.6hPa | 2.6V | 08:30:00 | 01:32:42 | 00:00:00 | |
| AA1-15 | 2026-08-31 05:42:28 | 52.50358 | 14.98455 | 69° | 9km/h | 17670m | -3.6m/s | -51.7°C | 0.4% | 83.7hPa | 2.6V | 18:12:15 | 01:32:43 | 00:00:00 | |
| 3Z3Z-3 | 2026-08-31 05:42:27 | 52.50358 | 14.98454 | 70° | 9km/h | 17670m | -3.6m/s | -51.7°C | 1.1% | 83.7hPa | 2.7V | 00:00:00 | 00:00:00 | 00:00:00 | |
| DM0DOS-11 | 2026-08-31 05:42:26 | 52.50320 | 14.98448 | 15° | 40km/h | 17696m | -4.3m/s | -51.4°C | 4.2% | 83.3hPa | 2.7V | 08:30:00 | 01:32:36 | 00:00:00 | |
| SP6BVK | 2026-08-31 05:42:23 | 52.50345 | 14.98452 | 358° | 26km/h | 17686m | -3.4m/s | -51.5°C | 1.1% | 83.5hPa | 2.6V | 00:00:00 | 00:00:00 | 00:00:00 | |
| DL1XH1-15 | 2026-08-31 05:42:22 | 52.50286 | 14.98408 | 56° | 44km/h | 17710m | -3.8m/s | -51.5°C | 4.2% | 83.1hPa | 2.6V | 08:30:00 | 01:32:32 | 00:00:00 | |
| SONDE2-12 | 2026-08-31 05:42:20 | 52.50311 | 14.98442 | 24° | 40km/h | 17700m | -4.2m/s | -51.4°C | 1.3% | 83.3hPa | 2.6V | 00:00:00 | 00:00:00 | 00:00:00 | |
| DL1XH-west | 2026-08-31 05:42:19 | 52.50302 | 14.98433 | 35° | 44km/h | 17704m | -3.9m/s | -51.4°C | 0.4% | 83.2hPa | 2.6V | 18:12:15 | 01:32:34 | 00:00:00 | |
| AA1-15 | 2026-08-31 05:42:18 | 52.50293 | 14.98421 | 46° | 44km/h | 17707m | -3.7m/s | -51.4°C | 0.4% | 83.2hPa | 2.6V | 18:12:15 | 01:32:33 | 00:00:00 | |
| 3Z3Z-3 | 2026-08-31 05:42:17 | 52.50286 | 14.98408 | 58° | 44km/h | 17711m | -3.8m/s | -51.5°C | 1.1% | 83.1hPa | 2.7V | 00:00:00 | 00:00:00 | 00:00:00 | |
| KRY50SP-1 | 2026-08-31 05:42:14 | 52.50277 | 14.98376 | 71° | 42km/h | 17718m | -3.7m/s | -51.5°C | 1.1% | 83.0hPa | 2.7V | 00:00:00 | 00:00:00 | 00:00:00 | |
| DL2RXE-15 | 2026-08-31 05:42:12 | 52.50273 | 14.98346 | 91° | 35km/h | 17725m | -4.3m/s | -51.5°C | 1.1% | 83.0hPa | 2.7V | 00:00:00 | 00:00:00 | 00:00:00 | |
| DB0DAN | 2026-08-31 05:42:10 | 52.50275 | 14.98313 | 106° | 18km/h | 17736m | -4.2m/s | -51.5°C | 1.1% | 82.81hPa | 2.7V | 00:00:00 | 00:00:00 | 00:00:00 | |
| DL1XH1-15 | 2026-08-31 05:42:09 | 52.50275 | 14.98302 | 18° | 4km/h | 17748m | -4.5m/s | -51.5°C | 4.1% | 82.7hPa | 2.6V | 08:30:00 | 01:32:22 | 00:00:00 | |
| DL1XH-west | 2026-08-31 05:42:09 | 52.50276 | 14.98307 | 101° | 13km/h | 17740m | -4.1m/s | -51.5°C | 0.4% | 82.8hPa | 2.7V | 18:12:15 | 01:32:24 | 00:00:00 | |
| AA1-15 | 2026-08-31 05:42:07 | 52.50275 | 14.98302 | 18° | 4km/h | 17748m | -4.5m/s | -51.5°C | 0.4% | 82.7hPa | 2.6V | 18:12:15 | 01:32:22 | 00:00:00 | |
| DM0DOS-11 | 2026-08-31 05:42:06 | 52.50242 | 14.98297 | 16° | 38km/h | 17771m | -4.2m/s | -51.6°C | 4.1% | 82.3hPa | 2.7V | 08:30:00 | 01:32:16 | 00:00:00 | |
| 3Z3Z-3 | 2026-08-31 05:42:05 | 52.50273 | 14.98302 | 3° | 13km/h | 17753m | -3.5m/s | -51.5°C | 1.0% | 82.6hPa | 2.6V | 00:00:00 | 00:00:00 | 00:00:00 | |
| DJ2DS-15 | 2026-08-31 05:42:04 | 52.50265 | 14.98302 | 353° | 22km/h | 17760m | -4.1m/s | -51.5°C | 1.1% | 82.5hPa | 2.6V | 00:00:00 | 00:00:00 | 00:00:00 | |
| MECKS9 | 2026-08-31 05:42:02 | 52.50258 | 14.98302 | 4° | 29km/h | 17764m | -3.9m/s | -51.5°C | 1.0% | 82.5hPa | 2.6V | 00:00:00 | 00:00:00 | 00:00:00 | |
| S3001 | 2026-08-31 05:42:00 | 52.50224 | 14.98282 | 37° | 40km/h | 17779m | -4.0m/s | -51.6°C | 1.1% | 82.3hPa | 2.6V | 00:00:00 | 00:00:00 | 00:00:00 | |
| DL1XH1-15 | 2026-08-31 05:41:59 | 52.50210 | 14.98257 | 56° | 44km/h | 17785m | -4m/s | -51.7°C | 4.2% | 82.2hPa | 2.6V | 08:30:00 | 01:32:12 | 00:00:00 | |
| DL1XH-west | 2026-08-31 05:41:59 | 52.50224 | 14.98282 | 37° | 40km/h | 17778m | -4m/s | -51.6°C | 0.4% | 82.3hPa | 2.7V | 18:12:15 | 01:32:14 | 00:00:00 | |
| SP3WXH-11 | 2026-08-31 05:41:57 | 52.50205 | 14.98242 | 61° | 40km/h | 17789m | -3.6m/s | -51.7°C | 1.1% | 82.1hPa | 2.6V | 00:00:00 | 00:00:00 | 00:00:00 | |
| DM0DOS-11 | 2026-08-31 05:41:56 | 52.50197 | 14.98177 | 92° | 20km/h | 17809m | -3.9m/s | -51.7°C | 4.3% | 81.9hPa | 2.6V | 08:30:00 | 01:32:06 | 00:00:00 | |
| AA1-15 | 2026-08-31 05:41:56 | 52.50205 | 14.98242 | 62° | 42km/h | 17789m | -3.6m/s | -51.7°C | 0.4% | 82.1hPa | 2.6V | 18:12:15 | 01:32:11 | 00:00:00 | |
| DB0DAN | 2026-08-31 05:41:55 | 52.50201 | 14.98227 | 70° | 37km/h | 17792m | -3.6m/s | -51.6°C | 1% | 82.09hPa | 2.7V | 00:00:00 | 00:00:00 | 00:00:00 | |
| 3Z3Z-3 | 2026-08-31 05:41:54 | 52.50201 | 14.98227 | 71° | 38km/h | 17793m | -3.6m/s | -51.6°C | 1.0% | 82.1hPa | 2.6V | 00:00:00 | 00:00:00 | 00:00:00 | |
| MECKS9 | 2026-08-31 05:41:52 | 52.50197 | 14.98187 | 89° | 27km/h | 17805m | -4.1m/s | -51.6°C | 1.1% | 82.0hPa | 2.6V | 00:00:00 | 00:00:00 | 00:00:00 | |
| DL2RXE-15 | 2026-08-31 05:41:51 | 52.50197 | 14.98187 | 89° | 27km/h | 17805m | -4.1m/s | -51.6°C | 1.1% | 82.0hPa | 2.6V | 00:00:00 | 00:00:00 | 00:00:00 | |
| DL1XH1-15 | 2026-08-31 05:41:49 | 52.50196 | 14.98160 | 347° | 5km/h | 17824m | -4.3m/s | -51.7°C | 4.3% | 81.7hPa | 2.6V | 08:30:00 | 01:32:02 | 00:00:00 | |
| DL1XH-west | 2026-08-31 05:41:48 | 52.50197 | 14.98161 | 46° | 5km/h | 17820m | -3.8m/s | -51.7°C | 0.5% | 81.8hPa | 2.7V | 18:12:15 | 01:32:03 | 00:00:00 | |
| SONCRA | 2026-08-31 05:41:47 | 52.50197 | 14.98160 | 347° | 4km/h | 17824m | -4.3m/s | -51.7°C | 1.1% | 81.7hPa | 2.6V | 00:00:00 | 00:00:00 | 00:00:00 | |
| DM0DOS-11 | 2026-08-31 05:41:46 | 52.50164 | 14.98165 | 8° | 38km/h | 17847m | -3.7m/s | -51.7°C | 4.2% | 81.4hPa | 2.6V | 08:30:00 | 01:31:56 | 00:00:00 | |
| AA1-15 | 2026-08-31 05:41:45 | 52.50191 | 14.98162 | 342° | 18km/h | 17832m | -3.9m/s | -51.8°C | 0.5% | 81.6hPa | 2.6V | 18:12:15 | 01:32:00 | 00:00:00 | |
| DB0NH | 2026-08-31 05:41:45 | 52.50191 | 14.98162 | 342° | 31km/h | 17832m | -3.9m/s | -51.7°C | 4.2% | 81.5hPa | 2.6V | 00:00:00 | 01:32:00 | 00:00:00 | |
| 3Z3Z-3 | 2026-08-31 05:41:44 | 52.50191 | 14.98162 | 343° | 18km/h | 17832m | -3.9m/s | -51.8°C | 1.1% | 81.6hPa | 2.6V | 00:00:00 | 00:00:00 | 00:00:00 | |
| DB0DAN | 2026-08-31 05:41:40 | 52.50154 | 14.98162 | 12° | 38km/h | 17851m | -4.7m/s | -51.7°C | 1% | 81.36hPa | 2.6V | 00:00:00 | 00:00:00 | 00:00:00 | |
| DL1XH1-15 | 2026-08-31 05:41:39 | 52.50124 | 14.98138 | 39° | 46km/h | 17863m | -4m/s | -51.6°C | 4.2% | 81.2hPa | 2.7V | 08:30:00 | 01:31:52 | 00:00:00 | |
| DL1XH-west | 2026-08-31 05:41:38 | 52.50134 | 14.98148 | 29° | 47km/h | 17859m | -4.4m/s | -51.7°C | 0.4% | 81.2hPa | 2.7V | 18:12:15 | 01:31:53 | 00:00:00 | |
| DM0DOS-11 | 2026-08-31 05:41:36 | 52.50092 | 14.98055 | 86° | 27km/h | 17888m | -4.4m/s | -51.7°C | 4.2% | 80.9hPa | 2.7V | 08:30:00 | 01:31:46 | 00:00:00 | |
| AA1-15 | 2026-08-31 05:41:34 | 52.50101 | 14.98095 | 64° | 42km/h | 17876m | -4.4m/s | -51.7°C | 0.4% | 81hPa | 2.6V | 18:12:15 | 01:31:49 | 00:00:00 | |
| DL1XH-west | 2026-08-31 05:41:28 | 52.50092 | 14.98032 | 98° | 9km/h | 17900m | -4.2m/s | -51.7°C | 0.5% | 80.8hPa | 2.7V | 18:12:15 | 01:31:43 | 00:00:00 | |
| DL2RXE-15 | 2026-08-31 05:41:27 | 52.50092 | 14.98032 | 99° | 9km/h | 17900m | -4.2m/s | -51.7°C | 1.1% | 80.7hPa | 2.7V | 00:00:00 | 00:00:00 | 00:00:00 | |
| DM0DOS-11 | 2026-08-31 05:41:26 | 52.50061 | 14.98032 | 9° | 35km/h | 17928m | -4.4m/s | -51.7°C | 4.2% | 80.4hPa | 2.7V | 08:30:00 | 01:31:36 | 00:00:00 | |
| DB0DAN | 2026-08-31 05:41:25 | 52.50087 | 14.98030 | 339° | 15km/h | 17912m | -4.7m/s | -51.7°C | 1.1% | 80.6hPa | 2.6V | 00:00:00 | 00:00:00 | 00:00:00 | |
| AA1-15 | 2026-08-31 05:41:23 | 52.50077 | 14.98032 | 357° | 27km/h | 17921m | -3.5m/s | -51.7°C | 0.5% | 80.5hPa | 2.7V | 18:12:15 | 01:31:38 | 00:00:00 | |
| 3Z3Z-3 | 2026-08-31 05:41:22 | 52.50077 | 14.98032 | 358° | 27km/h | 17921m | -3.5m/s | -51.7°C | 1.1% | 80.5hPa | 2.7V | 00:00:00 | 00:00:00 | 00:00:00 | |
| SP6BVK | 2026-08-31 05:41:21 | 52.50061 | 14.98032 | 10° | 37km/h | 17928m | -4.4m/s | -51.7°C | 1.1% | 80.4hPa | 2.7V | 00:00:00 | 00:00:00 | 00:00:00 | |
| DL1XH1-15 | 2026-08-31 05:41:19 | 52.50022 | 14.98002 | 39° | 49km/h | 17944m | -4.2m/s | -51.8°C | 4.1% | 80.2hPa | 2.7V | 08:30:00 | 01:31:32 | 00:00:00 | |
| DL1XH-west | 2026-08-31 05:41:18 | 52.50031 | 14.98013 | 31° | 46km/h | 17940m | -4.3m/s | -51.8°C | 0.3% | 80.2hPa | 2.6V | 18:12:15 | 01:31:33 | 00:00:00 | |
| AA1-15 | 2026-08-31 05:41:12 | 52.49988 | 14.97926 | 75° | 40km/h | 17966m | -4.7m/s | -51.8°C | 0.4% | 80hPa | 2.6V | 18:12:15 | 01:31:27 | 00:00:00 | |
| DB0DAN | 2026-08-31 05:41:10 | 52.49984 | 14.97898 | 89° | 27km/h | 17974m | -4.6m/s | -51.8°C | 1.1% | 79.84hPa | 2.7V | 00:00:00 | 00:00:00 | 00:00:00 | |
| DL1XH1-15 | 2026-08-31 05:41:09 | 52.49983 | 14.97873 | 73° | 11km/h | 17987m | -4.4m/s | -51.8°C | 4.2% | 79.7hPa | 2.7V | 08:30:00 | 01:31:22 | 00:00:00 | |
| DL1XH-west | 2026-08-31 05:41:07 | 52.49983 | 14.97873 | 74° | 11km/h | 17987m | -4.4m/s | -51.8°C | 0.4% | 79.7hPa | 2.7V | 18:12:15 | 01:31:22 | 00:00:00 | |
| AA1-15 | 2026-08-31 05:41:01 | 52.49956 | 14.97866 | 4° | 35km/h | 18012m | -4.4m/s | -52°C | 0.4% | 79.4hPa | 2.7V | 18:12:15 | 01:31:16 | 00:00:00 | |
| DL1XH-west | 2026-08-31 05:40:56 | 52.49907 | 14.97829 | 41° | 53km/h | 18034m | -4.2m/s | -52.1°C | 0.4% | 79.1hPa | 2.7V | 18:12:15 | 01:31:11 | 00:00:00 | |
| DB0DAN | 2026-08-31 05:40:55 | 52.49897 | 14.97814 | 47° | 51km/h | 18038m | -4.4m/s | -52.1°C | 1% | 79.1hPa | 2.7V | 00:00:00 | 00:00:00 | 00:00:00 | |
| AA1-15 | 2026-08-31 05:40:51 | 52.49872 | 14.97745 | 74° | 46km/h | 18056m | -4.9m/s | -52.2°C | 0.4% | 78.9hPa | 2.6V | 18:12:15 | 01:31:06 | 00:00:00 | |
| MECKS9 | 2026-08-31 05:40:50 | 52.49872 | 14.97745 | 75° | 44km/h | 18056m | -4.9m/s | -52.2°C | 1.0% | 78.9hPa | 2.6V | 00:00:00 | 00:00:00 | 00:00:00 | |
| DL1XH1-15 | 2026-08-31 05:40:49 | 52.49866 | 14.97692 | 76° | 20km/h | 18074m | -3.7m/s | -52.2°C | 4.3% | 78.7hPa | 2.6V | 08:30:00 | 01:31:02 | 00:00:00 | |
| SONDE2-12 | 2026-08-31 05:40:47 | 52.49866 | 14.97692 | 76° | 18km/h | 18074m | -3.7m/s | -52.2°C | 1.3% | 78.7hPa | 2.7V | 00:00:00 | 00:00:00 | 00:00:00 | |
| DL1XH-west | 2026-08-31 05:40:46 | 52.49864 | 14.97686 | 60° | 15km/h | 18078m | -3.9m/s | -52.2°C | 0.5% | 78.6hPa | 2.7V | 18:12:15 | 01:31:01 | 00:00:00 | |
| DF8AY | 2026-08-31 05:40:42 | 52.49848 | 14.97672 | 15° | 29km/h | 18095m | -4.6m/s | 0°C | 0% | 0hPa | 2.6V | 18:12:15 | 01:30:57 | 00:00:00 | |
| AA1-15 | 2026-08-31 05:40:40 | 52.49832 | 14.97664 | 20° | 38km/h | 18104m | -4.3m/s | -52.3°C | 0.5% | 78.3hPa | 2.7V | 18:12:15 | 01:30:55 | 00:00:00 | |
| MECKS9 | 2026-08-31 05:40:40 | 52.49832 | 14.97664 | 21° | 38km/h | 18104m | -4.3m/s | -52.3°C | 1.1% | 78.3hPa | 2.6V | 00:00:00 | 00:00:00 | 00:00:00 | |
| DL1XH1-15 | 2026-08-31 05:40:39 | 52.49802 | 14.97638 | 35° | 51km/h | 18116m | -4.5m/s | -52.3°C | 4.3% | 78.2hPa | 2.6V | 08:30:00 | 01:30:52 | 00:00:00 | |
| DM0DOS-11 | 2026-08-31 05:40:37 | 52.49751 | 14.97536 | 66° | 51km/h | 18144m | -4.2m/s | -52.4°C | 4.3% | 77.8hPa | 2.6V | 08:30:00 | 01:30:46 | 00:00:00 | |
| DL1XH-west | 2026-08-31 05:40:36 | 52.49791 | 14.97625 | 41° | 53km/h | 18121m | -4.4m/s | -52.3°C | 0.4% | 78.1hPa | 2.6V | 18:12:15 | 01:30:51 | 00:00:00 | |
| KRY50SP-1 | 2026-08-31 05:40:36 | 52.49791 | 14.97625 | 42° | 53km/h | 18121m | -4.4m/s | -52.3°C | 1.0% | 78.1hPa | 2.6V | 00:00:00 | 00:00:00 | 00:00:00 | |
| 13BRC | 2026-08-31 05:40:35 | 52.49791 | 14.97625 | 42° | 53km/h | 18121m | -4.4m/s | -52.3°C | 1.0% | 78.1hPa | 2.6V | 00:00:00 | 00:00:00 | 00:00:00 | |
| DB0NH | 2026-08-31 05:40:32 | 52.49757 | 14.97555 | 62° | 37km/h | 18139m | -4.7m/s | -52.3°C | 4.3% | 77.8hPa | 2.6V | 00:00:00 | 01:30:47 | 00:00:00 | |
| EDDB2-11 | 2026-08-31 05:40:31 | 52.49751 | 14.97536 | 66° | 49km/h | 18144m | -4.2m/s | -52.4°C | 1.1% | 77.8hPa | 2.6V | 00:00:00 | 00:00:00 | 00:00:00 | |
| KRY50SP-1 | 2026-08-31 05:40:30 | 52.49751 | 14.97536 | 67° | 51km/h | 18144m | -4.2m/s | -52.4°C | 1.1% | 77.8hPa | 2.6V | 00:00:00 | 00:00:00 | 00:00:00 | |
| DL1XH1-15 | 2026-08-31 05:40:29 | 52.49736 | 14.97456 | 77° | 31km/h | 18165m | -4.1m/s | -52.3°C | 4.4% | 77.6hPa | 2.6V | 08:30:00 | 01:30:41 | 00:00:00 | |
| AA1-15 | 2026-08-31 05:40:29 | 52.49743 | 14.97500 | 73° | 44km/h | 18152m | -4.4m/s | -52.4°C | 0.4% | 77.7hPa | 2.7V | 18:12:15 | 01:30:44 | 00:00:00 | |
| 3Z3Z-3 | 2026-08-31 05:40:28 | 52.49743 | 14.97500 | 74° | 44km/h | 18153m | -4.4m/s | -52.4°C | 1.1% | 77.7hPa | 2.6V | 00:00:00 | 00:00:00 | 00:00:00 | |
| DJ2DS-15 | 2026-08-31 05:40:27 | 52.49738 | 14.97469 | 77° | 35km/h | 18161m | -3.9m/s | -52.4°C | 4.4% | 77.6hPa | 2.6V | 00:00:00 | 01:30:42 | 08:30:00 | |
| DM0DOS-11 | 2026-08-31 05:40:26 | 52.49725 | 14.97402 | 62° | 27km/h | 18185m | -4.2m/s | -52.5°C | 4.4% | 77.3hPa | 2.6V | 08:30:00 | 01:30:36 | 00:00:00 | |
| DL1XH-west | 2026-08-31 05:40:26 | 52.49736 | 14.97456 | 78° | 31km/h | 18165m | -4.1m/s | -52.3°C | 0.5% | 77.6hPa | 2.6V | 18:12:15 | 01:30:41 | 00:00:00 | |
| KRY50SP-1 | 2026-08-31 05:40:25 | 52.49736 | 14.97456 | 79° | 31km/h | 18165m | -4.1m/s | -52.3°C | 1.1% | 77.6hPa | 2.7V | 00:00:00 | 00:00:00 | 00:00:00 | |
| SP3WXH-11 | 2026-08-31 05:40:23 | 52.49730 | 14.97422 | 68° | 26km/h | 18177m | -4.0m/s | -52.5°C | 1.1% | 77.5hPa | 2.7V | 00:00:00 | 00:00:00 | 00:00:00 | |
| KRY50SP-1 | 2026-08-31 05:40:20 | 52.49725 | 14.97402 | 63° | 27km/h | 18185m | -4.2m/s | -52.5°C | 1.1% | 77.3hPa | 2.7V | 00:00:00 | 00:00:00 | 00:00:00 | |
| DL1XH1-15 | 2026-08-31 05:40:19 | 52.49701 | 14.97342 | 56° | 38km/h | 18215m | 4.7m/s | -52.6°C | 4.4% | 76.9hPa | 2.7V | 08:30:00 | 01:30:31 | 00:00:00 | |
| AA1-15 | 2026-08-31 05:40:18 | 52.49712 | 14.97368 | 57° | 38km/h | 18206m | -13.8m/s | -52.6°C | 0.5% | 77.2hPa | 2.7V | 18:12:15 | 01:30:33 | 00:00:00 | |
| SONDE2-12 | 2026-08-31 05:40:16 | 52.49701 | 14.97342 | 56° | 37km/h | 18216m | 4.7m/s | -52.6°C | 1.4% | 76.9hPa | 2.6V | 00:00:00 | 00:00:00 | 00:00:00 | |
| DL1XH-west | 2026-08-31 05:40:15 | 52.49696 | 14.97328 | 56° | 40km/h | 18210m | 4m/s | -52.6°C | 0.5% | 77hPa | 2.6V | 18:12:15 | 01:30:30 | 00:00:00 | |
| KRY50SP-1 | 2026-08-31 05:40:15 | 52.49696 | 14.97328 | 56° | 40km/h | 18211m | 4.0m/s | -52.6°C | 1.1% | 77.0hPa | 2.6V | 00:00:00 | 00:00:00 | 00:00:00 | |
| SONCRA | 2026-08-31 05:40:14 | 52.49690 | 14.97315 | 54° | 38km/h | 18205m | 6.0m/s | -52.7°C | 1.1% | 77.1hPa | 2.6V | 00:00:00 | 00:00:00 | 00:00:00 | |
| EDDB2-12 | 2026-08-31 05:40:12 | 52.49679 | 14.97289 | 52° | 38km/h | 18195m | 4.4m/s | -52.6°C | 1.1% | 77.2hPa | 2.6V | 00:00:00 | 00:00:00 | 00:00:00 | |
| DC4HF-4 | 2026-08-31 05:40:11 | 52.49666 | 14.97262 | 51° | 42km/h | 18185m | 3.1m/s | -52.5°C | 1.1% | 77.3hPa | 2.6V | 00:00:00 | 00:00:00 | 00:00:00 | |
| DL1XH1-15 | 2026-08-31 05:40:09 | 52.49644 | 14.97207 | 60° | 38km/h | 18166m | 4.9m/s | -52.6°C | 4.4% | 77.5hPa | 2.6V | 08:30:00 | 01:30:21 | 00:00:00 | |
| AA1-15 | 2026-08-31 05:40:07 | 52.49649 | 14.97221 | 59° | 38km/h | 18172m | 6.1m/s | -52.6°C | 0.5% | 77.5hPa | 2.7V | 18:12:15 | 01:30:22 | 00:00:00 | |
| DM0DOS-11 | 2026-08-31 05:40:06 | 52.49623 | 14.97146 | 51° | 35km/h | 18143m | 4m/s | -52.5°C | 4.4% | 77.8hPa | 2.7V | 08:30:00 | 01:30:16 | 00:00:00 | |
| DL1XH-west | 2026-08-31 05:40:05 | 52.49639 | 14.97194 | 61° | 37km/h | 18161m | 5m/s | -52.6°C | 0.6% | 77.6hPa | 2.6V | 18:12:15 | 01:30:20 | 00:00:00 | |
| KRY50SP-1 | 2026-08-31 05:40:04 | 52.49639 | 14.97194 | 62° | 37km/h | 18161m | 5.0m/s | -52.6°C | 1.1% | 77.6hPa | 2.7V | 00:00:00 | 00:00:00 | 00:00:00 | |
| EDDB2-11 | 2026-08-31 05:40:00 | 52.49617 | 14.97135 | 46° | 33km/h | 18138m | 6.2m/s | -52.5°C | 1.1% | 77.9hPa | 2.7V | 00:00:00 | 00:00:00 | 00:00:00 | |
| DL1XH1-15 | 2026-08-31 05:39:59 | 52.49589 | 14.97092 | 39° | 42km/h | 18117m | 6m/s | -52.6°C | 4.5% | 78.1hPa | 2.7V | 08:30:00 | 01:30:11 | 00:00:00 | |
| SP6BVK | 2026-08-31 05:39:58 | 52.49611 | 14.97125 | 45° | 37km/h | 18133m | 4.5m/s | -52.5°C | 1.1% | 78.0hPa | 2.7V | 00:00:00 | 00:00:00 | 00:00:00 | |
| 3Z3Z-3 | 2026-08-31 05:39:57 | 52.49604 | 14.97114 | 44° | 38km/h | 18127m | 6.8m/s | -52.5°C | 1.1% | 78.1hPa | 2.7V | 00:00:00 | 00:00:00 | 00:00:00 | |
| DM0DOS-11 | 2026-08-31 05:39:56 | 52.49552 | 14.97036 | 47° | 33km/h | 18091m | 3.5m/s | -52.4°C | 4.4% | 78.5hPa | 2.7V | 08:30:00 | 01:30:06 | 00:00:00 | |
| AA1-15 | 2026-08-31 05:39:56 | 52.49589 | 14.97092 | 40° | 42km/h | 18117m | 6m/s | -52.6°C | 0.6% | 78.1hPa | 2.7V | 18:12:15 | 01:30:11 | 00:00:00 | |
| DB0DAN | 2026-08-31 05:39:55 | 52.49581 | 14.97081 | 39° | 40km/h | 18112m | 3.9m/s | -52.5°C | 1.1% | 78.25hPa | 2.7V | 00:00:00 | 00:00:00 | 00:00:00 | |
| DL1XH-west | 2026-08-31 05:39:54 | 52.49573 | 14.97070 | 42° | 42km/h | 18107m | 6.4m/s | -52.5°C | 0.6% | 78.3hPa | 2.6V | 18:12:15 | 01:30:09 | 00:00:00 | |
| SP3WXH-11 | 2026-08-31 05:39:52 | 52.49558 | 14.97047 | 45° | 37km/h | 18096m | 6.5m/s | -52.4°C | 1.1% | 78.4hPa | 2.7V | 00:00:00 | 00:00:00 | 00:00:00 | |
| DL1XH1-15 | 2026-08-31 05:39:49 | 52.49527 | 14.96989 | 46° | 27km/h | 18067m | 5.5m/s | -52.3°C | 4.4% | 78.8hPa | 2.7V | 08:30:00 | 01:30:01 | 00:00:00 | |
| MECKS9 | 2026-08-31 05:39:48 | 52.49541 | 14.97016 | 54° | 31km/h | 18082m | 4.3m/s | -52.4°C | 1.1% | 78.6hPa | 2.7V | 00:00:00 | 00:00:00 | 00:00:00 | |
| DJ2DS-15 | 2026-08-31 05:39:47 | 52.49532 | 14.96998 | 47° | 29km/h | 18072m | 4.2m/s | 0°C | 0% | 0hPa | 2.7V | 00:00:00 | 01:30:02 | 00:00:00 | |
| DM0DOS-11 | 2026-08-31 05:39:46 | 52.49501 | 14.96946 | 43° | 29km/h | 18042m | 5.6m/s | -52.1°C | 4.3% | 79.1hPa | 2.7V | 08:30:00 | 01:29:56 | 00:00:00 | |
| AA1-15 | 2026-08-31 05:39:45 | 52.49522 | 14.96980 | 49° | 31km/h | 18062m | 4.8m/s | -52.2°C | 0.5% | 78.8hPa | 2.6V | 18:12:15 | 01:30:00 | 00:00:00 | |
| DL1XH-west | 2026-08-31 05:39:43 | 52.49512 | 14.96962 | 44° | 29km/h | 18053m | 5.1m/s | -52.2°C | 0.5% | 79hPa | 2.6V | 18:12:15 | 01:29:58 | 00:00:00 | |
| DB0DAN | 2026-08-31 05:39:40 | 52.49496 | 14.96937 | 44° | 31km/h | 18037m | 4.5m/s | -52.1°C | 1.1% | 79.13hPa | 2.7V | 00:00:00 | 00:00:00 | 00:00:00 | |
| DL1XH1-15 | 2026-08-31 05:39:39 | 52.49474 | 14.96904 | 42° | 29km/h | 18019m | 5.8m/s | -52°C | 4.3% | 79.4hPa | 2.7V | 08:30:00 | 01:29:51 | 00:00:00 | |
| MECKS9 | 2026-08-31 05:39:38 | 52.49490 | 14.96928 | 44° | 31km/h | 18033m | 4.6m/s | -52.1°C | 1.1% | 79.2hPa | 2.6V | 00:00:00 | 00:00:00 | 00:00:00 | |
| SP6BVK | 2026-08-31 05:39:37 | 52.49484 | 14.96920 | 43° | 29km/h | 18029m | 5.5m/s | -52.1°C | 1.1% | 79.2hPa | 2.6V | 00:00:00 | 00:00:00 | 00:00:00 | |
| DM0DOS-11 | 2026-08-31 05:39:36 | 52.49448 | 14.96863 | 44° | 29km/h | 17993m | 5.2m/s | -52.1°C | 4.3% | 79.7hPa | 2.6V | 08:30:00 | 01:29:46 | 00:00:00 | |
| AA1-15 | 2026-08-31 05:39:35 | 52.49469 | 14.96896 | 47° | 29km/h | 18014m | 4m/s | -52°C | 0.5% | 79.4hPa | 2.7V | 18:12:15 | 01:29:50 | 00:00:00 | |
| DL1XH-west | 2026-08-31 05:39:32 | 52.49454 | 14.96871 | 44° | 27km/h | 17998m | 4.7m/s | -52.1°C | 0.5% | 79.6hPa | 2.6V | 18:12:15 | 01:29:47 | 00:00:00 | |
| KRY50SP-1 | 2026-08-31 05:39:30 | 52.49448 | 14.96863 | 46° | 29km/h | 17993m | 5.2m/s | -52.1°C | 1.1% | 79.7hPa | 2.7V | 00:00:00 | 00:00:00 | 00:00:00 | |
| EDDB2-11 | 2026-08-31 05:39:29 | 52.49438 | 14.96847 | 39° | 27km/h | 17983m | 4.6m/s | -52.1°C | 1.1% | 79.8hPa | 2.7V | 00:00:00 | 00:00:00 | 00:00:00 | |
| DJ2DS-15 | 2026-08-31 05:39:27 | 52.49427 | 14.96832 | 41° | 27km/h | 17973m | 5.2m/s | 0°C | 0% | 0hPa | 2.7V | 00:00:00 | 01:29:42 | 00:00:00 | |
| DM0DOS-11 | 2026-08-31 05:39:26 | 52.49393 | 14.96791 | 35° | 26km/h | 17943m | 6.2m/s | -51.9°C | 4.3% | 80.3hPa | 2.7V | 08:30:00 | 01:29:36 | 00:00:00 | |
| DB0DAN | 2026-08-31 05:39:25 | 52.49416 | 14.96818 | 34° | 26km/h | 17963m | 5m/s | -51.9°C | 1.1% | 80.09hPa | 2.7V | 00:00:00 | 00:00:00 | 00:00:00 | |
| AA1-15 | 2026-08-31 05:39:24 | 52.49410 | 14.96812 | 35° | 27km/h | 17958m | 4.9m/s | -51.9°C | 0.4% | 80.1hPa | 2.6V | 18:12:15 | 01:29:39 | 00:00:00 | |
| DL1XH-west | 2026-08-31 05:39:22 | 52.49399 | 14.96798 | 39° | 27km/h | 17948m | 3.6m/s | -52°C | 0.5% | 80.2hPa | 2.6V | 18:12:15 | 01:29:37 | 00:00:00 | |
| SP3WXH-11 | 2026-08-31 05:39:21 | 52.49394 | 14.96791 | 35° | 24km/h | 17943m | 6.2m/s | -51.9°C | 1.1% | 80.3hPa | 2.6V | 00:00:00 | 00:00:00 | 00:00:00 | |
| KRY50SP-1 | 2026-08-31 05:39:19 | 52.49388 | 14.96785 | 39° | 26km/h | 17938m | 5.2m/s | -51.9°C | 1.1% | 80.4hPa | 2.6V | 00:00:00 | 00:00:00 | 00:00:00 | |
| DM0DOS-11 | 2026-08-31 05:39:16 | 52.49339 | 14.96727 | 28° | 27km/h | 17893m | 5.4m/s | -51.8°C | 4.3% | 80.9hPa | 2.6V | 08:30:00 | 01:29:26 | 00:00:00 | |
| SONDE2-12 | 2026-08-31 05:39:14 | 52.49357 | 14.96745 | 36° | 29km/h | 17908m | 4.1m/s | -51.9°C | 1.3% | 80.7hPa | 2.7V | 00:00:00 | 00:00:00 | 00:00:00 | |
| AA1-15 | 2026-08-31 05:39:13 | 52.49351 | 14.96739 | 32° | 27km/h | 17903m | 5.5m/s | -51.9°C | 0.5% | 80.8hPa | 2.7V | 18:12:15 | 01:29:28 | 00:00:00 | |
| DL1XH-west | 2026-08-31 05:39:11 | 52.49339 | 14.96727 | 29° | 27km/h | 17893m | 5.4m/s | -51.8°C | 0.5% | 80.9hPa | 2.6V | 18:12:15 | 01:29:26 | 00:00:00 | |
| DB0DAN | 2026-08-31 05:39:10 | 52.49333 | 14.96721 | 32° | 26km/h | 17887m | 5.1m/s | -51.8°C | 1.1% | 81hPa | 2.6V | 00:00:00 | 00:00:00 | 00:00:00 | |
| DJ2DS-15 | 2026-08-31 05:39:07 | 52.49314 | 14.96705 | 29° | 26km/h | 17874m | 4.6m/s | 0°C | 0% | 0hPa | 2.6V | 00:00:00 | 01:29:22 | 00:00:00 | |
| DM0DOS-11 | 2026-08-31 05:39:06 | 52.49284 | 14.96670 | 40° | 22km/h | 17842m | 4.5m/s | -51.9°C | 4.3% | 81.5hPa | 2.6V | 08:30:00 | 01:29:16 | 00:00:00 | |
| AA1-15 | 2026-08-31 05:39:02 | 52.49288 | 14.96676 | 41° | 24km/h | 17848m | 5.8m/s | -51.9°C | 0.5% | 81.5hPa | 2.6V | 18:12:15 | 01:29:17 | 00:00:00 | |
| DL1XH-west | 2026-08-31 05:39:01 | 52.49284 | 14.96670 | 41° | 22km/h | 17842m | 4.5m/s | -52°C | 0.5% | 81.5hPa | 2.6V | 18:12:15 | 01:29:16 | 00:00:00 | |
| DL1XH1-15 | 2026-08-31 05:38:59 | 52.49264 | 14.96640 | 44° | 22km/h | 17816m | 5.3m/s | -51.8°C | 4.3% | 81.9hPa | 2.6V | 08:30:00 | 01:29:11 | 00:00:00 | |
| EDDB2-11 | 2026-08-31 05:38:58 | 52.49272 | 14.96653 | 44° | 22km/h | 17827m | 5.7m/s | -51.8°C | 1.1% | 81.8hPa | 2.6V | 00:00:00 | 00:00:00 | 00:00:00 | |
| DM0DOS-11 | 2026-08-31 05:38:56 | 52.49242 | 14.96603 | 48° | 24km/h | 17792m | 4.5m/s | -51.7°C | 4.2% | 82.2hPa | 2.6V | 08:30:00 | 01:29:06 | 00:00:00 | |
| DB0DAN | 2026-08-31 05:38:55 | 52.49260 | 14.96633 | 45° | 22km/h | 17812m | 4m/s | -51.7°C | 1.1% | 81.93hPa | 2.6V | 00:00:00 | 00:00:00 | 00:00:00 | |
| AA1-15 | 2026-08-31 05:38:51 | 52.49242 | 14.96603 | 48° | 24km/h | 17792m | 4.5m/s | -51.7°C | 0.4% | 82.2hPa | 2.6V | 18:12:15 | 01:29:06 | 00:00:00 | |
| DL1XH-west | 2026-08-31 05:38:50 | 52.49238 | 14.96596 | 48° | 26km/h | 17787m | 6.1m/s | -51.7°C | 0.4% | 82.2hPa | 2.6V | 18:12:15 | 01:29:05 | 00:00:00 | |
| DL1XH1-15 | 2026-08-31 05:38:49 | 52.49223 | 14.96564 | 50° | 24km/h | 17768m | 5m/s | -51.7°C | 4.3% | 82.5hPa | 2.6V | 08:30:00 | 01:29:01 | 00:00:00 | |
| SONDE2-12 | 2026-08-31 05:38:43 | 52.49211 | 14.96541 | 47° | 22km/h | 17753m | 6.2m/s | -51.6°C | 1.4% | 82.7hPa | 2.6V | 00:00:00 | 00:00:00 | 00:00:00 | |
| DM0DOS-11 | 2026-08-31 05:38:42 | 52.49203 | 14.96528 | 41° | 24km/h | 17744m | 4.7m/s | -51.6°C | 4.2% | 82.8hPa | 2.6V | 08:30:00 | 01:28:56 | 00:00:00 | |
| DB0DAN | 2026-08-31 05:38:40 | 52.49198 | 14.96521 | 44° | 26km/h | 17739m | 5.5m/s | -51.6°C | 1.1% | 82.86hPa | 2.6V | 00:00:00 | 00:00:00 | 00:00:00 | |
| DL1XH-west | 2026-08-31 05:38:40 | 52.49198 | 14.96521 | 44° | 26km/h | 17739m | 5.5m/s | -51.6°C | 0.4% | 82.9hPa | 2.6V | 18:12:15 | 01:28:55 | 00:00:00 | |
| DL1XH1-15 | 2026-08-31 05:38:39 | 52.49177 | 14.96492 | 39° | 27km/h | 17719m | 5.6m/s | -51.6°C | 4.2% | 83.1hPa | 2.6V | 08:30:00 | 01:28:51 | 00:00:00 | |
| DJ2DS-15 | 2026-08-31 05:38:37 | 52.49182 | 14.96499 | 39° | 29km/h | 17724m | 4.5m/s | 0°C | 0% | 0hPa | 2.7V | 00:00:00 | 01:28:52 | 00:00:00 | |
| DM0DOS-11 | 2026-08-31 05:38:36 | 52.49154 | 14.96451 | 50° | 27km/h | 17694m | 6.2m/s | -51.6°C | 4.2% | 83.5hPa | 2.7V | 08:30:00 | 01:28:46 | 00:00:00 | |
| DL1XH-west | 2026-08-31 05:38:30 | 52.49149 | 14.96442 | 53° | 29km/h | 17689m | 3.7m/s | -51.7°C | 0.5% | 83.5hPa | 2.6V | 18:12:15 | 01:28:45 | 00:00:00 | |
| DL1XH1-15 | 2026-08-31 05:38:29 | 52.49130 | 14.96404 | 52° | 31km/h | 17670m | 6.5m/s | -51.8°C | 4.3% | 83.8hPa | 2.7V | 08:30:00 | 01:28:41 | 00:00:00 | |
| AA1-15 | 2026-08-31 05:38:29 | 52.49144 | 14.96432 | 51° | 31km/h | 17685m | 4.5m/s | -51.8°C | 0.5% | 83.6hPa | 2.6V | 18:12:15 | 01:28:44 | 00:00:00 | |
| KRY50SP-1 | 2026-08-31 05:38:28 | 52.49144 | 14.96432 | 52° | 31km/h | 17685m | 4.5m/s | -51.8°C | 1.1% | 83.6hPa | 2.6V | 00:00:00 | 00:00:00 | 00:00:00 | |
| DB0DAN | 2026-08-31 05:38:25 | 52.49125 | 14.96394 | 52° | 29km/h | 17665m | 4.9m/s | -51.8°C | 1.1% | 83.83hPa | 2.6V | 00:00:00 | 00:00:00 | 00:00:00 | |
| DM0DOS-11 | 2026-08-31 05:38:25 | 52.49105 | 14.96357 | 49° | 31km/h | 17643m | 4.3m/s | -51.6°C | 4.2% | 84.1hPa | 2.6V | 08:30:00 | 01:28:36 | 00:00:00 | |
| KRY50SP-1 | 2026-08-31 05:38:23 | 52.49120 | 14.96385 | 50° | 29km/h | 17660m | 5.8m/s | -51.8°C | 1.1% | 83.9hPa | 2.7V | 00:00:00 | 00:00:00 | 00:00:00 | |
| S3001 | 2026-08-31 05:38:22 | 52.49110 | 14.96367 | 47° | 29km/h | 17649m | 6.6m/s | -51.6°C | 1.1% | 84.0hPa | 2.7V | 00:00:00 | 00:00:00 | 00:00:00 | |
| 3Z3Z-3 | 2026-08-31 05:38:21 | 52.49110 | 14.96367 | 48° | 31km/h | 17649m | 6.6m/s | -51.6°C | 1.1% | 84.0hPa | 2.7V | 00:00:00 | 00:00:00 | 00:00:00 | |
| DL1XH1-15 | 2026-08-31 05:38:19 | 52.49076 | 14.96316 | 43° | 29km/h | 17618m | 3.1m/s | -51.4°C | 4.2% | 84.4hPa | 2.7V | 08:30:00 | 01:28:31 | 00:00:00 | |
| DL1XH-west | 2026-08-31 05:38:19 | 52.49093 | 14.96340 | 39° | 31km/h | 17634m | 5.2m/s | -51.6°C | 0.5% | 84.2hPa | 2.6V | 18:12:15 | 01:28:34 | 00:00:00 | |
| AA1-15 | 2026-08-31 05:38:18 | 52.49087 | 14.96332 | 38° | 31km/h | 17628m | 5m/s | -51.5°C | 0.4% | 84.3hPa | 2.7V | 18:12:15 | 01:28:33 | 00:00:00 | |
| SP3BTT-10 | 2026-08-31 05:38:17 | 52.49081 | 14.96324 | 42° | 26km/h | 17623m | 5.2m/s | -51.4°C | 4.2% | 84.3hPa | 2.7V | 00:00:00 | 00:00:00 | 00:00:00 | |
| DJ2DS-15 | 2026-08-31 05:38:16 | 52.49075 | 14.96316 | 44° | 27km/h | 17619m | 3.0m/s | 0°C | 0% | 0hPa | 2.7V | 00:00:00 | 01:28:31 | 00:00:00 | |
| DL2RXE-15 | 2026-08-31 05:38:14 | 52.49070 | 14.96307 | 43° | 29km/h | 17614m | 4.9m/s | -51.4°C | 1.1% | 84.4hPa | 2.7V | 00:00:00 | 00:00:00 | 00:00:00 | |
| DM0DOS-11 | 2026-08-31 05:38:12 | 52.49046 | 14.96261 | 53° | 26km/h | 17590m | 4.9m/s | -51.5°C | 4.2% | 84.8hPa | 2.7V | 08:30:00 | 01:28:25 | 00:00:00 | |
| DB0DAN | 2026-08-31 05:38:10 | 52.49046 | 14.96261 | 54° | 26km/h | 17590m | 4.9m/s | -51.6°C | 1.1% | 84.79hPa | 2.7V | 00:00:00 | 00:00:00 | 00:00:00 | |
| SONCRA | 2026-08-31 05:38:10 | 52.49042 | 14.96253 | 52° | 24km/h | 17585m | 3.9m/s | -51.5°C | 1.1% | 84.9hPa | 2.7V | 00:00:00 | 00:00:00 | 00:00:00 | |
| DL1XH1-15 | 2026-08-31 05:38:09 | 52.49030 | 14.96228 | 42° | 24km/h | 17570m | 6.5m/s | -51.4°C | 4.1% | 85hPa | 2.7V | 08:30:00 | 01:28:21 | 00:00:00 | |
| DL1XH-west | 2026-08-31 05:38:08 | 52.49038 | 14.96245 | 55° | 26km/h | 17581m | 5.2m/s | -51.4°C | 0.5% | 84.9hPa | 2.6V | 18:12:15 | 01:28:23 | 00:00:00 | |
| AA1-15 | 2026-08-31 05:38:07 | 52.49034 | 14.96236 | 53° | 26km/h | 17575m | 5.1m/s | -51.4°C | 0.4% | 85hPa | 2.6V | 18:12:15 | 01:28:22 | 00:00:00 | |
| KRY50SP-1 | 2026-08-31 05:38:05 | 52.49030 | 14.96228 | 43° | 24km/h | 17570m | 6.5m/s | -51.4°C | 1.1% | 85.0hPa | 2.7V | 00:00:00 | 00:00:00 | 00:00:00 | |
| DB0NH | 2026-08-31 05:38:02 | 52.49008 | 14.96203 | 29° | 24km/h | 17550m | 6.0m/s | -51.5°C | 4.1% | 85.3hPa | 2.7V | 00:00:00 | 01:28:17 | 00:00:00 | |
| KRY50SP-1 | 2026-08-31 05:38:00 | 52.49002 | 14.96198 | 34° | 26km/h | 17545m | 3.7m/s | -51.6°C | 1.1% | 85.4hPa | 2.7V | 00:00:00 | 00:00:00 | 00:00:00 | |
| DL1XH1-15 | 2026-08-31 05:37:59 | 52.48981 | 14.96163 | 62° | 24km/h | 17520m | 6.3m/s | -51.6°C | 4.2% | 85.7hPa | 2.7V | 08:30:00 | 01:28:11 | 00:00:00 | |
| DL1XH-west | 2026-08-31 05:37:57 | 52.48985 | 14.96171 | 55° | 24km/h | 17525m | 4.8m/s | -51.6°C | 0.4% | 85.7hPa | 2.7V | 18:12:15 | 01:28:12 | 00:00:00 | |
| AA1-15 | 2026-08-31 05:37:56 | 52.48982 | 14.96163 | 62° | 24km/h | 17520m | 6.3m/s | -51.6°C | 0.4% | 85.7hPa | 2.7V | 18:12:15 | 01:28:11 | 00:00:00 | |
| EDDB2-11 | 2026-08-31 05:37:56 | 52.48982 | 14.96163 | 62° | 22km/h | 17520m | 6.3m/s | -51.6°C | 1.1% | 85.7hPa | 2.7V | 00:00:00 | 00:00:00 | 00:00:00 | |
| DB0DAN | 2026-08-31 05:37:55 | 52.48979 | 14.96154 | 64° | 22km/h | 17515m | 4.3m/s | -51.7°C | 1.1% | 85.77hPa | 2.7V | 00:00:00 | 00:00:00 | 00:00:00 | |
| DM0DOS-11 | 2026-08-31 05:37:55 | 52.48963 | 14.96117 | 44° | 22km/h | 17489m | 6.4m/s | -52°C | 4.3% | 86.1hPa | 2.7V | 08:30:00 | 01:28:05 | 00:00:00 | |
| DJ2DS-15 | 2026-08-31 05:37:52 | 52.48971 | 14.96131 | 53° | 22km/h | 17499m | 5.9m/s | -51.9°C | 1.1% | 86.0hPa | 2.6V | 00:00:00 | 00:00:00 | 00:00:00 | |
| S3001 | 2026-08-31 05:37:51 | 52.48967 | 14.96123 | 48° | 22km/h | 17495m | 4.0m/s | -51.9°C | 1.1% | 86.1hPa | 2.6V | 00:00:00 | 00:00:00 | 00:00:00 | |
| DL1XH1-15 | 2026-08-31 05:37:49 | 52.48945 | 14.96089 | 39° | 26km/h | 17469m | 6.6m/s | -51.9°C | 4.3% | 86.4hPa | 2.6V | 08:30:00 | 01:28:01 | 00:00:00 | |
| DF8AY | 2026-08-31 05:37:47 | 52.48945 | 14.96089 | 40° | 26km/h | 17469m | 6.6m/s | -51.9°C | 0.5% | 86.4hPa | 2.6V | 18:12:15 | 01:28:01 | 00:00:00 | |
| DL1XH-west | 2026-08-31 05:37:47 | 52.48950 | 14.96096 | 42° | 26km/h | 17474m | 3.6m/s | -51.9°C | 0.5% | 86.3hPa | 2.6V | 18:12:15 | 01:28:02 | 00:00:00 | |
| AA1-15 | 2026-08-31 05:37:45 | 52.48941 | 14.96083 | 40° | 24km/h | 17464m | 4.8m/s | -51.8°C | 0.5% | 86.5hPa | 2.7V | 18:12:15 | 01:28:00 | 00:00:00 | |
| SONDE2-12 | 2026-08-31 05:37:41 | 52.48917 | 14.96049 | 41° | 24km/h | 17437m | 6.1m/s | -51.8°C | 1.4% | 86.8hPa | 2.7V | 00:00:00 | 00:00:00 | 00:00:00 | |
| DM0DOS-11 | 2026-08-31 05:37:40 | 52.48917 | 14.96049 | 41° | 26km/h | 17437m | 6.1m/s | -51.8°C | 4.4% | 86.8hPa | 2.7V | 08:30:00 | 01:27:55 | 00:00:00 | |
| DL1XH1-15 | 2026-08-31 05:37:40 | 52.48895 | 14.96025 | 29° | 26km/h | 17417m | 4.8m/s | -51.7°C | 4.2% | 87hPa | 2.7V | 08:30:00 | 01:27:51 | 00:00:00 | |
| DL1XH-west | 2026-08-31 05:37:37 | 52.48901 | 14.96030 | 28° | 26km/h | 17422m | 5m/s | -51.7°C | 0.4% | 87hPa | 2.6V | 18:12:15 | 01:27:52 | 00:00:00 | |
| AA1-15 | 2026-08-31 05:37:34 | 52.48885 | 14.96014 | 33° | 24km/h | 17408m | 3.7m/s | -51.7°C | 0.4% | 87.2hPa | 2.7V | 18:12:15 | 01:27:49 | 00:00:00 | |
| DL1XH-west | 2026-08-31 05:37:26 | 52.48848 | 14.95963 | 44° | 26km/h | 17368m | 6.7m/s | -51.3°C | 0.4% | 87.8hPa | 2.6V | 18:12:15 | 01:27:41 | 00:00:00 | |
| DB0DAN | 2026-08-31 05:37:25 | 52.48844 | 14.95956 | 51° | 26km/h | 17362m | 4.6m/s | -51.3°C | 1.1% | 87.8hPa | 2.6V | 00:00:00 | 00:00:00 | 00:00:00 | |
| DM0DOS-11 | 2026-08-31 05:37:25 | 52.48840 | 14.95947 | 51° | 26km/h | 17357m | 5.4m/s | -51.3°C | 4% | 87.9hPa | 2.7V | 08:30:00 | 01:27:39 | 00:00:00 | |
| AA1-15 | 2026-08-31 05:37:24 | 52.48840 | 14.95947 | 51° | 26km/h | 17357m | 5.4m/s | -51.3°C | 0.3% | 87.9hPa | 2.7V | 18:12:15 | 01:27:39 | 00:00:00 | |
| DJ2DS-15 | 2026-08-31 05:37:23 | 52.48836 | 14.95939 | 52° | 27km/h | 17351m | 5.9m/s | 0°C | 0% | 0hPa | 2.7V | 00:00:00 | 01:27:38 | 00:00:00 | |
| KRY50SP-1 | 2026-08-31 05:37:21 | 52.48827 | 14.95925 | 45° | 26km/h | 17340m | 7.1m/s | -51.7°C | 1.0% | 88.1hPa | 2.7V | 00:00:00 | 00:00:00 | 00:00:00 | |
| S3001 | 2026-08-31 05:37:20 | 52.48822 | 14.95918 | 40° | 24km/h | 17334m | 4.0m/s | -51.9°C | 1.1% | 88.2hPa | 2.7V | 00:00:00 | 00:00:00 | 00:00:00 | |
| DM0DOS-11 | 2026-08-31 05:37:18 | 52.48795 | 14.95865 | 63° | 27km/h | 17298m | 3m/s | -52.5°C | 4.4% | 88.7hPa | 2.7V | 08:30:00 | 01:27:28 | 00:00:00 | |
| SP3WXH-11 | 2026-08-31 05:37:17 | 52.48810 | 14.95898 | 48° | 22km/h | 17318m | 6.2m/s | -52.4°C | 1.1% | 88.4hPa | 2.6V | 00:00:00 | 00:00:00 | 00:00:00 | |
| DL1XH1-15 | 2026-08-31 05:37:16 | 52.48787 | 14.95844 | 60° | 31km/h | 17287m | 3.7m/s | -52.5°C | 4.4% | 88.8hPa | 2.6V | 08:30:00 | 01:27:26 | 00:00:00 | |
| DL1XH-west | 2026-08-31 05:37:16 | 52.48806 | 14.95890 | 49° | 26km/h | 17312m | 5m/s | -52.4°C | 0.5% | 88.5hPa | 2.6V | 18:12:15 | 01:27:31 | 00:00:00 | |
| AA1-15 | 2026-08-31 05:37:14 | 52.48798 | 14.95874 | 55° | 26km/h | 17301m | 4.3m/s | -52.5°C | 0.5% | 88.6hPa | 2.7V | 18:12:15 | 01:27:29 | 00:00:00 | |
| DF8AY | 2026-08-31 05:37:13 | 52.48795 | 14.95865 | 64° | 27km/h | 17298m | 3m/s | -52.5°C | 0.5% | 88.7hPa | 2.7V | 18:12:15 | 01:27:28 | 00:00:00 | |
| DB0DAN | 2026-08-31 05:37:10 | 52.48783 | 14.95833 | 61° | 27km/h | 17282m | 5.9m/s | -52.5°C | 1.2% | 88.9hPa | 2.6V | 00:00:00 | 00:00:00 | 00:00:00 | |
| SONDE2-12 | 2026-08-31 05:37:10 | 52.48780 | 14.95823 | 58° | 27km/h | 17277m | 4.8m/s | -52.6°C | 1.4% | 89.0hPa | 2.7V | 00:00:00 | 00:00:00 | 00:00:00 | |
| SONCRA | 2026-08-31 05:37:08 | 52.48772 | 14.95802 | 57° | 29km/h | 17266m | 4.5m/s | -52.6°C | 1.2% | 89.1hPa | 2.7V | 00:00:00 | 00:00:00 | 00:00:00 | |
| DL1XH1-15 | 2026-08-31 05:37:06 | 52.48754 | 14.95736 | 73° | 29km/h | 17233m | 4.6m/s | -52.7°C | 4.5% | 89.6hPa | 2.7V | 08:30:00 | 01:27:16 | 00:00:00 | |
| DL1XH-west | 2026-08-31 05:37:06 | 52.48768 | 14.95792 | 59° | 29km/h | 17260m | 6.6m/s | -52.7°C | 0.6% | 89.2hPa | 2.6V | 18:12:15 | 01:27:21 | 00:00:00 | |
| DM0DOS-11 | 2026-08-31 05:37:05 | 52.48759 | 14.95759 | 66° | 31km/h | 17244m | 4.7m/s | -52.7°C | 4.5% | 89.4hPa | 2.7V | 08:30:00 | 01:27:18 | 00:00:00 | |
| AA1-15 | 2026-08-31 05:37:03 | 52.48759 | 14.95759 | 67° | 31km/h | 17244m | 4.7m/s | -52.7°C | 0.6% | 89.4hPa | 2.7V | 18:12:15 | 01:27:18 | 00:00:00 | |
| DF8AY | 2026-08-31 05:37:02 | 52.48756 | 14.95748 | 72° | 29km/h | 17239m | 5.8m/s | -52.7°C | 0.6% | 89.5hPa | 2.7V | 18:12:15 | 01:27:17 | 00:00:00 | |
| SONDE2-11 | 2026-08-31 05:37:00 | 52.48750 | 14.95712 | 74° | 31km/h | 17223m | 5.1m/s | -52.7°C | 1.2% | 89.7hPa | 2.6V | 00:00:00 | 00:00:00 | 00:00:00 | |
| KRY50SP-1 | 2026-08-31 05:36:58 | 52.48750 | 14.95712 | 76° | 33km/h | 17223m | 5.1m/s | -52.7°C | 1.2% | 89.7hPa | 2.6V | 00:00:00 | 00:00:00 | 00:00:00 | |
| 3Z3Z-3 | 2026-08-31 05:36:57 | 52.48748 | 14.95699 | 78° | 31km/h | 17218m | 3.8m/s | -52.7°C | 1.2% | 89.8hPa | 2.6V | 00:00:00 | 00:00:00 | 00:00:00 | |
| DL1XH1-15 | 2026-08-31 05:36:56 | 52.48729 | 14.95620 | 60° | 31km/h | 17181m | 6.7m/s | -52.6°C | 4.5% | 90.3hPa | 2.6V | 08:30:00 | 01:27:06 | 00:00:00 | |
| DB0DAN | 2026-08-31 05:36:55 | 52.48742 | 14.95663 | 70° | 29km/h | 17204m | 6.5m/s | -52.7°C | 1.2% | 90hPa | 2.6V | 00:00:00 | 00:00:00 | 00:00:00 | |
| DM0DOS-11 | 2026-08-31 05:36:55 | 52.48736 | 14.95641 | 62° | 29km/h | 17193m | 6.6m/s | -52.6°C | 4.5% | 90.2hPa | 2.7V | 08:30:00 | 01:27:08 | 00:00:00 | |
| DL1XH-west | 2026-08-31 05:36:55 | 52.48742 | 14.95663 | 70° | 29km/h | 17204m | 6.5m/s | -52.7°C | 0.6% | 90hPa | 2.6V | 18:12:15 | 01:27:10 | 00:00:00 | |
| AA1-15 | 2026-08-31 05:36:52 | 52.48732 | 14.95630 | 63° | 29km/h | 17187m | 4.1m/s | -52.6°C | 0.6% | 90.2hPa | 2.7V | 18:12:15 | 01:27:07 | 00:00:00 | |
| DF8AY | 2026-08-31 05:36:51 | 52.48729 | 14.95620 | 61° | 31km/h | 17182m | 6.7m/s | -52.6°C | 0.6% | 90.3hPa | 2.6V | 18:12:15 | 01:27:06 | 00:00:00 | |
| S3001 | 2026-08-31 05:36:49 | 52.48722 | 14.95597 | 64° | 31km/h | 17171m | 6.3m/s | -52.5°C | 1.2% | 90.5hPa | 2.7V | 00:00:00 | 00:00:00 | 00:00:00 | |
| DL1XH1-15 | 2026-08-31 05:36:46 | 52.48699 | 14.95485 | 70° | 38km/h | 17129m | 4m/s | -52.2°C | 4.4% | 91hPa | 2.7V | 08:30:00 | 01:26:56 | 00:00:00 | |
| SP3BTT-10 | 2026-08-31 05:36:46 | 52.48713 | 14.95558 | 72° | 37km/h | 17156m | 5.9m/s | -52.4°C | 4.4% | 90.6hPa | 2.6V | 00:00:00 | 00:00:00 | 00:00:00 | |
| DM0DOS-11 | 2026-08-31 05:36:45 | 52.48705 | 14.95515 | 73° | 37km/h | 17140m | 4.9m/s | -52.3°C | 4.4% | 90.9hPa | 2.6V | 08:30:00 | 01:26:58 | 00:00:00 | |
| DL1XH-west | 2026-08-31 05:36:44 | 52.48708 | 14.95529 | 74° | 35km/h | 17145m | 5.2m/s | -52.3°C | 0.6% | 90.8hPa | 2.6V | 18:12:15 | 01:26:59 | 00:00:00 | |
| AA1-15 | 2026-08-31 05:36:41 | 52.48699 | 14.95485 | 70° | 38km/h | 17130m | 4m/s | -52.2°C | 0.5% | 91hPa | 2.7V | 18:12:15 | 01:26:56 | 00:00:00 | |
| DB0DAN | 2026-08-31 05:36:40 | 52.48696 | 14.95471 | 69° | 35km/h | 17125m | 6.4m/s | -52.2°C | 1.1% | 91.1hPa | 2.7V | 00:00:00 | 00:00:00 | 00:00:00 | |
| DF8AY | 2026-08-31 05:36:40 | 52.48696 | 14.95471 | 69° | 37km/h | 17125m | 6.4m/s | -52.2°C | 0.5% | 91.1hPa | 2.7V | 18:12:15 | 01:26:55 | 00:00:00 | |
| SONDE2-12 | 2026-08-31 05:36:39 | 52.48690 | 14.95444 | 67° | 33km/h | 17114m | 5.4m/s | -52.1°C | 1.4% | 91.2hPa | 2.6V | 00:00:00 | 00:00:00 | 00:00:00 | |
| DM0DOS-11 | 2026-08-31 05:36:38 | 52.48673 | 14.95379 | 65° | 38km/h | 17086m | 4.6m/s | -52°C | 4.3% | 91.7hPa | 2.6V | 08:30:00 | 01:26:48 | 00:00:00 | |
| DL1XH1-15 | 2026-08-31 05:36:36 | 52.48664 | 14.95350 | 67° | 37km/h | 17076m | 5m/s | -52°C | 4.3% | 91.8hPa | 2.7V | 08:30:00 | 01:26:46 | 00:00:00 | |
| DL1XH-west | 2026-08-31 05:36:33 | 52.48673 | 14.95379 | 65° | 38km/h | 17086m | 4.6m/s | -52°C | 0.5% | 91.7hPa | 2.6V | 18:12:15 | 01:26:48 | 00:00:00 | |
| DF8AY | 2026-08-31 05:36:30 | 52.48661 | 14.95336 | 69° | 38km/h | 17071m | 4.9m/s | -52°C | 0.5% | 91.9hPa | 2.6V | 18:12:15 | 01:26:45 | 00:00:00 | |
| SONDE2-11 | 2026-08-31 05:36:29 | 52.48653 | 14.95308 | 63° | 38km/h | 17061m | 4.1m/s | -51.9°C | 1.1% | 92.0hPa | 2.8V | 00:00:00 | 00:00:00 | 00:00:00 | |
| DL1XH1-15 | 2026-08-31 05:36:26 | 52.48627 | 14.95211 | 66° | 37km/h | 17022m | 6.1m/s | -52°C | 4.4% | 92.5hPa | 2.8V | 08:30:00 | 01:26:36 | 00:00:00 | |
| DB0DAN | 2026-08-31 05:36:25 | 52.48641 | 14.95266 | 64° | 35km/h | 17044m | 6.5m/s | -51.9°C | 1.1% | 92.28hPa | 2.7V | 00:00:00 | 00:00:00 | 00:00:00 | |
| DL1XH-west | 2026-08-31 05:36:23 | 52.48634 | 14.95239 | 68° | 37km/h | 17033m | 6m/s | -52°C | 0.5% | 92.4hPa | 2.6V | 18:12:15 | 01:26:38 | 00:00:00 | |
| DF8AY | 2026-08-31 05:36:20 | 52.48623 | 14.95197 | 64° | 40km/h | 17016m | 4.5m/s | -52°C | 0.6% | 92.6hPa | 2.7V | 18:12:15 | 01:26:35 | 00:00:00 | |
| AA1-15 | 2026-08-31 05:36:19 | 52.48618 | 14.95183 | 64° | 38km/h | 17012m | 4.5m/s | -52°C | 0.5% | 92.7hPa | 2.7V | 18:12:15 | 01:26:34 | 00:00:00 | |
| S3001 | 2026-08-31 05:36:18 | 52.48615 | 14.95168 | 68° | 37km/h | 17007m | 6.1m/s | -52.0°C | 1.2% | 92.8hPa | 2.7V | 00:00:00 | 00:00:00 | 00:00:00 | |
| DL1XH1-15 | 2026-08-31 05:36:16 | 52.48589 | 14.95056 | 68° | 46km/h | 16970m | 5.5m/s | -51.8°C | 4.2% | 93.3hPa | 2.7V | 08:30:00 | 01:26:26 | 00:00:00 | |
| DL1XH-west | 2026-08-31 05:36:12 | 52.48593 | 14.95073 | 72° | 44km/h | 16976m | 5.6m/s | -51.8°C | 0.5% | 93.2hPa | 2.6V | 18:12:15 | 01:26:27 | 00:00:00 | |
| DB0DAN | 2026-08-31 05:36:10 | 52.48584 | 14.95038 | 69° | 44km/h | 16965m | 4.9m/s | -51.8°C | 1.1% | 93.4hPa | 2.7V | 00:00:00 | 00:00:00 | 00:00:00 | |
| DF8AY | 2026-08-31 05:36:09 | 52.48580 | 14.95020 | 70° | 46km/h | 16959m | 5.9m/s | -51.8°C | 0.5% | 93.5hPa | 2.6V | 18:12:15 | 01:26:24 | 00:00:00 | |
| AA1-15 | 2026-08-31 05:36:08 | 52.48577 | 14.95002 | 72° | 46km/h | 16953m | 5.4m/s | -51.7°C | 0.4% | 93.5hPa | 2.6V | 18:12:15 | 01:26:23 | 00:00:00 | |
| SONDE2-12 | 2026-08-31 05:36:08 | 52.48572 | 14.94984 | 66° | 47km/h | 16947m | 6.7m/s | -51.7°C | 1.4% | 93.6hPa | 2.6V | 00:00:00 | 00:00:00 | 00:00:00 | |
| KRY50SP-1 | 2026-08-31 05:36:06 | 52.48573 | 14.94984 | 67° | 47km/h | 16947m | 6.7m/s | -51.7°C | 1.1% | 93.6hPa | 2.6V | 00:00:00 | 00:00:00 | 00:00:00 | |
| DM0DOS-11 | 2026-08-31 05:36:05 | 52.48555 | 14.94916 | 64° | 42km/h | 16925m | 6.9m/s | -51.7°C | 4.2% | 94hPa | 2.6V | 08:30:00 | 01:26:18 | 00:00:00 | |
| DL1XH-west | 2026-08-31 05:36:01 | 52.48546 | 14.94885 | 66° | 40km/h | 16914m | 6.2m/s | -51.7°C | 0.5% | 94.1hPa | 2.8V | 18:12:15 | 01:26:16 | 00:00:00 | |
| DL1XH1-15 | 2026-08-31 05:35:59 | 52.48537 | 14.94854 | 63° | 40km/h | 16904m | 6.7m/s | -51.7°C | 4.2% | 94.2hPa | 2.6V | 08:30:00 | 01:26:14 | 00:00:00 | |
| DF8AY | 2026-08-31 05:35:59 | 52.48537 | 14.94854 | 63° | 40km/h | 16904m | 6.7m/s | -51.7°C | 0.4% | 94.2hPa | 2.6V | 18:12:15 | 01:26:14 | 00:00:00 | |
| DM0DOS-11 | 2026-08-31 05:35:58 | 52.48506 | 14.94755 | 64° | 46km/h | 16871m | 6m/s | -51.8°C | 4.3% | 94.7hPa | 2.6V | 08:30:00 | 01:26:08 | 00:00:00 | |
| AA1-15 | 2026-08-31 05:35:58 | 52.48532 | 14.94839 | 62° | 44km/h | 16898m | 4.3m/s | -51.7°C | 0.5% | 94.3hPa | 2.6V | 18:12:15 | 01:26:13 | 00:00:00 | |
| DL1XH-west | 2026-08-31 05:35:51 | 52.48496 | 14.94720 | 62° | 46km/h | 16860m | 6.4m/s | -51.8°C | 0.5% | 94.9hPa | 2.6V | 18:12:15 | 01:26:06 | 00:00:00 | |
| DF8AY | 2026-08-31 05:35:49 | 52.48484 | 14.94687 | 61° | 44km/h | 16849m | 6.4m/s | -51.8°C | 0.5% | 95.1hPa | 2.7V | 18:12:15 | 01:26:04 | 00:00:00 | |
| AA1-15 | 2026-08-31 05:35:47 | 52.48473 | 14.94657 | 58° | 42km/h | 16839m | 6.8m/s | -51.7°C | 0.5% | 95.2hPa | 2.6V | 18:12:15 | 01:26:02 | 00:00:00 | |
| DM0DOS-11 | 2026-08-31 05:35:45 | 52.48446 | 14.94584 | 57° | 44km/h | 16812m | 4.6m/s | -51.6°C | 4.2% | 95.6hPa | 2.6V | 08:30:00 | 01:25:57 | 00:00:00 | |
| DL1XH-west | 2026-08-31 05:35:41 | 52.48440 | 14.94568 | 61° | 46km/h | 16807m | 5.3m/s | -51.6°C | 0.5% | 95.7hPa | 2.8V | 18:12:15 | 01:25:56 | 00:00:00 | |
| DL1XH1-15 | 2026-08-31 05:35:39 | 52.48413 | 14.94479 | 63° | 46km/h | 16780m | 5.1m/s | -51.6°C | 4.1% | 96.1hPa | 2.6V | 08:30:00 | 01:25:51 | 00:00:00 | |
| DF8AY | 2026-08-31 05:35:37 | 52.48419 | 14.94497 | 64° | 49km/h | 16785m | 4.9m/s | -51.6°C | 0.4% | 96hPa | 2.6V | 18:12:15 | 01:25:52 | 00:00:00 | |
| SONDE2-12 | 2026-08-31 05:35:37 | 52.48413 | 14.94479 | 63° | 46km/h | 16780m | 5.1m/s | -51.6°C | 1.4% | 96.1hPa | 2.6V | 00:00:00 | 00:00:00 | 00:00:00 | |
| AA1-15 | 2026-08-31 05:35:36 | 52.48413 | 14.94479 | 63° | 46km/h | 16780m | 5.1m/s | -51.6°C | 0.4% | 96.1hPa | 2.6V | 18:12:15 | 01:25:51 | 00:00:00 | |
| DM0DOS-11 | 2026-08-31 05:35:35 | 52.48388 | 14.94417 | 51° | 42km/h | 16758m | 4.5m/s | -51.5°C | 4.1% | 96.4hPa | 2.6V | 08:30:00 | 01:25:47 | 00:00:00 | |
| DL1XH-west | 2026-08-31 05:35:31 | 52.48381 | 14.94403 | 49° | 42km/h | 16753m | 6.6m/s | -51.6°C | 0.4% | 96.5hPa | 2.6V | 18:12:15 | 01:25:46 | 00:00:00 | |
| DL1XH1-15 | 2026-08-31 05:35:29 | 52.48348 | 14.94338 | 52° | 42km/h | 16726m | 5.5m/s | -51.8°C | 4.2% | 96.9hPa | 2.6V | 08:30:00 | 01:25:41 | 00:00:00 | |
| 13BRC | 2026-08-31 05:35:28 | 52.48367 | 14.94378 | 47° | 40km/h | 16742m | 5.5m/s | -51.7°C | 1.1% | 96.7hPa | 2.7V | 00:00:00 | 00:00:00 | 00:00:00 | |
| DM0DOS-11 | 2026-08-31 05:35:27 | 52.48324 | 14.94278 | 56° | 44km/h | 16703m | 6m/s | -52°C | 4.4% | 97.2hPa | 2.7V | 08:30:00 | 01:25:37 | 00:00:00 | |
| DB0DAN | 2026-08-31 05:35:25 | 52.48342 | 14.94324 | 55° | 40km/h | 16720m | 5.9m/s | -51.8°C | 1.1% | 97hPa | 2.6V | 00:00:00 | 00:00:00 | 00:00:00 | |
| AA1-15 | 2026-08-31 05:35:25 | 52.48342 | 14.94324 | 55° | 44km/h | 16720m | 5.9m/s | -51.8°C | 0.5% | 97hPa | 2.6V | 18:12:15 | 01:25:40 | 00:00:00 | |
| DL1XH-west | 2026-08-31 05:35:20 | 52.48312 | 14.94248 | 58° | 42km/h | 16693m | 6.2m/s | -52.1°C | 0.5% | 97.4hPa | 2.6V | 18:12:15 | 01:25:35 | 00:00:00 | |
| DL1XH1-15 | 2026-08-31 05:35:19 | 52.48288 | 14.94190 | 55° | 40km/h | 16670m | 5.9m/s | -52.1°C | 4.4% | 97.7hPa | 2.6V | 08:30:00 | 01:25:31 | 00:00:00 | |
| KRY50SP-1 | 2026-08-31 05:35:17 | 52.48300 | 14.94218 | 57° | 42km/h | 16682m | 6.2m/s | -52.0°C | 1.2% | 97.6hPa | 2.7V | 00:00:00 | 00:00:00 | 00:00:00 | |
| S3001 | 2026-08-31 05:35:16 | 52.48288 | 14.94190 | 55° | 38km/h | 16670m | 5.9m/s | -52.1°C | 1.2% | 97.7hPa | 2.7V | 00:00:00 | 00:00:00 | 00:00:00 | |
| DM0DOS-11 | 2026-08-31 05:35:15 | 52.48264 | 14.94136 | 51° | 40km/h | 16648m | 6.4m/s | -52.1°C | 4.3% | 98.1hPa | 2.7V | 08:30:00 | 01:25:27 | 00:00:00 | |
| AA1-15 | 2026-08-31 05:35:14 | 52.48276 | 14.94163 | 52° | 42km/h | 16659m | 6.7m/s | -52.2°C | 0.5% | 97.9hPa | 2.8V | 18:12:15 | 01:25:29 | 00:00:00 | |
| SP3WXH-11 | 2026-08-31 05:35:13 | 52.48270 | 14.94150 | 52° | 40km/h | 16654m | 4.3m/s | -52.1°C | 1.1% | 98.0hPa | 2.6V | 00:00:00 | 00:00:00 | 00:00:00 | |
| KRY50SP-1 | 2026-08-31 05:35:12 | 52.48270 | 14.94150 | 54° | 42km/h | 16654m | 4.3m/s | -52.1°C | 1.1% | 98.0hPa | 2.6V | 00:00:00 | 00:00:00 | 00:00:00 | |
| DB0DAN | 2026-08-31 05:35:10 | 52.48251 | 14.94110 | 53° | 40km/h | 16638m | 6.7m/s | -52.1°C | 1.1% | 98.23hPa | 2.6V | 00:00:00 | 00:00:00 | 00:00:00 | |
| DL1XH-west | 2026-08-31 05:35:10 | 52.48251 | 14.94110 | 53° | 42km/h | 16638m | 6.7m/s | -52.1°C | 0.5% | 98.2hPa | 2.6V | 18:12:15 | 01:25:25 | 00:00:00 | |
| DL1XH1-15 | 2026-08-31 05:35:09 | 52.48224 | 14.94056 | 49° | 44km/h | 16615m | 6.3m/s | -52.1°C | 4.3% | 98.5hPa | 2.7V | 08:30:00 | 01:25:21 | 00:00:00 | |
| SONDE2-12 | 2026-08-31 05:35:06 | 52.48216 | 14.94042 | 47° | 46km/h | 16611m | 3.9m/s | -52.0°C | 1.5% | 98.7hPa | 2.6V | 00:00:00 | 00:00:00 | 00:00:00 | |
| AA1-15 | 2026-08-31 05:35:03 | 52.48201 | 14.94015 | 50° | 42km/h | 16601m | 5.6m/s | -52°C | 0.5% | 98.8hPa | 2.6V | 18:12:15 | 01:25:18 | 00:00:00 | |
| DL1XH-west | 2026-08-31 05:34:59 | 52.48174 | 14.93960 | 50° | 44km/h | 16581m | 5.5m/s | -52°C | 0.6% | 99.1hPa | 2.6V | 18:12:15 | 01:25:14 | 00:00:00 | |
| DB0DAN | 2026-08-31 05:34:55 | 52.48143 | 14.93907 | 44° | 44km/h | 16558m | 5m/s | -51.9°C | 1.2% | 99.43hPa | 2.7V | 00:00:00 | 00:00:00 | 00:00:00 | |
| AA1-15 | 2026-08-31 05:34:52 | 52.48117 | 14.93869 | 42° | 47km/h | 16542m | 5.2m/s | -52.1°C | 0.6% | 99.7hPa | 2.8V | 18:12:15 | 01:25:07 | 00:00:00 | |
| EDDB2-11 | 2026-08-31 05:34:50 | 52.48100 | 14.93843 | 42° | 44km/h | 16531m | 4.7m/s | -52.0°C | 1.1% | 99.8hPa | 2.8V | 00:00:00 | 00:00:00 | 00:00:00 | |
| DL1XH1-15 | 2026-08-31 05:34:49 | 52.48068 | 14.93790 | 45° | 46km/h | 16512m | 5.5m/s | -52°C | 4.2% | 100.2hPa | 2.8V | 08:30:00 | 01:25:01 | 00:00:00 | |
| DL1XH-west | 2026-08-31 05:34:48 | 52.48084 | 14.93817 | 46° | 46km/h | 16522m | 5.9m/s | -52°C | 0.5% | 100hPa | 2.6V | 18:12:15 | 01:25:03 | 00:00:00 | |
| DF8AY | 2026-08-31 05:34:47 | 52.48076 | 14.93803 | 47° | 47km/h | 16517m | 4.8m/s | -52°C | 0.5% | 100hPa | 2.8V | 18:12:15 | 01:25:02 | 00:00:00 | |
| S3001 | 2026-08-31 05:34:45 | 52.48060 | 14.93776 | 44° | 42km/h | 16507m | 5.1m/s | -52.0°C | 1.2% | 100.2hPa | 2.8V | 00:00:00 | 00:00:00 | 00:00:00 | |
| AA1-15 | 2026-08-31 05:34:41 | 52.48029 | 14.93728 | 43° | 42km/h | 16485m | 5m/s | -52.1°C | 0.5% | 100.6hPa | 2.8V | 18:12:15 | 01:24:56 | 00:00:00 | |
| DB0DAN | 2026-08-31 05:34:40 | 52.48021 | 14.93715 | 44° | 42km/h | 16480m | 5.9m/s | -52.1°C | 1.2% | 100.66hPa | 2.8V | 00:00:00 | 00:00:00 | 00:00:00 | |
| DL1XH1-15 | 2026-08-31 05:34:39 | 52.47989 | 14.93663 | 44° | 44km/h | 16460m | 4.3m/s | -52°C | 4.3% | 101hPa | 2.6V | 08:30:00 | 01:24:51 | 00:00:00 | |
| DL1XH-west | 2026-08-31 05:34:37 | 52.47996 | 14.93676 | 45° | 44km/h | 16464m | 5.9m/s | -52.1°C | 0.6% | 100.9hPa | 2.6V | 18:12:15 | 01:24:52 | 00:00:00 | |
| DM0DOS-11 | 2026-08-31 05:34:35 | 52.47956 | 14.93612 | 41° | 44km/h | 16439m | 5.9m/s | -52.2°C | 4.3% | 101.3hPa | 2.6V | 08:30:00 | 01:24:47 | 00:00:00 | |
| DF8AY | 2026-08-31 05:34:34 | 52.47973 | 14.93637 | 44° | 46km/h | 16450m | 4.9m/s | -52°C | 0.5% | 101.2hPa | 2.8V | 18:12:15 | 01:24:49 | 00:00:00 | |
| AA1-15 | 2026-08-31 05:34:30 | 52.47939 | 14.93589 | 37° | 44km/h | 16428m | 5.7m/s | -52.4°C | 0.6% | 101.5hPa | 2.6V | 18:12:15 | 01:24:45 | 00:00:00 | |
| DL1XH1-15 | 2026-08-31 05:34:29 | 52.47895 | 14.93540 | 33° | 42km/h | 16403m | 4.4m/s | -52.6°C | 4.5% | 101.9hPa | 2.8V | 08:30:00 | 01:24:40 | 00:00:00 | |
| KRY50SP-1 | 2026-08-31 05:34:28 | 52.47930 | 14.93578 | 35° | 44km/h | 16424m | 4.5m/s | -52.5°C | 1.2% | 101.6hPa | 2.6V | 00:00:00 | 00:00:00 | 00:00:00 | |
| DM0DOS-11 | 2026-08-31 05:34:27 | 52.47869 | 14.93509 | 39° | 40km/h | 16388m | 4.7m/s | -52.6°C | 4.5% | 102.1hPa | 2.6V | 08:30:00 | 01:24:37 | 00:00:00 | |
| DL1XH-west | 2026-08-31 05:34:27 | 52.47912 | 14.93559 | 33° | 40km/h | 16413m | 3.6m/s | -52.6°C | 0.7% | 101.7hPa | 2.6V | 18:12:15 | 01:24:42 | 00:00:00 | |
| DB0DAN | 2026-08-31 05:34:25 | 52.47895 | 14.93540 | 34° | 40km/h | 16403m | 4.4m/s | -52.6°C | 1.3% | 101.9hPa | 2.8V | 00:00:00 | 00:00:00 | 00:00:00 | |
| DF8AY | 2026-08-31 05:34:24 | 52.47886 | 14.93530 | 37° | 42km/h | 16398m | 5.5m/s | -52.6°C | 0.7% | 102hPa | 2.7V | 18:12:15 | 01:24:39 | 00:00:00 | |
| AA1-15 | 2026-08-31 05:34:19 | 52.47846 | 14.93475 | 44° | 40km/h | 16372m | 5.7m/s | -52.8°C | 0.7% | 102.4hPa | 2.8V | 18:12:15 | 01:24:34 | 00:00:00 | |
| DL1XH1-15 | 2026-08-31 05:34:19 | 52.47816 | 14.93429 | 42° | 40km/h | 16350m | 5.6m/s | -52.9°C | 4.5% | 102.7hPa | 2.6V | 08:30:00 | 01:24:30 | 00:00:00 | |
| DL1XH-west | 2026-08-31 05:34:16 | 52.47824 | 14.93440 | 44° | 42km/h | 16356m | 4.1m/s | -52.8°C | 0.7% | 102.7hPa | 2.6V | 18:12:15 | 01:24:31 | 00:00:00 | |
| DF8AY | 2026-08-31 05:34:14 | 52.47809 | 14.93418 | 42° | 37km/h | 16345m | 4.6m/s | -52.9°C | 0.7% | 102.8hPa | 2.8V | 18:12:15 | 01:24:29 | 00:00:00 | |
| S3001 | 2026-08-31 05:34:14 | 52.47802 | 14.93408 | 42° | 35km/h | 16340m | 6.8m/s | -53.0°C | 1.3% | 102.9hPa | 2.6V | 00:00:00 | 00:00:00 | 00:00:00 | |
| 3Z3Z-3 | 2026-08-31 05:34:12 | 52.47802 | 14.93408 | 44° | 37km/h | 16340m | 6.8m/s | -53.0°C | 1.3% | 102.9hPa | 2.6V | 00:00:00 | 00:00:00 | 00:00:00 | |
| DB0DAN | 2026-08-31 05:34:10 | 52.47784 | 14.93379 | 44° | 27km/h | 16324m | 4.2m/s | -53°C | 1.3% | 103.17hPa | 2.6V | 00:00:00 | 00:00:00 | 00:00:00 | |
| DL1XH1-15 | 2026-08-31 05:34:09 | 52.47757 | 14.93334 | 48° | 31km/h | 16297m | 5.9m/s | -53.1°C | 4.6% | 103.6hPa | 2.6V | 08:30:00 | 01:24:20 | 00:00:00 | |
| AA1-15 | 2026-08-31 05:34:08 | 52.47773 | 14.93362 | 46° | 31km/h | 16314m | 5.3m/s | -53°C | 0.7% | 103.3hPa | 2.8V | 18:12:15 | 01:24:23 | 00:00:00 | |
| DL1XH-west | 2026-08-31 05:34:06 | 52.47762 | 14.93343 | 46° | 29km/h | 16303m | 5.4m/s | -53.1°C | 0.7% | 103.5hPa | 2.7V | 18:12:15 | 01:24:21 | 00:00:00 | |
| DF8AY | 2026-08-31 05:34:03 | 52.47746 | 14.93312 | 51° | 35km/h | 16287m | 5m/s | -53.2°C | 0.8% | 103.7hPa | 2.6V | 18:12:15 | 01:24:18 | 00:00:00 | |
| KRY50SP-1 | 2026-08-31 05:34:02 | 52.47746 | 14.93312 | 52° | 35km/h | 16287m | 5.0m/s | -53.2°C | 1.3% | 103.7hPa | 2.8V | 00:00:00 | 00:00:00 | 00:00:00 | |
| SONCRA | 2026-08-31 05:34:01 | 52.47736 | 14.93291 | 51° | 31km/h | 16277m | 4.7m/s | -53.2°C | 1.4% | 103.9hPa | 2.8V | 00:00:00 | 00:00:00 | 00:00:00 | |
| EDDB2-12 | 2026-08-31 05:34:00 | 52.47731 | 14.93280 | 54° | 33km/h | 16271m | 6.0m/s | -53.2°C | 1.3% | 104.0hPa | 2.8V | 00:00:00 | 00:00:00 | 00:00:00 | |
| DL1XH1-15 | 2026-08-31 05:33:59 | 52.47711 | 14.93220 | 68° | 33km/h | 16245m | 5.9m/s | -53.1°C | 4.7% | 104.4hPa | 2.8V | 08:30:00 | 01:24:10 | 00:00:00 | |
| AA1-15 | 2026-08-31 05:33:57 | 52.47718 | 14.93245 | 63° | 31km/h | 16255m | 5m/s | -53.1°C | 0.8% | 104.3hPa | 2.6V | 18:12:15 | 01:24:12 | 00:00:00 | |
| DB0DAN | 2026-08-31 05:33:55 | 52.47711 | 14.93220 | 68° | 31km/h | 16245m | 5.9m/s | -53.1°C | 1.3% | 104.41hPa | 2.8V | 00:00:00 | 00:00:00 | 00:00:00 | |
| DM0DOS-11 | 2026-08-31 05:33:55 | 52.47700 | 14.93183 | 60° | 35km/h | 16229m | 4.5m/s | -52.9°C | 4.7% | 104.7hPa | 2.8V | 08:30:00 | 01:24:07 | 00:00:00 | |
| DL1XH-west | 2026-08-31 05:33:55 | 52.47711 | 14.93220 | 68° | 33km/h | 16245m | 5.9m/s | -53.1°C | 0.8% | 104.4hPa | 2.8V | 18:12:15 | 01:24:10 | 00:00:00 | |
| DF8AY | 2026-08-31 05:33:53 | 52.47704 | 14.93195 | 61° | 33km/h | 16234m | 4.8m/s | -53°C | 0.8% | 104.6hPa | 2.6V | 18:12:15 | 01:24:08 | 00:00:00 | |
| KRY50SP-1 | 2026-08-31 05:33:50 | 52.47695 | 14.93169 | 63° | 37km/h | 16225m | 5.9m/s | -53.0°C | 1.4% | 104.7hPa | 2.6V | 00:00:00 | 00:00:00 | 00:00:00 | |
| DL1XH1-15 | 2026-08-31 05:33:49 | 52.47669 | 14.93086 | 62° | 38km/h | 16189m | 6.9m/s | -52.7°C | 4.5% | 105.3hPa | 2.6V | 08:30:00 | 01:24:00 | 00:00:00 | |
| EDDB2-11 | 2026-08-31 05:33:48 | 52.47682 | 14.93128 | 61° | 37km/h | 16208m | 4.1m/s | -52.8°C | 1.3% | 105.0hPa | 2.8V | 00:00:00 | 00:00:00 | 00:00:00 | |
| DM0DOS-11 | 2026-08-31 05:33:47 | 52.47656 | 14.93039 | 67° | 46km/h | 16173m | 3.3m/s | -52.8°C | 4.6% | 105.6hPa | 2.8V | 08:30:00 | 01:23:57 | 00:00:00 | |
| AA1-15 | 2026-08-31 05:33:47 | 52.47678 | 14.93115 | 63° | 38km/h | 16202m | 8m/s | -52.8°C | 0.8% | 105.1hPa | 2.7V | 18:12:15 | 01:24:02 | 00:00:00 | |
| DL1XH-west | 2026-08-31 05:33:44 | 52.47664 | 14.93071 | 64° | 42km/h | 16184m | 4.4m/s | -52.7°C | 0.8% | 105.4hPa | 2.6V | 18:12:15 | 01:23:59 | 00:00:00 | |
| DF8AY | 2026-08-31 05:33:42 | 52.47656 | 14.93039 | 68° | 46km/h | 16173m | 3.3m/s | -52.8°C | 0.8% | 105.6hPa | 2.8V | 18:12:15 | 01:23:57 | 00:00:00 | |
| AA1-15 | 2026-08-31 05:33:36 | 52.47625 | 14.92935 | 61° | 47km/h | 16141m | 3.9m/s | -53.1°C | 0.9% | 106.1hPa | 2.8V | 18:12:15 | 01:23:51 | 00:00:00 | |
| DM0DOS-11 | 2026-08-31 05:33:35 | 52.47603 | 14.92865 | 61° | 47km/h | 16120m | 6.2m/s | -53.1°C | 4.7% | 106.5hPa | 2.6V | 08:30:00 | 01:23:47 | 00:00:00 | |
| DL1XH-west | 2026-08-31 05:33:34 | 52.47614 | 14.92900 | 65° | 47km/h | 16131m | 5m/s | -53.1°C | 0.9% | 106.3hPa | 2.6V | 18:12:15 | 01:23:49 | 00:00:00 | |
| SONDE2-12 | 2026-08-31 05:33:32 | 52.47603 | 14.92865 | 61° | 47km/h | 16120m | 6.2m/s | -53.1°C | 1.7% | 106.5hPa | 2.8V | 00:00:00 | 00:00:00 | 00:00:00 | |
| DF8AY | 2026-08-31 05:33:31 | 52.47597 | 14.92847 | 63° | 49km/h | 16114m | 4.5m/s | -53°C | 0.9% | 106.5hPa | 2.8V | 18:12:15 | 01:23:46 | 00:00:00 | |
| SONCRA | 2026-08-31 05:33:30 | 52.47592 | 14.92829 | 65° | 49km/h | 16109m | 6.3m/s | -52.9°C | 1.4% | 106.6hPa | 2.8V | 00:00:00 | 00:00:00 | 00:00:00 | |
| DL1XH1-15 | 2026-08-31 05:33:29 | 52.47566 | 14.92726 | 71° | 57km/h | 16086m | 5m/s | -52.8°C | 4.6% | 107hPa | 2.8V | 08:30:00 | 01:23:40 | 00:00:00 | |
| DM0DOS-11 | 2026-08-31 05:33:25 | 52.47551 | 14.92661 | 66° | 55km/h | 16071m | 5m/s | -52.7°C | 4.6% | 107.3hPa | 2.6V | 08:30:00 | 01:23:37 | 00:00:00 | |
| AA1-15 | 2026-08-31 05:33:25 | 52.47566 | 14.92726 | 72° | 57km/h | 16086m | 5m/s | -52.8°C | 0.8% | 107hPa | 2.8V | 18:12:15 | 01:23:40 | 00:00:00 | |
| DL1XH-west | 2026-08-31 05:33:24 | 52.47562 | 14.92704 | 69° | 57km/h | 16081m | 4.7m/s | -52.8°C | 0.8% | 107.1hPa | 2.8V | 18:12:15 | 01:23:39 | 00:00:00 | |
| DF8AY | 2026-08-31 05:33:20 | 52.47539 | 14.92619 | 62° | 55km/h | 16061m | 4.7m/s | -52.7°C | 0.8% | 107.5hPa | 2.6V | 18:12:15 | 01:23:35 | 00:00:00 | |
| DL1XH1-15 | 2026-08-31 05:33:19 | 52.47503 | 14.92521 | 60° | 55km/h | 16036m | 6.2m/s | -52.9°C | 4.6% | 107.8hPa | 2.8V | 08:30:00 | 01:23:30 | 00:00:00 | |
| DM0DOS-11 | 2026-08-31 05:33:17 | 52.47486 | 14.92459 | 70° | 57km/h | 16019m | 4.4m/s | -53.1°C | 4.7% | 108.1hPa | 2.6V | 08:30:00 | 01:23:27 | 00:00:00 | |
| AA1-15 | 2026-08-31 05:33:14 | 52.47497 | 14.92501 | 63° | 55km/h | 16031m | 4.3m/s | -53°C | 0.9% | 107.9hPa | 2.8V | 18:12:15 | 01:23:29 | 00:00:00 | |
| DL1XH-west | 2026-08-31 05:33:13 | 52.47491 | 14.92481 | 67° | 57km/h | 16025m | 7.2m/s | -53.1°C | 0.8% | 108hPa | 2.6V | 18:12:15 | 01:23:28 | 00:00:00 | |
| DB0DAN | 2026-08-31 05:33:10 | 52.47476 | 14.92415 | 71° | 53km/h | 16010m | 2.8m/s | -53.2°C | 1.4% | 108.33hPa | 2.8V | 00:00:00 | 00:00:00 | 00:00:00 | |
| DL1XH1-15 | 2026-08-31 05:33:09 | 52.47452 | 14.92304 | 67° | 57km/h | 15985m | 5.8m/s | -53.1°C | 4.7% | 108.7hPa | 2.6V | 08:30:00 | 01:23:20 | 00:00:00 | |
| DF8AY | 2026-08-31 05:33:09 | 52.47472 | 14.92392 | 73° | 57km/h | 16005m | 6.6m/s | -53.3°C | 0.9% | 108.4hPa | 2.6V | 18:12:15 | 01:23:24 | 00:00:00 | |
| DM0DOS-11 | 2026-08-31 05:33:05 | 52.47433 | 14.92240 | 60° | 57km/h | 15971m | 5.3m/s | -53.1°C | 4.8% | 109hPa | 2.8V | 08:30:00 | 01:23:17 | 00:00:00 | |
| DL1XH-west | 2026-08-31 05:33:03 | 52.47440 | 14.92261 | 63° | 57km/h | 15975m | 4.4m/s | -53.2°C | 1% | 108.9hPa | 2.6V | 18:12:15 | 01:23:18 | 00:00:00 | |
| SONDE2-12 | 2026-08-31 05:33:01 | 52.47426 | 14.92219 | 60° | 57km/h | 15965m | 6.0m/s | -53.2°C | 1.8% | 109.1hPa | 2.8V | 00:00:00 | 00:00:00 | 00:00:00 | |
| KRY50SP-1 | 2026-08-31 05:33:00 | 52.47427 | 14.92219 | 61° | 58km/h | 15965m | 6.0m/s | -53.2°C | 1.4% | 109.1hPa | 2.8V | 00:00:00 | 00:00:00 | 00:00:00 | |
| DL1XH1-15 | 2026-08-31 05:32:59 | 52.47383 | 14.92096 | 62° | 57km/h | 15935m | 4.5m/s | -53.7°C | 4.9% | 109.5hPa | 2.8V | 08:30:00 | 01:23:10 | 00:00:00 | |
| DF8AY | 2026-08-31 05:32:58 | 52.47404 | 14.92157 | 58° | 57km/h | 15949m | 5.5m/s | -53.5°C | 1% | 109.3hPa | 2.6V | 18:12:15 | 01:23:13 | 00:00:00 | |
| EDDB2-12 | 2026-08-31 05:32:58 | 52.47404 | 14.92157 | 57° | 57km/h | 15950m | 5.5m/s | -53.5°C | 1.4% | 109.3hPa | 2.8V | 00:00:00 | 00:00:00 | 00:00:00 | |
| 3Z3Z-3 | 2026-08-31 05:32:57 | 52.47404 | 14.92157 | 59° | 57km/h | 15950m | 5.5m/s | -53.5°C | 1.4% | 109.3hPa | 2.8V | 00:00:00 | 00:00:00 | 00:00:00 | |
| DB0DAN | 2026-08-31 05:32:55 | 52.47383 | 14.92096 | 62° | 53km/h | 15935m | 4.5m/s | -53.7°C | 1.5% | 109.55hPa | 2.8V | 00:00:00 | 00:00:00 | 00:00:00 | |
| DL1XH-west | 2026-08-31 05:32:52 | 52.47363 | 14.92035 | 64° | 57km/h | 15920m | 5.6m/s | -53.7°C | 1% | 109.8hPa | 2.6V | 18:12:15 | 01:23:07 | 00:00:00 | |
| SONDE2-11 | 2026-08-31 05:32:51 | 52.47357 | 14.92013 | 61° | 58km/h | 15915m | 3.0m/s | -53.7°C | 1.5% | 109.9hPa | 2.8V | 00:00:00 | 00:00:00 | 00:00:00 | |
| DL1XH1-15 | 2026-08-31 05:32:48 | 52.47288 | 14.91855 | 52° | 60km/h | 15876m | 5.9m/s | -53.6°C | 5% | 110.6hPa | 2.8V | 08:30:00 | 01:22:58 | 00:00:00 | |
| DF8AY | 2026-08-31 05:32:48 | 52.47333 | 14.91952 | 55° | 57km/h | 15902m | 4.8m/s | -53.6°C | 1.1% | 110.2hPa | 2.8V | 18:12:15 | 01:23:03 | 00:00:00 | |
| EDDB2-11 | 2026-08-31 05:32:46 | 52.47316 | 14.91913 | 52° | 58km/h | 15892m | 5.2m/s | -53.5°C | 1.5% | 110.3hPa | 2.8V | 00:00:00 | 00:00:00 | 00:00:00 | |
| DL1XH-west | 2026-08-31 05:32:42 | 52.47279 | 14.91835 | 53° | 60km/h | 15872m | 3m/s | -53.6°C | 1.1% | 110.7hPa | 2.8V | 18:12:15 | 01:22:57 | 00:00:00 | |
| AA1-15 | 2026-08-31 05:32:41 | 52.47269 | 14.91815 | 53° | 60km/h | 15867m | 6m/s | -53.6°C | 1.2% | 110.7hPa | 2.6V | 18:12:15 | 01:22:56 | 00:00:00 | |
| DB0DAN | 2026-08-31 05:32:40 | 52.47260 | 14.91796 | 53° | 55km/h | 15862m | 3.9m/s | -53.6°C | 1.5% | 110.82hPa | 2.6V | 00:00:00 | 00:00:00 | 00:00:00 | |
| DL1XH1-15 | 2026-08-31 05:32:38 | 52.47202 | 14.91665 | 52° | 57km/h | 15826m | 6.8m/s | -53.4°C | 4.8% | 111.4hPa | 2.6V | 08:30:00 | 01:22:48 | 00:00:00 | |
| DF8AY | 2026-08-31 05:32:37 | 52.47235 | 14.91739 | 53° | 55km/h | 15847m | 6.6m/s | -53.4°C | 1% | 111.1hPa | 2.8V | 18:12:15 | 01:22:52 | 00:00:00 | |
| DM0DOS-11 | 2026-08-31 05:32:35 | 52.47193 | 14.91646 | 53° | 58km/h | 15821m | 4m/s | -53.5°C | 4.9% | 111.5hPa | 2.8V | 08:30:00 | 01:22:47 | 00:00:00 | |
| DL1XH-west | 2026-08-31 05:32:32 | 52.47193 | 14.91646 | 53° | 58km/h | 15821m | 4m/s | -53.5°C | 1.1% | 111.5hPa | 2.8V | 18:12:15 | 01:22:47 | 00:00:00 | |
| AA1-15 | 2026-08-31 05:32:30 | 52.47175 | 14.91607 | 53° | 58km/h | 15810m | 5.3m/s | -53.4°C | 1.1% | 111.7hPa | 2.8V | 18:12:15 | 01:22:45 | 00:00:00 | |
| SP3BTT-10 | 2026-08-31 05:32:30 | 52.47175 | 14.91607 | 54° | 57km/h | 15810m | 5.2m/s | -53.4°C | 4.9% | 111.7hPa | 2.6V | 00:00:00 | 00:00:00 | 00:00:00 | |
| DL1XH1-15 | 2026-08-31 05:32:28 | 52.47121 | 14.91484 | 56° | 47km/h | 15777m | 5.3m/s | -53.7°C | 5% | 112.3hPa | 2.6V | 08:30:00 | 01:22:38 | 00:00:00 | |
| DF8AY | 2026-08-31 05:32:27 | 52.47150 | 14.91552 | 54° | 55km/h | 15796m | 5.4m/s | -53.5°C | 1.1% | 112hPa | 2.6V | 18:12:15 | 01:22:42 | 00:00:00 | |
| EDDB2-12 | 2026-08-31 05:32:27 | 52.47150 | 14.91552 | 53° | 53km/h | 15796m | 5.4m/s | -53.5°C | 1.5% | 112.0hPa | 2.8V | 00:00:00 | 00:00:00 | 00:00:00 | |
| KRY50SP-1 | 2026-08-31 05:32:26 | 52.47149 | 14.91552 | 55° | 55km/h | 15796m | 5.4m/s | -53.5°C | 1.5% | 112.0hPa | 2.8V | 00:00:00 | 00:00:00 | 00:00:00 | |
| DM0DOS-11 | 2026-08-31 05:32:25 | 52.47115 | 14.91467 | 58° | 49km/h | 15773m | 4.9m/s | -53.7°C | 5% | 112.4hPa | 2.8V | 08:30:00 | 01:22:37 | 00:00:00 | |
| DB0DAN | 2026-08-31 05:32:25 | 52.47135 | 14.91517 | 56° | 47km/h | 15787m | 5.2m/s | -53.6°C | 1.5% | 112.12hPa | 2.8V | 00:00:00 | 00:00:00 | 00:00:00 | |
| DL1XH-west | 2026-08-31 05:32:22 | 52.47115 | 14.91467 | 59° | 49km/h | 15773m | 4.9m/s | -53.7°C | 1.2% | 112.4hPa | 2.8V | 18:12:15 | 01:22:37 | 00:00:00 | |
| AA1-15 | 2026-08-31 05:32:19 | 52.47094 | 14.91417 | 56° | 47km/h | 15759m | 3.5m/s | -53.8°C | 1.2% | 112.6hPa | 2.6V | 18:12:15 | 01:22:34 | 00:00:00 | |
| DF8AY | 2026-08-31 05:32:16 | 52.47074 | 14.91366 | 56° | 49km/h | 15745m | 6.1m/s | -53.9°C | 1.3% | 112.9hPa | 2.6V | 18:12:15 | 01:22:31 | 00:00:00 | |
| DM0DOS-11 | 2026-08-31 05:32:15 | 52.47045 | 14.91299 | 54° | 51km/h | 15726m | 5m/s | -54.1°C | 5.2% | 113.2hPa | 2.6V | 08:30:00 | 01:22:27 | 00:00:00 | |
| DL1XH-west | 2026-08-31 05:32:12 | 52.47045 | 14.91299 | 54° | 51km/h | 15726m | 5m/s | -54.1°C | 1.3% | 113.2hPa | 2.6V | 18:12:15 | 01:22:27 | 00:00:00 | |
| DB0DAN | 2026-08-31 05:32:10 | 52.47029 | 14.91264 | 52° | 53km/h | 15716m | 6m/s | -54°C | 1.7% | 113.36hPa | 2.6V | 00:00:00 | 00:00:00 | 00:00:00 | |
| AA1-15 | 2026-08-31 05:32:09 | 52.47021 | 14.91246 | 52° | 57km/h | 15712m | 3.9m/s | -54°C | 1.4% | 113.5hPa | 2.8V | 18:12:15 | 01:22:24 | 00:00:00 | |
| DF8AY | 2026-08-31 05:32:06 | 52.46993 | 14.91192 | 51° | 58km/h | 15697m | 7m/s | -53.9°C | 1.4% | 113.8hPa | 2.6V | 18:12:15 | 01:22:21 | 00:00:00 | |
| DM0DOS-11 | 2026-08-31 05:32:05 | 52.46956 | 14.91119 | 50° | 57km/h | 15677m | 5.3m/s | -54°C | 5.2% | 114.1hPa | 2.8V | 08:30:00 | 01:22:17 | 00:00:00 | |
| DL1XH-west | 2026-08-31 05:32:01 | 52.46947 | 14.91102 | 49° | 55km/h | 15672m | 4.9m/s | -54°C | 1.5% | 114.2hPa | 2.8V | 18:12:15 | 01:22:16 | 00:00:00 | |
| SONDE2-12 | 2026-08-31 05:31:59 | 52.46929 | 14.91069 | 47° | 53km/h | 15662m | 4.4m/s | -54.3°C | 2.2% | 114.3hPa | 2.6V | 00:00:00 | 00:00:00 | 00:00:00 | |
| AA1-15 | 2026-08-31 05:31:58 | 52.46920 | 14.91052 | 50° | 53km/h | 15657m | 5.4m/s | -54.3°C | 1.6% | 114.4hPa | 2.6V | 18:12:15 | 01:22:13 | 00:00:00 | |
| DL1XH1-15 | 2026-08-31 05:31:58 | 52.46880 | 14.90971 | 54° | 51km/h | 15633m | 3.5m/s | -54.4°C | 5.6% | 114.9hPa | 2.6V | 08:30:00 | 01:22:08 | 00:00:00 | |
| DF8AY | 2026-08-31 05:31:55 | 52.46895 | 14.91004 | 50° | 49km/h | 15644m | 4.2m/s | -54.3°C | 1.6% | 114.7hPa | 2.8V | 18:12:15 | 01:22:10 | 00:00:00 | |
| DB0DAN | 2026-08-31 05:31:55 | 52.46895 | 14.91004 | 50° | 47km/h | 15644m | 4.2m/s | -54.3°C | 1.8% | 114.72hPa | 2.8V | 00:00:00 | 00:00:00 | 00:00:00 | |
| DL1XH-west | 2026-08-31 05:31:51 | 52.46864 | 14.90937 | 54° | 49km/h | 15623m | 4.3m/s | -54.3°C | 1.7% | 115hPa | 2.8V | 18:12:15 | 01:22:06 | 00:00:00 | |
| SONDE2-11 | 2026-08-31 05:31:49 | 52.46850 | 14.90904 | 55° | 47km/h | 15613m | 4.9m/s | -54.3°C | 1.9% | 115.2hPa | 2.8V | 00:00:00 | 00:00:00 | 00:00:00 | |
| DL1XH1-15 | 2026-08-31 05:31:48 | 52.46811 | 14.90807 | 57° | 46km/h | 15583m | 5.2m/s | -54.2°C | 5.4% | 115.8hPa | 2.8V | 08:30:00 | 01:21:58 | 00:00:00 | |
| AA1-15 | 2026-08-31 05:31:48 | 52.46843 | 14.90888 | 52° | 47km/h | 15607m | 5.9m/s | -54.2°C | 1.7% | 115.3hPa | 2.6V | 18:12:15 | 01:22:03 | 00:00:00 | |
| KRY50SP-1 | 2026-08-31 05:31:47 | 52.46843 | 14.90888 | 53° | 47km/h | 15608m | 5.9m/s | -54.2°C | 1.9% | 115.4hPa | 2.6V | 00:00:00 | 00:00:00 | 00:00:00 | |
| DM0DOS-11 | 2026-08-31 05:31:45 | 52.46804 | 14.90791 | 58° | 46km/h | 15578m | 5.6m/s | -54.2°C | 5.5% | 115.9hPa | 2.6V | 08:30:00 | 01:21:57 | 00:00:00 | |
| DF8AY | 2026-08-31 05:31:44 | 52.46817 | 14.90823 | 59° | 46km/h | 15588m | 4.8m/s | -54.3°C | 1.6% | 115.7hPa | 2.8V | 18:12:15 | 01:21:59 | 00:00:00 | |
| DL1XH-west | 2026-08-31 05:31:40 | 52.46792 | 14.90758 | 59° | 47km/h | 15567m | 5.9m/s | -54.2°C | 1.6% | 116hPa | 2.6V | 18:12:15 | 01:21:55 | 00:00:00 | |
| AA1-15 | 2026-08-31 05:31:37 | 52.46773 | 14.90708 | 62° | 47km/h | 15552m | 5.1m/s | -54°C | 1.5% | 116.4hPa | 2.8V | 18:12:15 | 01:21:52 | 00:00:00 | |
| SP3WXH-11 | 2026-08-31 05:31:36 | 52.46768 | 14.90691 | 63° | 46km/h | 15547m | 3.8m/s | -54.0°C | 1.8% | 116.4hPa | 2.8V | 00:00:00 | 00:00:00 | 00:00:00 | |
| DM0DOS-11 | 2026-08-31 05:31:35 | 52.46749 | 14.90622 | 69° | 42km/h | 15527m | 4.9m/s | -53.9°C | 5.4% | 116.8hPa | 2.8V | 08:30:00 | 01:21:47 | 00:00:00 | |
| DF8AY | 2026-08-31 05:31:33 | 52.46753 | 14.90639 | 68° | 44km/h | 15532m | 6m/s | -53.9°C | 1.5% | 116.7hPa | 2.8V | 18:12:15 | 01:21:48 | 00:00:00 | |
| DL1XH-west | 2026-08-31 05:31:29 | 52.46737 | 14.90573 | 67° | 42km/h | 15512m | 6.6m/s | -53.8°C | 1.5% | 117.1hPa | 2.6V | 18:12:15 | 01:21:44 | 00:00:00 | |
| SONDE2-12 | 2026-08-31 05:31:28 | 52.46733 | 14.90557 | 67° | 42km/h | 15506m | 4.3m/s | -53.7°C | 2.3% | 117.2hPa | 2.8V | 00:00:00 | 00:00:00 | 00:00:00 | |
| AA1-15 | 2026-08-31 05:31:26 | 52.46724 | 14.90524 | 67° | 46km/h | 15496m | 4m/s | -53.8°C | 1.6% | 117.4hPa | 2.8V | 18:12:15 | 01:21:41 | 00:00:00 | |
| DB0DAN | 2026-08-31 05:31:25 | 52.46720 | 14.90507 | 68° | 42km/h | 15491m | 6.5m/s | -53.7°C | 1.8% | 117.45hPa | 2.8V | 00:00:00 | 00:00:00 | 00:00:00 | |
| DM0DOS-11 | 2026-08-31 05:31:23 | 52.46707 | 14.90454 | 68° | 46km/h | 15475m | 3.9m/s | -53.8°C | 5.4% | 117.7hPa | 2.6V | 08:30:00 | 01:21:37 | 00:00:00 | |
| DF8AY | 2026-08-31 05:31:22 | 52.46707 | 14.90454 | 69° | 46km/h | 15475m | 3.9m/s | -53.8°C | 1.5% | 117.7hPa | 2.6V | 18:12:15 | 01:21:37 | 00:00:00 | |
| DL1XH-west | 2026-08-31 05:31:18 | 52.46692 | 14.90384 | 70° | 44km/h | 15456m | 3.8m/s | -53.7°C | 1.5% | 118.1hPa | 2.6V | 18:12:15 | 01:21:33 | 00:00:00 | |
| KRY50SP-1 | 2026-08-31 05:31:17 | 52.46692 | 14.90384 | 71° | 44km/h | 15456m | 3.8m/s | -53.7°C | 1.8% | 118.1hPa | 2.6V | 00:00:00 | 00:00:00 | 00:00:00 | |
| DM0DOS-11 | 2026-08-31 05:31:15 | 52.46672 | 14.90281 | 76° | 46km/h | 15424m | 3.3m/s | -53.6°C | 5.1% | 118.7hPa | 2.6V | 08:30:00 | 01:21:27 | 00:00:00 | |
| AA1-15 | 2026-08-31 05:31:15 | 52.46681 | 14.90333 | 70° | 42km/h | 15439m | 6.2m/s | -53.7°C | 1.3% | 118.4hPa | 2.8V | 18:12:15 | 01:21:30 | 00:00:00 | |
| DF8AY | 2026-08-31 05:31:12 | 52.46672 | 14.90281 | 76° | 46km/h | 15424m | 3.3m/s | -53.6°C | 1.3% | 118.7hPa | 2.6V | 18:12:15 | 01:21:27 | 00:00:00 | |
| DL1XH-west | 2026-08-31 05:31:08 | 52.46662 | 14.90206 | 79° | 49km/h | 15402m | 4.4m/s | -53.8°C | 1.4% | 119.1hPa | 2.8V | 18:12:15 | 01:21:23 | 00:00:00 | |
| AA1-15 | 2026-08-31 05:31:04 | 52.46654 | 14.90125 | 80° | 49km/h | 15381m | 4.8m/s | -53.9°C | 1.4% | 119.5hPa | 2.6V | 18:12:15 | 01:21:19 | 00:00:00 | |
| DF8AY | 2026-08-31 05:31:01 | 52.46647 | 14.90067 | 81° | 47km/h | 15366m | 6.2m/s | -54°C | 1.5% | 119.8hPa | 2.8V | 18:12:15 | 01:21:16 | 00:00:00 | |
| DL1XH-west | 2026-08-31 05:30:58 | 52.46641 | 14.90009 | 77° | 49km/h | 15350m | 4.7m/s | -53.8°C | 1.3% | 120.1hPa | 2.6V | 18:12:15 | 01:21:13 | 00:00:00 | |
| SONDE2-12 | 2026-08-31 05:30:57 | 52.46638 | 14.89989 | 78° | 51km/h | 15344m | 6.9m/s | -53.9°C | 2.1% | 120.2hPa | 2.6V | 00:00:00 | 00:00:00 | 00:00:00 | |
| AA1-15 | 2026-08-31 05:30:53 | 52.46625 | 14.89903 | 77° | 55km/h | 15323m | 6.8m/s | -53.8°C | 1.3% | 120.5hPa | 2.6V | 18:12:15 | 01:21:08 | 00:00:00 | |
| DF8AY | 2026-08-31 05:30:51 | 52.46619 | 14.89858 | 76° | 55km/h | 15311m | 7m/s | -53.7°C | 1.2% | 120.7hPa | 2.8V | 18:12:15 | 01:21:06 | 00:00:00 | |
| DF2AP-13 | 2026-08-31 05:30:50 | 52.46615 | 14.89836 | 76° | 64km/h | 15306m | 3.8m/s | -53.6°C | 5.2% | 120.8hPa | 2.7V | 00:00:00 | 01:21:05 | 00:00:00 | |
| KRY50SP-1 | 2026-08-31 05:30:48 | 52.46612 | 14.89814 | 77° | 55km/h | 15302m | 5.0m/s | -53.6°C | 1.6% | 120.9hPa | 2.6V | 00:00:00 | 00:00:00 | 00:00:00 | |
| DL1XH1-15 | 2026-08-31 05:30:47 | 52.46582 | 14.89652 | 70° | 58km/h | 15265m | 4.8m/s | -53.4°C | 5.1% | 121.7hPa | 2.6V | 08:30:00 | 01:20:57 | 00:00:00 | |
| DL1XH-west | 2026-08-31 05:30:47 | 52.46605 | 14.89769 | 74° | 58km/h | 15291m | 4.3m/s | -53.5°C | 1.3% | 121.2hPa | 2.6V | 18:12:15 | 01:21:02 | 00:00:00 | |
| AA1-15 | 2026-08-31 05:30:42 | 52.46582 | 14.89652 | 70° | 58km/h | 15265m | 4.8m/s | -53.4°C | 1.2% | 121.7hPa | 2.6V | 18:12:15 | 01:20:57 | 00:00:00 | |
| DF8AY | 2026-08-31 05:30:40 | 52.46573 | 14.89606 | 74° | 60km/h | 15254m | 5.7m/s | -53.5°C | 1.3% | 121.9hPa | 2.6V | 18:12:15 | 01:20:55 | 00:00:00 | |
| DB0DAN | 2026-08-31 05:30:40 | 52.46573 | 14.89606 | 74° | 57km/h | 15254m | 5.7m/s | -53.5°C | 1.7% | 121.87hPa | 2.6V | 00:00:00 | 00:00:00 | 00:00:00 | |
| 13BRC | 2026-08-31 05:30:38 | 52.46568 | 14.89581 | 75° | 60km/h | 15250m | 4.1m/s | -53.5°C | 1.7% | 121.9hPa | 2.8V | 00:00:00 | 00:00:00 | 00:00:00 | |
| DL1XH1-15 | 2026-08-31 05:30:37 | 52.46535 | 14.89403 | 72° | 68km/h | 15211m | 7.3m/s | -53.3°C | 5.1% | 122.7hPa | 2.8V | 08:30:00 | 01:20:47 | 00:00:00 | |
| DL1XH-west | 2026-08-31 05:30:37 | 52.46559 | 14.89534 | 72° | 62km/h | 15240m | 5m/s | -53.4°C | 1.3% | 122.1hPa | 2.8V | 18:12:15 | 01:20:52 | 00:00:00 | |
| AA1-15 | 2026-08-31 05:30:31 | 52.46529 | 14.89376 | 73° | 68km/h | 15206m | 4.2m/s | -53.3°C | 1.2% | 122.8hPa | 2.8V | 18:12:15 | 01:20:46 | 00:00:00 | |
| DF8AY | 2026-08-31 05:30:29 | 52.46519 | 14.89324 | 72° | 64km/h | 15195m | 4.2m/s | -53.3°C | 1.2% | 123hPa | 2.6V | 18:12:15 | 01:20:44 | 00:00:00 | |
| DL1XH1-15 | 2026-08-31 05:30:27 | 52.46486 | 14.89143 | 72° | 68km/h | 15157m | 7.8m/s | -53°C | 5% | 123.7hPa | 2.6V | 08:30:00 | 01:20:37 | 00:00:00 | |
| DL1XH-west | 2026-08-31 05:30:26 | 52.46505 | 14.89248 | 73° | 66km/h | 15180m | 6.9m/s | -53.1°C | 1.1% | 123.2hPa | 2.8V | 18:12:15 | 01:20:41 | 00:00:00 | |
| AA1-15 | 2026-08-31 05:30:21 | 52.46480 | 14.89115 | 73° | 69km/h | 15151m | 4.5m/s | -52.9°C | 1.1% | 123.8hPa | 2.8V | 18:12:15 | 01:20:36 | 00:00:00 | |
| DF8AY | 2026-08-31 05:30:19 | 52.46470 | 14.89061 | 72° | 68km/h | 15140m | 5.6m/s | -52.9°C | 1.1% | 124hPa | 2.8V | 18:12:15 | 01:20:34 | 00:00:00 | |
| DF2AP-13 | 2026-08-31 05:30:18 | 52.46464 | 14.89034 | 71° | 68km/h | 15135m | 5.5m/s | 0°C | 0% | 0hPa | 2.6V | 00:00:00 | 01:20:33 | 00:00:00 | |
| SONDE2-11 | 2026-08-31 05:30:16 | 52.46453 | 14.88984 | 70° | 64km/h | 15125m | 5.4m/s | -52.8°C | 0% | 124.3hPa | 2.6V | 00:00:00 | 00:00:00 | 00:00:00 | |
| DM0DOS-11 | 2026-08-31 05:30:15 | 52.46424 | 14.88856 | 68° | 68km/h | 15098m | 6m/s | -52.7°C | 4.9% | 124.8hPa | 2.6V | 08:30:00 | 01:20:26 | 00:00:00 | |
| DL1XH-west | 2026-08-31 05:30:15 | 52.46448 | 14.88958 | 71° | 64km/h | 15120m | 4.2m/s | -52.7°C | 1.1% | 124.4hPa | 2.8V | 18:12:15 | 01:20:30 | 00:00:00 | |
| DB0DAN | 2026-08-31 05:30:10 | 52.46417 | 14.88831 | 66° | 64km/h | 15092m | 5.6m/s | -52.7°C | 1.6% | 124.94hPa | 2.6V | 00:00:00 | 00:00:00 | 00:00:00 | |
| AA1-15 | 2026-08-31 05:30:10 | 52.46417 | 14.88831 | 66° | 68km/h | 15092m | 5.6m/s | -52.7°C | 1.1% | 124.9hPa | 2.6V | 18:12:15 | 01:20:25 | 00:00:00 | |
| DF8AY | 2026-08-31 05:30:08 | 52.46404 | 14.88779 | 68° | 68km/h | 15081m | 5.9m/s | -52.6°C | 1% | 125.2hPa | 2.8V | 18:12:15 | 01:20:23 | 00:00:00 | |
| DL1XH1-15 | 2026-08-31 05:30:07 | 52.46368 | 14.88633 | 64° | 64km/h | 15048m | 5.4m/s | -52.6°C | 4.8% | 125.8hPa | 2.8V | 08:30:00 | 01:20:17 | 00:00:00 | |
| DM0DOS-11 | 2026-08-31 05:30:05 | 52.46354 | 14.88582 | 65° | 69km/h | 15037m | 4.4m/s | -52.5°C | 4.8% | 126hPa | 2.6V | 08:30:00 | 01:20:15 | 00:00:00 | |
| DL1XH-west | 2026-08-31 05:30:04 | 52.46380 | 14.88681 | 69° | 64km/h | 15059m | 5.4m/s | -52.6°C | 1% | 125.6hPa | 2.6V | 18:12:15 | 01:20:19 | 00:00:00 | |
| AA1-15 | 2026-08-31 05:29:59 | 52.46346 | 14.88556 | 65° | 71km/h | 15032m | 6.5m/s | -52.4°C | 1% | 126.1hPa | 2.6V | 18:12:15 | 01:20:14 | 00:00:00 | |
| DF8AY | 2026-08-31 05:29:57 | 52.46330 | 14.88503 | 63° | 75km/h | 15019m | 5.1m/s | -52.4°C | 1% | 126.3hPa | 2.8V | 18:12:15 | 01:20:12 | 00:00:00 | |
| DM0DOS-11 | 2026-08-31 05:29:55 | 52.46273 | 14.88313 | 62° | 71km/h | 14981m | 4.7m/s | -52.2°C | 4.7% | 127.1hPa | 2.8V | 08:30:00 | 01:20:05 | 00:00:00 | |
| DB0DAN | 2026-08-31 05:29:55 | 52.46313 | 14.88447 | 65° | 71km/h | 15009m | 4.4m/s | -52.3°C | 1.5% | 126.58hPa | 2.8V | 00:00:00 | 00:00:00 | 00:00:00 | |
| DL1XH-west | 2026-08-31 05:29:53 | 52.46297 | 14.88393 | 64° | 71km/h | 14998m | 3.7m/s | -52.3°C | 0.9% | 126.8hPa | 2.6V | 18:12:15 | 01:20:08 | 00:00:00 | |
| AA1-15 | 2026-08-31 05:29:48 | 52.46257 | 14.88259 | 64° | 73km/h | 14970m | 3.8m/s | -52.1°C | 0.9% | 127.3hPa | 2.6V | 18:12:15 | 01:20:03 | 00:00:00 | |
| DF8AY | 2026-08-31 05:29:46 | 52.46198 | 14.88092 | 57° | 80km/h | 14938m | 6.3m/s | -52°C | 1% | 128hPa | 2.6V | 18:12:15 | 01:19:57 | 00:00:00 | |
| DM0DOS-11 | 2026-08-31 05:29:45 | 52.46177 | 14.88036 | 57° | 78km/h | 14926m | 4.7m/s | -52°C | 4.6% | 128.2hPa | 2.6V | 08:30:00 | 01:19:55 | 00:00:00 | |
| SONDE2-11 | 2026-08-31 05:29:45 | 52.46229 | 14.88176 | 59° | 77km/h | 14955m | 5.1m/s | -52.1°C | 1.5% | 127.6hPa | 2.8V | 00:00:00 | 00:00:00 | 00:00:00 | |
| DL1XH-west | 2026-08-31 05:29:43 | 52.46209 | 14.88120 | 58° | 80km/h | 14944m | 5.3m/s | -52.1°C | 0.9% | 127.8hPa | 2.8V | 18:12:15 | 01:19:58 | 00:00:00 | |
| KRY50SP-1 | 2026-08-31 05:29:42 | 52.46209 | 14.88120 | 59° | 80km/h | 14944m | 5.3m/s | -52.0°C | 1.5% | 127.8hPa | 2.6V | 00:00:00 | 00:00:00 | 00:00:00 | |
| DB0DAN | 2026-08-31 05:29:40 | 52.46177 | 14.88036 | 58° | 75km/h | 14926m | 4.7m/s | -52°C | 1.5% | 128.18hPa | 2.6V | 00:00:00 | 00:00:00 | 00:00:00 | |
| DL1XH1-15 | 2026-08-31 05:29:39 | 52.46166 | 14.88008 | 57° | 78km/h | 14921m | 5.6m/s | -52°C | 4.7% | 128.3hPa | 2.8V | 08:30:00 | 01:19:54 | 00:00:00 | |
| AA1-15 | 2026-08-31 05:29:37 | 52.46145 | 14.87955 | 58° | 75km/h | 14910m | 7.1m/s | -51.9°C | 0.9% | 128.5hPa | 2.8V | 18:12:15 | 01:19:52 | 00:00:00 | |
| DF8AY | 2026-08-31 05:29:36 | 52.46135 | 14.87929 | 59° | 75km/h | 14905m | 3.8m/s | -51.9°C | 0.9% | 128.7hPa | 2.6V | 18:12:15 | 01:19:51 | 00:00:00 | |
| DL1XH-west | 2026-08-31 05:29:33 | 52.46106 | 14.87850 | 60° | 75km/h | 14889m | 5.6m/s | -51.7°C | 1% | 128.9hPa | 2.8V | 18:12:15 | 01:19:48 | 00:00:00 | |
| SP3WXH-11 | 2026-08-31 05:29:32 | 52.46097 | 14.87822 | 61° | 75km/h | 14884m | 5.9m/s | -51.7°C | 1.6% | 129.1hPa | 2.6V | 00:00:00 | 00:00:00 | 00:00:00 | |
| DL1XH1-15 | 2026-08-31 05:29:29 | 52.46067 | 14.87739 | 59° | 78km/h | 14868m | 5.7m/s | -51.5°C | 4.6% | 129.4hPa | 2.6V | 08:30:00 | 01:19:44 | 00:00:00 | |
| DF8AY | 2026-08-31 05:29:26 | 52.46036 | 14.87655 | 59° | 80km/h | 14851m | 5.6m/s | -51.5°C | 1% | 129.7hPa | 2.8V | 18:12:15 | 01:19:41 | 00:00:00 | |
| DM0DOS-11 | 2026-08-31 05:29:25 | 52.45978 | 14.87487 | 62° | 78km/h | 14818m | 5.9m/s | -51.4°C | 4.5% | 130.4hPa | 2.8V | 08:30:00 | 01:19:35 | 00:00:00 | |
| DB0DAN | 2026-08-31 05:29:25 | 52.46026 | 14.87627 | 59° | 75km/h | 14846m | 5.4m/s | -51.6°C | 1.5% | 129.8hPa | 2.8V | 00:00:00 | 00:00:00 | 00:00:00 | |
| SONDE2-12 | 2026-08-31 05:29:24 | 52.46016 | 14.87599 | 60° | 75km/h | 14840m | 6.3m/s | -51.6°C | 1.8% | 129.9hPa | 2.6V | 00:00:00 | 00:00:00 | 00:00:00 | |
| DL1XH-west | 2026-08-31 05:29:22 | 52.45997 | 14.87544 | 61° | 77km/h | 14829m | 5.5m/s | -51.5°C | 0.9% | 130.1hPa | 2.6V | 18:12:15 | 01:19:37 | 00:00:00 | |
| AA1-15 | 2026-08-31 05:29:15 | 52.45929 | 14.87333 | 61° | 86km/h | 14792m | 3.4m/s | -51.3°C | 0.9% | 130.9hPa | 2.8V | 18:12:15 | 01:19:30 | 00:00:00 | |
| DF8AY | 2026-08-31 05:29:13 | 52.45907 | 14.87270 | 60° | 88km/h | 14782m | 5.4m/s | -51.4°C | 1% | 131.1hPa | 2.8V | 18:12:15 | 01:19:28 | 00:00:00 | |
| DL1XH-west | 2026-08-31 05:29:12 | 52.45886 | 14.87207 | 62° | 86km/h | 14771m | 4.6m/s | -51.2°C | 0.9% | 131.3hPa | 2.6V | 18:12:15 | 01:19:26 | 00:00:00 | |
| DB0DAN | 2026-08-31 05:29:10 | 52.45875 | 14.87176 | 61° | 82km/h | 14766m | 5.6m/s | -51.2°C | 1.4% | 131.41hPa | 2.7V | 00:00:00 | 00:00:00 | 00:00:00 | |
| AA1-15 | 2026-08-31 05:29:04 | 52.45817 | 14.86997 | 64° | 78km/h | 14731m | 4.5m/s | -51.4°C | 0.9% | 132.1hPa | 2.7V | 18:12:15 | 01:19:19 | 00:00:00 | |
| DF8AY | 2026-08-31 05:29:02 | 52.45799 | 14.86939 | 62° | 80km/h | 14721m | 6m/s | -51.4°C | 0.9% | 132.3hPa | 2.8V | 18:12:15 | 01:19:17 | 00:00:00 | |
| DL1XH-west | 2026-08-31 05:29:01 | 52.45789 | 14.86909 | 61° | 82km/h | 14716m | 3.7m/s | -51.4°C | 1% | 132.4hPa | 2.8V | 18:12:15 | 01:19:16 | 00:00:00 | |
| DL1XH1-15 | 2026-08-31 05:28:59 | 52.45770 | 14.86851 | 62° | 80km/h | 14705m | 6.3m/s | -51.4°C | 4.5% | 132.7hPa | 2.6V | 08:30:00 | 01:19:14 | 00:00:00 | |
| DB0NH | 2026-08-31 05:28:58 | 52.45761 | 14.86821 | 63° | 78km/h | 14699m | 7.7m/s | -51.3°C | 4.6% | 132.8hPa | 2.8V | 00:00:00 | 01:19:13 | 00:00:00 | |
| KRY50SP-1 | 2026-08-31 05:28:57 | 52.45761 | 14.86821 | 64° | 78km/h | 14699m | 7.7m/s | -51.4°C | 1.5% | 132.8hPa | 2.8V | 00:00:00 | 00:00:00 | 00:00:00 | |
| DB0DAN | 2026-08-31 05:28:55 | 52.45737 | 14.86734 | 68° | 73km/h | 14680m | 5.5m/s | -51.5°C | 1.6% | 133.18hPa | 2.8V | 00:00:00 | 00:00:00 | 00:00:00 | |
| AA1-15 | 2026-08-31 05:28:54 | 52.45730 | 14.86705 | 68° | 77km/h | 14674m | 6m/s | -51.5°C | 1.2% | 133.3hPa | 2.6V | 18:12:15 | 01:19:09 | 00:00:00 | |
| SONDE2-12 | 2026-08-31 05:28:53 | 52.45722 | 14.86675 | 69° | 77km/h | 14669m | 3.9m/s | -51.6°C | 2.0% | 133.4hPa | 2.6V | 00:00:00 | 00:00:00 | 00:00:00 | |
| DF8AY | 2026-08-31 05:28:52 | 52.45715 | 14.86644 | 70° | 80km/h | 14665m | 5.9m/s | -51.6°C | 1.1% | 133.5hPa | 2.6V | 18:12:15 | 01:19:07 | 00:00:00 | |
| DL1XH-west | 2026-08-31 05:28:51 | 52.45709 | 14.86613 | 70° | 82km/h | 14660m | 3.8m/s | -51.5°C | 1.1% | 133.6hPa | 2.8V | 18:12:15 | 01:19:06 | 00:00:00 | |
| SONCRA | 2026-08-31 05:28:51 | 52.45701 | 14.86581 | 68° | 80km/h | 14655m | 5.8m/s | -51.6°C | 1.6% | 133.7hPa | 2.8V | 00:00:00 | 00:00:00 | 00:00:00 | |
| EDDB2-12 | 2026-08-31 05:28:50 | 52.45694 | 14.86551 | 67° | 78km/h | 14650m | 4.1m/s | -51.6°C | 1.6% | 133.8hPa | 2.8V | 00:00:00 | 00:00:00 | 00:00:00 | |
| DL1XH1-15 | 2026-08-31 05:28:49 | 52.45694 | 14.86551 | 67° | 80km/h | 14650m | 4.1m/s | -51.5°C | 4.7% | 133.8hPa | 2.8V | 08:30:00 | 01:19:04 | 00:00:00 | |
| AA1-15 | 2026-08-31 05:28:43 | 52.45648 | 14.86377 | 68° | 73km/h | 14617m | 3.8m/s | -51.8°C | 1.1% | 134.5hPa | 2.8V | 18:12:15 | 01:18:58 | 00:00:00 | |
| DF8AY | 2026-08-31 05:28:41 | 52.45635 | 14.86321 | 69° | 73km/h | 14606m | 5.6m/s | -51.7°C | 1.2% | 134.7hPa | 2.6V | 18:12:15 | 01:18:56 | 00:00:00 | |
| DL1XH-west | 2026-08-31 05:28:40 | 52.45628 | 14.86293 | 71° | 73km/h | 14600m | 6.1m/s | -51.6°C | 1.1% | 134.8hPa | 2.6V | 18:12:15 | 01:18:55 | 00:00:00 | |
| DL1XH1-15 | 2026-08-31 05:28:39 | 52.45622 | 14.86264 | 69° | 77km/h | 14595m | 4.6m/s | -51.6°C | 4.8% | 134.9hPa | 2.8V | 08:30:00 | 01:18:54 | 00:00:00 | |
| SP6BVK | 2026-08-31 05:28:38 | 52.45622 | 14.86264 | 70° | 77km/h | 14595m | 4.6m/s | -51.6°C | 1.6% | 134.9hPa | 2.6V | 00:00:00 | 00:00:00 | 00:00:00 | |
| DM0DOS-11 | 2026-08-31 05:28:35 | 52.45590 | 14.86142 | 65° | 84km/h | 14573m | 3.8m/s | -51.5°C | 4.9% | 135.4hPa | 2.6V | 08:30:00 | 01:18:50 | 00:00:00 | |
| DL1XH1-15 | 2026-08-31 05:28:34 | 52.45538 | 14.85962 | 65° | 77km/h | 14542m | 5.8m/s | -51.3°C | 4.8% | 136hPa | 2.6V | 08:30:00 | 01:18:44 | 00:00:00 | |
| AA1-15 | 2026-08-31 05:28:32 | 52.45563 | 14.86050 | 65° | 80km/h | 14558m | 5.9m/s | -51.4°C | 1.3% | 135.7hPa | 2.8V | 18:12:15 | 01:18:47 | 00:00:00 | |
| DF8AY | 2026-08-31 05:28:30 | 52.45546 | 14.85991 | 65° | 77km/h | 14548m | 7m/s | -51.3°C | 1.2% | 135.9hPa | 2.6V | 18:12:15 | 01:18:45 | 00:00:00 | |
| SONDE2-12 | 2026-08-31 05:28:22 | 52.45478 | 14.85755 | 62° | 82km/h | 14506m | 6.3m/s | -51.0°C | 1.9% | 136.8hPa | 2.8V | 00:00:00 | 00:00:00 | 00:00:00 | |
| AA1-15 | 2026-08-31 05:28:21 | 52.45468 | 14.85724 | 63° | 84km/h | 14500m | 4.2m/s | -51°C | 1.1% | 136.9hPa | 2.8V | 18:12:15 | 01:18:36 | 00:00:00 | |
| DL1XH-west | 2026-08-31 05:28:19 | 52.45449 | 14.85662 | 64° | 82km/h | 14490m | 3.5m/s | -50.9°C | 1.2% | 137.1hPa | 2.8V | 18:12:15 | 01:18:34 | 00:00:00 | |
| 3Z3Z-3 | 2026-08-31 05:28:18 | 52.45449 | 14.85662 | 65° | 82km/h | 14490m | 3.5m/s | -50.9°C | 0% | 0hPa | 2.6V | 00:00:00 | 00:00:00 | 00:00:00 | |
| SP6BVK | 2026-08-31 05:28:17 | 52.45440 | 14.85632 | 65° | 82km/h | 14485m | 6.1m/s | -50.9°C | 1.6% | 137.2hPa | 2.6V | 00:00:00 | 00:00:00 | 00:00:00 | |
| DL2RXE-15 | 2026-08-31 05:28:14 | 52.45412 | 14.85542 | 65° | 82km/h | 14471m | 3.5m/s | -50.8°C | 1.7% | 137.6hPa | 2.6V | 00:00:00 | 00:00:00 | 00:00:00 | |
| SP3BTT-10 | 2026-08-31 05:28:12 | 52.45386 | 14.85451 | 66° | 78km/h | 14454m | 6.2m/s | -50.9°C | 4.7% | 137.9hPa | 2.6V | 00:00:00 | 00:00:00 | 00:00:00 | |
| DM0DOS-11 | 2026-08-31 05:28:11 | 52.45333 | 14.85264 | 65° | 80km/h | 14424m | 5.7m/s | -51°C | 4.8% | 138.5hPa | 2.6V | 08:30:00 | 01:18:21 | 00:00:00 | |
| AA1-15 | 2026-08-31 05:28:11 | 52.45377 | 14.85419 | 66° | 84km/h | 14449m | 3.9m/s | -50.9°C | 1.3% | 138hPa | 2.6V | 18:12:15 | 01:18:26 | 00:00:00 | |
| DB0DAN | 2026-08-31 05:28:10 | 52.45368 | 14.85388 | 65° | 78km/h | 14444m | 6m/s | -50.9°C | 1.7% | 138.11hPa | 2.6V | 00:00:00 | 00:00:00 | 00:00:00 | |
| DL1XH1-15 | 2026-08-31 05:28:09 | 52.45350 | 14.85326 | 65° | 82km/h | 14434m | 6.2m/s | -51°C | 4.8% | 138.3hPa | 2.8V | 08:30:00 | 01:18:23 | 00:00:00 | |
| DL1XH-west | 2026-08-31 05:28:09 | 52.45359 | 14.85357 | 64° | 82km/h | 14439m | 3.9m/s | -50.9°C | 1.3% | 138.2hPa | 2.8V | 18:12:15 | 01:18:24 | 00:00:00 | |
| DF8AY | 2026-08-31 05:28:08 | 52.45350 | 14.85326 | 66° | 84km/h | 14434m | 6.2m/s | -51°C | 1.3% | 138.3hPa | 2.8V | 18:12:15 | 01:18:23 | 00:00:00 | |
| AA1-15 | 2026-08-31 05:28:00 | 52.45285 | 14.85094 | 65° | 73km/h | 14390m | 5.2m/s | -51.1°C | 1.3% | 139.2hPa | 2.6V | 18:12:15 | 01:18:15 | 00:00:00 | |
| DL1XH1-15 | 2026-08-31 05:27:59 | 52.45268 | 14.85038 | 62° | 77km/h | 14379m | 4.5m/s | -51.4°C | 4.9% | 139.4hPa | 2.7V | 08:30:00 | 01:18:13 | 00:00:00 | |
| DF8AY | 2026-08-31 05:27:58 | 52.45268 | 14.85038 | 63° | 77km/h | 14379m | 4.5m/s | -51.4°C | 1.3% | 139.4hPa | 2.7V | 18:12:15 | 01:18:13 | 00:00:00 | |
| DB0DAN | 2026-08-31 05:27:55 | 52.45239 | 14.84952 | 61° | 77km/h | 14364m | 4.9m/s | -51.4°C | 1.7% | 139.79hPa | 2.8V | 00:00:00 | 00:00:00 | 00:00:00 | |
| SONDE2-12 | 2026-08-31 05:27:51 | 52.45198 | 14.84837 | 61° | 78km/h | 14344m | 5.9m/s | -51.3°C | 2.1% | 140.2hPa | 2.6V | 00:00:00 | 00:00:00 | 00:00:00 | |
| KRY50SP-1 | 2026-08-31 05:27:50 | 52.45198 | 14.84837 | 62° | 78km/h | 14344m | 5.9m/s | -51.3°C | 1.7% | 140.2hPa | 2.6V | 00:00:00 | 00:00:00 | 00:00:00 | |
| DL1XH1-15 | 2026-08-31 05:27:49 | 52.45171 | 14.84753 | 62° | 77km/h | 14327m | 5.2m/s | -51.2°C | 4.8% | 140.6hPa | 2.6V | 08:30:00 | 01:18:03 | 00:00:00 | |
| AA1-15 | 2026-08-31 05:27:49 | 52.45180 | 14.84781 | 61° | 77km/h | 14333m | 5.6m/s | -51.2°C | 1.3% | 140.4hPa | 2.8V | 18:12:15 | 01:18:04 | 00:00:00 | |
| DL1XH-west | 2026-08-31 05:27:48 | 52.45170 | 14.84753 | 62° | 77km/h | 14328m | 5.2m/s | -51.2°C | 1.2% | 140.6hPa | 2.6V | 18:12:15 | 01:18:03 | 00:00:00 | |
| DF8AY | 2026-08-31 05:27:47 | 52.45162 | 14.84725 | 65° | 77km/h | 14322m | 5.5m/s | -51.2°C | 1.2% | 140.7hPa | 2.6V | 18:12:15 | 01:18:02 | 00:00:00 | |
| DM0DOS-11 | 2026-08-31 05:27:45 | 52.45127 | 14.84609 | 62° | 78km/h | 14302m | 6.2m/s | -51°C | 4.8% | 141.1hPa | 2.8V | 08:30:00 | 01:17:58 | 00:00:00 | |
| KRY50SP-1 | 2026-08-31 05:27:44 | 52.45145 | 14.84667 | 64° | 78km/h | 14312m | 5.4m/s | -51.1°C | 1.7% | 140.9hPa | 2.7V | 00:00:00 | 00:00:00 | 00:00:00 | |
| DB0NH | 2026-08-31 05:27:43 | 52.45127 | 14.84609 | 63° | 75km/h | 14302m | 6.2m/s | -50.9°C | 4.8% | 141.1hPa | 2.7V | 00:00:00 | 01:17:58 | 08:30:00 | |
| DB0DAN | 2026-08-31 05:27:40 | 52.45099 | 14.84525 | 61° | 73km/h | 14287m | 5.3m/s | -50.9°C | 1.7% | 141.46hPa | 2.7V | 00:00:00 | 00:00:00 | 00:00:00 | |
| DL1XH1-15 | 2026-08-31 05:27:39 | 52.45081 | 14.84472 | 60° | 71km/h | 14277m | 5.2m/s | -50.9°C | 4.8% | 0hPa | 2.8V | 08:30:00 | 01:17:53 | 00:00:00 | |
| DL1XH-west | 2026-08-31 05:27:38 | 52.45081 | 14.84472 | 61° | 71km/h | 14277m | 5.2m/s | -50.9°C | 1.2% | 141.7hPa | 2.8V | 18:12:15 | 01:17:53 | 00:00:00 | |
| DF8AY | 2026-08-31 05:27:37 | 52.45072 | 14.84446 | 61° | 71km/h | 14273m | 3.3m/s | -50.8°C | 1.2% | 141.8hPa | 2.8V | 18:12:15 | 01:17:52 | 00:00:00 | |
| SP6BVK | 2026-08-31 05:27:36 | 52.45073 | 14.84446 | 62° | 71km/h | 14273m | 3.3m/s | -50.8°C | 1.7% | 141.8hPa | 2.8V | 00:00:00 | 00:00:00 | 00:00:00 | |
| DM0DOS-11 | 2026-08-31 05:27:35 | 52.45039 | 14.84343 | 63° | 71km/h | 14250m | 6.3m/s | -50.6°C | 4.6% | 142.3hPa | 2.8V | 08:30:00 | 01:17:48 | 00:00:00 | |
| KRY50SP-1 | 2026-08-31 05:27:34 | 52.45056 | 14.84395 | 64° | 71km/h | 14261m | 4.9m/s | -50.7°C | 1.6% | 142.0hPa | 2.7V | 00:00:00 | 00:00:00 | 00:00:00 | |
| 13BRC | 2026-08-31 05:27:32 | 52.45039 | 14.84342 | 64° | 71km/h | 14250m | 6.3m/s | -50.7°C | 1.6% | 142.3hPa | 2.7V | 00:00:00 | 00:00:00 | 00:00:00 | |
| DL1XH1-15 | 2026-08-31 05:27:29 | 52.44997 | 14.84210 | 64° | 73km/h | 14224m | 4.6m/s | -50.5°C | 4.6% | 0hPa | 2.7V | 08:30:00 | 01:17:43 | 00:00:00 | |
| AA1-15 | 2026-08-31 05:27:27 | 52.44989 | 14.84183 | 64° | 73km/h | 14220m | 4.7m/s | -50.4°C | 1% | 142.9hPa | 2.8V | 18:12:15 | 01:17:42 | 00:00:00 | |
| DF8AY | 2026-08-31 05:27:26 | 52.44981 | 14.84156 | 62° | 73km/h | 14215m | 4.9m/s | -50.4°C | 1% | 143.1hPa | 2.8V | 18:12:15 | 01:17:41 | 00:00:00 | |
| DM0DOS-11 | 2026-08-31 05:27:25 | 52.44957 | 14.84077 | 62° | 69km/h | 14200m | 5.8m/s | -50.3°C | 4.5% | 143.3hPa | 2.7V | 08:30:00 | 01:17:38 | 00:00:00 | |
| DB0DAN | 2026-08-31 05:27:25 | 52.44972 | 14.84129 | 64° | 68km/h | 14210m | 4.9m/s | -50.4°C | 1.6% | 143.12hPa | 2.8V | 00:00:00 | 00:00:00 | 00:00:00 | |
| SONDE2-12 | 2026-08-31 05:27:20 | 52.44934 | 14.84003 | 65° | 64km/h | 14186m | 5.3m/s | -50.3°C | 1.9% | 143.7hPa | 2.8V | 00:00:00 | 00:00:00 | 00:00:00 | |
| DL1XH1-15 | 2026-08-31 05:27:19 | 52.44920 | 14.83955 | 64° | 64km/h | 14176m | 4.4m/s | -50.3°C | 0% | 0hPa | 2.8V | 08:30:00 | 01:17:33 | 00:00:00 | |
| DL1XH-west | 2026-08-31 05:27:16 | 52.44907 | 14.83906 | 67° | 66km/h | 14167m | 3.9m/s | -50.3°C | 1% | 144.1hPa | 2.7V | 18:12:15 | 01:17:31 | 00:00:00 | |
| DM0DOS-11 | 2026-08-31 05:27:15 | 52.44887 | 14.83830 | 66° | 69km/h | 14152m | 6.2m/s | -50.2°C | 4.6% | 144.4hPa | 2.8V | 08:30:00 | 01:17:28 | 00:00:00 | |
| 3Z3Z-3 | 2026-08-31 05:27:13 | 52.44893 | 14.83856 | 67° | 68km/h | 14158m | 4.5m/s | -50.2°C | 0% | 0hPa | 2.8V | 00:00:00 | 00:00:00 | 00:00:00 | |
| 13BRC | 2026-08-31 05:27:12 | 52.44887 | 14.83830 | 68° | 69km/h | 14153m | 6.2m/s | -50.2°C | 1.6% | 144.4hPa | 2.8V | 00:00:00 | 00:00:00 | 00:00:00 | |
| DB0DAN | 2026-08-31 05:27:10 | 52.44865 | 14.83748 | 65° | 69km/h | 14137m | 4m/s | -50.2°C | 1.6% | 144.81hPa | 2.8V | 00:00:00 | 00:00:00 | 00:00:00 | |
| DL1XH1-15 | 2026-08-31 05:27:09 | 52.44851 | 14.83694 | 66° | 71km/h | 14127m | 4m/s | -50.1°C | 0% | 0hPa | 2.7V | 08:30:00 | 01:17:23 | 00:00:00 | |
| KRY50SP-1 | 2026-08-31 05:27:07 | 52.44851 | 14.83693 | 67° | 71km/h | 14127m | 4.0m/s | -50.1°C | 1.6% | 145.0hPa | 2.7V | 00:00:00 | 00:00:00 | 00:00:00 | |
| DM0DOS-11 | 2026-08-31 05:27:05 | 52.44817 | 14.83563 | 67° | 68km/h | 14101m | 6.9m/s | -50°C | 4.4% | 145.6hPa | 2.7V | 08:30:00 | 01:17:18 | 00:00:00 | |
| DF8AY | 2026-08-31 05:27:05 | 52.44829 | 14.83615 | 68° | 68km/h | 14112m | 6.5m/s | -50.1°C | 1% | 145.3hPa | 2.8V | 18:12:15 | 01:17:20 | 00:00:00 | |
| EDDB2-11 | 2026-08-31 05:27:04 | 52.44823 | 14.83589 | 68° | 68km/h | 14107m | 4.3m/s | -50.0°C | 1.6% | 145.4hPa | 2.7V | 00:00:00 | 00:00:00 | 00:00:00 | |
| DL2RXE-15 | 2026-08-31 05:27:03 | 52.44823 | 14.83589 | 69° | 68km/h | 14107m | 4.3m/s | -50.0°C | 1.6% | 145.4hPa | 2.7V | 00:00:00 | 00:00:00 | 00:00:00 | |
| 3Z3Z-3 | 2026-08-31 05:27:02 | 52.44817 | 14.83563 | 69° | 68km/h | 14101m | 6.9m/s | 0°C | 0% | 0hPa | 2.7V | 00:00:00 | 00:00:00 | 00:00:00 | |
| S3001 | 2026-08-31 05:26:59 | 52.44790 | 14.83454 | 67° | 73km/h | 14082m | 6.2m/s | -49.8°C | 1.6% | 146.0hPa | 2.7V | 00:00:00 | 00:00:00 | 00:00:00 | |
| SP3BTT-10 | 2026-08-31 05:26:57 | 52.44775 | 14.83397 | 69° | 88km/h | 14072m | 6.7m/s | -49.8°C | 4.4% | 146.2hPa | 2.7V | 00:00:00 | 00:00:00 | 00:00:00 | |
| DM0DOS-11 | 2026-08-31 05:26:55 | 52.44746 | 14.83281 | 67° | 73km/h | 14050m | 6.1m/s | -49.9°C | 4.3% | 146.7hPa | 2.8V | 08:30:00 | 01:17:08 | 00:00:00 | |
| DB0DAN | 2026-08-31 05:26:55 | 52.44761 | 14.83338 | 68° | 71km/h | 14061m | 6.9m/s | -49.8°C | 1.6% | 146.45hPa | 2.7V | 00:00:00 | 00:00:00 | 00:00:00 | |
| DL1XH-west | 2026-08-31 05:26:55 | 52.44761 | 14.83338 | 68° | 75km/h | 14061m | 6.9m/s | -49.8°C | 1% | 146.4hPa | 2.7V | 18:12:15 | 01:17:10 | 00:00:00 | |
| DF8AY | 2026-08-31 05:26:54 | 52.44754 | 14.83309 | 67° | 73km/h | 14055m | 4m/s | -49.9°C | 1.1% | 146.6hPa | 2.8V | 18:12:15 | 01:17:09 | 00:00:00 | |
| SONDE2-12 | 2026-08-31 05:26:49 | 52.44717 | 14.83173 | 66° | 73km/h | 14032m | 5.6m/s | -50.0°C | 1.9% | 147.1hPa | 2.7V | 00:00:00 | 00:00:00 | 00:00:00 | |
| SONCRA | 2026-08-31 05:26:46 | 52.44695 | 14.83086 | 67° | 78km/h | 14017m | 4.6m/s | -50.1°C | 1.6% | 147.4hPa | 2.7V | 00:00:00 | 00:00:00 | 00:00:00 | |
| DM0DOS-11 | 2026-08-31 05:26:45 | 52.44674 | 14.82992 | 70° | 80km/h | 14000m | 5.3m/s | -50.2°C | 4.4% | 147.8hPa | 2.7V | 08:30:00 | 01:16:58 | 00:00:00 | |
| DL1XH-west | 2026-08-31 05:26:45 | 52.44687 | 14.83055 | 70° | 80km/h | 14011m | 5.3m/s | -50.2°C | 1.1% | 147.6hPa | 2.6V | 18:12:15 | 01:17:00 | 00:00:00 | |
| AA1-15 | 2026-08-31 05:26:43 | 52.44674 | 14.82992 | 71° | 80km/h | 14000m | 5.3m/s | -50.2°C | 1.1% | 147.9hPa | 2.7V | 18:12:15 | 01:16:58 | 00:00:00 | |
| 3Z3Z-3 | 2026-08-31 05:26:41 | 52.44667 | 14.82960 | 72° | 82km/h | 13995m | 5.2m/s | 0°C | 0% | 0hPa | 2.8V | 00:00:00 | 00:00:00 | 00:00:00 | |
| DL1XH1-15 | 2026-08-31 05:26:39 | 52.44612 | 14.82695 | 72° | 86km/h | 13957m | 4m/s | -51.2°C | 0% | 0hPa | 2.8V | 08:30:00 | 01:16:49 | 00:00:00 | |
| SONDE2-11 | 2026-08-31 05:26:39 | 52.44647 | 14.82861 | 71° | 84km/h | 13981m | 6.1m/s | -50.3°C | 1.6% | 148.2hPa | 2.7V | 00:00:00 | 00:00:00 | 00:00:00 | |
| DM0DOS-11 | 2026-08-31 05:26:35 | 52.44605 | 14.82660 | 72° | 88km/h | 13953m | 5m/s | -51.3°C | 4.7% | 148.9hPa | 2.7V | 08:30:00 | 01:16:48 | 00:00:00 | |
| DL1XH-west | 2026-08-31 05:26:35 | 52.44618 | 14.82728 | 71° | 86km/h | 13962m | 5.4m/s | -51.1°C | 1.3% | 148.7hPa | 2.8V | 18:12:15 | 01:16:50 | 00:00:00 | |
| DF8AY | 2026-08-31 05:26:33 | 52.44605 | 14.82660 | 73° | 88km/h | 13953m | 5m/s | -51.3°C | 1.3% | 148.9hPa | 2.7V | 18:12:15 | 01:16:48 | 00:00:00 | |
| AA1-15 | 2026-08-31 05:26:32 | 52.44599 | 14.82625 | 74° | 91km/h | 13948m | 5m/s | -51.4°C | 1.3% | 149hPa | 2.7V | 18:12:15 | 01:16:47 | 00:00:00 | |
| DL1XH1-15 | 2026-08-31 05:26:29 | 52.44535 | 14.82326 | 68° | 97km/h | 13908m | 5.1m/s | -52.2°C | 0% | 0hPa | 2.8V | 08:30:00 | 01:16:39 | 00:00:00 | |
| S3001 | 2026-08-31 05:26:28 | 52.44571 | 14.82475 | 70° | 97km/h | 13929m | 6.0m/s | -51.7°C | 1.8% | 149.5hPa | 2.8V | 00:00:00 | 00:00:00 | 00:00:00 | |
| SP3BTT-10 | 2026-08-31 05:26:27 | 52.44562 | 14.82437 | 70° | 86km/h | 13924m | 5.0m/s | -51.8°C | 5.0% | 149.6hPa | 2.8V | 00:00:00 | 00:00:00 | 00:00:00 | |
| DM0DOS-11 | 2026-08-31 05:26:25 | 52.44527 | 14.82289 | 69° | 97km/h | 13904m | 3.1m/s | -52.2°C | 5.1% | 150.1hPa | 2.8V | 08:30:00 | 01:16:38 | 00:00:00 | |
| DL1XH-west | 2026-08-31 05:26:25 | 52.44545 | 14.82364 | 68° | 97km/h | 13913m | 4.2m/s | -52.2°C | 1.5% | 149.8hPa | 2.7V | 18:12:15 | 01:16:40 | 00:00:00 | |
| DF8AY | 2026-08-31 05:26:23 | 52.44527 | 14.82289 | 70° | 97km/h | 13904m | 3.1m/s | -52.2°C | 1.6% | 150.1hPa | 2.8V | 18:12:15 | 01:16:38 | 00:00:00 | |
| AA1-15 | 2026-08-31 05:26:21 | 52.44510 | 14.82216 | 70° | 93km/h | 13894m | 4m/s | -52.2°C | 1.6% | 150.3hPa | 2.7V | 18:12:15 | 01:16:36 | 00:00:00 | |
| DL1XH1-15 | 2026-08-31 05:26:19 | 52.44449 | 14.81973 | 64° | 88km/h | 13860m | 5.5m/s | 0°C | 0% | 0hPa | 2.6V | 00:00:00 | 01:16:29 | 00:00:00 | |
| SONDE2-12 | 2026-08-31 05:26:18 | 52.44485 | 14.82109 | 67° | 89km/h | 13880m | 5.4m/s | -52.4°C | 2.4% | 150.6hPa | 2.7V | 00:00:00 | 00:00:00 | 00:00:00 | |
| DM0DOS-11 | 2026-08-31 05:26:17 | 52.44439 | 14.81939 | 65° | 89km/h | 13854m | 4.7m/s | -52.6°C | 5.3% | 151.2hPa | 2.7V | 08:30:00 | 01:16:28 | 00:00:00 | |
| DL1XH-west | 2026-08-31 05:26:14 | 52.44449 | 14.81973 | 65° | 88km/h | 13860m | 5.5m/s | 0°C | 0% | 151.1hPa | 2.6V | 18:12:15 | 01:16:29 | 00:00:00 | |
| DF8AY | 2026-08-31 05:26:12 | 52.44430 | 14.81905 | 65° | 91km/h | 13850m | 4.2m/s | -52.6°C | 1.7% | 151.3hPa | 2.8V | 18:12:15 | 01:16:27 | 00:00:00 | |
| AA1-15 | 2026-08-31 05:26:11 | 52.44420 | 14.81871 | 65° | 89km/h | 13846m | 3.7m/s | -52.5°C | 1.7% | 151.4hPa | 2.8V | 18:12:15 | 01:16:26 | 00:00:00 | |
| DB0DAN | 2026-08-31 05:26:10 | 52.44411 | 14.81838 | 65° | 84km/h | 13841m | 6.3m/s | -52.5°C | 2% | 151.5hPa | 2.8V | 00:00:00 | 00:00:00 | 00:00:00 | |
| DL1XH-west | 2026-08-31 05:26:04 | 52.44359 | 14.81648 | 65° | 80km/h | 13812m | 4.5m/s | 0°C | 0% | 0hPa | 2.7V | 18:12:15 | 01:16:19 | 00:00:00 | |
| DF8AY | 2026-08-31 05:26:01 | 52.44332 | 14.81559 | 64° | 78km/h | 13798m | 3.2m/s | -52.9°C | 1.8% | 0hPa | 2.7V | 18:12:15 | 01:16:16 | 00:00:00 | |
| AA1-15 | 2026-08-31 05:26:00 | 52.44323 | 14.81529 | 65° | 82km/h | 13793m | 6.1m/s | -52.8°C | 1.8% | 152.6hPa | 2.7V | 18:12:15 | 01:16:15 | 00:00:00 | |
| DL1XH1-15 | 2026-08-31 05:25:59 | 52.44274 | 14.81336 | 68° | 88km/h | 13764m | 6.5m/s | 0°C | 0% | 0hPa | 2.7V | 00:00:00 | 01:16:09 | 00:00:00 | |
| S3001 | 2026-08-31 05:25:57 | 52.44298 | 14.81436 | 67° | 82km/h | 13777m | 2.9m/s | -52.7°C | 2.2% | 153.0hPa | 2.7V | 00:00:00 | 00:00:00 | 00:00:00 | |
| DB0DAN | 2026-08-31 05:25:55 | 52.44282 | 14.81370 | 68° | 84km/h | 13769m | 2.4m/s | -52.7°C | 2.1% | 153.22hPa | 2.7V | 00:00:00 | 00:00:00 | 00:00:00 | |
| DL1XH-west | 2026-08-31 05:25:54 | 52.44274 | 14.81336 | 68° | 88km/h | 13764m | 6.5m/s | 0°C | 0% | 0hPa | 2.7V | 18:12:15 | 01:16:09 | 00:00:00 | |
| DF8AY | 2026-08-31 05:25:51 | 52.44249 | 14.81235 | 68° | 88km/h | 13749m | 6.3m/s | -52.5°C | 1.9% | 0hPa | 2.8V | 18:12:15 | 01:16:06 | 00:00:00 | |
| DL1XH1-15 | 2026-08-31 05:25:49 | 52.44185 | 14.81002 | 65° | 89km/h | 13714m | 4.8m/s | 0°C | 0% | 0hPa | 2.7V | 00:00:00 | 01:15:59 | 00:00:00 | |
| AA1-15 | 2026-08-31 05:25:49 | 52.44232 | 14.81168 | 67° | 88km/h | 13739m | 6.8m/s | -52.5°C | 1.9% | 154hPa | 2.7V | 18:12:15 | 01:16:04 | 00:00:00 | |
| SONDE2-12 | 2026-08-31 05:25:47 | 52.44214 | 14.81102 | 65° | 86km/h | 13728m | 5.6m/s | -52.4°C | 2.5% | 154.2hPa | 2.8V | 00:00:00 | 00:00:00 | 00:00:00 | |
| DM0DOS-11 | 2026-08-31 05:25:44 | 52.44141 | 14.80833 | 67° | 89km/h | 13689m | 5.7m/s | -52.2°C | 5.3% | 155.1hPa | 2.8V | 08:30:00 | 01:15:54 | 00:00:00 | |
| DL1XH-west | 2026-08-31 05:25:44 | 52.44185 | 14.81002 | 65° | 89km/h | 13714m | 4.8m/s | 0°C | 0% | 0hPa | 2.7V | 18:12:15 | 01:15:59 | 00:00:00 | |
| EDDB2-12 | 2026-08-31 05:25:43 | 52.44176 | 14.80969 | 65° | 86km/h | 13709m | 5.2m/s | -52.3°C | 2.1% | 154.6hPa | 2.8V | 00:00:00 | 00:00:00 | 00:00:00 | |
| DB0DAN | 2026-08-31 05:25:40 | 52.44150 | 14.80868 | 68° | 86km/h | 13694m | 5.3m/s | -52.2°C | 2.1% | 154.99hPa | 2.8V | 00:00:00 | 00:00:00 | 00:00:00 | |
| AA1-15 | 2026-08-31 05:25:38 | 52.44132 | 14.80799 | 67° | 91km/h | 13683m | 4.4m/s | -52.1°C | 1.9% | 155.2hPa | 2.7V | 18:12:15 | 01:15:53 | 00:00:00 | |
| KRY50SP-1 | 2026-08-31 05:25:38 | 52.44141 | 14.80833 | 69° | 89km/h | 13689m | 5.7m/s | -52.2°C | 2.1% | 155.1hPa | 2.8V | 00:00:00 | 00:00:00 | 00:00:00 | |
| SONDE2-11 | 2026-08-31 05:25:37 | 52.44123 | 14.80764 | 65° | 93km/h | 13679m | 4.8m/s | -52.2°C | 2.1% | 155.3hPa | 2.8V | 00:00:00 | 00:00:00 | 00:00:00 | |
| DM0DOS-11 | 2026-08-31 05:25:34 | 52.44041 | 14.80489 | 64° | 91km/h | 13639m | 4.8m/s | -52.1°C | 5.3% | 156.3hPa | 2.8V | 08:30:00 | 01:15:44 | 00:00:00 | |
| DF8AY | 2026-08-31 05:25:34 | 52.44092 | 14.80661 | 64° | 91km/h | 13665m | 4m/s | -52.2°C | 1.9% | 0hPa | 2.8V | 18:12:15 | 01:15:49 | 00:00:00 | |
| DL1XH-west | 2026-08-31 05:25:32 | 52.44072 | 14.80592 | 64° | 91km/h | 13655m | 6.6m/s | 0°C | 0% | 0hPa | 2.7V | 18:12:15 | 01:15:47 | 00:00:00 | |
| AA1-15 | 2026-08-31 05:25:27 | 52.44021 | 14.80420 | 65° | 93km/h | 13629m | 6.8m/s | -52.1°C | 2% | 156.6hPa | 2.8V | 18:12:15 | 01:15:42 | 00:00:00 | |
| DB0DAN | 2026-08-31 05:25:25 | 52.44001 | 14.80352 | 64° | 86km/h | 13618m | 6.6m/s | -52.3°C | 2.2% | 156.83hPa | 2.7V | 00:00:00 | 00:00:00 | 00:00:00 | |
| DM0DOS-11 | 2026-08-31 05:25:24 | 52.43938 | 14.80153 | 61° | 91km/h | 13588m | 6m/s | -52.8°C | 5.8% | 157.5hPa | 2.8V | 08:30:00 | 01:15:34 | 00:00:00 | |
| DF8AY | 2026-08-31 05:25:22 | 52.43970 | 14.80252 | 63° | 91km/h | 13604m | 3m/s | -52.7°C | 2.2% | 0hPa | 2.7V | 18:12:15 | 01:15:37 | 00:00:00 | |
| AA1-15 | 2026-08-31 05:25:16 | 52.43905 | 14.80054 | 62° | 91km/h | 13572m | 4.7m/s | -52.9°C | 2.2% | 157.9hPa | 2.8V | 18:12:15 | 01:15:31 | 00:00:00 | |
| KRY50SP-1 | 2026-08-31 05:25:15 | 52.43905 | 14.80054 | 63° | 91km/h | 13572m | 4.7m/s | -52.9°C | 2.3% | 157.9hPa | 2.8V | 00:00:00 | 00:00:00 | 00:00:00 | |
| SONCRA | 2026-08-31 05:25:13 | 52.43873 | 14.79954 | 62° | 88km/h | 13558m | 5.3m/s | -53.1°C | 2.4% | 158.2hPa | 2.8V | 00:00:00 | 00:00:00 | 00:00:00 | |
| DB0DAN | 2026-08-31 05:25:10 | 52.43840 | 14.79858 | 60° | 84km/h | 13542m | 3.9m/s | -53.1°C | 2.4% | 158.56hPa | 2.8V | 00:00:00 | 00:00:00 | 00:00:00 | |
| DF8AY | 2026-08-31 05:25:08 | 52.43795 | 14.79734 | 59° | 88km/h | 13519m | 6m/s | -52.9°C | 2.4% | 0hPa | 2.7V | 18:12:15 | 01:15:21 | 00:00:00 | |
| AA1-15 | 2026-08-31 05:25:05 | 52.43784 | 14.79703 | 58° | 88km/h | 13513m | 4.3m/s | -52.8°C | 2.4% | 159.2hPa | 2.7V | 18:12:15 | 01:15:20 | 00:00:00 | |
| DM0DOS-11 | 2026-08-31 05:25:04 | 52.43713 | 14.79516 | 56° | 89km/h | 13493m | 3.8m/s | -52.7°C | 5.8% | 159.9hPa | 2.7V | 08:30:00 | 01:15:14 | 00:00:00 | |
| DF8AY | 2026-08-31 05:25:02 | 52.43690 | 14.79454 | 59° | 88km/h | 13484m | 3.7m/s | -52.6°C | 2.3% | 0hPa | 2.8V | 18:12:15 | 01:15:12 | 00:00:00 | |
| KRY50SP-1 | 2026-08-31 05:25:00 | 52.43736 | 14.79576 | 61° | 82km/h | 13497m | -7.5m/s | -52.7°C | 2.4% | 159.7hPa | 2.7V | 00:00:00 | 00:00:00 | 00:00:00 | |
| 3Z3Z-3 | 2026-08-31 05:24:57 | 52.43701 | 14.79485 | 59° | 88km/h | 13489m | 5.6m/s | 0°C | 0% | 0hPa | 2.7V | 00:00:00 | 00:00:00 | 00:00:00 | |
| DB0DAN | 2026-08-31 05:24:55 | 52.43666 | 14.79393 | 57° | 82km/h | 13474m | 5.6m/s | -52.6°C | 2.4% | 160.4hPa | 2.7V | 00:00:00 | 00:00:00 | 00:00:00 | |
| AA1-15 | 2026-08-31 05:24:54 | 52.43654 | 14.79363 | 58° | 86km/h | 13470m | 3.3m/s | -52.5°C | 2.3% | 160.5hPa | 2.7V | 18:12:15 | 01:15:09 | 00:00:00 | |
| DF8AY | 2026-08-31 05:24:45 | 52.43554 | 14.79084 | 59° | 89km/h | 13426m | 5.7m/s | -52.6°C | 2.5% | 0hPa | 2.8V | 18:12:15 | 01:15:00 | 00:00:00 | |
| SONDE2-12 | 2026-08-31 05:24:45 | 52.43554 | 14.79084 | 59° | 89km/h | 13426m | 5.7m/s | -52.6°C | 0% | 161.6hPa | 2.8V | 00:00:00 | 00:00:00 | 00:00:00 | |
| DM0DOS-11 | 2026-08-31 05:24:44 | 52.43481 | 14.78904 | 54° | 84km/h | 13400m | 6.8m/s | -52.5°C | 6% | 162.2hPa | 2.8V | 08:30:00 | 01:14:54 | 00:00:00 | |
| AA1-15 | 2026-08-31 05:24:43 | 52.43529 | 14.79021 | 57° | 89km/h | 13418m | 5.5m/s | -52.6°C | 2.5% | 161.8hPa | 2.8V | 18:12:15 | 01:14:58 | 00:00:00 | |
| DB0DAN | 2026-08-31 05:24:40 | 52.43493 | 14.78933 | 56° | 80km/h | 13404m | 3.4m/s | -52.5°C | 2.5% | 162.18hPa | 2.7V | 00:00:00 | 00:00:00 | 00:00:00 | |
| DF8AY | 2026-08-31 05:24:34 | 52.43423 | 14.78762 | 58° | 82km/h | 13375m | 6.7m/s | -52.5°C | 2.5% | 0hPa | 2.7V | 18:12:15 | 01:14:49 | 00:00:00 | |
| AA1-15 | 2026-08-31 05:24:32 | 52.43401 | 14.78703 | 58° | 84km/h | 13365m | 6.1m/s | -52.6°C | 2.6% | 163.2hPa | 2.8V | 18:12:15 | 01:14:47 | 00:00:00 | |
| DM0DOS-11 | 2026-08-31 05:24:29 | 52.43368 | 14.78616 | 56° | 82km/h | 13351m | 3.4m/s | -52.5°C | 6% | 163.5hPa | 2.7V | 08:30:00 | 01:14:44 | 00:00:00 | |
| 13BRC | 2026-08-31 05:24:28 | 52.43368 | 14.78616 | 58° | 82km/h | 13351m | 3.4m/s | -52.5°C | 2.6% | 163.5hPa | 2.7V | 00:00:00 | 00:00:00 | 00:00:00 | |
| KRY50SP-1 | 2026-08-31 05:24:27 | 52.43356 | 14.78588 | 56° | 84km/h | 13346m | 6.0m/s | -52.6°C | 2.6% | 163.6hPa | 2.7V | 00:00:00 | 00:00:00 | 00:00:00 | |
| DB0DAN | 2026-08-31 05:24:25 | 52.43320 | 14.78504 | 55° | 78km/h | 13330m | 5.2m/s | -52.6°C | 2.6% | 163.98hPa | 2.7V | 00:00:00 | 00:00:00 | 00:00:00 | |
| DM0DOS-11 | 2026-08-31 05:24:24 | 52.43251 | 14.78346 | 54° | 77km/h | 13301m | 6.2m/s | -52.7°C | 6.1% | 164.8hPa | 2.8V | 08:30:00 | 01:14:34 | 00:00:00 | |
| DF8AY | 2026-08-31 05:24:23 | 52.43296 | 14.78449 | 55° | 78km/h | 13320m | 5.6m/s | -52.6°C | 2.6% | 0hPa | 2.8V | 18:12:15 | 01:14:38 | 00:00:00 | |
| AA1-15 | 2026-08-31 05:24:21 | 52.43274 | 14.78397 | 55° | 77km/h | 13310m | 5.5m/s | -52.6°C | 2.6% | 164.5hPa | 2.7V | 18:12:15 | 01:14:36 | 00:00:00 | |
| DB0NH | 2026-08-31 05:24:19 | 52.43251 | 14.78346 | 55° | 75km/h | 13301m | 6.2m/s | -52.6°C | 6.1% | 164.7hPa | 2.7V | 00:00:00 | 01:14:34 | 00:00:00 | |
| KRY50SP-1 | 2026-08-31 05:24:16 | 52.43229 | 14.78294 | 55° | 77km/h | 13290m | 6.1m/s | -52.7°C | 2.6% | 165.0hPa | 2.7V | 00:00:00 | 00:00:00 | 00:00:00 | |
| DM0DOS-11 | 2026-08-31 05:24:14 | 52.43131 | 14.78093 | 48° | 75km/h | 13251m | 5.1m/s | -52.5°C | 6.3% | 166hPa | 2.7V | 08:30:00 | 01:14:24 | 00:00:00 | |
| SONDE2-12 | 2026-08-31 05:24:14 | 52.43193 | 14.78217 | 52° | 77km/h | 13276m | 5.9m/s | -52.6°C | 3.2% | 165.4hPa | 2.7V | 00:00:00 | 00:00:00 | 00:00:00 | |
| DL2RXE-15 | 2026-08-31 05:24:12 | 52.43181 | 14.78192 | 52° | 78km/h | 13271m | 4.0m/s | -52.5°C | 2.6% | 165.5hPa | 2.7V | 00:00:00 | 00:00:00 | 00:00:00 | |
| DB0DAN | 2026-08-31 05:24:10 | 52.43143 | 14.78117 | 50° | 73km/h | 13256m | 5.6m/s | -52.5°C | 2.7% | 165.9hPa | 2.7V | 00:00:00 | 00:00:00 | 00:00:00 | |
| AA1-15 | 2026-08-31 05:24:10 | 52.43143 | 14.78117 | 50° | 77km/h | 13256m | 5.6m/s | -52.5°C | 2.8% | 165.9hPa | 2.7V | 18:12:15 | 01:14:25 | 00:00:00 | |
| 3Z3Z-3 | 2026-08-31 05:24:08 | 52.43131 | 14.78093 | 50° | 75km/h | 13251m | 5.1m/s | 0°C | 0% | 0hPa | 2.8V | 00:00:00 | 00:00:00 | 00:00:00 | |
| 13BRC | 2026-08-31 05:24:07 | 52.43118 | 14.78070 | 49° | 75km/h | 13246m | 4.0m/s | -52.4°C | 2.7% | 166.2hPa | 2.8V | 00:00:00 | 00:00:00 | 00:00:00 | |
| KRY50SP-1 | 2026-08-31 05:24:06 | 52.43106 | 14.78047 | 50° | 73km/h | 13241m | 5.8m/s | -52.4°C | 2.7% | 166.3hPa | 2.8V | 00:00:00 | 00:00:00 | 00:00:00 | |
| DM0DOS-11 | 2026-08-31 05:24:04 | 52.43007 | 14.77862 | 47° | 75km/h | 13201m | 3.6m/s | -52.5°C | 6.1% | 167.3hPa | 2.8V | 08:30:00 | 01:14:14 | 00:00:00 | |
| AA1-15 | 2026-08-31 05:24:00 | 52.43019 | 14.77884 | 48° | 75km/h | 13205m | 5.6m/s | -52.5°C | 2.7% | 167.2hPa | 2.7V | 18:12:15 | 01:14:15 | 00:00:00 | |
| EDDB2-11 | 2026-08-31 05:23:58 | 52.42994 | 14.77839 | 46° | 75km/h | 13196m | 5.9m/s | -52.5°C | 2.6% | 167.5hPa | 2.7V | 00:00:00 | 00:00:00 | 00:00:00 | |
| DB0DAN | 2026-08-31 05:23:55 | 52.42955 | 14.77769 | 48° | 73km/h | 13179m | 6.2m/s | -52.6°C | 2.7% | 167.87hPa | 2.7V | 00:00:00 | 00:00:00 | 00:00:00 | |
| AA1-15 | 2026-08-31 05:23:49 | 52.42886 | 14.77624 | 56° | 71km/h | 13148m | 7.6m/s | -52.7°C | 2.9% | 168.7hPa | 2.7V | 18:12:15 | 01:14:04 | 00:00:00 | |
| DB0NH | 2026-08-31 05:23:49 | 52.42886 | 14.77624 | 56° | 71km/h | 13148m | 7.6m/s | -52.6°C | 6.3% | 168.6hPa | 2.7V | 00:00:00 | 01:14:04 | 00:00:00 | |
| SP6BVK | 2026-08-31 05:23:48 | 52.42886 | 14.77624 | 57° | 71km/h | 13148m | 7.6m/s | -52.7°C | 2.8% | 168.7hPa | 2.7V | 00:00:00 | 00:00:00 | 00:00:00 | |
| 13BRC | 2026-08-31 05:23:47 | 52.42876 | 14.77601 | 57° | 68km/h | 13142m | 4.9m/s | -52.7°C | 2.8% | 168.9hPa | 2.7V | 00:00:00 | 00:00:00 | 00:00:00 | |
| DM0DOS-11 | 2026-08-31 05:23:44 | 52.42790 | 14.77379 | 56° | 75km/h | 13097m | 4.2m/s | -52.3°C | 6.3% | 170.1hPa | 2.7V | 08:30:00 | 01:13:54 | 00:00:00 | |
| SONDE2-12 | 2026-08-31 05:23:43 | 52.42829 | 14.77481 | 57° | 69km/h | 13117m | 4.2m/s | -52.4°C | 3.4% | 169.6hPa | 2.7V | 00:00:00 | 00:00:00 | 00:00:00 | |
| DB0DAN | 2026-08-31 05:23:40 | 52.42800 | 14.77405 | 57° | 71km/h | 13102m | 5.3m/s | -52.3°C | 2.7% | 169.93hPa | 2.7V | 00:00:00 | 00:00:00 | 00:00:00 | |
| AA1-15 | 2026-08-31 05:23:38 | 52.42780 | 14.77353 | 58° | 75km/h | 13093m | 5m/s | -52.3°C | 2.9% | 170.1hPa | 2.8V | 18:12:15 | 01:13:53 | 00:00:00 | |
| DM0DOS-11 | 2026-08-31 05:23:34 | 52.42699 | 14.77132 | 63° | 66km/h | 13048m | 6.2m/s | -52.2°C | 6.6% | 171.3hPa | 2.7V | 08:30:00 | 01:13:44 | 00:00:00 | |
| DF8AY | 2026-08-31 05:23:34 | 52.42741 | 14.77251 | 58° | 69km/h | 13073m | 5.6m/s | -52.3°C | 3.1% | 0hPa | 2.7V | 18:12:15 | 01:13:49 | 00:00:00 | |
| AA1-15 | 2026-08-31 05:23:27 | 52.42684 | 14.77081 | 65° | 69km/h | 13037m | 5.8m/s | -52.2°C | 3.3% | 171.6hPa | 2.7V | 18:12:15 | 01:13:42 | 00:00:00 | |
| DB0DAN | 2026-08-31 05:23:25 | 52.42669 | 14.77027 | 65° | 71km/h | 13027m | 5.8m/s | -52.3°C | 3% | 171.86hPa | 2.8V | 00:00:00 | 00:00:00 | 00:00:00 | |
| AA1-15 | 2026-08-31 05:23:16 | 52.42589 | 14.76777 | 67° | 77km/h | 12982m | 5.9m/s | -52.3°C | 3.3% | 173.2hPa | 2.8V | 18:12:15 | 01:13:31 | 00:00:00 | |
| DF8AY | 2026-08-31 05:23:15 | 52.42581 | 14.76748 | 66° | 77km/h | 12977m | 6.2m/s | -52.4°C | 3.3% | 0hPa | 2.8V | 18:12:15 | 01:13:30 | 00:00:00 | |
| SONDE2-12 | 2026-08-31 05:23:12 | 52.42560 | 14.76661 | 70° | 71km/h | 12962m | 3.7m/s | -52.3°C | 3.8% | 173.7hPa | 2.8V | 00:00:00 | 00:00:00 | 00:00:00 | |
| DB0DAN | 2026-08-31 05:23:10 | 52.42548 | 14.76606 | 71° | 66km/h | 12953m | 3.8m/s | -52.3°C | 3.1% | 173.98hPa | 2.8V | 00:00:00 | 00:00:00 | 00:00:00 | |
| DM0DOS-11 | 2026-08-31 05:23:09 | 52.42543 | 14.76579 | 72° | 69km/h | 12948m | 6.8m/s | -52.2°C | 6.7% | 174hPa | 2.8V | 08:30:00 | 01:13:24 | 00:00:00 | |
| AA1-15 | 2026-08-31 05:23:05 | 52.42520 | 14.76467 | 71° | 75km/h | 12927m | 6m/s | -52.1°C | 3.2% | 174.6hPa | 2.8V | 18:12:15 | 01:13:20 | 00:00:00 | |
| DF8AY | 2026-08-31 05:23:04 | 52.42514 | 14.76438 | 70° | 77km/h | 12923m | 3m/s | -52.1°C | 3.2% | 0hPa | 2.8V | 18:12:15 | 01:13:19 | 00:00:00 | |
| DM0DOS-11 | 2026-08-31 05:23:04 | 52.42480 | 14.76292 | 71° | 71km/h | 12897m | 4m/s | -51.9°C | 6.5% | 175.4hPa | 2.8V | 08:30:00 | 01:13:14 | 00:00:00 | |
| AA1-15 | 2026-08-31 05:22:55 | 52.42459 | 14.76178 | 76° | 73km/h | 12875m | 4.3m/s | -51.7°C | 3.2% | 176hPa | 2.7V | 18:12:15 | 01:13:10 | 00:00:00 | |
| DB0DAN | 2026-08-31 05:22:55 | 52.42459 | 14.76178 | 76° | 69km/h | 12875m | 4.3m/s | -51.7°C | 3% | 176hPa | 2.7V | 00:00:00 | 00:00:00 | 00:00:00 | |
| DM0DOS-11 | 2026-08-31 05:22:54 | 52.42428 | 14.76001 | 73° | 73km/h | 12847m | 5m/s | -51.6°C | 6.6% | 176.8hPa | 2.7V | 08:30:00 | 01:13:04 | 00:00:00 | |
| AA1-15 | 2026-08-31 05:22:45 | 52.42411 | 14.75885 | 79° | 69km/h | 12825m | 3.5m/s | -51.5°C | 3.3% | 177.4hPa | 2.7V | 18:12:15 | 01:13:00 | 00:00:00 | |
| DF8AY | 2026-08-31 05:22:43 | 52.42403 | 14.75829 | 76° | 69km/h | 12816m | 5.6m/s | -51.4°C | 3.3% | 0hPa | 2.8V | 18:12:15 | 01:12:58 | 00:00:00 | |
| SONDE2-12 | 2026-08-31 05:22:41 | 52.42393 | 14.75773 | 72° | 69km/h | 12806m | 8.4m/s | -51.3°C | 3.6% | 177.9hPa | 2.7V | 00:00:00 | 00:00:00 | 00:00:00 | |
| DB0DAN | 2026-08-31 05:22:40 | 52.42388 | 14.75744 | 74° | 69km/h | 12797m | 8.9m/s | -51.3°C | 2.9% | 178.11hPa | 2.7V | 00:00:00 | 00:00:00 | 00:00:00 | |
| AA1-15 | 2026-08-31 05:22:35 | 52.42360 | 14.75597 | 73° | 78km/h | 12766m | 9.4m/s | -51.4°C | 3.2% | 179hPa | 2.7V | 18:12:15 | 01:12:50 | 00:00:00 | |
| DF8AY | 2026-08-31 05:22:31 | 52.42337 | 14.75458 | 77° | 88km/h | 12737m | 4.8m/s | -51.5°C | 3.4% | 0hPa | 2.8V | 18:12:15 | 01:12:46 | 00:00:00 | |
| SONDE2-11 | 2026-08-31 05:22:31 | 52.42332 | 14.75423 | 76° | 88km/h | 12732m | 5.4m/s | -51.5°C | 3.1% | 179.9hPa | 2.7V | 00:00:00 | 00:00:00 | 00:00:00 | |
| SP6BVK | 2026-08-31 05:22:27 | 52.42322 | 14.75353 | 78° | 82km/h | 12723m | 4.6m/s | -51.5°C | 3.1% | 180.2hPa | 2.7V | 00:00:00 | 00:00:00 | 00:00:00 | |
| DB0DAN | 2026-08-31 05:22:25 | 52.42312 | 14.75259 | 83° | 73km/h | 12708m | 5.3m/s | -51.6°C | 3% | 180.57hPa | 2.7V | 00:00:00 | 00:00:00 | 00:00:00 | |
| AA1-15 | 2026-08-31 05:22:24 | 52.42310 | 14.75226 | 82° | 82km/h | 12704m | 2.8m/s | -51.6°C | 3.4% | 180.7hPa | 2.8V | 18:12:15 | 01:12:39 | 00:00:00 | |
| DM0DOS-11 | 2026-08-31 05:22:24 | 52.42288 | 14.75048 | 75° | 93km/h | 12674m | 6.5m/s | -51.6°C | 6.5% | 181.5hPa | 2.7V | 08:30:00 | 01:12:34 | 00:00:00 | |
| DF8AY | 2026-08-31 05:22:19 | 52.42288 | 14.75048 | 76° | 93km/h | 12674m | 6.5m/s | -51.6°C | 3.3% | 0hPa | 2.7V | 18:12:15 | 01:12:34 | 00:00:00 | |
| DB0NH | 2026-08-31 05:22:19 | 52.42288 | 14.75048 | 76° | 99km/h | 12674m | 6.5m/s | -51.6°C | 6.5% | 181.5hPa | 2.8V | 00:00:00 | 01:12:34 | 00:00:00 | |
| SP3WXH-11 | 2026-08-31 05:22:17 | 52.42276 | 14.74973 | 75° | 95km/h | 12665m | 6.8m/s | -51.6°C | 3.1% | 181.8hPa | 2.8V | 00:00:00 | 00:00:00 | 00:00:00 | |
| DL2RXE-15 | 2026-08-31 05:22:15 | 52.42270 | 14.74935 | 76° | 97km/h | 12660m | 4.4m/s | -51.6°C | 3.1% | 182.0hPa | 2.8V | 00:00:00 | 00:00:00 | 00:00:00 | |
| DM0DOS-11 | 2026-08-31 05:22:14 | 52.42246 | 14.74663 | 87° | 93km/h | 12625m | 5.8m/s | -51.4°C | 6.6% | 182.9hPa | 2.8V | 08:30:00 | 01:12:24 | 00:00:00 | |
| AA1-15 | 2026-08-31 05:22:14 | 52.42259 | 14.74858 | 79° | 95km/h | 12650m | 3.6m/s | -51.6°C | 3.5% | 182.3hPa | 2.7V | 18:12:15 | 01:12:29 | 00:00:00 | |
| DB0DAN | 2026-08-31 05:22:10 | 52.42247 | 14.74701 | 86° | 88km/h | 12629m | 3.4m/s | -51.5°C | 3.1% | 182.78hPa | 2.7V | 00:00:00 | 00:00:00 | 00:00:00 | |
| SONDE2-12 | 2026-08-31 05:22:10 | 52.42247 | 14.74701 | 86° | 91km/h | 12630m | 3.4m/s | -51.5°C | 3.8% | 182.8hPa | 2.8V | 00:00:00 | 00:00:00 | 00:00:00 | |
| DF8AY | 2026-08-31 05:22:07 | 52.42241 | 14.74585 | 83° | 95km/h | 12616m | 5m/s | -51.3°C | 0% | 0hPa | 2.8V | 18:12:15 | 01:12:22 | 00:00:00 | |
| EDDB2-12 | 2026-08-31 05:22:06 | 52.42238 | 14.74547 | 80° | 93km/h | 12610m | 7.3m/s | -51.3°C | 3.2% | 183.4hPa | 2.7V | 00:00:00 | 00:00:00 | 00:00:00 | |
| 13BRC | 2026-08-31 05:22:05 | 52.42238 | 14.74547 | 82° | 93km/h | 12610m | 7.3m/s | -51.3°C | 3.2% | 183.4hPa | 2.7V | 00:00:00 | 00:00:00 | 00:00:00 | |
| DM0DOS-11 | 2026-08-31 05:22:04 | 52.42186 | 14.74257 | 77° | 108km/h | 12572m | 6.4m/s | -51.5°C | 6.8% | 184.4hPa | 2.7V | 08:30:00 | 01:12:14 | 00:00:00 | |
| AA1-15 | 2026-08-31 05:22:03 | 52.42220 | 14.74428 | 72° | 106km/h | 12593m | 5.6m/s | -51.6°C | 3.8% | 183.8hPa | 2.8V | 18:12:15 | 01:12:18 | 00:00:00 | |
| DF8AY | 2026-08-31 05:21:57 | 52.42174 | 14.74135 | 84° | 91km/h | 12546m | 8.5m/s | 0°C | 0% | 0hPa | 2.7V | 18:12:15 | 01:12:11 | 00:00:00 | |
| DB0DAN | 2026-08-31 05:21:55 | 52.42172 | 14.74098 | 84° | 86km/h | 12540m | 4m/s | -51.7°C | 3.3% | 185.34hPa | 2.7V | 00:00:00 | 00:00:00 | 00:00:00 | |
| SP3BTT-10 | 2026-08-31 05:21:55 | 52.42172 | 14.74098 | 84° | 119km/h | 12540m | 4.0m/s | -51.6°C | 6.8% | 185.3hPa | 2.7V | 00:00:00 | 00:00:00 | 00:00:00 | |
| DM0DOS-11 | 2026-08-31 05:21:54 | 52.42146 | 14.73847 | 77° | 110km/h | 12499m | 8m/s | -51.9°C | 7.3% | 186.5hPa | 2.7V | 08:30:00 | 01:12:04 | 00:00:00 | |
| AA1-15 | 2026-08-31 05:21:53 | 52.42166 | 14.74021 | 82° | 100km/h | 12529m | 4.5m/s | -51.7°C | 4% | 185.6hPa | 2.8V | 18:12:15 | 01:12:08 | 00:00:00 | |
| S3001 | 2026-08-31 05:21:48 | 52.42140 | 14.73803 | 77° | 110km/h | 12493m | 4.6m/s | -51.9°C | 3.7% | 186.7hPa | 2.7V | 00:00:00 | 00:00:00 | 00:00:00 | |
| SP6BVK | 2026-08-31 05:21:46 | 52.42134 | 14.73758 | 78° | 113km/h | 12488m | 5.6m/s | -51.8°C | 3.8% | 186.9hPa | 2.7V | 00:00:00 | 00:00:00 | 00:00:00 | |
| DM0DOS-11 | 2026-08-31 05:21:44 | 52.42082 | 14.73382 | 76° | 115km/h | 12448m | 4.6m/s | -51.9°C | 7.5% | 188hPa | 2.7V | 08:30:00 | 01:11:54 | 00:00:00 | |
| DF8AY | 2026-08-31 05:21:43 | 52.42110 | 14.73569 | 78° | 119km/h | 12468m | 6.9m/s | 0°C | 0% | 0hPa | 2.8V | 18:12:15 | 01:11:58 | 00:00:00 | |
| AA1-15 | 2026-08-31 05:21:42 | 52.42103 | 14.73521 | 77° | 119km/h | 12462m | 5.5m/s | -51.7°C | 4.5% | 187.6hPa | 2.8V | 18:12:15 | 01:11:57 | 00:00:00 | |
| DB0DAN | 2026-08-31 05:21:40 | 52.42089 | 14.73428 | 76° | 108km/h | 12453m | 6m/s | -51.8°C | 3.8% | 187.86hPa | 2.7V | 00:00:00 | 00:00:00 | 00:00:00 | |
| SONDE2-12 | 2026-08-31 05:21:39 | 52.42075 | 14.73336 | 76° | 115km/h | 12442m | 6.8m/s | -52.2°C | 4.8% | 188.2hPa | 2.7V | 00:00:00 | 00:00:00 | 00:00:00 | |
| KRY50SP-1 | 2026-08-31 05:21:38 | 52.42082 | 14.73382 | 77° | 115km/h | 12448m | 4.6m/s | -51.9°C | 3.8% | 188.0hPa | 2.7V | 00:00:00 | 00:00:00 | 00:00:00 | |
| SONCRA | 2026-08-31 05:21:36 | 52.42062 | 14.73243 | 77° | 113km/h | 12430m | 7.1m/s | -52.4°C | 4.0% | 188.4hPa | 2.7V | 00:00:00 | 00:00:00 | 00:00:00 | |
| EDDB2-12 | 2026-08-31 05:21:35 | 52.42056 | 14.73196 | 76° | 117km/h | 12423m | 7.0m/s | -52.3°C | 3.9% | 188.7hPa | 2.7V | 00:00:00 | 00:00:00 | 00:00:00 | |
| DM0DOS-11 | 2026-08-31 05:21:34 | 52.42010 | 14.72900 | 74° | 124km/h | 12390m | 6.8m/s | -52.2°C | 7.9% | 189.7hPa | 2.7V | 08:30:00 | 01:11:44 | 00:00:00 | |
| DF8AY | 2026-08-31 05:21:33 | 52.42042 | 14.73099 | 77° | 122km/h | 12411m | 7.7m/s | 0°C | 0% | 0hPa | 2.7V | 18:12:15 | 01:11:48 | 00:00:00 | |
| AA1-15 | 2026-08-31 05:21:31 | 52.42027 | 14.72999 | 76° | 124km/h | 12399m | 6.6m/s | -52.1°C | 4.9% | 189.4hPa | 2.8V | 18:12:15 | 01:11:46 | 00:00:00 | |
| SONDE2-11 | 2026-08-31 05:21:28 | 52.42002 | 14.72850 | 74° | 124km/h | 12383m | 5.4m/s | -52.1°C | 4.1% | 189.9hPa | 2.7V | 00:00:00 | 00:00:00 | 00:00:00 | |
| KRY50SP-1 | 2026-08-31 05:21:27 | 52.42002 | 14.72850 | 76° | 124km/h | 12384m | 5.4m/s | -52.1°C | 4.1% | 189.9hPa | 2.7V | 00:00:00 | 00:00:00 | 00:00:00 | |
| DB0DAN | 2026-08-31 05:21:25 | 52.41976 | 14.72701 | 74° | 119km/h | 12369m | 4.1m/s | -52.1°C | 4.2% | 190.25hPa | 2.7V | 00:00:00 | 00:00:00 | 00:00:00 | |
| SP3BTT-10 | 2026-08-31 05:21:25 | 52.41976 | 14.72701 | 74° | 130km/h | 12369m | 4.1m/s | -52.0°C | 8.0% | 190.2hPa | 2.7V | 00:00:00 | 00:00:00 | 00:00:00 | |
| DM0DOS-11 | 2026-08-31 05:21:24 | 52.41928 | 14.72398 | 75° | 126km/h | 12340m | 5.7m/s | -52.3°C | 8.3% | 191.1hPa | 2.7V | 08:30:00 | 01:11:34 | 00:00:00 | |
| AA1-15 | 2026-08-31 05:21:20 | 52.41935 | 14.72449 | 76° | 126km/h | 12345m | 3.7m/s | -52.3°C | 5.2% | 191hPa | 2.8V | 18:12:15 | 01:11:35 | 00:00:00 | |
| DB0NH | 2026-08-31 05:21:19 | 52.41928 | 14.72398 | 76° | 130km/h | 12340m | 5.7m/s | -52.2°C | 8.3% | 191.1hPa | 2.7V | 00:00:00 | 01:11:34 | 08:30:00 | |
| KRY50SP-1 | 2026-08-31 05:21:17 | 52.41920 | 14.72348 | 76° | 124km/h | 12336m | 3.7m/s | -52.3°C | 4.3% | 191.3hPa | 2.8V | 00:00:00 | 00:00:00 | 00:00:00 | |
| SP3WXH-11 | 2026-08-31 05:21:15 | 52.41895 | 14.72200 | 73° | 122km/h | 12321m | 6.1m/s | -52.2°C | 4.3% | 191.7hPa | 2.8V | 00:00:00 | 00:00:00 | 00:00:00 | |
| DM0DOS-11 | 2026-08-31 05:21:14 | 52.41838 | 14.71906 | 73° | 128km/h | 12291m | 5m/s | -52.1°C | 8.3% | 192.6hPa | 2.8V | 08:30:00 | 01:11:24 | 00:00:00 | |
| KRY50SP-1 | 2026-08-31 05:21:12 | 52.41877 | 14.72102 | 74° | 124km/h | 12310m | 5.4m/s | -52.2°C | 4.3% | 192.0hPa | 2.8V | 00:00:00 | 00:00:00 | 00:00:00 | |
| DB0DAN | 2026-08-31 05:21:10 | 52.41848 | 14.71955 | 72° | 119km/h | 12296m | 4.4m/s | -52.1°C | 4.3% | 192.36hPa | 2.8V | 00:00:00 | 00:00:00 | 00:00:00 | |
| AA1-15 | 2026-08-31 05:21:09 | 52.41838 | 14.71906 | 73° | 128km/h | 12291m | 5m/s | -52.1°C | 5.3% | 192.6hPa | 2.8V | 18:12:15 | 01:11:24 | 00:00:00 | |
| SONDE2-12 | 2026-08-31 05:21:08 | 52.41820 | 14.71804 | 73° | 126km/h | 12281m | 6.3m/s | -52.1°C | 5.4% | 192.9hPa | 2.8V | 00:00:00 | 00:00:00 | 00:00:00 | |
| SP6BVK | 2026-08-31 05:21:06 | 52.41820 | 14.71804 | 74° | 128km/h | 12281m | 6.3m/s | -52.1°C | 4.4% | 192.9hPa | 2.8V | 00:00:00 | 00:00:00 | 00:00:00 | |
| SONCRA | 2026-08-31 05:21:05 | 52.41802 | 14.71703 | 74° | 128km/h | 12270m | 6.3m/s | -52.1°C | 4.5% | 193.2hPa | 2.8V | 00:00:00 | 00:00:00 | 00:00:00 | |
| DM0DOS-11 | 2026-08-31 05:21:04 | 52.41746 | 14.71396 | 71° | 130km/h | 12242m | 6.9m/s | -52.1°C | 8.4% | 194.1hPa | 2.8V | 00:00:00 | 01:11:14 | 00:00:00 | |
| AA1-15 | 2026-08-31 05:20:58 | 52.41735 | 14.71345 | 71° | 131km/h | 12237m | 4.1m/s | -52.1°C | 5.6% | 194.2hPa | 2.8V | 18:12:15 | 01:11:13 | 00:00:00 | |
| SONDE2-11 | 2026-08-31 05:20:57 | 52.41724 | 14.71294 | 70° | 131km/h | 12231m | 5.9m/s | -52.1°C | 4.5% | 194.4hPa | 2.8V | 00:00:00 | 00:00:00 | 00:00:00 | |
| DB0DAN | 2026-08-31 05:20:55 | 52.41702 | 14.71190 | 71° | 126km/h | 12221m | 5.6m/s | -52.1°C | 4.6% | 194.7hPa | 2.8V | 00:00:00 | 00:00:00 | 00:00:00 | |
| EDDB2-11 | 2026-08-31 05:20:52 | 52.41668 | 14.71033 | 71° | 133km/h | 12206m | 6.8m/s | -52.0°C | 4.6% | 195.2hPa | 2.8V | 00:00:00 | 00:00:00 | 00:00:00 | |
| DM0DOS-11 | 2026-08-31 05:20:49 | 52.41635 | 14.70871 | 71° | 139km/h | 12192m | 3.1m/s | -52°C | 8.8% | 195.6hPa | 2.8V | 00:00:00 | 01:11:04 | 00:00:00 | |
| AA1-15 | 2026-08-31 05:20:47 | 52.41613 | 14.70763 | 72° | 137km/h | 12183m | 3.4m/s | -52.1°C | 6.3% | 195.8hPa | 2.8V | 18:12:15 | 01:11:02 | 00:00:00 | |
| S3001 | 2026-08-31 05:20:46 | 52.41603 | 14.70709 | 71° | 137km/h | 12178m | 6.7m/s | -52.2°C | 5.0% | 195.9hPa | 2.7V | 00:00:00 | 00:00:00 | 00:00:00 | |
| SP6BVK | 2026-08-31 05:20:45 | 52.41603 | 14.70709 | 73° | 139km/h | 12178m | 6.7m/s | -52.2°C | 5.0% | 196.0hPa | 2.7V | 00:00:00 | 00:00:00 | 00:00:00 | |
| DM0DOS-11 | 2026-08-31 05:20:44 | 52.41525 | 14.70317 | 73° | 148km/h | 12146m | 4.9m/s | -52.3°C | 9.7% | 197hPa | 2.7V | 00:00:00 | 01:10:54 | 00:00:00 | |
| 13BRC | 2026-08-31 05:20:42 | 52.41569 | 14.70545 | 73° | 141km/h | 12163m | 3.3m/s | -52.2°C | 5.2% | 196.5hPa | 2.7V | 00:00:00 | 00:00:00 | 00:00:00 | |
| DB0DAN | 2026-08-31 05:20:40 | 52.41536 | 14.70375 | 73° | 141km/h | 12150m | 3.1m/s | -52.3°C | 5.4% | 196.86hPa | 2.7V | 00:00:00 | 00:00:00 | 00:00:00 | |
| SONDE2-12 | 2026-08-31 05:20:37 | 52.41493 | 14.70145 | 73° | 144km/h | 12129m | 6.3m/s | -52.3°C | 7.0% | 197.4hPa | 2.8V | 00:00:00 | 00:00:00 | 00:00:00 | |
| AA1-15 | 2026-08-31 05:20:36 | 52.41493 | 14.70145 | 73° | 144km/h | 12129m | 6.3m/s | -52.3°C | 7.4% | 197.4hPa | 2.8V | 18:12:15 | 01:10:51 | 00:00:00 | |
| EDDB2-12 | 2026-08-31 05:20:33 | 52.41460 | 14.69975 | 71° | 144km/h | 12115m | 3.8m/s | -52.3°C | 5.8% | 197.9hPa | 2.8V | 00:00:00 | 00:00:00 | 00:00:00 | |
| KRY50SP-1 | 2026-08-31 05:20:27 | 52.41402 | 14.69691 | 73° | 142km/h | 12091m | 5.9m/s | -52.6°C | 6.2% | 198.6hPa | 2.8V | 00:00:00 | 00:00:00 | 00:00:00 | |
| DB0DAN | 2026-08-31 05:20:25 | 52.41368 | 14.69523 | 72° | 135km/h | 12077m | 5.1m/s | -52.7°C | 6.4% | 199.06hPa | 2.8V | 00:00:00 | 00:00:00 | 00:00:00 | |
| AA1-15 | 2026-08-31 05:20:25 | 52.41368 | 14.69523 | 72° | 142km/h | 12077m | 5.1m/s | -52.7°C | 8.5% | 199.1hPa | 2.8V | 18:12:15 | 01:10:40 | 00:00:00 | |
| AA1-15 | 2026-08-31 05:20:14 | 52.41246 | 14.68930 | 72° | 135km/h | 12026m | 4m/s | -52.6°C | 9.6% | 200.7hPa | 2.8V | 18:12:15 | 01:10:29 | 00:00:00 | |
| SP3WXH-11 | 2026-08-31 05:20:13 | 52.41235 | 14.68878 | 71° | 133km/h | 12020m | 6.7m/s | -52.5°C | 7.2% | 200.9hPa | 2.7V | 00:00:00 | 00:00:00 | 00:00:00 | |
| DB0DAN | 2026-08-31 05:20:10 | 52.41203 | 14.68719 | 72° | 130km/h | 12005m | 3.4m/s | -52.4°C | 7.6% | 201.33hPa | 2.7V | 00:00:00 | 00:00:00 | 00:00:00 | |
| DM0DOS-11 | 2026-08-31 05:20:09 | 52.41182 | 14.68613 | 71° | 135km/h | 11996m | 3.6m/s | 0°C | 0% | 0hPa | 2.8V | 00:00:00 | 01:10:23 | 00:00:00 | |
| SONDE2-12 | 2026-08-31 05:20:06 | 52.41150 | 14.68455 | 71° | 133km/h | 11982m | 5.4m/s | -52.7°C | 10.4% | 202.0hPa | 2.8V | 00:00:00 | 00:00:00 | 00:00:00 | |
| AA1-15 | 2026-08-31 05:20:04 | 52.41139 | 14.68403 | 70° | 133km/h | 11977m | 3.7m/s | -52.9°C | 12.1% | 202.2hPa | 2.8V | 18:12:15 | 01:10:19 | 00:00:00 | |
| DM0DOS-11 | 2026-08-31 05:20:03 | 52.41067 | 14.68086 | 69° | 141km/h | 11947m | 5.3m/s | 0°C | 0% | 0hPa | 2.8V | 00:00:00 | 01:10:13 | 00:00:00 | |
| SONCRA | 2026-08-31 05:20:03 | 52.41116 | 14.68299 | 70° | 133km/h | 11968m | 4.2m/s | -53.2°C | 9.0% | 202.5hPa | 2.8V | 00:00:00 | 00:00:00 | 00:00:00 | |
| EDDB2-12 | 2026-08-31 05:20:02 | 52.41116 | 14.68299 | 70° | 133km/h | 11968m | 4.2m/s | -53.2°C | 9.0% | 202.5hPa | 2.8V | 00:00:00 | 00:00:00 | 00:00:00 | |
| KRY50SP-1 | 2026-08-31 05:20:00 | 52.41104 | 14.68246 | 70° | 137km/h | 11963m | 6.1m/s | -53.3°C | 9.2% | 202.7hPa | 2.8V | 00:00:00 | 00:00:00 | 00:00:00 | |
| DB0DAN | 2026-08-31 05:19:55 | 52.41030 | 14.67922 | 71° | 133km/h | 11930m | 5.1m/s | -53.4°C | 10.1% | 203.71hPa | 2.8V | 00:00:00 | 00:00:00 | 00:00:00 | |
| AA1-15 | 2026-08-31 05:19:48 | 52.40948 | 14.67535 | 70° | 144km/h | 11896m | 4.3m/s | -53.5°C | 15.9% | 204.8hPa | 2.7V | 18:12:15 | 01:10:03 | 00:00:00 | |
| KRY50SP-1 | 2026-08-31 05:19:45 | 52.40923 | 14.67424 | 71° | 144km/h | 11885m | 4.4m/s | -53.7°C | 12.2% | 205.1hPa | 2.8V | 00:00:00 | 00:00:00 | 00:00:00 | |
| S3001 | 2026-08-31 05:19:44 | 52.40898 | 14.67311 | 69° | 144km/h | 11875m | 4.8m/s | -53.8°C | 12.9% | 205.4hPa | 2.8V | 00:00:00 | 00:00:00 | 00:00:00 | |
| SP6BVK | 2026-08-31 05:19:42 | 52.40886 | 14.67254 | 72° | 146km/h | 11871m | 4.6m/s | -53.9°C | 13.4% | 205.6hPa | 2.8V | 00:00:00 | 00:00:00 | 00:00:00 | |
| DB0DAN | 2026-08-31 05:19:40 | 52.40848 | 14.67083 | 70° | 139km/h | 11855m | 7.4m/s | -54.1°C | 14.3% | 206.1hPa | 2.8V | 00:00:00 | 00:00:00 | 00:00:00 | |
| SONDE2-12 | 2026-08-31 05:19:35 | 52.40768 | 14.66747 | 67° | 146km/h | 11824m | 4.0m/s | -54.5°C | 19.9% | 207.1hPa | 2.8V | 00:00:00 | 00:00:00 | 00:00:00 | |
| AA1-15 | 2026-08-31 05:19:32 | 52.40740 | 14.66635 | 68° | 146km/h | 11814m | 3.7m/s | -54.6°C | 22.4% | 207.4hPa | 2.8V | 18:12:15 | 01:09:47 | 00:00:00 | |
| SONCRA | 2026-08-31 05:19:32 | 52.40726 | 14.66578 | 68° | 148km/h | 11809m | 6.9m/s | -54.6°C | 16.9% | 207.6hPa | 2.7V | 00:00:00 | 00:00:00 | 00:00:00 | |
| EDDB2-12 | 2026-08-31 05:19:31 | 52.40726 | 14.66578 | 68° | 148km/h | 11809m | 6.9m/s | -54.6°C | 16.9% | 207.6hPa | 2.7V | 00:00:00 | 00:00:00 | 00:00:00 | |
| KRY50SP-1 | 2026-08-31 05:19:28 | 52.40699 | 14.66462 | 70° | 153km/h | 11799m | 4.7m/s | -54.6°C | 17.3% | 207.9hPa | 2.7V | 00:00:00 | 00:00:00 | 00:00:00 | |
| DB0DAN | 2026-08-31 05:19:25 | 52.40641 | 14.66217 | 68° | 153km/h | 11777m | 3.6m/s | -54.8°C | 19.1% | 208.61hPa | 2.7V | 00:00:00 | 00:00:00 | 00:00:00 | |
| DM0DOS-11 | 2026-08-31 05:19:24 | 52.40550 | 14.65846 | 67° | 161km/h | 11746m | 4.1m/s | 0°C | 0% | 0hPa | 2.7V | 00:00:00 | 01:09:34 | 00:00:00 | |
| AA1-15 | 2026-08-31 05:19:22 | 52.40595 | 14.66031 | 69° | 162km/h | 11761m | 6.7m/s | -54.9°C | 26.8% | 209.1hPa | 2.8V | 18:12:15 | 01:09:37 | 00:00:00 | |
| 13BRC | 2026-08-31 05:19:21 | 52.40595 | 14.66031 | 70° | 162km/h | 11761m | 6.7m/s | -54.9°C | 20.5% | 209.1hPa | 2.8V | 00:00:00 | 00:00:00 | 00:00:00 | |
| DB0NH | 2026-08-31 05:19:19 | 52.40550 | 14.65846 | 68° | 153km/h | 11746m | 4.1m/s | -54.9°C | 32.2% | 209.5hPa | 2.8V | 00:00:00 | 01:09:34 | 00:00:00 | |
| KRY50SP-1 | 2026-08-31 05:19:16 | 52.40520 | 14.65723 | 69° | 161km/h | 11735m | 4.5m/s | -55.1°C | 23.3% | 209.9hPa | 2.8V | 00:00:00 | 00:00:00 | 00:00:00 | |
| DM0DOS-11 | 2026-08-31 05:19:14 | 52.40392 | 14.65244 | 66° | 155km/h | 11692m | 7.4m/s | 0°C | 0% | 0hPa | 2.8V | 00:00:00 | 01:09:24 | 00:00:00 | |
| S3001 | 2026-08-31 05:19:13 | 52.40456 | 14.65481 | 65° | 157km/h | 11713m | 4.6m/s | -55.7°C | 25.9% | 210.7hPa | 2.8V | 00:00:00 | 00:00:00 | 00:00:00 | |
| DB0DAN | 2026-08-31 05:19:10 | 52.40407 | 14.65302 | 66° | 148km/h | 11697m | 3.3m/s | -55.8°C | 27.1% | 211.18hPa | 2.8V | 00:00:00 | 00:00:00 | 00:00:00 | |
| AA1-15 | 2026-08-31 05:19:10 | 52.40407 | 14.65302 | 67° | 155km/h | 11697m | 3.3m/s | -55.8°C | 33.5% | 211.2hPa | 2.8V | 18:12:15 | 01:09:25 | 00:00:00 | |
| SONDE2-12 | 2026-08-31 05:19:04 | 52.40292 | 14.64898 | 63° | 153km/h | 11660m | 5.5m/s | -56.0°C | 36.5% | 212.5hPa | 2.7V | 00:00:00 | 00:00:00 | 00:00:00 | |
| AA1-15 | 2026-08-31 05:18:59 | 52.40223 | 14.64669 | 63° | 153km/h | 11638m | 5.7m/s | -56°C | 37.3% | 213.3hPa | 2.7V | 18:12:15 | 01:09:14 | 00:00:00 | |
| AA1-15 | 2026-08-31 05:18:49 | 52.40059 | 14.64121 | 65° | 146km/h | 11585m | 6m/s | -56.2°C | 40.2% | 215hPa | 2.8V | 18:12:15 | 01:09:04 | 00:00:00 | |
| EDDB2-11 | 2026-08-31 05:18:48 | 52.40044 | 14.64066 | 65° | 146km/h | 11579m | 6.7m/s | -56.2°C | 34.6% | 215.2hPa | 2.7V | 00:00:00 | 00:00:00 | 00:00:00 | |
| DF8AY | 2026-08-31 05:18:45 | 52.39979 | 14.63849 | 63° | 144km/h | 11560m | 4.8m/s | -56.1°C | 41.7% | 215.9hPa | 2.7V | 18:12:15 | 01:08:59 | 00:00:00 | |
| DF8AY | 2026-08-31 05:18:34 | 52.39810 | 14.63313 | 63° | 150km/h | 11506m | 5.1m/s | -56.3°C | 43.9% | 217.7hPa | 2.8V | 18:12:15 | 01:08:49 | 00:00:00 | |
| SONDE2-12 | 2026-08-31 05:18:33 | 52.39775 | 14.63202 | 62° | 151km/h | 11496m | 6.7m/s | -56.2°C | 47.4% | 218.1hPa | 2.8V | 00:00:00 | 00:00:00 | 00:00:00 | |
| AA1-15 | 2026-08-31 05:18:32 | 52.39775 | 14.63202 | 62° | 151km/h | 11496m | 6.7m/s | -56.2°C | 44.2% | 218.1hPa | 2.8V | 18:12:15 | 01:08:47 | 00:00:00 | |
| SONCRA | 2026-08-31 05:18:30 | 52.39721 | 14.63034 | 61° | 153km/h | 11478m | 6.8m/s | -56.3°C | 0% | 218.7hPa | 2.7V | 00:00:00 | 00:00:00 | 00:00:00 | |
| EDDB2-12 | 2026-08-31 05:18:29 | 52.39721 | 14.63034 | 61° | 153km/h | 11478m | 6.8m/s | -56.3°C | 0% | 218.7hPa | 2.7V | 00:00:00 | 00:00:00 | 00:00:00 | |
| DB0DAN | 2026-08-31 05:18:25 | 52.39649 | 14.62809 | 62° | 146km/h | 11457m | 6.4m/s | -56.4°C | 38.6% | 219.36hPa | 2.7V | 00:00:00 | 00:00:00 | 00:00:00 | |
| AA1-15 | 2026-08-31 05:18:21 | 52.39578 | 14.62587 | 62° | 150km/h | 11436m | 6.5m/s | -56.4°C | 45.3% | 220.2hPa | 2.8V | 18:12:15 | 01:08:36 | 00:00:00 | |
| DF8AY | 2026-08-31 05:18:20 | 52.39560 | 14.62532 | 63° | 148km/h | 11430m | 5.7m/s | -56.3°C | 45.5% | 0hPa | 2.8V | 18:12:15 | 01:08:35 | 00:00:00 | |
| DF8AY | 2026-08-31 05:18:10 | 52.39390 | 14.61996 | 62° | 148km/h | 11375m | 4.6m/s | -56.2°C | 47.3% | 0hPa | 2.8V | 18:12:15 | 01:08:25 | 00:00:00 | |
| DB0DAN | 2026-08-31 05:18:10 | 52.39390 | 14.61996 | 62° | 141km/h | 11375m | 4.6m/s | -56.2°C | 42.1% | 222.23hPa | 2.8V | 00:00:00 | 00:00:00 | 00:00:00 | |
| SONDE2-12 | 2026-08-31 05:18:01 | 52.39232 | 14.61516 | 62° | 142km/h | 11329m | 6.4m/s | -56.2°C | 54.5% | 223.8hPa | 2.8V | 00:00:00 | 00:00:00 | 00:00:00 | |
| DF8AY | 2026-08-31 05:17:59 | 52.39200 | 14.61410 | 64° | 142km/h | 11319m | 6.8m/s | -56.1°C | 48.9% | 0hPa | 2.8V | 18:12:15 | 01:08:14 | 00:00:00 | |
| AA1-15 | 2026-08-31 05:17:58 | 52.39184 | 14.61358 | 63° | 142km/h | 11312m | 5.9m/s | -56.1°C | 49.1% | 224.4hPa | 2.8V | 18:12:15 | 01:08:13 | 00:00:00 | |
| DB0DAN | 2026-08-31 05:17:55 | 52.39136 | 14.61202 | 64° | 133km/h | 11295m | 3.5m/s | -55.9°C | 44.2% | 225.05hPa | 2.7V | 00:00:00 | 00:00:00 | 00:00:00 | |
| DF8AY | 2026-08-31 05:17:49 | 52.39042 | 14.60889 | 65° | 139km/h | 11261m | 6.3m/s | 0°C | 0% | 0hPa | 2.8V | 18:12:15 | 01:08:04 | 00:00:00 | |
| AA1-15 | 2026-08-31 05:17:47 | 52.39012 | 14.60785 | 65° | 139km/h | 11251m | 6.6m/s | -55.9°C | 50.5% | 226.5hPa | 2.8V | 18:12:15 | 01:08:02 | 00:00:00 | |
| EDDB2-11 | 2026-08-31 05:17:46 | 52.38998 | 14.60732 | 65° | 139km/h | 11246m | 3.4m/s | -55.8°C | 45.2% | 226.7hPa | 2.7V | 00:00:00 | 00:00:00 | 00:00:00 | |
| KRY50SP-1 | 2026-08-31 05:17:45 | 52.38997 | 14.60732 | 66° | 141km/h | 11246m | 3.4m/s | -55.8°C | 45.2% | 226.7hPa | 2.7V | 00:00:00 | 00:00:00 | 00:00:00 | |
| DB0DAN | 2026-08-31 05:17:40 | 52.38906 | 14.60417 | 64° | 135km/h | 11215m | 4m/s | -55.7°C | 46.3% | 227.85hPa | 2.7V | 00:00:00 | 00:00:00 | 00:00:00 | |
| DF8AY | 2026-08-31 05:17:38 | 52.38874 | 14.60312 | 64° | 142km/h | 11205m | 4.1m/s | 0°C | 0% | 0hPa | 2.8V | 18:12:15 | 01:07:53 | 00:00:00 | |
| AA1-15 | 2026-08-31 05:17:36 | 52.38842 | 14.60207 | 64° | 142km/h | 11194m | 4.9m/s | -55.5°C | 51.8% | 228.5hPa | 2.7V | 18:12:15 | 01:07:51 | 00:00:00 | |
| SONDE2-12 | 2026-08-31 05:17:30 | 52.38747 | 14.59884 | 63° | 144km/h | 11164m | 5.7m/s | -55.4°C | 60.9% | 229.7hPa | 2.8V | 00:00:00 | 00:00:00 | 00:00:00 | |
| DF8AY | 2026-08-31 05:17:28 | 52.38714 | 14.59779 | 63° | 142km/h | 11154m | 5.8m/s | 0°C | 0% | 0hPa | 2.8V | 18:12:15 | 01:07:43 | 00:00:00 | |
| KRY50SP-1 | 2026-08-31 05:17:28 | 52.38714 | 14.59779 | 64° | 142km/h | 11155m | 5.8m/s | -55.4°C | 49.0% | 230.0hPa | 2.7V | 00:00:00 | 00:00:00 | 00:00:00 | |
| DB0DAN | 2026-08-31 05:17:25 | 52.38665 | 14.59623 | 63° | 135km/h | 11140m | 5.1m/s | -55.4°C | 50.7% | 230.58hPa | 2.7V | 00:00:00 | 00:00:00 | 00:00:00 | |
| AA1-15 | 2026-08-31 05:17:25 | 52.38665 | 14.59623 | 63° | 141km/h | 11139m | 5.1m/s | -55.4°C | 55.8% | 230.6hPa | 2.7V | 18:12:15 | 01:07:40 | 00:00:00 | |
| AA1-15 | 2026-08-31 05:17:15 | 52.38502 | 14.59092 | 63° | 144km/h | 11091m | 4m/s | -55.3°C | 58.3% | 232.3hPa | 2.7V | 18:12:15 | 01:07:30 | 00:00:00 | |
| DL2RXE-15 | 2026-08-31 05:17:13 | 52.38486 | 14.59040 | 64° | 142km/h | 11086m | 6.7m/s | -55.3°C | 54.0% | 232.5hPa | 2.7V | 00:00:00 | 00:00:00 | 00:00:00 | |
| DB0DAN | 2026-08-31 05:17:10 | 52.38419 | 14.58834 | 62° | 133km/h | 11065m | 4m/s | -55.2°C | 54.6% | 233.32hPa | 2.7V | 00:00:00 | 00:00:00 | 00:00:00 | |
| AA1-15 | 2026-08-31 05:17:04 | 52.38321 | 14.58526 | 63° | 142km/h | 11039m | 3.1m/s | -55.1°C | 59.9% | 234.2hPa | 2.7V | 18:12:15 | 01:07:19 | 00:00:00 | |
| SONDE2-12 | 2026-08-31 05:16:59 | 52.38240 | 14.58266 | 62° | 141km/h | 11016m | 5.0m/s | -55.0°C | 70.8% | 235.1hPa | 2.8V | 00:00:00 | 00:00:00 | 00:00:00 | |
| EDDB2-12 | 2026-08-31 05:16:56 | 52.38172 | 14.58058 | 62° | 142km/h | 10997m | 5.8m/s | -54.9°C | 58.6% | 235.8hPa | 2.8V | 00:00:00 | 00:00:00 | 00:00:00 | |
| DB0DAN | 2026-08-31 05:16:55 | 52.38172 | 14.58058 | 62° | 137km/h | 10997m | 5.8m/s | -54.9°C | 58.6% | 235.81hPa | 2.8V | 00:00:00 | 00:00:00 | 00:00:00 | |
| AA1-15 | 2026-08-31 05:16:54 | 52.38155 | 14.58006 | 63° | 142km/h | 10993m | 3.9m/s | -54.8°C | 63.2% | 236hPa | 2.8V | 18:12:15 | 01:07:09 | 00:00:00 | |
| SONDE2-11 | 2026-08-31 05:16:49 | 52.38072 | 14.57743 | 61° | 142km/h | 10969m | 4.9m/s | -54.7°C | 64.4% | 236.9hPa | 2.8V | 00:00:00 | 00:00:00 | 00:00:00 | |
| AA1-15 | 2026-08-31 05:16:43 | 52.37972 | 14.57423 | 64° | 146km/h | 10943m | 3.1m/s | -54.7°C | 73.1% | 237.8hPa | 2.8V | 18:12:15 | 01:06:58 | 00:00:00 | |
| DB0DAN | 2026-08-31 05:16:40 | 52.37922 | 14.57259 | 63° | 141km/h | 10928m | 5.2m/s | -54.6°C | 74.4% | 238.37hPa | 2.7V | 00:00:00 | 00:00:00 | 00:00:00 | |
| AA1-15 | 2026-08-31 05:16:32 | 52.37770 | 14.56848 | 58° | 146km/h | 10892m | 6m/s | -54.2°C | 76% | 239.8hPa | 2.8V | 18:12:15 | 01:06:47 | 00:00:00 | |
| SONDE2-12 | 2026-08-31 05:16:28 | 52.37696 | 14.56637 | 59° | 153km/h | 10868m | 5.8m/s | -54.0°C | 92.6% | 240.6hPa | 2.8V | 00:00:00 | 00:00:00 | 00:00:00 | |
| AA1-15 | 2026-08-31 05:16:21 | 52.37560 | 14.56269 | 58° | 139km/h | 10831m | 5.9m/s | -53.7°C | 77.8% | 241.9hPa | 2.8V | 18:12:15 | 01:06:36 | 00:00:00 | |
| AA1-15 | 2026-08-31 05:16:10 | 52.37365 | 14.55706 | 55° | 137km/h | 10773m | 7.7m/s | -53.2°C | 83.6% | 244.1hPa | 2.7V | 18:12:15 | 01:06:25 | 00:00:00 | |
| AA1-15 | 2026-08-31 05:15:59 | 52.37143 | 14.55143 | 56° | 150km/h | 10703m | 4.3m/s | -52.5°C | 81.5% | 246.8hPa | 2.9V | 18:12:15 | 01:06:14 | 00:00:00 | |
| SONDE2-12 | 2026-08-31 05:15:57 | 52.37101 | 14.55040 | 56° | 148km/h | 10694m | 2.7m/s | -52.4°C | 99.1% | 247.2hPa | 2.7V | 00:00:00 | 00:00:00 | 00:00:00 | |
| DB0DAN | 2026-08-31 05:15:55 | 52.37060 | 14.54937 | 57° | 144km/h | 10686m | 2.6m/s | -52.3°C | 79.7% | 247.52hPa | 2.7V | 00:00:00 | 00:00:00 | 00:00:00 | |
| AA1-15 | 2026-08-31 05:15:48 | 52.36914 | 14.54571 | 57° | 153km/h | 10654m | 6m/s | -52.1°C | 81% | 248.7hPa | 2.9V | 18:12:15 | 01:06:03 | 00:00:00 | |
| SONDE2-11 | 2026-08-31 05:15:47 | 52.36893 | 14.54517 | 58° | 153km/h | 10649m | 4.1m/s | -52.0°C | 81.3% | 248.9hPa | 2.7V | 00:00:00 | 00:00:00 | 00:00:00 | |
| KRY50SP-1 | 2026-08-31 05:15:44 | 52.36853 | 14.54410 | 59° | 150km/h | 10641m | 3.8m/s | -51.9°C | 80.9% | 249.2hPa | 2.7V | 00:00:00 | 00:00:00 | 00:00:00 | |
| DB0DAN | 2026-08-31 05:15:40 | 52.36752 | 14.54150 | 57° | 142km/h | 10620m | 5.4m/s | -51.8°C | 80.3% | 250.06hPa | 2.7V | 00:00:00 | 00:00:00 | 00:00:00 | |
| AA1-15 | 2026-08-31 05:15:38 | 52.36688 | 14.53991 | 57° | 153km/h | 10605m | 4.9m/s | -51.7°C | 81.1% | 250.6hPa | 2.8V | 18:12:15 | 01:05:52 | 00:00:00 | |
| AA1-15 | 2026-08-31 05:15:26 | 52.36455 | 14.53418 | 55° | 148km/h | 10554m | 4.7m/s | -51.3°C | 77.4% | 252.6hPa | 2.8V | 18:12:15 | 01:05:41 | 00:00:00 | |
| SONDE2-12 | 2026-08-31 05:15:26 | 52.36455 | 14.53418 | 55° | 148km/h | 10554m | 4.7m/s | -51.3°C | 91.6% | 252.6hPa | 2.9V | 00:00:00 | 00:00:00 | 00:00:00 | |
| DB0DAN | 2026-08-31 05:15:25 | 52.36434 | 14.53368 | 55° | 142km/h | 10550m | 4.1m/s | -51.3°C | 75.1% | 252.79hPa | 2.9V | 00:00:00 | 00:00:00 | 00:00:00 | |
| AA1-15 | 2026-08-31 05:15:16 | 52.36236 | 14.52899 | 56° | 151km/h | 10508m | 3.7m/s | -50.9°C | 77% | 254.4hPa | 2.9V | 18:12:15 | 01:05:31 | 00:00:00 | |
| DL2RXE-15 | 2026-08-31 05:15:15 | 52.36214 | 14.52847 | 57° | 151km/h | 10504m | 4.0m/s | -50.9°C | 76.8% | 254.5hPa | 2.9V | 00:00:00 | 00:00:00 | 00:00:00 | |
| DB0DAN | 2026-08-31 05:15:10 | 52.36103 | 14.52589 | 54° | 146km/h | 10478m | 7.8m/s | -50.7°C | 71.4% | 255.56hPa | 2.9V | 00:00:00 | 00:00:00 | 00:00:00 | |
| AA1-15 | 2026-08-31 05:15:05 | 52.35989 | 14.52334 | 54° | 153km/h | 10451m | 4.2m/s | -50.4°C | 74.4% | 256.7hPa | 2.7V | 18:12:15 | 01:05:20 | 00:00:00 | |
| S3001 | 2026-08-31 05:15:05 | 52.35967 | 14.52283 | 54° | 151km/h | 10446m | 4.7m/s | -50.4°C | 71.6% | 256.8hPa | 2.7V | 00:00:00 | 00:00:00 | 00:00:00 | |
| KRY50SP-1 | 2026-08-31 05:14:59 | 52.35880 | 14.52077 | 56° | 151km/h | 10428m | 6.2m/s | -50.2°C | 71.1% | 257.5hPa | 2.7V | 00:00:00 | 00:00:00 | 00:00:00 | |
| DB0DAN | 2026-08-31 05:14:55 | 52.35767 | 14.51820 | 54° | 144km/h | 10406m | 3.7m/s | -50.1°C | 73% | 258.4hPa | 2.7V | 00:00:00 | 00:00:00 | 00:00:00 | |
| AA1-15 | 2026-08-31 05:14:54 | 52.35745 | 14.51769 | 54° | 153km/h | 10402m | 4.7m/s | -50.1°C | 74.4% | 258.6hPa | 2.7V | 18:12:15 | 01:05:09 | 00:00:00 | |
| EDDB2-12 | 2026-08-31 05:14:52 | 52.35677 | 14.51616 | 54° | 151km/h | 10388m | 5.3m/s | -50.0°C | 74.6% | 259.1hPa | 2.7V | 00:00:00 | 00:00:00 | 00:00:00 | |
| AA1-15 | 2026-08-31 05:14:43 | 52.35497 | 14.51203 | 54° | 151km/h | 10346m | 6.6m/s | -49.7°C | 75.7% | 260.7hPa | 2.7V | 18:12:15 | 01:04:58 | 00:00:00 | |
| KRY50SP-1 | 2026-08-31 05:14:42 | 52.35497 | 14.51203 | 55° | 151km/h | 10346m | 6.6m/s | -49.7°C | 74.5% | 260.7hPa | 2.9V | 00:00:00 | 00:00:00 | 00:00:00 | |
| DB0DAN | 2026-08-31 05:14:40 | 52.35429 | 14.51050 | 54° | 148km/h | 10330m | 5.3m/s | -49.6°C | 73.2% | 261.3hPa | 2.9V | 00:00:00 | 00:00:00 | 00:00:00 | |
| AA1-15 | 2026-08-31 05:14:29 | 52.35184 | 14.50486 | 54° | 155km/h | 10280m | 4.7m/s | -49.1°C | 73.1% | 263.4hPa | 2.9V | 18:12:15 | 01:04:44 | 00:00:00 | |
| DB0DAN | 2026-08-31 05:14:25 | 52.35094 | 14.50281 | 54° | 144km/h | 10258m | 6m/s | -48.9°C | 71.4% | 264.17hPa | 2.7V | 00:00:00 | 00:00:00 | 00:00:00 | |
| SONDE2-12 | 2026-08-31 05:14:24 | 52.35071 | 14.50230 | 54° | 150km/h | 10254m | 3.4m/s | -48.8°C | 86.5% | 264.4hPa | 2.9V | 00:00:00 | 00:00:00 | 00:00:00 | |
| AA1-15 | 2026-08-31 05:14:18 | 52.34936 | 14.49921 | 54° | 153km/h | 10227m | 6m/s | -48.6°C | 71% | 265.5hPa | 2.9V | 18:12:15 | 01:04:33 | 00:00:00 | |
| SP6BVK | 2026-08-31 05:14:14 | 52.34869 | 14.49766 | 56° | 150km/h | 10212m | 4.4m/s | -48.5°C | 68.7% | 266.2hPa | 2.9V | 00:00:00 | 00:00:00 | 00:00:00 | |
| KRY50SP-1 | 2026-08-31 05:14:13 | 52.34847 | 14.49716 | 56° | 150km/h | 10207m | 6.2m/s | -48.5°C | 67.6% | 266.4hPa | 2.9V | 00:00:00 | 00:00:00 | 00:00:00 | |
| DB0DAN | 2026-08-31 05:14:10 | 52.34759 | 14.49513 | 55° | 144km/h | 10186m | 4.7m/s | -48.3°C | 67.3% | 267.22hPa | 2.9V | 00:00:00 | 00:00:00 | 00:00:00 | |
| AA1-15 | 2026-08-31 05:14:07 | 52.34692 | 14.49357 | 54° | 153km/h | 10170m | 6.7m/s | -48.2°C | 68.2% | 267.8hPa | 2.7V | 18:12:15 | 01:04:22 | 00:00:00 | |
| AA1-15 | 2026-08-31 05:13:56 | 52.34453 | 14.48800 | 55° | 150km/h | 10114m | 5m/s | -47.7°C | 69.3% | 270.2hPa | 2.7V | 18:12:15 | 01:04:11 | 00:00:00 | |
| SONDE2-12 | 2026-08-31 05:13:53 | 52.34389 | 14.48649 | 55° | 146km/h | 10094m | 7.5m/s | -47.6°C | 80.9% | 270.9hPa | 2.9V | 00:00:00 | 00:00:00 | 00:00:00 | |
| AA1-15 | 2026-08-31 05:13:46 | 52.34241 | 14.48292 | 57° | 151km/h | 10057m | 6.6m/s | -47.3°C | 69.8% | 272.4hPa | 2.9V | 18:12:15 | 01:04:01 | 00:00:00 | |
| KRY50SP-1 | 2026-08-31 05:13:45 | 52.34241 | 14.48292 | 58° | 151km/h | 10057m | 6.6m/s | -47.3°C | 68.1% | 272.4hPa | 2.9V | 00:00:00 | 00:00:00 | 00:00:00 | |
| DL2RXE-15 | 2026-08-31 05:13:42 | 52.34178 | 14.48137 | 57° | 150km/h | 10042m | 5.1m/s | -47.1°C | 67.6% | 273.1hPa | 2.9V | 00:00:00 | 00:00:00 | 00:00:00 | |
| DB0DAN | 2026-08-31 05:13:40 | 52.34115 | 14.47983 | 56° | 142km/h | 10027m | 6.4m/s | -47°C | 66.8% | 273.61hPa | 2.9V | 00:00:00 | 00:00:00 | 00:00:00 | |
| AA1-15 | 2026-08-31 05:13:26 | 52.33822 | 14.47259 | 56° | 151km/h | 9958m | 4.3m/s | -46.4°C | 67.9% | 276.4hPa | 2.9V | 18:12:15 | 01:03:41 | 00:00:00 | |
| DB0DAN | 2026-08-31 05:13:25 | 52.33800 | 14.47208 | 55° | 146km/h | 9953m | 5.5m/s | -46.4°C | 65.8% | 276.66hPa | 2.7V | 00:00:00 | 00:00:00 | 00:00:00 | |
| SONDE2-12 | 2026-08-31 05:13:22 | 52.33733 | 14.47052 | 54° | 153km/h | 9936m | 5.5m/s | -46.2°C | 79.5% | 277.4hPa | 2.9V | 00:00:00 | 00:00:00 | 00:00:00 | |
| AA1-15 | 2026-08-31 05:13:16 | 52.33602 | 14.46739 | 57° | 148km/h | 9908m | 3.9m/s | -45.9°C | 67.3% | 278.7hPa | 2.9V | 18:12:15 | 01:03:31 | 00:00:00 | |
| 13BRC | 2026-08-31 05:13:13 | 52.33561 | 14.46637 | 58° | 150km/h | 9899m | 2.3m/s | -45.8°C | 65.5% | 279.1hPa | 2.9V | 00:00:00 | 00:00:00 | 00:00:00 | |
| SP6BVK | 2026-08-31 05:13:12 | 52.33541 | 14.46585 | 58° | 150km/h | 9894m | 7.5m/s | -45.8°C | 64.4% | 279.3hPa | 2.9V | 00:00:00 | 00:00:00 | 00:00:00 | |
| DB0DAN | 2026-08-31 05:13:10 | 52.33479 | 14.46430 | 56° | 144km/h | 9876m | 5.2m/s | -45.7°C | 65.7% | 280.15hPa | 2.9V | 00:00:00 | 00:00:00 | 00:00:00 | |
| AA1-15 | 2026-08-31 05:13:04 | 52.33345 | 14.46115 | 56° | 157km/h | 9846m | 6.9m/s | -45.4°C | 66.1% | 281.3hPa | 2.9V | 18:12:15 | 01:03:19 | 00:00:00 | |
| S3001 | 2026-08-31 05:13:00 | 52.33263 | 14.45901 | 58° | 150km/h | 9826m | 6.0m/s | -45.2°C | 67.2% | 282.2hPa | 2.9V | 00:00:00 | 00:00:00 | 00:00:00 | |
| SP3WXH-11 | 2026-08-31 05:12:59 | 52.33243 | 14.45849 | 57° | 146km/h | 9820m | 5.5m/s | -45.2°C | 67.3% | 282.4hPa | 2.9V | 00:00:00 | 00:00:00 | 00:00:00 | |
| DB0DAN | 2026-08-31 05:12:55 | 52.33159 | 14.45648 | 54° | 141km/h | 9801m | 5.8m/s | -45°C | 67.2% | 283.18hPa | 2.9V | 00:00:00 | 00:00:00 | 00:00:00 | |
| SONDE2-12 | 2026-08-31 05:12:51 | 52.33072 | 14.45435 | 58° | 157km/h | 9779m | 6.4m/s | -44.8°C | 78.0% | 284.2hPa | 2.9V | 00:00:00 | 00:00:00 | 00:00:00 | |
| EDDB2-12 | 2026-08-31 05:12:47 | 52.32987 | 14.45227 | 55° | 148km/h | 9751m | 8.5m/s | -44.5°C | 66.0% | 285.4hPa | 2.9V | 00:00:00 | 00:00:00 | 00:00:00 | |
| AA1-15 | 2026-08-31 05:12:42 | 52.32886 | 14.44973 | 60° | 150km/h | 9723m | 3.6m/s | -44.3°C | 66.8% | 286.6hPa | 2.9V | 18:12:15 | 01:02:57 | 00:00:00 | |
| DB0DAN | 2026-08-31 05:12:40 | 52.32849 | 14.44862 | 63° | 148km/h | 9712m | 4.8m/s | -44.2°C | 67.2% | 287hPa | 2.7V | 00:00:00 | 00:00:00 | 00:00:00 | |
| AA1-15 | 2026-08-31 05:12:32 | 52.32680 | 14.44422 | 59° | 157km/h | 9662m | 7m/s | -43.8°C | 64.9% | 289.2hPa | 2.7V | 18:12:15 | 01:02:47 | 00:00:00 | |
| 13BRC | 2026-08-31 05:12:31 | 52.32680 | 14.44422 | 60° | 157km/h | 9663m | 7.0m/s | -43.8°C | 0% | 289.2hPa | 2.9V | 00:00:00 | 00:00:00 | 00:00:00 | |
| MECKS9 | 2026-08-31 05:12:30 | 52.32661 | 14.44367 | 63° | 151km/h | 9656m | 5.9m/s | -43.7°C | 67.8% | 289.4hPa | 2.9V | 00:00:00 | 00:00:00 | 00:00:00 | |
| S3001 | 2026-08-31 05:12:29 | 52.32629 | 14.44257 | 65° | 144km/h | 9645m | 7.0m/s | -43.6°C | 68.0% | 289.9hPa | 2.9V | 00:00:00 | 00:00:00 | 00:00:00 | |
| SP3WXH-11 | 2026-08-31 05:12:28 | 52.32613 | 14.44203 | 63° | 146km/h | 9637m | 7.2m/s | 0°C | -1.0% | -1.0hPa | 2.9V | 00:00:00 | 00:00:00 | 00:00:00 | |
| DB0DAN | 2026-08-31 05:12:25 | 52.32554 | 14.44040 | 58° | 151km/h | 9619m | 5.1m/s | -43.4°C | 67.6% | 291.01hPa | 2.9V | 00:00:00 | 00:00:00 | 00:00:00 | |
| SONDE2-12 | 2026-08-31 05:12:20 | 52.32460 | 14.43768 | 59° | 141km/h | 9570m | 9.8m/s | -42.9°C | 80.3% | 293.1hPa | 2.9V | 00:00:00 | 00:00:00 | 00:00:00 | |
| DB0NH | 2026-08-31 05:12:19 | 52.32441 | 14.43719 | 56° | 139km/h | 9562m | 6.3m/s | 0°C | 0% | 0hPa | 2.9V | 00:00:00 | 01:02:34 | 00:00:00 | |
| EDDB2-12 | 2026-08-31 05:12:16 | 52.32376 | 14.43584 | 52° | 139km/h | 9541m | 5.7m/s | -42.7°C | 69.3% | 294.4hPa | 2.9V | 00:00:00 | 00:00:00 | 00:00:00 | |
| KRY50SP-1 | 2026-08-31 05:12:15 | 52.32376 | 14.43584 | 53° | 141km/h | 9541m | 5.7m/s | -42.7°C | 69.4% | 294.4hPa | 2.9V | 00:00:00 | 00:00:00 | 00:00:00 | |
| DB0DAN | 2026-08-31 05:12:10 | 52.32265 | 14.43289 | 61° | 130km/h | 9495m | 6.3m/s | -42.3°C | 69.1% | 296.36hPa | 2.9V | 00:00:00 | 00:00:00 | 00:00:00 | |
| AA1-15 | 2026-08-31 05:12:03 | 52.32137 | 14.42932 | 63° | 150km/h | 9454m | 6.3m/s | -42°C | 68.9% | 298.4hPa | 2.9V | 18:12:15 | 01:02:18 | 00:00:00 | |
| S3001 | 2026-08-31 05:11:58 | 52.32052 | 14.42669 | 60° | 135km/h | 9427m | 7.8m/s | -41.7°C | 67.2% | 299.6hPa | 2.9V | 00:00:00 | 00:00:00 | 00:00:00 | |
| DB0DAN | 2026-08-31 05:11:55 | 52.31999 | 14.42524 | 60° | 130km/h | 9412m | 6.4m/s | -41.6°C | 67.4% | 300.36hPa | 2.9V | 00:00:00 | 00:00:00 | 00:00:00 | |
| AA1-15 | 2026-08-31 05:11:52 | 52.31949 | 14.42366 | 64° | 151km/h | 9396m | 3.9m/s | -41.5°C | 66.2% | 301hPa | 2.7V | 18:12:15 | 01:02:07 | 00:00:00 | |
| SONDE2-12 | 2026-08-31 05:11:49 | 52.31903 | 14.42199 | 67° | 141km/h | 9381m | 4.7m/s | -41.3°C | 83.2% | 301.6hPa | 2.9V | 00:00:00 | 00:00:00 | 00:00:00 | |
| EDDB2-12 | 2026-08-31 05:11:45 | 52.31842 | 14.42006 | 58° | 130km/h | 9357m | 6.7m/s | -41.3°C | 72.3% | 302.7hPa | 2.9V | 00:00:00 | 00:00:00 | 00:00:00 | |
| AA1-15 | 2026-08-31 05:11:41 | 52.31759 | 14.41810 | 57° | 155km/h | 9334m | 6m/s | -41.2°C | 69.8% | 303.6hPa | 2.9V | 18:12:15 | 01:01:56 | 00:00:00 | |
| AA1-15 | 2026-08-31 05:11:30 | 52.31613 | 14.41258 | 75° | 131km/h | 9253m | 8m/s | -40.5°C | 69.2% | 307.2hPa | 2.7V | 18:12:15 | 01:01:45 | 00:00:00 | |
| SP6BVK | 2026-08-31 05:11:28 | 52.31603 | 14.41206 | 72° | 133km/h | 9245m | 7.2m/s | -40.4°C | 72.1% | 307.7hPa | 2.9V | 00:00:00 | 00:00:00 | 00:00:00 | |
| DB0DAN | 2026-08-31 05:11:25 | 52.31540 | 14.41008 | 55° | 126km/h | 9213m | 8.6m/s | -40.2°C | 71.5% | 309.02hPa | 2.9V | 00:00:00 | 00:00:00 | 00:00:00 | |
| AA1-15 | 2026-08-31 05:11:20 | 52.31460 | 14.40802 | 61° | 102km/h | 9175m | 8.9m/s | -39.8°C | 69.7% | 310.8hPa | 2.9V | 18:12:15 | 01:01:35 | 00:00:00 | |
| SONDE2-12 | 2026-08-31 05:11:18 | 52.31434 | 14.40733 | 55° | 99km/h | 9159m | 5.3m/s | -39.7°C | 82.1% | 311.6hPa | 2.9V | 00:00:00 | 00:00:00 | 00:00:00 | |
| EDDB2-12 | 2026-08-31 05:11:14 | 52.31368 | 14.40589 | 55° | 119km/h | 9135m | 7.2m/s | -39.5°C | 70.5% | 312.7hPa | 2.9V | 00:00:00 | 00:00:00 | 00:00:00 | |
| DB0DAN | 2026-08-31 05:11:10 | 52.31314 | 14.40404 | 73° | 119km/h | 9107m | 5.7m/s | -39.2°C | 69.1% | 313.94hPa | 2.9V | 00:00:00 | 00:00:00 | 00:00:00 | |
| AA1-15 | 2026-08-31 05:11:09 | 52.31305 | 14.40356 | 74° | 117km/h | 9101m | 6.8m/s | -39.2°C | 67.7% | 314.2hPa | 2.7V | 18:12:15 | 01:01:24 | 00:00:00 | |
| SP6BVK | 2026-08-31 05:11:08 | 52.31305 | 14.40356 | 75° | 117km/h | 9101m | 6.8m/s | -39.2°C | 69.7% | 314.2hPa | 2.9V | 00:00:00 | 00:00:00 | 00:00:00 | |
| KRY50SP-1 | 2026-08-31 05:11:07 | 52.31296 | 14.40312 | 71° | 110km/h | 9095m | 5.7m/s | -39.1°C | 70.6% | 314.5hPa | 2.9V | 00:00:00 | 00:00:00 | 00:00:00 | |
| EDDB2-11 | 2026-08-31 05:11:03 | 52.31205 | 14.40071 | 56° | 128km/h | 9059m | 5.1m/s | -38.8°C | 69.4% | 316.2hPa | 2.9V | 00:00:00 | 00:00:00 | 00:00:00 | |
| S3001 | 2026-08-31 05:10:56 | 52.31132 | 14.39784 | 72° | 111km/h | 9024m | 6.4m/s | -38.5°C | 70.7% | 317.7hPa | 2.9V | 00:00:00 | 00:00:00 | 00:00:00 | |
| DB0DAN | 2026-08-31 05:10:55 | 52.31123 | 14.39741 | 68° | 104km/h | 9018m | 6.8m/s | -38.4°C | 70.4% | 318.03hPa | 2.9V | 00:00:00 | 00:00:00 | 00:00:00 | |
| SONDE2-12 | 2026-08-31 05:10:47 | 52.31013 | 14.39409 | 71° | 104km/h | 8961m | 5.8m/s | -37.9°C | 77.3% | 320.7hPa | 2.9V | 00:00:00 | 00:00:00 | 00:00:00 | |
| MECKS9 | 2026-08-31 05:10:44 | 52.30998 | 14.39329 | 75° | 97km/h | 8947m | 9.8m/s | -37.8°C | 65.4% | 321.3hPa | 2.9V | 00:00:00 | 00:00:00 | 00:00:00 | |
| SP3BTT-10 | 2026-08-31 05:10:43 | 52.30982 | 14.39252 | 69° | 115km/h | 8933m | 5.9m/s | -37.6°C | 79.0% | 322.0hPa | 2.9V | 00:00:00 | 00:00:00 | 00:00:00 | |
| DB0DAN | 2026-08-31 05:10:40 | 52.30950 | 14.39127 | 67° | 115km/h | 8912m | 5.4m/s | -37.4°C | 64.6% | 323.02hPa | 2.9V | 00:00:00 | 00:00:00 | 00:00:00 | |
| AA1-15 | 2026-08-31 05:10:38 | 52.30926 | 14.39034 | 69° | 119km/h | 8896m | 9.1m/s | -37.3°C | 63% | 323.7hPa | 2.7V | 18:12:15 | 01:00:53 | 00:00:00 | |
| SONDE2-11 | 2026-08-31 05:10:36 | 52.30908 | 14.38946 | 72° | 106km/h | 8884m | 5.5m/s | -37.2°C | 63.6% | 324.4hPa | 2.9V | 00:00:00 | 00:00:00 | 00:00:00 | |
| MECKS9 | 2026-08-31 05:10:33 | 52.30892 | 14.38864 | 71° | 104km/h | 8873m | 6.1m/s | -37.0°C | 63.6% | 324.8hPa | 2.9V | 00:00:00 | 00:00:00 | 00:00:00 | |
| EDDB2-11 | 2026-08-31 05:10:32 | 52.30859 | 14.38740 | 66° | 111km/h | 8851m | 10.5m/s | -36.8°C | 61.7% | 325.8hPa | 2.9V | 00:00:00 | 00:00:00 | 00:00:00 | |
| KRY50SP-1 | 2026-08-31 05:10:30 | 52.30859 | 14.38740 | 68° | 111km/h | 8851m | 10.5m/s | -36.8°C | 61.8% | 325.8hPa | 2.9V | 00:00:00 | 00:00:00 | 00:00:00 | |
| 13BRC | 2026-08-31 05:10:28 | 52.30839 | 14.38654 | 72° | 113km/h | 8834m | 7.9m/s | -36.7°C | 62.2% | 326.7hPa | 2.9V | 00:00:00 | 00:00:00 | 00:00:00 | |
| DB0DAN | 2026-08-31 05:10:25 | 52.30804 | 14.38466 | 73° | 115km/h | 8816m | 6.5m/s | -36.6°C | 62.5% | 327.49hPa | 2.9V | 00:00:00 | 00:00:00 | 00:00:00 | |
| SONDE2-12 | 2026-08-31 05:10:16 | 52.30697 | 14.38100 | 62° | 128km/h | 8752m | 6.1m/s | -36.0°C | 75.1% | 330.4hPa | 2.7V | 00:00:00 | 00:00:00 | 00:00:00 | |
| AA1-15 | 2026-08-31 05:10:15 | 52.30683 | 14.38052 | 67° | 126km/h | 8746m | 6.8m/s | -36°C | 65.1% | 330.7hPa | 2.7V | 18:12:15 | 01:00:30 | 00:00:00 | |
| SP3BTT-10 | 2026-08-31 05:10:13 | 52.30662 | 14.37958 | 73° | 95km/h | 8731m | 7.9m/s | -35.8°C | 77.5% | 331.4hPa | 2.9V | 00:00:00 | 00:00:00 | 00:00:00 | |
| DB0DAN | 2026-08-31 05:10:10 | 52.30635 | 14.37842 | 62° | 89km/h | 8708m | 8.7m/s | -35.7°C | 66.5% | 332.6hPa | 2.9V | 00:00:00 | 00:00:00 | 00:00:00 | |
| AA1-15 | 2026-08-31 05:10:04 | 52.30554 | 14.37632 | 68° | 100km/h | 8667m | 6.4m/s | -35.3°C | 65.5% | 334.6hPa | 2.9V | 18:12:15 | 01:00:19 | 00:00:00 | |
| KRY50SP-1 | 2026-08-31 05:10:03 | 52.30555 | 14.37632 | 69° | 100km/h | 8667m | 6.4m/s | -35.3°C | 66.8% | 334.6hPa | 2.9V | 00:00:00 | 00:00:00 | 00:00:00 | |
| EDDB2-11 | 2026-08-31 05:10:00 | 52.30521 | 14.37485 | 65° | 97km/h | 8639m | 4.1m/s | -35.1°C | 67.3% | 335.9hPa | 2.9V | 00:00:00 | 00:00:00 | 00:00:00 | |
| MECKS9 | 2026-08-31 05:09:58 | 52.30509 | 14.37447 | 63° | 106km/h | 8634m | 6.5m/s | -35.0°C | 66.2% | 336.1hPa | 2.9V | 00:00:00 | 00:00:00 | 00:00:00 | |
| DB0DAN | 2026-08-31 05:09:55 | 52.30451 | 14.37283 | 66° | 111km/h | 8609m | 4.2m/s | -34.8°C | 66% | 337.31hPa | 2.9V | 00:00:00 | 00:00:00 | 00:00:00 | |
| Es werden nur die letzten 3500 von 3821 Frames angezeigt. GPX/KML und Diagramme bleiben verfügbar. | |||||||||||||||